<?xml version="1.0" encoding="UTF-8" standalone="no" ?>
<gpx xmlns="http://www.topografix.com/GPX/1/1" xmlns:xsi="http://www.w3.org/2001/XMLSchema-instance" xsi:schemaLocation="http://www.topografix.com/GPX/1/1 http://www.topografix.com/GPX/1/1/gpx.xsd" version="1.1" creator="VisuGPX - https://www.visugpx.com">
  <metadata>
    <name>suite voyage</name>
  </metadata>
  <trk>
    <name><![CDATA[T15]]></name>
    <trkseg>
      <trkpt lat="49.37366" lon="-1.26947">
        <ele>36.3</ele>
        <time>2020-06-16T07:37:50Z</time>
      </trkpt>
      <trkpt lat="49.36612" lon="-1.28137">
        <ele>7.6</ele>
        <time>2020-06-16T07:37:52Z</time>
      </trkpt>
      <trkpt lat="49.36602" lon="-1.28125">
        <ele>7.2</ele>
        <time>2020-06-16T07:37:53Z</time>
      </trkpt>
      <trkpt lat="49.36601" lon="-1.28122">
        <ele>7.1</ele>
        <time>2020-06-16T07:37:54Z</time>
      </trkpt>
      <trkpt lat="49.36597" lon="-1.2812">
        <ele>7</ele>
        <time>2020-06-16T07:37:55Z</time>
      </trkpt>
      <trkpt lat="49.3659" lon="-1.28112">
        <ele>6.8</ele>
        <time>2020-06-16T07:37:56Z</time>
      </trkpt>
      <trkpt lat="49.36591" lon="-1.28114">
        <ele>6.7</ele>
        <time>2020-06-16T07:37:57Z</time>
      </trkpt>
      <trkpt lat="49.36588" lon="-1.28115">
        <ele>6.7</ele>
        <time>2020-06-16T07:37:58Z</time>
      </trkpt>
      <trkpt lat="49.36582" lon="-1.28112">
        <ele>6.5</ele>
        <time>2020-06-16T07:37:59Z</time>
      </trkpt>
      <trkpt lat="49.36577" lon="-1.28109">
        <ele>6.4</ele>
        <time>2020-06-16T07:38:00Z</time>
      </trkpt>
      <trkpt lat="49.36571" lon="-1.28107">
        <ele>6.3</ele>
        <time>2020-06-16T07:38:01Z</time>
      </trkpt>
      <trkpt lat="49.36566" lon="-1.28103">
        <ele>6.2</ele>
        <time>2020-06-16T07:38:02Z</time>
      </trkpt>
      <trkpt lat="49.36559" lon="-1.281">
        <ele>6.1</ele>
        <time>2020-06-16T07:38:03Z</time>
      </trkpt>
      <trkpt lat="49.36553" lon="-1.28098">
        <ele>6</ele>
        <time>2020-06-16T07:38:04Z</time>
      </trkpt>
      <trkpt lat="49.36547" lon="-1.28095">
        <ele>5.8</ele>
        <time>2020-06-16T07:38:05Z</time>
      </trkpt>
      <trkpt lat="49.36541" lon="-1.28094">
        <ele>5.7</ele>
        <time>2020-06-16T07:38:06Z</time>
      </trkpt>
      <trkpt lat="49.36535" lon="-1.2809">
        <ele>5.6</ele>
        <time>2020-06-16T07:38:07Z</time>
      </trkpt>
      <trkpt lat="49.36528" lon="-1.28087">
        <ele>5.5</ele>
        <time>2020-06-16T07:38:08Z</time>
      </trkpt>
      <trkpt lat="49.36522" lon="-1.28085">
        <ele>5.4</ele>
        <time>2020-06-16T07:38:09Z</time>
      </trkpt>
      <trkpt lat="49.36516" lon="-1.28083">
        <ele>5.3</ele>
        <time>2020-06-16T07:38:10Z</time>
      </trkpt>
      <trkpt lat="49.3651" lon="-1.28082">
        <ele>5.2</ele>
        <time>2020-06-16T07:38:11Z</time>
      </trkpt>
      <trkpt lat="49.36504" lon="-1.2808">
        <ele>5.1</ele>
        <time>2020-06-16T07:38:13Z</time>
      </trkpt>
      <trkpt lat="49.36498" lon="-1.28078">
        <ele>5</ele>
        <time>2020-06-16T07:38:14Z</time>
      </trkpt>
      <trkpt lat="49.36491" lon="-1.28077">
        <ele>4.9</ele>
        <time>2020-06-16T07:38:15Z</time>
      </trkpt>
      <trkpt lat="49.36485" lon="-1.28075">
        <ele>4.8</ele>
        <time>2020-06-16T07:38:16Z</time>
      </trkpt>
      <trkpt lat="49.36479" lon="-1.28074">
        <ele>4.7</ele>
        <time>2020-06-16T07:38:17Z</time>
      </trkpt>
      <trkpt lat="49.36473" lon="-1.28072">
        <ele>4.7</ele>
        <time>2020-06-16T07:38:18Z</time>
      </trkpt>
      <trkpt lat="49.36466" lon="-1.28071">
        <ele>4.6</ele>
        <time>2020-06-16T07:38:19Z</time>
      </trkpt>
      <trkpt lat="49.3646" lon="-1.28067">
        <ele>4.5</ele>
        <time>2020-06-16T07:38:20Z</time>
      </trkpt>
      <trkpt lat="49.36454" lon="-1.28064">
        <ele>4.5</ele>
        <time>2020-06-16T07:38:21Z</time>
      </trkpt>
      <trkpt lat="49.36447" lon="-1.28061">
        <ele>4.5</ele>
        <time>2020-06-16T07:38:22Z</time>
      </trkpt>
      <trkpt lat="49.3644" lon="-1.28058">
        <ele>4.4</ele>
        <time>2020-06-16T07:38:23Z</time>
      </trkpt>
      <trkpt lat="49.36434" lon="-1.28055">
        <ele>4.4</ele>
        <time>2020-06-16T07:38:24Z</time>
      </trkpt>
      <trkpt lat="49.36427" lon="-1.28051">
        <ele>4.4</ele>
        <time>2020-06-16T07:38:25Z</time>
      </trkpt>
      <trkpt lat="49.36421" lon="-1.28047">
        <ele>4.4</ele>
        <time>2020-06-16T07:38:26Z</time>
      </trkpt>
      <trkpt lat="49.36416" lon="-1.28043">
        <ele>4.4</ele>
        <time>2020-06-16T07:38:27Z</time>
      </trkpt>
      <trkpt lat="49.3641" lon="-1.28039">
        <ele>4.3</ele>
        <time>2020-06-16T07:38:28Z</time>
      </trkpt>
      <trkpt lat="49.36405" lon="-1.28035">
        <ele>4.3</ele>
        <time>2020-06-16T07:38:29Z</time>
      </trkpt>
      <trkpt lat="49.364" lon="-1.28033">
        <ele>4.3</ele>
        <time>2020-06-16T07:38:30Z</time>
      </trkpt>
      <trkpt lat="49.36396" lon="-1.2803">
        <ele>4.4</ele>
        <time>2020-06-16T07:38:31Z</time>
      </trkpt>
      <trkpt lat="49.36391" lon="-1.28027">
        <ele>4.5</ele>
        <time>2020-06-16T07:38:32Z</time>
      </trkpt>
      <trkpt lat="49.36387" lon="-1.28025">
        <ele>4.5</ele>
        <time>2020-06-16T07:38:33Z</time>
      </trkpt>
      <trkpt lat="49.36383" lon="-1.28025">
        <ele>4.6</ele>
        <time>2020-06-16T07:38:34Z</time>
      </trkpt>
      <trkpt lat="49.3638" lon="-1.28027">
        <ele>4.6</ele>
        <time>2020-06-16T07:38:35Z</time>
      </trkpt>
      <trkpt lat="49.36377" lon="-1.28032">
        <ele>4.5</ele>
        <time>2020-06-16T07:38:36Z</time>
      </trkpt>
      <trkpt lat="49.36373" lon="-1.28037">
        <ele>4.4</ele>
        <time>2020-06-16T07:38:37Z</time>
      </trkpt>
      <trkpt lat="49.36364" lon="-1.28051">
        <ele>3.8</ele>
        <time>2020-06-16T07:38:38Z</time>
      </trkpt>
      <trkpt lat="49.36361" lon="-1.28059">
        <ele>3.5</ele>
        <time>2020-06-16T07:38:39Z</time>
      </trkpt>
      <trkpt lat="49.36358" lon="-1.28068">
        <ele>3.3</ele>
        <time>2020-06-16T07:38:40Z</time>
      </trkpt>
      <trkpt lat="49.36356" lon="-1.28079">
        <ele>3.1</ele>
        <time>2020-06-16T07:38:41Z</time>
      </trkpt>
      <trkpt lat="49.36354" lon="-1.28088">
        <ele>3</ele>
        <time>2020-06-16T07:38:42Z</time>
      </trkpt>
      <trkpt lat="49.36351" lon="-1.28097">
        <ele>3</ele>
        <time>2020-06-16T07:38:43Z</time>
      </trkpt>
      <trkpt lat="49.36349" lon="-1.28109">
        <ele>2.9</ele>
        <time>2020-06-16T07:38:44Z</time>
      </trkpt>
      <trkpt lat="49.36348" lon="-1.28119">
        <ele>2.8</ele>
        <time>2020-06-16T07:38:45Z</time>
      </trkpt>
      <trkpt lat="49.36346" lon="-1.28128">
        <ele>2.8</ele>
        <time>2020-06-16T07:38:46Z</time>
      </trkpt>
      <trkpt lat="49.36344" lon="-1.28136">
        <ele>2.8</ele>
        <time>2020-06-16T07:38:47Z</time>
      </trkpt>
      <trkpt lat="49.36342" lon="-1.28144">
        <ele>2.8</ele>
        <time>2020-06-16T07:38:48Z</time>
      </trkpt>
      <trkpt lat="49.3634" lon="-1.28151">
        <ele>2.8</ele>
        <time>2020-06-16T07:38:49Z</time>
      </trkpt>
      <trkpt lat="49.36338" lon="-1.28158">
        <ele>2.8</ele>
        <time>2020-06-16T07:38:50Z</time>
      </trkpt>
      <trkpt lat="49.36336" lon="-1.28165">
        <ele>2.9</ele>
        <time>2020-06-16T07:38:51Z</time>
      </trkpt>
      <trkpt lat="49.36334" lon="-1.28172">
        <ele>2.9</ele>
        <time>2020-06-16T07:38:52Z</time>
      </trkpt>
      <trkpt lat="49.36331" lon="-1.28179">
        <ele>3</ele>
        <time>2020-06-16T07:38:53Z</time>
      </trkpt>
      <trkpt lat="49.36328" lon="-1.28186">
        <ele>3</ele>
        <time>2020-06-16T07:38:54Z</time>
      </trkpt>
      <trkpt lat="49.36326" lon="-1.28192">
        <ele>3.1</ele>
        <time>2020-06-16T07:38:55Z</time>
      </trkpt>
      <trkpt lat="49.36323" lon="-1.28198">
        <ele>3.3</ele>
        <time>2020-06-16T07:38:56Z</time>
      </trkpt>
      <trkpt lat="49.36319" lon="-1.28203">
        <ele>3.4</ele>
        <time>2020-06-16T07:38:57Z</time>
      </trkpt>
      <trkpt lat="49.36316" lon="-1.28206">
        <ele>3.6</ele>
        <time>2020-06-16T07:38:58Z</time>
      </trkpt>
      <trkpt lat="49.36312" lon="-1.28209">
        <ele>3.8</ele>
        <time>2020-06-16T07:38:59Z</time>
      </trkpt>
      <trkpt lat="49.36309" lon="-1.28211">
        <ele>4</ele>
        <time>2020-06-16T07:39:00Z</time>
      </trkpt>
      <trkpt lat="49.36305" lon="-1.28213">
        <ele>4.2</ele>
        <time>2020-06-16T07:39:01Z</time>
      </trkpt>
      <trkpt lat="49.363" lon="-1.28214">
        <ele>4.4</ele>
        <time>2020-06-16T07:39:02Z</time>
      </trkpt>
      <trkpt lat="49.36297" lon="-1.28215">
        <ele>4.6</ele>
        <time>2020-06-16T07:39:03Z</time>
      </trkpt>
      <trkpt lat="49.36293" lon="-1.28217">
        <ele>4.8</ele>
        <time>2020-06-16T07:39:04Z</time>
      </trkpt>
      <trkpt lat="49.3629" lon="-1.28218">
        <ele>5</ele>
        <time>2020-06-16T07:39:05Z</time>
      </trkpt>
      <trkpt lat="49.36286" lon="-1.28218">
        <ele>5.2</ele>
        <time>2020-06-16T07:39:06Z</time>
      </trkpt>
      <trkpt lat="49.36283" lon="-1.28219">
        <ele>5.4</ele>
        <time>2020-06-16T07:39:07Z</time>
      </trkpt>
      <trkpt lat="49.3628" lon="-1.28219">
        <ele>5.6</ele>
        <time>2020-06-16T07:39:08Z</time>
      </trkpt>
      <trkpt lat="49.36277" lon="-1.2822">
        <ele>5.8</ele>
        <time>2020-06-16T07:39:09Z</time>
      </trkpt>
      <trkpt lat="49.36274" lon="-1.28221">
        <ele>6</ele>
        <time>2020-06-16T07:39:10Z</time>
      </trkpt>
      <trkpt lat="49.36271" lon="-1.28222">
        <ele>6.2</ele>
        <time>2020-06-16T07:39:11Z</time>
      </trkpt>
      <trkpt lat="49.36268" lon="-1.28223">
        <ele>6.4</ele>
        <time>2020-06-16T07:39:12Z</time>
      </trkpt>
      <trkpt lat="49.36264" lon="-1.28224">
        <ele>6.6</ele>
        <time>2020-06-16T07:39:13Z</time>
      </trkpt>
      <trkpt lat="49.36261" lon="-1.28225">
        <ele>6.8</ele>
        <time>2020-06-16T07:39:14Z</time>
      </trkpt>
      <trkpt lat="49.36258" lon="-1.28226">
        <ele>7</ele>
        <time>2020-06-16T07:39:15Z</time>
      </trkpt>
      <trkpt lat="49.36255" lon="-1.28228">
        <ele>7.2</ele>
        <time>2020-06-16T07:39:16Z</time>
      </trkpt>
      <trkpt lat="49.36252" lon="-1.28229">
        <ele>7.4</ele>
        <time>2020-06-16T07:39:17Z</time>
      </trkpt>
      <trkpt lat="49.36249" lon="-1.28229">
        <ele>7.6</ele>
        <time>2020-06-16T07:39:18Z</time>
      </trkpt>
      <trkpt lat="49.36246" lon="-1.2823">
        <ele>7.7</ele>
        <time>2020-06-16T07:39:19Z</time>
      </trkpt>
      <trkpt lat="49.36242" lon="-1.28231">
        <ele>8</ele>
        <time>2020-06-16T07:39:20Z</time>
      </trkpt>
      <trkpt lat="49.36239" lon="-1.28233">
        <ele>8.2</ele>
        <time>2020-06-16T07:39:21Z</time>
      </trkpt>
      <trkpt lat="49.36236" lon="-1.28234">
        <ele>8.3</ele>
        <time>2020-06-16T07:39:22Z</time>
      </trkpt>
      <trkpt lat="49.36232" lon="-1.28235">
        <ele>8.5</ele>
        <time>2020-06-16T07:39:23Z</time>
      </trkpt>
      <trkpt lat="49.36229" lon="-1.28235">
        <ele>8.7</ele>
        <time>2020-06-16T07:39:24Z</time>
      </trkpt>
      <trkpt lat="49.36226" lon="-1.28236">
        <ele>8.9</ele>
        <time>2020-06-16T07:39:25Z</time>
      </trkpt>
      <trkpt lat="49.36223" lon="-1.28236">
        <ele>9</ele>
        <time>2020-06-16T07:39:26Z</time>
      </trkpt>
      <trkpt lat="49.3622" lon="-1.28237">
        <ele>9.2</ele>
        <time>2020-06-16T07:39:27Z</time>
      </trkpt>
      <trkpt lat="49.36217" lon="-1.28239">
        <ele>9.4</ele>
        <time>2020-06-16T07:39:28Z</time>
      </trkpt>
      <trkpt lat="49.36215" lon="-1.28239">
        <ele>9.5</ele>
        <time>2020-06-16T07:39:29Z</time>
      </trkpt>
      <trkpt lat="49.36212" lon="-1.2824">
        <ele>9.7</ele>
        <time>2020-06-16T07:39:30Z</time>
      </trkpt>
      <trkpt lat="49.36208" lon="-1.28239">
        <ele>9.9</ele>
        <time>2020-06-16T07:39:31Z</time>
      </trkpt>
      <trkpt lat="49.36205" lon="-1.2824">
        <ele>10.1</ele>
        <time>2020-06-16T07:39:32Z</time>
      </trkpt>
      <trkpt lat="49.36202" lon="-1.28241">
        <ele>10.3</ele>
        <time>2020-06-16T07:39:33Z</time>
      </trkpt>
      <trkpt lat="49.36198" lon="-1.28241">
        <ele>10.5</ele>
        <time>2020-06-16T07:39:34Z</time>
      </trkpt>
      <trkpt lat="49.36195" lon="-1.28242">
        <ele>10.7</ele>
        <time>2020-06-16T07:39:35Z</time>
      </trkpt>
      <trkpt lat="49.36192" lon="-1.28243">
        <ele>10.9</ele>
        <time>2020-06-16T07:39:36Z</time>
      </trkpt>
      <trkpt lat="49.36188" lon="-1.28244">
        <ele>11.1</ele>
        <time>2020-06-16T07:39:37Z</time>
      </trkpt>
      <trkpt lat="49.36184" lon="-1.28245">
        <ele>11.3</ele>
        <time>2020-06-16T07:39:38Z</time>
      </trkpt>
      <trkpt lat="49.3618" lon="-1.28246">
        <ele>11.4</ele>
        <time>2020-06-16T07:39:39Z</time>
      </trkpt>
      <trkpt lat="49.36177" lon="-1.28247">
        <ele>11.6</ele>
        <time>2020-06-16T07:39:40Z</time>
      </trkpt>
      <trkpt lat="49.36173" lon="-1.28248">
        <ele>11.7</ele>
        <time>2020-06-16T07:39:41Z</time>
      </trkpt>
      <trkpt lat="49.36169" lon="-1.28249">
        <ele>11.8</ele>
        <time>2020-06-16T07:39:42Z</time>
      </trkpt>
      <trkpt lat="49.36165" lon="-1.2825">
        <ele>11.9</ele>
        <time>2020-06-16T07:39:43Z</time>
      </trkpt>
      <trkpt lat="49.36162" lon="-1.2825">
        <ele>12.1</ele>
        <time>2020-06-16T07:39:44Z</time>
      </trkpt>
      <trkpt lat="49.36158" lon="-1.28251">
        <ele>12.3</ele>
        <time>2020-06-16T07:39:45Z</time>
      </trkpt>
      <trkpt lat="49.36155" lon="-1.28253">
        <ele>12.4</ele>
        <time>2020-06-16T07:39:46Z</time>
      </trkpt>
      <trkpt lat="49.36152" lon="-1.28254">
        <ele>12.6</ele>
        <time>2020-06-16T07:39:47Z</time>
      </trkpt>
      <trkpt lat="49.36149" lon="-1.28255">
        <ele>12.7</ele>
        <time>2020-06-16T07:39:48Z</time>
      </trkpt>
      <trkpt lat="49.36145" lon="-1.28257">
        <ele>12.9</ele>
        <time>2020-06-16T07:39:49Z</time>
      </trkpt>
      <trkpt lat="49.36142" lon="-1.28258">
        <ele>13</ele>
        <time>2020-06-16T07:39:50Z</time>
      </trkpt>
      <trkpt lat="49.36138" lon="-1.28259">
        <ele>13.2</ele>
        <time>2020-06-16T07:39:51Z</time>
      </trkpt>
      <trkpt lat="49.36135" lon="-1.28261">
        <ele>13.3</ele>
        <time>2020-06-16T07:39:52Z</time>
      </trkpt>
      <trkpt lat="49.36131" lon="-1.28263">
        <ele>13.5</ele>
        <time>2020-06-16T07:39:53Z</time>
      </trkpt>
      <trkpt lat="49.36127" lon="-1.28265">
        <ele>13.7</ele>
        <time>2020-06-16T07:39:54Z</time>
      </trkpt>
      <trkpt lat="49.36123" lon="-1.28266">
        <ele>13.8</ele>
        <time>2020-06-16T07:39:55Z</time>
      </trkpt>
      <trkpt lat="49.3612" lon="-1.28266">
        <ele>14</ele>
        <time>2020-06-16T07:39:56Z</time>
      </trkpt>
      <trkpt lat="49.36117" lon="-1.28265">
        <ele>14.1</ele>
        <time>2020-06-16T07:39:57Z</time>
      </trkpt>
      <trkpt lat="49.36114" lon="-1.28262">
        <ele>14.3</ele>
        <time>2020-06-16T07:39:58Z</time>
      </trkpt>
      <trkpt lat="49.36113" lon="-1.2826">
        <ele>14.7</ele>
        <time>2020-06-16T07:39:59Z</time>
      </trkpt>
      <trkpt lat="49.36113" lon="-1.28254">
        <ele>14.6</ele>
        <time>2020-06-16T07:40:00Z</time>
      </trkpt>
      <trkpt lat="49.36113" lon="-1.28253">
        <ele>14.6</ele>
        <time>2020-06-16T07:40:01Z</time>
      </trkpt>
      <trkpt lat="49.36114" lon="-1.28249">
        <ele>14.5</ele>
        <time>2020-06-16T07:40:02Z</time>
      </trkpt>
      <trkpt lat="49.36115" lon="-1.28247">
        <ele>14.5</ele>
        <time>2020-06-16T07:40:03Z</time>
      </trkpt>
      <trkpt lat="49.36117" lon="-1.28243">
        <ele>14.5</ele>
        <time>2020-06-16T07:40:04Z</time>
      </trkpt>
      <trkpt lat="49.36118" lon="-1.28238">
        <ele>14.4</ele>
        <time>2020-06-16T07:40:05Z</time>
      </trkpt>
      <trkpt lat="49.3612" lon="-1.28235">
        <ele>14.4</ele>
        <time>2020-06-16T07:40:06Z</time>
      </trkpt>
      <trkpt lat="49.36123" lon="-1.28231">
        <ele>14.3</ele>
        <time>2020-06-16T07:40:07Z</time>
      </trkpt>
      <trkpt lat="49.36125" lon="-1.28227">
        <ele>14.3</ele>
        <time>2020-06-16T07:40:08Z</time>
      </trkpt>
      <trkpt lat="49.31835" lon="-1.10141">
        <ele>6.4</ele>
        <time>2020-06-16T09:47:10Z</time>
      </trkpt>
      <trkpt lat="49.32552" lon="-1.08645">
        <ele>3</ele>
        <time>2020-06-16T09:54:13Z</time>
      </trkpt>
      <trkpt lat="49.32543" lon="-1.08649">
        <ele>3</ele>
        <time>2020-06-16T09:54:14Z</time>
      </trkpt>
      <trkpt lat="49.32545" lon="-1.08644">
        <ele>3</ele>
        <time>2020-06-16T09:54:15Z</time>
      </trkpt>
      <trkpt lat="49.32545" lon="-1.08639">
        <ele>3</ele>
        <time>2020-06-16T09:54:16Z</time>
      </trkpt>
      <trkpt lat="49.32548" lon="-1.08631">
        <ele>3</ele>
        <time>2020-06-16T09:54:17Z</time>
      </trkpt>
      <trkpt lat="49.32551" lon="-1.08625">
        <ele>3</ele>
        <time>2020-06-16T09:54:18Z</time>
      </trkpt>
      <trkpt lat="49.32551" lon="-1.08612">
        <ele>3</ele>
        <time>2020-06-16T09:54:19Z</time>
      </trkpt>
      <trkpt lat="49.32556" lon="-1.08606">
        <ele>3</ele>
        <time>2020-06-16T09:54:20Z</time>
      </trkpt>
      <trkpt lat="49.3256" lon="-1.08601">
        <ele>3</ele>
        <time>2020-06-16T09:54:21Z</time>
      </trkpt>
      <trkpt lat="49.3256" lon="-1.08601">
        <ele>3</ele>
        <time>2020-06-16T09:54:21Z</time>
      </trkpt>
      <trkpt lat="49.32563" lon="-1.08596">
        <ele>3</ele>
        <time>2020-06-16T09:54:24Z</time>
      </trkpt>
      <trkpt lat="49.32566" lon="-1.08591">
        <ele>3</ele>
        <time>2020-06-16T09:54:25Z</time>
      </trkpt>
      <trkpt lat="49.32573" lon="-1.08579">
        <ele>3</ele>
        <time>2020-06-16T09:54:26Z</time>
      </trkpt>
      <trkpt lat="49.32576" lon="-1.08573">
        <ele>3</ele>
        <time>2020-06-16T09:54:27Z</time>
      </trkpt>
      <trkpt lat="49.32579" lon="-1.08567">
        <ele>3</ele>
        <time>2020-06-16T09:54:28Z</time>
      </trkpt>
      <trkpt lat="49.32582" lon="-1.0856">
        <ele>3</ele>
        <time>2020-06-16T09:54:29Z</time>
      </trkpt>
      <trkpt lat="49.32585" lon="-1.08554">
        <ele>3</ele>
        <time>2020-06-16T09:54:30Z</time>
      </trkpt>
      <trkpt lat="49.32587" lon="-1.08548">
        <ele>3</ele>
        <time>2020-06-16T09:54:31Z</time>
      </trkpt>
      <trkpt lat="49.3259" lon="-1.08542">
        <ele>3</ele>
        <time>2020-06-16T09:54:32Z</time>
      </trkpt>
      <trkpt lat="49.32594" lon="-1.08536">
        <ele>3</ele>
        <time>2020-06-16T09:54:33Z</time>
      </trkpt>
      <trkpt lat="49.32598" lon="-1.08531">
        <ele>3</ele>
        <time>2020-06-16T09:54:34Z</time>
      </trkpt>
      <trkpt lat="49.32601" lon="-1.08524">
        <ele>3</ele>
        <time>2020-06-16T09:54:35Z</time>
      </trkpt>
      <trkpt lat="49.32604" lon="-1.08518">
        <ele>3.1</ele>
        <time>2020-06-16T09:54:36Z</time>
      </trkpt>
      <trkpt lat="49.32606" lon="-1.08511">
        <ele>3.1</ele>
        <time>2020-06-16T09:54:37Z</time>
      </trkpt>
      <trkpt lat="49.3261" lon="-1.08505">
        <ele>3.1</ele>
        <time>2020-06-16T09:54:38Z</time>
      </trkpt>
      <trkpt lat="49.32613" lon="-1.08498">
        <ele>3.1</ele>
        <time>2020-06-16T09:54:39Z</time>
      </trkpt>
      <trkpt lat="49.32616" lon="-1.08491">
        <ele>3.1</ele>
        <time>2020-06-16T09:54:40Z</time>
      </trkpt>
      <trkpt lat="49.3262" lon="-1.08483">
        <ele>3</ele>
        <time>2020-06-16T09:54:41Z</time>
      </trkpt>
      <trkpt lat="49.32624" lon="-1.08477">
        <ele>3</ele>
        <time>2020-06-16T09:54:42Z</time>
      </trkpt>
      <trkpt lat="49.32628" lon="-1.08471">
        <ele>3.1</ele>
        <time>2020-06-16T09:54:43Z</time>
      </trkpt>
      <trkpt lat="49.32631" lon="-1.08465">
        <ele>3.1</ele>
        <time>2020-06-16T09:54:44Z</time>
      </trkpt>
      <trkpt lat="49.32634" lon="-1.08458">
        <ele>3.1</ele>
        <time>2020-06-16T09:54:45Z</time>
      </trkpt>
      <trkpt lat="49.32638" lon="-1.08454">
        <ele>3.1</ele>
        <time>2020-06-16T09:54:46Z</time>
      </trkpt>
      <trkpt lat="49.32643" lon="-1.08449">
        <ele>3.1</ele>
        <time>2020-06-16T09:54:47Z</time>
      </trkpt>
      <trkpt lat="49.32647" lon="-1.08443">
        <ele>3.2</ele>
        <time>2020-06-16T09:54:48Z</time>
      </trkpt>
      <trkpt lat="49.3265" lon="-1.08437">
        <ele>3.2</ele>
        <time>2020-06-16T09:54:49Z</time>
      </trkpt>
      <trkpt lat="49.32653" lon="-1.0843">
        <ele>3.2</ele>
        <time>2020-06-16T09:54:50Z</time>
      </trkpt>
      <trkpt lat="49.32656" lon="-1.08424">
        <ele>3.2</ele>
        <time>2020-06-16T09:54:51Z</time>
      </trkpt>
      <trkpt lat="49.32659" lon="-1.08418">
        <ele>3.3</ele>
        <time>2020-06-16T09:54:52Z</time>
      </trkpt>
      <trkpt lat="49.32662" lon="-1.08411">
        <ele>3.3</ele>
        <time>2020-06-16T09:54:53Z</time>
      </trkpt>
      <trkpt lat="49.32664" lon="-1.08406">
        <ele>3.3</ele>
        <time>2020-06-16T09:54:54Z</time>
      </trkpt>
      <trkpt lat="49.32667" lon="-1.084">
        <ele>3.4</ele>
        <time>2020-06-16T09:54:55Z</time>
      </trkpt>
      <trkpt lat="49.3267" lon="-1.08394">
        <ele>3.4</ele>
        <time>2020-06-16T09:54:56Z</time>
      </trkpt>
      <trkpt lat="49.32673" lon="-1.08389">
        <ele>3.4</ele>
        <time>2020-06-16T09:54:57Z</time>
      </trkpt>
      <trkpt lat="49.32675" lon="-1.08382">
        <ele>3.5</ele>
        <time>2020-06-16T09:54:58Z</time>
      </trkpt>
      <trkpt lat="49.32677" lon="-1.08376">
        <ele>3.6</ele>
        <time>2020-06-16T09:54:59Z</time>
      </trkpt>
      <trkpt lat="49.3268" lon="-1.0837">
        <ele>3.7</ele>
        <time>2020-06-16T09:55:00Z</time>
      </trkpt>
      <trkpt lat="49.32682" lon="-1.08363">
        <ele>3.7</ele>
        <time>2020-06-16T09:55:01Z</time>
      </trkpt>
      <trkpt lat="49.32685" lon="-1.08356">
        <ele>3.9</ele>
        <time>2020-06-16T09:55:02Z</time>
      </trkpt>
      <trkpt lat="49.32688" lon="-1.08351">
        <ele>4</ele>
        <time>2020-06-16T09:55:03Z</time>
      </trkpt>
      <trkpt lat="49.32691" lon="-1.08346">
        <ele>4.1</ele>
        <time>2020-06-16T09:55:04Z</time>
      </trkpt>
      <trkpt lat="49.32694" lon="-1.08341">
        <ele>4.2</ele>
        <time>2020-06-16T09:55:05Z</time>
      </trkpt>
      <trkpt lat="49.32697" lon="-1.08336">
        <ele>4.3</ele>
        <time>2020-06-16T09:55:06Z</time>
      </trkpt>
      <trkpt lat="49.32701" lon="-1.08333">
        <ele>4.4</ele>
        <time>2020-06-16T09:55:07Z</time>
      </trkpt>
      <trkpt lat="49.32705" lon="-1.08331">
        <ele>4.6</ele>
        <time>2020-06-16T09:55:08Z</time>
      </trkpt>
      <trkpt lat="49.32709" lon="-1.0833">
        <ele>4.7</ele>
        <time>2020-06-16T09:55:09Z</time>
      </trkpt>
      <trkpt lat="49.32712" lon="-1.08329">
        <ele>4.7</ele>
        <time>2020-06-16T09:55:10Z</time>
      </trkpt>
      <trkpt lat="49.32715" lon="-1.08327">
        <ele>4.7</ele>
        <time>2020-06-16T09:55:11Z</time>
      </trkpt>
      <trkpt lat="49.32719" lon="-1.08325">
        <ele>4.7</ele>
        <time>2020-06-16T09:55:12Z</time>
      </trkpt>
      <trkpt lat="49.32723" lon="-1.08325">
        <ele>4.6</ele>
        <time>2020-06-16T09:55:13Z</time>
      </trkpt>
      <trkpt lat="49.32727" lon="-1.08325">
        <ele>4.6</ele>
        <time>2020-06-16T09:55:14Z</time>
      </trkpt>
      <trkpt lat="49.32731" lon="-1.08326">
        <ele>4.6</ele>
        <time>2020-06-16T09:55:15Z</time>
      </trkpt>
      <trkpt lat="49.32735" lon="-1.08329">
        <ele>4.6</ele>
        <time>2020-06-16T09:55:16Z</time>
      </trkpt>
      <trkpt lat="49.32739" lon="-1.08331">
        <ele>4.5</ele>
        <time>2020-06-16T09:55:17Z</time>
      </trkpt>
      <trkpt lat="49.32743" lon="-1.08333">
        <ele>4.5</ele>
        <time>2020-06-16T09:55:18Z</time>
      </trkpt>
      <trkpt lat="49.32747" lon="-1.08335">
        <ele>4.6</ele>
        <time>2020-06-16T09:55:19Z</time>
      </trkpt>
      <trkpt lat="49.32751" lon="-1.08337">
        <ele>4.6</ele>
        <time>2020-06-16T09:55:20Z</time>
      </trkpt>
      <trkpt lat="49.32755" lon="-1.08338">
        <ele>4.6</ele>
        <time>2020-06-16T09:55:21Z</time>
      </trkpt>
      <trkpt lat="49.32758" lon="-1.0834">
        <ele>4.6</ele>
        <time>2020-06-16T09:55:22Z</time>
      </trkpt>
      <trkpt lat="49.32761" lon="-1.08341">
        <ele>4.7</ele>
        <time>2020-06-16T09:55:23Z</time>
      </trkpt>
      <trkpt lat="49.32764" lon="-1.08343">
        <ele>4.7</ele>
        <time>2020-06-16T09:55:24Z</time>
      </trkpt>
      <trkpt lat="49.32767" lon="-1.08344">
        <ele>4.7</ele>
        <time>2020-06-16T09:55:25Z</time>
      </trkpt>
      <trkpt lat="49.32771" lon="-1.08344">
        <ele>4.8</ele>
        <time>2020-06-16T09:55:26Z</time>
      </trkpt>
      <trkpt lat="49.32774" lon="-1.08345">
        <ele>4.8</ele>
        <time>2020-06-16T09:55:27Z</time>
      </trkpt>
      <trkpt lat="49.32778" lon="-1.08346">
        <ele>4.8</ele>
        <time>2020-06-16T09:55:28Z</time>
      </trkpt>
      <trkpt lat="49.3278" lon="-1.08346">
        <ele>4.9</ele>
        <time>2020-06-16T09:55:29Z</time>
      </trkpt>
      <trkpt lat="49.32783" lon="-1.08347">
        <ele>4.9</ele>
        <time>2020-06-16T09:55:30Z</time>
      </trkpt>
      <trkpt lat="49.32786" lon="-1.08347">
        <ele>4.9</ele>
        <time>2020-06-16T09:55:31Z</time>
      </trkpt>
      <trkpt lat="49.32789" lon="-1.08346">
        <ele>5</ele>
        <time>2020-06-16T09:55:32Z</time>
      </trkpt>
      <trkpt lat="49.32793" lon="-1.08346">
        <ele>5</ele>
        <time>2020-06-16T09:55:33Z</time>
      </trkpt>
      <trkpt lat="49.32796" lon="-1.08344">
        <ele>5.4</ele>
        <time>2020-06-16T09:55:34Z</time>
      </trkpt>
      <trkpt lat="49.32799" lon="-1.0834">
        <ele>5.5</ele>
        <time>2020-06-16T09:55:35Z</time>
      </trkpt>
      <trkpt lat="49.32801" lon="-1.08332">
        <ele>5.7</ele>
        <time>2020-06-16T09:55:36Z</time>
      </trkpt>
      <trkpt lat="49.32804" lon="-1.08326">
        <ele>5.9</ele>
        <time>2020-06-16T09:55:37Z</time>
      </trkpt>
      <trkpt lat="49.32807" lon="-1.08321">
        <ele>6</ele>
        <time>2020-06-16T09:55:38Z</time>
      </trkpt>
      <trkpt lat="49.3281" lon="-1.08315">
        <ele>6.2</ele>
        <time>2020-06-16T09:55:39Z</time>
      </trkpt>
      <trkpt lat="49.32813" lon="-1.08308">
        <ele>6.4</ele>
        <time>2020-06-16T09:55:40Z</time>
      </trkpt>
      <trkpt lat="49.32816" lon="-1.083">
        <ele>6.5</ele>
        <time>2020-06-16T09:55:41Z</time>
      </trkpt>
      <trkpt lat="49.32818" lon="-1.08294">
        <ele>6.6</ele>
        <time>2020-06-16T09:55:42Z</time>
      </trkpt>
      <trkpt lat="49.32823" lon="-1.08287">
        <ele>6.7</ele>
        <time>2020-06-16T09:55:43Z</time>
      </trkpt>
      <trkpt lat="49.32826" lon="-1.08281">
        <ele>6.8</ele>
        <time>2020-06-16T09:55:44Z</time>
      </trkpt>
      <trkpt lat="49.3283" lon="-1.08276">
        <ele>6.9</ele>
        <time>2020-06-16T09:55:45Z</time>
      </trkpt>
      <trkpt lat="49.32832" lon="-1.0827">
        <ele>7</ele>
        <time>2020-06-16T09:55:46Z</time>
      </trkpt>
      <trkpt lat="49.32836" lon="-1.08264">
        <ele>7.1</ele>
        <time>2020-06-16T09:55:47Z</time>
      </trkpt>
      <trkpt lat="49.32839" lon="-1.08259">
        <ele>7.2</ele>
        <time>2020-06-16T09:55:48Z</time>
      </trkpt>
      <trkpt lat="49.32843" lon="-1.08252">
        <ele>7.3</ele>
        <time>2020-06-16T09:55:49Z</time>
      </trkpt>
      <trkpt lat="49.32846" lon="-1.08247">
        <ele>7.4</ele>
        <time>2020-06-16T09:55:50Z</time>
      </trkpt>
      <trkpt lat="49.32849" lon="-1.08241">
        <ele>7.5</ele>
        <time>2020-06-16T09:55:51Z</time>
      </trkpt>
      <trkpt lat="49.32852" lon="-1.08236">
        <ele>7.5</ele>
        <time>2020-06-16T09:55:52Z</time>
      </trkpt>
      <trkpt lat="49.32854" lon="-1.08231">
        <ele>7.6</ele>
        <time>2020-06-16T09:55:53Z</time>
      </trkpt>
      <trkpt lat="49.32856" lon="-1.08226">
        <ele>7.7</ele>
        <time>2020-06-16T09:55:54Z</time>
      </trkpt>
      <trkpt lat="49.32859" lon="-1.08221">
        <ele>7.8</ele>
        <time>2020-06-16T09:55:55Z</time>
      </trkpt>
      <trkpt lat="49.32861" lon="-1.08216">
        <ele>7.9</ele>
        <time>2020-06-16T09:55:56Z</time>
      </trkpt>
      <trkpt lat="49.32864" lon="-1.0821">
        <ele>8.1</ele>
        <time>2020-06-16T09:55:57Z</time>
      </trkpt>
      <trkpt lat="49.32867" lon="-1.08205">
        <ele>8.2</ele>
        <time>2020-06-16T09:55:58Z</time>
      </trkpt>
      <trkpt lat="49.3287" lon="-1.08201">
        <ele>8.3</ele>
        <time>2020-06-16T09:55:59Z</time>
      </trkpt>
      <trkpt lat="49.32872" lon="-1.08196">
        <ele>8.4</ele>
        <time>2020-06-16T09:56:00Z</time>
      </trkpt>
      <trkpt lat="49.32875" lon="-1.08191">
        <ele>8.5</ele>
        <time>2020-06-16T09:56:01Z</time>
      </trkpt>
      <trkpt lat="49.32877" lon="-1.08185">
        <ele>8.6</ele>
        <time>2020-06-16T09:56:02Z</time>
      </trkpt>
      <trkpt lat="49.3288" lon="-1.0818">
        <ele>8.8</ele>
        <time>2020-06-16T09:56:03Z</time>
      </trkpt>
      <trkpt lat="49.32883" lon="-1.08174">
        <ele>8.9</ele>
        <time>2020-06-16T09:56:04Z</time>
      </trkpt>
      <trkpt lat="49.32886" lon="-1.08169">
        <ele>9</ele>
        <time>2020-06-16T09:56:05Z</time>
      </trkpt>
      <trkpt lat="49.32889" lon="-1.08163">
        <ele>9.2</ele>
        <time>2020-06-16T09:56:06Z</time>
      </trkpt>
      <trkpt lat="49.32892" lon="-1.08158">
        <ele>9.3</ele>
        <time>2020-06-16T09:56:07Z</time>
      </trkpt>
      <trkpt lat="49.32896" lon="-1.08153">
        <ele>9.4</ele>
        <time>2020-06-16T09:56:08Z</time>
      </trkpt>
      <trkpt lat="49.32899" lon="-1.08147">
        <ele>9.5</ele>
        <time>2020-06-16T09:56:09Z</time>
      </trkpt>
      <trkpt lat="49.32903" lon="-1.08143">
        <ele>9.6</ele>
        <time>2020-06-16T09:56:10Z</time>
      </trkpt>
      <trkpt lat="49.32906" lon="-1.08139">
        <ele>9.7</ele>
        <time>2020-06-16T09:56:11Z</time>
      </trkpt>
      <trkpt lat="49.32909" lon="-1.08134">
        <ele>9.8</ele>
        <time>2020-06-16T09:56:12Z</time>
      </trkpt>
      <trkpt lat="49.32912" lon="-1.08129">
        <ele>9.8</ele>
        <time>2020-06-16T09:56:13Z</time>
      </trkpt>
      <trkpt lat="49.32916" lon="-1.08124">
        <ele>9.9</ele>
        <time>2020-06-16T09:56:14Z</time>
      </trkpt>
      <trkpt lat="49.3292" lon="-1.08119">
        <ele>10</ele>
        <time>2020-06-16T09:56:15Z</time>
      </trkpt>
      <trkpt lat="49.32923" lon="-1.08114">
        <ele>10.1</ele>
        <time>2020-06-16T09:56:16Z</time>
      </trkpt>
      <trkpt lat="49.32927" lon="-1.08109">
        <ele>10.3</ele>
        <time>2020-06-16T09:56:17Z</time>
      </trkpt>
      <trkpt lat="49.3293" lon="-1.08104">
        <ele>10.4</ele>
        <time>2020-06-16T09:56:18Z</time>
      </trkpt>
      <trkpt lat="49.32933" lon="-1.081">
        <ele>10.6</ele>
        <time>2020-06-16T09:56:19Z</time>
      </trkpt>
      <trkpt lat="49.32936" lon="-1.08096">
        <ele>10.7</ele>
        <time>2020-06-16T09:56:20Z</time>
      </trkpt>
      <trkpt lat="49.3294" lon="-1.08092">
        <ele>10.9</ele>
        <time>2020-06-16T09:56:21Z</time>
      </trkpt>
      <trkpt lat="49.32943" lon="-1.08087">
        <ele>11</ele>
        <time>2020-06-16T09:56:22Z</time>
      </trkpt>
      <trkpt lat="49.32946" lon="-1.08082">
        <ele>11.1</ele>
        <time>2020-06-16T09:56:23Z</time>
      </trkpt>
      <trkpt lat="49.32949" lon="-1.08078">
        <ele>11.2</ele>
        <time>2020-06-16T09:56:24Z</time>
      </trkpt>
      <trkpt lat="49.32952" lon="-1.08073">
        <ele>11.4</ele>
        <time>2020-06-16T09:56:25Z</time>
      </trkpt>
      <trkpt lat="49.32955" lon="-1.08069">
        <ele>11.5</ele>
        <time>2020-06-16T09:56:26Z</time>
      </trkpt>
      <trkpt lat="49.32959" lon="-1.08064">
        <ele>11.6</ele>
        <time>2020-06-16T09:56:27Z</time>
      </trkpt>
      <trkpt lat="49.32962" lon="-1.08059">
        <ele>11.8</ele>
        <time>2020-06-16T09:56:28Z</time>
      </trkpt>
      <trkpt lat="49.32966" lon="-1.08055">
        <ele>12</ele>
        <time>2020-06-16T09:56:29Z</time>
      </trkpt>
      <trkpt lat="49.32969" lon="-1.08051">
        <ele>12.1</ele>
        <time>2020-06-16T09:56:30Z</time>
      </trkpt>
      <trkpt lat="49.32973" lon="-1.08046">
        <ele>12.3</ele>
        <time>2020-06-16T09:56:31Z</time>
      </trkpt>
      <trkpt lat="49.32976" lon="-1.08042">
        <ele>12.4</ele>
        <time>2020-06-16T09:56:32Z</time>
      </trkpt>
      <trkpt lat="49.3298" lon="-1.08038">
        <ele>12.7</ele>
        <time>2020-06-16T09:56:33Z</time>
      </trkpt>
      <trkpt lat="49.32983" lon="-1.08033">
        <ele>12.8</ele>
        <time>2020-06-16T09:56:34Z</time>
      </trkpt>
      <trkpt lat="49.32987" lon="-1.08029">
        <ele>12.9</ele>
        <time>2020-06-16T09:56:35Z</time>
      </trkpt>
      <trkpt lat="49.32991" lon="-1.08024">
        <ele>12.9</ele>
        <time>2020-06-16T09:56:36Z</time>
      </trkpt>
      <trkpt lat="49.32994" lon="-1.08019">
        <ele>13</ele>
        <time>2020-06-16T09:56:37Z</time>
      </trkpt>
      <trkpt lat="49.32999" lon="-1.08015">
        <ele>13.1</ele>
        <time>2020-06-16T09:56:38Z</time>
      </trkpt>
      <trkpt lat="49.33003" lon="-1.08011">
        <ele>13.2</ele>
        <time>2020-06-16T09:56:39Z</time>
      </trkpt>
      <trkpt lat="49.33006" lon="-1.08006">
        <ele>13.2</ele>
        <time>2020-06-16T09:56:40Z</time>
      </trkpt>
      <trkpt lat="49.33009" lon="-1.08001">
        <ele>13.3</ele>
        <time>2020-06-16T09:56:41Z</time>
      </trkpt>
      <trkpt lat="49.3301" lon="-1.07996">
        <ele>13.4</ele>
        <time>2020-06-16T09:56:42Z</time>
      </trkpt>
      <trkpt lat="49.33012" lon="-1.07992">
        <ele>13.4</ele>
        <time>2020-06-16T09:56:43Z</time>
      </trkpt>
      <trkpt lat="49.33015" lon="-1.07989">
        <ele>13.5</ele>
        <time>2020-06-16T09:56:44Z</time>
      </trkpt>
      <trkpt lat="49.33017" lon="-1.07985">
        <ele>13.7</ele>
        <time>2020-06-16T09:56:45Z</time>
      </trkpt>
      <trkpt lat="49.33021" lon="-1.07984">
        <ele>13.7</ele>
        <time>2020-06-16T09:56:46Z</time>
      </trkpt>
      <trkpt lat="49.33024" lon="-1.07983">
        <ele>13.8</ele>
        <time>2020-06-16T09:56:47Z</time>
      </trkpt>
      <trkpt lat="49.33028" lon="-1.07983">
        <ele>14</ele>
        <time>2020-06-16T09:56:48Z</time>
      </trkpt>
      <trkpt lat="49.3303" lon="-1.07982">
        <ele>14</ele>
        <time>2020-06-16T09:56:49Z</time>
      </trkpt>
      <trkpt lat="49.33033" lon="-1.07982">
        <ele>14.1</ele>
        <time>2020-06-16T09:56:50Z</time>
      </trkpt>
      <trkpt lat="49.33036" lon="-1.07981">
        <ele>14.2</ele>
        <time>2020-06-16T09:56:51Z</time>
      </trkpt>
      <trkpt lat="49.33039" lon="-1.07979">
        <ele>14.3</ele>
        <time>2020-06-16T09:56:52Z</time>
      </trkpt>
      <trkpt lat="49.33043" lon="-1.07978">
        <ele>14.4</ele>
        <time>2020-06-16T09:56:53Z</time>
      </trkpt>
      <trkpt lat="49.33046" lon="-1.07976">
        <ele>14.5</ele>
        <time>2020-06-16T09:56:54Z</time>
      </trkpt>
      <trkpt lat="49.33049" lon="-1.07975">
        <ele>14.7</ele>
        <time>2020-06-16T09:56:55Z</time>
      </trkpt>
      <trkpt lat="49.33053" lon="-1.07973">
        <ele>14.7</ele>
        <time>2020-06-16T09:56:56Z</time>
      </trkpt>
      <trkpt lat="49.33054" lon="-1.07973">
        <ele>14.7</ele>
        <time>2020-06-16T09:56:57Z</time>
      </trkpt>
      <trkpt lat="49.33055" lon="-1.07969">
        <ele>14.6</ele>
        <time>2020-06-16T09:56:58Z</time>
      </trkpt>
      <trkpt lat="49.33055" lon="-1.07963">
        <ele>14.6</ele>
        <time>2020-06-16T09:56:59Z</time>
      </trkpt>
      <trkpt lat="49.33053" lon="-1.07959">
        <ele>14.6</ele>
        <time>2020-06-16T09:57:00Z</time>
      </trkpt>
      <trkpt lat="49.33051" lon="-1.07953">
        <ele>14.5</ele>
        <time>2020-06-16T09:57:01Z</time>
      </trkpt>
      <trkpt lat="49.33049" lon="-1.07946">
        <ele>14.5</ele>
        <time>2020-06-16T09:57:02Z</time>
      </trkpt>
      <trkpt lat="49.33047" lon="-1.07939">
        <ele>14.5</ele>
        <time>2020-06-16T09:57:03Z</time>
      </trkpt>
      <trkpt lat="49.33045" lon="-1.07932">
        <ele>14.5</ele>
        <time>2020-06-16T09:57:04Z</time>
      </trkpt>
      <trkpt lat="49.33043" lon="-1.07925">
        <ele>14.5</ele>
        <time>2020-06-16T09:57:05Z</time>
      </trkpt>
      <trkpt lat="49.33041" lon="-1.07917">
        <ele>14.5</ele>
        <time>2020-06-16T09:57:06Z</time>
      </trkpt>
      <trkpt lat="49.3304" lon="-1.0791">
        <ele>14.6</ele>
        <time>2020-06-16T09:57:07Z</time>
      </trkpt>
      <trkpt lat="49.33039" lon="-1.07902">
        <ele>14.6</ele>
        <time>2020-06-16T09:57:08Z</time>
      </trkpt>
      <trkpt lat="49.33038" lon="-1.07893">
        <ele>14.9</ele>
        <time>2020-06-16T09:57:09Z</time>
      </trkpt>
      <trkpt lat="49.33038" lon="-1.07886">
        <ele>15.2</ele>
        <time>2020-06-16T09:57:10Z</time>
      </trkpt>
      <trkpt lat="49.33038" lon="-1.07879">
        <ele>15.4</ele>
        <time>2020-06-16T09:57:11Z</time>
      </trkpt>
      <trkpt lat="49.3304" lon="-1.07875">
        <ele>15.5</ele>
        <time>2020-06-16T09:57:12Z</time>
      </trkpt>
      <trkpt lat="49.33043" lon="-1.07873">
        <ele>15.7</ele>
        <time>2020-06-16T09:57:13Z</time>
      </trkpt>
      <trkpt lat="49.33047" lon="-1.07871">
        <ele>15.8</ele>
        <time>2020-06-16T09:57:14Z</time>
      </trkpt>
      <trkpt lat="49.3305" lon="-1.07868">
        <ele>15.9</ele>
        <time>2020-06-16T09:57:15Z</time>
      </trkpt>
      <trkpt lat="49.33054" lon="-1.07866">
        <ele>16.1</ele>
        <time>2020-06-16T09:57:16Z</time>
      </trkpt>
      <trkpt lat="49.33058" lon="-1.07864">
        <ele>16.3</ele>
        <time>2020-06-16T09:57:17Z</time>
      </trkpt>
      <trkpt lat="49.33062" lon="-1.07862">
        <ele>16.5</ele>
        <time>2020-06-16T09:57:18Z</time>
      </trkpt>
      <trkpt lat="49.33065" lon="-1.0786">
        <ele>16.7</ele>
        <time>2020-06-16T09:57:19Z</time>
      </trkpt>
      <trkpt lat="49.33068" lon="-1.07858">
        <ele>16.8</ele>
        <time>2020-06-16T09:57:20Z</time>
      </trkpt>
      <trkpt lat="49.33071" lon="-1.07856">
        <ele>17</ele>
        <time>2020-06-16T09:57:21Z</time>
      </trkpt>
      <trkpt lat="49.33073" lon="-1.07854">
        <ele>17.2</ele>
        <time>2020-06-16T09:57:22Z</time>
      </trkpt>
      <trkpt lat="49.33076" lon="-1.07853">
        <ele>17.3</ele>
        <time>2020-06-16T09:57:23Z</time>
      </trkpt>
      <trkpt lat="49.3308" lon="-1.0785">
        <ele>17.7</ele>
        <time>2020-06-16T09:57:24Z</time>
      </trkpt>
      <trkpt lat="49.33083" lon="-1.07848">
        <ele>17.7</ele>
        <time>2020-06-16T09:57:25Z</time>
      </trkpt>
      <trkpt lat="49.33086" lon="-1.07847">
        <ele>17.7</ele>
        <time>2020-06-16T09:57:26Z</time>
      </trkpt>
      <trkpt lat="49.33089" lon="-1.07846">
        <ele>17.9</ele>
        <time>2020-06-16T09:57:27Z</time>
      </trkpt>
      <trkpt lat="49.33091" lon="-1.07844">
        <ele>18.1</ele>
        <time>2020-06-16T09:57:28Z</time>
      </trkpt>
      <trkpt lat="49.33096" lon="-1.07842">
        <ele>18.4</ele>
        <time>2020-06-16T09:57:29Z</time>
      </trkpt>
      <trkpt lat="49.33097" lon="-1.07841">
        <ele>18.5</ele>
        <time>2020-06-16T09:57:30Z</time>
      </trkpt>
      <trkpt lat="49.331" lon="-1.07839">
        <ele>18.7</ele>
        <time>2020-06-16T09:57:31Z</time>
      </trkpt>
      <trkpt lat="49.33104" lon="-1.07837">
        <ele>18.8</ele>
        <time>2020-06-16T09:57:32Z</time>
      </trkpt>
      <trkpt lat="49.33105" lon="-1.07837">
        <ele>18.9</ele>
        <time>2020-06-16T09:57:33Z</time>
      </trkpt>
      <trkpt lat="49.33109" lon="-1.07835">
        <ele>19.1</ele>
        <time>2020-06-16T09:57:34Z</time>
      </trkpt>
      <trkpt lat="49.33111" lon="-1.07834">
        <ele>19.2</ele>
        <time>2020-06-16T09:57:35Z</time>
      </trkpt>
      <trkpt lat="49.33114" lon="-1.07832">
        <ele>19.3</ele>
        <time>2020-06-16T09:57:36Z</time>
      </trkpt>
      <trkpt lat="49.33117" lon="-1.07831">
        <ele>19.5</ele>
        <time>2020-06-16T09:57:37Z</time>
      </trkpt>
      <trkpt lat="49.3312" lon="-1.0783">
        <ele>19.6</ele>
        <time>2020-06-16T09:57:38Z</time>
      </trkpt>
      <trkpt lat="49.33123" lon="-1.07829">
        <ele>19.8</ele>
        <time>2020-06-16T09:57:39Z</time>
      </trkpt>
      <trkpt lat="49.33126" lon="-1.07827">
        <ele>20</ele>
        <time>2020-06-16T09:57:40Z</time>
      </trkpt>
      <trkpt lat="49.33129" lon="-1.07825">
        <ele>20.1</ele>
        <time>2020-06-16T09:57:41Z</time>
      </trkpt>
      <trkpt lat="49.33132" lon="-1.07824">
        <ele>20.2</ele>
        <time>2020-06-16T09:57:42Z</time>
      </trkpt>
      <trkpt lat="49.33135" lon="-1.07823">
        <ele>20.4</ele>
        <time>2020-06-16T09:57:43Z</time>
      </trkpt>
      <trkpt lat="49.33136" lon="-1.07822">
        <ele>20.5</ele>
        <time>2020-06-16T09:57:44Z</time>
      </trkpt>
      <trkpt lat="49.33139" lon="-1.0782">
        <ele>20.7</ele>
        <time>2020-06-16T09:57:45Z</time>
      </trkpt>
      <trkpt lat="49.3314" lon="-1.07819">
        <ele>20.7</ele>
        <time>2020-06-16T09:57:46Z</time>
      </trkpt>
      <trkpt lat="49.33143" lon="-1.07816">
        <ele>20.9</ele>
        <time>2020-06-16T09:57:47Z</time>
      </trkpt>
      <trkpt lat="49.33146" lon="-1.07815">
        <ele>21</ele>
        <time>2020-06-16T09:57:48Z</time>
      </trkpt>
      <trkpt lat="49.33148" lon="-1.07813">
        <ele>21.2</ele>
        <time>2020-06-16T09:57:49Z</time>
      </trkpt>
      <trkpt lat="49.33152" lon="-1.07811">
        <ele>21.4</ele>
        <time>2020-06-16T09:57:50Z</time>
      </trkpt>
      <trkpt lat="49.33154" lon="-1.0781">
        <ele>21.5</ele>
        <time>2020-06-16T09:57:51Z</time>
      </trkpt>
      <trkpt lat="49.33157" lon="-1.07809">
        <ele>21.6</ele>
        <time>2020-06-16T09:57:52Z</time>
      </trkpt>
      <trkpt lat="49.33158" lon="-1.07809">
        <ele>21.7</ele>
        <time>2020-06-16T09:57:53Z</time>
      </trkpt>
      <trkpt lat="49.33161" lon="-1.07809">
        <ele>21.8</ele>
        <time>2020-06-16T09:57:54Z</time>
      </trkpt>
      <trkpt lat="49.33164" lon="-1.07807">
        <ele>21.9</ele>
        <time>2020-06-16T09:57:55Z</time>
      </trkpt>
      <trkpt lat="49.33167" lon="-1.07805">
        <ele>22</ele>
        <time>2020-06-16T09:57:56Z</time>
      </trkpt>
      <trkpt lat="49.33168" lon="-1.07804">
        <ele>22</ele>
        <time>2020-06-16T09:57:57Z</time>
      </trkpt>
      <trkpt lat="49.33171" lon="-1.07802">
        <ele>22.1</ele>
        <time>2020-06-16T09:57:58Z</time>
      </trkpt>
      <trkpt lat="49.33172" lon="-1.07801">
        <ele>22.1</ele>
        <time>2020-06-16T09:57:59Z</time>
      </trkpt>
      <trkpt lat="49.33174" lon="-1.07797">
        <ele>22.2</ele>
        <time>2020-06-16T09:58:00Z</time>
      </trkpt>
      <trkpt lat="49.33175" lon="-1.07797">
        <ele>22.2</ele>
        <time>2020-06-16T09:58:01Z</time>
      </trkpt>
      <trkpt lat="49.33176" lon="-1.07797">
        <ele>22.2</ele>
        <time>2020-06-16T09:58:02Z</time>
      </trkpt>
      <trkpt lat="49.33177" lon="-1.07797">
        <ele>22.2</ele>
        <time>2020-06-16T09:58:03Z</time>
      </trkpt>
      <trkpt lat="49.33178" lon="-1.07797">
        <ele>22.2</ele>
        <time>2020-06-16T09:58:04Z</time>
      </trkpt>
      <trkpt lat="49.33179" lon="-1.07797">
        <ele>22.3</ele>
        <time>2020-06-16T09:58:05Z</time>
      </trkpt>
      <trkpt lat="49.33181" lon="-1.07795">
        <ele>22.3</ele>
        <time>2020-06-16T09:58:06Z</time>
      </trkpt>
      <trkpt lat="49.33182" lon="-1.07794">
        <ele>22.3</ele>
        <time>2020-06-16T09:58:07Z</time>
      </trkpt>
      <trkpt lat="49.33183" lon="-1.07793">
        <ele>22.4</ele>
        <time>2020-06-16T09:58:08Z</time>
      </trkpt>
      <trkpt lat="49.33184" lon="-1.07793">
        <ele>22.4</ele>
        <time>2020-06-16T09:58:09Z</time>
      </trkpt>
      <trkpt lat="49.33185" lon="-1.07792">
        <ele>22.4</ele>
        <time>2020-06-16T09:58:10Z</time>
      </trkpt>
      <trkpt lat="49.33186" lon="-1.07791">
        <ele>22.4</ele>
        <time>2020-06-16T09:58:11Z</time>
      </trkpt>
      <trkpt lat="49.33187" lon="-1.0779">
        <ele>22.4</ele>
        <time>2020-06-16T09:58:12Z</time>
      </trkpt>
      <trkpt lat="49.33187" lon="-1.07791">
        <ele>22.5</ele>
        <time>2020-06-16T09:58:13Z</time>
      </trkpt>
      <trkpt lat="49.33188" lon="-1.07791">
        <ele>22.5</ele>
        <time>2020-06-16T09:58:14Z</time>
      </trkpt>
      <trkpt lat="49.33189" lon="-1.07792">
        <ele>22.5</ele>
        <time>2020-06-16T09:58:15Z</time>
      </trkpt>
      <trkpt lat="49.33189" lon="-1.07792">
        <ele>22.5</ele>
        <time>2020-06-16T09:58:16Z</time>
      </trkpt>
      <trkpt lat="49.33188" lon="-1.07793">
        <ele>22.6</ele>
        <time>2020-06-16T09:58:17Z</time>
      </trkpt>
      <trkpt lat="49.33186" lon="-1.07793">
        <ele>22.6</ele>
        <time>2020-06-16T09:58:18Z</time>
      </trkpt>
      <trkpt lat="49.33185" lon="-1.07793">
        <ele>22.6</ele>
        <time>2020-06-16T09:58:19Z</time>
      </trkpt>
      <trkpt lat="49.33183" lon="-1.07794">
        <ele>22.7</ele>
        <time>2020-06-16T09:58:20Z</time>
      </trkpt>
      <trkpt lat="49.33182" lon="-1.07795">
        <ele>22.7</ele>
        <time>2020-06-16T09:58:21Z</time>
      </trkpt>
      <trkpt lat="49.33181" lon="-1.07795">
        <ele>22.8</ele>
        <time>2020-06-16T09:58:22Z</time>
      </trkpt>
      <trkpt lat="49.3318" lon="-1.07796">
        <ele>22.8</ele>
        <time>2020-06-16T09:58:23Z</time>
      </trkpt>
      <trkpt lat="49.33178" lon="-1.07797">
        <ele>22.9</ele>
        <time>2020-06-16T09:58:24Z</time>
      </trkpt>
      <trkpt lat="49.33177" lon="-1.07798">
        <ele>22.9</ele>
        <time>2020-06-16T09:58:25Z</time>
      </trkpt>
      <trkpt lat="49.33175" lon="-1.07799">
        <ele>23</ele>
        <time>2020-06-16T09:58:26Z</time>
      </trkpt>
      <trkpt lat="49.33172" lon="-1.07801">
        <ele>23.1</ele>
        <time>2020-06-16T09:58:27Z</time>
      </trkpt>
      <trkpt lat="49.33171" lon="-1.07802">
        <ele>23.1</ele>
        <time>2020-06-16T09:58:28Z</time>
      </trkpt>
      <trkpt lat="49.33168" lon="-1.07804">
        <ele>23.3</ele>
        <time>2020-06-16T09:58:29Z</time>
      </trkpt>
      <trkpt lat="49.33166" lon="-1.07804">
        <ele>23.3</ele>
        <time>2020-06-16T09:58:30Z</time>
      </trkpt>
      <trkpt lat="49.33162" lon="-1.07805">
        <ele>23.4</ele>
        <time>2020-06-16T09:58:31Z</time>
      </trkpt>
      <trkpt lat="49.33161" lon="-1.07805">
        <ele>23.5</ele>
        <time>2020-06-16T09:58:32Z</time>
      </trkpt>
      <trkpt lat="49.33157" lon="-1.07805">
        <ele>23.6</ele>
        <time>2020-06-16T09:58:33Z</time>
      </trkpt>
      <trkpt lat="49.33156" lon="-1.07803">
        <ele>23.7</ele>
        <time>2020-06-16T09:58:34Z</time>
      </trkpt>
      <trkpt lat="49.33156" lon="-1.07801">
        <ele>23.7</ele>
        <time>2020-06-16T09:58:35Z</time>
      </trkpt>
      <trkpt lat="49.33156" lon="-1.07798">
        <ele>23.8</ele>
        <time>2020-06-16T09:58:36Z</time>
      </trkpt>
      <trkpt lat="49.33155" lon="-1.07798">
        <ele>23.8</ele>
        <time>2020-06-16T09:58:37Z</time>
      </trkpt>
      <trkpt lat="49.33155" lon="-1.07798">
        <ele>23.8</ele>
        <time>2020-06-16T09:58:38Z</time>
      </trkpt>
      <trkpt lat="49.33155" lon="-1.07798">
        <ele>23.8</ele>
        <time>2020-06-16T09:58:39Z</time>
      </trkpt>
      <trkpt lat="49.33155" lon="-1.07797">
        <ele>23.8</ele>
        <time>2020-06-16T09:58:40Z</time>
      </trkpt>
      <trkpt lat="49.33155" lon="-1.07796">
        <ele>23.9</ele>
        <time>2020-06-16T09:58:41Z</time>
      </trkpt>
      <trkpt lat="49.33154" lon="-1.07796">
        <ele>23.9</ele>
        <time>2020-06-16T09:58:42Z</time>
      </trkpt>
      <trkpt lat="49.33153" lon="-1.07796">
        <ele>23.9</ele>
        <time>2020-06-16T09:58:43Z</time>
      </trkpt>
      <trkpt lat="49.33153" lon="-1.07797">
        <ele>23.9</ele>
        <time>2020-06-16T09:58:44Z</time>
      </trkpt>
      <trkpt lat="49.33153" lon="-1.07795">
        <ele>24</ele>
        <time>2020-06-16T09:58:45Z</time>
      </trkpt>
      <trkpt lat="49.33153" lon="-1.07797">
        <ele>24</ele>
        <time>2020-06-16T09:58:46Z</time>
      </trkpt>
      <trkpt lat="49.33154" lon="-1.07795">
        <ele>24.1</ele>
        <time>2020-06-16T09:58:47Z</time>
      </trkpt>
      <trkpt lat="49.33154" lon="-1.07796">
        <ele>24.1</ele>
        <time>2020-06-16T09:58:48Z</time>
      </trkpt>
      <trkpt lat="49.33154" lon="-1.07795">
        <ele>24.1</ele>
        <time>2020-06-16T09:58:49Z</time>
      </trkpt>
      <trkpt lat="49.33154" lon="-1.07795">
        <ele>24.1</ele>
        <time>2020-06-16T09:58:50Z</time>
      </trkpt>
      <trkpt lat="49.33154" lon="-1.07795">
        <ele>24.1</ele>
        <time>2020-06-16T09:58:51Z</time>
      </trkpt>
      <trkpt lat="49.33153" lon="-1.07795">
        <ele>24.2</ele>
        <time>2020-06-16T09:58:52Z</time>
      </trkpt>
      <trkpt lat="49.33163" lon="-1.07807">
        <ele>24.5</ele>
        <time>2020-06-16T10:01:03Z</time>
      </trkpt>
      <trkpt lat="49.33165" lon="-1.07807">
        <ele>24.6</ele>
        <time>2020-06-16T10:01:04Z</time>
      </trkpt>
      <trkpt lat="49.33168" lon="-1.07805">
        <ele>24.6</ele>
        <time>2020-06-16T10:01:05Z</time>
      </trkpt>
      <trkpt lat="49.33171" lon="-1.07804">
        <ele>24.6</ele>
        <time>2020-06-16T10:01:06Z</time>
      </trkpt>
      <trkpt lat="49.33175" lon="-1.07803">
        <ele>24.5</ele>
        <time>2020-06-16T10:01:07Z</time>
      </trkpt>
      <trkpt lat="49.33178" lon="-1.07801">
        <ele>24.5</ele>
        <time>2020-06-16T10:01:08Z</time>
      </trkpt>
      <trkpt lat="49.33183" lon="-1.07798">
        <ele>24.4</ele>
        <time>2020-06-16T10:01:09Z</time>
      </trkpt>
      <trkpt lat="49.33187" lon="-1.07797">
        <ele>24.2</ele>
        <time>2020-06-16T10:01:10Z</time>
      </trkpt>
      <trkpt lat="49.3319" lon="-1.07794">
        <ele>24.1</ele>
        <time>2020-06-16T10:01:11Z</time>
      </trkpt>
      <trkpt lat="49.33194" lon="-1.07792">
        <ele>23.9</ele>
        <time>2020-06-16T10:01:12Z</time>
      </trkpt>
      <trkpt lat="49.33198" lon="-1.07791">
        <ele>23.7</ele>
        <time>2020-06-16T10:01:13Z</time>
      </trkpt>
      <trkpt lat="49.33201" lon="-1.07789">
        <ele>23.5</ele>
        <time>2020-06-16T10:01:14Z</time>
      </trkpt>
      <trkpt lat="49.33205" lon="-1.07789">
        <ele>23.4</ele>
        <time>2020-06-16T10:01:15Z</time>
      </trkpt>
      <trkpt lat="49.33208" lon="-1.07787">
        <ele>23.2</ele>
        <time>2020-06-16T10:01:16Z</time>
      </trkpt>
      <trkpt lat="49.33211" lon="-1.07786">
        <ele>23.1</ele>
        <time>2020-06-16T10:01:17Z</time>
      </trkpt>
      <trkpt lat="49.33212" lon="-1.07786">
        <ele>23</ele>
        <time>2020-06-16T10:01:18Z</time>
      </trkpt>
      <trkpt lat="49.33216" lon="-1.07785">
        <ele>22.8</ele>
        <time>2020-06-16T10:01:19Z</time>
      </trkpt>
      <trkpt lat="49.33217" lon="-1.07784">
        <ele>22.8</ele>
        <time>2020-06-16T10:01:20Z</time>
      </trkpt>
      <trkpt lat="49.33219" lon="-1.07783">
        <ele>22.7</ele>
        <time>2020-06-16T10:01:21Z</time>
      </trkpt>
      <trkpt lat="49.3322" lon="-1.07782">
        <ele>22.6</ele>
        <time>2020-06-16T10:01:22Z</time>
      </trkpt>
      <trkpt lat="49.33222" lon="-1.07778">
        <ele>22.5</ele>
        <time>2020-06-16T10:01:23Z</time>
      </trkpt>
      <trkpt lat="49.33223" lon="-1.07776">
        <ele>22.4</ele>
        <time>2020-06-16T10:01:24Z</time>
      </trkpt>
      <trkpt lat="49.33224" lon="-1.07772">
        <ele>22.2</ele>
        <time>2020-06-16T10:01:25Z</time>
      </trkpt>
      <trkpt lat="49.33227" lon="-1.07767">
        <ele>22.1</ele>
        <time>2020-06-16T10:01:26Z</time>
      </trkpt>
      <trkpt lat="49.33228" lon="-1.07766">
        <ele>22</ele>
        <time>2020-06-16T10:01:27Z</time>
      </trkpt>
      <trkpt lat="49.3323" lon="-1.07762">
        <ele>21.8</ele>
        <time>2020-06-16T10:01:28Z</time>
      </trkpt>
      <trkpt lat="49.33231" lon="-1.07761">
        <ele>21.8</ele>
        <time>2020-06-16T10:01:29Z</time>
      </trkpt>
      <trkpt lat="49.33234" lon="-1.07759">
        <ele>21.7</ele>
        <time>2020-06-16T10:01:30Z</time>
      </trkpt>
      <trkpt lat="49.33235" lon="-1.07758">
        <ele>21.6</ele>
        <time>2020-06-16T10:01:31Z</time>
      </trkpt>
      <trkpt lat="49.33236" lon="-1.07758">
        <ele>21.5</ele>
        <time>2020-06-16T10:01:32Z</time>
      </trkpt>
      <trkpt lat="49.33237" lon="-1.07758">
        <ele>21.5</ele>
        <time>2020-06-16T10:01:33Z</time>
      </trkpt>
      <trkpt lat="49.33238" lon="-1.07758">
        <ele>21.5</ele>
        <time>2020-06-16T10:01:34Z</time>
      </trkpt>
      <trkpt lat="49.33238" lon="-1.07758">
        <ele>21.4</ele>
        <time>2020-06-16T10:01:35Z</time>
      </trkpt>
      <trkpt lat="49.3324" lon="-1.07759">
        <ele>21.4</ele>
        <time>2020-06-16T10:01:36Z</time>
      </trkpt>
      <trkpt lat="49.33242" lon="-1.07759">
        <ele>21.3</ele>
        <time>2020-06-16T10:01:37Z</time>
      </trkpt>
      <trkpt lat="49.33245" lon="-1.07758">
        <ele>21.2</ele>
        <time>2020-06-16T10:01:38Z</time>
      </trkpt>
      <trkpt lat="49.33246" lon="-1.07757">
        <ele>21.1</ele>
        <time>2020-06-16T10:01:39Z</time>
      </trkpt>
      <trkpt lat="49.3325" lon="-1.07753">
        <ele>21</ele>
        <time>2020-06-16T10:01:40Z</time>
      </trkpt>
      <trkpt lat="49.33255" lon="-1.0775">
        <ele>20.8</ele>
        <time>2020-06-16T10:01:41Z</time>
      </trkpt>
      <trkpt lat="49.3326" lon="-1.07748">
        <ele>20.6</ele>
        <time>2020-06-16T10:01:42Z</time>
      </trkpt>
      <trkpt lat="49.33266" lon="-1.07745">
        <ele>20.5</ele>
        <time>2020-06-16T10:01:43Z</time>
      </trkpt>
      <trkpt lat="49.33271" lon="-1.07741">
        <ele>20.3</ele>
        <time>2020-06-16T10:01:44Z</time>
      </trkpt>
      <trkpt lat="49.33277" lon="-1.07738">
        <ele>20.2</ele>
        <time>2020-06-16T10:01:45Z</time>
      </trkpt>
      <trkpt lat="49.33282" lon="-1.07735">
        <ele>20.2</ele>
        <time>2020-06-16T10:01:46Z</time>
      </trkpt>
      <trkpt lat="49.33287" lon="-1.07731">
        <ele>20.2</ele>
        <time>2020-06-16T10:01:47Z</time>
      </trkpt>
      <trkpt lat="49.33293" lon="-1.07727">
        <ele>20.2</ele>
        <time>2020-06-16T10:01:48Z</time>
      </trkpt>
      <trkpt lat="49.33299" lon="-1.07722">
        <ele>20.2</ele>
        <time>2020-06-16T10:01:49Z</time>
      </trkpt>
      <trkpt lat="49.33304" lon="-1.07717">
        <ele>20.3</ele>
        <time>2020-06-16T10:01:50Z</time>
      </trkpt>
      <trkpt lat="49.3331" lon="-1.07714">
        <ele>20.4</ele>
        <time>2020-06-16T10:01:51Z</time>
      </trkpt>
      <trkpt lat="49.33315" lon="-1.07711">
        <ele>20.5</ele>
        <time>2020-06-16T10:01:52Z</time>
      </trkpt>
      <trkpt lat="49.3332" lon="-1.07709">
        <ele>20.6</ele>
        <time>2020-06-16T10:01:53Z</time>
      </trkpt>
      <trkpt lat="49.33325" lon="-1.07707">
        <ele>20.8</ele>
        <time>2020-06-16T10:01:54Z</time>
      </trkpt>
      <trkpt lat="49.33329" lon="-1.07705">
        <ele>20.9</ele>
        <time>2020-06-16T10:01:55Z</time>
      </trkpt>
      <trkpt lat="49.33332" lon="-1.07704">
        <ele>21</ele>
        <time>2020-06-16T10:01:56Z</time>
      </trkpt>
      <trkpt lat="49.33336" lon="-1.077">
        <ele>21.2</ele>
        <time>2020-06-16T10:01:57Z</time>
      </trkpt>
      <trkpt lat="49.33337" lon="-1.07699">
        <ele>21.2</ele>
        <time>2020-06-16T10:01:58Z</time>
      </trkpt>
      <trkpt lat="49.3334" lon="-1.07695">
        <ele>21.4</ele>
        <time>2020-06-16T10:01:59Z</time>
      </trkpt>
      <trkpt lat="49.33344" lon="-1.07693">
        <ele>21.7</ele>
        <time>2020-06-16T10:02:00Z</time>
      </trkpt>
      <trkpt lat="49.33348" lon="-1.07694">
        <ele>21.8</ele>
        <time>2020-06-16T10:02:01Z</time>
      </trkpt>
      <trkpt lat="49.33351" lon="-1.07694">
        <ele>22</ele>
        <time>2020-06-16T10:02:02Z</time>
      </trkpt>
      <trkpt lat="49.33355" lon="-1.07694">
        <ele>22.2</ele>
        <time>2020-06-16T10:02:03Z</time>
      </trkpt>
      <trkpt lat="49.33356" lon="-1.07694">
        <ele>22.2</ele>
        <time>2020-06-16T10:02:04Z</time>
      </trkpt>
      <trkpt lat="49.33359" lon="-1.07695">
        <ele>22.4</ele>
        <time>2020-06-16T10:02:05Z</time>
      </trkpt>
      <trkpt lat="49.33363" lon="-1.07695">
        <ele>22.6</ele>
        <time>2020-06-16T10:02:06Z</time>
      </trkpt>
      <trkpt lat="49.33365" lon="-1.07695">
        <ele>22.6</ele>
        <time>2020-06-16T10:02:07Z</time>
      </trkpt>
      <trkpt lat="49.33369" lon="-1.07695">
        <ele>22.8</ele>
        <time>2020-06-16T10:02:08Z</time>
      </trkpt>
      <trkpt lat="49.33371" lon="-1.07695">
        <ele>22.9</ele>
        <time>2020-06-16T10:02:09Z</time>
      </trkpt>
      <trkpt lat="49.33373" lon="-1.07695">
        <ele>23</ele>
        <time>2020-06-16T10:02:10Z</time>
      </trkpt>
      <trkpt lat="49.33377" lon="-1.07695">
        <ele>23.2</ele>
        <time>2020-06-16T10:02:11Z</time>
      </trkpt>
      <trkpt lat="49.3338" lon="-1.07695">
        <ele>23.3</ele>
        <time>2020-06-16T10:02:12Z</time>
      </trkpt>
      <trkpt lat="49.33384" lon="-1.07695">
        <ele>23.4</ele>
        <time>2020-06-16T10:02:13Z</time>
      </trkpt>
      <trkpt lat="49.33388" lon="-1.07695">
        <ele>23.6</ele>
        <time>2020-06-16T10:02:14Z</time>
      </trkpt>
      <trkpt lat="49.33392" lon="-1.07693">
        <ele>23.7</ele>
        <time>2020-06-16T10:02:15Z</time>
      </trkpt>
      <trkpt lat="49.33396" lon="-1.07692">
        <ele>23.9</ele>
        <time>2020-06-16T10:02:16Z</time>
      </trkpt>
      <trkpt lat="49.334" lon="-1.07691">
        <ele>24</ele>
        <time>2020-06-16T10:02:17Z</time>
      </trkpt>
      <trkpt lat="49.33404" lon="-1.07691">
        <ele>24.2</ele>
        <time>2020-06-16T10:02:18Z</time>
      </trkpt>
      <trkpt lat="49.33408" lon="-1.0769">
        <ele>24.3</ele>
        <time>2020-06-16T10:02:19Z</time>
      </trkpt>
      <trkpt lat="49.33412" lon="-1.07689">
        <ele>24.5</ele>
        <time>2020-06-16T10:02:20Z</time>
      </trkpt>
      <trkpt lat="49.33417" lon="-1.07687">
        <ele>24.6</ele>
        <time>2020-06-16T10:02:21Z</time>
      </trkpt>
      <trkpt lat="49.33421" lon="-1.07684">
        <ele>24.7</ele>
        <time>2020-06-16T10:02:22Z</time>
      </trkpt>
      <trkpt lat="49.33425" lon="-1.07682">
        <ele>24.9</ele>
        <time>2020-06-16T10:02:23Z</time>
      </trkpt>
      <trkpt lat="49.33429" lon="-1.07679">
        <ele>25</ele>
        <time>2020-06-16T10:02:24Z</time>
      </trkpt>
      <trkpt lat="49.33434" lon="-1.07677">
        <ele>25.1</ele>
        <time>2020-06-16T10:02:25Z</time>
      </trkpt>
      <trkpt lat="49.33437" lon="-1.07676">
        <ele>25.2</ele>
        <time>2020-06-16T10:02:26Z</time>
      </trkpt>
      <trkpt lat="49.33441" lon="-1.07674">
        <ele>25.3</ele>
        <time>2020-06-16T10:02:27Z</time>
      </trkpt>
      <trkpt lat="49.33446" lon="-1.07671">
        <ele>25.4</ele>
        <time>2020-06-16T10:02:28Z</time>
      </trkpt>
      <trkpt lat="49.3345" lon="-1.07668">
        <ele>25.5</ele>
        <time>2020-06-16T10:02:29Z</time>
      </trkpt>
      <trkpt lat="49.33455" lon="-1.07664">
        <ele>25.6</ele>
        <time>2020-06-16T10:02:30Z</time>
      </trkpt>
      <trkpt lat="49.33459" lon="-1.07662">
        <ele>25.7</ele>
        <time>2020-06-16T10:02:31Z</time>
      </trkpt>
      <trkpt lat="49.33464" lon="-1.0766">
        <ele>25.7</ele>
        <time>2020-06-16T10:02:32Z</time>
      </trkpt>
      <trkpt lat="49.33468" lon="-1.07657">
        <ele>25.8</ele>
        <time>2020-06-16T10:02:33Z</time>
      </trkpt>
      <trkpt lat="49.33472" lon="-1.07654">
        <ele>25.9</ele>
        <time>2020-06-16T10:02:34Z</time>
      </trkpt>
      <trkpt lat="49.33477" lon="-1.07652">
        <ele>25.9</ele>
        <time>2020-06-16T10:02:35Z</time>
      </trkpt>
      <trkpt lat="49.33481" lon="-1.0765">
        <ele>26</ele>
        <time>2020-06-16T10:02:36Z</time>
      </trkpt>
      <trkpt lat="49.33485" lon="-1.07648">
        <ele>26</ele>
        <time>2020-06-16T10:02:37Z</time>
      </trkpt>
      <trkpt lat="49.33489" lon="-1.07645">
        <ele>26.1</ele>
        <time>2020-06-16T10:02:38Z</time>
      </trkpt>
      <trkpt lat="49.33494" lon="-1.07642">
        <ele>26.2</ele>
        <time>2020-06-16T10:02:39Z</time>
      </trkpt>
      <trkpt lat="49.33498" lon="-1.0764">
        <ele>26.2</ele>
        <time>2020-06-16T10:02:40Z</time>
      </trkpt>
      <trkpt lat="49.33502" lon="-1.07639">
        <ele>26.3</ele>
        <time>2020-06-16T10:02:41Z</time>
      </trkpt>
      <trkpt lat="49.33507" lon="-1.07637">
        <ele>26.3</ele>
        <time>2020-06-16T10:02:42Z</time>
      </trkpt>
      <trkpt lat="49.33512" lon="-1.07635">
        <ele>26.4</ele>
        <time>2020-06-16T10:02:43Z</time>
      </trkpt>
      <trkpt lat="49.33516" lon="-1.07634">
        <ele>26.4</ele>
        <time>2020-06-16T10:02:44Z</time>
      </trkpt>
      <trkpt lat="49.33521" lon="-1.07632">
        <ele>26.4</ele>
        <time>2020-06-16T10:02:45Z</time>
      </trkpt>
      <trkpt lat="49.33526" lon="-1.0763">
        <ele>26.5</ele>
        <time>2020-06-16T10:02:46Z</time>
      </trkpt>
      <trkpt lat="49.3353" lon="-1.07629">
        <ele>26.5</ele>
        <time>2020-06-16T10:02:47Z</time>
      </trkpt>
      <trkpt lat="49.33534" lon="-1.07627">
        <ele>26.6</ele>
        <time>2020-06-16T10:02:48Z</time>
      </trkpt>
      <trkpt lat="49.33539" lon="-1.07625">
        <ele>26.6</ele>
        <time>2020-06-16T10:02:49Z</time>
      </trkpt>
      <trkpt lat="49.33543" lon="-1.07624">
        <ele>26.7</ele>
        <time>2020-06-16T10:02:50Z</time>
      </trkpt>
      <trkpt lat="49.33549" lon="-1.07622">
        <ele>26.7</ele>
        <time>2020-06-16T10:02:51Z</time>
      </trkpt>
      <trkpt lat="49.33554" lon="-1.07621">
        <ele>26.7</ele>
        <time>2020-06-16T10:02:52Z</time>
      </trkpt>
      <trkpt lat="49.33559" lon="-1.0762">
        <ele>26.7</ele>
        <time>2020-06-16T10:02:53Z</time>
      </trkpt>
      <trkpt lat="49.33564" lon="-1.07618">
        <ele>26.7</ele>
        <time>2020-06-16T10:02:54Z</time>
      </trkpt>
      <trkpt lat="49.3357" lon="-1.07615">
        <ele>26.8</ele>
        <time>2020-06-16T10:02:55Z</time>
      </trkpt>
      <trkpt lat="49.33576" lon="-1.07614">
        <ele>26.8</ele>
        <time>2020-06-16T10:02:56Z</time>
      </trkpt>
      <trkpt lat="49.33583" lon="-1.07613">
        <ele>26.8</ele>
        <time>2020-06-16T10:02:57Z</time>
      </trkpt>
      <trkpt lat="49.33589" lon="-1.07612">
        <ele>26.9</ele>
        <time>2020-06-16T10:02:58Z</time>
      </trkpt>
      <trkpt lat="49.33595" lon="-1.0761">
        <ele>26.9</ele>
        <time>2020-06-16T10:02:59Z</time>
      </trkpt>
      <trkpt lat="49.33599" lon="-1.0761">
        <ele>26.9</ele>
        <time>2020-06-16T10:03:00Z</time>
      </trkpt>
      <trkpt lat="49.33605" lon="-1.07609">
        <ele>27</ele>
        <time>2020-06-16T10:03:01Z</time>
      </trkpt>
      <trkpt lat="49.3361" lon="-1.07608">
        <ele>27</ele>
        <time>2020-06-16T10:03:02Z</time>
      </trkpt>
      <trkpt lat="49.33615" lon="-1.07607">
        <ele>27</ele>
        <time>2020-06-16T10:03:03Z</time>
      </trkpt>
      <trkpt lat="49.33621" lon="-1.07607">
        <ele>27.1</ele>
        <time>2020-06-16T10:03:04Z</time>
      </trkpt>
      <trkpt lat="49.33627" lon="-1.07606">
        <ele>27.1</ele>
        <time>2020-06-16T10:03:05Z</time>
      </trkpt>
      <trkpt lat="49.33632" lon="-1.07606">
        <ele>27.1</ele>
        <time>2020-06-16T10:03:06Z</time>
      </trkpt>
      <trkpt lat="49.33639" lon="-1.07606">
        <ele>27.1</ele>
        <time>2020-06-16T10:03:07Z</time>
      </trkpt>
      <trkpt lat="49.33644" lon="-1.07605">
        <ele>27.1</ele>
        <time>2020-06-16T10:03:08Z</time>
      </trkpt>
      <trkpt lat="49.3365" lon="-1.07605">
        <ele>27.1</ele>
        <time>2020-06-16T10:03:09Z</time>
      </trkpt>
      <trkpt lat="49.33656" lon="-1.07605">
        <ele>27.1</ele>
        <time>2020-06-16T10:03:10Z</time>
      </trkpt>
      <trkpt lat="49.33662" lon="-1.07605">
        <ele>27.2</ele>
        <time>2020-06-16T10:03:11Z</time>
      </trkpt>
      <trkpt lat="49.33668" lon="-1.07604">
        <ele>27.2</ele>
        <time>2020-06-16T10:03:12Z</time>
      </trkpt>
      <trkpt lat="49.33674" lon="-1.07603">
        <ele>27.2</ele>
        <time>2020-06-16T10:03:13Z</time>
      </trkpt>
      <trkpt lat="49.3368" lon="-1.07602">
        <ele>27.2</ele>
        <time>2020-06-16T10:03:14Z</time>
      </trkpt>
      <trkpt lat="49.33686" lon="-1.07601">
        <ele>27.2</ele>
        <time>2020-06-16T10:03:15Z</time>
      </trkpt>
      <trkpt lat="49.33691" lon="-1.07601">
        <ele>27.2</ele>
        <time>2020-06-16T10:03:16Z</time>
      </trkpt>
      <trkpt lat="49.33697" lon="-1.07599">
        <ele>27.2</ele>
        <time>2020-06-16T10:03:17Z</time>
      </trkpt>
      <trkpt lat="49.33703" lon="-1.07598">
        <ele>27.2</ele>
        <time>2020-06-16T10:03:18Z</time>
      </trkpt>
      <trkpt lat="49.33709" lon="-1.07597">
        <ele>27.1</ele>
        <time>2020-06-16T10:03:19Z</time>
      </trkpt>
      <trkpt lat="49.33715" lon="-1.07597">
        <ele>27.1</ele>
        <time>2020-06-16T10:03:20Z</time>
      </trkpt>
      <trkpt lat="49.3372" lon="-1.07597">
        <ele>27.1</ele>
        <time>2020-06-16T10:03:21Z</time>
      </trkpt>
      <trkpt lat="49.33725" lon="-1.07595">
        <ele>27.1</ele>
        <time>2020-06-16T10:03:22Z</time>
      </trkpt>
      <trkpt lat="49.33731" lon="-1.07595">
        <ele>27.1</ele>
        <time>2020-06-16T10:03:23Z</time>
      </trkpt>
      <trkpt lat="49.33737" lon="-1.07595">
        <ele>27.1</ele>
        <time>2020-06-16T10:03:24Z</time>
      </trkpt>
      <trkpt lat="49.33743" lon="-1.07594">
        <ele>27.1</ele>
        <time>2020-06-16T10:03:25Z</time>
      </trkpt>
      <trkpt lat="49.33748" lon="-1.07593">
        <ele>27.1</ele>
        <time>2020-06-16T10:03:26Z</time>
      </trkpt>
      <trkpt lat="49.33753" lon="-1.07593">
        <ele>27.2</ele>
        <time>2020-06-16T10:03:27Z</time>
      </trkpt>
      <trkpt lat="49.33758" lon="-1.07592">
        <ele>27.2</ele>
        <time>2020-06-16T10:03:28Z</time>
      </trkpt>
      <trkpt lat="49.33764" lon="-1.07592">
        <ele>27.2</ele>
        <time>2020-06-16T10:03:29Z</time>
      </trkpt>
      <trkpt lat="49.33768" lon="-1.07591">
        <ele>27.2</ele>
        <time>2020-06-16T10:03:30Z</time>
      </trkpt>
      <trkpt lat="49.33773" lon="-1.0759">
        <ele>27.3</ele>
        <time>2020-06-16T10:03:31Z</time>
      </trkpt>
      <trkpt lat="49.33777" lon="-1.0759">
        <ele>27.3</ele>
        <time>2020-06-16T10:03:32Z</time>
      </trkpt>
      <trkpt lat="49.33782" lon="-1.07588">
        <ele>27.3</ele>
        <time>2020-06-16T10:03:33Z</time>
      </trkpt>
      <trkpt lat="49.33787" lon="-1.07587">
        <ele>27.2</ele>
        <time>2020-06-16T10:03:34Z</time>
      </trkpt>
      <trkpt lat="49.33792" lon="-1.07587">
        <ele>27.2</ele>
        <time>2020-06-16T10:03:35Z</time>
      </trkpt>
      <trkpt lat="49.33797" lon="-1.07587">
        <ele>27.2</ele>
        <time>2020-06-16T10:03:36Z</time>
      </trkpt>
      <trkpt lat="49.33803" lon="-1.07586">
        <ele>27.2</ele>
        <time>2020-06-16T10:03:37Z</time>
      </trkpt>
      <trkpt lat="49.3381" lon="-1.07584">
        <ele>27.1</ele>
        <time>2020-06-16T10:03:38Z</time>
      </trkpt>
      <trkpt lat="49.33814" lon="-1.07582">
        <ele>27.1</ele>
        <time>2020-06-16T10:03:39Z</time>
      </trkpt>
      <trkpt lat="49.33818" lon="-1.07581">
        <ele>27.1</ele>
        <time>2020-06-16T10:03:40Z</time>
      </trkpt>
      <trkpt lat="49.33824" lon="-1.07581">
        <ele>27.1</ele>
        <time>2020-06-16T10:03:41Z</time>
      </trkpt>
      <trkpt lat="49.33831" lon="-1.07581">
        <ele>27</ele>
        <time>2020-06-16T10:03:42Z</time>
      </trkpt>
      <trkpt lat="49.33837" lon="-1.07582">
        <ele>27</ele>
        <time>2020-06-16T10:03:43Z</time>
      </trkpt>
      <trkpt lat="49.33844" lon="-1.07582">
        <ele>27</ele>
        <time>2020-06-16T10:03:44Z</time>
      </trkpt>
      <trkpt lat="49.3385" lon="-1.07582">
        <ele>27</ele>
        <time>2020-06-16T10:03:45Z</time>
      </trkpt>
      <trkpt lat="49.33857" lon="-1.07582">
        <ele>27</ele>
        <time>2020-06-16T10:03:46Z</time>
      </trkpt>
      <trkpt lat="49.33864" lon="-1.07583">
        <ele>26.9</ele>
        <time>2020-06-16T10:03:47Z</time>
      </trkpt>
      <trkpt lat="49.3387" lon="-1.07584">
        <ele>26.8</ele>
        <time>2020-06-16T10:03:48Z</time>
      </trkpt>
      <trkpt lat="49.33877" lon="-1.07584">
        <ele>26.8</ele>
        <time>2020-06-16T10:03:49Z</time>
      </trkpt>
      <trkpt lat="49.33884" lon="-1.07585">
        <ele>26.8</ele>
        <time>2020-06-16T10:03:50Z</time>
      </trkpt>
      <trkpt lat="49.33891" lon="-1.07586">
        <ele>26.7</ele>
        <time>2020-06-16T10:03:51Z</time>
      </trkpt>
      <trkpt lat="49.33898" lon="-1.07588">
        <ele>26.7</ele>
        <time>2020-06-16T10:03:52Z</time>
      </trkpt>
      <trkpt lat="49.33904" lon="-1.0759">
        <ele>26.6</ele>
        <time>2020-06-16T10:03:53Z</time>
      </trkpt>
      <trkpt lat="49.3391" lon="-1.07593">
        <ele>26.6</ele>
        <time>2020-06-16T10:03:54Z</time>
      </trkpt>
      <trkpt lat="49.33916" lon="-1.07594">
        <ele>26.6</ele>
        <time>2020-06-16T10:03:55Z</time>
      </trkpt>
      <trkpt lat="49.33922" lon="-1.07596">
        <ele>26.6</ele>
        <time>2020-06-16T10:03:56Z</time>
      </trkpt>
      <trkpt lat="49.33928" lon="-1.07598">
        <ele>26.6</ele>
        <time>2020-06-16T10:03:57Z</time>
      </trkpt>
      <trkpt lat="49.33934" lon="-1.07601">
        <ele>26.6</ele>
        <time>2020-06-16T10:03:58Z</time>
      </trkpt>
      <trkpt lat="49.33941" lon="-1.07604">
        <ele>26.5</ele>
        <time>2020-06-16T10:03:59Z</time>
      </trkpt>
      <trkpt lat="49.33948" lon="-1.07606">
        <ele>26.4</ele>
        <time>2020-06-16T10:04:00Z</time>
      </trkpt>
      <trkpt lat="49.33955" lon="-1.07609">
        <ele>26.4</ele>
        <time>2020-06-16T10:04:01Z</time>
      </trkpt>
      <trkpt lat="49.33962" lon="-1.0761">
        <ele>26.3</ele>
        <time>2020-06-16T10:04:02Z</time>
      </trkpt>
      <trkpt lat="49.33967" lon="-1.07611">
        <ele>26.2</ele>
        <time>2020-06-16T10:04:03Z</time>
      </trkpt>
      <trkpt lat="49.33974" lon="-1.07612">
        <ele>26.1</ele>
        <time>2020-06-16T10:04:04Z</time>
      </trkpt>
      <trkpt lat="49.3398" lon="-1.07614">
        <ele>26.1</ele>
        <time>2020-06-16T10:04:05Z</time>
      </trkpt>
      <trkpt lat="49.33987" lon="-1.07616">
        <ele>26.1</ele>
        <time>2020-06-16T10:04:06Z</time>
      </trkpt>
      <trkpt lat="49.33994" lon="-1.07618">
        <ele>26.1</ele>
        <time>2020-06-16T10:04:07Z</time>
      </trkpt>
      <trkpt lat="49.34" lon="-1.0762">
        <ele>26.1</ele>
        <time>2020-06-16T10:04:08Z</time>
      </trkpt>
      <trkpt lat="49.34006" lon="-1.07621">
        <ele>26.1</ele>
        <time>2020-06-16T10:04:09Z</time>
      </trkpt>
      <trkpt lat="49.34013" lon="-1.07622">
        <ele>26.1</ele>
        <time>2020-06-16T10:04:10Z</time>
      </trkpt>
      <trkpt lat="49.34019" lon="-1.07624">
        <ele>26.1</ele>
        <time>2020-06-16T10:04:11Z</time>
      </trkpt>
      <trkpt lat="49.34024" lon="-1.07625">
        <ele>26.1</ele>
        <time>2020-06-16T10:04:12Z</time>
      </trkpt>
      <trkpt lat="49.34031" lon="-1.07627">
        <ele>26.2</ele>
        <time>2020-06-16T10:04:13Z</time>
      </trkpt>
      <trkpt lat="49.34037" lon="-1.0763">
        <ele>26.2</ele>
        <time>2020-06-16T10:04:14Z</time>
      </trkpt>
      <trkpt lat="49.34043" lon="-1.07632">
        <ele>26.3</ele>
        <time>2020-06-16T10:04:15Z</time>
      </trkpt>
      <trkpt lat="49.34049" lon="-1.07634">
        <ele>26.4</ele>
        <time>2020-06-16T10:04:16Z</time>
      </trkpt>
      <trkpt lat="49.34055" lon="-1.07635">
        <ele>26.5</ele>
        <time>2020-06-16T10:04:17Z</time>
      </trkpt>
      <trkpt lat="49.34061" lon="-1.07636">
        <ele>26.6</ele>
        <time>2020-06-16T10:04:18Z</time>
      </trkpt>
      <trkpt lat="49.34067" lon="-1.07635">
        <ele>26.7</ele>
        <time>2020-06-16T10:04:19Z</time>
      </trkpt>
      <trkpt lat="49.34073" lon="-1.07636">
        <ele>26.7</ele>
        <time>2020-06-16T10:04:20Z</time>
      </trkpt>
      <trkpt lat="49.34078" lon="-1.07636">
        <ele>26.6</ele>
        <time>2020-06-16T10:04:21Z</time>
      </trkpt>
      <trkpt lat="49.34083" lon="-1.07637">
        <ele>26.6</ele>
        <time>2020-06-16T10:04:22Z</time>
      </trkpt>
      <trkpt lat="49.3409" lon="-1.07636">
        <ele>26.6</ele>
        <time>2020-06-16T10:04:23Z</time>
      </trkpt>
      <trkpt lat="49.34096" lon="-1.07636">
        <ele>26.6</ele>
        <time>2020-06-16T10:04:24Z</time>
      </trkpt>
      <trkpt lat="49.34102" lon="-1.07637">
        <ele>26.7</ele>
        <time>2020-06-16T10:04:25Z</time>
      </trkpt>
      <trkpt lat="49.34106" lon="-1.07636">
        <ele>26.8</ele>
        <time>2020-06-16T10:04:26Z</time>
      </trkpt>
      <trkpt lat="49.34111" lon="-1.07637">
        <ele>26.9</ele>
        <time>2020-06-16T10:04:27Z</time>
      </trkpt>
      <trkpt lat="49.34115" lon="-1.07636">
        <ele>26.9</ele>
        <time>2020-06-16T10:04:28Z</time>
      </trkpt>
      <trkpt lat="49.3412" lon="-1.07636">
        <ele>27.1</ele>
        <time>2020-06-16T10:04:29Z</time>
      </trkpt>
      <trkpt lat="49.34126" lon="-1.07636">
        <ele>27.2</ele>
        <time>2020-06-16T10:04:30Z</time>
      </trkpt>
      <trkpt lat="49.3413" lon="-1.07635">
        <ele>27.3</ele>
        <time>2020-06-16T10:04:31Z</time>
      </trkpt>
      <trkpt lat="49.34135" lon="-1.07635">
        <ele>27.4</ele>
        <time>2020-06-16T10:04:32Z</time>
      </trkpt>
      <trkpt lat="49.3414" lon="-1.07635">
        <ele>27.5</ele>
        <time>2020-06-16T10:04:33Z</time>
      </trkpt>
      <trkpt lat="49.34146" lon="-1.07635">
        <ele>27.7</ele>
        <time>2020-06-16T10:04:34Z</time>
      </trkpt>
      <trkpt lat="49.34152" lon="-1.07635">
        <ele>27.8</ele>
        <time>2020-06-16T10:04:35Z</time>
      </trkpt>
      <trkpt lat="49.34159" lon="-1.07634">
        <ele>28</ele>
        <time>2020-06-16T10:04:36Z</time>
      </trkpt>
      <trkpt lat="49.34164" lon="-1.07634">
        <ele>28.1</ele>
        <time>2020-06-16T10:04:37Z</time>
      </trkpt>
      <trkpt lat="49.3417" lon="-1.07633">
        <ele>28.2</ele>
        <time>2020-06-16T10:04:38Z</time>
      </trkpt>
      <trkpt lat="49.34175" lon="-1.07633">
        <ele>28.4</ele>
        <time>2020-06-16T10:04:39Z</time>
      </trkpt>
      <trkpt lat="49.34181" lon="-1.07633">
        <ele>28.5</ele>
        <time>2020-06-16T10:04:40Z</time>
      </trkpt>
      <trkpt lat="49.34187" lon="-1.07633">
        <ele>28.6</ele>
        <time>2020-06-16T10:04:41Z</time>
      </trkpt>
      <trkpt lat="49.34193" lon="-1.07632">
        <ele>28.7</ele>
        <time>2020-06-16T10:04:42Z</time>
      </trkpt>
      <trkpt lat="49.34199" lon="-1.07632">
        <ele>28.8</ele>
        <time>2020-06-16T10:04:43Z</time>
      </trkpt>
      <trkpt lat="49.34205" lon="-1.07631">
        <ele>29</ele>
        <time>2020-06-16T10:04:44Z</time>
      </trkpt>
      <trkpt lat="49.34211" lon="-1.07631">
        <ele>29.1</ele>
        <time>2020-06-16T10:04:45Z</time>
      </trkpt>
      <trkpt lat="49.34216" lon="-1.07631">
        <ele>29.2</ele>
        <time>2020-06-16T10:04:46Z</time>
      </trkpt>
      <trkpt lat="49.34222" lon="-1.0763">
        <ele>29.3</ele>
        <time>2020-06-16T10:04:47Z</time>
      </trkpt>
      <trkpt lat="49.34227" lon="-1.0763">
        <ele>29.4</ele>
        <time>2020-06-16T10:04:48Z</time>
      </trkpt>
      <trkpt lat="49.34233" lon="-1.07629">
        <ele>29.5</ele>
        <time>2020-06-16T10:04:49Z</time>
      </trkpt>
      <trkpt lat="49.34238" lon="-1.07629">
        <ele>29.6</ele>
        <time>2020-06-16T10:04:50Z</time>
      </trkpt>
      <trkpt lat="49.34243" lon="-1.0763">
        <ele>29.6</ele>
        <time>2020-06-16T10:04:51Z</time>
      </trkpt>
      <trkpt lat="49.34248" lon="-1.07629">
        <ele>29.7</ele>
        <time>2020-06-16T10:04:52Z</time>
      </trkpt>
      <trkpt lat="49.34253" lon="-1.07629">
        <ele>29.8</ele>
        <time>2020-06-16T10:04:53Z</time>
      </trkpt>
      <trkpt lat="49.34259" lon="-1.07629">
        <ele>29.8</ele>
        <time>2020-06-16T10:04:54Z</time>
      </trkpt>
      <trkpt lat="49.34265" lon="-1.07629">
        <ele>29.9</ele>
        <time>2020-06-16T10:04:55Z</time>
      </trkpt>
      <trkpt lat="49.34271" lon="-1.07629">
        <ele>30</ele>
        <time>2020-06-16T10:04:56Z</time>
      </trkpt>
      <trkpt lat="49.34277" lon="-1.07628">
        <ele>30.1</ele>
        <time>2020-06-16T10:04:57Z</time>
      </trkpt>
      <trkpt lat="49.34284" lon="-1.07627">
        <ele>30.2</ele>
        <time>2020-06-16T10:04:58Z</time>
      </trkpt>
      <trkpt lat="49.3429" lon="-1.07627">
        <ele>30.3</ele>
        <time>2020-06-16T10:04:59Z</time>
      </trkpt>
      <trkpt lat="49.34297" lon="-1.07625">
        <ele>30.5</ele>
        <time>2020-06-16T10:05:00Z</time>
      </trkpt>
      <trkpt lat="49.34304" lon="-1.07624">
        <ele>30.4</ele>
        <time>2020-06-16T10:05:01Z</time>
      </trkpt>
      <trkpt lat="49.34311" lon="-1.07623">
        <ele>30.4</ele>
        <time>2020-06-16T10:05:02Z</time>
      </trkpt>
      <trkpt lat="49.34317" lon="-1.07622">
        <ele>30.4</ele>
        <time>2020-06-16T10:05:03Z</time>
      </trkpt>
      <trkpt lat="49.34324" lon="-1.07621">
        <ele>30.4</ele>
        <time>2020-06-16T10:05:04Z</time>
      </trkpt>
      <trkpt lat="49.3433" lon="-1.07619">
        <ele>30.4</ele>
        <time>2020-06-16T10:05:05Z</time>
      </trkpt>
      <trkpt lat="49.34335" lon="-1.07618">
        <ele>30.4</ele>
        <time>2020-06-16T10:05:06Z</time>
      </trkpt>
      <trkpt lat="49.34341" lon="-1.07617">
        <ele>30.4</ele>
        <time>2020-06-16T10:05:07Z</time>
      </trkpt>
      <trkpt lat="49.34347" lon="-1.07616">
        <ele>30.4</ele>
        <time>2020-06-16T10:05:08Z</time>
      </trkpt>
      <trkpt lat="49.34353" lon="-1.07616">
        <ele>30.4</ele>
        <time>2020-06-16T10:05:09Z</time>
      </trkpt>
      <trkpt lat="49.34359" lon="-1.07616">
        <ele>30.4</ele>
        <time>2020-06-16T10:05:10Z</time>
      </trkpt>
      <trkpt lat="49.34365" lon="-1.07616">
        <ele>30.4</ele>
        <time>2020-06-16T10:05:11Z</time>
      </trkpt>
      <trkpt lat="49.34371" lon="-1.07616">
        <ele>30.4</ele>
        <time>2020-06-16T10:05:12Z</time>
      </trkpt>
      <trkpt lat="49.34376" lon="-1.07616">
        <ele>30.4</ele>
        <time>2020-06-16T10:05:13Z</time>
      </trkpt>
      <trkpt lat="49.34383" lon="-1.07617">
        <ele>30.5</ele>
        <time>2020-06-16T10:05:14Z</time>
      </trkpt>
      <trkpt lat="49.34389" lon="-1.07617">
        <ele>30.5</ele>
        <time>2020-06-16T10:05:15Z</time>
      </trkpt>
      <trkpt lat="49.34396" lon="-1.07616">
        <ele>30.6</ele>
        <time>2020-06-16T10:05:16Z</time>
      </trkpt>
      <trkpt lat="49.34402" lon="-1.07615">
        <ele>30.6</ele>
        <time>2020-06-16T10:05:17Z</time>
      </trkpt>
      <trkpt lat="49.34408" lon="-1.07613">
        <ele>30.5</ele>
        <time>2020-06-16T10:05:18Z</time>
      </trkpt>
      <trkpt lat="49.34414" lon="-1.07611">
        <ele>30.5</ele>
        <time>2020-06-16T10:05:19Z</time>
      </trkpt>
      <trkpt lat="49.3442" lon="-1.0761">
        <ele>30.5</ele>
        <time>2020-06-16T10:05:20Z</time>
      </trkpt>
      <trkpt lat="49.34426" lon="-1.07609">
        <ele>30.4</ele>
        <time>2020-06-16T10:05:21Z</time>
      </trkpt>
      <trkpt lat="49.34431" lon="-1.07608">
        <ele>30.4</ele>
        <time>2020-06-16T10:05:22Z</time>
      </trkpt>
      <trkpt lat="49.34436" lon="-1.07607">
        <ele>30.4</ele>
        <time>2020-06-16T10:05:23Z</time>
      </trkpt>
      <trkpt lat="49.34442" lon="-1.07606">
        <ele>30.3</ele>
        <time>2020-06-16T10:05:24Z</time>
      </trkpt>
      <trkpt lat="49.34448" lon="-1.07605">
        <ele>30.3</ele>
        <time>2020-06-16T10:05:25Z</time>
      </trkpt>
      <trkpt lat="49.34455" lon="-1.07604">
        <ele>30.3</ele>
        <time>2020-06-16T10:05:26Z</time>
      </trkpt>
      <trkpt lat="49.34461" lon="-1.07603">
        <ele>30.3</ele>
        <time>2020-06-16T10:05:27Z</time>
      </trkpt>
      <trkpt lat="49.34467" lon="-1.07601">
        <ele>30.2</ele>
        <time>2020-06-16T10:05:28Z</time>
      </trkpt>
      <trkpt lat="49.34474" lon="-1.07601">
        <ele>30.1</ele>
        <time>2020-06-16T10:05:29Z</time>
      </trkpt>
      <trkpt lat="49.3448" lon="-1.076">
        <ele>30</ele>
        <time>2020-06-16T10:05:30Z</time>
      </trkpt>
      <trkpt lat="49.34486" lon="-1.076">
        <ele>30</ele>
        <time>2020-06-16T10:05:31Z</time>
      </trkpt>
      <trkpt lat="49.34492" lon="-1.076">
        <ele>29.9</ele>
        <time>2020-06-16T10:05:32Z</time>
      </trkpt>
      <trkpt lat="49.34498" lon="-1.07599">
        <ele>29.8</ele>
        <time>2020-06-16T10:05:33Z</time>
      </trkpt>
      <trkpt lat="49.34504" lon="-1.07599">
        <ele>29.7</ele>
        <time>2020-06-16T10:05:34Z</time>
      </trkpt>
      <trkpt lat="49.34511" lon="-1.07598">
        <ele>29.6</ele>
        <time>2020-06-16T10:05:35Z</time>
      </trkpt>
      <trkpt lat="49.34518" lon="-1.07599">
        <ele>29.6</ele>
        <time>2020-06-16T10:05:36Z</time>
      </trkpt>
      <trkpt lat="49.34525" lon="-1.07599">
        <ele>29.5</ele>
        <time>2020-06-16T10:05:37Z</time>
      </trkpt>
      <trkpt lat="49.34532" lon="-1.076">
        <ele>29.4</ele>
        <time>2020-06-16T10:05:38Z</time>
      </trkpt>
      <trkpt lat="49.34539" lon="-1.076">
        <ele>29.3</ele>
        <time>2020-06-16T10:05:39Z</time>
      </trkpt>
      <trkpt lat="49.34546" lon="-1.07601">
        <ele>29.2</ele>
        <time>2020-06-16T10:05:40Z</time>
      </trkpt>
      <trkpt lat="49.34552" lon="-1.07603">
        <ele>29.1</ele>
        <time>2020-06-16T10:05:41Z</time>
      </trkpt>
      <trkpt lat="49.34559" lon="-1.07604">
        <ele>29</ele>
        <time>2020-06-16T10:05:42Z</time>
      </trkpt>
      <trkpt lat="49.34565" lon="-1.07606">
        <ele>28.9</ele>
        <time>2020-06-16T10:05:43Z</time>
      </trkpt>
      <trkpt lat="49.34572" lon="-1.07609">
        <ele>28.8</ele>
        <time>2020-06-16T10:05:44Z</time>
      </trkpt>
      <trkpt lat="49.3458" lon="-1.07611">
        <ele>28.7</ele>
        <time>2020-06-16T10:05:45Z</time>
      </trkpt>
      <trkpt lat="49.34587" lon="-1.07613">
        <ele>28.6</ele>
        <time>2020-06-16T10:05:46Z</time>
      </trkpt>
      <trkpt lat="49.34595" lon="-1.07615">
        <ele>28.5</ele>
        <time>2020-06-16T10:05:47Z</time>
      </trkpt>
      <trkpt lat="49.34604" lon="-1.07618">
        <ele>28.3</ele>
        <time>2020-06-16T10:05:48Z</time>
      </trkpt>
      <trkpt lat="49.34612" lon="-1.0762">
        <ele>28.2</ele>
        <time>2020-06-16T10:05:49Z</time>
      </trkpt>
      <trkpt lat="49.3462" lon="-1.07622">
        <ele>28.1</ele>
        <time>2020-06-16T10:05:50Z</time>
      </trkpt>
      <trkpt lat="49.34629" lon="-1.07625">
        <ele>28</ele>
        <time>2020-06-16T10:05:51Z</time>
      </trkpt>
      <trkpt lat="49.34638" lon="-1.07627">
        <ele>27.9</ele>
        <time>2020-06-16T10:05:52Z</time>
      </trkpt>
      <trkpt lat="49.34646" lon="-1.07628">
        <ele>27.8</ele>
        <time>2020-06-16T10:05:53Z</time>
      </trkpt>
      <trkpt lat="49.34654" lon="-1.0763">
        <ele>27.8</ele>
        <time>2020-06-16T10:05:54Z</time>
      </trkpt>
      <trkpt lat="49.34662" lon="-1.07632">
        <ele>27.7</ele>
        <time>2020-06-16T10:05:55Z</time>
      </trkpt>
      <trkpt lat="49.3467" lon="-1.07634">
        <ele>27.7</ele>
        <time>2020-06-16T10:05:56Z</time>
      </trkpt>
      <trkpt lat="49.34678" lon="-1.07636">
        <ele>27.6</ele>
        <time>2020-06-16T10:05:57Z</time>
      </trkpt>
      <trkpt lat="49.34686" lon="-1.07637">
        <ele>27.5</ele>
        <time>2020-06-16T10:05:58Z</time>
      </trkpt>
      <trkpt lat="49.34694" lon="-1.07639">
        <ele>27.4</ele>
        <time>2020-06-16T10:05:59Z</time>
      </trkpt>
      <trkpt lat="49.34702" lon="-1.0764">
        <ele>27.4</ele>
        <time>2020-06-16T10:06:00Z</time>
      </trkpt>
      <trkpt lat="49.3471" lon="-1.07641">
        <ele>27.5</ele>
        <time>2020-06-16T10:06:01Z</time>
      </trkpt>
      <trkpt lat="49.34718" lon="-1.07642">
        <ele>27.5</ele>
        <time>2020-06-16T10:06:02Z</time>
      </trkpt>
      <trkpt lat="49.34726" lon="-1.07643">
        <ele>27.4</ele>
        <time>2020-06-16T10:06:03Z</time>
      </trkpt>
      <trkpt lat="49.34734" lon="-1.07645">
        <ele>27.4</ele>
        <time>2020-06-16T10:06:04Z</time>
      </trkpt>
      <trkpt lat="49.34742" lon="-1.07646">
        <ele>27.3</ele>
        <time>2020-06-16T10:06:05Z</time>
      </trkpt>
      <trkpt lat="49.34749" lon="-1.07647">
        <ele>27.2</ele>
        <time>2020-06-16T10:06:06Z</time>
      </trkpt>
      <trkpt lat="49.34757" lon="-1.07648">
        <ele>27.2</ele>
        <time>2020-06-16T10:06:07Z</time>
      </trkpt>
      <trkpt lat="49.34765" lon="-1.07648">
        <ele>27.1</ele>
        <time>2020-06-16T10:06:08Z</time>
      </trkpt>
      <trkpt lat="49.34773" lon="-1.07647">
        <ele>27.1</ele>
        <time>2020-06-16T10:06:09Z</time>
      </trkpt>
      <trkpt lat="49.34782" lon="-1.07648">
        <ele>27</ele>
        <time>2020-06-16T10:06:10Z</time>
      </trkpt>
      <trkpt lat="49.3479" lon="-1.07648">
        <ele>26.9</ele>
        <time>2020-06-16T10:06:11Z</time>
      </trkpt>
      <trkpt lat="49.34798" lon="-1.07648">
        <ele>26.9</ele>
        <time>2020-06-16T10:06:12Z</time>
      </trkpt>
      <trkpt lat="49.34806" lon="-1.07646">
        <ele>26.9</ele>
        <time>2020-06-16T10:06:13Z</time>
      </trkpt>
      <trkpt lat="49.34814" lon="-1.07645">
        <ele>26.8</ele>
        <time>2020-06-16T10:06:14Z</time>
      </trkpt>
      <trkpt lat="49.34821" lon="-1.07643">
        <ele>26.8</ele>
        <time>2020-06-16T10:06:15Z</time>
      </trkpt>
      <trkpt lat="49.34829" lon="-1.07641">
        <ele>26.7</ele>
        <time>2020-06-16T10:06:16Z</time>
      </trkpt>
      <trkpt lat="49.34837" lon="-1.07639">
        <ele>26.6</ele>
        <time>2020-06-16T10:06:17Z</time>
      </trkpt>
      <trkpt lat="49.34845" lon="-1.07637">
        <ele>26.6</ele>
        <time>2020-06-16T10:06:18Z</time>
      </trkpt>
      <trkpt lat="49.34852" lon="-1.07634">
        <ele>26.5</ele>
        <time>2020-06-16T10:06:19Z</time>
      </trkpt>
      <trkpt lat="49.3486" lon="-1.07632">
        <ele>26.5</ele>
        <time>2020-06-16T10:06:20Z</time>
      </trkpt>
      <trkpt lat="49.34868" lon="-1.07629">
        <ele>26.4</ele>
        <time>2020-06-16T10:06:21Z</time>
      </trkpt>
      <trkpt lat="49.34876" lon="-1.07626">
        <ele>26.4</ele>
        <time>2020-06-16T10:06:22Z</time>
      </trkpt>
      <trkpt lat="49.34883" lon="-1.07625">
        <ele>26.3</ele>
        <time>2020-06-16T10:06:23Z</time>
      </trkpt>
      <trkpt lat="49.34891" lon="-1.07622">
        <ele>26.1</ele>
        <time>2020-06-16T10:06:24Z</time>
      </trkpt>
      <trkpt lat="49.34899" lon="-1.0762">
        <ele>26</ele>
        <time>2020-06-16T10:06:25Z</time>
      </trkpt>
      <trkpt lat="49.34907" lon="-1.07617">
        <ele>25.9</ele>
        <time>2020-06-16T10:06:26Z</time>
      </trkpt>
      <trkpt lat="49.34915" lon="-1.07614">
        <ele>25.8</ele>
        <time>2020-06-16T10:06:27Z</time>
      </trkpt>
      <trkpt lat="49.34923" lon="-1.07611">
        <ele>25.8</ele>
        <time>2020-06-16T10:06:28Z</time>
      </trkpt>
      <trkpt lat="49.34931" lon="-1.07608">
        <ele>25.7</ele>
        <time>2020-06-16T10:06:29Z</time>
      </trkpt>
      <trkpt lat="49.34939" lon="-1.07605">
        <ele>25.5</ele>
        <time>2020-06-16T10:06:30Z</time>
      </trkpt>
      <trkpt lat="49.34947" lon="-1.07602">
        <ele>25.4</ele>
        <time>2020-06-16T10:06:31Z</time>
      </trkpt>
      <trkpt lat="49.34955" lon="-1.07599">
        <ele>25.3</ele>
        <time>2020-06-16T10:06:32Z</time>
      </trkpt>
      <trkpt lat="49.34964" lon="-1.07596">
        <ele>25.2</ele>
        <time>2020-06-16T10:06:33Z</time>
      </trkpt>
      <trkpt lat="49.34972" lon="-1.07593">
        <ele>25</ele>
        <time>2020-06-16T10:06:34Z</time>
      </trkpt>
      <trkpt lat="49.34981" lon="-1.07591">
        <ele>24.9</ele>
        <time>2020-06-16T10:06:35Z</time>
      </trkpt>
      <trkpt lat="49.34989" lon="-1.07588">
        <ele>24.8</ele>
        <time>2020-06-16T10:06:36Z</time>
      </trkpt>
      <trkpt lat="49.34998" lon="-1.07585">
        <ele>24.6</ele>
        <time>2020-06-16T10:06:37Z</time>
      </trkpt>
      <trkpt lat="49.35007" lon="-1.07582">
        <ele>24.5</ele>
        <time>2020-06-16T10:06:38Z</time>
      </trkpt>
      <trkpt lat="49.35016" lon="-1.07578">
        <ele>24.4</ele>
        <time>2020-06-16T10:06:39Z</time>
      </trkpt>
      <trkpt lat="49.35025" lon="-1.07574">
        <ele>24.2</ele>
        <time>2020-06-16T10:06:40Z</time>
      </trkpt>
      <trkpt lat="49.35034" lon="-1.07571">
        <ele>24.1</ele>
        <time>2020-06-16T10:06:41Z</time>
      </trkpt>
      <trkpt lat="49.35042" lon="-1.07568">
        <ele>24</ele>
        <time>2020-06-16T10:06:42Z</time>
      </trkpt>
      <trkpt lat="49.35051" lon="-1.07565">
        <ele>23.8</ele>
        <time>2020-06-16T10:06:43Z</time>
      </trkpt>
      <trkpt lat="49.35059" lon="-1.07562">
        <ele>23.7</ele>
        <time>2020-06-16T10:06:44Z</time>
      </trkpt>
      <trkpt lat="49.35068" lon="-1.07561">
        <ele>23.6</ele>
        <time>2020-06-16T10:06:45Z</time>
      </trkpt>
      <trkpt lat="49.35076" lon="-1.07557">
        <ele>23.5</ele>
        <time>2020-06-16T10:06:46Z</time>
      </trkpt>
      <trkpt lat="49.35084" lon="-1.07553">
        <ele>23.4</ele>
        <time>2020-06-16T10:06:47Z</time>
      </trkpt>
      <trkpt lat="49.35093" lon="-1.07549">
        <ele>23.3</ele>
        <time>2020-06-16T10:06:48Z</time>
      </trkpt>
      <trkpt lat="49.35102" lon="-1.07546">
        <ele>23.3</ele>
        <time>2020-06-16T10:06:49Z</time>
      </trkpt>
      <trkpt lat="49.3511" lon="-1.07542">
        <ele>23.2</ele>
        <time>2020-06-16T10:06:50Z</time>
      </trkpt>
      <trkpt lat="49.35119" lon="-1.0754">
        <ele>23.1</ele>
        <time>2020-06-16T10:06:51Z</time>
      </trkpt>
      <trkpt lat="49.35127" lon="-1.07538">
        <ele>23</ele>
        <time>2020-06-16T10:06:52Z</time>
      </trkpt>
      <trkpt lat="49.35135" lon="-1.07537">
        <ele>23</ele>
        <time>2020-06-16T10:06:53Z</time>
      </trkpt>
      <trkpt lat="49.35144" lon="-1.07533">
        <ele>22.9</ele>
        <time>2020-06-16T10:06:54Z</time>
      </trkpt>
      <trkpt lat="49.35152" lon="-1.07531">
        <ele>22.8</ele>
        <time>2020-06-16T10:06:55Z</time>
      </trkpt>
      <trkpt lat="49.3516" lon="-1.0753">
        <ele>22.7</ele>
        <time>2020-06-16T10:06:56Z</time>
      </trkpt>
      <trkpt lat="49.35169" lon="-1.07529">
        <ele>22.6</ele>
        <time>2020-06-16T10:06:57Z</time>
      </trkpt>
      <trkpt lat="49.35177" lon="-1.07528">
        <ele>22.5</ele>
        <time>2020-06-16T10:06:58Z</time>
      </trkpt>
      <trkpt lat="49.35186" lon="-1.07528">
        <ele>22.5</ele>
        <time>2020-06-16T10:06:59Z</time>
      </trkpt>
      <trkpt lat="49.35194" lon="-1.07527">
        <ele>22.4</ele>
        <time>2020-06-16T10:07:00Z</time>
      </trkpt>
      <trkpt lat="49.35203" lon="-1.07527">
        <ele>22.2</ele>
        <time>2020-06-16T10:07:01Z</time>
      </trkpt>
      <trkpt lat="49.35211" lon="-1.07526">
        <ele>22</ele>
        <time>2020-06-16T10:07:02Z</time>
      </trkpt>
      <trkpt lat="49.3522" lon="-1.07526">
        <ele>21.7</ele>
        <time>2020-06-16T10:07:03Z</time>
      </trkpt>
      <trkpt lat="49.35228" lon="-1.07526">
        <ele>21.5</ele>
        <time>2020-06-16T10:07:04Z</time>
      </trkpt>
      <trkpt lat="49.35236" lon="-1.07525">
        <ele>21.2</ele>
        <time>2020-06-16T10:07:05Z</time>
      </trkpt>
      <trkpt lat="49.35245" lon="-1.07524">
        <ele>21</ele>
        <time>2020-06-16T10:07:06Z</time>
      </trkpt>
      <trkpt lat="49.35252" lon="-1.07523">
        <ele>20.8</ele>
        <time>2020-06-16T10:07:07Z</time>
      </trkpt>
      <trkpt lat="49.3526" lon="-1.07523">
        <ele>20.7</ele>
        <time>2020-06-16T10:07:08Z</time>
      </trkpt>
      <trkpt lat="49.35269" lon="-1.07523">
        <ele>20.5</ele>
        <time>2020-06-16T10:07:09Z</time>
      </trkpt>
      <trkpt lat="49.35277" lon="-1.07523">
        <ele>20.4</ele>
        <time>2020-06-16T10:07:10Z</time>
      </trkpt>
      <trkpt lat="49.35286" lon="-1.07523">
        <ele>20.3</ele>
        <time>2020-06-16T10:07:11Z</time>
      </trkpt>
      <trkpt lat="49.35295" lon="-1.07523">
        <ele>20.2</ele>
        <time>2020-06-16T10:07:12Z</time>
      </trkpt>
      <trkpt lat="49.35303" lon="-1.07522">
        <ele>20.2</ele>
        <time>2020-06-16T10:07:13Z</time>
      </trkpt>
      <trkpt lat="49.35312" lon="-1.07521">
        <ele>20.2</ele>
        <time>2020-06-16T10:07:14Z</time>
      </trkpt>
      <trkpt lat="49.3532" lon="-1.07519">
        <ele>20.3</ele>
        <time>2020-06-16T10:07:15Z</time>
      </trkpt>
      <trkpt lat="49.35328" lon="-1.07517">
        <ele>20.3</ele>
        <time>2020-06-16T10:07:16Z</time>
      </trkpt>
      <trkpt lat="49.35336" lon="-1.07515">
        <ele>20.5</ele>
        <time>2020-06-16T10:07:17Z</time>
      </trkpt>
      <trkpt lat="49.35344" lon="-1.07514">
        <ele>20.6</ele>
        <time>2020-06-16T10:07:18Z</time>
      </trkpt>
      <trkpt lat="49.35352" lon="-1.07513">
        <ele>20.7</ele>
        <time>2020-06-16T10:07:19Z</time>
      </trkpt>
      <trkpt lat="49.3536" lon="-1.07511">
        <ele>20.8</ele>
        <time>2020-06-16T10:07:20Z</time>
      </trkpt>
      <trkpt lat="49.35367" lon="-1.0751">
        <ele>21</ele>
        <time>2020-06-16T10:07:21Z</time>
      </trkpt>
      <trkpt lat="49.35374" lon="-1.07508">
        <ele>21.1</ele>
        <time>2020-06-16T10:07:22Z</time>
      </trkpt>
      <trkpt lat="49.35381" lon="-1.07506">
        <ele>21.2</ele>
        <time>2020-06-16T10:07:23Z</time>
      </trkpt>
      <trkpt lat="49.35387" lon="-1.07503">
        <ele>21.5</ele>
        <time>2020-06-16T10:07:24Z</time>
      </trkpt>
      <trkpt lat="49.35394" lon="-1.07501">
        <ele>21.7</ele>
        <time>2020-06-16T10:07:25Z</time>
      </trkpt>
      <trkpt lat="49.354" lon="-1.07499">
        <ele>21.9</ele>
        <time>2020-06-16T10:07:26Z</time>
      </trkpt>
      <trkpt lat="49.35406" lon="-1.07496">
        <ele>22</ele>
        <time>2020-06-16T10:07:27Z</time>
      </trkpt>
      <trkpt lat="49.35413" lon="-1.07493">
        <ele>22.2</ele>
        <time>2020-06-16T10:07:28Z</time>
      </trkpt>
      <trkpt lat="49.35419" lon="-1.07491">
        <ele>22.4</ele>
        <time>2020-06-16T10:07:29Z</time>
      </trkpt>
      <trkpt lat="49.35425" lon="-1.07488">
        <ele>22.5</ele>
        <time>2020-06-16T10:07:30Z</time>
      </trkpt>
      <trkpt lat="49.35431" lon="-1.07485">
        <ele>22.7</ele>
        <time>2020-06-16T10:07:31Z</time>
      </trkpt>
      <trkpt lat="49.35438" lon="-1.07482">
        <ele>22.9</ele>
        <time>2020-06-16T10:07:32Z</time>
      </trkpt>
      <trkpt lat="49.35444" lon="-1.07479">
        <ele>23</ele>
        <time>2020-06-16T10:07:33Z</time>
      </trkpt>
      <trkpt lat="49.35451" lon="-1.07475">
        <ele>23.1</ele>
        <time>2020-06-16T10:07:34Z</time>
      </trkpt>
      <trkpt lat="49.35458" lon="-1.07472">
        <ele>23.2</ele>
        <time>2020-06-16T10:07:35Z</time>
      </trkpt>
      <trkpt lat="49.35464" lon="-1.0747">
        <ele>23.3</ele>
        <time>2020-06-16T10:07:36Z</time>
      </trkpt>
      <trkpt lat="49.35469" lon="-1.07468">
        <ele>23.4</ele>
        <time>2020-06-16T10:07:37Z</time>
      </trkpt>
      <trkpt lat="49.35475" lon="-1.07464">
        <ele>23.5</ele>
        <time>2020-06-16T10:07:38Z</time>
      </trkpt>
      <trkpt lat="49.35481" lon="-1.07461">
        <ele>23.5</ele>
        <time>2020-06-16T10:07:39Z</time>
      </trkpt>
      <trkpt lat="49.35487" lon="-1.07457">
        <ele>23.6</ele>
        <time>2020-06-16T10:07:40Z</time>
      </trkpt>
      <trkpt lat="49.35492" lon="-1.07453">
        <ele>23.6</ele>
        <time>2020-06-16T10:07:41Z</time>
      </trkpt>
      <trkpt lat="49.35498" lon="-1.07449">
        <ele>23.6</ele>
        <time>2020-06-16T10:07:42Z</time>
      </trkpt>
      <trkpt lat="49.35504" lon="-1.07446">
        <ele>23.6</ele>
        <time>2020-06-16T10:07:43Z</time>
      </trkpt>
      <trkpt lat="49.35509" lon="-1.07442">
        <ele>23.6</ele>
        <time>2020-06-16T10:07:44Z</time>
      </trkpt>
      <trkpt lat="49.35514" lon="-1.0744">
        <ele>23.6</ele>
        <time>2020-06-16T10:07:45Z</time>
      </trkpt>
      <trkpt lat="49.3552" lon="-1.07438">
        <ele>23.6</ele>
        <time>2020-06-16T10:07:46Z</time>
      </trkpt>
      <trkpt lat="49.35526" lon="-1.07435">
        <ele>23.6</ele>
        <time>2020-06-16T10:07:47Z</time>
      </trkpt>
      <trkpt lat="49.35533" lon="-1.07432">
        <ele>23.7</ele>
        <time>2020-06-16T10:07:48Z</time>
      </trkpt>
      <trkpt lat="49.3554" lon="-1.0743">
        <ele>23.8</ele>
        <time>2020-06-16T10:07:49Z</time>
      </trkpt>
      <trkpt lat="49.35547" lon="-1.07427">
        <ele>23.9</ele>
        <time>2020-06-16T10:07:50Z</time>
      </trkpt>
      <trkpt lat="49.35554" lon="-1.07424">
        <ele>23.8</ele>
        <time>2020-06-16T10:07:51Z</time>
      </trkpt>
      <trkpt lat="49.3556" lon="-1.07421">
        <ele>23.8</ele>
        <time>2020-06-16T10:07:52Z</time>
      </trkpt>
      <trkpt lat="49.35567" lon="-1.07419">
        <ele>23.7</ele>
        <time>2020-06-16T10:07:53Z</time>
      </trkpt>
      <trkpt lat="49.35574" lon="-1.07415">
        <ele>23.6</ele>
        <time>2020-06-16T10:07:54Z</time>
      </trkpt>
      <trkpt lat="49.3558" lon="-1.07413">
        <ele>23.6</ele>
        <time>2020-06-16T10:07:55Z</time>
      </trkpt>
      <trkpt lat="49.35587" lon="-1.0741">
        <ele>23.5</ele>
        <time>2020-06-16T10:07:56Z</time>
      </trkpt>
      <trkpt lat="49.35594" lon="-1.07406">
        <ele>23.5</ele>
        <time>2020-06-16T10:07:57Z</time>
      </trkpt>
      <trkpt lat="49.356" lon="-1.07403">
        <ele>23.5</ele>
        <time>2020-06-16T10:07:58Z</time>
      </trkpt>
      <trkpt lat="49.35607" lon="-1.074">
        <ele>23.5</ele>
        <time>2020-06-16T10:07:59Z</time>
      </trkpt>
      <trkpt lat="49.35613" lon="-1.07396">
        <ele>23.5</ele>
        <time>2020-06-16T10:08:00Z</time>
      </trkpt>
      <trkpt lat="49.3562" lon="-1.07392">
        <ele>23.5</ele>
        <time>2020-06-16T10:08:01Z</time>
      </trkpt>
      <trkpt lat="49.35626" lon="-1.07388">
        <ele>23.5</ele>
        <time>2020-06-16T10:08:02Z</time>
      </trkpt>
      <trkpt lat="49.35633" lon="-1.07385">
        <ele>23.5</ele>
        <time>2020-06-16T10:08:03Z</time>
      </trkpt>
      <trkpt lat="49.35639" lon="-1.07382">
        <ele>23.5</ele>
        <time>2020-06-16T10:08:04Z</time>
      </trkpt>
      <trkpt lat="49.35645" lon="-1.0738">
        <ele>23.4</ele>
        <time>2020-06-16T10:08:05Z</time>
      </trkpt>
      <trkpt lat="49.35651" lon="-1.07377">
        <ele>23.4</ele>
        <time>2020-06-16T10:08:06Z</time>
      </trkpt>
      <trkpt lat="49.35657" lon="-1.07375">
        <ele>23.4</ele>
        <time>2020-06-16T10:08:07Z</time>
      </trkpt>
      <trkpt lat="49.35664" lon="-1.07373">
        <ele>23.4</ele>
        <time>2020-06-16T10:08:08Z</time>
      </trkpt>
      <trkpt lat="49.3567" lon="-1.0737">
        <ele>23.4</ele>
        <time>2020-06-16T10:08:09Z</time>
      </trkpt>
      <trkpt lat="49.35677" lon="-1.07367">
        <ele>23.4</ele>
        <time>2020-06-16T10:08:10Z</time>
      </trkpt>
      <trkpt lat="49.35684" lon="-1.07363">
        <ele>23.4</ele>
        <time>2020-06-16T10:08:11Z</time>
      </trkpt>
      <trkpt lat="49.35691" lon="-1.0736">
        <ele>23.5</ele>
        <time>2020-06-16T10:08:12Z</time>
      </trkpt>
      <trkpt lat="49.35698" lon="-1.07357">
        <ele>23.6</ele>
        <time>2020-06-16T10:08:13Z</time>
      </trkpt>
      <trkpt lat="49.35704" lon="-1.07354">
        <ele>23.8</ele>
        <time>2020-06-16T10:08:14Z</time>
      </trkpt>
      <trkpt lat="49.35709" lon="-1.07351">
        <ele>23.9</ele>
        <time>2020-06-16T10:08:15Z</time>
      </trkpt>
      <trkpt lat="49.35717" lon="-1.07347">
        <ele>23.7</ele>
        <time>2020-06-16T10:08:16Z</time>
      </trkpt>
      <trkpt lat="49.35723" lon="-1.07342">
        <ele>23.6</ele>
        <time>2020-06-16T10:08:17Z</time>
      </trkpt>
      <trkpt lat="49.35729" lon="-1.07338">
        <ele>23.5</ele>
        <time>2020-06-16T10:08:18Z</time>
      </trkpt>
      <trkpt lat="49.35735" lon="-1.07334">
        <ele>23.5</ele>
        <time>2020-06-16T10:08:19Z</time>
      </trkpt>
      <trkpt lat="49.35741" lon="-1.0733">
        <ele>23.4</ele>
        <time>2020-06-16T10:08:20Z</time>
      </trkpt>
      <trkpt lat="49.35748" lon="-1.07326">
        <ele>23.4</ele>
        <time>2020-06-16T10:08:21Z</time>
      </trkpt>
      <trkpt lat="49.35755" lon="-1.07322">
        <ele>23.3</ele>
        <time>2020-06-16T10:08:22Z</time>
      </trkpt>
      <trkpt lat="49.35762" lon="-1.07317">
        <ele>23.3</ele>
        <time>2020-06-16T10:08:23Z</time>
      </trkpt>
      <trkpt lat="49.35769" lon="-1.07312">
        <ele>23.3</ele>
        <time>2020-06-16T10:08:24Z</time>
      </trkpt>
      <trkpt lat="49.35775" lon="-1.07308">
        <ele>23.2</ele>
        <time>2020-06-16T10:08:25Z</time>
      </trkpt>
      <trkpt lat="49.35782" lon="-1.07303">
        <ele>23.2</ele>
        <time>2020-06-16T10:08:26Z</time>
      </trkpt>
      <trkpt lat="49.35789" lon="-1.07298">
        <ele>23.2</ele>
        <time>2020-06-16T10:08:27Z</time>
      </trkpt>
      <trkpt lat="49.35796" lon="-1.07293">
        <ele>23.2</ele>
        <time>2020-06-16T10:08:28Z</time>
      </trkpt>
      <trkpt lat="49.35802" lon="-1.07288">
        <ele>23.2</ele>
        <time>2020-06-16T10:08:29Z</time>
      </trkpt>
      <trkpt lat="49.35808" lon="-1.07282">
        <ele>23.2</ele>
        <time>2020-06-16T10:08:30Z</time>
      </trkpt>
      <trkpt lat="49.35815" lon="-1.07277">
        <ele>23.2</ele>
        <time>2020-06-16T10:08:31Z</time>
      </trkpt>
      <trkpt lat="49.35821" lon="-1.07273">
        <ele>23.2</ele>
        <time>2020-06-16T10:08:32Z</time>
      </trkpt>
      <trkpt lat="49.35828" lon="-1.07268">
        <ele>23.2</ele>
        <time>2020-06-16T10:08:33Z</time>
      </trkpt>
      <trkpt lat="49.35834" lon="-1.07264">
        <ele>23.2</ele>
        <time>2020-06-16T10:08:34Z</time>
      </trkpt>
      <trkpt lat="49.3584" lon="-1.07258">
        <ele>23.2</ele>
        <time>2020-06-16T10:08:35Z</time>
      </trkpt>
      <trkpt lat="49.35846" lon="-1.07251">
        <ele>23.2</ele>
        <time>2020-06-16T10:08:36Z</time>
      </trkpt>
      <trkpt lat="49.35852" lon="-1.07245">
        <ele>23.2</ele>
        <time>2020-06-16T10:08:37Z</time>
      </trkpt>
      <trkpt lat="49.35859" lon="-1.0724">
        <ele>23.3</ele>
        <time>2020-06-16T10:08:38Z</time>
      </trkpt>
      <trkpt lat="49.35865" lon="-1.07234">
        <ele>23.3</ele>
        <time>2020-06-16T10:08:39Z</time>
      </trkpt>
      <trkpt lat="49.35871" lon="-1.07229">
        <ele>23.4</ele>
        <time>2020-06-16T10:08:40Z</time>
      </trkpt>
      <trkpt lat="49.35876" lon="-1.07224">
        <ele>23.5</ele>
        <time>2020-06-16T10:08:41Z</time>
      </trkpt>
      <trkpt lat="49.35882" lon="-1.07218">
        <ele>23.6</ele>
        <time>2020-06-16T10:08:42Z</time>
      </trkpt>
      <trkpt lat="49.35888" lon="-1.07212">
        <ele>23.8</ele>
        <time>2020-06-16T10:08:43Z</time>
      </trkpt>
      <trkpt lat="49.35894" lon="-1.07207">
        <ele>23.9</ele>
        <time>2020-06-16T10:08:44Z</time>
      </trkpt>
      <trkpt lat="49.359" lon="-1.072">
        <ele>24.2</ele>
        <time>2020-06-16T10:08:45Z</time>
      </trkpt>
      <trkpt lat="49.35906" lon="-1.07194">
        <ele>24.2</ele>
        <time>2020-06-16T10:08:46Z</time>
      </trkpt>
      <trkpt lat="49.35911" lon="-1.07188">
        <ele>24.3</ele>
        <time>2020-06-16T10:08:47Z</time>
      </trkpt>
      <trkpt lat="49.35916" lon="-1.07181">
        <ele>24.3</ele>
        <time>2020-06-16T10:08:48Z</time>
      </trkpt>
      <trkpt lat="49.35922" lon="-1.07176">
        <ele>24.3</ele>
        <time>2020-06-16T10:08:49Z</time>
      </trkpt>
      <trkpt lat="49.35927" lon="-1.07169">
        <ele>24.4</ele>
        <time>2020-06-16T10:08:50Z</time>
      </trkpt>
      <trkpt lat="49.35931" lon="-1.07163">
        <ele>24.4</ele>
        <time>2020-06-16T10:08:51Z</time>
      </trkpt>
      <trkpt lat="49.35936" lon="-1.07157">
        <ele>24.5</ele>
        <time>2020-06-16T10:08:52Z</time>
      </trkpt>
      <trkpt lat="49.35941" lon="-1.0715">
        <ele>24.5</ele>
        <time>2020-06-16T10:08:53Z</time>
      </trkpt>
      <trkpt lat="49.35946" lon="-1.07144">
        <ele>24.6</ele>
        <time>2020-06-16T10:08:54Z</time>
      </trkpt>
      <trkpt lat="49.35952" lon="-1.07137">
        <ele>24.6</ele>
        <time>2020-06-16T10:08:55Z</time>
      </trkpt>
      <trkpt lat="49.35957" lon="-1.07128">
        <ele>24.6</ele>
        <time>2020-06-16T10:08:56Z</time>
      </trkpt>
      <trkpt lat="49.35963" lon="-1.07121">
        <ele>24.6</ele>
        <time>2020-06-16T10:08:57Z</time>
      </trkpt>
      <trkpt lat="49.35968" lon="-1.07114">
        <ele>24.7</ele>
        <time>2020-06-16T10:08:58Z</time>
      </trkpt>
      <trkpt lat="49.35973" lon="-1.07106">
        <ele>24.7</ele>
        <time>2020-06-16T10:08:59Z</time>
      </trkpt>
      <trkpt lat="49.35978" lon="-1.07099">
        <ele>24.7</ele>
        <time>2020-06-16T10:09:00Z</time>
      </trkpt>
      <trkpt lat="49.35983" lon="-1.07092">
        <ele>24.7</ele>
        <time>2020-06-16T10:09:01Z</time>
      </trkpt>
      <trkpt lat="49.35988" lon="-1.07085">
        <ele>24.8</ele>
        <time>2020-06-16T10:09:02Z</time>
      </trkpt>
      <trkpt lat="49.35993" lon="-1.07079">
        <ele>24.8</ele>
        <time>2020-06-16T10:09:03Z</time>
      </trkpt>
      <trkpt lat="49.35996" lon="-1.07074">
        <ele>24.9</ele>
        <time>2020-06-16T10:09:04Z</time>
      </trkpt>
      <trkpt lat="49.35999" lon="-1.0707">
        <ele>24.9</ele>
        <time>2020-06-16T10:09:05Z</time>
      </trkpt>
      <trkpt lat="49.36002" lon="-1.07066">
        <ele>25</ele>
        <time>2020-06-16T10:09:06Z</time>
      </trkpt>
      <trkpt lat="49.36006" lon="-1.07062">
        <ele>25</ele>
        <time>2020-06-16T10:09:07Z</time>
      </trkpt>
      <trkpt lat="49.3601" lon="-1.07059">
        <ele>25.1</ele>
        <time>2020-06-16T10:09:08Z</time>
      </trkpt>
      <trkpt lat="49.36014" lon="-1.07054">
        <ele>25.1</ele>
        <time>2020-06-16T10:09:09Z</time>
      </trkpt>
      <trkpt lat="49.36017" lon="-1.07049">
        <ele>25.1</ele>
        <time>2020-06-16T10:09:10Z</time>
      </trkpt>
      <trkpt lat="49.36021" lon="-1.07044">
        <ele>25.1</ele>
        <time>2020-06-16T10:09:11Z</time>
      </trkpt>
      <trkpt lat="49.36024" lon="-1.0704">
        <ele>25.1</ele>
        <time>2020-06-16T10:09:12Z</time>
      </trkpt>
      <trkpt lat="49.36028" lon="-1.07035">
        <ele>25.1</ele>
        <time>2020-06-16T10:09:13Z</time>
      </trkpt>
      <trkpt lat="49.36032" lon="-1.0703">
        <ele>25.2</ele>
        <time>2020-06-16T10:09:14Z</time>
      </trkpt>
      <trkpt lat="49.36037" lon="-1.07024">
        <ele>25.2</ele>
        <time>2020-06-16T10:09:15Z</time>
      </trkpt>
      <trkpt lat="49.36041" lon="-1.07018">
        <ele>25.2</ele>
        <time>2020-06-16T10:09:16Z</time>
      </trkpt>
      <trkpt lat="49.36043" lon="-1.07012">
        <ele>25.2</ele>
        <time>2020-06-16T10:09:17Z</time>
      </trkpt>
      <trkpt lat="49.36047" lon="-1.07006">
        <ele>25.3</ele>
        <time>2020-06-16T10:09:18Z</time>
      </trkpt>
      <trkpt lat="49.3605" lon="-1.07">
        <ele>25.3</ele>
        <time>2020-06-16T10:09:19Z</time>
      </trkpt>
      <trkpt lat="49.36054" lon="-1.06994">
        <ele>25.3</ele>
        <time>2020-06-16T10:09:20Z</time>
      </trkpt>
      <trkpt lat="49.36058" lon="-1.06988">
        <ele>25.4</ele>
        <time>2020-06-16T10:09:21Z</time>
      </trkpt>
      <trkpt lat="49.36062" lon="-1.06983">
        <ele>25.4</ele>
        <time>2020-06-16T10:09:22Z</time>
      </trkpt>
      <trkpt lat="49.36066" lon="-1.06978">
        <ele>25.4</ele>
        <time>2020-06-16T10:09:23Z</time>
      </trkpt>
      <trkpt lat="49.36069" lon="-1.06975">
        <ele>25.4</ele>
        <time>2020-06-16T10:09:24Z</time>
      </trkpt>
      <trkpt lat="49.36072" lon="-1.06971">
        <ele>25.4</ele>
        <time>2020-06-16T10:09:25Z</time>
      </trkpt>
      <trkpt lat="49.36076" lon="-1.06966">
        <ele>25.5</ele>
        <time>2020-06-16T10:09:26Z</time>
      </trkpt>
      <trkpt lat="49.3608" lon="-1.06961">
        <ele>25.5</ele>
        <time>2020-06-16T10:09:27Z</time>
      </trkpt>
      <trkpt lat="49.36083" lon="-1.06958">
        <ele>25.5</ele>
        <time>2020-06-16T10:09:28Z</time>
      </trkpt>
      <trkpt lat="49.36085" lon="-1.06954">
        <ele>25.5</ele>
        <time>2020-06-16T10:09:29Z</time>
      </trkpt>
      <trkpt lat="49.36088" lon="-1.06952">
        <ele>25.5</ele>
        <time>2020-06-16T10:09:30Z</time>
      </trkpt>
      <trkpt lat="49.36091" lon="-1.06948">
        <ele>25.6</ele>
        <time>2020-06-16T10:09:31Z</time>
      </trkpt>
      <trkpt lat="49.36094" lon="-1.06945">
        <ele>25.6</ele>
        <time>2020-06-16T10:09:32Z</time>
      </trkpt>
      <trkpt lat="49.36095" lon="-1.06942">
        <ele>25.6</ele>
        <time>2020-06-16T10:09:33Z</time>
      </trkpt>
      <trkpt lat="49.36096" lon="-1.0694">
        <ele>25.6</ele>
        <time>2020-06-16T10:09:34Z</time>
      </trkpt>
      <trkpt lat="49.36099" lon="-1.06938">
        <ele>25.6</ele>
        <time>2020-06-16T10:09:35Z</time>
      </trkpt>
      <trkpt lat="49.361" lon="-1.06938">
        <ele>25.6</ele>
        <time>2020-06-16T10:09:36Z</time>
      </trkpt>
      <trkpt lat="49.36104" lon="-1.06938">
        <ele>25.7</ele>
        <time>2020-06-16T10:09:37Z</time>
      </trkpt>
      <trkpt lat="49.36105" lon="-1.06939">
        <ele>25.7</ele>
        <time>2020-06-16T10:09:38Z</time>
      </trkpt>
      <trkpt lat="49.36107" lon="-1.06943">
        <ele>25.7</ele>
        <time>2020-06-16T10:09:39Z</time>
      </trkpt>
      <trkpt lat="49.36108" lon="-1.06945">
        <ele>25.7</ele>
        <time>2020-06-16T10:09:40Z</time>
      </trkpt>
      <trkpt lat="49.36108" lon="-1.06951">
        <ele>25.8</ele>
        <time>2020-06-16T10:09:41Z</time>
      </trkpt>
      <trkpt lat="49.36109" lon="-1.06957">
        <ele>25.8</ele>
        <time>2020-06-16T10:09:42Z</time>
      </trkpt>
      <trkpt lat="49.36109" lon="-1.06965">
        <ele>25.7</ele>
        <time>2020-06-16T10:09:43Z</time>
      </trkpt>
      <trkpt lat="49.3611" lon="-1.06971">
        <ele>25.7</ele>
        <time>2020-06-16T10:09:44Z</time>
      </trkpt>
      <trkpt lat="49.36111" lon="-1.06979">
        <ele>25.6</ele>
        <time>2020-06-16T10:09:45Z</time>
      </trkpt>
      <trkpt lat="49.36112" lon="-1.06986">
        <ele>25.5</ele>
        <time>2020-06-16T10:09:46Z</time>
      </trkpt>
      <trkpt lat="49.36113" lon="-1.06995">
        <ele>25.4</ele>
        <time>2020-06-16T10:09:47Z</time>
      </trkpt>
      <trkpt lat="49.36114" lon="-1.07003">
        <ele>25.3</ele>
        <time>2020-06-16T10:09:48Z</time>
      </trkpt>
      <trkpt lat="49.36113" lon="-1.07012">
        <ele>25.3</ele>
        <time>2020-06-16T10:09:49Z</time>
      </trkpt>
      <trkpt lat="49.36113" lon="-1.07021">
        <ele>25.2</ele>
        <time>2020-06-16T10:09:50Z</time>
      </trkpt>
      <trkpt lat="49.36114" lon="-1.0703">
        <ele>25.2</ele>
        <time>2020-06-16T10:09:51Z</time>
      </trkpt>
      <trkpt lat="49.36115" lon="-1.07039">
        <ele>25.1</ele>
        <time>2020-06-16T10:09:52Z</time>
      </trkpt>
      <trkpt lat="49.36116" lon="-1.07049">
        <ele>25.1</ele>
        <time>2020-06-16T10:09:53Z</time>
      </trkpt>
      <trkpt lat="49.36117" lon="-1.07059">
        <ele>25</ele>
        <time>2020-06-16T10:09:54Z</time>
      </trkpt>
      <trkpt lat="49.36118" lon="-1.07068">
        <ele>25</ele>
        <time>2020-06-16T10:09:55Z</time>
      </trkpt>
      <trkpt lat="49.3612" lon="-1.07078">
        <ele>24.9</ele>
        <time>2020-06-16T10:09:56Z</time>
      </trkpt>
      <trkpt lat="49.36122" lon="-1.07087">
        <ele>24.8</ele>
        <time>2020-06-16T10:09:57Z</time>
      </trkpt>
      <trkpt lat="49.36124" lon="-1.07097">
        <ele>24.7</ele>
        <time>2020-06-16T10:09:58Z</time>
      </trkpt>
      <trkpt lat="49.36126" lon="-1.07107">
        <ele>24.6</ele>
        <time>2020-06-16T10:09:59Z</time>
      </trkpt>
      <trkpt lat="49.36129" lon="-1.07116">
        <ele>24.5</ele>
        <time>2020-06-16T10:10:00Z</time>
      </trkpt>
      <trkpt lat="49.36131" lon="-1.07125">
        <ele>24.4</ele>
        <time>2020-06-16T10:10:01Z</time>
      </trkpt>
      <trkpt lat="49.36134" lon="-1.07134">
        <ele>24.3</ele>
        <time>2020-06-16T10:10:02Z</time>
      </trkpt>
      <trkpt lat="49.36137" lon="-1.07143">
        <ele>24.2</ele>
        <time>2020-06-16T10:10:03Z</time>
      </trkpt>
      <trkpt lat="49.3614" lon="-1.07153">
        <ele>24.1</ele>
        <time>2020-06-16T10:10:04Z</time>
      </trkpt>
      <trkpt lat="49.36143" lon="-1.07162">
        <ele>24</ele>
        <time>2020-06-16T10:10:05Z</time>
      </trkpt>
      <trkpt lat="49.36146" lon="-1.07171">
        <ele>24</ele>
        <time>2020-06-16T10:10:06Z</time>
      </trkpt>
      <trkpt lat="49.36149" lon="-1.0718">
        <ele>23.9</ele>
        <time>2020-06-16T10:10:07Z</time>
      </trkpt>
      <trkpt lat="49.36151" lon="-1.07189">
        <ele>23.9</ele>
        <time>2020-06-16T10:10:08Z</time>
      </trkpt>
      <trkpt lat="49.36154" lon="-1.07198">
        <ele>23.8</ele>
        <time>2020-06-16T10:10:09Z</time>
      </trkpt>
      <trkpt lat="49.36157" lon="-1.07206">
        <ele>23.6</ele>
        <time>2020-06-16T10:10:10Z</time>
      </trkpt>
      <trkpt lat="49.3616" lon="-1.07215">
        <ele>23.4</ele>
        <time>2020-06-16T10:10:11Z</time>
      </trkpt>
      <trkpt lat="49.36163" lon="-1.07224">
        <ele>23.2</ele>
        <time>2020-06-16T10:10:12Z</time>
      </trkpt>
      <trkpt lat="49.36166" lon="-1.07232">
        <ele>23</ele>
        <time>2020-06-16T10:10:13Z</time>
      </trkpt>
      <trkpt lat="49.36168" lon="-1.07241">
        <ele>22.7</ele>
        <time>2020-06-16T10:10:14Z</time>
      </trkpt>
      <trkpt lat="49.36171" lon="-1.0725">
        <ele>22.5</ele>
        <time>2020-06-16T10:10:15Z</time>
      </trkpt>
      <trkpt lat="49.36172" lon="-1.07259">
        <ele>22.2</ele>
        <time>2020-06-16T10:10:16Z</time>
      </trkpt>
      <trkpt lat="49.36175" lon="-1.07268">
        <ele>22</ele>
        <time>2020-06-16T10:10:17Z</time>
      </trkpt>
      <trkpt lat="49.36177" lon="-1.07277">
        <ele>21.9</ele>
        <time>2020-06-16T10:10:18Z</time>
      </trkpt>
      <trkpt lat="49.3618" lon="-1.07285">
        <ele>21.8</ele>
        <time>2020-06-16T10:10:19Z</time>
      </trkpt>
      <trkpt lat="49.36183" lon="-1.07294">
        <ele>21.8</ele>
        <time>2020-06-16T10:10:20Z</time>
      </trkpt>
      <trkpt lat="49.36186" lon="-1.07303">
        <ele>21.7</ele>
        <time>2020-06-16T10:10:21Z</time>
      </trkpt>
      <trkpt lat="49.36189" lon="-1.07311">
        <ele>21.6</ele>
        <time>2020-06-16T10:10:22Z</time>
      </trkpt>
      <trkpt lat="49.36192" lon="-1.07319">
        <ele>21.6</ele>
        <time>2020-06-16T10:10:23Z</time>
      </trkpt>
      <trkpt lat="49.36195" lon="-1.07328">
        <ele>21.5</ele>
        <time>2020-06-16T10:10:24Z</time>
      </trkpt>
      <trkpt lat="49.36198" lon="-1.07337">
        <ele>21.4</ele>
        <time>2020-06-16T10:10:25Z</time>
      </trkpt>
      <trkpt lat="49.362" lon="-1.07345">
        <ele>21.3</ele>
        <time>2020-06-16T10:10:26Z</time>
      </trkpt>
      <trkpt lat="49.36203" lon="-1.07354">
        <ele>21.2</ele>
        <time>2020-06-16T10:10:27Z</time>
      </trkpt>
      <trkpt lat="49.36205" lon="-1.07363">
        <ele>21.1</ele>
        <time>2020-06-16T10:10:28Z</time>
      </trkpt>
      <trkpt lat="49.36207" lon="-1.07372">
        <ele>21</ele>
        <time>2020-06-16T10:10:29Z</time>
      </trkpt>
      <trkpt lat="49.3621" lon="-1.0738">
        <ele>21</ele>
        <time>2020-06-16T10:10:30Z</time>
      </trkpt>
      <trkpt lat="49.36212" lon="-1.07389">
        <ele>20.9</ele>
        <time>2020-06-16T10:10:31Z</time>
      </trkpt>
      <trkpt lat="49.36214" lon="-1.07398">
        <ele>20.8</ele>
        <time>2020-06-16T10:10:32Z</time>
      </trkpt>
      <trkpt lat="49.36215" lon="-1.07408">
        <ele>20.8</ele>
        <time>2020-06-16T10:10:33Z</time>
      </trkpt>
      <trkpt lat="49.36216" lon="-1.07417">
        <ele>20.8</ele>
        <time>2020-06-16T10:10:34Z</time>
      </trkpt>
      <trkpt lat="49.36218" lon="-1.07426">
        <ele>20.7</ele>
        <time>2020-06-16T10:10:35Z</time>
      </trkpt>
      <trkpt lat="49.36219" lon="-1.07435">
        <ele>20.7</ele>
        <time>2020-06-16T10:10:36Z</time>
      </trkpt>
      <trkpt lat="49.3622" lon="-1.07441">
        <ele>20.7</ele>
        <time>2020-06-16T10:10:37Z</time>
      </trkpt>
      <trkpt lat="49.36221" lon="-1.07447">
        <ele>20.7</ele>
        <time>2020-06-16T10:10:38Z</time>
      </trkpt>
      <trkpt lat="49.36223" lon="-1.07452">
        <ele>20.7</ele>
        <time>2020-06-16T10:10:39Z</time>
      </trkpt>
      <trkpt lat="49.36227" lon="-1.07455">
        <ele>20.6</ele>
        <time>2020-06-16T10:10:40Z</time>
      </trkpt>
      <trkpt lat="49.36231" lon="-1.07457">
        <ele>20.6</ele>
        <time>2020-06-16T10:10:41Z</time>
      </trkpt>
      <trkpt lat="49.36236" lon="-1.07458">
        <ele>20.6</ele>
        <time>2020-06-16T10:10:42Z</time>
      </trkpt>
      <trkpt lat="49.3624" lon="-1.0746">
        <ele>20.5</ele>
        <time>2020-06-16T10:10:43Z</time>
      </trkpt>
      <trkpt lat="49.36245" lon="-1.07461">
        <ele>20.5</ele>
        <time>2020-06-16T10:10:44Z</time>
      </trkpt>
      <trkpt lat="49.3625" lon="-1.07461">
        <ele>20.4</ele>
        <time>2020-06-16T10:10:45Z</time>
      </trkpt>
      <trkpt lat="49.36256" lon="-1.07462">
        <ele>20.4</ele>
        <time>2020-06-16T10:10:46Z</time>
      </trkpt>
      <trkpt lat="49.36261" lon="-1.07461">
        <ele>20.4</ele>
        <time>2020-06-16T10:10:47Z</time>
      </trkpt>
      <trkpt lat="49.36267" lon="-1.07462">
        <ele>20.3</ele>
        <time>2020-06-16T10:10:48Z</time>
      </trkpt>
      <trkpt lat="49.36273" lon="-1.07461">
        <ele>20.3</ele>
        <time>2020-06-16T10:10:49Z</time>
      </trkpt>
      <trkpt lat="49.36279" lon="-1.07461">
        <ele>20.2</ele>
        <time>2020-06-16T10:10:50Z</time>
      </trkpt>
      <trkpt lat="49.36285" lon="-1.0746">
        <ele>20.2</ele>
        <time>2020-06-16T10:10:51Z</time>
      </trkpt>
      <trkpt lat="49.36291" lon="-1.07459">
        <ele>20.1</ele>
        <time>2020-06-16T10:10:52Z</time>
      </trkpt>
      <trkpt lat="49.36297" lon="-1.07458">
        <ele>20.1</ele>
        <time>2020-06-16T10:10:53Z</time>
      </trkpt>
      <trkpt lat="49.36303" lon="-1.07457">
        <ele>20</ele>
        <time>2020-06-16T10:10:54Z</time>
      </trkpt>
      <trkpt lat="49.36309" lon="-1.07455">
        <ele>20</ele>
        <time>2020-06-16T10:10:55Z</time>
      </trkpt>
      <trkpt lat="49.36316" lon="-1.07454">
        <ele>19.9</ele>
        <time>2020-06-16T10:10:56Z</time>
      </trkpt>
      <trkpt lat="49.36322" lon="-1.07452">
        <ele>19.9</ele>
        <time>2020-06-16T10:10:57Z</time>
      </trkpt>
      <trkpt lat="49.36328" lon="-1.07451">
        <ele>19.8</ele>
        <time>2020-06-16T10:10:58Z</time>
      </trkpt>
      <trkpt lat="49.36335" lon="-1.07448">
        <ele>19.8</ele>
        <time>2020-06-16T10:10:59Z</time>
      </trkpt>
      <trkpt lat="49.36342" lon="-1.07446">
        <ele>19.7</ele>
        <time>2020-06-16T10:11:00Z</time>
      </trkpt>
      <trkpt lat="49.36349" lon="-1.07443">
        <ele>19.7</ele>
        <time>2020-06-16T10:11:01Z</time>
      </trkpt>
      <trkpt lat="49.36356" lon="-1.07441">
        <ele>19.6</ele>
        <time>2020-06-16T10:11:02Z</time>
      </trkpt>
      <trkpt lat="49.36362" lon="-1.07438">
        <ele>19.6</ele>
        <time>2020-06-16T10:11:03Z</time>
      </trkpt>
      <trkpt lat="49.3637" lon="-1.07435">
        <ele>19.5</ele>
        <time>2020-06-16T10:11:04Z</time>
      </trkpt>
      <trkpt lat="49.36376" lon="-1.07435">
        <ele>19.5</ele>
        <time>2020-06-16T10:11:05Z</time>
      </trkpt>
      <trkpt lat="49.36382" lon="-1.07432">
        <ele>19.4</ele>
        <time>2020-06-16T10:11:06Z</time>
      </trkpt>
      <trkpt lat="49.36388" lon="-1.0743">
        <ele>19.4</ele>
        <time>2020-06-16T10:11:07Z</time>
      </trkpt>
      <trkpt lat="49.36394" lon="-1.07428">
        <ele>19.3</ele>
        <time>2020-06-16T10:11:08Z</time>
      </trkpt>
      <trkpt lat="49.364" lon="-1.07426">
        <ele>19.3</ele>
        <time>2020-06-16T10:11:09Z</time>
      </trkpt>
      <trkpt lat="49.36406" lon="-1.07424">
        <ele>19.2</ele>
        <time>2020-06-16T10:11:10Z</time>
      </trkpt>
      <trkpt lat="49.36412" lon="-1.0742">
        <ele>19.2</ele>
        <time>2020-06-16T10:11:11Z</time>
      </trkpt>
      <trkpt lat="49.36419" lon="-1.07417">
        <ele>19.1</ele>
        <time>2020-06-16T10:11:12Z</time>
      </trkpt>
      <trkpt lat="49.36427" lon="-1.07412">
        <ele>19.1</ele>
        <time>2020-06-16T10:11:13Z</time>
      </trkpt>
      <trkpt lat="49.36435" lon="-1.07408">
        <ele>19</ele>
        <time>2020-06-16T10:11:14Z</time>
      </trkpt>
      <trkpt lat="49.36442" lon="-1.07405">
        <ele>18.9</ele>
        <time>2020-06-16T10:11:15Z</time>
      </trkpt>
      <trkpt lat="49.36448" lon="-1.07402">
        <ele>18.9</ele>
        <time>2020-06-16T10:11:16Z</time>
      </trkpt>
      <trkpt lat="49.36454" lon="-1.074">
        <ele>18.8</ele>
        <time>2020-06-16T10:11:17Z</time>
      </trkpt>
      <trkpt lat="49.36461" lon="-1.07398">
        <ele>18.8</ele>
        <time>2020-06-16T10:11:18Z</time>
      </trkpt>
      <trkpt lat="49.36467" lon="-1.07395">
        <ele>18.7</ele>
        <time>2020-06-16T10:11:19Z</time>
      </trkpt>
      <trkpt lat="49.36474" lon="-1.07391">
        <ele>18.7</ele>
        <time>2020-06-16T10:11:20Z</time>
      </trkpt>
      <trkpt lat="49.36482" lon="-1.07388">
        <ele>18.6</ele>
        <time>2020-06-16T10:11:21Z</time>
      </trkpt>
      <trkpt lat="49.36488" lon="-1.07385">
        <ele>18.6</ele>
        <time>2020-06-16T10:11:22Z</time>
      </trkpt>
      <trkpt lat="49.36494" lon="-1.07382">
        <ele>18.5</ele>
        <time>2020-06-16T10:11:23Z</time>
      </trkpt>
      <trkpt lat="49.36501" lon="-1.0738">
        <ele>18.5</ele>
        <time>2020-06-16T10:11:24Z</time>
      </trkpt>
      <trkpt lat="49.36507" lon="-1.0738">
        <ele>18.4</ele>
        <time>2020-06-16T10:11:25Z</time>
      </trkpt>
      <trkpt lat="49.36514" lon="-1.07383">
        <ele>18.4</ele>
        <time>2020-06-16T10:11:26Z</time>
      </trkpt>
      <trkpt lat="49.36519" lon="-1.07388">
        <ele>18.3</ele>
        <time>2020-06-16T10:11:27Z</time>
      </trkpt>
      <trkpt lat="49.36524" lon="-1.07393">
        <ele>18.3</ele>
        <time>2020-06-16T10:11:28Z</time>
      </trkpt>
      <trkpt lat="49.3653" lon="-1.074">
        <ele>18.2</ele>
        <time>2020-06-16T10:11:29Z</time>
      </trkpt>
      <trkpt lat="49.36536" lon="-1.07407">
        <ele>18.2</ele>
        <time>2020-06-16T10:11:30Z</time>
      </trkpt>
      <trkpt lat="49.36541" lon="-1.07414">
        <ele>18.1</ele>
        <time>2020-06-16T10:11:31Z</time>
      </trkpt>
      <trkpt lat="49.36547" lon="-1.07421">
        <ele>18.1</ele>
        <time>2020-06-16T10:11:32Z</time>
      </trkpt>
      <trkpt lat="49.36552" lon="-1.07428">
        <ele>18</ele>
        <time>2020-06-16T10:11:33Z</time>
      </trkpt>
      <trkpt lat="49.36557" lon="-1.07434">
        <ele>18</ele>
        <time>2020-06-16T10:11:34Z</time>
      </trkpt>
      <trkpt lat="49.36562" lon="-1.0744">
        <ele>17.9</ele>
        <time>2020-06-16T10:11:35Z</time>
      </trkpt>
      <trkpt lat="49.36567" lon="-1.07446">
        <ele>17.9</ele>
        <time>2020-06-16T10:11:36Z</time>
      </trkpt>
      <trkpt lat="49.36572" lon="-1.07452">
        <ele>17.8</ele>
        <time>2020-06-16T10:11:37Z</time>
      </trkpt>
      <trkpt lat="49.36578" lon="-1.07459">
        <ele>17.8</ele>
        <time>2020-06-16T10:11:38Z</time>
      </trkpt>
      <trkpt lat="49.36584" lon="-1.07466">
        <ele>17.7</ele>
        <time>2020-06-16T10:11:39Z</time>
      </trkpt>
      <trkpt lat="49.36589" lon="-1.07473">
        <ele>17.6</ele>
        <time>2020-06-16T10:11:40Z</time>
      </trkpt>
      <trkpt lat="49.36596" lon="-1.0748">
        <ele>17.6</ele>
        <time>2020-06-16T10:11:41Z</time>
      </trkpt>
      <trkpt lat="49.36601" lon="-1.07488">
        <ele>17.5</ele>
        <time>2020-06-16T10:11:42Z</time>
      </trkpt>
      <trkpt lat="49.36606" lon="-1.07495">
        <ele>17.5</ele>
        <time>2020-06-16T10:11:43Z</time>
      </trkpt>
      <trkpt lat="49.36611" lon="-1.07503">
        <ele>17.4</ele>
        <time>2020-06-16T10:11:44Z</time>
      </trkpt>
      <trkpt lat="49.36616" lon="-1.0751">
        <ele>17.4</ele>
        <time>2020-06-16T10:11:45Z</time>
      </trkpt>
      <trkpt lat="49.36621" lon="-1.07517">
        <ele>17.3</ele>
        <time>2020-06-16T10:11:46Z</time>
      </trkpt>
      <trkpt lat="49.36626" lon="-1.07524">
        <ele>17.3</ele>
        <time>2020-06-16T10:11:47Z</time>
      </trkpt>
      <trkpt lat="49.36632" lon="-1.07531">
        <ele>17.2</ele>
        <time>2020-06-16T10:11:48Z</time>
      </trkpt>
      <trkpt lat="49.36638" lon="-1.07537">
        <ele>17.2</ele>
        <time>2020-06-16T10:11:49Z</time>
      </trkpt>
      <trkpt lat="49.36644" lon="-1.07544">
        <ele>17.1</ele>
        <time>2020-06-16T10:11:50Z</time>
      </trkpt>
      <trkpt lat="49.3665" lon="-1.07551">
        <ele>17</ele>
        <time>2020-06-16T10:11:51Z</time>
      </trkpt>
      <trkpt lat="49.36656" lon="-1.07558">
        <ele>17</ele>
        <time>2020-06-16T10:11:52Z</time>
      </trkpt>
      <trkpt lat="49.36662" lon="-1.07565">
        <ele>16.9</ele>
        <time>2020-06-16T10:11:53Z</time>
      </trkpt>
      <trkpt lat="49.36668" lon="-1.07572">
        <ele>16.9</ele>
        <time>2020-06-16T10:11:54Z</time>
      </trkpt>
      <trkpt lat="49.36674" lon="-1.07579">
        <ele>16.8</ele>
        <time>2020-06-16T10:11:55Z</time>
      </trkpt>
      <trkpt lat="49.3668" lon="-1.07585">
        <ele>16.8</ele>
        <time>2020-06-16T10:11:56Z</time>
      </trkpt>
      <trkpt lat="49.36686" lon="-1.07592">
        <ele>16.7</ele>
        <time>2020-06-16T10:11:57Z</time>
      </trkpt>
      <trkpt lat="49.3669" lon="-1.07599">
        <ele>16.7</ele>
        <time>2020-06-16T10:11:58Z</time>
      </trkpt>
      <trkpt lat="49.36696" lon="-1.07605">
        <ele>16.6</ele>
        <time>2020-06-16T10:11:59Z</time>
      </trkpt>
      <trkpt lat="49.36701" lon="-1.07611">
        <ele>16.5</ele>
        <time>2020-06-16T10:12:00Z</time>
      </trkpt>
      <trkpt lat="49.36707" lon="-1.07617">
        <ele>16.5</ele>
        <time>2020-06-16T10:12:01Z</time>
      </trkpt>
      <trkpt lat="49.36712" lon="-1.07623">
        <ele>16.4</ele>
        <time>2020-06-16T10:12:02Z</time>
      </trkpt>
      <trkpt lat="49.36718" lon="-1.07629">
        <ele>16.4</ele>
        <time>2020-06-16T10:12:03Z</time>
      </trkpt>
      <trkpt lat="49.36724" lon="-1.07634">
        <ele>16.3</ele>
        <time>2020-06-16T10:12:04Z</time>
      </trkpt>
      <trkpt lat="49.3673" lon="-1.0764">
        <ele>16.3</ele>
        <time>2020-06-16T10:12:05Z</time>
      </trkpt>
      <trkpt lat="49.36735" lon="-1.07647">
        <ele>16.2</ele>
        <time>2020-06-16T10:12:06Z</time>
      </trkpt>
      <trkpt lat="49.36741" lon="-1.07651">
        <ele>16.2</ele>
        <time>2020-06-16T10:12:07Z</time>
      </trkpt>
      <trkpt lat="49.36747" lon="-1.07656">
        <ele>16.1</ele>
        <time>2020-06-16T10:12:08Z</time>
      </trkpt>
      <trkpt lat="49.36753" lon="-1.07658">
        <ele>16.1</ele>
        <time>2020-06-16T10:12:09Z</time>
      </trkpt>
      <trkpt lat="49.36759" lon="-1.07662">
        <ele>16</ele>
        <time>2020-06-16T10:12:10Z</time>
      </trkpt>
      <trkpt lat="49.36765" lon="-1.07667">
        <ele>16</ele>
        <time>2020-06-16T10:12:11Z</time>
      </trkpt>
      <trkpt lat="49.3677" lon="-1.07673">
        <ele>15.9</ele>
        <time>2020-06-16T10:12:12Z</time>
      </trkpt>
      <trkpt lat="49.36774" lon="-1.07679">
        <ele>15.9</ele>
        <time>2020-06-16T10:12:13Z</time>
      </trkpt>
      <trkpt lat="49.36778" lon="-1.07685">
        <ele>15.9</ele>
        <time>2020-06-16T10:12:14Z</time>
      </trkpt>
      <trkpt lat="49.36782" lon="-1.07691">
        <ele>15.8</ele>
        <time>2020-06-16T10:12:15Z</time>
      </trkpt>
      <trkpt lat="49.36787" lon="-1.07695">
        <ele>15.8</ele>
        <time>2020-06-16T10:12:16Z</time>
      </trkpt>
      <trkpt lat="49.36791" lon="-1.07698">
        <ele>15.7</ele>
        <time>2020-06-16T10:12:17Z</time>
      </trkpt>
      <trkpt lat="49.36795" lon="-1.07699">
        <ele>15.7</ele>
        <time>2020-06-16T10:12:18Z</time>
      </trkpt>
      <trkpt lat="49.36799" lon="-1.07699">
        <ele>15.7</ele>
        <time>2020-06-16T10:12:19Z</time>
      </trkpt>
      <trkpt lat="49.36802" lon="-1.07699">
        <ele>15.7</ele>
        <time>2020-06-16T10:12:20Z</time>
      </trkpt>
      <trkpt lat="49.36806" lon="-1.07699">
        <ele>15.6</ele>
        <time>2020-06-16T10:12:21Z</time>
      </trkpt>
      <trkpt lat="49.36809" lon="-1.07698">
        <ele>15.6</ele>
        <time>2020-06-16T10:12:22Z</time>
      </trkpt>
      <trkpt lat="49.36812" lon="-1.07696">
        <ele>15.6</ele>
        <time>2020-06-16T10:12:23Z</time>
      </trkpt>
      <trkpt lat="49.36813" lon="-1.07696">
        <ele>15.6</ele>
        <time>2020-06-16T10:12:24Z</time>
      </trkpt>
      <trkpt lat="49.36814" lon="-1.07694">
        <ele>15.6</ele>
        <time>2020-06-16T10:12:25Z</time>
      </trkpt>
      <trkpt lat="49.36815" lon="-1.07692">
        <ele>15.5</ele>
        <time>2020-06-16T10:12:26Z</time>
      </trkpt>
      <trkpt lat="49.36817" lon="-1.07691">
        <ele>15.5</ele>
        <time>2020-06-16T10:12:27Z</time>
      </trkpt>
      <trkpt lat="49.36818" lon="-1.07691">
        <ele>15.5</ele>
        <time>2020-06-16T10:12:28Z</time>
      </trkpt>
      <trkpt lat="49.36819" lon="-1.07691">
        <ele>15.5</ele>
        <time>2020-06-16T10:12:29Z</time>
      </trkpt>
      <trkpt lat="49.3682" lon="-1.07691">
        <ele>15.5</ele>
        <time>2020-06-16T10:12:30Z</time>
      </trkpt>
      <trkpt lat="49.36821" lon="-1.0769">
        <ele>15.5</ele>
        <time>2020-06-16T10:12:31Z</time>
      </trkpt>
      <trkpt lat="49.36821" lon="-1.07688">
        <ele>15.5</ele>
        <time>2020-06-16T10:12:32Z</time>
      </trkpt>
      <trkpt lat="49.36821" lon="-1.07685">
        <ele>15.5</ele>
        <time>2020-06-16T10:12:33Z</time>
      </trkpt>
      <trkpt lat="49.36822" lon="-1.07683">
        <ele>15.5</ele>
        <time>2020-06-16T10:12:34Z</time>
      </trkpt>
      <trkpt lat="49.36822" lon="-1.07682">
        <ele>15.5</ele>
        <time>2020-06-16T10:12:35Z</time>
      </trkpt>
      <trkpt lat="49.36822" lon="-1.07681">
        <ele>15.4</ele>
        <time>2020-06-16T10:12:36Z</time>
      </trkpt>
      <trkpt lat="49.36822" lon="-1.07681">
        <ele>15.4</ele>
        <time>2020-06-16T10:12:37Z</time>
      </trkpt>
      <trkpt lat="49.36822" lon="-1.07682">
        <ele>15.4</ele>
        <time>2020-06-16T10:12:38Z</time>
      </trkpt>
      <trkpt lat="49.36822" lon="-1.07681">
        <ele>15.4</ele>
        <time>2020-06-16T10:12:39Z</time>
      </trkpt>
      <trkpt lat="49.36822" lon="-1.0768">
        <ele>15.4</ele>
        <time>2020-06-16T10:12:40Z</time>
      </trkpt>
      <trkpt lat="49.36822" lon="-1.07679">
        <ele>15.4</ele>
        <time>2020-06-16T10:12:41Z</time>
      </trkpt>
      <trkpt lat="49.36822" lon="-1.07679">
        <ele>15.4</ele>
        <time>2020-06-16T10:12:42Z</time>
      </trkpt>
      <trkpt lat="49.36823" lon="-1.07678">
        <ele>15.4</ele>
        <time>2020-06-16T10:12:43Z</time>
      </trkpt>
      <trkpt lat="49.36823" lon="-1.07679">
        <ele>15.4</ele>
        <time>2020-06-16T10:12:44Z</time>
      </trkpt>
      <trkpt lat="49.36823" lon="-1.07679">
        <ele>15.4</ele>
        <time>2020-06-16T10:12:45Z</time>
      </trkpt>
      <trkpt lat="49.36823" lon="-1.07678">
        <ele>15.4</ele>
        <time>2020-06-16T10:12:46Z</time>
      </trkpt>
      <trkpt lat="49.36823" lon="-1.07677">
        <ele>15.4</ele>
        <time>2020-06-16T10:12:47Z</time>
      </trkpt>
      <trkpt lat="49.36823" lon="-1.07677">
        <ele>15.4</ele>
        <time>2020-06-16T10:12:48Z</time>
      </trkpt>
      <trkpt lat="49.36823" lon="-1.07678">
        <ele>15.4</ele>
        <time>2020-06-16T10:12:49Z</time>
      </trkpt>
      <trkpt lat="49.36822" lon="-1.07678">
        <ele>15.4</ele>
        <time>2020-06-16T10:12:50Z</time>
      </trkpt>
      <trkpt lat="49.36822" lon="-1.0768">
        <ele>15.4</ele>
        <time>2020-06-16T10:12:51Z</time>
      </trkpt>
      <trkpt lat="49.36822" lon="-1.07682">
        <ele>15.4</ele>
        <time>2020-06-16T10:12:52Z</time>
      </trkpt>
      <trkpt lat="49.36821" lon="-1.07683">
        <ele>15.4</ele>
        <time>2020-06-16T10:12:53Z</time>
      </trkpt>
      <trkpt lat="49.36821" lon="-1.07683">
        <ele>15.4</ele>
        <time>2020-06-16T10:12:54Z</time>
      </trkpt>
      <trkpt lat="49.36821" lon="-1.07683">
        <ele>15.4</ele>
        <time>2020-06-16T10:12:55Z</time>
      </trkpt>
      <trkpt lat="49.36821" lon="-1.07681">
        <ele>15.4</ele>
        <time>2020-06-16T10:12:56Z</time>
      </trkpt>
      <trkpt lat="49.36821" lon="-1.0768">
        <ele>15.4</ele>
        <time>2020-06-16T10:12:57Z</time>
      </trkpt>
      <trkpt lat="49.36821" lon="-1.07679">
        <ele>15.3</ele>
        <time>2020-06-16T10:12:58Z</time>
      </trkpt>
      <trkpt lat="49.36821" lon="-1.07678">
        <ele>15.3</ele>
        <time>2020-06-16T10:12:59Z</time>
      </trkpt>
      <trkpt lat="49.36822" lon="-1.07678">
        <ele>15.3</ele>
        <time>2020-06-16T10:13:00Z</time>
      </trkpt>
      <trkpt lat="49.36822" lon="-1.07677">
        <ele>15.3</ele>
        <time>2020-06-16T10:13:01Z</time>
      </trkpt>
      <trkpt lat="49.36822" lon="-1.07677">
        <ele>15.3</ele>
        <time>2020-06-16T10:13:02Z</time>
      </trkpt>
      <trkpt lat="49.36822" lon="-1.07678">
        <ele>15.3</ele>
        <time>2020-06-16T10:13:03Z</time>
      </trkpt>
      <trkpt lat="49.36822" lon="-1.07678">
        <ele>15.3</ele>
        <time>2020-06-16T10:13:04Z</time>
      </trkpt>
      <trkpt lat="49.36823" lon="-1.07678">
        <ele>15.3</ele>
        <time>2020-06-16T10:13:05Z</time>
      </trkpt>
      <trkpt lat="49.36823" lon="-1.07677">
        <ele>15.3</ele>
        <time>2020-06-16T10:13:06Z</time>
      </trkpt>
      <trkpt lat="49.36823" lon="-1.07677">
        <ele>15.3</ele>
        <time>2020-06-16T10:13:07Z</time>
      </trkpt>
      <trkpt lat="49.36822" lon="-1.07678">
        <ele>15.3</ele>
        <time>2020-06-16T10:13:08Z</time>
      </trkpt>
      <trkpt lat="49.36821" lon="-1.0768">
        <ele>15.3</ele>
        <time>2020-06-16T10:13:09Z</time>
      </trkpt>
      <trkpt lat="49.3682" lon="-1.0768">
        <ele>15.3</ele>
        <time>2020-06-16T10:13:10Z</time>
      </trkpt>
      <trkpt lat="49.3682" lon="-1.07681">
        <ele>15.3</ele>
        <time>2020-06-16T10:13:11Z</time>
      </trkpt>
      <trkpt lat="49.3682" lon="-1.07681">
        <ele>15.3</ele>
        <time>2020-06-16T10:13:12Z</time>
      </trkpt>
      <trkpt lat="49.3682" lon="-1.07681">
        <ele>15.3</ele>
        <time>2020-06-16T10:13:13Z</time>
      </trkpt>
      <trkpt lat="49.36819" lon="-1.07681">
        <ele>15.3</ele>
        <time>2020-06-16T10:13:14Z</time>
      </trkpt>
      <trkpt lat="49.36819" lon="-1.07681">
        <ele>15.3</ele>
        <time>2020-06-16T10:13:15Z</time>
      </trkpt>
      <trkpt lat="49.36818" lon="-1.07681">
        <ele>15.3</ele>
        <time>2020-06-16T10:13:16Z</time>
      </trkpt>
      <trkpt lat="49.36818" lon="-1.07681">
        <ele>15.3</ele>
        <time>2020-06-16T10:13:17Z</time>
      </trkpt>
      <trkpt lat="49.36818" lon="-1.07682">
        <ele>15.3</ele>
        <time>2020-06-16T10:13:18Z</time>
      </trkpt>
      <trkpt lat="49.36818" lon="-1.07683">
        <ele>15.3</ele>
        <time>2020-06-16T10:13:19Z</time>
      </trkpt>
      <trkpt lat="49.36818" lon="-1.07683">
        <ele>15.3</ele>
        <time>2020-06-16T10:13:20Z</time>
      </trkpt>
      <trkpt lat="49.36817" lon="-1.07683">
        <ele>15.3</ele>
        <time>2020-06-16T10:13:21Z</time>
      </trkpt>
      <trkpt lat="49.36818" lon="-1.07684">
        <ele>15.3</ele>
        <time>2020-06-16T10:13:22Z</time>
      </trkpt>
      <trkpt lat="49.36818" lon="-1.07684">
        <ele>15.3</ele>
        <time>2020-06-16T10:13:23Z</time>
      </trkpt>
      <trkpt lat="49.36818" lon="-1.07685">
        <ele>15.3</ele>
        <time>2020-06-16T10:13:24Z</time>
      </trkpt>
      <trkpt lat="49.36818" lon="-1.07687">
        <ele>15.2</ele>
        <time>2020-06-16T10:13:25Z</time>
      </trkpt>
      <trkpt lat="49.36819" lon="-1.07687">
        <ele>15.2</ele>
        <time>2020-06-16T10:13:26Z</time>
      </trkpt>
      <trkpt lat="49.36819" lon="-1.07688">
        <ele>15.2</ele>
        <time>2020-06-16T10:13:27Z</time>
      </trkpt>
      <trkpt lat="49.36819" lon="-1.0769">
        <ele>15.2</ele>
        <time>2020-06-16T10:13:28Z</time>
      </trkpt>
      <trkpt lat="49.3682" lon="-1.0769">
        <ele>15.2</ele>
        <time>2020-06-16T10:13:29Z</time>
      </trkpt>
      <trkpt lat="49.3682" lon="-1.07691">
        <ele>15.2</ele>
        <time>2020-06-16T10:13:30Z</time>
      </trkpt>
      <trkpt lat="49.36819" lon="-1.07691">
        <ele>15.2</ele>
        <time>2020-06-16T10:13:31Z</time>
      </trkpt>
      <trkpt lat="49.3682" lon="-1.0769">
        <ele>15.2</ele>
        <time>2020-06-16T10:13:32Z</time>
      </trkpt>
      <trkpt lat="49.3682" lon="-1.07689">
        <ele>15.2</ele>
        <time>2020-06-16T10:13:33Z</time>
      </trkpt>
      <trkpt lat="49.36819" lon="-1.07688">
        <ele>15.2</ele>
        <time>2020-06-16T10:13:34Z</time>
      </trkpt>
      <trkpt lat="49.36819" lon="-1.07688">
        <ele>15.2</ele>
        <time>2020-06-16T10:13:35Z</time>
      </trkpt>
      <trkpt lat="49.36819" lon="-1.07688">
        <ele>15.2</ele>
        <time>2020-06-16T10:13:36Z</time>
      </trkpt>
      <trkpt lat="49.3682" lon="-1.07688">
        <ele>15.2</ele>
        <time>2020-06-16T10:13:37Z</time>
      </trkpt>
      <trkpt lat="49.36821" lon="-1.07688">
        <ele>15.2</ele>
        <time>2020-06-16T10:13:38Z</time>
      </trkpt>
      <trkpt lat="49.36821" lon="-1.07688">
        <ele>15.2</ele>
        <time>2020-06-16T10:13:39Z</time>
      </trkpt>
      <trkpt lat="49.36822" lon="-1.07688">
        <ele>15.2</ele>
        <time>2020-06-16T10:13:40Z</time>
      </trkpt>
      <trkpt lat="49.36823" lon="-1.07689">
        <ele>15.2</ele>
        <time>2020-06-16T10:13:41Z</time>
      </trkpt>
      <trkpt lat="49.36823" lon="-1.0769">
        <ele>15.2</ele>
        <time>2020-06-16T10:13:42Z</time>
      </trkpt>
      <trkpt lat="49.36823" lon="-1.07691">
        <ele>15.2</ele>
        <time>2020-06-16T10:13:43Z</time>
      </trkpt>
      <trkpt lat="49.36824" lon="-1.07692">
        <ele>15.2</ele>
        <time>2020-06-16T10:13:44Z</time>
      </trkpt>
      <trkpt lat="49.36824" lon="-1.07692">
        <ele>15.2</ele>
        <time>2020-06-16T10:13:45Z</time>
      </trkpt>
      <trkpt lat="49.36825" lon="-1.07695">
        <ele>15.1</ele>
        <time>2020-06-16T10:13:46Z</time>
      </trkpt>
      <trkpt lat="49.36825" lon="-1.07698">
        <ele>15.1</ele>
        <time>2020-06-16T10:13:47Z</time>
      </trkpt>
      <trkpt lat="49.36826" lon="-1.07701">
        <ele>15.1</ele>
        <time>2020-06-16T10:13:48Z</time>
      </trkpt>
      <trkpt lat="49.36827" lon="-1.07702">
        <ele>15.1</ele>
        <time>2020-06-16T10:13:49Z</time>
      </trkpt>
      <trkpt lat="49.36827" lon="-1.07703">
        <ele>15.1</ele>
        <time>2020-06-16T10:13:50Z</time>
      </trkpt>
      <trkpt lat="49.36828" lon="-1.07701">
        <ele>15.1</ele>
        <time>2020-06-16T10:13:51Z</time>
      </trkpt>
      <trkpt lat="49.3683" lon="-1.077">
        <ele>15.1</ele>
        <time>2020-06-16T10:13:52Z</time>
      </trkpt>
      <trkpt lat="49.36831" lon="-1.07699">
        <ele>15.1</ele>
        <time>2020-06-16T10:13:53Z</time>
      </trkpt>
      <trkpt lat="49.36831" lon="-1.07697">
        <ele>15.1</ele>
        <time>2020-06-16T10:13:54Z</time>
      </trkpt>
      <trkpt lat="49.36831" lon="-1.07697">
        <ele>15.1</ele>
        <time>2020-06-16T10:13:55Z</time>
      </trkpt>
      <trkpt lat="49.36831" lon="-1.07697">
        <ele>15.1</ele>
        <time>2020-06-16T10:13:56Z</time>
      </trkpt>
      <trkpt lat="49.36832" lon="-1.07696">
        <ele>15</ele>
        <time>2020-06-16T10:13:57Z</time>
      </trkpt>
      <trkpt lat="49.36832" lon="-1.07695">
        <ele>15</ele>
        <time>2020-06-16T10:13:58Z</time>
      </trkpt>
      <trkpt lat="49.36832" lon="-1.07695">
        <ele>15</ele>
        <time>2020-06-16T10:13:59Z</time>
      </trkpt>
      <trkpt lat="49.36832" lon="-1.07694">
        <ele>15</ele>
        <time>2020-06-16T10:14:00Z</time>
      </trkpt>
      <trkpt lat="49.36832" lon="-1.07694">
        <ele>15</ele>
        <time>2020-06-16T10:14:01Z</time>
      </trkpt>
      <trkpt lat="49.36832" lon="-1.07694">
        <ele>15</ele>
        <time>2020-06-16T10:14:02Z</time>
      </trkpt>
      <trkpt lat="49.36832" lon="-1.07694">
        <ele>15</ele>
        <time>2020-06-16T10:14:03Z</time>
      </trkpt>
      <trkpt lat="49.36833" lon="-1.07691">
        <ele>15</ele>
        <time>2020-06-16T10:29:30Z</time>
      </trkpt>
      <trkpt lat="49.36833" lon="-1.07692">
        <ele>15</ele>
        <time>2020-06-16T10:29:31Z</time>
      </trkpt>
      <trkpt lat="49.36831" lon="-1.07689">
        <ele>15</ele>
        <time>2020-06-16T10:29:32Z</time>
      </trkpt>
      <trkpt lat="49.3683" lon="-1.07687">
        <ele>15</ele>
        <time>2020-06-16T10:29:33Z</time>
      </trkpt>
      <trkpt lat="49.36828" lon="-1.07686">
        <ele>15</ele>
        <time>2020-06-16T10:29:34Z</time>
      </trkpt>
      <trkpt lat="49.36827" lon="-1.07685">
        <ele>15</ele>
        <time>2020-06-16T10:29:35Z</time>
      </trkpt>
      <trkpt lat="49.36826" lon="-1.07684">
        <ele>15</ele>
        <time>2020-06-16T10:29:36Z</time>
      </trkpt>
      <trkpt lat="49.36825" lon="-1.07684">
        <ele>14.9</ele>
        <time>2020-06-16T10:29:37Z</time>
      </trkpt>
      <trkpt lat="49.36824" lon="-1.07683">
        <ele>14.9</ele>
        <time>2020-06-16T10:29:38Z</time>
      </trkpt>
      <trkpt lat="49.36823" lon="-1.07683">
        <ele>14.9</ele>
        <time>2020-06-16T10:29:39Z</time>
      </trkpt>
      <trkpt lat="49.36822" lon="-1.07682">
        <ele>14.9</ele>
        <time>2020-06-16T10:29:40Z</time>
      </trkpt>
      <trkpt lat="49.36821" lon="-1.07682">
        <ele>14.8</ele>
        <time>2020-06-16T10:29:41Z</time>
      </trkpt>
      <trkpt lat="49.36821" lon="-1.07682">
        <ele>14.8</ele>
        <time>2020-06-16T10:29:42Z</time>
      </trkpt>
      <trkpt lat="49.36821" lon="-1.07681">
        <ele>14.8</ele>
        <time>2020-06-16T10:29:43Z</time>
      </trkpt>
      <trkpt lat="49.36821" lon="-1.07681">
        <ele>14.8</ele>
        <time>2020-06-16T10:29:44Z</time>
      </trkpt>
      <trkpt lat="49.36821" lon="-1.07681">
        <ele>14.8</ele>
        <time>2020-06-16T10:29:45Z</time>
      </trkpt>
      <trkpt lat="49.36821" lon="-1.07681">
        <ele>14.8</ele>
        <time>2020-06-16T10:29:46Z</time>
      </trkpt>
      <trkpt lat="49.36822" lon="-1.07681">
        <ele>14.8</ele>
        <time>2020-06-16T10:29:47Z</time>
      </trkpt>
      <trkpt lat="49.36822" lon="-1.0768">
        <ele>14.8</ele>
        <time>2020-06-16T10:29:48Z</time>
      </trkpt>
      <trkpt lat="49.36822" lon="-1.0768">
        <ele>14.8</ele>
        <time>2020-06-16T10:29:49Z</time>
      </trkpt>
      <trkpt lat="49.36822" lon="-1.0768">
        <ele>14.8</ele>
        <time>2020-06-16T10:29:50Z</time>
      </trkpt>
      <trkpt lat="49.36822" lon="-1.0768">
        <ele>14.8</ele>
        <time>2020-06-16T10:29:51Z</time>
      </trkpt>
      <trkpt lat="49.36822" lon="-1.07681">
        <ele>14.8</ele>
        <time>2020-06-16T10:29:52Z</time>
      </trkpt>
      <trkpt lat="49.36822" lon="-1.07681">
        <ele>14.7</ele>
        <time>2020-06-16T10:29:53Z</time>
      </trkpt>
      <trkpt lat="49.36828" lon="-1.07679">
        <ele>14.7</ele>
        <time>2020-06-16T10:31:01Z</time>
      </trkpt>
      <trkpt lat="49.36828" lon="-1.07679">
        <ele>14.7</ele>
        <time>2020-06-16T10:31:02Z</time>
      </trkpt>
      <trkpt lat="49.36828" lon="-1.07678">
        <ele>14.6</ele>
        <time>2020-06-16T10:31:03Z</time>
      </trkpt>
      <trkpt lat="49.36828" lon="-1.07679">
        <ele>14.6</ele>
        <time>2020-06-16T10:31:04Z</time>
      </trkpt>
      <trkpt lat="49.36829" lon="-1.07679">
        <ele>14.6</ele>
        <time>2020-06-16T10:31:05Z</time>
      </trkpt>
      <trkpt lat="49.36829" lon="-1.07679">
        <ele>14.6</ele>
        <time>2020-06-16T10:31:06Z</time>
      </trkpt>
      <trkpt lat="49.36829" lon="-1.07678">
        <ele>14.6</ele>
        <time>2020-06-16T10:31:07Z</time>
      </trkpt>
      <trkpt lat="49.3683" lon="-1.07679">
        <ele>14.6</ele>
        <time>2020-06-16T10:31:08Z</time>
      </trkpt>
      <trkpt lat="49.3683" lon="-1.07678">
        <ele>14.6</ele>
        <time>2020-06-16T10:31:09Z</time>
      </trkpt>
      <trkpt lat="49.36829" lon="-1.07679">
        <ele>14.6</ele>
        <time>2020-06-16T10:31:10Z</time>
      </trkpt>
      <trkpt lat="49.36829" lon="-1.07679">
        <ele>14.6</ele>
        <time>2020-06-16T10:31:11Z</time>
      </trkpt>
      <trkpt lat="49.36829" lon="-1.07679">
        <ele>14.6</ele>
        <time>2020-06-16T10:31:12Z</time>
      </trkpt>
      <trkpt lat="49.36829" lon="-1.07679">
        <ele>14.6</ele>
        <time>2020-06-16T10:31:13Z</time>
      </trkpt>
      <trkpt lat="49.36828" lon="-1.07678">
        <ele>14.6</ele>
        <time>2020-06-16T10:31:14Z</time>
      </trkpt>
      <trkpt lat="49.36828" lon="-1.07678">
        <ele>14.6</ele>
        <time>2020-06-16T10:31:15Z</time>
      </trkpt>
      <trkpt lat="49.36828" lon="-1.07678">
        <ele>14.6</ele>
        <time>2020-06-16T10:31:16Z</time>
      </trkpt>
      <trkpt lat="49.3682" lon="-1.07669">
        <ele>14.5</ele>
        <time>2020-06-16T10:31:53Z</time>
      </trkpt>
      <trkpt lat="49.3682" lon="-1.07668">
        <ele>14.5</ele>
        <time>2020-06-16T10:31:54Z</time>
      </trkpt>
      <trkpt lat="49.3682" lon="-1.07667">
        <ele>14.5</ele>
        <time>2020-06-16T10:31:55Z</time>
      </trkpt>
      <trkpt lat="49.3682" lon="-1.07666">
        <ele>14.5</ele>
        <time>2020-06-16T10:31:56Z</time>
      </trkpt>
      <trkpt lat="49.3682" lon="-1.07666">
        <ele>14.5</ele>
        <time>2020-06-16T10:31:57Z</time>
      </trkpt>
      <trkpt lat="49.3682" lon="-1.07666">
        <ele>14.5</ele>
        <time>2020-06-16T10:31:58Z</time>
      </trkpt>
      <trkpt lat="49.3682" lon="-1.07666">
        <ele>14.4</ele>
        <time>2020-06-16T10:31:59Z</time>
      </trkpt>
      <trkpt lat="49.3682" lon="-1.07666">
        <ele>14.4</ele>
        <time>2020-06-16T10:32:00Z</time>
      </trkpt>
      <trkpt lat="49.3682" lon="-1.07666">
        <ele>14.4</ele>
        <time>2020-06-16T10:32:01Z</time>
      </trkpt>
      <trkpt lat="49.36821" lon="-1.07666">
        <ele>14.5</ele>
        <time>2020-06-16T10:32:02Z</time>
      </trkpt>
      <trkpt lat="49.36821" lon="-1.07666">
        <ele>14.5</ele>
        <time>2020-06-16T10:32:03Z</time>
      </trkpt>
      <trkpt lat="49.36821" lon="-1.07665">
        <ele>14.5</ele>
        <time>2020-06-16T10:32:04Z</time>
      </trkpt>
      <trkpt lat="49.36821" lon="-1.07665">
        <ele>14.5</ele>
        <time>2020-06-16T10:32:05Z</time>
      </trkpt>
      <trkpt lat="49.36821" lon="-1.07665">
        <ele>14.5</ele>
        <time>2020-06-16T10:32:06Z</time>
      </trkpt>
      <trkpt lat="49.36821" lon="-1.07665">
        <ele>14.5</ele>
        <time>2020-06-16T10:32:07Z</time>
      </trkpt>
      <trkpt lat="49.36827" lon="-1.07669">
        <ele>14.4</ele>
        <time>2020-06-16T10:33:04Z</time>
      </trkpt>
      <trkpt lat="49.36828" lon="-1.07669">
        <ele>14.4</ele>
        <time>2020-06-16T10:33:05Z</time>
      </trkpt>
      <trkpt lat="49.36828" lon="-1.0767">
        <ele>14.4</ele>
        <time>2020-06-16T10:33:06Z</time>
      </trkpt>
      <trkpt lat="49.36829" lon="-1.07671">
        <ele>14.4</ele>
        <time>2020-06-16T10:33:07Z</time>
      </trkpt>
      <trkpt lat="49.36831" lon="-1.07671">
        <ele>14.4</ele>
        <time>2020-06-16T10:33:08Z</time>
      </trkpt>
      <trkpt lat="49.36832" lon="-1.07671">
        <ele>14.4</ele>
        <time>2020-06-16T10:33:09Z</time>
      </trkpt>
      <trkpt lat="49.36833" lon="-1.07671">
        <ele>14.4</ele>
        <time>2020-06-16T10:33:10Z</time>
      </trkpt>
      <trkpt lat="49.36835" lon="-1.07671">
        <ele>14.4</ele>
        <time>2020-06-16T10:33:11Z</time>
      </trkpt>
      <trkpt lat="49.36835" lon="-1.07671">
        <ele>14.4</ele>
        <time>2020-06-16T10:33:12Z</time>
      </trkpt>
      <trkpt lat="49.36836" lon="-1.07672">
        <ele>14.4</ele>
        <time>2020-06-16T10:33:13Z</time>
      </trkpt>
      <trkpt lat="49.36837" lon="-1.07672">
        <ele>14.4</ele>
        <time>2020-06-16T10:33:14Z</time>
      </trkpt>
      <trkpt lat="49.36837" lon="-1.07672">
        <ele>14.4</ele>
        <time>2020-06-16T10:33:15Z</time>
      </trkpt>
      <trkpt lat="49.36839" lon="-1.07671">
        <ele>14.3</ele>
        <time>2020-06-16T10:33:16Z</time>
      </trkpt>
      <trkpt lat="49.36839" lon="-1.07669">
        <ele>14.3</ele>
        <time>2020-06-16T10:33:17Z</time>
      </trkpt>
      <trkpt lat="49.36839" lon="-1.07668">
        <ele>14.3</ele>
        <time>2020-06-16T10:33:18Z</time>
      </trkpt>
      <trkpt lat="49.3684" lon="-1.07666">
        <ele>14.3</ele>
        <time>2020-06-16T10:33:19Z</time>
      </trkpt>
      <trkpt lat="49.36841" lon="-1.07664">
        <ele>14.3</ele>
        <time>2020-06-16T10:33:20Z</time>
      </trkpt>
      <trkpt lat="49.36842" lon="-1.07663">
        <ele>14.3</ele>
        <time>2020-06-16T10:33:21Z</time>
      </trkpt>
      <trkpt lat="49.36842" lon="-1.07662">
        <ele>14.4</ele>
        <time>2020-06-16T10:33:22Z</time>
      </trkpt>
      <trkpt lat="49.36843" lon="-1.07661">
        <ele>14.4</ele>
        <time>2020-06-16T10:33:23Z</time>
      </trkpt>
      <trkpt lat="49.36844" lon="-1.0766">
        <ele>14.4</ele>
        <time>2020-06-16T10:33:24Z</time>
      </trkpt>
      <trkpt lat="49.36845" lon="-1.07659">
        <ele>14.4</ele>
        <time>2020-06-16T10:33:25Z</time>
      </trkpt>
      <trkpt lat="49.36845" lon="-1.07658">
        <ele>14.4</ele>
        <time>2020-06-16T10:33:26Z</time>
      </trkpt>
      <trkpt lat="49.36846" lon="-1.07657">
        <ele>14.4</ele>
        <time>2020-06-16T10:33:27Z</time>
      </trkpt>
      <trkpt lat="49.36846" lon="-1.07657">
        <ele>14.4</ele>
        <time>2020-06-16T10:33:28Z</time>
      </trkpt>
      <trkpt lat="49.36846" lon="-1.07656">
        <ele>14.3</ele>
        <time>2020-06-16T10:33:29Z</time>
      </trkpt>
      <trkpt lat="49.36847" lon="-1.07656">
        <ele>14.3</ele>
        <time>2020-06-16T10:33:30Z</time>
      </trkpt>
      <trkpt lat="49.36847" lon="-1.07656">
        <ele>14.3</ele>
        <time>2020-06-16T10:33:31Z</time>
      </trkpt>
      <trkpt lat="49.36847" lon="-1.07655">
        <ele>14.3</ele>
        <time>2020-06-16T10:33:32Z</time>
      </trkpt>
      <trkpt lat="49.36847" lon="-1.07655">
        <ele>14.3</ele>
        <time>2020-06-16T10:33:33Z</time>
      </trkpt>
      <trkpt lat="49.36847" lon="-1.07654">
        <ele>14.3</ele>
        <time>2020-06-16T10:33:34Z</time>
      </trkpt>
      <trkpt lat="49.36848" lon="-1.07653">
        <ele>14.3</ele>
        <time>2020-06-16T10:33:35Z</time>
      </trkpt>
      <trkpt lat="49.36849" lon="-1.07652">
        <ele>14.3</ele>
        <time>2020-06-16T10:33:36Z</time>
      </trkpt>
      <trkpt lat="49.36849" lon="-1.07651">
        <ele>14.3</ele>
        <time>2020-06-16T10:33:37Z</time>
      </trkpt>
      <trkpt lat="49.3685" lon="-1.07651">
        <ele>14.3</ele>
        <time>2020-06-16T10:33:38Z</time>
      </trkpt>
      <trkpt lat="49.3685" lon="-1.07651">
        <ele>14.3</ele>
        <time>2020-06-16T10:33:39Z</time>
      </trkpt>
      <trkpt lat="49.3685" lon="-1.0765">
        <ele>14.3</ele>
        <time>2020-06-16T10:33:40Z</time>
      </trkpt>
      <trkpt lat="49.36851" lon="-1.0765">
        <ele>14.3</ele>
        <time>2020-06-16T10:33:41Z</time>
      </trkpt>
      <trkpt lat="49.36851" lon="-1.0765">
        <ele>14.3</ele>
        <time>2020-06-16T10:33:42Z</time>
      </trkpt>
      <trkpt lat="49.36851" lon="-1.07649">
        <ele>14.3</ele>
        <time>2020-06-16T10:33:43Z</time>
      </trkpt>
      <trkpt lat="49.36851" lon="-1.07649">
        <ele>14.4</ele>
        <time>2020-06-16T10:33:44Z</time>
      </trkpt>
      <trkpt lat="49.36851" lon="-1.07649">
        <ele>14.4</ele>
        <time>2020-06-16T10:33:45Z</time>
      </trkpt>
      <trkpt lat="49.36852" lon="-1.07649">
        <ele>14.3</ele>
        <time>2020-06-16T10:33:46Z</time>
      </trkpt>
      <trkpt lat="49.36851" lon="-1.07649">
        <ele>14.4</ele>
        <time>2020-06-16T10:33:47Z</time>
      </trkpt>
      <trkpt lat="49.36851" lon="-1.07649">
        <ele>14.3</ele>
        <time>2020-06-16T10:33:48Z</time>
      </trkpt>
      <trkpt lat="49.36851" lon="-1.07649">
        <ele>14.3</ele>
        <time>2020-06-16T10:33:49Z</time>
      </trkpt>
      <trkpt lat="49.36851" lon="-1.07649">
        <ele>14.3</ele>
        <time>2020-06-16T10:33:50Z</time>
      </trkpt>
      <trkpt lat="49.3685" lon="-1.07649">
        <ele>14.3</ele>
        <time>2020-06-16T10:33:51Z</time>
      </trkpt>
      <trkpt lat="49.3685" lon="-1.07649">
        <ele>14.3</ele>
        <time>2020-06-16T10:33:52Z</time>
      </trkpt>
      <trkpt lat="49.3685" lon="-1.07649">
        <ele>14.3</ele>
        <time>2020-06-16T10:33:53Z</time>
      </trkpt>
      <trkpt lat="49.3685" lon="-1.07649">
        <ele>14.4</ele>
        <time>2020-06-16T10:33:54Z</time>
      </trkpt>
      <trkpt lat="49.3685" lon="-1.07649">
        <ele>14.4</ele>
        <time>2020-06-16T10:33:55Z</time>
      </trkpt>
      <trkpt lat="49.3685" lon="-1.07648">
        <ele>14.4</ele>
        <time>2020-06-16T10:33:56Z</time>
      </trkpt>
      <trkpt lat="49.3685" lon="-1.07648">
        <ele>14.4</ele>
        <time>2020-06-16T10:33:57Z</time>
      </trkpt>
      <trkpt lat="49.3685" lon="-1.07648">
        <ele>14.4</ele>
        <time>2020-06-16T10:33:58Z</time>
      </trkpt>
      <trkpt lat="49.36851" lon="-1.07649">
        <ele>14.4</ele>
        <time>2020-06-16T10:33:59Z</time>
      </trkpt>
      <trkpt lat="49.36851" lon="-1.07649">
        <ele>14.3</ele>
        <time>2020-06-16T10:34:00Z</time>
      </trkpt>
      <trkpt lat="49.36851" lon="-1.07649">
        <ele>14.3</ele>
        <time>2020-06-16T10:34:01Z</time>
      </trkpt>
      <trkpt lat="49.36851" lon="-1.0765">
        <ele>14.3</ele>
        <time>2020-06-16T10:34:02Z</time>
      </trkpt>
      <trkpt lat="49.36851" lon="-1.07649">
        <ele>14.3</ele>
        <time>2020-06-16T10:34:03Z</time>
      </trkpt>
      <trkpt lat="49.3685" lon="-1.0765">
        <ele>14.3</ele>
        <time>2020-06-16T10:34:04Z</time>
      </trkpt>
      <trkpt lat="49.36851" lon="-1.0765">
        <ele>14.3</ele>
        <time>2020-06-16T10:34:05Z</time>
      </trkpt>
      <trkpt lat="49.3685" lon="-1.0765">
        <ele>14.3</ele>
        <time>2020-06-16T10:34:06Z</time>
      </trkpt>
      <trkpt lat="49.36851" lon="-1.0765">
        <ele>14.3</ele>
        <time>2020-06-16T10:34:07Z</time>
      </trkpt>
      <trkpt lat="49.3685" lon="-1.0765">
        <ele>14.3</ele>
        <time>2020-06-16T10:34:08Z</time>
      </trkpt>
      <trkpt lat="49.3685" lon="-1.07651">
        <ele>14.3</ele>
        <time>2020-06-16T10:34:09Z</time>
      </trkpt>
      <trkpt lat="49.36851" lon="-1.07652">
        <ele>14.3</ele>
        <time>2020-06-16T10:34:10Z</time>
      </trkpt>
      <trkpt lat="49.36851" lon="-1.07652">
        <ele>14.3</ele>
        <time>2020-06-16T10:34:11Z</time>
      </trkpt>
      <trkpt lat="49.36852" lon="-1.07653">
        <ele>14.3</ele>
        <time>2020-06-16T10:34:12Z</time>
      </trkpt>
      <trkpt lat="49.36851" lon="-1.07655">
        <ele>14.3</ele>
        <time>2020-06-16T10:34:13Z</time>
      </trkpt>
      <trkpt lat="49.36851" lon="-1.07655">
        <ele>14.3</ele>
        <time>2020-06-16T10:34:14Z</time>
      </trkpt>
      <trkpt lat="49.3685" lon="-1.07655">
        <ele>14.3</ele>
        <time>2020-06-16T10:34:15Z</time>
      </trkpt>
      <trkpt lat="49.3685" lon="-1.07656">
        <ele>14.3</ele>
        <time>2020-06-16T10:34:16Z</time>
      </trkpt>
      <trkpt lat="49.36849" lon="-1.07656">
        <ele>14.3</ele>
        <time>2020-06-16T10:34:17Z</time>
      </trkpt>
      <trkpt lat="49.36849" lon="-1.07656">
        <ele>14.3</ele>
        <time>2020-06-16T10:34:18Z</time>
      </trkpt>
      <trkpt lat="49.36849" lon="-1.07657">
        <ele>14.3</ele>
        <time>2020-06-16T10:34:19Z</time>
      </trkpt>
      <trkpt lat="49.3685" lon="-1.07658">
        <ele>14.2</ele>
        <time>2020-06-16T10:34:20Z</time>
      </trkpt>
      <trkpt lat="49.36851" lon="-1.07659">
        <ele>14.2</ele>
        <time>2020-06-16T10:34:21Z</time>
      </trkpt>
      <trkpt lat="49.36852" lon="-1.07659">
        <ele>14.2</ele>
        <time>2020-06-16T10:34:22Z</time>
      </trkpt>
      <trkpt lat="49.36852" lon="-1.07659">
        <ele>14.2</ele>
        <time>2020-06-16T10:34:23Z</time>
      </trkpt>
      <trkpt lat="49.36852" lon="-1.07659">
        <ele>14.2</ele>
        <time>2020-06-16T10:34:24Z</time>
      </trkpt>
      <trkpt lat="49.36851" lon="-1.07659">
        <ele>14.2</ele>
        <time>2020-06-16T10:34:25Z</time>
      </trkpt>
      <trkpt lat="49.36851" lon="-1.07658">
        <ele>14.2</ele>
        <time>2020-06-16T10:34:26Z</time>
      </trkpt>
      <trkpt lat="49.3685" lon="-1.07658">
        <ele>14.2</ele>
        <time>2020-06-16T10:34:27Z</time>
      </trkpt>
      <trkpt lat="49.3685" lon="-1.07657">
        <ele>14.3</ele>
        <time>2020-06-16T10:34:28Z</time>
      </trkpt>
      <trkpt lat="49.3685" lon="-1.07656">
        <ele>14.3</ele>
        <time>2020-06-16T10:34:29Z</time>
      </trkpt>
      <trkpt lat="49.36851" lon="-1.07655">
        <ele>14.3</ele>
        <time>2020-06-16T10:34:30Z</time>
      </trkpt>
      <trkpt lat="49.36852" lon="-1.07655">
        <ele>14.3</ele>
        <time>2020-06-16T10:34:31Z</time>
      </trkpt>
      <trkpt lat="49.36853" lon="-1.07655">
        <ele>14.3</ele>
        <time>2020-06-16T10:34:32Z</time>
      </trkpt>
      <trkpt lat="49.36854" lon="-1.07655">
        <ele>14.3</ele>
        <time>2020-06-16T10:34:33Z</time>
      </trkpt>
      <trkpt lat="49.36855" lon="-1.07655">
        <ele>14.3</ele>
        <time>2020-06-16T10:34:34Z</time>
      </trkpt>
      <trkpt lat="49.36856" lon="-1.07655">
        <ele>14.3</ele>
        <time>2020-06-16T10:34:35Z</time>
      </trkpt>
      <trkpt lat="49.36857" lon="-1.07655">
        <ele>14.3</ele>
        <time>2020-06-16T10:34:36Z</time>
      </trkpt>
      <trkpt lat="49.36858" lon="-1.07654">
        <ele>14.3</ele>
        <time>2020-06-16T10:34:37Z</time>
      </trkpt>
      <trkpt lat="49.3686" lon="-1.07654">
        <ele>14.3</ele>
        <time>2020-06-16T10:35:46Z</time>
      </trkpt>
      <trkpt lat="49.36861" lon="-1.07654">
        <ele>14.3</ele>
        <time>2020-06-16T10:35:47Z</time>
      </trkpt>
      <trkpt lat="49.36862" lon="-1.07654">
        <ele>14.3</ele>
        <time>2020-06-16T10:35:48Z</time>
      </trkpt>
      <trkpt lat="49.36862" lon="-1.07654">
        <ele>14.3</ele>
        <time>2020-06-16T10:35:49Z</time>
      </trkpt>
      <trkpt lat="49.36863" lon="-1.07654">
        <ele>14.3</ele>
        <time>2020-06-16T10:35:50Z</time>
      </trkpt>
      <trkpt lat="49.36863" lon="-1.07654">
        <ele>14.3</ele>
        <time>2020-06-16T10:35:51Z</time>
      </trkpt>
      <trkpt lat="49.36863" lon="-1.07654">
        <ele>14.3</ele>
        <time>2020-06-16T10:35:52Z</time>
      </trkpt>
      <trkpt lat="49.36862" lon="-1.07653">
        <ele>14.3</ele>
        <time>2020-06-16T10:35:53Z</time>
      </trkpt>
      <trkpt lat="49.36862" lon="-1.07654">
        <ele>14.3</ele>
        <time>2020-06-16T10:35:54Z</time>
      </trkpt>
      <trkpt lat="49.36861" lon="-1.07655">
        <ele>14.3</ele>
        <time>2020-06-16T10:35:55Z</time>
      </trkpt>
      <trkpt lat="49.36861" lon="-1.07655">
        <ele>14.3</ele>
        <time>2020-06-16T10:35:56Z</time>
      </trkpt>
      <trkpt lat="49.36861" lon="-1.07656">
        <ele>14.3</ele>
        <time>2020-06-16T10:35:57Z</time>
      </trkpt>
      <trkpt lat="49.3686" lon="-1.07656">
        <ele>14.3</ele>
        <time>2020-06-16T10:35:58Z</time>
      </trkpt>
      <trkpt lat="49.36859" lon="-1.07657">
        <ele>14.3</ele>
        <time>2020-06-16T10:35:59Z</time>
      </trkpt>
      <trkpt lat="49.36858" lon="-1.07656">
        <ele>14.3</ele>
        <time>2020-06-16T10:36:00Z</time>
      </trkpt>
      <trkpt lat="49.36856" lon="-1.07656">
        <ele>14.3</ele>
        <time>2020-06-16T10:36:01Z</time>
      </trkpt>
      <trkpt lat="49.36856" lon="-1.07655">
        <ele>14.3</ele>
        <time>2020-06-16T10:36:02Z</time>
      </trkpt>
      <trkpt lat="49.36856" lon="-1.07655">
        <ele>14.3</ele>
        <time>2020-06-16T10:36:03Z</time>
      </trkpt>
      <trkpt lat="49.36856" lon="-1.07655">
        <ele>14.3</ele>
        <time>2020-06-16T10:36:04Z</time>
      </trkpt>
      <trkpt lat="49.36854" lon="-1.07634">
        <ele>14.5</ele>
        <time>2020-06-16T10:39:31Z</time>
      </trkpt>
      <trkpt lat="49.36854" lon="-1.07632">
        <ele>14.5</ele>
        <time>2020-06-16T10:39:32Z</time>
      </trkpt>
      <trkpt lat="49.36854" lon="-1.07632">
        <ele>14.5</ele>
        <time>2020-06-16T10:39:33Z</time>
      </trkpt>
      <trkpt lat="49.36854" lon="-1.07631">
        <ele>14.5</ele>
        <time>2020-06-16T10:39:34Z</time>
      </trkpt>
      <trkpt lat="49.36854" lon="-1.07631">
        <ele>14.5</ele>
        <time>2020-06-16T10:39:35Z</time>
      </trkpt>
      <trkpt lat="49.36854" lon="-1.0763">
        <ele>14.5</ele>
        <time>2020-06-16T10:39:36Z</time>
      </trkpt>
      <trkpt lat="49.36853" lon="-1.0763">
        <ele>14.5</ele>
        <time>2020-06-16T10:39:37Z</time>
      </trkpt>
      <trkpt lat="49.36853" lon="-1.0763">
        <ele>14.5</ele>
        <time>2020-06-16T10:39:38Z</time>
      </trkpt>
      <trkpt lat="49.36853" lon="-1.0763">
        <ele>14.5</ele>
        <time>2020-06-16T10:39:39Z</time>
      </trkpt>
      <trkpt lat="49.36853" lon="-1.0763">
        <ele>14.5</ele>
        <time>2020-06-16T10:39:40Z</time>
      </trkpt>
      <trkpt lat="49.36852" lon="-1.0763">
        <ele>14.5</ele>
        <time>2020-06-16T10:39:41Z</time>
      </trkpt>
      <trkpt lat="49.36852" lon="-1.07629">
        <ele>14.5</ele>
        <time>2020-06-16T10:39:42Z</time>
      </trkpt>
      <trkpt lat="49.36852" lon="-1.07629">
        <ele>14.5</ele>
        <time>2020-06-16T10:39:43Z</time>
      </trkpt>
      <trkpt lat="49.36851" lon="-1.07629">
        <ele>14.5</ele>
        <time>2020-06-16T10:39:44Z</time>
      </trkpt>
      <trkpt lat="49.36851" lon="-1.07629">
        <ele>14.5</ele>
        <time>2020-06-16T10:39:45Z</time>
      </trkpt>
      <trkpt lat="49.36851" lon="-1.07629">
        <ele>14.5</ele>
        <time>2020-06-16T10:39:46Z</time>
      </trkpt>
      <trkpt lat="49.3685" lon="-1.07629">
        <ele>14.5</ele>
        <time>2020-06-16T10:39:47Z</time>
      </trkpt>
      <trkpt lat="49.3685" lon="-1.07629">
        <ele>14.5</ele>
        <time>2020-06-16T10:39:48Z</time>
      </trkpt>
      <trkpt lat="49.3685" lon="-1.07628">
        <ele>14.5</ele>
        <time>2020-06-16T10:43:30Z</time>
      </trkpt>
      <trkpt lat="49.36849" lon="-1.07628">
        <ele>14.5</ele>
        <time>2020-06-16T10:43:31Z</time>
      </trkpt>
      <trkpt lat="49.36849" lon="-1.07628">
        <ele>14.5</ele>
        <time>2020-06-16T10:43:32Z</time>
      </trkpt>
      <trkpt lat="49.36849" lon="-1.07628">
        <ele>14.5</ele>
        <time>2020-06-16T10:43:33Z</time>
      </trkpt>
      <trkpt lat="49.36848" lon="-1.07628">
        <ele>14.5</ele>
        <time>2020-06-16T10:43:34Z</time>
      </trkpt>
      <trkpt lat="49.36848" lon="-1.07628">
        <ele>14.5</ele>
        <time>2020-06-16T10:43:35Z</time>
      </trkpt>
      <trkpt lat="49.36848" lon="-1.07627">
        <ele>14.6</ele>
        <time>2020-06-16T10:43:36Z</time>
      </trkpt>
      <trkpt lat="49.36849" lon="-1.07626">
        <ele>14.6</ele>
        <time>2020-06-16T10:43:37Z</time>
      </trkpt>
      <trkpt lat="49.36851" lon="-1.07626">
        <ele>14.6</ele>
        <time>2020-06-16T10:43:38Z</time>
      </trkpt>
      <trkpt lat="49.36851" lon="-1.07625">
        <ele>14.6</ele>
        <time>2020-06-16T10:43:39Z</time>
      </trkpt>
      <trkpt lat="49.36851" lon="-1.07625">
        <ele>14.6</ele>
        <time>2020-06-16T10:43:40Z</time>
      </trkpt>
      <trkpt lat="49.36852" lon="-1.07625">
        <ele>14.6</ele>
        <time>2020-06-16T10:43:41Z</time>
      </trkpt>
      <trkpt lat="49.36852" lon="-1.07626">
        <ele>14.6</ele>
        <time>2020-06-16T10:43:42Z</time>
      </trkpt>
      <trkpt lat="49.36852" lon="-1.07626">
        <ele>14.6</ele>
        <time>2020-06-16T10:43:43Z</time>
      </trkpt>
      <trkpt lat="49.36852" lon="-1.07626">
        <ele>14.6</ele>
        <time>2020-06-16T10:43:44Z</time>
      </trkpt>
      <trkpt lat="49.36852" lon="-1.07625">
        <ele>14.6</ele>
        <time>2020-06-16T10:43:45Z</time>
      </trkpt>
      <trkpt lat="49.36852" lon="-1.07625">
        <ele>14.6</ele>
        <time>2020-06-16T10:43:46Z</time>
      </trkpt>
      <trkpt lat="49.36852" lon="-1.07625">
        <ele>14.6</ele>
        <time>2020-06-16T10:43:47Z</time>
      </trkpt>
      <trkpt lat="49.36853" lon="-1.07625">
        <ele>14.6</ele>
        <time>2020-06-16T10:43:48Z</time>
      </trkpt>
      <trkpt lat="49.36852" lon="-1.07624">
        <ele>14.6</ele>
        <time>2020-06-16T10:43:49Z</time>
      </trkpt>
      <trkpt lat="49.36852" lon="-1.07624">
        <ele>14.6</ele>
        <time>2020-06-16T10:43:50Z</time>
      </trkpt>
      <trkpt lat="49.3685" lon="-1.0764">
        <ele>14.4</ele>
        <time>2020-06-16T10:49:48Z</time>
      </trkpt>
      <trkpt lat="49.36851" lon="-1.07641">
        <ele>14.4</ele>
        <time>2020-06-16T10:49:49Z</time>
      </trkpt>
      <trkpt lat="49.36851" lon="-1.07641">
        <ele>14.4</ele>
        <time>2020-06-16T10:49:50Z</time>
      </trkpt>
      <trkpt lat="49.36851" lon="-1.0764">
        <ele>14.4</ele>
        <time>2020-06-16T10:49:51Z</time>
      </trkpt>
      <trkpt lat="49.36851" lon="-1.07641">
        <ele>14.4</ele>
        <time>2020-06-16T10:49:52Z</time>
      </trkpt>
      <trkpt lat="49.36851" lon="-1.07641">
        <ele>14.4</ele>
        <time>2020-06-16T10:49:53Z</time>
      </trkpt>
      <trkpt lat="49.36852" lon="-1.07641">
        <ele>14.4</ele>
        <time>2020-06-16T10:49:54Z</time>
      </trkpt>
      <trkpt lat="49.36852" lon="-1.07641">
        <ele>14.4</ele>
        <time>2020-06-16T10:49:55Z</time>
      </trkpt>
      <trkpt lat="49.36852" lon="-1.07641">
        <ele>14.4</ele>
        <time>2020-06-16T10:49:56Z</time>
      </trkpt>
      <trkpt lat="49.36852" lon="-1.07641">
        <ele>14.4</ele>
        <time>2020-06-16T10:49:57Z</time>
      </trkpt>
      <trkpt lat="49.36852" lon="-1.07641">
        <ele>14.4</ele>
        <time>2020-06-16T10:49:58Z</time>
      </trkpt>
      <trkpt lat="49.36851" lon="-1.07642">
        <ele>14.4</ele>
        <time>2020-06-16T10:49:59Z</time>
      </trkpt>
      <trkpt lat="49.36851" lon="-1.07642">
        <ele>14.4</ele>
        <time>2020-06-16T10:50:00Z</time>
      </trkpt>
      <trkpt lat="49.36852" lon="-1.07643">
        <ele>14.4</ele>
        <time>2020-06-16T10:50:01Z</time>
      </trkpt>
      <trkpt lat="49.36853" lon="-1.07641">
        <ele>14.4</ele>
        <time>2020-06-16T10:59:38Z</time>
      </trkpt>
      <trkpt lat="49.36852" lon="-1.07641">
        <ele>14.4</ele>
        <time>2020-06-16T10:59:39Z</time>
      </trkpt>
      <trkpt lat="49.36853" lon="-1.0764">
        <ele>14.4</ele>
        <time>2020-06-16T10:59:40Z</time>
      </trkpt>
      <trkpt lat="49.36853" lon="-1.0764">
        <ele>14.4</ele>
        <time>2020-06-16T10:59:41Z</time>
      </trkpt>
      <trkpt lat="49.36853" lon="-1.0764">
        <ele>14.4</ele>
        <time>2020-06-16T10:59:42Z</time>
      </trkpt>
      <trkpt lat="49.36853" lon="-1.0764">
        <ele>14.4</ele>
        <time>2020-06-16T10:59:43Z</time>
      </trkpt>
      <trkpt lat="49.36853" lon="-1.07641">
        <ele>14.4</ele>
        <time>2020-06-16T10:59:44Z</time>
      </trkpt>
      <trkpt lat="49.36853" lon="-1.0764">
        <ele>14.4</ele>
        <time>2020-06-16T10:59:45Z</time>
      </trkpt>
      <trkpt lat="49.36853" lon="-1.0764">
        <ele>14.4</ele>
        <time>2020-06-16T10:59:46Z</time>
      </trkpt>
      <trkpt lat="49.36853" lon="-1.0764">
        <ele>14.4</ele>
        <time>2020-06-16T10:59:47Z</time>
      </trkpt>
      <trkpt lat="49.36853" lon="-1.0764">
        <ele>14.4</ele>
        <time>2020-06-16T10:59:48Z</time>
      </trkpt>
      <trkpt lat="49.36853" lon="-1.0764">
        <ele>14.4</ele>
        <time>2020-06-16T10:59:49Z</time>
      </trkpt>
      <trkpt lat="49.36853" lon="-1.0764">
        <ele>14.4</ele>
        <time>2020-06-16T10:59:50Z</time>
      </trkpt>
      <trkpt lat="49.36848" lon="-1.07641">
        <ele>14.4</ele>
        <time>2020-06-16T11:00:07Z</time>
      </trkpt>
      <trkpt lat="49.36848" lon="-1.07641">
        <ele>14.4</ele>
        <time>2020-06-16T11:00:08Z</time>
      </trkpt>
      <trkpt lat="49.36848" lon="-1.07641">
        <ele>14.4</ele>
        <time>2020-06-16T11:00:09Z</time>
      </trkpt>
      <trkpt lat="49.36848" lon="-1.07641">
        <ele>14.4</ele>
        <time>2020-06-16T11:00:10Z</time>
      </trkpt>
      <trkpt lat="49.36849" lon="-1.07642">
        <ele>14.4</ele>
        <time>2020-06-16T11:00:11Z</time>
      </trkpt>
      <trkpt lat="49.36849" lon="-1.07642">
        <ele>14.4</ele>
        <time>2020-06-16T11:00:12Z</time>
      </trkpt>
      <trkpt lat="49.36848" lon="-1.07642">
        <ele>14.4</ele>
        <time>2020-06-16T11:00:13Z</time>
      </trkpt>
      <trkpt lat="49.36848" lon="-1.07642">
        <ele>14.4</ele>
        <time>2020-06-16T11:00:14Z</time>
      </trkpt>
      <trkpt lat="49.36849" lon="-1.07642">
        <ele>14.4</ele>
        <time>2020-06-16T11:00:15Z</time>
      </trkpt>
      <trkpt lat="49.36849" lon="-1.07642">
        <ele>14.4</ele>
        <time>2020-06-16T11:00:16Z</time>
      </trkpt>
      <trkpt lat="49.36848" lon="-1.07642">
        <ele>14.4</ele>
        <time>2020-06-16T11:00:17Z</time>
      </trkpt>
      <trkpt lat="49.36849" lon="-1.07642">
        <ele>14.4</ele>
        <time>2020-06-16T11:00:18Z</time>
      </trkpt>
      <trkpt lat="49.36849" lon="-1.07643">
        <ele>14.4</ele>
        <time>2020-06-16T11:00:19Z</time>
      </trkpt>
      <trkpt lat="49.36848" lon="-1.07643">
        <ele>14.4</ele>
        <time>2020-06-16T11:00:20Z</time>
      </trkpt>
      <trkpt lat="49.36848" lon="-1.07643">
        <ele>14.4</ele>
        <time>2020-06-16T11:00:21Z</time>
      </trkpt>
      <trkpt lat="49.36847" lon="-1.07643">
        <ele>14.4</ele>
        <time>2020-06-16T11:00:22Z</time>
      </trkpt>
      <trkpt lat="49.36847" lon="-1.07643">
        <ele>14.4</ele>
        <time>2020-06-16T11:00:23Z</time>
      </trkpt>
      <trkpt lat="49.36847" lon="-1.07643">
        <ele>14.4</ele>
        <time>2020-06-16T11:00:24Z</time>
      </trkpt>
      <trkpt lat="49.36847" lon="-1.07643">
        <ele>14.4</ele>
        <time>2020-06-16T11:00:25Z</time>
      </trkpt>
      <trkpt lat="49.36847" lon="-1.07643">
        <ele>14.4</ele>
        <time>2020-06-16T11:00:26Z</time>
      </trkpt>
      <trkpt lat="49.36847" lon="-1.07643">
        <ele>14.4</ele>
        <time>2020-06-16T11:00:27Z</time>
      </trkpt>
      <trkpt lat="49.36848" lon="-1.07643">
        <ele>14.4</ele>
        <time>2020-06-16T11:00:28Z</time>
      </trkpt>
      <trkpt lat="49.36848" lon="-1.07643">
        <ele>14.4</ele>
        <time>2020-06-16T11:00:29Z</time>
      </trkpt>
      <trkpt lat="49.36848" lon="-1.07644">
        <ele>14.4</ele>
        <time>2020-06-16T11:00:30Z</time>
      </trkpt>
      <trkpt lat="49.36848" lon="-1.07644">
        <ele>14.4</ele>
        <time>2020-06-16T11:00:31Z</time>
      </trkpt>
      <trkpt lat="49.36848" lon="-1.07644">
        <ele>14.4</ele>
        <time>2020-06-16T11:00:32Z</time>
      </trkpt>
      <trkpt lat="49.36848" lon="-1.07644">
        <ele>14.4</ele>
        <time>2020-06-16T11:00:33Z</time>
      </trkpt>
      <trkpt lat="49.36848" lon="-1.07644">
        <ele>14.4</ele>
        <time>2020-06-16T11:00:34Z</time>
      </trkpt>
      <trkpt lat="49.36848" lon="-1.07644">
        <ele>14.4</ele>
        <time>2020-06-16T11:00:35Z</time>
      </trkpt>
      <trkpt lat="49.36847" lon="-1.07644">
        <ele>14.4</ele>
        <time>2020-06-16T11:00:36Z</time>
      </trkpt>
      <trkpt lat="49.3685" lon="-1.07647">
        <ele>14.4</ele>
        <time>2020-06-16T11:03:23Z</time>
      </trkpt>
      <trkpt lat="49.36849" lon="-1.07647">
        <ele>14.4</ele>
        <time>2020-06-16T11:03:24Z</time>
      </trkpt>
      <trkpt lat="49.36849" lon="-1.07647">
        <ele>14.4</ele>
        <time>2020-06-16T11:03:25Z</time>
      </trkpt>
      <trkpt lat="49.36849" lon="-1.07647">
        <ele>14.4</ele>
        <time>2020-06-16T11:03:26Z</time>
      </trkpt>
      <trkpt lat="49.36849" lon="-1.07647">
        <ele>14.4</ele>
        <time>2020-06-16T11:03:27Z</time>
      </trkpt>
      <trkpt lat="49.36849" lon="-1.07647">
        <ele>14.4</ele>
        <time>2020-06-16T11:03:28Z</time>
      </trkpt>
      <trkpt lat="49.36849" lon="-1.07647">
        <ele>14.4</ele>
        <time>2020-06-16T11:03:29Z</time>
      </trkpt>
      <trkpt lat="49.36849" lon="-1.07648">
        <ele>14.4</ele>
        <time>2020-06-16T11:03:30Z</time>
      </trkpt>
      <trkpt lat="49.36849" lon="-1.07648">
        <ele>14.4</ele>
        <time>2020-06-16T11:03:31Z</time>
      </trkpt>
      <trkpt lat="49.36849" lon="-1.07648">
        <ele>14.4</ele>
        <time>2020-06-16T11:03:32Z</time>
      </trkpt>
      <trkpt lat="49.36849" lon="-1.07648">
        <ele>14.4</ele>
        <time>2020-06-16T11:03:33Z</time>
      </trkpt>
      <trkpt lat="49.36849" lon="-1.07648">
        <ele>14.4</ele>
        <time>2020-06-16T11:03:34Z</time>
      </trkpt>
      <trkpt lat="49.36849" lon="-1.07648">
        <ele>14.4</ele>
        <time>2020-06-16T11:03:35Z</time>
      </trkpt>
      <trkpt lat="49.36849" lon="-1.07648">
        <ele>14.4</ele>
        <time>2020-06-16T11:03:36Z</time>
      </trkpt>
      <trkpt lat="49.36849" lon="-1.07648">
        <ele>14.4</ele>
        <time>2020-06-16T11:03:37Z</time>
      </trkpt>
      <trkpt lat="49.3685" lon="-1.07648">
        <ele>14.4</ele>
        <time>2020-06-16T11:03:38Z</time>
      </trkpt>
      <trkpt lat="49.3685" lon="-1.07648">
        <ele>14.4</ele>
        <time>2020-06-16T11:03:39Z</time>
      </trkpt>
      <trkpt lat="49.3685" lon="-1.07648">
        <ele>14.4</ele>
        <time>2020-06-16T11:03:40Z</time>
      </trkpt>
      <trkpt lat="49.3685" lon="-1.07648">
        <ele>14.4</ele>
        <time>2020-06-16T11:03:41Z</time>
      </trkpt>
      <trkpt lat="49.3685" lon="-1.07648">
        <ele>14.4</ele>
        <time>2020-06-16T11:03:42Z</time>
      </trkpt>
      <trkpt lat="49.36861" lon="-1.07636">
        <ele>14.4</ele>
        <time>2020-06-16T11:04:49Z</time>
      </trkpt>
      <trkpt lat="49.36862" lon="-1.07636">
        <ele>14.4</ele>
        <time>2020-06-16T11:04:50Z</time>
      </trkpt>
      <trkpt lat="49.36863" lon="-1.07636">
        <ele>14.5</ele>
        <time>2020-06-16T11:04:51Z</time>
      </trkpt>
      <trkpt lat="49.36863" lon="-1.07635">
        <ele>14.5</ele>
        <time>2020-06-16T11:04:52Z</time>
      </trkpt>
      <trkpt lat="49.36863" lon="-1.07635">
        <ele>14.5</ele>
        <time>2020-06-16T11:04:53Z</time>
      </trkpt>
      <trkpt lat="49.36862" lon="-1.07635">
        <ele>14.5</ele>
        <time>2020-06-16T11:04:54Z</time>
      </trkpt>
      <trkpt lat="49.36862" lon="-1.07635">
        <ele>14.5</ele>
        <time>2020-06-16T11:04:55Z</time>
      </trkpt>
      <trkpt lat="49.36862" lon="-1.07635">
        <ele>14.5</ele>
        <time>2020-06-16T11:04:56Z</time>
      </trkpt>
      <trkpt lat="49.36862" lon="-1.07635">
        <ele>14.5</ele>
        <time>2020-06-16T11:04:57Z</time>
      </trkpt>
      <trkpt lat="49.36861" lon="-1.07635">
        <ele>14.5</ele>
        <time>2020-06-16T11:04:58Z</time>
      </trkpt>
      <trkpt lat="49.36861" lon="-1.07635">
        <ele>14.5</ele>
        <time>2020-06-16T11:04:59Z</time>
      </trkpt>
      <trkpt lat="49.36861" lon="-1.07635">
        <ele>14.5</ele>
        <time>2020-06-16T11:05:00Z</time>
      </trkpt>
      <trkpt lat="49.36861" lon="-1.07635">
        <ele>14.5</ele>
        <time>2020-06-16T11:05:01Z</time>
      </trkpt>
      <trkpt lat="49.36861" lon="-1.07635">
        <ele>14.5</ele>
        <time>2020-06-16T11:05:02Z</time>
      </trkpt>
      <trkpt lat="49.36851" lon="-1.07638">
        <ele>14.4</ele>
        <time>2020-06-16T11:06:14Z</time>
      </trkpt>
      <trkpt lat="49.3685" lon="-1.07638">
        <ele>14.4</ele>
        <time>2020-06-16T11:06:15Z</time>
      </trkpt>
      <trkpt lat="49.3685" lon="-1.07638">
        <ele>14.4</ele>
        <time>2020-06-16T11:06:16Z</time>
      </trkpt>
      <trkpt lat="49.3685" lon="-1.07638">
        <ele>14.4</ele>
        <time>2020-06-16T11:06:17Z</time>
      </trkpt>
      <trkpt lat="49.3685" lon="-1.07638">
        <ele>14.4</ele>
        <time>2020-06-16T11:06:18Z</time>
      </trkpt>
      <trkpt lat="49.3685" lon="-1.07638">
        <ele>14.4</ele>
        <time>2020-06-16T11:06:19Z</time>
      </trkpt>
      <trkpt lat="49.3685" lon="-1.07638">
        <ele>14.4</ele>
        <time>2020-06-16T11:06:20Z</time>
      </trkpt>
      <trkpt lat="49.3685" lon="-1.07638">
        <ele>14.4</ele>
        <time>2020-06-16T11:06:21Z</time>
      </trkpt>
      <trkpt lat="49.36851" lon="-1.07638">
        <ele>14.4</ele>
        <time>2020-06-16T11:06:22Z</time>
      </trkpt>
      <trkpt lat="49.3685" lon="-1.07638">
        <ele>14.4</ele>
        <time>2020-06-16T11:06:23Z</time>
      </trkpt>
      <trkpt lat="49.3685" lon="-1.07637">
        <ele>14.4</ele>
        <time>2020-06-16T11:06:24Z</time>
      </trkpt>
      <trkpt lat="49.36849" lon="-1.07636">
        <ele>14.4</ele>
        <time>2020-06-16T11:06:25Z</time>
      </trkpt>
      <trkpt lat="49.36849" lon="-1.07635">
        <ele>14.5</ele>
        <time>2020-06-16T11:06:26Z</time>
      </trkpt>
      <trkpt lat="49.36849" lon="-1.07634">
        <ele>14.5</ele>
        <time>2020-06-16T11:06:27Z</time>
      </trkpt>
      <trkpt lat="49.36849" lon="-1.07633">
        <ele>14.5</ele>
        <time>2020-06-16T11:06:28Z</time>
      </trkpt>
      <trkpt lat="49.36849" lon="-1.07632">
        <ele>14.5</ele>
        <time>2020-06-16T11:06:29Z</time>
      </trkpt>
      <trkpt lat="49.36849" lon="-1.07632">
        <ele>14.5</ele>
        <time>2020-06-16T11:06:30Z</time>
      </trkpt>
      <trkpt lat="49.3685" lon="-1.07632">
        <ele>14.5</ele>
        <time>2020-06-16T11:06:31Z</time>
      </trkpt>
      <trkpt lat="49.3685" lon="-1.07632">
        <ele>14.5</ele>
        <time>2020-06-16T11:06:32Z</time>
      </trkpt>
      <trkpt lat="49.3685" lon="-1.07632">
        <ele>14.5</ele>
        <time>2020-06-16T11:06:33Z</time>
      </trkpt>
      <trkpt lat="49.3685" lon="-1.07632">
        <ele>14.5</ele>
        <time>2020-06-16T11:06:34Z</time>
      </trkpt>
      <trkpt lat="49.3685" lon="-1.07632">
        <ele>14.5</ele>
        <time>2020-06-16T11:06:35Z</time>
      </trkpt>
      <trkpt lat="49.3685" lon="-1.07632">
        <ele>14.5</ele>
        <time>2020-06-16T11:06:36Z</time>
      </trkpt>
      <trkpt lat="49.3685" lon="-1.07632">
        <ele>14.5</ele>
        <time>2020-06-16T11:06:37Z</time>
      </trkpt>
      <trkpt lat="49.36849" lon="-1.07633">
        <ele>14.5</ele>
        <time>2020-06-16T11:06:38Z</time>
      </trkpt>
      <trkpt lat="49.36849" lon="-1.07633">
        <ele>14.5</ele>
        <time>2020-06-16T11:06:39Z</time>
      </trkpt>
      <trkpt lat="49.36849" lon="-1.07633">
        <ele>14.5</ele>
        <time>2020-06-16T11:06:40Z</time>
      </trkpt>
      <trkpt lat="49.3685" lon="-1.07634">
        <ele>14.5</ele>
        <time>2020-06-16T11:06:41Z</time>
      </trkpt>
      <trkpt lat="49.3685" lon="-1.07634">
        <ele>14.5</ele>
        <time>2020-06-16T11:06:42Z</time>
      </trkpt>
      <trkpt lat="49.3685" lon="-1.07634">
        <ele>14.5</ele>
        <time>2020-06-16T11:06:43Z</time>
      </trkpt>
      <trkpt lat="49.3685" lon="-1.07634">
        <ele>14.5</ele>
        <time>2020-06-16T11:06:44Z</time>
      </trkpt>
      <trkpt lat="49.3685" lon="-1.07634">
        <ele>14.5</ele>
        <time>2020-06-16T11:06:45Z</time>
      </trkpt>
      <trkpt lat="49.36854" lon="-1.07632">
        <ele>14.5</ele>
        <time>2020-06-16T11:10:20Z</time>
      </trkpt>
      <trkpt lat="49.36854" lon="-1.07632">
        <ele>14.5</ele>
        <time>2020-06-16T11:10:21Z</time>
      </trkpt>
      <trkpt lat="49.36854" lon="-1.07632">
        <ele>14.5</ele>
        <time>2020-06-16T11:10:22Z</time>
      </trkpt>
      <trkpt lat="49.36854" lon="-1.07632">
        <ele>14.5</ele>
        <time>2020-06-16T11:10:23Z</time>
      </trkpt>
      <trkpt lat="49.36854" lon="-1.07633">
        <ele>14.5</ele>
        <time>2020-06-16T11:10:24Z</time>
      </trkpt>
      <trkpt lat="49.36854" lon="-1.07632">
        <ele>14.5</ele>
        <time>2020-06-16T11:10:25Z</time>
      </trkpt>
      <trkpt lat="49.36855" lon="-1.07632">
        <ele>14.5</ele>
        <time>2020-06-16T11:10:26Z</time>
      </trkpt>
      <trkpt lat="49.36854" lon="-1.07631">
        <ele>14.5</ele>
        <time>2020-06-16T11:10:27Z</time>
      </trkpt>
      <trkpt lat="49.36854" lon="-1.07631">
        <ele>14.5</ele>
        <time>2020-06-16T11:10:28Z</time>
      </trkpt>
      <trkpt lat="49.36854" lon="-1.0763">
        <ele>14.5</ele>
        <time>2020-06-16T11:10:29Z</time>
      </trkpt>
      <trkpt lat="49.36854" lon="-1.0763">
        <ele>14.5</ele>
        <time>2020-06-16T11:10:30Z</time>
      </trkpt>
      <trkpt lat="49.36854" lon="-1.07631">
        <ele>14.5</ele>
        <time>2020-06-16T11:10:31Z</time>
      </trkpt>
      <trkpt lat="49.36854" lon="-1.0763">
        <ele>14.5</ele>
        <time>2020-06-16T11:10:32Z</time>
      </trkpt>
      <trkpt lat="49.36854" lon="-1.0763">
        <ele>14.5</ele>
        <time>2020-06-16T11:10:33Z</time>
      </trkpt>
      <trkpt lat="49.36854" lon="-1.0763">
        <ele>14.5</ele>
        <time>2020-06-16T11:10:34Z</time>
      </trkpt>
      <trkpt lat="49.36854" lon="-1.0763">
        <ele>14.5</ele>
        <time>2020-06-16T11:10:35Z</time>
      </trkpt>
      <trkpt lat="49.36854" lon="-1.07629">
        <ele>14.5</ele>
        <time>2020-06-16T11:10:36Z</time>
      </trkpt>
      <trkpt lat="49.36841" lon="-1.07638">
        <ele>14.4</ele>
        <time>2020-06-16T11:11:24Z</time>
      </trkpt>
      <trkpt lat="49.36841" lon="-1.07639">
        <ele>14.4</ele>
        <time>2020-06-16T11:11:25Z</time>
      </trkpt>
      <trkpt lat="49.36841" lon="-1.07639">
        <ele>14.4</ele>
        <time>2020-06-16T11:11:26Z</time>
      </trkpt>
      <trkpt lat="49.36841" lon="-1.0764">
        <ele>14.4</ele>
        <time>2020-06-16T11:11:27Z</time>
      </trkpt>
      <trkpt lat="49.3684" lon="-1.07641">
        <ele>14.4</ele>
        <time>2020-06-16T11:11:28Z</time>
      </trkpt>
      <trkpt lat="49.3684" lon="-1.07641">
        <ele>14.4</ele>
        <time>2020-06-16T11:11:29Z</time>
      </trkpt>
      <trkpt lat="49.36841" lon="-1.07641">
        <ele>14.4</ele>
        <time>2020-06-16T11:11:30Z</time>
      </trkpt>
      <trkpt lat="49.36841" lon="-1.07641">
        <ele>14.4</ele>
        <time>2020-06-16T11:11:31Z</time>
      </trkpt>
      <trkpt lat="49.36841" lon="-1.07641">
        <ele>14.4</ele>
        <time>2020-06-16T11:11:32Z</time>
      </trkpt>
      <trkpt lat="49.36841" lon="-1.07641">
        <ele>14.4</ele>
        <time>2020-06-16T11:11:33Z</time>
      </trkpt>
      <trkpt lat="49.36841" lon="-1.07641">
        <ele>14.4</ele>
        <time>2020-06-16T11:11:34Z</time>
      </trkpt>
      <trkpt lat="49.36842" lon="-1.0764">
        <ele>14.4</ele>
        <time>2020-06-16T11:11:35Z</time>
      </trkpt>
      <trkpt lat="49.36842" lon="-1.0764">
        <ele>14.4</ele>
        <time>2020-06-16T11:11:36Z</time>
      </trkpt>
      <trkpt lat="49.36842" lon="-1.07641">
        <ele>14.4</ele>
        <time>2020-06-16T11:11:37Z</time>
      </trkpt>
      <trkpt lat="49.36842" lon="-1.07641">
        <ele>14.4</ele>
        <time>2020-06-16T11:11:38Z</time>
      </trkpt>
      <trkpt lat="49.36841" lon="-1.07641">
        <ele>14.4</ele>
        <time>2020-06-16T11:11:39Z</time>
      </trkpt>
      <trkpt lat="49.36841" lon="-1.07641">
        <ele>14.4</ele>
        <time>2020-06-16T11:11:40Z</time>
      </trkpt>
      <trkpt lat="49.36841" lon="-1.07641">
        <ele>14.4</ele>
        <time>2020-06-16T11:11:41Z</time>
      </trkpt>
      <trkpt lat="49.36841" lon="-1.07641">
        <ele>14.4</ele>
        <time>2020-06-16T11:11:42Z</time>
      </trkpt>
      <trkpt lat="49.36841" lon="-1.07641">
        <ele>14.4</ele>
        <time>2020-06-16T11:11:43Z</time>
      </trkpt>
      <trkpt lat="49.36841" lon="-1.07641">
        <ele>14.4</ele>
        <time>2020-06-16T11:11:44Z</time>
      </trkpt>
      <trkpt lat="49.36841" lon="-1.07641">
        <ele>14.4</ele>
        <time>2020-06-16T11:11:45Z</time>
      </trkpt>
      <trkpt lat="49.36841" lon="-1.07641">
        <ele>14.4</ele>
        <time>2020-06-16T11:11:46Z</time>
      </trkpt>
      <trkpt lat="49.36841" lon="-1.07641">
        <ele>14.4</ele>
        <time>2020-06-16T11:11:47Z</time>
      </trkpt>
      <trkpt lat="49.36841" lon="-1.07641">
        <ele>14.4</ele>
        <time>2020-06-16T11:11:48Z</time>
      </trkpt>
      <trkpt lat="49.36841" lon="-1.07642">
        <ele>14.4</ele>
        <time>2020-06-16T11:11:49Z</time>
      </trkpt>
      <trkpt lat="49.36844" lon="-1.07639">
        <ele>14.4</ele>
        <time>2020-06-16T11:12:00Z</time>
      </trkpt>
      <trkpt lat="49.36845" lon="-1.07638">
        <ele>14.4</ele>
        <time>2020-06-16T11:12:01Z</time>
      </trkpt>
      <trkpt lat="49.36845" lon="-1.07639">
        <ele>14.4</ele>
        <time>2020-06-16T11:12:02Z</time>
      </trkpt>
      <trkpt lat="49.36845" lon="-1.07639">
        <ele>14.4</ele>
        <time>2020-06-16T11:12:03Z</time>
      </trkpt>
      <trkpt lat="49.36845" lon="-1.07639">
        <ele>14.4</ele>
        <time>2020-06-16T11:12:04Z</time>
      </trkpt>
      <trkpt lat="49.36845" lon="-1.07639">
        <ele>14.4</ele>
        <time>2020-06-16T11:12:05Z</time>
      </trkpt>
      <trkpt lat="49.36845" lon="-1.07639">
        <ele>14.4</ele>
        <time>2020-06-16T11:12:06Z</time>
      </trkpt>
      <trkpt lat="49.36845" lon="-1.07639">
        <ele>14.4</ele>
        <time>2020-06-16T11:12:07Z</time>
      </trkpt>
      <trkpt lat="49.36845" lon="-1.07639">
        <ele>14.4</ele>
        <time>2020-06-16T11:12:08Z</time>
      </trkpt>
      <trkpt lat="49.36845" lon="-1.07639">
        <ele>14.4</ele>
        <time>2020-06-16T11:12:09Z</time>
      </trkpt>
      <trkpt lat="49.36845" lon="-1.07639">
        <ele>14.4</ele>
        <time>2020-06-16T11:12:10Z</time>
      </trkpt>
      <trkpt lat="49.36845" lon="-1.07639">
        <ele>14.4</ele>
        <time>2020-06-16T11:12:11Z</time>
      </trkpt>
      <trkpt lat="49.36845" lon="-1.07639">
        <ele>14.4</ele>
        <time>2020-06-16T11:12:12Z</time>
      </trkpt>
      <trkpt lat="49.36845" lon="-1.07639">
        <ele>14.4</ele>
        <time>2020-06-16T11:12:13Z</time>
      </trkpt>
      <trkpt lat="49.3684" lon="-1.07638">
        <ele>14.4</ele>
        <time>2020-06-16T11:14:11Z</time>
      </trkpt>
      <trkpt lat="49.36839" lon="-1.07639">
        <ele>14.4</ele>
        <time>2020-06-16T11:14:12Z</time>
      </trkpt>
      <trkpt lat="49.3684" lon="-1.0764">
        <ele>14.4</ele>
        <time>2020-06-16T11:14:13Z</time>
      </trkpt>
      <trkpt lat="49.3684" lon="-1.07641">
        <ele>14.4</ele>
        <time>2020-06-16T11:14:14Z</time>
      </trkpt>
      <trkpt lat="49.36839" lon="-1.07642">
        <ele>14.4</ele>
        <time>2020-06-16T11:14:15Z</time>
      </trkpt>
      <trkpt lat="49.36839" lon="-1.07643">
        <ele>14.4</ele>
        <time>2020-06-16T11:14:16Z</time>
      </trkpt>
      <trkpt lat="49.36838" lon="-1.07643">
        <ele>14.4</ele>
        <time>2020-06-16T11:14:17Z</time>
      </trkpt>
      <trkpt lat="49.36838" lon="-1.07644">
        <ele>14.4</ele>
        <time>2020-06-16T11:14:18Z</time>
      </trkpt>
      <trkpt lat="49.36837" lon="-1.07644">
        <ele>14.4</ele>
        <time>2020-06-16T11:14:19Z</time>
      </trkpt>
      <trkpt lat="49.36836" lon="-1.07644">
        <ele>14.4</ele>
        <time>2020-06-16T11:14:20Z</time>
      </trkpt>
      <trkpt lat="49.36835" lon="-1.07645">
        <ele>14.3</ele>
        <time>2020-06-16T11:14:21Z</time>
      </trkpt>
      <trkpt lat="49.36834" lon="-1.07645">
        <ele>14.3</ele>
        <time>2020-06-16T11:14:22Z</time>
      </trkpt>
      <trkpt lat="49.36833" lon="-1.07646">
        <ele>14.3</ele>
        <time>2020-06-16T11:14:23Z</time>
      </trkpt>
      <trkpt lat="49.36833" lon="-1.07646">
        <ele>14.3</ele>
        <time>2020-06-16T11:14:24Z</time>
      </trkpt>
      <trkpt lat="49.36832" lon="-1.07647">
        <ele>14.3</ele>
        <time>2020-06-16T11:14:25Z</time>
      </trkpt>
      <trkpt lat="49.36832" lon="-1.07647">
        <ele>14.3</ele>
        <time>2020-06-16T11:14:26Z</time>
      </trkpt>
      <trkpt lat="49.36832" lon="-1.07647">
        <ele>14.3</ele>
        <time>2020-06-16T11:14:27Z</time>
      </trkpt>
      <trkpt lat="49.36832" lon="-1.07647">
        <ele>14.3</ele>
        <time>2020-06-16T11:14:28Z</time>
      </trkpt>
      <trkpt lat="49.36832" lon="-1.07647">
        <ele>14.3</ele>
        <time>2020-06-16T11:14:29Z</time>
      </trkpt>
      <trkpt lat="49.36832" lon="-1.07647">
        <ele>14.3</ele>
        <time>2020-06-16T11:14:30Z</time>
      </trkpt>
      <trkpt lat="49.36832" lon="-1.07647">
        <ele>14.3</ele>
        <time>2020-06-16T11:14:31Z</time>
      </trkpt>
      <trkpt lat="49.36832" lon="-1.07647">
        <ele>14.3</ele>
        <time>2020-06-16T11:14:32Z</time>
      </trkpt>
      <trkpt lat="49.36832" lon="-1.07647">
        <ele>14.3</ele>
        <time>2020-06-16T11:14:33Z</time>
      </trkpt>
      <trkpt lat="49.36832" lon="-1.07647">
        <ele>14.3</ele>
        <time>2020-06-16T11:14:34Z</time>
      </trkpt>
      <trkpt lat="49.36832" lon="-1.07647">
        <ele>14.3</ele>
        <time>2020-06-16T11:14:35Z</time>
      </trkpt>
      <trkpt lat="49.36831" lon="-1.07646">
        <ele>14.3</ele>
        <time>2020-06-16T11:14:36Z</time>
      </trkpt>
      <trkpt lat="49.36831" lon="-1.07647">
        <ele>14.3</ele>
        <time>2020-06-16T11:14:37Z</time>
      </trkpt>
      <trkpt lat="49.36845" lon="-1.07652">
        <ele>14.3</ele>
        <time>2020-06-16T11:17:28Z</time>
      </trkpt>
      <trkpt lat="49.36845" lon="-1.07652">
        <ele>14.3</ele>
        <time>2020-06-16T11:17:29Z</time>
      </trkpt>
      <trkpt lat="49.36845" lon="-1.07652">
        <ele>14.3</ele>
        <time>2020-06-16T11:17:30Z</time>
      </trkpt>
      <trkpt lat="49.36845" lon="-1.07652">
        <ele>14.3</ele>
        <time>2020-06-16T11:17:31Z</time>
      </trkpt>
      <trkpt lat="49.36845" lon="-1.07652">
        <ele>14.3</ele>
        <time>2020-06-16T11:17:32Z</time>
      </trkpt>
      <trkpt lat="49.36845" lon="-1.07652">
        <ele>14.3</ele>
        <time>2020-06-16T11:17:33Z</time>
      </trkpt>
      <trkpt lat="49.36845" lon="-1.07653">
        <ele>14.3</ele>
        <time>2020-06-16T11:17:34Z</time>
      </trkpt>
      <trkpt lat="49.36846" lon="-1.07653">
        <ele>14.3</ele>
        <time>2020-06-16T11:17:35Z</time>
      </trkpt>
      <trkpt lat="49.36846" lon="-1.07653">
        <ele>14.3</ele>
        <time>2020-06-16T11:17:36Z</time>
      </trkpt>
      <trkpt lat="49.36846" lon="-1.07653">
        <ele>14.3</ele>
        <time>2020-06-16T11:17:37Z</time>
      </trkpt>
      <trkpt lat="49.36846" lon="-1.07653">
        <ele>14.3</ele>
        <time>2020-06-16T11:17:38Z</time>
      </trkpt>
      <trkpt lat="49.36846" lon="-1.07653">
        <ele>14.3</ele>
        <time>2020-06-16T11:17:39Z</time>
      </trkpt>
      <trkpt lat="49.36845" lon="-1.07653">
        <ele>14.3</ele>
        <time>2020-06-16T11:17:40Z</time>
      </trkpt>
      <trkpt lat="49.36845" lon="-1.07653">
        <ele>14.3</ele>
        <time>2020-06-16T11:17:41Z</time>
      </trkpt>
      <trkpt lat="49.36845" lon="-1.07653">
        <ele>14.3</ele>
        <time>2020-06-16T11:17:42Z</time>
      </trkpt>
      <trkpt lat="49.36845" lon="-1.07653">
        <ele>14.3</ele>
        <time>2020-06-16T11:17:43Z</time>
      </trkpt>
      <trkpt lat="49.36845" lon="-1.07653">
        <ele>14.3</ele>
        <time>2020-06-16T11:17:44Z</time>
      </trkpt>
      <trkpt lat="49.36845" lon="-1.07653">
        <ele>14.3</ele>
        <time>2020-06-16T11:17:45Z</time>
      </trkpt>
      <trkpt lat="49.36846" lon="-1.07653">
        <ele>14.3</ele>
        <time>2020-06-16T11:17:46Z</time>
      </trkpt>
      <trkpt lat="49.36845" lon="-1.07653">
        <ele>14.3</ele>
        <time>2020-06-16T11:17:47Z</time>
      </trkpt>
      <trkpt lat="49.36845" lon="-1.07653">
        <ele>14.3</ele>
        <time>2020-06-16T11:17:48Z</time>
      </trkpt>
      <trkpt lat="49.36846" lon="-1.07653">
        <ele>14.3</ele>
        <time>2020-06-16T11:17:49Z</time>
      </trkpt>
      <trkpt lat="49.36846" lon="-1.07653">
        <ele>14.3</ele>
        <time>2020-06-16T11:17:50Z</time>
      </trkpt>
      <trkpt lat="49.36846" lon="-1.07652">
        <ele>14.3</ele>
        <time>2020-06-16T11:17:51Z</time>
      </trkpt>
      <trkpt lat="49.36846" lon="-1.07652">
        <ele>14.3</ele>
        <time>2020-06-16T11:17:52Z</time>
      </trkpt>
      <trkpt lat="49.36846" lon="-1.07652">
        <ele>14.3</ele>
        <time>2020-06-16T11:17:53Z</time>
      </trkpt>
      <trkpt lat="49.36846" lon="-1.07652">
        <ele>14.3</ele>
        <time>2020-06-16T11:17:54Z</time>
      </trkpt>
      <trkpt lat="49.36845" lon="-1.07652">
        <ele>14.3</ele>
        <time>2020-06-16T11:17:55Z</time>
      </trkpt>
      <trkpt lat="49.36845" lon="-1.07652">
        <ele>14.3</ele>
        <time>2020-06-16T11:17:56Z</time>
      </trkpt>
      <trkpt lat="49.36845" lon="-1.07653">
        <ele>14.3</ele>
        <time>2020-06-16T11:17:57Z</time>
      </trkpt>
      <trkpt lat="49.36845" lon="-1.07653">
        <ele>14.3</ele>
        <time>2020-06-16T11:17:58Z</time>
      </trkpt>
      <trkpt lat="49.36844" lon="-1.07653">
        <ele>14.3</ele>
        <time>2020-06-16T11:17:59Z</time>
      </trkpt>
      <trkpt lat="49.36844" lon="-1.07654">
        <ele>14.3</ele>
        <time>2020-06-16T11:18:00Z</time>
      </trkpt>
      <trkpt lat="49.36843" lon="-1.07654">
        <ele>14.3</ele>
        <time>2020-06-16T11:18:01Z</time>
      </trkpt>
      <trkpt lat="49.36843" lon="-1.07654">
        <ele>14.3</ele>
        <time>2020-06-16T11:18:02Z</time>
      </trkpt>
      <trkpt lat="49.36842" lon="-1.07654">
        <ele>14.3</ele>
        <time>2020-06-16T11:18:03Z</time>
      </trkpt>
      <trkpt lat="49.36842" lon="-1.07655">
        <ele>14.3</ele>
        <time>2020-06-16T11:18:04Z</time>
      </trkpt>
      <trkpt lat="49.36842" lon="-1.07655">
        <ele>14.3</ele>
        <time>2020-06-16T11:18:05Z</time>
      </trkpt>
      <trkpt lat="49.36843" lon="-1.07656">
        <ele>14.3</ele>
        <time>2020-06-16T11:18:06Z</time>
      </trkpt>
      <trkpt lat="49.36843" lon="-1.07656">
        <ele>14.3</ele>
        <time>2020-06-16T11:18:07Z</time>
      </trkpt>
      <trkpt lat="49.36843" lon="-1.07656">
        <ele>14.3</ele>
        <time>2020-06-16T11:18:08Z</time>
      </trkpt>
      <trkpt lat="49.36844" lon="-1.07656">
        <ele>14.3</ele>
        <time>2020-06-16T11:18:09Z</time>
      </trkpt>
      <trkpt lat="49.36844" lon="-1.07656">
        <ele>14.3</ele>
        <time>2020-06-16T11:18:10Z</time>
      </trkpt>
      <trkpt lat="49.36844" lon="-1.07656">
        <ele>14.3</ele>
        <time>2020-06-16T11:18:11Z</time>
      </trkpt>
      <trkpt lat="49.36845" lon="-1.07657">
        <ele>14.3</ele>
        <time>2020-06-16T11:18:12Z</time>
      </trkpt>
      <trkpt lat="49.36845" lon="-1.07657">
        <ele>14.3</ele>
        <time>2020-06-16T11:18:13Z</time>
      </trkpt>
      <trkpt lat="49.36845" lon="-1.07657">
        <ele>14.3</ele>
        <time>2020-06-16T11:18:14Z</time>
      </trkpt>
      <trkpt lat="49.36846" lon="-1.07657">
        <ele>14.3</ele>
        <time>2020-06-16T11:18:15Z</time>
      </trkpt>
      <trkpt lat="49.36846" lon="-1.07657">
        <ele>14.3</ele>
        <time>2020-06-16T11:18:16Z</time>
      </trkpt>
      <trkpt lat="49.36846" lon="-1.07658">
        <ele>14.2</ele>
        <time>2020-06-16T11:18:17Z</time>
      </trkpt>
      <trkpt lat="49.36846" lon="-1.07658">
        <ele>14.2</ele>
        <time>2020-06-16T11:18:18Z</time>
      </trkpt>
      <trkpt lat="49.36848" lon="-1.07658">
        <ele>14.2</ele>
        <time>2020-06-16T11:18:19Z</time>
      </trkpt>
      <trkpt lat="49.36849" lon="-1.07659">
        <ele>14.2</ele>
        <time>2020-06-16T11:18:20Z</time>
      </trkpt>
      <trkpt lat="49.36849" lon="-1.07659">
        <ele>14.2</ele>
        <time>2020-06-16T11:18:21Z</time>
      </trkpt>
      <trkpt lat="49.36851" lon="-1.0766">
        <ele>14.2</ele>
        <time>2020-06-16T11:18:22Z</time>
      </trkpt>
      <trkpt lat="49.36853" lon="-1.0766">
        <ele>14.2</ele>
        <time>2020-06-16T11:18:23Z</time>
      </trkpt>
      <trkpt lat="49.36854" lon="-1.07661">
        <ele>14.2</ele>
        <time>2020-06-16T11:18:24Z</time>
      </trkpt>
      <trkpt lat="49.36855" lon="-1.07661">
        <ele>14.2</ele>
        <time>2020-06-16T11:18:25Z</time>
      </trkpt>
      <trkpt lat="49.36855" lon="-1.07661">
        <ele>14.2</ele>
        <time>2020-06-16T11:18:26Z</time>
      </trkpt>
      <trkpt lat="49.36856" lon="-1.07662">
        <ele>14.2</ele>
        <time>2020-06-16T11:18:27Z</time>
      </trkpt>
      <trkpt lat="49.36857" lon="-1.07662">
        <ele>14.2</ele>
        <time>2020-06-16T11:18:28Z</time>
      </trkpt>
      <trkpt lat="49.36857" lon="-1.07662">
        <ele>14.2</ele>
        <time>2020-06-16T11:18:29Z</time>
      </trkpt>
      <trkpt lat="49.36858" lon="-1.07662">
        <ele>14.2</ele>
        <time>2020-06-16T11:18:30Z</time>
      </trkpt>
      <trkpt lat="49.36859" lon="-1.07663">
        <ele>14.2</ele>
        <time>2020-06-16T11:18:31Z</time>
      </trkpt>
      <trkpt lat="49.36859" lon="-1.07663">
        <ele>14.2</ele>
        <time>2020-06-16T11:18:32Z</time>
      </trkpt>
      <trkpt lat="49.3686" lon="-1.07663">
        <ele>14.2</ele>
        <time>2020-06-16T11:18:33Z</time>
      </trkpt>
      <trkpt lat="49.36861" lon="-1.07663">
        <ele>14.2</ele>
        <time>2020-06-16T11:18:34Z</time>
      </trkpt>
      <trkpt lat="49.36861" lon="-1.07663">
        <ele>14.2</ele>
        <time>2020-06-16T11:18:35Z</time>
      </trkpt>
      <trkpt lat="49.36864" lon="-1.07665">
        <ele>14.2</ele>
        <time>2020-06-16T11:18:36Z</time>
      </trkpt>
      <trkpt lat="49.36865" lon="-1.07665">
        <ele>14.2</ele>
        <time>2020-06-16T11:18:37Z</time>
      </trkpt>
      <trkpt lat="49.36866" lon="-1.07666">
        <ele>14.1</ele>
        <time>2020-06-16T11:18:38Z</time>
      </trkpt>
      <trkpt lat="49.36867" lon="-1.07667">
        <ele>14.1</ele>
        <time>2020-06-16T11:18:39Z</time>
      </trkpt>
      <trkpt lat="49.36868" lon="-1.07667">
        <ele>14.1</ele>
        <time>2020-06-16T11:18:40Z</time>
      </trkpt>
      <trkpt lat="49.3687" lon="-1.07667">
        <ele>14.1</ele>
        <time>2020-06-16T11:18:41Z</time>
      </trkpt>
      <trkpt lat="49.36871" lon="-1.07666">
        <ele>14.1</ele>
        <time>2020-06-16T11:18:42Z</time>
      </trkpt>
      <trkpt lat="49.36874" lon="-1.07666">
        <ele>14.2</ele>
        <time>2020-06-16T11:18:43Z</time>
      </trkpt>
      <trkpt lat="49.36875" lon="-1.07666">
        <ele>14.2</ele>
        <time>2020-06-16T11:18:44Z</time>
      </trkpt>
      <trkpt lat="49.36876" lon="-1.07666">
        <ele>14.2</ele>
        <time>2020-06-16T11:18:45Z</time>
      </trkpt>
      <trkpt lat="49.36877" lon="-1.07665">
        <ele>14.2</ele>
        <time>2020-06-16T11:18:46Z</time>
      </trkpt>
      <trkpt lat="49.36879" lon="-1.07665">
        <ele>14.2</ele>
        <time>2020-06-16T11:18:47Z</time>
      </trkpt>
      <trkpt lat="49.3688" lon="-1.07665">
        <ele>14.2</ele>
        <time>2020-06-16T11:18:48Z</time>
      </trkpt>
      <trkpt lat="49.36882" lon="-1.07665">
        <ele>14.2</ele>
        <time>2020-06-16T11:18:49Z</time>
      </trkpt>
      <trkpt lat="49.36883" lon="-1.07665">
        <ele>14.2</ele>
        <time>2020-06-16T11:18:50Z</time>
      </trkpt>
      <trkpt lat="49.36883" lon="-1.07665">
        <ele>14.2</ele>
        <time>2020-06-16T11:18:51Z</time>
      </trkpt>
      <trkpt lat="49.36885" lon="-1.07665">
        <ele>14.2</ele>
        <time>2020-06-16T11:18:52Z</time>
      </trkpt>
      <trkpt lat="49.36885" lon="-1.07665">
        <ele>14.1</ele>
        <time>2020-06-16T11:18:53Z</time>
      </trkpt>
      <trkpt lat="49.36886" lon="-1.07665">
        <ele>14.1</ele>
        <time>2020-06-16T11:18:54Z</time>
      </trkpt>
      <trkpt lat="49.36886" lon="-1.07665">
        <ele>14.1</ele>
        <time>2020-06-16T11:18:55Z</time>
      </trkpt>
      <trkpt lat="49.36887" lon="-1.07665">
        <ele>14.1</ele>
        <time>2020-06-16T11:18:56Z</time>
      </trkpt>
      <trkpt lat="49.36887" lon="-1.07665">
        <ele>14.1</ele>
        <time>2020-06-16T11:18:57Z</time>
      </trkpt>
      <trkpt lat="49.36888" lon="-1.07665">
        <ele>14.1</ele>
        <time>2020-06-16T11:18:58Z</time>
      </trkpt>
      <trkpt lat="49.36888" lon="-1.07665">
        <ele>14.1</ele>
        <time>2020-06-16T11:18:59Z</time>
      </trkpt>
      <trkpt lat="49.36887" lon="-1.07665">
        <ele>14.1</ele>
        <time>2020-06-16T11:19:00Z</time>
      </trkpt>
      <trkpt lat="49.36887" lon="-1.07666">
        <ele>14.1</ele>
        <time>2020-06-16T11:19:01Z</time>
      </trkpt>
      <trkpt lat="49.36886" lon="-1.07666">
        <ele>14.1</ele>
        <time>2020-06-16T11:19:02Z</time>
      </trkpt>
      <trkpt lat="49.36885" lon="-1.07666">
        <ele>14.1</ele>
        <time>2020-06-16T11:19:03Z</time>
      </trkpt>
      <trkpt lat="49.36885" lon="-1.07666">
        <ele>14.1</ele>
        <time>2020-06-16T11:19:04Z</time>
      </trkpt>
      <trkpt lat="49.36884" lon="-1.07666">
        <ele>14.2</ele>
        <time>2020-06-16T11:19:05Z</time>
      </trkpt>
      <trkpt lat="49.36883" lon="-1.07666">
        <ele>14.2</ele>
        <time>2020-06-16T11:19:06Z</time>
      </trkpt>
      <trkpt lat="49.36881" lon="-1.07666">
        <ele>14.2</ele>
        <time>2020-06-16T11:19:07Z</time>
      </trkpt>
      <trkpt lat="49.3688" lon="-1.07665">
        <ele>14.2</ele>
        <time>2020-06-16T11:19:08Z</time>
      </trkpt>
      <trkpt lat="49.36879" lon="-1.07665">
        <ele>14.2</ele>
        <time>2020-06-16T11:19:09Z</time>
      </trkpt>
      <trkpt lat="49.36878" lon="-1.07664">
        <ele>14.2</ele>
        <time>2020-06-16T11:19:10Z</time>
      </trkpt>
      <trkpt lat="49.36879" lon="-1.07664">
        <ele>14.2</ele>
        <time>2020-06-16T11:19:11Z</time>
      </trkpt>
      <trkpt lat="49.36879" lon="-1.07664">
        <ele>14.2</ele>
        <time>2020-06-16T11:19:12Z</time>
      </trkpt>
      <trkpt lat="49.36879" lon="-1.07664">
        <ele>14.2</ele>
        <time>2020-06-16T11:19:13Z</time>
      </trkpt>
      <trkpt lat="49.36878" lon="-1.07663">
        <ele>14.2</ele>
        <time>2020-06-16T11:19:14Z</time>
      </trkpt>
      <trkpt lat="49.36879" lon="-1.07663">
        <ele>14.2</ele>
        <time>2020-06-16T11:19:15Z</time>
      </trkpt>
      <trkpt lat="49.3688" lon="-1.07662">
        <ele>14.2</ele>
        <time>2020-06-16T11:19:16Z</time>
      </trkpt>
      <trkpt lat="49.3688" lon="-1.07662">
        <ele>14.2</ele>
        <time>2020-06-16T11:19:17Z</time>
      </trkpt>
      <trkpt lat="49.36882" lon="-1.07662">
        <ele>14.2</ele>
        <time>2020-06-16T11:19:18Z</time>
      </trkpt>
      <trkpt lat="49.36883" lon="-1.07662">
        <ele>14.2</ele>
        <time>2020-06-16T11:19:19Z</time>
      </trkpt>
      <trkpt lat="49.36884" lon="-1.07662">
        <ele>14.2</ele>
        <time>2020-06-16T11:19:20Z</time>
      </trkpt>
      <trkpt lat="49.36884" lon="-1.07662">
        <ele>14.2</ele>
        <time>2020-06-16T11:19:21Z</time>
      </trkpt>
      <trkpt lat="49.36885" lon="-1.07663">
        <ele>14.1</ele>
        <time>2020-06-16T11:19:22Z</time>
      </trkpt>
      <trkpt lat="49.36885" lon="-1.07662">
        <ele>14.1</ele>
        <time>2020-06-16T11:19:23Z</time>
      </trkpt>
      <trkpt lat="49.36885" lon="-1.07662">
        <ele>14.1</ele>
        <time>2020-06-16T11:19:24Z</time>
      </trkpt>
      <trkpt lat="49.36885" lon="-1.07662">
        <ele>14.2</ele>
        <time>2020-06-16T11:19:25Z</time>
      </trkpt>
      <trkpt lat="49.36885" lon="-1.07662">
        <ele>14.2</ele>
        <time>2020-06-16T11:19:26Z</time>
      </trkpt>
      <trkpt lat="49.36885" lon="-1.07662">
        <ele>14.2</ele>
        <time>2020-06-16T11:19:27Z</time>
      </trkpt>
      <trkpt lat="49.36886" lon="-1.07662">
        <ele>14.1</ele>
        <time>2020-06-16T11:19:28Z</time>
      </trkpt>
      <trkpt lat="49.36886" lon="-1.07661">
        <ele>14.2</ele>
        <time>2020-06-16T11:19:29Z</time>
      </trkpt>
      <trkpt lat="49.36885" lon="-1.07662">
        <ele>14.2</ele>
        <time>2020-06-16T11:19:30Z</time>
      </trkpt>
      <trkpt lat="49.36885" lon="-1.07662">
        <ele>14.2</ele>
        <time>2020-06-16T11:19:31Z</time>
      </trkpt>
      <trkpt lat="49.36885" lon="-1.07662">
        <ele>14.1</ele>
        <time>2020-06-16T11:19:32Z</time>
      </trkpt>
      <trkpt lat="49.36885" lon="-1.07661">
        <ele>14.2</ele>
        <time>2020-06-16T11:19:33Z</time>
      </trkpt>
      <trkpt lat="49.36886" lon="-1.07661">
        <ele>14.2</ele>
        <time>2020-06-16T11:19:34Z</time>
      </trkpt>
      <trkpt lat="49.36885" lon="-1.07661">
        <ele>14.2</ele>
        <time>2020-06-16T11:19:35Z</time>
      </trkpt>
      <trkpt lat="49.36884" lon="-1.07661">
        <ele>14.2</ele>
        <time>2020-06-16T11:19:36Z</time>
      </trkpt>
      <trkpt lat="49.36884" lon="-1.0766">
        <ele>14.2</ele>
        <time>2020-06-16T11:19:37Z</time>
      </trkpt>
      <trkpt lat="49.36883" lon="-1.0766">
        <ele>14.2</ele>
        <time>2020-06-16T11:19:38Z</time>
      </trkpt>
      <trkpt lat="49.36883" lon="-1.0766">
        <ele>14.2</ele>
        <time>2020-06-16T11:19:39Z</time>
      </trkpt>
      <trkpt lat="49.3688" lon="-1.0766">
        <ele>14.2</ele>
        <time>2020-06-16T11:19:40Z</time>
      </trkpt>
      <trkpt lat="49.36879" lon="-1.0766">
        <ele>14.2</ele>
        <time>2020-06-16T11:19:41Z</time>
      </trkpt>
      <trkpt lat="49.36878" lon="-1.0766">
        <ele>14.2</ele>
        <time>2020-06-16T11:19:42Z</time>
      </trkpt>
      <trkpt lat="49.36877" lon="-1.0766">
        <ele>14.2</ele>
        <time>2020-06-16T11:19:43Z</time>
      </trkpt>
      <trkpt lat="49.36877" lon="-1.07657">
        <ele>14.2</ele>
        <time>2020-06-16T11:19:44Z</time>
      </trkpt>
      <trkpt lat="49.36876" lon="-1.07655">
        <ele>14.2</ele>
        <time>2020-06-16T11:19:45Z</time>
      </trkpt>
      <trkpt lat="49.36875" lon="-1.07653">
        <ele>14.2</ele>
        <time>2020-06-16T11:19:46Z</time>
      </trkpt>
      <trkpt lat="49.36873" lon="-1.07652">
        <ele>14.3</ele>
        <time>2020-06-16T11:19:47Z</time>
      </trkpt>
      <trkpt lat="49.36871" lon="-1.07652">
        <ele>14.3</ele>
        <time>2020-06-16T11:19:48Z</time>
      </trkpt>
      <trkpt lat="49.36869" lon="-1.0765">
        <ele>14.3</ele>
        <time>2020-06-16T11:19:49Z</time>
      </trkpt>
      <trkpt lat="49.36865" lon="-1.07633">
        <ele>14.5</ele>
        <time>2020-06-16T11:20:17Z</time>
      </trkpt>
      <trkpt lat="49.36866" lon="-1.07632">
        <ele>14.5</ele>
        <time>2020-06-16T11:20:18Z</time>
      </trkpt>
      <trkpt lat="49.36866" lon="-1.07632">
        <ele>14.5</ele>
        <time>2020-06-16T11:20:19Z</time>
      </trkpt>
      <trkpt lat="49.36866" lon="-1.07633">
        <ele>14.5</ele>
        <time>2020-06-16T11:20:20Z</time>
      </trkpt>
      <trkpt lat="49.36865" lon="-1.07634">
        <ele>14.5</ele>
        <time>2020-06-16T11:20:21Z</time>
      </trkpt>
      <trkpt lat="49.36865" lon="-1.07634">
        <ele>14.5</ele>
        <time>2020-06-16T11:20:22Z</time>
      </trkpt>
      <trkpt lat="49.36865" lon="-1.07635">
        <ele>14.5</ele>
        <time>2020-06-16T11:20:23Z</time>
      </trkpt>
      <trkpt lat="49.36866" lon="-1.07635">
        <ele>14.5</ele>
        <time>2020-06-16T11:20:24Z</time>
      </trkpt>
      <trkpt lat="49.36866" lon="-1.07636">
        <ele>14.4</ele>
        <time>2020-06-16T11:20:25Z</time>
      </trkpt>
      <trkpt lat="49.36867" lon="-1.07637">
        <ele>14.4</ele>
        <time>2020-06-16T11:20:26Z</time>
      </trkpt>
      <trkpt lat="49.36867" lon="-1.07636">
        <ele>14.4</ele>
        <time>2020-06-16T11:20:27Z</time>
      </trkpt>
      <trkpt lat="49.36868" lon="-1.07636">
        <ele>14.5</ele>
        <time>2020-06-16T11:20:28Z</time>
      </trkpt>
      <trkpt lat="49.36869" lon="-1.07635">
        <ele>14.5</ele>
        <time>2020-06-16T11:20:29Z</time>
      </trkpt>
      <trkpt lat="49.3687" lon="-1.07633">
        <ele>14.5</ele>
        <time>2020-06-16T11:20:30Z</time>
      </trkpt>
      <trkpt lat="49.36872" lon="-1.07631">
        <ele>14.5</ele>
        <time>2020-06-16T11:20:31Z</time>
      </trkpt>
      <trkpt lat="49.36872" lon="-1.0763">
        <ele>14.5</ele>
        <time>2020-06-16T11:20:32Z</time>
      </trkpt>
      <trkpt lat="49.36873" lon="-1.07629">
        <ele>14.5</ele>
        <time>2020-06-16T11:20:33Z</time>
      </trkpt>
      <trkpt lat="49.36873" lon="-1.07629">
        <ele>14.5</ele>
        <time>2020-06-16T11:20:34Z</time>
      </trkpt>
      <trkpt lat="49.36876" lon="-1.07627">
        <ele>14.6</ele>
        <time>2020-06-16T11:20:35Z</time>
      </trkpt>
      <trkpt lat="49.36877" lon="-1.07626">
        <ele>14.6</ele>
        <time>2020-06-16T11:20:36Z</time>
      </trkpt>
      <trkpt lat="49.36879" lon="-1.07624">
        <ele>14.6</ele>
        <time>2020-06-16T11:20:37Z</time>
      </trkpt>
      <trkpt lat="49.3688" lon="-1.07623">
        <ele>14.6</ele>
        <time>2020-06-16T11:20:38Z</time>
      </trkpt>
      <trkpt lat="49.36883" lon="-1.07621">
        <ele>14.6</ele>
        <time>2020-06-16T11:20:39Z</time>
      </trkpt>
      <trkpt lat="49.36883" lon="-1.0762">
        <ele>14.6</ele>
        <time>2020-06-16T11:20:40Z</time>
      </trkpt>
      <trkpt lat="49.36886" lon="-1.07618">
        <ele>14.7</ele>
        <time>2020-06-16T11:20:41Z</time>
      </trkpt>
      <trkpt lat="49.36887" lon="-1.07617">
        <ele>14.7</ele>
        <time>2020-06-16T11:20:42Z</time>
      </trkpt>
      <trkpt lat="49.36888" lon="-1.07616">
        <ele>14.7</ele>
        <time>2020-06-16T11:20:43Z</time>
      </trkpt>
      <trkpt lat="49.3689" lon="-1.07615">
        <ele>14.7</ele>
        <time>2020-06-16T11:20:44Z</time>
      </trkpt>
      <trkpt lat="49.36893" lon="-1.07612">
        <ele>14.7</ele>
        <time>2020-06-16T11:20:45Z</time>
      </trkpt>
      <trkpt lat="49.36894" lon="-1.07612">
        <ele>14.7</ele>
        <time>2020-06-16T11:20:46Z</time>
      </trkpt>
      <trkpt lat="49.36895" lon="-1.0761">
        <ele>14.7</ele>
        <time>2020-06-16T11:20:47Z</time>
      </trkpt>
      <trkpt lat="49.36897" lon="-1.07609">
        <ele>14.8</ele>
        <time>2020-06-16T11:20:48Z</time>
      </trkpt>
      <trkpt lat="49.36897" lon="-1.07609">
        <ele>14.8</ele>
        <time>2020-06-16T11:20:49Z</time>
      </trkpt>
      <trkpt lat="49.36898" lon="-1.07608">
        <ele>14.8</ele>
        <time>2020-06-16T11:20:50Z</time>
      </trkpt>
      <trkpt lat="49.36899" lon="-1.07608">
        <ele>14.7</ele>
        <time>2020-06-16T11:20:51Z</time>
      </trkpt>
      <trkpt lat="49.36899" lon="-1.07608">
        <ele>14.7</ele>
        <time>2020-06-16T11:20:52Z</time>
      </trkpt>
      <trkpt lat="49.36898" lon="-1.07608">
        <ele>14.8</ele>
        <time>2020-06-16T11:20:53Z</time>
      </trkpt>
      <trkpt lat="49.36897" lon="-1.07609">
        <ele>14.8</ele>
        <time>2020-06-16T11:20:54Z</time>
      </trkpt>
      <trkpt lat="49.36896" lon="-1.07609">
        <ele>14.8</ele>
        <time>2020-06-16T11:20:55Z</time>
      </trkpt>
      <trkpt lat="49.36896" lon="-1.07609">
        <ele>14.8</ele>
        <time>2020-06-16T11:20:56Z</time>
      </trkpt>
      <trkpt lat="49.36893" lon="-1.0761">
        <ele>14.8</ele>
        <time>2020-06-16T11:20:57Z</time>
      </trkpt>
      <trkpt lat="49.36891" lon="-1.07609">
        <ele>14.8</ele>
        <time>2020-06-16T11:20:58Z</time>
      </trkpt>
      <trkpt lat="49.36887" lon="-1.07611">
        <ele>14.7</ele>
        <time>2020-06-16T11:20:59Z</time>
      </trkpt>
      <trkpt lat="49.36885" lon="-1.07611">
        <ele>14.7</ele>
        <time>2020-06-16T11:21:00Z</time>
      </trkpt>
      <trkpt lat="49.36882" lon="-1.07611">
        <ele>14.7</ele>
        <time>2020-06-16T11:21:01Z</time>
      </trkpt>
      <trkpt lat="49.36882" lon="-1.07611">
        <ele>14.7</ele>
        <time>2020-06-16T11:21:02Z</time>
      </trkpt>
      <trkpt lat="49.3688" lon="-1.07612">
        <ele>14.7</ele>
        <time>2020-06-16T11:21:03Z</time>
      </trkpt>
      <trkpt lat="49.36879" lon="-1.07612">
        <ele>14.7</ele>
        <time>2020-06-16T11:21:04Z</time>
      </trkpt>
      <trkpt lat="49.36878" lon="-1.07612">
        <ele>14.7</ele>
        <time>2020-06-16T11:21:05Z</time>
      </trkpt>
      <trkpt lat="49.36877" lon="-1.07613">
        <ele>14.7</ele>
        <time>2020-06-16T11:21:06Z</time>
      </trkpt>
      <trkpt lat="49.36877" lon="-1.07613">
        <ele>14.7</ele>
        <time>2020-06-16T11:21:07Z</time>
      </trkpt>
      <trkpt lat="49.36877" lon="-1.07613">
        <ele>14.7</ele>
        <time>2020-06-16T11:21:08Z</time>
      </trkpt>
      <trkpt lat="49.36876" lon="-1.07612">
        <ele>14.7</ele>
        <time>2020-06-16T11:21:09Z</time>
      </trkpt>
      <trkpt lat="49.36875" lon="-1.07612">
        <ele>14.7</ele>
        <time>2020-06-16T11:21:10Z</time>
      </trkpt>
      <trkpt lat="49.36873" lon="-1.07612">
        <ele>14.7</ele>
        <time>2020-06-16T11:21:11Z</time>
      </trkpt>
      <trkpt lat="49.36872" lon="-1.07611">
        <ele>14.7</ele>
        <time>2020-06-16T11:21:12Z</time>
      </trkpt>
      <trkpt lat="49.36871" lon="-1.07611">
        <ele>14.7</ele>
        <time>2020-06-16T11:21:13Z</time>
      </trkpt>
      <trkpt lat="49.36871" lon="-1.07611">
        <ele>14.7</ele>
        <time>2020-06-16T11:21:14Z</time>
      </trkpt>
      <trkpt lat="49.3687" lon="-1.07612">
        <ele>14.7</ele>
        <time>2020-06-16T11:21:15Z</time>
      </trkpt>
      <trkpt lat="49.3687" lon="-1.07612">
        <ele>14.7</ele>
        <time>2020-06-16T11:21:16Z</time>
      </trkpt>
      <trkpt lat="49.3687" lon="-1.07613">
        <ele>14.7</ele>
        <time>2020-06-16T11:21:17Z</time>
      </trkpt>
      <trkpt lat="49.3687" lon="-1.07613">
        <ele>14.7</ele>
        <time>2020-06-16T11:21:18Z</time>
      </trkpt>
      <trkpt lat="49.3687" lon="-1.07613">
        <ele>14.7</ele>
        <time>2020-06-16T11:21:19Z</time>
      </trkpt>
      <trkpt lat="49.3687" lon="-1.07613">
        <ele>14.7</ele>
        <time>2020-06-16T11:21:20Z</time>
      </trkpt>
      <trkpt lat="49.3687" lon="-1.07613">
        <ele>14.7</ele>
        <time>2020-06-16T11:21:21Z</time>
      </trkpt>
      <trkpt lat="49.3687" lon="-1.07613">
        <ele>14.7</ele>
        <time>2020-06-16T11:21:22Z</time>
      </trkpt>
      <trkpt lat="49.3687" lon="-1.07613">
        <ele>14.7</ele>
        <time>2020-06-16T11:21:23Z</time>
      </trkpt>
      <trkpt lat="49.3687" lon="-1.07613">
        <ele>14.7</ele>
        <time>2020-06-16T11:21:24Z</time>
      </trkpt>
      <trkpt lat="49.3687" lon="-1.07613">
        <ele>14.7</ele>
        <time>2020-06-16T11:21:25Z</time>
      </trkpt>
      <trkpt lat="49.3687" lon="-1.07613">
        <ele>14.7</ele>
        <time>2020-06-16T11:21:26Z</time>
      </trkpt>
      <trkpt lat="49.3687" lon="-1.07613">
        <ele>14.7</ele>
        <time>2020-06-16T11:21:27Z</time>
      </trkpt>
      <trkpt lat="49.3687" lon="-1.07613">
        <ele>14.7</ele>
        <time>2020-06-16T11:21:28Z</time>
      </trkpt>
      <trkpt lat="49.36869" lon="-1.0761">
        <ele>14.8</ele>
        <time>2020-06-16T11:22:11Z</time>
      </trkpt>
      <trkpt lat="49.36869" lon="-1.07611">
        <ele>14.7</ele>
        <time>2020-06-16T11:22:12Z</time>
      </trkpt>
      <trkpt lat="49.36868" lon="-1.07611">
        <ele>14.7</ele>
        <time>2020-06-16T11:22:13Z</time>
      </trkpt>
      <trkpt lat="49.36868" lon="-1.07611">
        <ele>14.7</ele>
        <time>2020-06-16T11:22:14Z</time>
      </trkpt>
      <trkpt lat="49.36869" lon="-1.07611">
        <ele>14.7</ele>
        <time>2020-06-16T11:22:15Z</time>
      </trkpt>
      <trkpt lat="49.36868" lon="-1.07611">
        <ele>14.7</ele>
        <time>2020-06-16T11:22:16Z</time>
      </trkpt>
      <trkpt lat="49.36868" lon="-1.07611">
        <ele>14.7</ele>
        <time>2020-06-16T11:22:17Z</time>
      </trkpt>
      <trkpt lat="49.36868" lon="-1.07611">
        <ele>14.7</ele>
        <time>2020-06-16T11:22:18Z</time>
      </trkpt>
      <trkpt lat="49.36869" lon="-1.0761">
        <ele>14.7</ele>
        <time>2020-06-16T11:22:19Z</time>
      </trkpt>
      <trkpt lat="49.36869" lon="-1.0761">
        <ele>14.7</ele>
        <time>2020-06-16T11:22:20Z</time>
      </trkpt>
      <trkpt lat="49.36869" lon="-1.0761">
        <ele>14.7</ele>
        <time>2020-06-16T11:22:21Z</time>
      </trkpt>
      <trkpt lat="49.36869" lon="-1.0761">
        <ele>14.7</ele>
        <time>2020-06-16T11:22:22Z</time>
      </trkpt>
      <trkpt lat="49.36869" lon="-1.0761">
        <ele>14.7</ele>
        <time>2020-06-16T11:22:23Z</time>
      </trkpt>
      <trkpt lat="49.36869" lon="-1.0761">
        <ele>14.7</ele>
        <time>2020-06-16T11:22:24Z</time>
      </trkpt>
      <trkpt lat="49.36869" lon="-1.0761">
        <ele>14.7</ele>
        <time>2020-06-16T11:22:25Z</time>
      </trkpt>
      <trkpt lat="49.3685" lon="-1.07643">
        <ele>14.4</ele>
        <time>2020-06-16T11:28:20Z</time>
      </trkpt>
      <trkpt lat="49.36849" lon="-1.07643">
        <ele>14.4</ele>
        <time>2020-06-16T11:28:21Z</time>
      </trkpt>
      <trkpt lat="49.36848" lon="-1.07643">
        <ele>14.4</ele>
        <time>2020-06-16T11:28:22Z</time>
      </trkpt>
      <trkpt lat="49.36846" lon="-1.07642">
        <ele>14.4</ele>
        <time>2020-06-16T11:28:23Z</time>
      </trkpt>
      <trkpt lat="49.36846" lon="-1.07642">
        <ele>14.4</ele>
        <time>2020-06-16T11:28:24Z</time>
      </trkpt>
      <trkpt lat="49.36846" lon="-1.07642">
        <ele>14.4</ele>
        <time>2020-06-16T11:28:25Z</time>
      </trkpt>
      <trkpt lat="49.36845" lon="-1.07641">
        <ele>14.4</ele>
        <time>2020-06-16T11:28:26Z</time>
      </trkpt>
      <trkpt lat="49.36844" lon="-1.07641">
        <ele>14.4</ele>
        <time>2020-06-16T11:28:27Z</time>
      </trkpt>
      <trkpt lat="49.36843" lon="-1.07641">
        <ele>14.4</ele>
        <time>2020-06-16T11:28:28Z</time>
      </trkpt>
      <trkpt lat="49.36844" lon="-1.07641">
        <ele>14.4</ele>
        <time>2020-06-16T11:28:29Z</time>
      </trkpt>
      <trkpt lat="49.36844" lon="-1.07641">
        <ele>14.4</ele>
        <time>2020-06-16T11:28:30Z</time>
      </trkpt>
      <trkpt lat="49.36844" lon="-1.07641">
        <ele>14.4</ele>
        <time>2020-06-16T11:28:31Z</time>
      </trkpt>
      <trkpt lat="49.36843" lon="-1.07641">
        <ele>14.4</ele>
        <time>2020-06-16T11:28:32Z</time>
      </trkpt>
      <trkpt lat="49.36843" lon="-1.07641">
        <ele>14.4</ele>
        <time>2020-06-16T11:28:33Z</time>
      </trkpt>
      <trkpt lat="49.36843" lon="-1.07642">
        <ele>14.4</ele>
        <time>2020-06-16T11:28:34Z</time>
      </trkpt>
      <trkpt lat="49.36843" lon="-1.07642">
        <ele>14.4</ele>
        <time>2020-06-16T11:28:35Z</time>
      </trkpt>
      <trkpt lat="49.36844" lon="-1.07643">
        <ele>14.4</ele>
        <time>2020-06-16T11:28:36Z</time>
      </trkpt>
      <trkpt lat="49.36844" lon="-1.07646">
        <ele>14.4</ele>
        <time>2020-06-16T11:28:37Z</time>
      </trkpt>
      <trkpt lat="49.36844" lon="-1.07647">
        <ele>14.4</ele>
        <time>2020-06-16T11:28:38Z</time>
      </trkpt>
      <trkpt lat="49.36843" lon="-1.07649">
        <ele>14.4</ele>
        <time>2020-06-16T11:28:39Z</time>
      </trkpt>
      <trkpt lat="49.36843" lon="-1.07651">
        <ele>14.3</ele>
        <time>2020-06-16T11:28:40Z</time>
      </trkpt>
      <trkpt lat="49.36843" lon="-1.07653">
        <ele>14.3</ele>
        <time>2020-06-16T11:28:41Z</time>
      </trkpt>
      <trkpt lat="49.36844" lon="-1.07655">
        <ele>14.3</ele>
        <time>2020-06-16T11:28:42Z</time>
      </trkpt>
      <trkpt lat="49.36844" lon="-1.07657">
        <ele>14.3</ele>
        <time>2020-06-16T11:28:43Z</time>
      </trkpt>
      <trkpt lat="49.36844" lon="-1.07657">
        <ele>14.3</ele>
        <time>2020-06-16T11:28:44Z</time>
      </trkpt>
      <trkpt lat="49.36842" lon="-1.07657">
        <ele>14.3</ele>
        <time>2020-06-16T11:28:45Z</time>
      </trkpt>
      <trkpt lat="49.36842" lon="-1.07656">
        <ele>14.3</ele>
        <time>2020-06-16T11:28:46Z</time>
      </trkpt>
      <trkpt lat="49.36841" lon="-1.07656">
        <ele>14.3</ele>
        <time>2020-06-16T11:28:47Z</time>
      </trkpt>
      <trkpt lat="49.36839" lon="-1.07655">
        <ele>14.3</ele>
        <time>2020-06-16T11:28:48Z</time>
      </trkpt>
      <trkpt lat="49.36838" lon="-1.07653">
        <ele>14.3</ele>
        <time>2020-06-16T11:28:49Z</time>
      </trkpt>
      <trkpt lat="49.36836" lon="-1.07653">
        <ele>14.3</ele>
        <time>2020-06-16T11:28:50Z</time>
      </trkpt>
      <trkpt lat="49.36835" lon="-1.07653">
        <ele>14.3</ele>
        <time>2020-06-16T11:28:51Z</time>
      </trkpt>
      <trkpt lat="49.36834" lon="-1.07654">
        <ele>14.3</ele>
        <time>2020-06-16T11:28:52Z</time>
      </trkpt>
      <trkpt lat="49.36833" lon="-1.07654">
        <ele>14.3</ele>
        <time>2020-06-16T11:28:53Z</time>
      </trkpt>
      <trkpt lat="49.36832" lon="-1.07652">
        <ele>14.3</ele>
        <time>2020-06-16T11:28:54Z</time>
      </trkpt>
      <trkpt lat="49.36832" lon="-1.07651">
        <ele>14.3</ele>
        <time>2020-06-16T11:28:55Z</time>
      </trkpt>
      <trkpt lat="49.36832" lon="-1.0765">
        <ele>14.3</ele>
        <time>2020-06-16T11:28:56Z</time>
      </trkpt>
      <trkpt lat="49.36831" lon="-1.07649">
        <ele>14.3</ele>
        <time>2020-06-16T11:28:57Z</time>
      </trkpt>
      <trkpt lat="49.36831" lon="-1.07648">
        <ele>14.3</ele>
        <time>2020-06-16T11:28:58Z</time>
      </trkpt>
      <trkpt lat="49.3683" lon="-1.07647">
        <ele>14.3</ele>
        <time>2020-06-16T11:28:59Z</time>
      </trkpt>
      <trkpt lat="49.36829" lon="-1.07647">
        <ele>14.3</ele>
        <time>2020-06-16T11:29:00Z</time>
      </trkpt>
      <trkpt lat="49.36828" lon="-1.07646">
        <ele>14.3</ele>
        <time>2020-06-16T11:29:01Z</time>
      </trkpt>
      <trkpt lat="49.36827" lon="-1.07645">
        <ele>14.3</ele>
        <time>2020-06-16T11:29:02Z</time>
      </trkpt>
      <trkpt lat="49.36828" lon="-1.07646">
        <ele>14.3</ele>
        <time>2020-06-16T11:29:03Z</time>
      </trkpt>
      <trkpt lat="49.36828" lon="-1.07647">
        <ele>14.3</ele>
        <time>2020-06-16T11:29:04Z</time>
      </trkpt>
      <trkpt lat="49.36829" lon="-1.07647">
        <ele>14.3</ele>
        <time>2020-06-16T11:29:05Z</time>
      </trkpt>
      <trkpt lat="49.36829" lon="-1.07648">
        <ele>14.3</ele>
        <time>2020-06-16T11:29:06Z</time>
      </trkpt>
      <trkpt lat="49.3683" lon="-1.07648">
        <ele>14.3</ele>
        <time>2020-06-16T11:29:07Z</time>
      </trkpt>
      <trkpt lat="49.3683" lon="-1.07649">
        <ele>14.3</ele>
        <time>2020-06-16T11:29:08Z</time>
      </trkpt>
      <trkpt lat="49.36831" lon="-1.0765">
        <ele>14.3</ele>
        <time>2020-06-16T11:29:09Z</time>
      </trkpt>
      <trkpt lat="49.36832" lon="-1.07651">
        <ele>14.3</ele>
        <time>2020-06-16T11:29:10Z</time>
      </trkpt>
      <trkpt lat="49.36832" lon="-1.07654">
        <ele>14.3</ele>
        <time>2020-06-16T11:29:11Z</time>
      </trkpt>
      <trkpt lat="49.36833" lon="-1.07654">
        <ele>14.3</ele>
        <time>2020-06-16T11:29:12Z</time>
      </trkpt>
      <trkpt lat="49.36833" lon="-1.07655">
        <ele>14.3</ele>
        <time>2020-06-16T11:29:13Z</time>
      </trkpt>
      <trkpt lat="49.36833" lon="-1.07656">
        <ele>14.3</ele>
        <time>2020-06-16T11:29:14Z</time>
      </trkpt>
      <trkpt lat="49.36834" lon="-1.07657">
        <ele>14.3</ele>
        <time>2020-06-16T11:29:15Z</time>
      </trkpt>
      <trkpt lat="49.36834" lon="-1.07657">
        <ele>14.3</ele>
        <time>2020-06-16T11:29:16Z</time>
      </trkpt>
      <trkpt lat="49.36834" lon="-1.07658">
        <ele>14.2</ele>
        <time>2020-06-16T11:29:17Z</time>
      </trkpt>
      <trkpt lat="49.36835" lon="-1.07658">
        <ele>14.2</ele>
        <time>2020-06-16T11:29:18Z</time>
      </trkpt>
      <trkpt lat="49.36835" lon="-1.07656">
        <ele>14.3</ele>
        <time>2020-06-16T11:29:19Z</time>
      </trkpt>
      <trkpt lat="49.36835" lon="-1.07653">
        <ele>14.3</ele>
        <time>2020-06-16T11:29:20Z</time>
      </trkpt>
      <trkpt lat="49.36836" lon="-1.07652">
        <ele>14.3</ele>
        <time>2020-06-16T11:29:21Z</time>
      </trkpt>
      <trkpt lat="49.36836" lon="-1.07651">
        <ele>14.3</ele>
        <time>2020-06-16T11:29:22Z</time>
      </trkpt>
      <trkpt lat="49.36836" lon="-1.07652">
        <ele>14.3</ele>
        <time>2020-06-16T11:29:23Z</time>
      </trkpt>
      <trkpt lat="49.36836" lon="-1.07651">
        <ele>14.3</ele>
        <time>2020-06-16T11:29:24Z</time>
      </trkpt>
      <trkpt lat="49.36836" lon="-1.07651">
        <ele>14.3</ele>
        <time>2020-06-16T11:29:25Z</time>
      </trkpt>
      <trkpt lat="49.36836" lon="-1.07652">
        <ele>14.3</ele>
        <time>2020-06-16T11:29:26Z</time>
      </trkpt>
      <trkpt lat="49.36836" lon="-1.07652">
        <ele>14.3</ele>
        <time>2020-06-16T11:29:27Z</time>
      </trkpt>
      <trkpt lat="49.36836" lon="-1.07652">
        <ele>14.3</ele>
        <time>2020-06-16T11:29:28Z</time>
      </trkpt>
      <trkpt lat="49.36836" lon="-1.07652">
        <ele>14.3</ele>
        <time>2020-06-16T11:29:29Z</time>
      </trkpt>
      <trkpt lat="49.36836" lon="-1.07652">
        <ele>14.3</ele>
        <time>2020-06-16T11:29:30Z</time>
      </trkpt>
      <trkpt lat="49.36836" lon="-1.07651">
        <ele>14.3</ele>
        <time>2020-06-16T11:29:31Z</time>
      </trkpt>
      <trkpt lat="49.36836" lon="-1.07651">
        <ele>14.3</ele>
        <time>2020-06-16T11:29:32Z</time>
      </trkpt>
      <trkpt lat="49.36836" lon="-1.0765">
        <ele>14.3</ele>
        <time>2020-06-16T11:29:33Z</time>
      </trkpt>
      <trkpt lat="49.36836" lon="-1.07649">
        <ele>14.3</ele>
        <time>2020-06-16T11:29:34Z</time>
      </trkpt>
      <trkpt lat="49.36836" lon="-1.07649">
        <ele>14.3</ele>
        <time>2020-06-16T11:29:35Z</time>
      </trkpt>
      <trkpt lat="49.36836" lon="-1.07649">
        <ele>14.3</ele>
        <time>2020-06-16T11:29:36Z</time>
      </trkpt>
      <trkpt lat="49.36836" lon="-1.07649">
        <ele>14.3</ele>
        <time>2020-06-16T11:29:37Z</time>
      </trkpt>
      <trkpt lat="49.36836" lon="-1.07648">
        <ele>14.3</ele>
        <time>2020-06-16T11:29:38Z</time>
      </trkpt>
      <trkpt lat="49.36836" lon="-1.07648">
        <ele>14.3</ele>
        <time>2020-06-16T11:29:39Z</time>
      </trkpt>
      <trkpt lat="49.36837" lon="-1.07647">
        <ele>14.3</ele>
        <time>2020-06-16T11:29:40Z</time>
      </trkpt>
      <trkpt lat="49.36831" lon="-1.07658">
        <ele>14.2</ele>
        <time>2020-06-16T11:29:55Z</time>
      </trkpt>
      <trkpt lat="49.36832" lon="-1.07658">
        <ele>14.2</ele>
        <time>2020-06-16T11:29:56Z</time>
      </trkpt>
      <trkpt lat="49.36832" lon="-1.07658">
        <ele>14.2</ele>
        <time>2020-06-16T11:29:57Z</time>
      </trkpt>
      <trkpt lat="49.36834" lon="-1.07657">
        <ele>14.3</ele>
        <time>2020-06-16T11:29:58Z</time>
      </trkpt>
      <trkpt lat="49.36834" lon="-1.07657">
        <ele>14.3</ele>
        <time>2020-06-16T11:29:59Z</time>
      </trkpt>
      <trkpt lat="49.36834" lon="-1.07657">
        <ele>14.3</ele>
        <time>2020-06-16T11:30:00Z</time>
      </trkpt>
      <trkpt lat="49.36834" lon="-1.07657">
        <ele>14.3</ele>
        <time>2020-06-16T11:30:01Z</time>
      </trkpt>
      <trkpt lat="49.36834" lon="-1.07657">
        <ele>14.3</ele>
        <time>2020-06-16T11:30:02Z</time>
      </trkpt>
      <trkpt lat="49.36834" lon="-1.07657">
        <ele>14.3</ele>
        <time>2020-06-16T11:30:03Z</time>
      </trkpt>
      <trkpt lat="49.36834" lon="-1.07657">
        <ele>14.3</ele>
        <time>2020-06-16T11:30:04Z</time>
      </trkpt>
      <trkpt lat="49.36834" lon="-1.07657">
        <ele>14.3</ele>
        <time>2020-06-16T11:30:05Z</time>
      </trkpt>
      <trkpt lat="49.36828" lon="-1.0767">
        <ele>14.2</ele>
        <time>2020-06-16T12:02:49Z</time>
      </trkpt>
      <trkpt lat="49.36829" lon="-1.07668">
        <ele>14.2</ele>
        <time>2020-06-16T12:02:50Z</time>
      </trkpt>
      <trkpt lat="49.36829" lon="-1.07668">
        <ele>14.2</ele>
        <time>2020-06-16T12:02:51Z</time>
      </trkpt>
      <trkpt lat="49.36829" lon="-1.07667">
        <ele>14.2</ele>
        <time>2020-06-16T12:02:52Z</time>
      </trkpt>
      <trkpt lat="49.36829" lon="-1.07669">
        <ele>14.2</ele>
        <time>2020-06-16T12:02:53Z</time>
      </trkpt>
      <trkpt lat="49.36829" lon="-1.07671">
        <ele>14.2</ele>
        <time>2020-06-16T12:02:54Z</time>
      </trkpt>
      <trkpt lat="49.36829" lon="-1.07671">
        <ele>14.2</ele>
        <time>2020-06-16T12:02:55Z</time>
      </trkpt>
      <trkpt lat="49.3683" lon="-1.07675">
        <ele>14.1</ele>
        <time>2020-06-16T12:02:56Z</time>
      </trkpt>
      <trkpt lat="49.3683" lon="-1.07676">
        <ele>14.1</ele>
        <time>2020-06-16T12:02:57Z</time>
      </trkpt>
      <trkpt lat="49.3683" lon="-1.07677">
        <ele>14.1</ele>
        <time>2020-06-16T12:02:58Z</time>
      </trkpt>
      <trkpt lat="49.3683" lon="-1.07677">
        <ele>14.1</ele>
        <time>2020-06-16T12:02:59Z</time>
      </trkpt>
      <trkpt lat="49.36832" lon="-1.07679">
        <ele>14.1</ele>
        <time>2020-06-16T12:03:00Z</time>
      </trkpt>
      <trkpt lat="49.36833" lon="-1.07683">
        <ele>14.1</ele>
        <time>2020-06-16T12:03:01Z</time>
      </trkpt>
      <trkpt lat="49.36835" lon="-1.07687">
        <ele>14.1</ele>
        <time>2020-06-16T12:03:02Z</time>
      </trkpt>
      <trkpt lat="49.36835" lon="-1.07689">
        <ele>14.1</ele>
        <time>2020-06-16T12:03:03Z</time>
      </trkpt>
      <trkpt lat="49.36835" lon="-1.07691">
        <ele>14.1</ele>
        <time>2020-06-16T12:03:04Z</time>
      </trkpt>
      <trkpt lat="49.36836" lon="-1.07692">
        <ele>14.1</ele>
        <time>2020-06-16T12:03:05Z</time>
      </trkpt>
      <trkpt lat="49.36836" lon="-1.07693">
        <ele>14.1</ele>
        <time>2020-06-16T12:03:06Z</time>
      </trkpt>
      <trkpt lat="49.36837" lon="-1.07695">
        <ele>14.1</ele>
        <time>2020-06-16T12:03:07Z</time>
      </trkpt>
      <trkpt lat="49.36837" lon="-1.07696">
        <ele>14.1</ele>
        <time>2020-06-16T12:03:08Z</time>
      </trkpt>
      <trkpt lat="49.36837" lon="-1.07698">
        <ele>14.1</ele>
        <time>2020-06-16T12:03:09Z</time>
      </trkpt>
      <trkpt lat="49.36837" lon="-1.07699">
        <ele>14.1</ele>
        <time>2020-06-16T12:03:10Z</time>
      </trkpt>
      <trkpt lat="49.36838" lon="-1.07701">
        <ele>14.1</ele>
        <time>2020-06-16T12:03:11Z</time>
      </trkpt>
      <trkpt lat="49.36839" lon="-1.07702">
        <ele>14.1</ele>
        <time>2020-06-16T12:03:12Z</time>
      </trkpt>
      <trkpt lat="49.3684" lon="-1.07704">
        <ele>14.1</ele>
        <time>2020-06-16T12:03:13Z</time>
      </trkpt>
      <trkpt lat="49.36841" lon="-1.07704">
        <ele>14.1</ele>
        <time>2020-06-16T12:03:14Z</time>
      </trkpt>
      <trkpt lat="49.36842" lon="-1.07705">
        <ele>14</ele>
        <time>2020-06-16T12:03:15Z</time>
      </trkpt>
      <trkpt lat="49.36842" lon="-1.07706">
        <ele>14</ele>
        <time>2020-06-16T12:03:16Z</time>
      </trkpt>
      <trkpt lat="49.36843" lon="-1.07707">
        <ele>14</ele>
        <time>2020-06-16T12:03:17Z</time>
      </trkpt>
      <trkpt lat="49.36843" lon="-1.07707">
        <ele>14</ele>
        <time>2020-06-16T12:03:18Z</time>
      </trkpt>
      <trkpt lat="49.36844" lon="-1.07707">
        <ele>14</ele>
        <time>2020-06-16T12:03:19Z</time>
      </trkpt>
      <trkpt lat="49.36844" lon="-1.07708">
        <ele>14</ele>
        <time>2020-06-16T12:03:20Z</time>
      </trkpt>
      <trkpt lat="49.36845" lon="-1.07708">
        <ele>14</ele>
        <time>2020-06-16T12:03:21Z</time>
      </trkpt>
      <trkpt lat="49.36845" lon="-1.07709">
        <ele>14</ele>
        <time>2020-06-16T12:03:22Z</time>
      </trkpt>
      <trkpt lat="49.36846" lon="-1.07709">
        <ele>14</ele>
        <time>2020-06-16T12:03:23Z</time>
      </trkpt>
      <trkpt lat="49.36846" lon="-1.07711">
        <ele>14</ele>
        <time>2020-06-16T12:03:24Z</time>
      </trkpt>
      <trkpt lat="49.36847" lon="-1.07712">
        <ele>14</ele>
        <time>2020-06-16T12:03:25Z</time>
      </trkpt>
      <trkpt lat="49.36847" lon="-1.07713">
        <ele>14</ele>
        <time>2020-06-16T12:03:26Z</time>
      </trkpt>
      <trkpt lat="49.36847" lon="-1.07713">
        <ele>14</ele>
        <time>2020-06-16T12:03:27Z</time>
      </trkpt>
      <trkpt lat="49.36847" lon="-1.07714">
        <ele>14</ele>
        <time>2020-06-16T12:03:28Z</time>
      </trkpt>
      <trkpt lat="49.36847" lon="-1.07714">
        <ele>14</ele>
        <time>2020-06-16T12:03:29Z</time>
      </trkpt>
      <trkpt lat="49.36848" lon="-1.07716">
        <ele>14</ele>
        <time>2020-06-16T12:03:30Z</time>
      </trkpt>
      <trkpt lat="49.36848" lon="-1.07716">
        <ele>14</ele>
        <time>2020-06-16T12:03:31Z</time>
      </trkpt>
      <trkpt lat="49.36848" lon="-1.07718">
        <ele>13.9</ele>
        <time>2020-06-16T12:03:32Z</time>
      </trkpt>
      <trkpt lat="49.36848" lon="-1.07719">
        <ele>13.9</ele>
        <time>2020-06-16T12:03:33Z</time>
      </trkpt>
      <trkpt lat="49.36849" lon="-1.07722">
        <ele>13.9</ele>
        <time>2020-06-16T12:03:34Z</time>
      </trkpt>
      <trkpt lat="49.36849" lon="-1.07726">
        <ele>13.8</ele>
        <time>2020-06-16T12:03:35Z</time>
      </trkpt>
      <trkpt lat="49.36849" lon="-1.07728">
        <ele>13.8</ele>
        <time>2020-06-16T12:03:36Z</time>
      </trkpt>
      <trkpt lat="49.3685" lon="-1.07732">
        <ele>13.8</ele>
        <time>2020-06-16T12:03:37Z</time>
      </trkpt>
      <trkpt lat="49.3685" lon="-1.07734">
        <ele>13.8</ele>
        <time>2020-06-16T12:03:38Z</time>
      </trkpt>
      <trkpt lat="49.36852" lon="-1.07738">
        <ele>13.7</ele>
        <time>2020-06-16T12:03:39Z</time>
      </trkpt>
      <trkpt lat="49.36852" lon="-1.07739">
        <ele>13.7</ele>
        <time>2020-06-16T12:03:40Z</time>
      </trkpt>
      <trkpt lat="49.36853" lon="-1.07742">
        <ele>13.7</ele>
        <time>2020-06-16T12:03:41Z</time>
      </trkpt>
      <trkpt lat="49.36854" lon="-1.07744">
        <ele>13.6</ele>
        <time>2020-06-16T12:03:42Z</time>
      </trkpt>
      <trkpt lat="49.36855" lon="-1.07746">
        <ele>13.6</ele>
        <time>2020-06-16T12:03:43Z</time>
      </trkpt>
      <trkpt lat="49.36855" lon="-1.07749">
        <ele>13.5</ele>
        <time>2020-06-16T12:03:44Z</time>
      </trkpt>
      <trkpt lat="49.36856" lon="-1.07751">
        <ele>13.5</ele>
        <time>2020-06-16T12:03:45Z</time>
      </trkpt>
      <trkpt lat="49.36857" lon="-1.07754">
        <ele>13.4</ele>
        <time>2020-06-16T12:03:46Z</time>
      </trkpt>
      <trkpt lat="49.36857" lon="-1.07756">
        <ele>13.4</ele>
        <time>2020-06-16T12:03:47Z</time>
      </trkpt>
      <trkpt lat="49.36857" lon="-1.07758">
        <ele>13.3</ele>
        <time>2020-06-16T12:03:48Z</time>
      </trkpt>
      <trkpt lat="49.36858" lon="-1.0776">
        <ele>13.3</ele>
        <time>2020-06-16T12:03:49Z</time>
      </trkpt>
      <trkpt lat="49.36858" lon="-1.07763">
        <ele>13.2</ele>
        <time>2020-06-16T12:03:50Z</time>
      </trkpt>
      <trkpt lat="49.36858" lon="-1.07765">
        <ele>13.2</ele>
        <time>2020-06-16T12:03:51Z</time>
      </trkpt>
      <trkpt lat="49.36858" lon="-1.07766">
        <ele>13.2</ele>
        <time>2020-06-16T12:03:52Z</time>
      </trkpt>
      <trkpt lat="49.36858" lon="-1.07767">
        <ele>13.2</ele>
        <time>2020-06-16T12:03:53Z</time>
      </trkpt>
      <trkpt lat="49.36858" lon="-1.07769">
        <ele>13.2</ele>
        <time>2020-06-16T12:03:54Z</time>
      </trkpt>
      <trkpt lat="49.36859" lon="-1.07771">
        <ele>13.1</ele>
        <time>2020-06-16T12:03:55Z</time>
      </trkpt>
      <trkpt lat="49.36859" lon="-1.07773">
        <ele>13.1</ele>
        <time>2020-06-16T12:03:56Z</time>
      </trkpt>
      <trkpt lat="49.36859" lon="-1.07774">
        <ele>13</ele>
        <time>2020-06-16T12:03:57Z</time>
      </trkpt>
      <trkpt lat="49.3686" lon="-1.07777">
        <ele>13</ele>
        <time>2020-06-16T12:03:58Z</time>
      </trkpt>
      <trkpt lat="49.3686" lon="-1.07779">
        <ele>12.9</ele>
        <time>2020-06-16T12:03:59Z</time>
      </trkpt>
      <trkpt lat="49.3686" lon="-1.0778">
        <ele>12.9</ele>
        <time>2020-06-16T12:04:00Z</time>
      </trkpt>
      <trkpt lat="49.36861" lon="-1.07781">
        <ele>12.9</ele>
        <time>2020-06-16T12:04:01Z</time>
      </trkpt>
      <trkpt lat="49.36861" lon="-1.07784">
        <ele>12.8</ele>
        <time>2020-06-16T12:04:02Z</time>
      </trkpt>
      <trkpt lat="49.36862" lon="-1.07786">
        <ele>12.8</ele>
        <time>2020-06-16T12:04:03Z</time>
      </trkpt>
      <trkpt lat="49.36862" lon="-1.07787">
        <ele>12.8</ele>
        <time>2020-06-16T12:04:04Z</time>
      </trkpt>
      <trkpt lat="49.36862" lon="-1.07788">
        <ele>12.8</ele>
        <time>2020-06-16T12:04:05Z</time>
      </trkpt>
      <trkpt lat="49.36862" lon="-1.07789">
        <ele>12.8</ele>
        <time>2020-06-16T12:04:06Z</time>
      </trkpt>
      <trkpt lat="49.36863" lon="-1.07791">
        <ele>12.7</ele>
        <time>2020-06-16T12:04:07Z</time>
      </trkpt>
      <trkpt lat="49.36863" lon="-1.07794">
        <ele>12.7</ele>
        <time>2020-06-16T12:04:08Z</time>
      </trkpt>
      <trkpt lat="49.36864" lon="-1.07796">
        <ele>12.6</ele>
        <time>2020-06-16T12:04:09Z</time>
      </trkpt>
      <trkpt lat="49.36864" lon="-1.07796">
        <ele>12.6</ele>
        <time>2020-06-16T12:04:10Z</time>
      </trkpt>
      <trkpt lat="49.36864" lon="-1.07796">
        <ele>12.6</ele>
        <time>2020-06-16T12:04:11Z</time>
      </trkpt>
      <trkpt lat="49.36864" lon="-1.07796">
        <ele>12.6</ele>
        <time>2020-06-16T12:04:12Z</time>
      </trkpt>
      <trkpt lat="49.36864" lon="-1.07797">
        <ele>12.6</ele>
        <time>2020-06-16T12:04:13Z</time>
      </trkpt>
      <trkpt lat="49.36864" lon="-1.07796">
        <ele>12.6</ele>
        <time>2020-06-16T12:04:14Z</time>
      </trkpt>
      <trkpt lat="49.36864" lon="-1.07798">
        <ele>12.6</ele>
        <time>2020-06-16T12:04:15Z</time>
      </trkpt>
      <trkpt lat="49.36864" lon="-1.07797">
        <ele>12.6</ele>
        <time>2020-06-16T12:04:16Z</time>
      </trkpt>
      <trkpt lat="49.36865" lon="-1.07797">
        <ele>12.6</ele>
        <time>2020-06-16T12:04:17Z</time>
      </trkpt>
      <trkpt lat="49.36865" lon="-1.07796">
        <ele>12.6</ele>
        <time>2020-06-16T12:04:18Z</time>
      </trkpt>
      <trkpt lat="49.36865" lon="-1.07797">
        <ele>12.6</ele>
        <time>2020-06-16T12:04:19Z</time>
      </trkpt>
      <trkpt lat="49.36865" lon="-1.07796">
        <ele>12.6</ele>
        <time>2020-06-16T12:04:20Z</time>
      </trkpt>
      <trkpt lat="49.36878" lon="-1.07798">
        <ele>12.6</ele>
        <time>2020-06-16T12:12:26Z</time>
      </trkpt>
      <trkpt lat="49.36877" lon="-1.07799">
        <ele>12.6</ele>
        <time>2020-06-16T12:12:27Z</time>
      </trkpt>
      <trkpt lat="49.36877" lon="-1.078">
        <ele>12.5</ele>
        <time>2020-06-16T12:12:28Z</time>
      </trkpt>
      <trkpt lat="49.36876" lon="-1.07801">
        <ele>12.5</ele>
        <time>2020-06-16T12:12:29Z</time>
      </trkpt>
      <trkpt lat="49.36876" lon="-1.07801">
        <ele>12.5</ele>
        <time>2020-06-16T12:12:30Z</time>
      </trkpt>
      <trkpt lat="49.36876" lon="-1.07803">
        <ele>12.5</ele>
        <time>2020-06-16T12:12:31Z</time>
      </trkpt>
      <trkpt lat="49.36875" lon="-1.07803">
        <ele>12.5</ele>
        <time>2020-06-16T12:12:32Z</time>
      </trkpt>
      <trkpt lat="49.36875" lon="-1.07802">
        <ele>12.5</ele>
        <time>2020-06-16T12:12:33Z</time>
      </trkpt>
      <trkpt lat="49.36875" lon="-1.07801">
        <ele>12.5</ele>
        <time>2020-06-16T12:12:34Z</time>
      </trkpt>
      <trkpt lat="49.36875" lon="-1.07802">
        <ele>12.5</ele>
        <time>2020-06-16T12:12:35Z</time>
      </trkpt>
      <trkpt lat="49.36875" lon="-1.07802">
        <ele>12.5</ele>
        <time>2020-06-16T12:12:36Z</time>
      </trkpt>
      <trkpt lat="49.36875" lon="-1.07802">
        <ele>12.5</ele>
        <time>2020-06-16T12:12:37Z</time>
      </trkpt>
      <trkpt lat="49.36875" lon="-1.07802">
        <ele>12.5</ele>
        <time>2020-06-16T12:12:38Z</time>
      </trkpt>
      <trkpt lat="49.36875" lon="-1.07801">
        <ele>12.5</ele>
        <time>2020-06-16T12:12:39Z</time>
      </trkpt>
      <trkpt lat="49.36875" lon="-1.07801">
        <ele>12.5</ele>
        <time>2020-06-16T12:12:40Z</time>
      </trkpt>
      <trkpt lat="49.36875" lon="-1.07801">
        <ele>12.5</ele>
        <time>2020-06-16T12:12:41Z</time>
      </trkpt>
      <trkpt lat="49.36875" lon="-1.07802">
        <ele>12.5</ele>
        <time>2020-06-16T12:12:42Z</time>
      </trkpt>
      <trkpt lat="49.36875" lon="-1.07802">
        <ele>12.5</ele>
        <time>2020-06-16T12:12:43Z</time>
      </trkpt>
      <trkpt lat="49.36875" lon="-1.07803">
        <ele>12.5</ele>
        <time>2020-06-16T12:12:44Z</time>
      </trkpt>
      <trkpt lat="49.36875" lon="-1.07803">
        <ele>12.5</ele>
        <time>2020-06-16T12:12:45Z</time>
      </trkpt>
      <trkpt lat="49.36872" lon="-1.07799">
        <ele>12.5</ele>
        <time>2020-06-16T12:13:27Z</time>
      </trkpt>
      <trkpt lat="49.36872" lon="-1.07798">
        <ele>12.6</ele>
        <time>2020-06-16T12:13:28Z</time>
      </trkpt>
      <trkpt lat="49.36873" lon="-1.07798">
        <ele>12.6</ele>
        <time>2020-06-16T12:13:29Z</time>
      </trkpt>
      <trkpt lat="49.36873" lon="-1.07798">
        <ele>12.6</ele>
        <time>2020-06-16T12:13:30Z</time>
      </trkpt>
      <trkpt lat="49.36872" lon="-1.07798">
        <ele>12.6</ele>
        <time>2020-06-16T12:13:31Z</time>
      </trkpt>
      <trkpt lat="49.36872" lon="-1.07798">
        <ele>12.6</ele>
        <time>2020-06-16T12:13:32Z</time>
      </trkpt>
      <trkpt lat="49.36872" lon="-1.07798">
        <ele>12.6</ele>
        <time>2020-06-16T12:13:33Z</time>
      </trkpt>
      <trkpt lat="49.36872" lon="-1.07799">
        <ele>12.6</ele>
        <time>2020-06-16T12:13:34Z</time>
      </trkpt>
      <trkpt lat="49.36872" lon="-1.07799">
        <ele>12.6</ele>
        <time>2020-06-16T12:13:35Z</time>
      </trkpt>
      <trkpt lat="49.36872" lon="-1.07799">
        <ele>12.6</ele>
        <time>2020-06-16T12:13:36Z</time>
      </trkpt>
      <trkpt lat="49.36872" lon="-1.07799">
        <ele>12.6</ele>
        <time>2020-06-16T12:13:37Z</time>
      </trkpt>
      <trkpt lat="49.36872" lon="-1.07798">
        <ele>12.6</ele>
        <time>2020-06-16T12:13:38Z</time>
      </trkpt>
      <trkpt lat="49.36872" lon="-1.07798">
        <ele>12.6</ele>
        <time>2020-06-16T12:13:39Z</time>
      </trkpt>
      <trkpt lat="49.36872" lon="-1.07798">
        <ele>12.6</ele>
        <time>2020-06-16T12:13:40Z</time>
      </trkpt>
      <trkpt lat="49.36872" lon="-1.07798">
        <ele>12.6</ele>
        <time>2020-06-16T12:13:41Z</time>
      </trkpt>
      <trkpt lat="49.36872" lon="-1.07798">
        <ele>12.6</ele>
        <time>2020-06-16T12:13:42Z</time>
      </trkpt>
      <trkpt lat="49.36873" lon="-1.07797">
        <ele>12.6</ele>
        <time>2020-06-16T12:13:43Z</time>
      </trkpt>
      <trkpt lat="49.36873" lon="-1.07797">
        <ele>12.6</ele>
        <time>2020-06-16T12:13:44Z</time>
      </trkpt>
      <trkpt lat="49.3688" lon="-1.07786">
        <ele>12.7</ele>
        <time>2020-06-16T12:14:17Z</time>
      </trkpt>
      <trkpt lat="49.36881" lon="-1.07786">
        <ele>12.7</ele>
        <time>2020-06-16T12:14:18Z</time>
      </trkpt>
      <trkpt lat="49.36881" lon="-1.07786">
        <ele>12.7</ele>
        <time>2020-06-16T12:14:19Z</time>
      </trkpt>
      <trkpt lat="49.36881" lon="-1.07786">
        <ele>12.7</ele>
        <time>2020-06-16T12:14:20Z</time>
      </trkpt>
      <trkpt lat="49.36881" lon="-1.07785">
        <ele>12.7</ele>
        <time>2020-06-16T12:14:21Z</time>
      </trkpt>
      <trkpt lat="49.36882" lon="-1.07785">
        <ele>12.7</ele>
        <time>2020-06-16T12:14:22Z</time>
      </trkpt>
      <trkpt lat="49.36882" lon="-1.07785">
        <ele>12.7</ele>
        <time>2020-06-16T12:14:23Z</time>
      </trkpt>
      <trkpt lat="49.36882" lon="-1.07785">
        <ele>12.7</ele>
        <time>2020-06-16T12:14:24Z</time>
      </trkpt>
      <trkpt lat="49.36882" lon="-1.07785">
        <ele>12.7</ele>
        <time>2020-06-16T12:14:25Z</time>
      </trkpt>
      <trkpt lat="49.36882" lon="-1.07785">
        <ele>12.7</ele>
        <time>2020-06-16T12:14:26Z</time>
      </trkpt>
      <trkpt lat="49.36882" lon="-1.07784">
        <ele>12.7</ele>
        <time>2020-06-16T12:14:27Z</time>
      </trkpt>
      <trkpt lat="49.36881" lon="-1.07784">
        <ele>12.7</ele>
        <time>2020-06-16T12:14:28Z</time>
      </trkpt>
      <trkpt lat="49.36881" lon="-1.07784">
        <ele>12.7</ele>
        <time>2020-06-16T12:14:29Z</time>
      </trkpt>
      <trkpt lat="49.3688" lon="-1.07783">
        <ele>12.7</ele>
        <time>2020-06-16T12:14:30Z</time>
      </trkpt>
      <trkpt lat="49.3688" lon="-1.07783">
        <ele>12.7</ele>
        <time>2020-06-16T12:14:31Z</time>
      </trkpt>
      <trkpt lat="49.36879" lon="-1.07782">
        <ele>12.8</ele>
        <time>2020-06-16T12:14:32Z</time>
      </trkpt>
      <trkpt lat="49.36879" lon="-1.0778">
        <ele>12.8</ele>
        <time>2020-06-16T12:14:33Z</time>
      </trkpt>
      <trkpt lat="49.36879" lon="-1.07779">
        <ele>12.8</ele>
        <time>2020-06-16T12:14:34Z</time>
      </trkpt>
      <trkpt lat="49.36879" lon="-1.07778">
        <ele>12.8</ele>
        <time>2020-06-16T12:14:35Z</time>
      </trkpt>
      <trkpt lat="49.36879" lon="-1.07777">
        <ele>12.9</ele>
        <time>2020-06-16T12:14:36Z</time>
      </trkpt>
      <trkpt lat="49.36878" lon="-1.07776">
        <ele>12.9</ele>
        <time>2020-06-16T12:14:37Z</time>
      </trkpt>
      <trkpt lat="49.36878" lon="-1.07777">
        <ele>12.9</ele>
        <time>2020-06-16T12:14:38Z</time>
      </trkpt>
      <trkpt lat="49.36877" lon="-1.07777">
        <ele>12.9</ele>
        <time>2020-06-16T12:14:39Z</time>
      </trkpt>
      <trkpt lat="49.36877" lon="-1.07778">
        <ele>12.8</ele>
        <time>2020-06-16T12:14:40Z</time>
      </trkpt>
      <trkpt lat="49.36877" lon="-1.07777">
        <ele>12.9</ele>
        <time>2020-06-16T12:14:41Z</time>
      </trkpt>
      <trkpt lat="49.36877" lon="-1.07777">
        <ele>12.9</ele>
        <time>2020-06-16T12:14:42Z</time>
      </trkpt>
      <trkpt lat="49.36877" lon="-1.07776">
        <ele>12.9</ele>
        <time>2020-06-16T12:14:43Z</time>
      </trkpt>
      <trkpt lat="49.36878" lon="-1.07775">
        <ele>12.9</ele>
        <time>2020-06-16T12:14:44Z</time>
      </trkpt>
      <trkpt lat="49.36879" lon="-1.07775">
        <ele>12.9</ele>
        <time>2020-06-16T12:14:45Z</time>
      </trkpt>
      <trkpt lat="49.36879" lon="-1.07775">
        <ele>12.9</ele>
        <time>2020-06-16T12:14:46Z</time>
      </trkpt>
      <trkpt lat="49.36879" lon="-1.07775">
        <ele>12.9</ele>
        <time>2020-06-16T12:14:47Z</time>
      </trkpt>
      <trkpt lat="49.36879" lon="-1.07775">
        <ele>12.9</ele>
        <time>2020-06-16T12:14:48Z</time>
      </trkpt>
      <trkpt lat="49.36879" lon="-1.07775">
        <ele>12.9</ele>
        <time>2020-06-16T12:14:49Z</time>
      </trkpt>
      <trkpt lat="49.36879" lon="-1.07775">
        <ele>12.9</ele>
        <time>2020-06-16T12:14:50Z</time>
      </trkpt>
      <trkpt lat="49.36879" lon="-1.07775">
        <ele>12.9</ele>
        <time>2020-06-16T12:14:51Z</time>
      </trkpt>
      <trkpt lat="49.36879" lon="-1.07775">
        <ele>12.9</ele>
        <time>2020-06-16T12:14:52Z</time>
      </trkpt>
      <trkpt lat="49.36879" lon="-1.07775">
        <ele>12.9</ele>
        <time>2020-06-16T12:14:53Z</time>
      </trkpt>
      <trkpt lat="49.36879" lon="-1.07775">
        <ele>12.9</ele>
        <time>2020-06-16T12:14:54Z</time>
      </trkpt>
      <trkpt lat="49.36879" lon="-1.07775">
        <ele>12.9</ele>
        <time>2020-06-16T12:14:55Z</time>
      </trkpt>
      <trkpt lat="49.36879" lon="-1.07775">
        <ele>12.9</ele>
        <time>2020-06-16T12:14:56Z</time>
      </trkpt>
      <trkpt lat="49.36878" lon="-1.07775">
        <ele>12.9</ele>
        <time>2020-06-16T12:14:57Z</time>
      </trkpt>
      <trkpt lat="49.36878" lon="-1.07775">
        <ele>12.9</ele>
        <time>2020-06-16T12:14:58Z</time>
      </trkpt>
      <trkpt lat="49.36879" lon="-1.07768">
        <ele>13</ele>
        <time>2020-06-16T12:15:40Z</time>
      </trkpt>
      <trkpt lat="49.36879" lon="-1.07767">
        <ele>13</ele>
        <time>2020-06-16T12:15:41Z</time>
      </trkpt>
      <trkpt lat="49.36879" lon="-1.07767">
        <ele>13</ele>
        <time>2020-06-16T12:15:42Z</time>
      </trkpt>
      <trkpt lat="49.36879" lon="-1.07766">
        <ele>13</ele>
        <time>2020-06-16T12:15:43Z</time>
      </trkpt>
      <trkpt lat="49.36879" lon="-1.07765">
        <ele>13</ele>
        <time>2020-06-16T12:15:44Z</time>
      </trkpt>
      <trkpt lat="49.36879" lon="-1.07765">
        <ele>13.1</ele>
        <time>2020-06-16T12:15:45Z</time>
      </trkpt>
      <trkpt lat="49.3688" lon="-1.07764">
        <ele>13.1</ele>
        <time>2020-06-16T12:15:46Z</time>
      </trkpt>
      <trkpt lat="49.3688" lon="-1.07764">
        <ele>13.1</ele>
        <time>2020-06-16T12:15:47Z</time>
      </trkpt>
      <trkpt lat="49.3688" lon="-1.07764">
        <ele>13.1</ele>
        <time>2020-06-16T12:15:48Z</time>
      </trkpt>
      <trkpt lat="49.3688" lon="-1.07764">
        <ele>13.1</ele>
        <time>2020-06-16T12:15:49Z</time>
      </trkpt>
      <trkpt lat="49.3688" lon="-1.07764">
        <ele>13.1</ele>
        <time>2020-06-16T12:15:50Z</time>
      </trkpt>
      <trkpt lat="49.36881" lon="-1.07763">
        <ele>13.1</ele>
        <time>2020-06-16T12:15:51Z</time>
      </trkpt>
      <trkpt lat="49.36881" lon="-1.07763">
        <ele>13.1</ele>
        <time>2020-06-16T12:15:52Z</time>
      </trkpt>
      <trkpt lat="49.36881" lon="-1.07762">
        <ele>13.1</ele>
        <time>2020-06-16T12:15:53Z</time>
      </trkpt>
      <trkpt lat="49.36881" lon="-1.07761">
        <ele>13.1</ele>
        <time>2020-06-16T12:15:54Z</time>
      </trkpt>
      <trkpt lat="49.36882" lon="-1.0776">
        <ele>13.1</ele>
        <time>2020-06-16T12:15:55Z</time>
      </trkpt>
      <trkpt lat="49.36882" lon="-1.0776">
        <ele>13.1</ele>
        <time>2020-06-16T12:15:56Z</time>
      </trkpt>
      <trkpt lat="49.36882" lon="-1.0776">
        <ele>13.1</ele>
        <time>2020-06-16T12:15:57Z</time>
      </trkpt>
      <trkpt lat="49.36882" lon="-1.07759">
        <ele>13.1</ele>
        <time>2020-06-16T12:15:58Z</time>
      </trkpt>
      <trkpt lat="49.36882" lon="-1.07759">
        <ele>13.1</ele>
        <time>2020-06-16T12:15:59Z</time>
      </trkpt>
      <trkpt lat="49.36883" lon="-1.0776">
        <ele>13.1</ele>
        <time>2020-06-16T12:16:00Z</time>
      </trkpt>
      <trkpt lat="49.36883" lon="-1.07759">
        <ele>13.1</ele>
        <time>2020-06-16T12:16:01Z</time>
      </trkpt>
      <trkpt lat="49.36883" lon="-1.07761">
        <ele>13.1</ele>
        <time>2020-06-16T12:16:02Z</time>
      </trkpt>
      <trkpt lat="49.36883" lon="-1.07763">
        <ele>13.1</ele>
        <time>2020-06-16T12:16:03Z</time>
      </trkpt>
      <trkpt lat="49.36883" lon="-1.07762">
        <ele>13.1</ele>
        <time>2020-06-16T12:16:04Z</time>
      </trkpt>
      <trkpt lat="49.36883" lon="-1.07762">
        <ele>13.1</ele>
        <time>2020-06-16T12:16:05Z</time>
      </trkpt>
      <trkpt lat="49.36883" lon="-1.07762">
        <ele>13.1</ele>
        <time>2020-06-16T12:16:06Z</time>
      </trkpt>
      <trkpt lat="49.36883" lon="-1.07762">
        <ele>13.1</ele>
        <time>2020-06-16T12:16:07Z</time>
      </trkpt>
      <trkpt lat="49.36883" lon="-1.07764">
        <ele>13.1</ele>
        <time>2020-06-16T12:16:08Z</time>
      </trkpt>
      <trkpt lat="49.36882" lon="-1.07764">
        <ele>13.1</ele>
        <time>2020-06-16T12:16:09Z</time>
      </trkpt>
      <trkpt lat="49.36882" lon="-1.07764">
        <ele>13.1</ele>
        <time>2020-06-16T12:16:10Z</time>
      </trkpt>
      <trkpt lat="49.36882" lon="-1.07765">
        <ele>13</ele>
        <time>2020-06-16T12:16:11Z</time>
      </trkpt>
      <trkpt lat="49.36882" lon="-1.07765">
        <ele>13</ele>
        <time>2020-06-16T12:16:12Z</time>
      </trkpt>
      <trkpt lat="49.36882" lon="-1.07766">
        <ele>13</ele>
        <time>2020-06-16T12:16:13Z</time>
      </trkpt>
      <trkpt lat="49.36882" lon="-1.07766">
        <ele>13</ele>
        <time>2020-06-16T12:16:14Z</time>
      </trkpt>
      <trkpt lat="49.36882" lon="-1.07766">
        <ele>13</ele>
        <time>2020-06-16T12:16:15Z</time>
      </trkpt>
      <trkpt lat="49.36882" lon="-1.07765">
        <ele>13</ele>
        <time>2020-06-16T12:16:16Z</time>
      </trkpt>
      <trkpt lat="49.36882" lon="-1.07763">
        <ele>13.1</ele>
        <time>2020-06-16T12:16:17Z</time>
      </trkpt>
      <trkpt lat="49.36881" lon="-1.07762">
        <ele>13.1</ele>
        <time>2020-06-16T12:16:18Z</time>
      </trkpt>
      <trkpt lat="49.36881" lon="-1.07762">
        <ele>13.1</ele>
        <time>2020-06-16T12:16:19Z</time>
      </trkpt>
      <trkpt lat="49.36881" lon="-1.07762">
        <ele>13.1</ele>
        <time>2020-06-16T12:16:20Z</time>
      </trkpt>
      <trkpt lat="49.36882" lon="-1.07762">
        <ele>13.1</ele>
        <time>2020-06-16T12:16:21Z</time>
      </trkpt>
      <trkpt lat="49.36881" lon="-1.07762">
        <ele>13.1</ele>
        <time>2020-06-16T12:16:22Z</time>
      </trkpt>
      <trkpt lat="49.36881" lon="-1.07762">
        <ele>13.1</ele>
        <time>2020-06-16T12:16:23Z</time>
      </trkpt>
      <trkpt lat="49.36882" lon="-1.07764">
        <ele>13.1</ele>
        <time>2020-06-16T12:16:24Z</time>
      </trkpt>
      <trkpt lat="49.36882" lon="-1.07765">
        <ele>13</ele>
        <time>2020-06-16T12:16:25Z</time>
      </trkpt>
      <trkpt lat="49.36882" lon="-1.07767">
        <ele>13</ele>
        <time>2020-06-16T12:16:26Z</time>
      </trkpt>
      <trkpt lat="49.36882" lon="-1.07768">
        <ele>13</ele>
        <time>2020-06-16T12:16:27Z</time>
      </trkpt>
      <trkpt lat="49.36882" lon="-1.07768">
        <ele>13</ele>
        <time>2020-06-16T12:16:28Z</time>
      </trkpt>
      <trkpt lat="49.36882" lon="-1.07769">
        <ele>13</ele>
        <time>2020-06-16T12:16:29Z</time>
      </trkpt>
      <trkpt lat="49.36882" lon="-1.0777">
        <ele>12.9</ele>
        <time>2020-06-16T12:16:30Z</time>
      </trkpt>
      <trkpt lat="49.36882" lon="-1.0777">
        <ele>12.9</ele>
        <time>2020-06-16T12:16:31Z</time>
      </trkpt>
      <trkpt lat="49.36882" lon="-1.0777">
        <ele>12.9</ele>
        <time>2020-06-16T12:16:32Z</time>
      </trkpt>
      <trkpt lat="49.36882" lon="-1.07771">
        <ele>12.9</ele>
        <time>2020-06-16T12:16:33Z</time>
      </trkpt>
      <trkpt lat="49.36882" lon="-1.0777">
        <ele>12.9</ele>
        <time>2020-06-16T12:16:34Z</time>
      </trkpt>
      <trkpt lat="49.36882" lon="-1.07769">
        <ele>13</ele>
        <time>2020-06-16T12:16:35Z</time>
      </trkpt>
      <trkpt lat="49.36882" lon="-1.07768">
        <ele>13</ele>
        <time>2020-06-16T12:16:36Z</time>
      </trkpt>
      <trkpt lat="49.36881" lon="-1.07768">
        <ele>13</ele>
        <time>2020-06-16T12:16:37Z</time>
      </trkpt>
      <trkpt lat="49.36881" lon="-1.07768">
        <ele>13</ele>
        <time>2020-06-16T12:16:38Z</time>
      </trkpt>
      <trkpt lat="49.36881" lon="-1.07768">
        <ele>13</ele>
        <time>2020-06-16T12:16:39Z</time>
      </trkpt>
      <trkpt lat="49.36881" lon="-1.07768">
        <ele>13</ele>
        <time>2020-06-16T12:16:40Z</time>
      </trkpt>
      <trkpt lat="49.36881" lon="-1.07768">
        <ele>13</ele>
        <time>2020-06-16T12:16:41Z</time>
      </trkpt>
      <trkpt lat="49.36881" lon="-1.07767">
        <ele>13</ele>
        <time>2020-06-16T12:16:42Z</time>
      </trkpt>
      <trkpt lat="49.36881" lon="-1.07767">
        <ele>13</ele>
        <time>2020-06-16T12:16:43Z</time>
      </trkpt>
      <trkpt lat="49.36881" lon="-1.07769">
        <ele>13</ele>
        <time>2020-06-16T12:16:44Z</time>
      </trkpt>
      <trkpt lat="49.36881" lon="-1.07769">
        <ele>12.9</ele>
        <time>2020-06-16T12:16:45Z</time>
      </trkpt>
      <trkpt lat="49.36881" lon="-1.0777">
        <ele>12.9</ele>
        <time>2020-06-16T12:16:46Z</time>
      </trkpt>
      <trkpt lat="49.36881" lon="-1.0777">
        <ele>12.9</ele>
        <time>2020-06-16T12:16:47Z</time>
      </trkpt>
      <trkpt lat="49.36881" lon="-1.07771">
        <ele>12.9</ele>
        <time>2020-06-16T12:16:48Z</time>
      </trkpt>
      <trkpt lat="49.36881" lon="-1.07771">
        <ele>12.9</ele>
        <time>2020-06-16T12:16:49Z</time>
      </trkpt>
      <trkpt lat="49.36881" lon="-1.07773">
        <ele>12.9</ele>
        <time>2020-06-16T12:16:50Z</time>
      </trkpt>
      <trkpt lat="49.36881" lon="-1.07774">
        <ele>12.9</ele>
        <time>2020-06-16T12:16:51Z</time>
      </trkpt>
      <trkpt lat="49.3688" lon="-1.07775">
        <ele>12.9</ele>
        <time>2020-06-16T12:16:52Z</time>
      </trkpt>
      <trkpt lat="49.3688" lon="-1.07776">
        <ele>12.9</ele>
        <time>2020-06-16T12:16:53Z</time>
      </trkpt>
      <trkpt lat="49.36879" lon="-1.07777">
        <ele>12.9</ele>
        <time>2020-06-16T12:16:54Z</time>
      </trkpt>
      <trkpt lat="49.36879" lon="-1.07778">
        <ele>12.9</ele>
        <time>2020-06-16T12:16:55Z</time>
      </trkpt>
      <trkpt lat="49.36879" lon="-1.07778">
        <ele>12.8</ele>
        <time>2020-06-16T12:16:56Z</time>
      </trkpt>
      <trkpt lat="49.36879" lon="-1.07778">
        <ele>12.8</ele>
        <time>2020-06-16T12:16:57Z</time>
      </trkpt>
      <trkpt lat="49.36879" lon="-1.07778">
        <ele>12.8</ele>
        <time>2020-06-16T12:16:58Z</time>
      </trkpt>
      <trkpt lat="49.36879" lon="-1.07778">
        <ele>12.8</ele>
        <time>2020-06-16T12:16:59Z</time>
      </trkpt>
      <trkpt lat="49.36879" lon="-1.07778">
        <ele>12.8</ele>
        <time>2020-06-16T12:17:00Z</time>
      </trkpt>
      <trkpt lat="49.36879" lon="-1.07779">
        <ele>12.8</ele>
        <time>2020-06-16T12:17:01Z</time>
      </trkpt>
      <trkpt lat="49.36878" lon="-1.07779">
        <ele>12.8</ele>
        <time>2020-06-16T12:17:02Z</time>
      </trkpt>
      <trkpt lat="49.36878" lon="-1.07778">
        <ele>12.8</ele>
        <time>2020-06-16T12:17:03Z</time>
      </trkpt>
      <trkpt lat="49.36878" lon="-1.07778">
        <ele>12.8</ele>
        <time>2020-06-16T12:17:04Z</time>
      </trkpt>
      <trkpt lat="49.36878" lon="-1.07777">
        <ele>12.9</ele>
        <time>2020-06-16T12:17:05Z</time>
      </trkpt>
      <trkpt lat="49.36887" lon="-1.07761">
        <ele>13</ele>
        <time>2020-06-16T12:17:40Z</time>
      </trkpt>
      <trkpt lat="49.36886" lon="-1.07761">
        <ele>13</ele>
        <time>2020-06-16T12:17:41Z</time>
      </trkpt>
      <trkpt lat="49.36886" lon="-1.07761">
        <ele>13</ele>
        <time>2020-06-16T12:17:42Z</time>
      </trkpt>
      <trkpt lat="49.36886" lon="-1.07761">
        <ele>13</ele>
        <time>2020-06-16T12:17:43Z</time>
      </trkpt>
      <trkpt lat="49.36886" lon="-1.0776">
        <ele>13.1</ele>
        <time>2020-06-16T12:17:44Z</time>
      </trkpt>
      <trkpt lat="49.36885" lon="-1.07764">
        <ele>13.1</ele>
        <time>2020-06-16T12:17:45Z</time>
      </trkpt>
      <trkpt lat="49.36884" lon="-1.07765">
        <ele>13</ele>
        <time>2020-06-16T12:17:46Z</time>
      </trkpt>
      <trkpt lat="49.36884" lon="-1.07765">
        <ele>13</ele>
        <time>2020-06-16T12:17:47Z</time>
      </trkpt>
      <trkpt lat="49.36884" lon="-1.07765">
        <ele>13</ele>
        <time>2020-06-16T12:17:48Z</time>
      </trkpt>
      <trkpt lat="49.36884" lon="-1.07765">
        <ele>13</ele>
        <time>2020-06-16T12:17:49Z</time>
      </trkpt>
      <trkpt lat="49.36884" lon="-1.07766">
        <ele>13</ele>
        <time>2020-06-16T12:17:50Z</time>
      </trkpt>
      <trkpt lat="49.36884" lon="-1.07766">
        <ele>13</ele>
        <time>2020-06-16T12:17:51Z</time>
      </trkpt>
      <trkpt lat="49.36884" lon="-1.07766">
        <ele>13</ele>
        <time>2020-06-16T12:17:52Z</time>
      </trkpt>
      <trkpt lat="49.36884" lon="-1.07766">
        <ele>13</ele>
        <time>2020-06-16T12:17:53Z</time>
      </trkpt>
      <trkpt lat="49.36884" lon="-1.07766">
        <ele>13</ele>
        <time>2020-06-16T12:17:54Z</time>
      </trkpt>
      <trkpt lat="49.36884" lon="-1.07765">
        <ele>13</ele>
        <time>2020-06-16T12:17:55Z</time>
      </trkpt>
      <trkpt lat="49.36883" lon="-1.07764">
        <ele>13.1</ele>
        <time>2020-06-16T12:17:56Z</time>
      </trkpt>
      <trkpt lat="49.36883" lon="-1.07763">
        <ele>13.1</ele>
        <time>2020-06-16T12:17:57Z</time>
      </trkpt>
      <trkpt lat="49.36883" lon="-1.07762">
        <ele>13.1</ele>
        <time>2020-06-16T12:17:58Z</time>
      </trkpt>
      <trkpt lat="49.36883" lon="-1.07761">
        <ele>13.1</ele>
        <time>2020-06-16T12:17:59Z</time>
      </trkpt>
      <trkpt lat="49.36883" lon="-1.0776">
        <ele>13.1</ele>
        <time>2020-06-16T12:18:00Z</time>
      </trkpt>
      <trkpt lat="49.36883" lon="-1.07759">
        <ele>13.1</ele>
        <time>2020-06-16T12:18:01Z</time>
      </trkpt>
      <trkpt lat="49.36883" lon="-1.07758">
        <ele>13.1</ele>
        <time>2020-06-16T12:18:02Z</time>
      </trkpt>
      <trkpt lat="49.36883" lon="-1.07758">
        <ele>13.1</ele>
        <time>2020-06-16T12:18:03Z</time>
      </trkpt>
      <trkpt lat="49.36883" lon="-1.07756">
        <ele>13.1</ele>
        <time>2020-06-16T12:18:04Z</time>
      </trkpt>
      <trkpt lat="49.36882" lon="-1.07755">
        <ele>13.2</ele>
        <time>2020-06-16T12:18:05Z</time>
      </trkpt>
      <trkpt lat="49.36882" lon="-1.07753">
        <ele>13.2</ele>
        <time>2020-06-16T12:18:06Z</time>
      </trkpt>
      <trkpt lat="49.36883" lon="-1.07751">
        <ele>13.2</ele>
        <time>2020-06-16T12:18:07Z</time>
      </trkpt>
      <trkpt lat="49.36883" lon="-1.0775">
        <ele>13.2</ele>
        <time>2020-06-16T12:18:08Z</time>
      </trkpt>
      <trkpt lat="49.36883" lon="-1.07749">
        <ele>13.2</ele>
        <time>2020-06-16T12:18:09Z</time>
      </trkpt>
      <trkpt lat="49.36883" lon="-1.07749">
        <ele>13.2</ele>
        <time>2020-06-16T12:18:10Z</time>
      </trkpt>
      <trkpt lat="49.36883" lon="-1.07749">
        <ele>13.2</ele>
        <time>2020-06-16T12:18:11Z</time>
      </trkpt>
      <trkpt lat="49.36883" lon="-1.07748">
        <ele>13.2</ele>
        <time>2020-06-16T12:18:12Z</time>
      </trkpt>
      <trkpt lat="49.36883" lon="-1.07746">
        <ele>13.3</ele>
        <time>2020-06-16T12:18:13Z</time>
      </trkpt>
      <trkpt lat="49.36883" lon="-1.07746">
        <ele>13.3</ele>
        <time>2020-06-16T12:18:14Z</time>
      </trkpt>
      <trkpt lat="49.36883" lon="-1.07745">
        <ele>13.3</ele>
        <time>2020-06-16T12:18:15Z</time>
      </trkpt>
      <trkpt lat="49.36884" lon="-1.07745">
        <ele>13.3</ele>
        <time>2020-06-16T12:18:16Z</time>
      </trkpt>
      <trkpt lat="49.36883" lon="-1.07744">
        <ele>13.3</ele>
        <time>2020-06-16T12:18:17Z</time>
      </trkpt>
      <trkpt lat="49.36883" lon="-1.07745">
        <ele>13.3</ele>
        <time>2020-06-16T12:18:18Z</time>
      </trkpt>
      <trkpt lat="49.36883" lon="-1.07745">
        <ele>13.3</ele>
        <time>2020-06-16T12:18:19Z</time>
      </trkpt>
      <trkpt lat="49.36883" lon="-1.07746">
        <ele>13.3</ele>
        <time>2020-06-16T12:18:20Z</time>
      </trkpt>
      <trkpt lat="49.36883" lon="-1.07746">
        <ele>13.3</ele>
        <time>2020-06-16T12:18:21Z</time>
      </trkpt>
      <trkpt lat="49.36883" lon="-1.07747">
        <ele>13.3</ele>
        <time>2020-06-16T12:18:22Z</time>
      </trkpt>
      <trkpt lat="49.36883" lon="-1.07747">
        <ele>13.3</ele>
        <time>2020-06-16T12:18:23Z</time>
      </trkpt>
      <trkpt lat="49.36883" lon="-1.07748">
        <ele>13.2</ele>
        <time>2020-06-16T12:18:24Z</time>
      </trkpt>
      <trkpt lat="49.36883" lon="-1.07748">
        <ele>13.2</ele>
        <time>2020-06-16T12:18:25Z</time>
      </trkpt>
      <trkpt lat="49.36883" lon="-1.07749">
        <ele>13.2</ele>
        <time>2020-06-16T12:18:26Z</time>
      </trkpt>
      <trkpt lat="49.36883" lon="-1.07749">
        <ele>13.2</ele>
        <time>2020-06-16T12:18:27Z</time>
      </trkpt>
      <trkpt lat="49.36882" lon="-1.0775">
        <ele>13.2</ele>
        <time>2020-06-16T12:18:28Z</time>
      </trkpt>
      <trkpt lat="49.36882" lon="-1.0775">
        <ele>13.2</ele>
        <time>2020-06-16T12:18:29Z</time>
      </trkpt>
      <trkpt lat="49.36882" lon="-1.0775">
        <ele>13.3</ele>
        <time>2020-06-16T12:18:30Z</time>
      </trkpt>
      <trkpt lat="49.36881" lon="-1.07749">
        <ele>13.3</ele>
        <time>2020-06-16T12:18:31Z</time>
      </trkpt>
      <trkpt lat="49.36881" lon="-1.07748">
        <ele>13.3</ele>
        <time>2020-06-16T12:18:32Z</time>
      </trkpt>
      <trkpt lat="49.3688" lon="-1.07748">
        <ele>13.3</ele>
        <time>2020-06-16T12:18:33Z</time>
      </trkpt>
      <trkpt lat="49.3688" lon="-1.07749">
        <ele>13.3</ele>
        <time>2020-06-16T12:18:34Z</time>
      </trkpt>
      <trkpt lat="49.3688" lon="-1.0775">
        <ele>13.3</ele>
        <time>2020-06-16T12:18:35Z</time>
      </trkpt>
      <trkpt lat="49.36881" lon="-1.07751">
        <ele>13.3</ele>
        <time>2020-06-16T12:18:36Z</time>
      </trkpt>
      <trkpt lat="49.36881" lon="-1.0775">
        <ele>13.3</ele>
        <time>2020-06-16T12:18:37Z</time>
      </trkpt>
      <trkpt lat="49.36881" lon="-1.07751">
        <ele>13.3</ele>
        <time>2020-06-16T12:18:38Z</time>
      </trkpt>
      <trkpt lat="49.36881" lon="-1.07752">
        <ele>13.2</ele>
        <time>2020-06-16T12:18:39Z</time>
      </trkpt>
      <trkpt lat="49.3688" lon="-1.07753">
        <ele>13.2</ele>
        <time>2020-06-16T12:18:40Z</time>
      </trkpt>
      <trkpt lat="49.3688" lon="-1.07754">
        <ele>13.2</ele>
        <time>2020-06-16T12:18:41Z</time>
      </trkpt>
      <trkpt lat="49.3688" lon="-1.07754">
        <ele>13.2</ele>
        <time>2020-06-16T12:18:42Z</time>
      </trkpt>
      <trkpt lat="49.3688" lon="-1.07754">
        <ele>13.2</ele>
        <time>2020-06-16T12:18:43Z</time>
      </trkpt>
      <trkpt lat="49.36881" lon="-1.07754">
        <ele>13.2</ele>
        <time>2020-06-16T12:18:44Z</time>
      </trkpt>
      <trkpt lat="49.36881" lon="-1.07753">
        <ele>13.2</ele>
        <time>2020-06-16T12:18:45Z</time>
      </trkpt>
      <trkpt lat="49.36881" lon="-1.07753">
        <ele>13.2</ele>
        <time>2020-06-16T12:18:46Z</time>
      </trkpt>
      <trkpt lat="49.36881" lon="-1.07754">
        <ele>13.2</ele>
        <time>2020-06-16T12:18:47Z</time>
      </trkpt>
      <trkpt lat="49.36881" lon="-1.07754">
        <ele>13.2</ele>
        <time>2020-06-16T12:18:48Z</time>
      </trkpt>
      <trkpt lat="49.36881" lon="-1.07754">
        <ele>13.2</ele>
        <time>2020-06-16T12:18:49Z</time>
      </trkpt>
      <trkpt lat="49.36881" lon="-1.07754">
        <ele>13.2</ele>
        <time>2020-06-16T12:18:50Z</time>
      </trkpt>
      <trkpt lat="49.36881" lon="-1.07754">
        <ele>13.2</ele>
        <time>2020-06-16T12:18:51Z</time>
      </trkpt>
      <trkpt lat="49.36881" lon="-1.07754">
        <ele>13.2</ele>
        <time>2020-06-16T12:18:52Z</time>
      </trkpt>
      <trkpt lat="49.36881" lon="-1.07754">
        <ele>13.2</ele>
        <time>2020-06-16T12:18:53Z</time>
      </trkpt>
      <trkpt lat="49.36881" lon="-1.07753">
        <ele>13.2</ele>
        <time>2020-06-16T12:18:54Z</time>
      </trkpt>
      <trkpt lat="49.36881" lon="-1.07754">
        <ele>13.2</ele>
        <time>2020-06-16T12:18:55Z</time>
      </trkpt>
      <trkpt lat="49.36881" lon="-1.07754">
        <ele>13.2</ele>
        <time>2020-06-16T12:18:56Z</time>
      </trkpt>
      <trkpt lat="49.36881" lon="-1.07754">
        <ele>13.2</ele>
        <time>2020-06-16T12:18:57Z</time>
      </trkpt>
      <trkpt lat="49.36881" lon="-1.07754">
        <ele>13.2</ele>
        <time>2020-06-16T12:18:58Z</time>
      </trkpt>
      <trkpt lat="49.36881" lon="-1.07754">
        <ele>13.2</ele>
        <time>2020-06-16T12:18:59Z</time>
      </trkpt>
      <trkpt lat="49.36882" lon="-1.07754">
        <ele>13.2</ele>
        <time>2020-06-16T12:19:00Z</time>
      </trkpt>
      <trkpt lat="49.36882" lon="-1.07755">
        <ele>13.2</ele>
        <time>2020-06-16T12:19:01Z</time>
      </trkpt>
      <trkpt lat="49.36882" lon="-1.07755">
        <ele>13.2</ele>
        <time>2020-06-16T12:19:02Z</time>
      </trkpt>
      <trkpt lat="49.36882" lon="-1.07756">
        <ele>13.2</ele>
        <time>2020-06-16T12:19:03Z</time>
      </trkpt>
      <trkpt lat="49.36868" lon="-1.07763">
        <ele>13.2</ele>
        <time>2020-06-16T12:20:35Z</time>
      </trkpt>
      <trkpt lat="49.36867" lon="-1.07762">
        <ele>13.2</ele>
        <time>2020-06-16T12:20:36Z</time>
      </trkpt>
      <trkpt lat="49.36867" lon="-1.0776">
        <ele>13.2</ele>
        <time>2020-06-16T12:20:37Z</time>
      </trkpt>
      <trkpt lat="49.36867" lon="-1.07758">
        <ele>13.2</ele>
        <time>2020-06-16T12:20:38Z</time>
      </trkpt>
      <trkpt lat="49.36867" lon="-1.07756">
        <ele>13.3</ele>
        <time>2020-06-16T12:20:39Z</time>
      </trkpt>
      <trkpt lat="49.36867" lon="-1.07755">
        <ele>13.3</ele>
        <time>2020-06-16T12:20:40Z</time>
      </trkpt>
      <trkpt lat="49.36867" lon="-1.07753">
        <ele>13.3</ele>
        <time>2020-06-16T12:20:41Z</time>
      </trkpt>
      <trkpt lat="49.36867" lon="-1.07751">
        <ele>13.4</ele>
        <time>2020-06-16T12:20:42Z</time>
      </trkpt>
      <trkpt lat="49.36867" lon="-1.07749">
        <ele>13.4</ele>
        <time>2020-06-16T12:20:43Z</time>
      </trkpt>
      <trkpt lat="49.36867" lon="-1.07748">
        <ele>13.4</ele>
        <time>2020-06-16T12:20:44Z</time>
      </trkpt>
      <trkpt lat="49.36868" lon="-1.07747">
        <ele>13.4</ele>
        <time>2020-06-16T12:20:45Z</time>
      </trkpt>
      <trkpt lat="49.36868" lon="-1.07746">
        <ele>13.4</ele>
        <time>2020-06-16T12:20:46Z</time>
      </trkpt>
      <trkpt lat="49.36869" lon="-1.07745">
        <ele>13.4</ele>
        <time>2020-06-16T12:20:47Z</time>
      </trkpt>
      <trkpt lat="49.36869" lon="-1.07744">
        <ele>13.4</ele>
        <time>2020-06-16T12:20:48Z</time>
      </trkpt>
      <trkpt lat="49.3687" lon="-1.07743">
        <ele>13.5</ele>
        <time>2020-06-16T12:20:49Z</time>
      </trkpt>
      <trkpt lat="49.3687" lon="-1.07742">
        <ele>13.5</ele>
        <time>2020-06-16T12:20:50Z</time>
      </trkpt>
      <trkpt lat="49.3687" lon="-1.07741">
        <ele>13.5</ele>
        <time>2020-06-16T12:20:51Z</time>
      </trkpt>
      <trkpt lat="49.3687" lon="-1.0774">
        <ele>13.5</ele>
        <time>2020-06-16T12:20:52Z</time>
      </trkpt>
      <trkpt lat="49.36871" lon="-1.07739">
        <ele>13.5</ele>
        <time>2020-06-16T12:20:53Z</time>
      </trkpt>
      <trkpt lat="49.36871" lon="-1.07738">
        <ele>13.5</ele>
        <time>2020-06-16T12:20:54Z</time>
      </trkpt>
      <trkpt lat="49.36871" lon="-1.07737">
        <ele>13.5</ele>
        <time>2020-06-16T12:20:55Z</time>
      </trkpt>
      <trkpt lat="49.36871" lon="-1.07736">
        <ele>13.5</ele>
        <time>2020-06-16T12:20:56Z</time>
      </trkpt>
      <trkpt lat="49.36872" lon="-1.0773">
        <ele>13.6</ele>
        <time>2020-06-16T12:20:57Z</time>
      </trkpt>
      <trkpt lat="49.36872" lon="-1.07728">
        <ele>13.6</ele>
        <time>2020-06-16T12:20:58Z</time>
      </trkpt>
      <trkpt lat="49.36872" lon="-1.07726">
        <ele>13.6</ele>
        <time>2020-06-16T12:20:59Z</time>
      </trkpt>
      <trkpt lat="49.36872" lon="-1.07723">
        <ele>13.6</ele>
        <time>2020-06-16T12:21:00Z</time>
      </trkpt>
      <trkpt lat="49.36872" lon="-1.0772">
        <ele>13.7</ele>
        <time>2020-06-16T12:21:01Z</time>
      </trkpt>
      <trkpt lat="49.36872" lon="-1.07718">
        <ele>13.7</ele>
        <time>2020-06-16T12:21:02Z</time>
      </trkpt>
      <trkpt lat="49.36872" lon="-1.07716">
        <ele>13.7</ele>
        <time>2020-06-16T12:21:03Z</time>
      </trkpt>
      <trkpt lat="49.36872" lon="-1.07713">
        <ele>13.7</ele>
        <time>2020-06-16T12:21:04Z</time>
      </trkpt>
      <trkpt lat="49.36872" lon="-1.07712">
        <ele>13.8</ele>
        <time>2020-06-16T12:21:05Z</time>
      </trkpt>
      <trkpt lat="49.36871" lon="-1.07713">
        <ele>13.8</ele>
        <time>2020-06-16T12:21:06Z</time>
      </trkpt>
      <trkpt lat="49.36871" lon="-1.07714">
        <ele>13.7</ele>
        <time>2020-06-16T12:21:07Z</time>
      </trkpt>
      <trkpt lat="49.36871" lon="-1.07714">
        <ele>13.7</ele>
        <time>2020-06-16T12:21:08Z</time>
      </trkpt>
      <trkpt lat="49.36871" lon="-1.07715">
        <ele>13.7</ele>
        <time>2020-06-16T12:21:09Z</time>
      </trkpt>
      <trkpt lat="49.36871" lon="-1.07716">
        <ele>13.7</ele>
        <time>2020-06-16T12:21:10Z</time>
      </trkpt>
      <trkpt lat="49.3687" lon="-1.07717">
        <ele>13.7</ele>
        <time>2020-06-16T12:21:11Z</time>
      </trkpt>
      <trkpt lat="49.3687" lon="-1.07718">
        <ele>13.7</ele>
        <time>2020-06-16T12:21:12Z</time>
      </trkpt>
      <trkpt lat="49.3687" lon="-1.07718">
        <ele>13.7</ele>
        <time>2020-06-16T12:21:13Z</time>
      </trkpt>
      <trkpt lat="49.36869" lon="-1.07721">
        <ele>13.7</ele>
        <time>2020-06-16T12:21:14Z</time>
      </trkpt>
      <trkpt lat="49.36869" lon="-1.07722">
        <ele>13.7</ele>
        <time>2020-06-16T12:21:15Z</time>
      </trkpt>
      <trkpt lat="49.36869" lon="-1.07722">
        <ele>13.7</ele>
        <time>2020-06-16T12:21:16Z</time>
      </trkpt>
      <trkpt lat="49.36869" lon="-1.07723">
        <ele>13.7</ele>
        <time>2020-06-16T12:21:17Z</time>
      </trkpt>
      <trkpt lat="49.36869" lon="-1.07727">
        <ele>13.6</ele>
        <time>2020-06-16T12:21:18Z</time>
      </trkpt>
      <trkpt lat="49.36869" lon="-1.07729">
        <ele>13.6</ele>
        <time>2020-06-16T12:21:19Z</time>
      </trkpt>
      <trkpt lat="49.36869" lon="-1.07731">
        <ele>13.6</ele>
        <time>2020-06-16T12:21:20Z</time>
      </trkpt>
      <trkpt lat="49.36868" lon="-1.07735">
        <ele>13.6</ele>
        <time>2020-06-16T12:21:21Z</time>
      </trkpt>
      <trkpt lat="49.36868" lon="-1.07736">
        <ele>13.6</ele>
        <time>2020-06-16T12:21:22Z</time>
      </trkpt>
      <trkpt lat="49.36868" lon="-1.07737">
        <ele>13.6</ele>
        <time>2020-06-16T12:21:23Z</time>
      </trkpt>
      <trkpt lat="49.36868" lon="-1.07738">
        <ele>13.6</ele>
        <time>2020-06-16T12:21:24Z</time>
      </trkpt>
      <trkpt lat="49.36868" lon="-1.07738">
        <ele>13.6</ele>
        <time>2020-06-16T12:21:25Z</time>
      </trkpt>
      <trkpt lat="49.36868" lon="-1.07739">
        <ele>13.6</ele>
        <time>2020-06-16T12:21:26Z</time>
      </trkpt>
      <trkpt lat="49.36868" lon="-1.07739">
        <ele>13.5</ele>
        <time>2020-06-16T12:21:27Z</time>
      </trkpt>
      <trkpt lat="49.36868" lon="-1.0774">
        <ele>13.5</ele>
        <time>2020-06-16T12:21:28Z</time>
      </trkpt>
      <trkpt lat="49.36867" lon="-1.0774">
        <ele>13.5</ele>
        <time>2020-06-16T12:21:29Z</time>
      </trkpt>
      <trkpt lat="49.36867" lon="-1.0774">
        <ele>13.5</ele>
        <time>2020-06-16T12:21:30Z</time>
      </trkpt>
      <trkpt lat="49.36867" lon="-1.07741">
        <ele>13.5</ele>
        <time>2020-06-16T12:21:31Z</time>
      </trkpt>
      <trkpt lat="49.36867" lon="-1.07741">
        <ele>13.5</ele>
        <time>2020-06-16T12:21:32Z</time>
      </trkpt>
      <trkpt lat="49.36867" lon="-1.07742">
        <ele>13.5</ele>
        <time>2020-06-16T12:21:33Z</time>
      </trkpt>
      <trkpt lat="49.36867" lon="-1.07742">
        <ele>13.5</ele>
        <time>2020-06-16T12:21:34Z</time>
      </trkpt>
      <trkpt lat="49.36867" lon="-1.07743">
        <ele>13.5</ele>
        <time>2020-06-16T12:21:35Z</time>
      </trkpt>
      <trkpt lat="49.36867" lon="-1.07744">
        <ele>13.4</ele>
        <time>2020-06-16T12:21:36Z</time>
      </trkpt>
      <trkpt lat="49.36867" lon="-1.07745">
        <ele>13.4</ele>
        <time>2020-06-16T12:21:37Z</time>
      </trkpt>
      <trkpt lat="49.36867" lon="-1.07745">
        <ele>13.4</ele>
        <time>2020-06-16T12:21:38Z</time>
      </trkpt>
      <trkpt lat="49.36867" lon="-1.07746">
        <ele>13.4</ele>
        <time>2020-06-16T12:21:39Z</time>
      </trkpt>
      <trkpt lat="49.36867" lon="-1.07745">
        <ele>13.4</ele>
        <time>2020-06-16T12:21:40Z</time>
      </trkpt>
      <trkpt lat="49.36867" lon="-1.07744">
        <ele>13.4</ele>
        <time>2020-06-16T12:21:41Z</time>
      </trkpt>
      <trkpt lat="49.36867" lon="-1.07743">
        <ele>13.5</ele>
        <time>2020-06-16T12:21:42Z</time>
      </trkpt>
      <trkpt lat="49.36867" lon="-1.07743">
        <ele>13.5</ele>
        <time>2020-06-16T12:21:43Z</time>
      </trkpt>
      <trkpt lat="49.36867" lon="-1.07743">
        <ele>13.5</ele>
        <time>2020-06-16T12:21:44Z</time>
      </trkpt>
      <trkpt lat="49.36867" lon="-1.07744">
        <ele>13.4</ele>
        <time>2020-06-16T12:21:45Z</time>
      </trkpt>
      <trkpt lat="49.36867" lon="-1.07745">
        <ele>13.4</ele>
        <time>2020-06-16T12:21:46Z</time>
      </trkpt>
      <trkpt lat="49.36866" lon="-1.07745">
        <ele>13.4</ele>
        <time>2020-06-16T12:21:47Z</time>
      </trkpt>
      <trkpt lat="49.36866" lon="-1.07746">
        <ele>13.4</ele>
        <time>2020-06-16T12:21:48Z</time>
      </trkpt>
      <trkpt lat="49.36866" lon="-1.07748">
        <ele>13.4</ele>
        <time>2020-06-16T12:21:49Z</time>
      </trkpt>
      <trkpt lat="49.36865" lon="-1.07749">
        <ele>13.4</ele>
        <time>2020-06-16T12:21:50Z</time>
      </trkpt>
      <trkpt lat="49.36864" lon="-1.0775">
        <ele>13.4</ele>
        <time>2020-06-16T12:21:51Z</time>
      </trkpt>
      <trkpt lat="49.36864" lon="-1.07751">
        <ele>13.4</ele>
        <time>2020-06-16T12:21:52Z</time>
      </trkpt>
      <trkpt lat="49.36863" lon="-1.07752">
        <ele>13.3</ele>
        <time>2020-06-16T12:21:53Z</time>
      </trkpt>
      <trkpt lat="49.36863" lon="-1.07753">
        <ele>13.4</ele>
        <time>2020-06-16T12:21:54Z</time>
      </trkpt>
      <trkpt lat="49.36862" lon="-1.07754">
        <ele>13.4</ele>
        <time>2020-06-16T12:21:55Z</time>
      </trkpt>
      <trkpt lat="49.36861" lon="-1.07755">
        <ele>13.4</ele>
        <time>2020-06-16T12:22:14Z</time>
      </trkpt>
      <trkpt lat="49.36861" lon="-1.07757">
        <ele>13.3</ele>
        <time>2020-06-16T12:22:15Z</time>
      </trkpt>
      <trkpt lat="49.3686" lon="-1.07758">
        <ele>13.3</ele>
        <time>2020-06-16T12:22:16Z</time>
      </trkpt>
      <trkpt lat="49.36859" lon="-1.07759">
        <ele>13.3</ele>
        <time>2020-06-16T12:22:17Z</time>
      </trkpt>
      <trkpt lat="49.36859" lon="-1.07758">
        <ele>13.3</ele>
        <time>2020-06-16T12:22:18Z</time>
      </trkpt>
      <trkpt lat="49.36858" lon="-1.07757">
        <ele>13.3</ele>
        <time>2020-06-16T12:22:19Z</time>
      </trkpt>
      <trkpt lat="49.36857" lon="-1.07756">
        <ele>13.3</ele>
        <time>2020-06-16T12:22:20Z</time>
      </trkpt>
      <trkpt lat="49.36857" lon="-1.07756">
        <ele>13.3</ele>
        <time>2020-06-16T12:22:21Z</time>
      </trkpt>
      <trkpt lat="49.36857" lon="-1.07756">
        <ele>13.3</ele>
        <time>2020-06-16T12:22:22Z</time>
      </trkpt>
      <trkpt lat="49.36857" lon="-1.07757">
        <ele>13.3</ele>
        <time>2020-06-16T12:22:23Z</time>
      </trkpt>
      <trkpt lat="49.36857" lon="-1.07757">
        <ele>13.3</ele>
        <time>2020-06-16T12:22:24Z</time>
      </trkpt>
      <trkpt lat="49.36857" lon="-1.07757">
        <ele>13.3</ele>
        <time>2020-06-16T12:22:25Z</time>
      </trkpt>
      <trkpt lat="49.36857" lon="-1.07756">
        <ele>13.4</ele>
        <time>2020-06-16T12:22:26Z</time>
      </trkpt>
      <trkpt lat="49.36857" lon="-1.07756">
        <ele>13.4</ele>
        <time>2020-06-16T12:22:27Z</time>
      </trkpt>
      <trkpt lat="49.36857" lon="-1.07756">
        <ele>13.3</ele>
        <time>2020-06-16T12:22:28Z</time>
      </trkpt>
      <trkpt lat="49.36857" lon="-1.07757">
        <ele>13.3</ele>
        <time>2020-06-16T12:22:29Z</time>
      </trkpt>
      <trkpt lat="49.36857" lon="-1.07757">
        <ele>13.3</ele>
        <time>2020-06-16T12:22:30Z</time>
      </trkpt>
      <trkpt lat="49.36857" lon="-1.07757">
        <ele>13.3</ele>
        <time>2020-06-16T12:22:31Z</time>
      </trkpt>
      <trkpt lat="49.36856" lon="-1.07758">
        <ele>13.3</ele>
        <time>2020-06-16T12:22:32Z</time>
      </trkpt>
      <trkpt lat="49.36856" lon="-1.07758">
        <ele>13.3</ele>
        <time>2020-06-16T12:22:33Z</time>
      </trkpt>
      <trkpt lat="49.36856" lon="-1.07759">
        <ele>13.3</ele>
        <time>2020-06-16T12:22:34Z</time>
      </trkpt>
      <trkpt lat="49.36856" lon="-1.0776">
        <ele>13.3</ele>
        <time>2020-06-16T12:22:35Z</time>
      </trkpt>
      <trkpt lat="49.36856" lon="-1.07761">
        <ele>13.3</ele>
        <time>2020-06-16T12:22:36Z</time>
      </trkpt>
      <trkpt lat="49.36856" lon="-1.07763">
        <ele>13.3</ele>
        <time>2020-06-16T12:22:37Z</time>
      </trkpt>
      <trkpt lat="49.36856" lon="-1.07763">
        <ele>13.3</ele>
        <time>2020-06-16T12:22:38Z</time>
      </trkpt>
      <trkpt lat="49.36856" lon="-1.07763">
        <ele>13.3</ele>
        <time>2020-06-16T12:22:39Z</time>
      </trkpt>
      <trkpt lat="49.36855" lon="-1.07763">
        <ele>13.3</ele>
        <time>2020-06-16T12:22:40Z</time>
      </trkpt>
      <trkpt lat="49.36855" lon="-1.07762">
        <ele>13.3</ele>
        <time>2020-06-16T12:22:41Z</time>
      </trkpt>
      <trkpt lat="49.36855" lon="-1.07763">
        <ele>13.3</ele>
        <time>2020-06-16T12:22:42Z</time>
      </trkpt>
      <trkpt lat="49.36855" lon="-1.07762">
        <ele>13.3</ele>
        <time>2020-06-16T12:22:43Z</time>
      </trkpt>
      <trkpt lat="49.36855" lon="-1.07762">
        <ele>13.3</ele>
        <time>2020-06-16T12:22:44Z</time>
      </trkpt>
      <trkpt lat="49.36855" lon="-1.07762">
        <ele>13.3</ele>
        <time>2020-06-16T12:22:45Z</time>
      </trkpt>
      <trkpt lat="49.36855" lon="-1.07762">
        <ele>13.3</ele>
        <time>2020-06-16T12:22:46Z</time>
      </trkpt>
      <trkpt lat="49.36855" lon="-1.07763">
        <ele>13.3</ele>
        <time>2020-06-16T12:22:47Z</time>
      </trkpt>
      <trkpt lat="49.36856" lon="-1.07764">
        <ele>13.3</ele>
        <time>2020-06-16T12:22:48Z</time>
      </trkpt>
      <trkpt lat="49.36855" lon="-1.07764">
        <ele>13.3</ele>
        <time>2020-06-16T12:22:49Z</time>
      </trkpt>
      <trkpt lat="49.36855" lon="-1.07764">
        <ele>13.3</ele>
        <time>2020-06-16T12:22:50Z</time>
      </trkpt>
      <trkpt lat="49.36856" lon="-1.07765">
        <ele>13.3</ele>
        <time>2020-06-16T12:22:51Z</time>
      </trkpt>
      <trkpt lat="49.36856" lon="-1.07766">
        <ele>13.2</ele>
        <time>2020-06-16T12:22:52Z</time>
      </trkpt>
      <trkpt lat="49.36856" lon="-1.07767">
        <ele>13.2</ele>
        <time>2020-06-16T12:22:53Z</time>
      </trkpt>
      <trkpt lat="49.36856" lon="-1.07767">
        <ele>13.2</ele>
        <time>2020-06-16T12:22:54Z</time>
      </trkpt>
      <trkpt lat="49.36855" lon="-1.07765">
        <ele>13.3</ele>
        <time>2020-06-16T12:23:05Z</time>
      </trkpt>
      <trkpt lat="49.36855" lon="-1.07764">
        <ele>13.3</ele>
        <time>2020-06-16T12:23:06Z</time>
      </trkpt>
      <trkpt lat="49.36854" lon="-1.07764">
        <ele>13.3</ele>
        <time>2020-06-16T12:23:07Z</time>
      </trkpt>
      <trkpt lat="49.36854" lon="-1.07763">
        <ele>13.3</ele>
        <time>2020-06-16T12:23:08Z</time>
      </trkpt>
      <trkpt lat="49.36854" lon="-1.07763">
        <ele>13.3</ele>
        <time>2020-06-16T12:23:09Z</time>
      </trkpt>
      <trkpt lat="49.36855" lon="-1.07763">
        <ele>13.3</ele>
        <time>2020-06-16T12:23:10Z</time>
      </trkpt>
      <trkpt lat="49.36855" lon="-1.07763">
        <ele>13.3</ele>
        <time>2020-06-16T12:23:11Z</time>
      </trkpt>
      <trkpt lat="49.36855" lon="-1.07764">
        <ele>13.3</ele>
        <time>2020-06-16T12:23:12Z</time>
      </trkpt>
      <trkpt lat="49.36855" lon="-1.07763">
        <ele>13.3</ele>
        <time>2020-06-16T12:23:13Z</time>
      </trkpt>
      <trkpt lat="49.36854" lon="-1.07762">
        <ele>13.3</ele>
        <time>2020-06-16T12:23:14Z</time>
      </trkpt>
      <trkpt lat="49.36854" lon="-1.07761">
        <ele>13.3</ele>
        <time>2020-06-16T12:23:15Z</time>
      </trkpt>
      <trkpt lat="49.36854" lon="-1.0776">
        <ele>13.4</ele>
        <time>2020-06-16T12:23:16Z</time>
      </trkpt>
      <trkpt lat="49.36854" lon="-1.0776">
        <ele>13.4</ele>
        <time>2020-06-16T12:23:17Z</time>
      </trkpt>
      <trkpt lat="49.36854" lon="-1.07759">
        <ele>13.4</ele>
        <time>2020-06-16T12:23:18Z</time>
      </trkpt>
      <trkpt lat="49.36854" lon="-1.07759">
        <ele>13.4</ele>
        <time>2020-06-16T12:23:19Z</time>
      </trkpt>
      <trkpt lat="49.36853" lon="-1.07758">
        <ele>13.4</ele>
        <time>2020-06-16T12:23:20Z</time>
      </trkpt>
      <trkpt lat="49.36853" lon="-1.07758">
        <ele>13.4</ele>
        <time>2020-06-16T12:23:21Z</time>
      </trkpt>
      <trkpt lat="49.36853" lon="-1.07757">
        <ele>13.4</ele>
        <time>2020-06-16T12:23:22Z</time>
      </trkpt>
      <trkpt lat="49.36853" lon="-1.07756">
        <ele>13.4</ele>
        <time>2020-06-16T12:23:23Z</time>
      </trkpt>
      <trkpt lat="49.36852" lon="-1.07754">
        <ele>13.4</ele>
        <time>2020-06-16T12:23:24Z</time>
      </trkpt>
      <trkpt lat="49.36851" lon="-1.07753">
        <ele>13.5</ele>
        <time>2020-06-16T12:23:25Z</time>
      </trkpt>
      <trkpt lat="49.36851" lon="-1.07752">
        <ele>13.5</ele>
        <time>2020-06-16T12:23:26Z</time>
      </trkpt>
      <trkpt lat="49.36851" lon="-1.07751">
        <ele>13.5</ele>
        <time>2020-06-16T12:23:27Z</time>
      </trkpt>
      <trkpt lat="49.36851" lon="-1.07752">
        <ele>13.5</ele>
        <time>2020-06-16T12:23:28Z</time>
      </trkpt>
      <trkpt lat="49.36852" lon="-1.07752">
        <ele>13.5</ele>
        <time>2020-06-16T12:23:29Z</time>
      </trkpt>
      <trkpt lat="49.36852" lon="-1.07752">
        <ele>13.5</ele>
        <time>2020-06-16T12:23:30Z</time>
      </trkpt>
      <trkpt lat="49.36853" lon="-1.07752">
        <ele>13.4</ele>
        <time>2020-06-16T12:23:31Z</time>
      </trkpt>
      <trkpt lat="49.36853" lon="-1.07751">
        <ele>13.5</ele>
        <time>2020-06-16T12:23:32Z</time>
      </trkpt>
      <trkpt lat="49.36853" lon="-1.07752">
        <ele>13.5</ele>
        <time>2020-06-16T12:23:33Z</time>
      </trkpt>
      <trkpt lat="49.36853" lon="-1.07756">
        <ele>13.4</ele>
        <time>2020-06-16T12:23:34Z</time>
      </trkpt>
      <trkpt lat="49.36853" lon="-1.07757">
        <ele>13.4</ele>
        <time>2020-06-16T12:23:35Z</time>
      </trkpt>
      <trkpt lat="49.36852" lon="-1.07758">
        <ele>13.4</ele>
        <time>2020-06-16T12:23:36Z</time>
      </trkpt>
      <trkpt lat="49.36852" lon="-1.07758">
        <ele>13.4</ele>
        <time>2020-06-16T12:23:37Z</time>
      </trkpt>
      <trkpt lat="49.36852" lon="-1.07757">
        <ele>13.4</ele>
        <time>2020-06-16T12:23:38Z</time>
      </trkpt>
      <trkpt lat="49.36851" lon="-1.07755">
        <ele>13.5</ele>
        <time>2020-06-16T12:23:39Z</time>
      </trkpt>
      <trkpt lat="49.36851" lon="-1.07754">
        <ele>13.5</ele>
        <time>2020-06-16T12:23:40Z</time>
      </trkpt>
      <trkpt lat="49.3685" lon="-1.07753">
        <ele>13.5</ele>
        <time>2020-06-16T12:23:41Z</time>
      </trkpt>
      <trkpt lat="49.3685" lon="-1.07752">
        <ele>13.5</ele>
        <time>2020-06-16T12:23:42Z</time>
      </trkpt>
      <trkpt lat="49.36849" lon="-1.07751">
        <ele>13.5</ele>
        <time>2020-06-16T12:23:43Z</time>
      </trkpt>
      <trkpt lat="49.36849" lon="-1.07751">
        <ele>13.5</ele>
        <time>2020-06-16T12:23:44Z</time>
      </trkpt>
      <trkpt lat="49.36849" lon="-1.07752">
        <ele>13.5</ele>
        <time>2020-06-16T12:23:45Z</time>
      </trkpt>
      <trkpt lat="49.36849" lon="-1.07753">
        <ele>13.5</ele>
        <time>2020-06-16T12:23:46Z</time>
      </trkpt>
      <trkpt lat="49.36851" lon="-1.07755">
        <ele>13.5</ele>
        <time>2020-06-16T12:23:47Z</time>
      </trkpt>
      <trkpt lat="49.36852" lon="-1.07756">
        <ele>13.4</ele>
        <time>2020-06-16T12:23:48Z</time>
      </trkpt>
      <trkpt lat="49.36852" lon="-1.07757">
        <ele>13.4</ele>
        <time>2020-06-16T12:23:49Z</time>
      </trkpt>
      <trkpt lat="49.36852" lon="-1.07758">
        <ele>13.4</ele>
        <time>2020-06-16T12:23:50Z</time>
      </trkpt>
      <trkpt lat="49.36853" lon="-1.07758">
        <ele>13.4</ele>
        <time>2020-06-16T12:23:51Z</time>
      </trkpt>
      <trkpt lat="49.36853" lon="-1.07758">
        <ele>13.4</ele>
        <time>2020-06-16T12:23:52Z</time>
      </trkpt>
      <trkpt lat="49.36853" lon="-1.07759">
        <ele>13.4</ele>
        <time>2020-06-16T12:23:53Z</time>
      </trkpt>
      <trkpt lat="49.36854" lon="-1.0776">
        <ele>13.4</ele>
        <time>2020-06-16T12:23:54Z</time>
      </trkpt>
      <trkpt lat="49.36856" lon="-1.07763">
        <ele>13.3</ele>
        <time>2020-06-16T12:23:55Z</time>
      </trkpt>
      <trkpt lat="49.36857" lon="-1.07764">
        <ele>13.3</ele>
        <time>2020-06-16T12:23:56Z</time>
      </trkpt>
      <trkpt lat="49.36857" lon="-1.07765">
        <ele>13.2</ele>
        <time>2020-06-16T12:23:57Z</time>
      </trkpt>
      <trkpt lat="49.36858" lon="-1.07765">
        <ele>13.2</ele>
        <time>2020-06-16T12:23:58Z</time>
      </trkpt>
      <trkpt lat="49.36858" lon="-1.07766">
        <ele>13.2</ele>
        <time>2020-06-16T12:23:59Z</time>
      </trkpt>
      <trkpt lat="49.36859" lon="-1.07765">
        <ele>13.2</ele>
        <time>2020-06-16T12:24:00Z</time>
      </trkpt>
      <trkpt lat="49.3686" lon="-1.07765">
        <ele>13.2</ele>
        <time>2020-06-16T12:24:01Z</time>
      </trkpt>
      <trkpt lat="49.36861" lon="-1.07765">
        <ele>13.2</ele>
        <time>2020-06-16T12:24:02Z</time>
      </trkpt>
      <trkpt lat="49.36863" lon="-1.07764">
        <ele>13.2</ele>
        <time>2020-06-16T12:24:03Z</time>
      </trkpt>
      <trkpt lat="49.36864" lon="-1.07764">
        <ele>13.2</ele>
        <time>2020-06-16T12:24:04Z</time>
      </trkpt>
      <trkpt lat="49.36865" lon="-1.07764">
        <ele>13.2</ele>
        <time>2020-06-16T12:24:05Z</time>
      </trkpt>
      <trkpt lat="49.36868" lon="-1.07762">
        <ele>13.2</ele>
        <time>2020-06-16T12:24:06Z</time>
      </trkpt>
      <trkpt lat="49.3687" lon="-1.07761">
        <ele>13.2</ele>
        <time>2020-06-16T12:24:07Z</time>
      </trkpt>
      <trkpt lat="49.36871" lon="-1.0776">
        <ele>13.2</ele>
        <time>2020-06-16T12:24:08Z</time>
      </trkpt>
      <trkpt lat="49.36873" lon="-1.07759">
        <ele>13.2</ele>
        <time>2020-06-16T12:24:09Z</time>
      </trkpt>
      <trkpt lat="49.36874" lon="-1.07757">
        <ele>13.2</ele>
        <time>2020-06-16T12:24:10Z</time>
      </trkpt>
      <trkpt lat="49.36874" lon="-1.07756">
        <ele>13.2</ele>
        <time>2020-06-16T12:24:11Z</time>
      </trkpt>
      <trkpt lat="49.36875" lon="-1.07755">
        <ele>13.2</ele>
        <time>2020-06-16T12:24:12Z</time>
      </trkpt>
      <trkpt lat="49.36876" lon="-1.07754">
        <ele>13.2</ele>
        <time>2020-06-16T12:24:13Z</time>
      </trkpt>
      <trkpt lat="49.36877" lon="-1.07753">
        <ele>13.2</ele>
        <time>2020-06-16T12:24:14Z</time>
      </trkpt>
      <trkpt lat="49.36877" lon="-1.07753">
        <ele>13.2</ele>
        <time>2020-06-16T12:24:15Z</time>
      </trkpt>
      <trkpt lat="49.36877" lon="-1.07753">
        <ele>13.2</ele>
        <time>2020-06-16T12:24:16Z</time>
      </trkpt>
      <trkpt lat="49.36877" lon="-1.07753">
        <ele>13.2</ele>
        <time>2020-06-16T12:24:17Z</time>
      </trkpt>
      <trkpt lat="49.36878" lon="-1.07753">
        <ele>13.2</ele>
        <time>2020-06-16T12:24:18Z</time>
      </trkpt>
      <trkpt lat="49.36879" lon="-1.07753">
        <ele>13.2</ele>
        <time>2020-06-16T12:24:19Z</time>
      </trkpt>
      <trkpt lat="49.36879" lon="-1.07753">
        <ele>13.2</ele>
        <time>2020-06-16T12:24:20Z</time>
      </trkpt>
      <trkpt lat="49.3688" lon="-1.07753">
        <ele>13.2</ele>
        <time>2020-06-16T12:24:21Z</time>
      </trkpt>
      <trkpt lat="49.3688" lon="-1.07753">
        <ele>13.2</ele>
        <time>2020-06-16T12:24:22Z</time>
      </trkpt>
      <trkpt lat="49.36881" lon="-1.07752">
        <ele>13.2</ele>
        <time>2020-06-16T12:24:23Z</time>
      </trkpt>
      <trkpt lat="49.36882" lon="-1.07751">
        <ele>13.2</ele>
        <time>2020-06-16T12:24:24Z</time>
      </trkpt>
      <trkpt lat="49.36884" lon="-1.07749">
        <ele>13.2</ele>
        <time>2020-06-16T12:24:25Z</time>
      </trkpt>
      <trkpt lat="49.36885" lon="-1.07748">
        <ele>13.2</ele>
        <time>2020-06-16T12:24:26Z</time>
      </trkpt>
      <trkpt lat="49.36886" lon="-1.07748">
        <ele>13.2</ele>
        <time>2020-06-16T12:24:27Z</time>
      </trkpt>
      <trkpt lat="49.36886" lon="-1.07747">
        <ele>13.3</ele>
        <time>2020-06-16T12:24:28Z</time>
      </trkpt>
      <trkpt lat="49.36887" lon="-1.07747">
        <ele>13.3</ele>
        <time>2020-06-16T12:24:29Z</time>
      </trkpt>
      <trkpt lat="49.36888" lon="-1.07747">
        <ele>13.3</ele>
        <time>2020-06-16T12:24:30Z</time>
      </trkpt>
      <trkpt lat="49.36889" lon="-1.07747">
        <ele>13.3</ele>
        <time>2020-06-16T12:24:31Z</time>
      </trkpt>
      <trkpt lat="49.3689" lon="-1.07746">
        <ele>13.3</ele>
        <time>2020-06-16T12:24:32Z</time>
      </trkpt>
      <trkpt lat="49.36891" lon="-1.07746">
        <ele>13.2</ele>
        <time>2020-06-16T12:24:33Z</time>
      </trkpt>
      <trkpt lat="49.36891" lon="-1.07745">
        <ele>13.2</ele>
        <time>2020-06-16T12:24:34Z</time>
      </trkpt>
      <trkpt lat="49.36892" lon="-1.07745">
        <ele>13.2</ele>
        <time>2020-06-16T12:24:35Z</time>
      </trkpt>
      <trkpt lat="49.36893" lon="-1.07744">
        <ele>13.2</ele>
        <time>2020-06-16T12:24:36Z</time>
      </trkpt>
      <trkpt lat="49.36893" lon="-1.07743">
        <ele>13.2</ele>
        <time>2020-06-16T12:24:37Z</time>
      </trkpt>
      <trkpt lat="49.36894" lon="-1.07743">
        <ele>13.3</ele>
        <time>2020-06-16T12:24:38Z</time>
      </trkpt>
      <trkpt lat="49.36894" lon="-1.07744">
        <ele>13.2</ele>
        <time>2020-06-16T12:24:39Z</time>
      </trkpt>
      <trkpt lat="49.36892" lon="-1.07747">
        <ele>13.2</ele>
        <time>2020-06-16T12:24:40Z</time>
      </trkpt>
      <trkpt lat="49.36892" lon="-1.07748">
        <ele>13.2</ele>
        <time>2020-06-16T12:24:41Z</time>
      </trkpt>
      <trkpt lat="49.36892" lon="-1.07747">
        <ele>13.2</ele>
        <time>2020-06-16T12:24:42Z</time>
      </trkpt>
      <trkpt lat="49.36891" lon="-1.07747">
        <ele>13.2</ele>
        <time>2020-06-16T12:24:43Z</time>
      </trkpt>
      <trkpt lat="49.36891" lon="-1.07748">
        <ele>13.2</ele>
        <time>2020-06-16T12:24:44Z</time>
      </trkpt>
      <trkpt lat="49.3689" lon="-1.07749">
        <ele>13.2</ele>
        <time>2020-06-16T12:24:45Z</time>
      </trkpt>
      <trkpt lat="49.3689" lon="-1.07749">
        <ele>13.2</ele>
        <time>2020-06-16T12:24:46Z</time>
      </trkpt>
      <trkpt lat="49.3689" lon="-1.0775">
        <ele>13.2</ele>
        <time>2020-06-16T12:24:47Z</time>
      </trkpt>
      <trkpt lat="49.3689" lon="-1.0775">
        <ele>13.2</ele>
        <time>2020-06-16T12:24:48Z</time>
      </trkpt>
      <trkpt lat="49.3689" lon="-1.07749">
        <ele>13.2</ele>
        <time>2020-06-16T12:24:49Z</time>
      </trkpt>
      <trkpt lat="49.3689" lon="-1.07749">
        <ele>13.2</ele>
        <time>2020-06-16T12:24:50Z</time>
      </trkpt>
      <trkpt lat="49.3689" lon="-1.07749">
        <ele>13.2</ele>
        <time>2020-06-16T12:24:51Z</time>
      </trkpt>
      <trkpt lat="49.3689" lon="-1.07749">
        <ele>13.2</ele>
        <time>2020-06-16T12:24:52Z</time>
      </trkpt>
      <trkpt lat="49.36889" lon="-1.07748">
        <ele>13.2</ele>
        <time>2020-06-16T12:24:53Z</time>
      </trkpt>
      <trkpt lat="49.36889" lon="-1.07747">
        <ele>13.3</ele>
        <time>2020-06-16T12:24:54Z</time>
      </trkpt>
      <trkpt lat="49.36889" lon="-1.07746">
        <ele>13.3</ele>
        <time>2020-06-16T12:24:55Z</time>
      </trkpt>
      <trkpt lat="49.36889" lon="-1.07744">
        <ele>13.3</ele>
        <time>2020-06-16T12:24:56Z</time>
      </trkpt>
      <trkpt lat="49.36888" lon="-1.07743">
        <ele>13.3</ele>
        <time>2020-06-16T12:24:57Z</time>
      </trkpt>
      <trkpt lat="49.36888" lon="-1.07741">
        <ele>13.3</ele>
        <time>2020-06-16T12:24:58Z</time>
      </trkpt>
      <trkpt lat="49.36888" lon="-1.0774">
        <ele>13.3</ele>
        <time>2020-06-16T12:24:59Z</time>
      </trkpt>
      <trkpt lat="49.36888" lon="-1.07739">
        <ele>13.4</ele>
        <time>2020-06-16T12:25:00Z</time>
      </trkpt>
      <trkpt lat="49.36888" lon="-1.07738">
        <ele>13.4</ele>
        <time>2020-06-16T12:25:01Z</time>
      </trkpt>
      <trkpt lat="49.36887" lon="-1.07739">
        <ele>13.3</ele>
        <time>2020-06-16T12:25:02Z</time>
      </trkpt>
      <trkpt lat="49.36887" lon="-1.07739">
        <ele>13.3</ele>
        <time>2020-06-16T12:25:03Z</time>
      </trkpt>
      <trkpt lat="49.36887" lon="-1.0774">
        <ele>13.3</ele>
        <time>2020-06-16T12:25:04Z</time>
      </trkpt>
      <trkpt lat="49.36887" lon="-1.07741">
        <ele>13.3</ele>
        <time>2020-06-16T12:25:05Z</time>
      </trkpt>
      <trkpt lat="49.36887" lon="-1.07742">
        <ele>13.3</ele>
        <time>2020-06-16T12:25:06Z</time>
      </trkpt>
      <trkpt lat="49.36887" lon="-1.07744">
        <ele>13.3</ele>
        <time>2020-06-16T12:25:07Z</time>
      </trkpt>
      <trkpt lat="49.36886" lon="-1.07745">
        <ele>13.3</ele>
        <time>2020-06-16T12:25:08Z</time>
      </trkpt>
      <trkpt lat="49.36887" lon="-1.07745">
        <ele>13.3</ele>
        <time>2020-06-16T12:25:09Z</time>
      </trkpt>
      <trkpt lat="49.36886" lon="-1.07746">
        <ele>13.3</ele>
        <time>2020-06-16T12:25:10Z</time>
      </trkpt>
      <trkpt lat="49.36886" lon="-1.07746">
        <ele>13.3</ele>
        <time>2020-06-16T12:25:11Z</time>
      </trkpt>
      <trkpt lat="49.36886" lon="-1.07745">
        <ele>13.3</ele>
        <time>2020-06-16T12:25:12Z</time>
      </trkpt>
      <trkpt lat="49.36886" lon="-1.07745">
        <ele>13.3</ele>
        <time>2020-06-16T12:25:13Z</time>
      </trkpt>
      <trkpt lat="49.36886" lon="-1.07744">
        <ele>13.3</ele>
        <time>2020-06-16T12:25:14Z</time>
      </trkpt>
      <trkpt lat="49.36886" lon="-1.07744">
        <ele>13.3</ele>
        <time>2020-06-16T12:25:15Z</time>
      </trkpt>
      <trkpt lat="49.36886" lon="-1.07743">
        <ele>13.3</ele>
        <time>2020-06-16T12:25:16Z</time>
      </trkpt>
      <trkpt lat="49.36886" lon="-1.07742">
        <ele>13.3</ele>
        <time>2020-06-16T12:25:17Z</time>
      </trkpt>
      <trkpt lat="49.36886" lon="-1.07741">
        <ele>13.3</ele>
        <time>2020-06-16T12:25:18Z</time>
      </trkpt>
      <trkpt lat="49.36886" lon="-1.0774">
        <ele>13.3</ele>
        <time>2020-06-16T12:25:19Z</time>
      </trkpt>
      <trkpt lat="49.36886" lon="-1.0774">
        <ele>13.3</ele>
        <time>2020-06-16T12:25:20Z</time>
      </trkpt>
      <trkpt lat="49.36887" lon="-1.0774">
        <ele>13.3</ele>
        <time>2020-06-16T12:25:21Z</time>
      </trkpt>
      <trkpt lat="49.36887" lon="-1.07739">
        <ele>13.3</ele>
        <time>2020-06-16T12:25:22Z</time>
      </trkpt>
      <trkpt lat="49.36886" lon="-1.07739">
        <ele>13.3</ele>
        <time>2020-06-16T12:25:23Z</time>
      </trkpt>
      <trkpt lat="49.36886" lon="-1.07739">
        <ele>13.4</ele>
        <time>2020-06-16T12:25:24Z</time>
      </trkpt>
      <trkpt lat="49.36885" lon="-1.07739">
        <ele>13.3</ele>
        <time>2020-06-16T12:25:25Z</time>
      </trkpt>
      <trkpt lat="49.36885" lon="-1.0774">
        <ele>13.3</ele>
        <time>2020-06-16T12:25:26Z</time>
      </trkpt>
      <trkpt lat="49.36885" lon="-1.07742">
        <ele>13.3</ele>
        <time>2020-06-16T12:25:27Z</time>
      </trkpt>
      <trkpt lat="49.36885" lon="-1.07744">
        <ele>13.3</ele>
        <time>2020-06-16T12:25:28Z</time>
      </trkpt>
      <trkpt lat="49.36884" lon="-1.07744">
        <ele>13.3</ele>
        <time>2020-06-16T12:25:29Z</time>
      </trkpt>
      <trkpt lat="49.36884" lon="-1.07743">
        <ele>13.3</ele>
        <time>2020-06-16T12:25:30Z</time>
      </trkpt>
      <trkpt lat="49.36884" lon="-1.07743">
        <ele>13.4</ele>
        <time>2020-06-16T12:25:31Z</time>
      </trkpt>
      <trkpt lat="49.36884" lon="-1.07743">
        <ele>13.4</ele>
        <time>2020-06-16T12:25:32Z</time>
      </trkpt>
      <trkpt lat="49.36884" lon="-1.07743">
        <ele>13.4</ele>
        <time>2020-06-16T12:25:33Z</time>
      </trkpt>
      <trkpt lat="49.36885" lon="-1.07742">
        <ele>13.4</ele>
        <time>2020-06-16T12:25:34Z</time>
      </trkpt>
      <trkpt lat="49.36885" lon="-1.07741">
        <ele>13.3</ele>
        <time>2020-06-16T12:25:35Z</time>
      </trkpt>
      <trkpt lat="49.36885" lon="-1.0774">
        <ele>13.3</ele>
        <time>2020-06-16T12:25:36Z</time>
      </trkpt>
      <trkpt lat="49.36885" lon="-1.0774">
        <ele>13.3</ele>
        <time>2020-06-16T12:25:37Z</time>
      </trkpt>
      <trkpt lat="49.36886" lon="-1.07739">
        <ele>13.3</ele>
        <time>2020-06-16T12:25:38Z</time>
      </trkpt>
      <trkpt lat="49.36886" lon="-1.07739">
        <ele>13.3</ele>
        <time>2020-06-16T12:25:39Z</time>
      </trkpt>
      <trkpt lat="49.36886" lon="-1.07739">
        <ele>13.3</ele>
        <time>2020-06-16T12:25:40Z</time>
      </trkpt>
      <trkpt lat="49.36886" lon="-1.07739">
        <ele>13.3</ele>
        <time>2020-06-16T12:25:41Z</time>
      </trkpt>
      <trkpt lat="49.36886" lon="-1.07739">
        <ele>13.4</ele>
        <time>2020-06-16T12:25:42Z</time>
      </trkpt>
      <trkpt lat="49.36886" lon="-1.07739">
        <ele>13.4</ele>
        <time>2020-06-16T12:25:43Z</time>
      </trkpt>
      <trkpt lat="49.36887" lon="-1.07738">
        <ele>13.4</ele>
        <time>2020-06-16T12:25:44Z</time>
      </trkpt>
      <trkpt lat="49.36887" lon="-1.07737">
        <ele>13.4</ele>
        <time>2020-06-16T12:25:45Z</time>
      </trkpt>
      <trkpt lat="49.36887" lon="-1.07738">
        <ele>13.4</ele>
        <time>2020-06-16T12:25:46Z</time>
      </trkpt>
      <trkpt lat="49.36887" lon="-1.07737">
        <ele>13.4</ele>
        <time>2020-06-16T12:25:47Z</time>
      </trkpt>
      <trkpt lat="49.36886" lon="-1.07736">
        <ele>13.4</ele>
        <time>2020-06-16T12:25:48Z</time>
      </trkpt>
      <trkpt lat="49.36886" lon="-1.07735">
        <ele>13.4</ele>
        <time>2020-06-16T12:25:49Z</time>
      </trkpt>
      <trkpt lat="49.36886" lon="-1.07734">
        <ele>13.4</ele>
        <time>2020-06-16T12:25:50Z</time>
      </trkpt>
      <trkpt lat="49.36885" lon="-1.07733">
        <ele>13.4</ele>
        <time>2020-06-16T12:25:51Z</time>
      </trkpt>
      <trkpt lat="49.36885" lon="-1.07731">
        <ele>13.4</ele>
        <time>2020-06-16T12:25:52Z</time>
      </trkpt>
      <trkpt lat="49.36885" lon="-1.07731">
        <ele>13.4</ele>
        <time>2020-06-16T12:25:53Z</time>
      </trkpt>
      <trkpt lat="49.36885" lon="-1.0773">
        <ele>13.4</ele>
        <time>2020-06-16T12:25:54Z</time>
      </trkpt>
      <trkpt lat="49.36885" lon="-1.07731">
        <ele>13.4</ele>
        <time>2020-06-16T12:25:55Z</time>
      </trkpt>
      <trkpt lat="49.36885" lon="-1.07731">
        <ele>13.4</ele>
        <time>2020-06-16T12:25:56Z</time>
      </trkpt>
      <trkpt lat="49.36885" lon="-1.07731">
        <ele>13.4</ele>
        <time>2020-06-16T12:25:57Z</time>
      </trkpt>
      <trkpt lat="49.36884" lon="-1.07731">
        <ele>13.4</ele>
        <time>2020-06-16T12:25:58Z</time>
      </trkpt>
      <trkpt lat="49.36885" lon="-1.07731">
        <ele>13.4</ele>
        <time>2020-06-16T12:25:59Z</time>
      </trkpt>
      <trkpt lat="49.36885" lon="-1.07732">
        <ele>13.4</ele>
        <time>2020-06-16T12:26:00Z</time>
      </trkpt>
      <trkpt lat="49.36885" lon="-1.07733">
        <ele>13.4</ele>
        <time>2020-06-16T12:26:01Z</time>
      </trkpt>
      <trkpt lat="49.36885" lon="-1.07734">
        <ele>13.4</ele>
        <time>2020-06-16T12:26:02Z</time>
      </trkpt>
      <trkpt lat="49.36884" lon="-1.07736">
        <ele>13.4</ele>
        <time>2020-06-16T12:26:03Z</time>
      </trkpt>
      <trkpt lat="49.36884" lon="-1.07736">
        <ele>13.4</ele>
        <time>2020-06-16T12:26:04Z</time>
      </trkpt>
      <trkpt lat="49.36884" lon="-1.07736">
        <ele>13.4</ele>
        <time>2020-06-16T12:26:05Z</time>
      </trkpt>
      <trkpt lat="49.36884" lon="-1.07737">
        <ele>13.4</ele>
        <time>2020-06-16T12:26:06Z</time>
      </trkpt>
      <trkpt lat="49.36882" lon="-1.07736">
        <ele>13.4</ele>
        <time>2020-06-16T12:26:07Z</time>
      </trkpt>
      <trkpt lat="49.36881" lon="-1.07734">
        <ele>13.5</ele>
        <time>2020-06-16T12:26:08Z</time>
      </trkpt>
      <trkpt lat="49.3688" lon="-1.07737">
        <ele>13.4</ele>
        <time>2020-06-16T12:26:09Z</time>
      </trkpt>
      <trkpt lat="49.36879" lon="-1.07739">
        <ele>13.4</ele>
        <time>2020-06-16T12:26:10Z</time>
      </trkpt>
      <trkpt lat="49.36879" lon="-1.07739">
        <ele>13.4</ele>
        <time>2020-06-16T12:26:11Z</time>
      </trkpt>
      <trkpt lat="49.36878" lon="-1.07743">
        <ele>13.4</ele>
        <time>2020-06-16T12:26:12Z</time>
      </trkpt>
      <trkpt lat="49.36878" lon="-1.07744">
        <ele>13.3</ele>
        <time>2020-06-16T12:26:13Z</time>
      </trkpt>
      <trkpt lat="49.36877" lon="-1.07743">
        <ele>13.3</ele>
        <time>2020-06-16T12:26:14Z</time>
      </trkpt>
      <trkpt lat="49.36876" lon="-1.07743">
        <ele>13.4</ele>
        <time>2020-06-16T12:26:15Z</time>
      </trkpt>
      <trkpt lat="49.36875" lon="-1.07743">
        <ele>13.4</ele>
        <time>2020-06-16T12:26:16Z</time>
      </trkpt>
      <trkpt lat="49.36875" lon="-1.07743">
        <ele>13.4</ele>
        <time>2020-06-16T12:26:17Z</time>
      </trkpt>
      <trkpt lat="49.36874" lon="-1.07744">
        <ele>13.4</ele>
        <time>2020-06-16T12:26:18Z</time>
      </trkpt>
      <trkpt lat="49.36874" lon="-1.07745">
        <ele>13.4</ele>
        <time>2020-06-16T12:26:19Z</time>
      </trkpt>
      <trkpt lat="49.36874" lon="-1.07746">
        <ele>13.4</ele>
        <time>2020-06-16T12:26:20Z</time>
      </trkpt>
      <trkpt lat="49.36873" lon="-1.07746">
        <ele>13.4</ele>
        <time>2020-06-16T12:26:21Z</time>
      </trkpt>
      <trkpt lat="49.36873" lon="-1.07748">
        <ele>13.3</ele>
        <time>2020-06-16T12:26:22Z</time>
      </trkpt>
      <trkpt lat="49.36873" lon="-1.07749">
        <ele>13.3</ele>
        <time>2020-06-16T12:26:23Z</time>
      </trkpt>
      <trkpt lat="49.36873" lon="-1.0775">
        <ele>13.3</ele>
        <time>2020-06-16T12:26:24Z</time>
      </trkpt>
      <trkpt lat="49.36872" lon="-1.07752">
        <ele>13.3</ele>
        <time>2020-06-16T12:26:25Z</time>
      </trkpt>
      <trkpt lat="49.36872" lon="-1.07753">
        <ele>13.3</ele>
        <time>2020-06-16T12:26:26Z</time>
      </trkpt>
      <trkpt lat="49.36872" lon="-1.07753">
        <ele>13.3</ele>
        <time>2020-06-16T12:26:27Z</time>
      </trkpt>
      <trkpt lat="49.36872" lon="-1.07755">
        <ele>13.3</ele>
        <time>2020-06-16T12:26:28Z</time>
      </trkpt>
      <trkpt lat="49.36872" lon="-1.07756">
        <ele>13.2</ele>
        <time>2020-06-16T12:26:29Z</time>
      </trkpt>
      <trkpt lat="49.36872" lon="-1.07758">
        <ele>13.2</ele>
        <time>2020-06-16T12:26:30Z</time>
      </trkpt>
      <trkpt lat="49.36871" lon="-1.07758">
        <ele>13.2</ele>
        <time>2020-06-16T12:26:31Z</time>
      </trkpt>
      <trkpt lat="49.36871" lon="-1.07759">
        <ele>13.2</ele>
        <time>2020-06-16T12:26:32Z</time>
      </trkpt>
      <trkpt lat="49.3687" lon="-1.07759">
        <ele>13.2</ele>
        <time>2020-06-16T12:26:33Z</time>
      </trkpt>
      <trkpt lat="49.36869" lon="-1.0776">
        <ele>13.2</ele>
        <time>2020-06-16T12:26:34Z</time>
      </trkpt>
      <trkpt lat="49.36868" lon="-1.07761">
        <ele>13.2</ele>
        <time>2020-06-16T12:26:35Z</time>
      </trkpt>
      <trkpt lat="49.36867" lon="-1.07762">
        <ele>13.2</ele>
        <time>2020-06-16T12:26:36Z</time>
      </trkpt>
      <trkpt lat="49.36867" lon="-1.07762">
        <ele>13.2</ele>
        <time>2020-06-16T12:26:37Z</time>
      </trkpt>
      <trkpt lat="49.36866" lon="-1.07762">
        <ele>13.2</ele>
        <time>2020-06-16T12:26:38Z</time>
      </trkpt>
      <trkpt lat="49.36865" lon="-1.07761">
        <ele>13.2</ele>
        <time>2020-06-16T12:26:39Z</time>
      </trkpt>
      <trkpt lat="49.36864" lon="-1.0776">
        <ele>13.3</ele>
        <time>2020-06-16T12:26:40Z</time>
      </trkpt>
      <trkpt lat="49.36863" lon="-1.0776">
        <ele>13.3</ele>
        <time>2020-06-16T12:26:41Z</time>
      </trkpt>
      <trkpt lat="49.36862" lon="-1.0776">
        <ele>13.3</ele>
        <time>2020-06-16T12:26:42Z</time>
      </trkpt>
      <trkpt lat="49.36861" lon="-1.07759">
        <ele>13.3</ele>
        <time>2020-06-16T12:26:43Z</time>
      </trkpt>
      <trkpt lat="49.36861" lon="-1.07758">
        <ele>13.3</ele>
        <time>2020-06-16T12:26:44Z</time>
      </trkpt>
      <trkpt lat="49.36861" lon="-1.07757">
        <ele>13.3</ele>
        <time>2020-06-16T12:26:45Z</time>
      </trkpt>
      <trkpt lat="49.36861" lon="-1.07758">
        <ele>13.3</ele>
        <time>2020-06-16T12:26:46Z</time>
      </trkpt>
      <trkpt lat="49.36861" lon="-1.07759">
        <ele>13.3</ele>
        <time>2020-06-16T12:26:47Z</time>
      </trkpt>
      <trkpt lat="49.36862" lon="-1.0776">
        <ele>13.3</ele>
        <time>2020-06-16T12:26:48Z</time>
      </trkpt>
      <trkpt lat="49.36862" lon="-1.07761">
        <ele>13.2</ele>
        <time>2020-06-16T12:26:49Z</time>
      </trkpt>
      <trkpt lat="49.36862" lon="-1.07761">
        <ele>13.2</ele>
        <time>2020-06-16T12:26:50Z</time>
      </trkpt>
      <trkpt lat="49.36862" lon="-1.07762">
        <ele>13.2</ele>
        <time>2020-06-16T12:26:51Z</time>
      </trkpt>
      <trkpt lat="49.36863" lon="-1.07763">
        <ele>13.2</ele>
        <time>2020-06-16T12:26:52Z</time>
      </trkpt>
      <trkpt lat="49.36863" lon="-1.07764">
        <ele>13.2</ele>
        <time>2020-06-16T12:26:53Z</time>
      </trkpt>
      <trkpt lat="49.36863" lon="-1.07764">
        <ele>13.2</ele>
        <time>2020-06-16T12:26:54Z</time>
      </trkpt>
      <trkpt lat="49.36863" lon="-1.07764">
        <ele>13.2</ele>
        <time>2020-06-16T12:26:55Z</time>
      </trkpt>
      <trkpt lat="49.36864" lon="-1.07765">
        <ele>13.2</ele>
        <time>2020-06-16T12:26:56Z</time>
      </trkpt>
      <trkpt lat="49.36864" lon="-1.07766">
        <ele>13.1</ele>
        <time>2020-06-16T12:26:57Z</time>
      </trkpt>
      <trkpt lat="49.36864" lon="-1.07766">
        <ele>13.1</ele>
        <time>2020-06-16T12:26:58Z</time>
      </trkpt>
      <trkpt lat="49.36864" lon="-1.07767">
        <ele>13.1</ele>
        <time>2020-06-16T12:26:59Z</time>
      </trkpt>
      <trkpt lat="49.36864" lon="-1.07767">
        <ele>13.1</ele>
        <time>2020-06-16T12:27:00Z</time>
      </trkpt>
      <trkpt lat="49.36864" lon="-1.07767">
        <ele>13.1</ele>
        <time>2020-06-16T12:27:01Z</time>
      </trkpt>
      <trkpt lat="49.36864" lon="-1.07767">
        <ele>13.1</ele>
        <time>2020-06-16T12:27:02Z</time>
      </trkpt>
      <trkpt lat="49.36864" lon="-1.07767">
        <ele>13.1</ele>
        <time>2020-06-16T12:27:03Z</time>
      </trkpt>
      <trkpt lat="49.36863" lon="-1.07768">
        <ele>13.1</ele>
        <time>2020-06-16T12:27:04Z</time>
      </trkpt>
      <trkpt lat="49.36863" lon="-1.07768">
        <ele>13.1</ele>
        <time>2020-06-16T12:27:05Z</time>
      </trkpt>
      <trkpt lat="49.36863" lon="-1.07768">
        <ele>13.1</ele>
        <time>2020-06-16T12:27:06Z</time>
      </trkpt>
      <trkpt lat="49.36863" lon="-1.07767">
        <ele>13.1</ele>
        <time>2020-06-16T12:27:07Z</time>
      </trkpt>
      <trkpt lat="49.36863" lon="-1.07767">
        <ele>13.1</ele>
        <time>2020-06-16T12:27:08Z</time>
      </trkpt>
      <trkpt lat="49.36863" lon="-1.07766">
        <ele>13.1</ele>
        <time>2020-06-16T12:27:09Z</time>
      </trkpt>
      <trkpt lat="49.36863" lon="-1.07765">
        <ele>13.1</ele>
        <time>2020-06-16T12:27:10Z</time>
      </trkpt>
      <trkpt lat="49.36862" lon="-1.07764">
        <ele>13.2</ele>
        <time>2020-06-16T12:27:11Z</time>
      </trkpt>
      <trkpt lat="49.36862" lon="-1.07764">
        <ele>13.2</ele>
        <time>2020-06-16T12:27:12Z</time>
      </trkpt>
      <trkpt lat="49.36861" lon="-1.07763">
        <ele>13.2</ele>
        <time>2020-06-16T12:27:13Z</time>
      </trkpt>
      <trkpt lat="49.36861" lon="-1.07763">
        <ele>13.2</ele>
        <time>2020-06-16T12:27:14Z</time>
      </trkpt>
      <trkpt lat="49.36861" lon="-1.07762">
        <ele>13.2</ele>
        <time>2020-06-16T12:27:15Z</time>
      </trkpt>
      <trkpt lat="49.36861" lon="-1.07762">
        <ele>13.2</ele>
        <time>2020-06-16T12:27:16Z</time>
      </trkpt>
      <trkpt lat="49.36861" lon="-1.07762">
        <ele>13.2</ele>
        <time>2020-06-16T12:27:17Z</time>
      </trkpt>
      <trkpt lat="49.36861" lon="-1.07761">
        <ele>13.2</ele>
        <time>2020-06-16T12:27:18Z</time>
      </trkpt>
      <trkpt lat="49.36861" lon="-1.0776">
        <ele>13.3</ele>
        <time>2020-06-16T12:27:19Z</time>
      </trkpt>
      <trkpt lat="49.3686" lon="-1.0776">
        <ele>13.3</ele>
        <time>2020-06-16T12:27:20Z</time>
      </trkpt>
      <trkpt lat="49.36861" lon="-1.07759">
        <ele>13.3</ele>
        <time>2020-06-16T12:27:21Z</time>
      </trkpt>
      <trkpt lat="49.36861" lon="-1.07759">
        <ele>13.3</ele>
        <time>2020-06-16T12:27:22Z</time>
      </trkpt>
      <trkpt lat="49.36862" lon="-1.07759">
        <ele>13.3</ele>
        <time>2020-06-16T12:27:23Z</time>
      </trkpt>
      <trkpt lat="49.36862" lon="-1.07758">
        <ele>13.3</ele>
        <time>2020-06-16T12:27:24Z</time>
      </trkpt>
      <trkpt lat="49.36862" lon="-1.07758">
        <ele>13.3</ele>
        <time>2020-06-16T12:27:25Z</time>
      </trkpt>
      <trkpt lat="49.36862" lon="-1.07758">
        <ele>13.3</ele>
        <time>2020-06-16T12:27:26Z</time>
      </trkpt>
      <trkpt lat="49.36863" lon="-1.07758">
        <ele>13.3</ele>
        <time>2020-06-16T12:27:27Z</time>
      </trkpt>
      <trkpt lat="49.36863" lon="-1.07758">
        <ele>13.3</ele>
        <time>2020-06-16T12:27:28Z</time>
      </trkpt>
      <trkpt lat="49.36863" lon="-1.07759">
        <ele>13.3</ele>
        <time>2020-06-16T12:27:29Z</time>
      </trkpt>
      <trkpt lat="49.36862" lon="-1.0776">
        <ele>13.3</ele>
        <time>2020-06-16T12:27:30Z</time>
      </trkpt>
      <trkpt lat="49.36862" lon="-1.0776">
        <ele>13.3</ele>
        <time>2020-06-16T12:27:31Z</time>
      </trkpt>
      <trkpt lat="49.36861" lon="-1.07762">
        <ele>13.2</ele>
        <time>2020-06-16T12:27:32Z</time>
      </trkpt>
      <trkpt lat="49.36861" lon="-1.07763">
        <ele>13.2</ele>
        <time>2020-06-16T12:27:33Z</time>
      </trkpt>
      <trkpt lat="49.3686" lon="-1.07764">
        <ele>13.2</ele>
        <time>2020-06-16T12:27:34Z</time>
      </trkpt>
      <trkpt lat="49.3686" lon="-1.07765">
        <ele>13.3</ele>
        <time>2020-06-16T12:27:35Z</time>
      </trkpt>
      <trkpt lat="49.3686" lon="-1.07766">
        <ele>13.2</ele>
        <time>2020-06-16T12:27:36Z</time>
      </trkpt>
      <trkpt lat="49.3686" lon="-1.07767">
        <ele>13.2</ele>
        <time>2020-06-16T12:27:37Z</time>
      </trkpt>
      <trkpt lat="49.3686" lon="-1.07769">
        <ele>13.1</ele>
        <time>2020-06-16T12:27:38Z</time>
      </trkpt>
      <trkpt lat="49.3686" lon="-1.07771">
        <ele>13.1</ele>
        <time>2020-06-16T12:27:39Z</time>
      </trkpt>
      <trkpt lat="49.3686" lon="-1.07773">
        <ele>13.1</ele>
        <time>2020-06-16T12:27:40Z</time>
      </trkpt>
      <trkpt lat="49.3686" lon="-1.07774">
        <ele>13</ele>
        <time>2020-06-16T12:27:41Z</time>
      </trkpt>
      <trkpt lat="49.3686" lon="-1.07775">
        <ele>13</ele>
        <time>2020-06-16T12:27:42Z</time>
      </trkpt>
      <trkpt lat="49.3686" lon="-1.07775">
        <ele>13</ele>
        <time>2020-06-16T12:27:43Z</time>
      </trkpt>
      <trkpt lat="49.3686" lon="-1.07775">
        <ele>13</ele>
        <time>2020-06-16T12:27:44Z</time>
      </trkpt>
      <trkpt lat="49.36861" lon="-1.07775">
        <ele>13</ele>
        <time>2020-06-16T12:27:45Z</time>
      </trkpt>
      <trkpt lat="49.36861" lon="-1.07775">
        <ele>13</ele>
        <time>2020-06-16T12:27:46Z</time>
      </trkpt>
      <trkpt lat="49.36861" lon="-1.07775">
        <ele>13</ele>
        <time>2020-06-16T12:27:47Z</time>
      </trkpt>
      <trkpt lat="49.36861" lon="-1.07775">
        <ele>13</ele>
        <time>2020-06-16T12:27:48Z</time>
      </trkpt>
      <trkpt lat="49.36861" lon="-1.07775">
        <ele>13</ele>
        <time>2020-06-16T12:27:49Z</time>
      </trkpt>
      <trkpt lat="49.36861" lon="-1.07775">
        <ele>13</ele>
        <time>2020-06-16T12:27:50Z</time>
      </trkpt>
      <trkpt lat="49.36862" lon="-1.07774">
        <ele>13</ele>
        <time>2020-06-16T12:27:51Z</time>
      </trkpt>
      <trkpt lat="49.36862" lon="-1.07774">
        <ele>13</ele>
        <time>2020-06-16T12:27:52Z</time>
      </trkpt>
      <trkpt lat="49.36862" lon="-1.07774">
        <ele>13</ele>
        <time>2020-06-16T12:27:53Z</time>
      </trkpt>
      <trkpt lat="49.36853" lon="-1.0778">
        <ele>13</ele>
        <time>2020-06-16T12:28:17Z</time>
      </trkpt>
      <trkpt lat="49.36853" lon="-1.0778">
        <ele>13</ele>
        <time>2020-06-16T12:28:18Z</time>
      </trkpt>
      <trkpt lat="49.36853" lon="-1.07781">
        <ele>13</ele>
        <time>2020-06-16T12:28:19Z</time>
      </trkpt>
      <trkpt lat="49.36853" lon="-1.07781">
        <ele>13</ele>
        <time>2020-06-16T12:28:20Z</time>
      </trkpt>
      <trkpt lat="49.36853" lon="-1.07781">
        <ele>13</ele>
        <time>2020-06-16T12:28:21Z</time>
      </trkpt>
      <trkpt lat="49.36854" lon="-1.07782">
        <ele>12.9</ele>
        <time>2020-06-16T12:28:22Z</time>
      </trkpt>
      <trkpt lat="49.36854" lon="-1.07782">
        <ele>12.9</ele>
        <time>2020-06-16T12:28:23Z</time>
      </trkpt>
      <trkpt lat="49.36854" lon="-1.07782">
        <ele>12.9</ele>
        <time>2020-06-16T12:28:24Z</time>
      </trkpt>
      <trkpt lat="49.36854" lon="-1.07783">
        <ele>12.9</ele>
        <time>2020-06-16T12:28:25Z</time>
      </trkpt>
      <trkpt lat="49.36854" lon="-1.07783">
        <ele>12.9</ele>
        <time>2020-06-16T12:28:26Z</time>
      </trkpt>
      <trkpt lat="49.36854" lon="-1.07783">
        <ele>12.9</ele>
        <time>2020-06-16T12:28:27Z</time>
      </trkpt>
      <trkpt lat="49.36854" lon="-1.07783">
        <ele>12.9</ele>
        <time>2020-06-16T12:28:28Z</time>
      </trkpt>
      <trkpt lat="49.36854" lon="-1.07783">
        <ele>12.9</ele>
        <time>2020-06-16T12:28:29Z</time>
      </trkpt>
      <trkpt lat="49.36854" lon="-1.07783">
        <ele>12.9</ele>
        <time>2020-06-16T12:28:30Z</time>
      </trkpt>
      <trkpt lat="49.36854" lon="-1.07784">
        <ele>12.9</ele>
        <time>2020-06-16T12:28:31Z</time>
      </trkpt>
      <trkpt lat="49.36855" lon="-1.07784">
        <ele>12.9</ele>
        <time>2020-06-16T12:28:32Z</time>
      </trkpt>
      <trkpt lat="49.3685" lon="-1.07784">
        <ele>12.9</ele>
        <time>2020-06-16T12:28:38Z</time>
      </trkpt>
      <trkpt lat="49.3685" lon="-1.07784">
        <ele>12.9</ele>
        <time>2020-06-16T12:28:39Z</time>
      </trkpt>
      <trkpt lat="49.36849" lon="-1.07784">
        <ele>12.9</ele>
        <time>2020-06-16T12:28:40Z</time>
      </trkpt>
      <trkpt lat="49.36849" lon="-1.07783">
        <ele>12.9</ele>
        <time>2020-06-16T12:28:41Z</time>
      </trkpt>
      <trkpt lat="49.36849" lon="-1.07783">
        <ele>12.9</ele>
        <time>2020-06-16T12:28:42Z</time>
      </trkpt>
      <trkpt lat="49.36849" lon="-1.07784">
        <ele>12.9</ele>
        <time>2020-06-16T12:28:43Z</time>
      </trkpt>
      <trkpt lat="49.36849" lon="-1.07784">
        <ele>12.9</ele>
        <time>2020-06-16T12:28:44Z</time>
      </trkpt>
      <trkpt lat="49.36849" lon="-1.07784">
        <ele>12.9</ele>
        <time>2020-06-16T12:28:45Z</time>
      </trkpt>
      <trkpt lat="49.36849" lon="-1.07784">
        <ele>12.9</ele>
        <time>2020-06-16T12:28:46Z</time>
      </trkpt>
      <trkpt lat="49.36849" lon="-1.07784">
        <ele>12.9</ele>
        <time>2020-06-16T12:28:47Z</time>
      </trkpt>
      <trkpt lat="49.3685" lon="-1.07785">
        <ele>12.9</ele>
        <time>2020-06-16T12:28:48Z</time>
      </trkpt>
      <trkpt lat="49.3685" lon="-1.07785">
        <ele>12.9</ele>
        <time>2020-06-16T12:28:49Z</time>
      </trkpt>
      <trkpt lat="49.3685" lon="-1.07785">
        <ele>12.9</ele>
        <time>2020-06-16T12:28:50Z</time>
      </trkpt>
      <trkpt lat="49.3685" lon="-1.07785">
        <ele>12.9</ele>
        <time>2020-06-16T12:28:51Z</time>
      </trkpt>
      <trkpt lat="49.36849" lon="-1.07784">
        <ele>12.9</ele>
        <time>2020-06-16T12:28:52Z</time>
      </trkpt>
      <trkpt lat="49.3685" lon="-1.07784">
        <ele>12.9</ele>
        <time>2020-06-16T12:28:53Z</time>
      </trkpt>
      <trkpt lat="49.3685" lon="-1.07784">
        <ele>12.9</ele>
        <time>2020-06-16T12:28:54Z</time>
      </trkpt>
      <trkpt lat="49.3685" lon="-1.07783">
        <ele>12.9</ele>
        <time>2020-06-16T12:28:55Z</time>
      </trkpt>
      <trkpt lat="49.36849" lon="-1.07782">
        <ele>12.9</ele>
        <time>2020-06-16T12:28:56Z</time>
      </trkpt>
      <trkpt lat="49.36849" lon="-1.07783">
        <ele>12.9</ele>
        <time>2020-06-16T12:28:57Z</time>
      </trkpt>
      <trkpt lat="49.36849" lon="-1.07783">
        <ele>12.9</ele>
        <time>2020-06-16T12:28:58Z</time>
      </trkpt>
      <trkpt lat="49.3685" lon="-1.07784">
        <ele>12.9</ele>
        <time>2020-06-16T12:28:59Z</time>
      </trkpt>
      <trkpt lat="49.3685" lon="-1.07785">
        <ele>12.9</ele>
        <time>2020-06-16T12:29:00Z</time>
      </trkpt>
      <trkpt lat="49.36851" lon="-1.07786">
        <ele>12.9</ele>
        <time>2020-06-16T12:29:01Z</time>
      </trkpt>
      <trkpt lat="49.36851" lon="-1.07787">
        <ele>12.8</ele>
        <time>2020-06-16T12:29:02Z</time>
      </trkpt>
      <trkpt lat="49.36852" lon="-1.07788">
        <ele>12.8</ele>
        <time>2020-06-16T12:29:03Z</time>
      </trkpt>
      <trkpt lat="49.36852" lon="-1.07788">
        <ele>12.8</ele>
        <time>2020-06-16T12:29:04Z</time>
      </trkpt>
      <trkpt lat="49.36852" lon="-1.07788">
        <ele>12.8</ele>
        <time>2020-06-16T12:29:05Z</time>
      </trkpt>
      <trkpt lat="49.36852" lon="-1.07788">
        <ele>12.8</ele>
        <time>2020-06-16T12:29:06Z</time>
      </trkpt>
      <trkpt lat="49.36852" lon="-1.07789">
        <ele>12.8</ele>
        <time>2020-06-16T12:29:07Z</time>
      </trkpt>
      <trkpt lat="49.36852" lon="-1.07789">
        <ele>12.8</ele>
        <time>2020-06-16T12:29:08Z</time>
      </trkpt>
      <trkpt lat="49.36852" lon="-1.07788">
        <ele>12.8</ele>
        <time>2020-06-16T12:29:09Z</time>
      </trkpt>
      <trkpt lat="49.36852" lon="-1.07788">
        <ele>12.8</ele>
        <time>2020-06-16T12:29:10Z</time>
      </trkpt>
      <trkpt lat="49.36852" lon="-1.07788">
        <ele>12.8</ele>
        <time>2020-06-16T12:29:11Z</time>
      </trkpt>
      <trkpt lat="49.36852" lon="-1.07788">
        <ele>12.8</ele>
        <time>2020-06-16T12:29:12Z</time>
      </trkpt>
      <trkpt lat="49.36852" lon="-1.07789">
        <ele>12.8</ele>
        <time>2020-06-16T12:29:13Z</time>
      </trkpt>
      <trkpt lat="49.36852" lon="-1.07789">
        <ele>12.8</ele>
        <time>2020-06-16T12:29:14Z</time>
      </trkpt>
      <trkpt lat="49.36852" lon="-1.0779">
        <ele>12.8</ele>
        <time>2020-06-16T12:29:15Z</time>
      </trkpt>
      <trkpt lat="49.36852" lon="-1.0779">
        <ele>12.8</ele>
        <time>2020-06-16T12:29:16Z</time>
      </trkpt>
      <trkpt lat="49.36852" lon="-1.0779">
        <ele>12.8</ele>
        <time>2020-06-16T12:29:17Z</time>
      </trkpt>
      <trkpt lat="49.36852" lon="-1.0779">
        <ele>12.8</ele>
        <time>2020-06-16T12:29:18Z</time>
      </trkpt>
      <trkpt lat="49.36851" lon="-1.07789">
        <ele>12.8</ele>
        <time>2020-06-16T12:29:19Z</time>
      </trkpt>
      <trkpt lat="49.36851" lon="-1.07788">
        <ele>12.8</ele>
        <time>2020-06-16T12:29:20Z</time>
      </trkpt>
      <trkpt lat="49.36851" lon="-1.07787">
        <ele>12.8</ele>
        <time>2020-06-16T12:29:21Z</time>
      </trkpt>
      <trkpt lat="49.3685" lon="-1.07787">
        <ele>12.8</ele>
        <time>2020-06-16T12:29:22Z</time>
      </trkpt>
      <trkpt lat="49.3685" lon="-1.07786">
        <ele>12.8</ele>
        <time>2020-06-16T12:29:23Z</time>
      </trkpt>
      <trkpt lat="49.3685" lon="-1.07785">
        <ele>12.9</ele>
        <time>2020-06-16T12:29:24Z</time>
      </trkpt>
      <trkpt lat="49.3685" lon="-1.07785">
        <ele>12.9</ele>
        <time>2020-06-16T12:29:25Z</time>
      </trkpt>
      <trkpt lat="49.3685" lon="-1.07785">
        <ele>12.9</ele>
        <time>2020-06-16T12:29:26Z</time>
      </trkpt>
      <trkpt lat="49.3685" lon="-1.07784">
        <ele>12.9</ele>
        <time>2020-06-16T12:29:27Z</time>
      </trkpt>
      <trkpt lat="49.3685" lon="-1.07784">
        <ele>12.9</ele>
        <time>2020-06-16T12:29:28Z</time>
      </trkpt>
      <trkpt lat="49.36849" lon="-1.07783">
        <ele>12.9</ele>
        <time>2020-06-16T12:29:29Z</time>
      </trkpt>
      <trkpt lat="49.36849" lon="-1.07783">
        <ele>12.9</ele>
        <time>2020-06-16T12:29:30Z</time>
      </trkpt>
      <trkpt lat="49.36849" lon="-1.07784">
        <ele>12.9</ele>
        <time>2020-06-16T12:29:31Z</time>
      </trkpt>
      <trkpt lat="49.36849" lon="-1.07784">
        <ele>12.9</ele>
        <time>2020-06-16T12:29:32Z</time>
      </trkpt>
      <trkpt lat="49.36849" lon="-1.07784">
        <ele>12.9</ele>
        <time>2020-06-16T12:29:33Z</time>
      </trkpt>
      <trkpt lat="49.36848" lon="-1.07784">
        <ele>12.9</ele>
        <time>2020-06-16T12:29:34Z</time>
      </trkpt>
      <trkpt lat="49.36848" lon="-1.07783">
        <ele>12.9</ele>
        <time>2020-06-16T12:29:35Z</time>
      </trkpt>
      <trkpt lat="49.36848" lon="-1.07782">
        <ele>12.9</ele>
        <time>2020-06-16T12:29:36Z</time>
      </trkpt>
      <trkpt lat="49.36848" lon="-1.07781">
        <ele>13</ele>
        <time>2020-06-16T12:29:37Z</time>
      </trkpt>
      <trkpt lat="49.36848" lon="-1.0778">
        <ele>13</ele>
        <time>2020-06-16T12:29:38Z</time>
      </trkpt>
      <trkpt lat="49.36848" lon="-1.0778">
        <ele>13</ele>
        <time>2020-06-16T12:29:39Z</time>
      </trkpt>
      <trkpt lat="49.36848" lon="-1.07779">
        <ele>13</ele>
        <time>2020-06-16T12:29:40Z</time>
      </trkpt>
      <trkpt lat="49.36848" lon="-1.07779">
        <ele>13</ele>
        <time>2020-06-16T12:29:41Z</time>
      </trkpt>
      <trkpt lat="49.36848" lon="-1.07779">
        <ele>13</ele>
        <time>2020-06-16T12:29:42Z</time>
      </trkpt>
      <trkpt lat="49.36848" lon="-1.0778">
        <ele>13</ele>
        <time>2020-06-16T12:29:43Z</time>
      </trkpt>
      <trkpt lat="49.36849" lon="-1.0778">
        <ele>13</ele>
        <time>2020-06-16T12:29:44Z</time>
      </trkpt>
      <trkpt lat="49.36849" lon="-1.0778">
        <ele>13</ele>
        <time>2020-06-16T12:29:45Z</time>
      </trkpt>
      <trkpt lat="49.36849" lon="-1.0778">
        <ele>13</ele>
        <time>2020-06-16T12:29:46Z</time>
      </trkpt>
      <trkpt lat="49.36849" lon="-1.07781">
        <ele>13</ele>
        <time>2020-06-16T12:29:47Z</time>
      </trkpt>
      <trkpt lat="49.36849" lon="-1.07781">
        <ele>13</ele>
        <time>2020-06-16T12:29:48Z</time>
      </trkpt>
      <trkpt lat="49.36849" lon="-1.07781">
        <ele>13</ele>
        <time>2020-06-16T12:29:49Z</time>
      </trkpt>
      <trkpt lat="49.3685" lon="-1.0778">
        <ele>13</ele>
        <time>2020-06-16T12:29:50Z</time>
      </trkpt>
      <trkpt lat="49.36851" lon="-1.0778">
        <ele>13</ele>
        <time>2020-06-16T12:29:51Z</time>
      </trkpt>
      <trkpt lat="49.36852" lon="-1.07779">
        <ele>13</ele>
        <time>2020-06-16T12:29:52Z</time>
      </trkpt>
      <trkpt lat="49.36852" lon="-1.07779">
        <ele>13</ele>
        <time>2020-06-16T12:29:53Z</time>
      </trkpt>
      <trkpt lat="49.36853" lon="-1.07779">
        <ele>13</ele>
        <time>2020-06-16T12:29:54Z</time>
      </trkpt>
      <trkpt lat="49.36853" lon="-1.07779">
        <ele>13</ele>
        <time>2020-06-16T12:29:55Z</time>
      </trkpt>
      <trkpt lat="49.36853" lon="-1.07778">
        <ele>13</ele>
        <time>2020-06-16T12:29:56Z</time>
      </trkpt>
      <trkpt lat="49.36853" lon="-1.07778">
        <ele>13</ele>
        <time>2020-06-16T12:29:57Z</time>
      </trkpt>
      <trkpt lat="49.36853" lon="-1.07778">
        <ele>13</ele>
        <time>2020-06-16T12:29:58Z</time>
      </trkpt>
      <trkpt lat="49.36853" lon="-1.07778">
        <ele>13</ele>
        <time>2020-06-16T12:29:59Z</time>
      </trkpt>
      <trkpt lat="49.36854" lon="-1.07779">
        <ele>13</ele>
        <time>2020-06-16T12:30:00Z</time>
      </trkpt>
      <trkpt lat="49.36855" lon="-1.07778">
        <ele>13</ele>
        <time>2020-06-16T12:30:01Z</time>
      </trkpt>
      <trkpt lat="49.36849" lon="-1.07796">
        <ele>12.7</ele>
        <time>2020-06-16T12:35:03Z</time>
      </trkpt>
      <trkpt lat="49.36849" lon="-1.07795">
        <ele>12.7</ele>
        <time>2020-06-16T12:35:04Z</time>
      </trkpt>
      <trkpt lat="49.36849" lon="-1.07794">
        <ele>12.7</ele>
        <time>2020-06-16T12:35:05Z</time>
      </trkpt>
      <trkpt lat="49.36849" lon="-1.07793">
        <ele>12.7</ele>
        <time>2020-06-16T12:35:06Z</time>
      </trkpt>
      <trkpt lat="49.36849" lon="-1.07794">
        <ele>12.7</ele>
        <time>2020-06-16T12:35:07Z</time>
      </trkpt>
      <trkpt lat="49.36849" lon="-1.07794">
        <ele>12.7</ele>
        <time>2020-06-16T12:35:08Z</time>
      </trkpt>
      <trkpt lat="49.36849" lon="-1.07794">
        <ele>12.8</ele>
        <time>2020-06-16T12:35:09Z</time>
      </trkpt>
      <trkpt lat="49.36849" lon="-1.07794">
        <ele>12.8</ele>
        <time>2020-06-16T12:35:10Z</time>
      </trkpt>
      <trkpt lat="49.36848" lon="-1.07794">
        <ele>12.8</ele>
        <time>2020-06-16T12:35:11Z</time>
      </trkpt>
      <trkpt lat="49.36848" lon="-1.07795">
        <ele>12.7</ele>
        <time>2020-06-16T12:35:12Z</time>
      </trkpt>
      <trkpt lat="49.36848" lon="-1.07794">
        <ele>12.8</ele>
        <time>2020-06-16T12:35:13Z</time>
      </trkpt>
      <trkpt lat="49.36847" lon="-1.07794">
        <ele>12.8</ele>
        <time>2020-06-16T12:35:14Z</time>
      </trkpt>
      <trkpt lat="49.36847" lon="-1.07794">
        <ele>12.8</ele>
        <time>2020-06-16T12:35:15Z</time>
      </trkpt>
      <trkpt lat="49.36847" lon="-1.07793">
        <ele>12.8</ele>
        <time>2020-06-16T12:35:16Z</time>
      </trkpt>
      <trkpt lat="49.36847" lon="-1.07793">
        <ele>12.8</ele>
        <time>2020-06-16T12:35:17Z</time>
      </trkpt>
      <trkpt lat="49.36847" lon="-1.07794">
        <ele>12.8</ele>
        <time>2020-06-16T12:35:18Z</time>
      </trkpt>
      <trkpt lat="49.36846" lon="-1.07795">
        <ele>12.7</ele>
        <time>2020-06-16T12:35:19Z</time>
      </trkpt>
      <trkpt lat="49.36846" lon="-1.07796">
        <ele>12.7</ele>
        <time>2020-06-16T12:35:20Z</time>
      </trkpt>
      <trkpt lat="49.36846" lon="-1.07798">
        <ele>12.7</ele>
        <time>2020-06-16T12:35:21Z</time>
      </trkpt>
      <trkpt lat="49.36846" lon="-1.07799">
        <ele>12.7</ele>
        <time>2020-06-16T12:35:22Z</time>
      </trkpt>
      <trkpt lat="49.36846" lon="-1.07799">
        <ele>12.7</ele>
        <time>2020-06-16T12:35:23Z</time>
      </trkpt>
      <trkpt lat="49.36846" lon="-1.07799">
        <ele>12.6</ele>
        <time>2020-06-16T12:35:24Z</time>
      </trkpt>
      <trkpt lat="49.36847" lon="-1.07798">
        <ele>12.7</ele>
        <time>2020-06-16T12:35:25Z</time>
      </trkpt>
      <trkpt lat="49.36847" lon="-1.07798">
        <ele>12.7</ele>
        <time>2020-06-16T12:35:26Z</time>
      </trkpt>
      <trkpt lat="49.36849" lon="-1.07798">
        <ele>12.7</ele>
        <time>2020-06-16T12:35:27Z</time>
      </trkpt>
      <trkpt lat="49.36851" lon="-1.07799">
        <ele>12.6</ele>
        <time>2020-06-16T12:35:28Z</time>
      </trkpt>
      <trkpt lat="49.36851" lon="-1.078">
        <ele>12.6</ele>
        <time>2020-06-16T12:35:29Z</time>
      </trkpt>
      <trkpt lat="49.36851" lon="-1.078">
        <ele>12.6</ele>
        <time>2020-06-16T12:35:30Z</time>
      </trkpt>
      <trkpt lat="49.36851" lon="-1.078">
        <ele>12.6</ele>
        <time>2020-06-16T12:35:31Z</time>
      </trkpt>
      <trkpt lat="49.36851" lon="-1.078">
        <ele>12.6</ele>
        <time>2020-06-16T12:35:32Z</time>
      </trkpt>
      <trkpt lat="49.36851" lon="-1.07799">
        <ele>12.6</ele>
        <time>2020-06-16T12:35:33Z</time>
      </trkpt>
      <trkpt lat="49.36851" lon="-1.07799">
        <ele>12.7</ele>
        <time>2020-06-16T12:35:34Z</time>
      </trkpt>
      <trkpt lat="49.36852" lon="-1.07798">
        <ele>12.7</ele>
        <time>2020-06-16T12:35:35Z</time>
      </trkpt>
      <trkpt lat="49.36852" lon="-1.07799">
        <ele>12.7</ele>
        <time>2020-06-16T12:35:36Z</time>
      </trkpt>
      <trkpt lat="49.36863" lon="-1.07791">
        <ele>12.7</ele>
        <time>2020-06-16T12:36:01Z</time>
      </trkpt>
      <trkpt lat="49.36864" lon="-1.07791">
        <ele>12.7</ele>
        <time>2020-06-16T12:36:02Z</time>
      </trkpt>
      <trkpt lat="49.36864" lon="-1.07791">
        <ele>12.7</ele>
        <time>2020-06-16T12:36:03Z</time>
      </trkpt>
      <trkpt lat="49.36865" lon="-1.07791">
        <ele>12.7</ele>
        <time>2020-06-16T12:36:04Z</time>
      </trkpt>
      <trkpt lat="49.36865" lon="-1.0779">
        <ele>12.8</ele>
        <time>2020-06-16T12:36:05Z</time>
      </trkpt>
      <trkpt lat="49.36865" lon="-1.0779">
        <ele>12.8</ele>
        <time>2020-06-16T12:36:06Z</time>
      </trkpt>
      <trkpt lat="49.36865" lon="-1.0779">
        <ele>12.8</ele>
        <time>2020-06-16T12:36:07Z</time>
      </trkpt>
      <trkpt lat="49.36865" lon="-1.0779">
        <ele>12.8</ele>
        <time>2020-06-16T12:36:08Z</time>
      </trkpt>
      <trkpt lat="49.36865" lon="-1.0779">
        <ele>12.8</ele>
        <time>2020-06-16T12:36:09Z</time>
      </trkpt>
      <trkpt lat="49.36865" lon="-1.07789">
        <ele>12.8</ele>
        <time>2020-06-16T12:36:10Z</time>
      </trkpt>
      <trkpt lat="49.36865" lon="-1.07789">
        <ele>12.8</ele>
        <time>2020-06-16T12:36:11Z</time>
      </trkpt>
      <trkpt lat="49.36865" lon="-1.07788">
        <ele>12.8</ele>
        <time>2020-06-16T12:36:12Z</time>
      </trkpt>
      <trkpt lat="49.36868" lon="-1.07771">
        <ele>13</ele>
        <time>2020-06-16T12:36:43Z</time>
      </trkpt>
      <trkpt lat="49.36868" lon="-1.0777">
        <ele>13</ele>
        <time>2020-06-16T12:36:44Z</time>
      </trkpt>
      <trkpt lat="49.36867" lon="-1.07768">
        <ele>13.1</ele>
        <time>2020-06-16T12:36:45Z</time>
      </trkpt>
      <trkpt lat="49.36868" lon="-1.07768">
        <ele>13.1</ele>
        <time>2020-06-16T12:36:46Z</time>
      </trkpt>
      <trkpt lat="49.36868" lon="-1.07766">
        <ele>13.1</ele>
        <time>2020-06-16T12:36:47Z</time>
      </trkpt>
      <trkpt lat="49.36868" lon="-1.07765">
        <ele>13.1</ele>
        <time>2020-06-16T12:36:48Z</time>
      </trkpt>
      <trkpt lat="49.36867" lon="-1.07763">
        <ele>13.2</ele>
        <time>2020-06-16T12:36:49Z</time>
      </trkpt>
      <trkpt lat="49.36867" lon="-1.07762">
        <ele>13.2</ele>
        <time>2020-06-16T12:36:50Z</time>
      </trkpt>
      <trkpt lat="49.36867" lon="-1.07761">
        <ele>13.2</ele>
        <time>2020-06-16T12:36:51Z</time>
      </trkpt>
      <trkpt lat="49.36867" lon="-1.07759">
        <ele>13.3</ele>
        <time>2020-06-16T12:36:52Z</time>
      </trkpt>
      <trkpt lat="49.36867" lon="-1.07758">
        <ele>13.3</ele>
        <time>2020-06-16T12:36:53Z</time>
      </trkpt>
      <trkpt lat="49.36867" lon="-1.07758">
        <ele>13.3</ele>
        <time>2020-06-16T12:36:54Z</time>
      </trkpt>
      <trkpt lat="49.36867" lon="-1.07757">
        <ele>13.3</ele>
        <time>2020-06-16T12:36:55Z</time>
      </trkpt>
      <trkpt lat="49.36867" lon="-1.07757">
        <ele>13.3</ele>
        <time>2020-06-16T12:36:56Z</time>
      </trkpt>
      <trkpt lat="49.36867" lon="-1.07758">
        <ele>13.3</ele>
        <time>2020-06-16T12:36:57Z</time>
      </trkpt>
      <trkpt lat="49.36866" lon="-1.07759">
        <ele>13.3</ele>
        <time>2020-06-16T12:36:58Z</time>
      </trkpt>
      <trkpt lat="49.36866" lon="-1.07759">
        <ele>13.3</ele>
        <time>2020-06-16T12:36:59Z</time>
      </trkpt>
      <trkpt lat="49.36866" lon="-1.07761">
        <ele>13.2</ele>
        <time>2020-06-16T12:37:00Z</time>
      </trkpt>
      <trkpt lat="49.36866" lon="-1.07762">
        <ele>13.2</ele>
        <time>2020-06-16T12:37:01Z</time>
      </trkpt>
      <trkpt lat="49.36866" lon="-1.07762">
        <ele>13.2</ele>
        <time>2020-06-16T12:37:02Z</time>
      </trkpt>
      <trkpt lat="49.36866" lon="-1.07763">
        <ele>13.2</ele>
        <time>2020-06-16T12:37:03Z</time>
      </trkpt>
      <trkpt lat="49.36866" lon="-1.07763">
        <ele>13.2</ele>
        <time>2020-06-16T12:37:04Z</time>
      </trkpt>
      <trkpt lat="49.36866" lon="-1.07763">
        <ele>13.2</ele>
        <time>2020-06-16T12:37:05Z</time>
      </trkpt>
      <trkpt lat="49.36866" lon="-1.07762">
        <ele>13.2</ele>
        <time>2020-06-16T12:37:06Z</time>
      </trkpt>
      <trkpt lat="49.36866" lon="-1.07761">
        <ele>13.2</ele>
        <time>2020-06-16T12:37:07Z</time>
      </trkpt>
      <trkpt lat="49.36866" lon="-1.0776">
        <ele>13.3</ele>
        <time>2020-06-16T12:37:08Z</time>
      </trkpt>
      <trkpt lat="49.36866" lon="-1.0776">
        <ele>13.3</ele>
        <time>2020-06-16T12:37:09Z</time>
      </trkpt>
      <trkpt lat="49.36866" lon="-1.07761">
        <ele>13.2</ele>
        <time>2020-06-16T12:37:10Z</time>
      </trkpt>
      <trkpt lat="49.36866" lon="-1.07762">
        <ele>13.2</ele>
        <time>2020-06-16T12:37:11Z</time>
      </trkpt>
      <trkpt lat="49.36866" lon="-1.07763">
        <ele>13.2</ele>
        <time>2020-06-16T12:37:12Z</time>
      </trkpt>
      <trkpt lat="49.36866" lon="-1.07763">
        <ele>13.2</ele>
        <time>2020-06-16T12:37:13Z</time>
      </trkpt>
      <trkpt lat="49.36866" lon="-1.07763">
        <ele>13.2</ele>
        <time>2020-06-16T12:37:14Z</time>
      </trkpt>
      <trkpt lat="49.36866" lon="-1.07763">
        <ele>13.2</ele>
        <time>2020-06-16T12:37:15Z</time>
      </trkpt>
      <trkpt lat="49.36866" lon="-1.07762">
        <ele>13.2</ele>
        <time>2020-06-16T12:37:16Z</time>
      </trkpt>
      <trkpt lat="49.36866" lon="-1.07763">
        <ele>13.2</ele>
        <time>2020-06-16T12:37:17Z</time>
      </trkpt>
      <trkpt lat="49.36866" lon="-1.07763">
        <ele>13.2</ele>
        <time>2020-06-16T12:37:18Z</time>
      </trkpt>
      <trkpt lat="49.36866" lon="-1.07764">
        <ele>13.2</ele>
        <time>2020-06-16T12:37:19Z</time>
      </trkpt>
      <trkpt lat="49.36866" lon="-1.07764">
        <ele>13.2</ele>
        <time>2020-06-16T12:37:20Z</time>
      </trkpt>
      <trkpt lat="49.36866" lon="-1.07765">
        <ele>13.1</ele>
        <time>2020-06-16T12:37:21Z</time>
      </trkpt>
      <trkpt lat="49.36866" lon="-1.07765">
        <ele>13.1</ele>
        <time>2020-06-16T12:37:22Z</time>
      </trkpt>
      <trkpt lat="49.36866" lon="-1.07759">
        <ele>13.3</ele>
        <time>2020-06-16T12:37:35Z</time>
      </trkpt>
      <trkpt lat="49.36866" lon="-1.07758">
        <ele>13.3</ele>
        <time>2020-06-16T12:37:36Z</time>
      </trkpt>
      <trkpt lat="49.36866" lon="-1.07757">
        <ele>13.3</ele>
        <time>2020-06-16T12:37:37Z</time>
      </trkpt>
      <trkpt lat="49.36866" lon="-1.07756">
        <ele>13.3</ele>
        <time>2020-06-16T12:37:38Z</time>
      </trkpt>
      <trkpt lat="49.36867" lon="-1.07756">
        <ele>13.3</ele>
        <time>2020-06-16T12:37:39Z</time>
      </trkpt>
      <trkpt lat="49.36867" lon="-1.07755">
        <ele>13.3</ele>
        <time>2020-06-16T12:37:40Z</time>
      </trkpt>
      <trkpt lat="49.36868" lon="-1.07756">
        <ele>13.3</ele>
        <time>2020-06-16T12:37:41Z</time>
      </trkpt>
      <trkpt lat="49.36868" lon="-1.07757">
        <ele>13.2</ele>
        <time>2020-06-16T12:37:42Z</time>
      </trkpt>
      <trkpt lat="49.36868" lon="-1.07757">
        <ele>13.3</ele>
        <time>2020-06-16T12:37:43Z</time>
      </trkpt>
      <trkpt lat="49.36868" lon="-1.07758">
        <ele>13.3</ele>
        <time>2020-06-16T12:37:44Z</time>
      </trkpt>
      <trkpt lat="49.36868" lon="-1.07758">
        <ele>13.2</ele>
        <time>2020-06-16T12:37:45Z</time>
      </trkpt>
      <trkpt lat="49.36868" lon="-1.07759">
        <ele>13.3</ele>
        <time>2020-06-16T12:37:46Z</time>
      </trkpt>
      <trkpt lat="49.36868" lon="-1.07762">
        <ele>13.2</ele>
        <time>2020-06-16T12:37:47Z</time>
      </trkpt>
      <trkpt lat="49.36868" lon="-1.07762">
        <ele>13.2</ele>
        <time>2020-06-16T12:37:48Z</time>
      </trkpt>
      <trkpt lat="49.36867" lon="-1.07764">
        <ele>13.2</ele>
        <time>2020-06-16T12:37:49Z</time>
      </trkpt>
      <trkpt lat="49.36867" lon="-1.07765">
        <ele>13.1</ele>
        <time>2020-06-16T12:37:50Z</time>
      </trkpt>
      <trkpt lat="49.36866" lon="-1.07767">
        <ele>13.1</ele>
        <time>2020-06-16T12:37:51Z</time>
      </trkpt>
      <trkpt lat="49.36866" lon="-1.07769">
        <ele>13.1</ele>
        <time>2020-06-16T12:37:52Z</time>
      </trkpt>
      <trkpt lat="49.36866" lon="-1.07771">
        <ele>13</ele>
        <time>2020-06-16T12:37:53Z</time>
      </trkpt>
      <trkpt lat="49.36866" lon="-1.07772">
        <ele>13</ele>
        <time>2020-06-16T12:37:54Z</time>
      </trkpt>
      <trkpt lat="49.36867" lon="-1.07774">
        <ele>13</ele>
        <time>2020-06-16T12:37:55Z</time>
      </trkpt>
      <trkpt lat="49.36867" lon="-1.07774">
        <ele>13</ele>
        <time>2020-06-16T12:37:56Z</time>
      </trkpt>
      <trkpt lat="49.36864" lon="-1.0777">
        <ele>13.1</ele>
        <time>2020-06-16T12:38:03Z</time>
      </trkpt>
      <trkpt lat="49.36863" lon="-1.07769">
        <ele>13.1</ele>
        <time>2020-06-16T12:38:04Z</time>
      </trkpt>
      <trkpt lat="49.36863" lon="-1.07771">
        <ele>13.1</ele>
        <time>2020-06-16T12:38:05Z</time>
      </trkpt>
      <trkpt lat="49.36863" lon="-1.07771">
        <ele>13.1</ele>
        <time>2020-06-16T12:38:06Z</time>
      </trkpt>
      <trkpt lat="49.36862" lon="-1.07772">
        <ele>13.1</ele>
        <time>2020-06-16T12:38:07Z</time>
      </trkpt>
      <trkpt lat="49.36861" lon="-1.07774">
        <ele>13</ele>
        <time>2020-06-16T12:38:08Z</time>
      </trkpt>
      <trkpt lat="49.36861" lon="-1.07775">
        <ele>13</ele>
        <time>2020-06-16T12:38:09Z</time>
      </trkpt>
      <trkpt lat="49.36861" lon="-1.07773">
        <ele>13.1</ele>
        <time>2020-06-16T12:38:10Z</time>
      </trkpt>
      <trkpt lat="49.36861" lon="-1.07773">
        <ele>13.1</ele>
        <time>2020-06-16T12:38:11Z</time>
      </trkpt>
      <trkpt lat="49.3686" lon="-1.07773">
        <ele>13.1</ele>
        <time>2020-06-16T12:38:12Z</time>
      </trkpt>
      <trkpt lat="49.3686" lon="-1.07773">
        <ele>13.1</ele>
        <time>2020-06-16T12:38:13Z</time>
      </trkpt>
      <trkpt lat="49.36859" lon="-1.07772">
        <ele>13.1</ele>
        <time>2020-06-16T12:38:14Z</time>
      </trkpt>
      <trkpt lat="49.36859" lon="-1.07771">
        <ele>13.1</ele>
        <time>2020-06-16T12:38:15Z</time>
      </trkpt>
      <trkpt lat="49.36859" lon="-1.07771">
        <ele>13.1</ele>
        <time>2020-06-16T12:38:16Z</time>
      </trkpt>
      <trkpt lat="49.36859" lon="-1.07771">
        <ele>13.1</ele>
        <time>2020-06-16T12:38:17Z</time>
      </trkpt>
      <trkpt lat="49.36858" lon="-1.0777">
        <ele>13.1</ele>
        <time>2020-06-16T12:38:18Z</time>
      </trkpt>
      <trkpt lat="49.36858" lon="-1.0777">
        <ele>13.1</ele>
        <time>2020-06-16T12:38:19Z</time>
      </trkpt>
      <trkpt lat="49.36857" lon="-1.0777">
        <ele>13.1</ele>
        <time>2020-06-16T12:38:20Z</time>
      </trkpt>
      <trkpt lat="49.36856" lon="-1.07772">
        <ele>13.1</ele>
        <time>2020-06-16T12:38:21Z</time>
      </trkpt>
      <trkpt lat="49.36856" lon="-1.07773">
        <ele>13.1</ele>
        <time>2020-06-16T12:38:22Z</time>
      </trkpt>
      <trkpt lat="49.36856" lon="-1.07774">
        <ele>13</ele>
        <time>2020-06-16T12:38:23Z</time>
      </trkpt>
      <trkpt lat="49.36856" lon="-1.07774">
        <ele>13</ele>
        <time>2020-06-16T12:38:24Z</time>
      </trkpt>
      <trkpt lat="49.36856" lon="-1.07774">
        <ele>13</ele>
        <time>2020-06-16T12:38:25Z</time>
      </trkpt>
      <trkpt lat="49.36856" lon="-1.07776">
        <ele>13</ele>
        <time>2020-06-16T12:38:26Z</time>
      </trkpt>
      <trkpt lat="49.36856" lon="-1.07776">
        <ele>13</ele>
        <time>2020-06-16T12:38:27Z</time>
      </trkpt>
      <trkpt lat="49.36856" lon="-1.07776">
        <ele>13</ele>
        <time>2020-06-16T12:38:28Z</time>
      </trkpt>
      <trkpt lat="49.36855" lon="-1.07776">
        <ele>13</ele>
        <time>2020-06-16T12:38:29Z</time>
      </trkpt>
      <trkpt lat="49.36856" lon="-1.07777">
        <ele>13</ele>
        <time>2020-06-16T12:38:30Z</time>
      </trkpt>
      <trkpt lat="49.36855" lon="-1.07777">
        <ele>13</ele>
        <time>2020-06-16T12:38:31Z</time>
      </trkpt>
      <trkpt lat="49.36855" lon="-1.07777">
        <ele>13</ele>
        <time>2020-06-16T12:38:32Z</time>
      </trkpt>
      <trkpt lat="49.36854" lon="-1.07777">
        <ele>13</ele>
        <time>2020-06-16T12:38:33Z</time>
      </trkpt>
      <trkpt lat="49.36855" lon="-1.07777">
        <ele>13</ele>
        <time>2020-06-16T12:38:34Z</time>
      </trkpt>
      <trkpt lat="49.36854" lon="-1.07777">
        <ele>13</ele>
        <time>2020-06-16T12:38:35Z</time>
      </trkpt>
      <trkpt lat="49.36855" lon="-1.07778">
        <ele>13</ele>
        <time>2020-06-16T12:38:36Z</time>
      </trkpt>
      <trkpt lat="49.36856" lon="-1.07778">
        <ele>13</ele>
        <time>2020-06-16T12:38:37Z</time>
      </trkpt>
      <trkpt lat="49.36857" lon="-1.07778">
        <ele>13</ele>
        <time>2020-06-16T12:38:38Z</time>
      </trkpt>
      <trkpt lat="49.36857" lon="-1.07778">
        <ele>12.9</ele>
        <time>2020-06-16T12:38:39Z</time>
      </trkpt>
      <trkpt lat="49.36858" lon="-1.07778">
        <ele>12.9</ele>
        <time>2020-06-16T12:38:40Z</time>
      </trkpt>
      <trkpt lat="49.36858" lon="-1.07778">
        <ele>12.9</ele>
        <time>2020-06-16T12:38:41Z</time>
      </trkpt>
      <trkpt lat="49.36858" lon="-1.07779">
        <ele>12.9</ele>
        <time>2020-06-16T12:38:42Z</time>
      </trkpt>
      <trkpt lat="49.36859" lon="-1.07779">
        <ele>12.9</ele>
        <time>2020-06-16T12:38:43Z</time>
      </trkpt>
      <trkpt lat="49.36859" lon="-1.07779">
        <ele>12.9</ele>
        <time>2020-06-16T12:38:44Z</time>
      </trkpt>
      <trkpt lat="49.36859" lon="-1.07779">
        <ele>12.9</ele>
        <time>2020-06-16T12:38:45Z</time>
      </trkpt>
      <trkpt lat="49.36859" lon="-1.07779">
        <ele>12.9</ele>
        <time>2020-06-16T12:38:46Z</time>
      </trkpt>
      <trkpt lat="49.36857" lon="-1.07771">
        <ele>13.1</ele>
        <time>2020-06-16T12:38:52Z</time>
      </trkpt>
      <trkpt lat="49.36857" lon="-1.0777">
        <ele>13.1</ele>
        <time>2020-06-16T12:38:53Z</time>
      </trkpt>
      <trkpt lat="49.36856" lon="-1.07769">
        <ele>13.2</ele>
        <time>2020-06-16T12:38:54Z</time>
      </trkpt>
      <trkpt lat="49.36856" lon="-1.07769">
        <ele>13.2</ele>
        <time>2020-06-16T12:38:55Z</time>
      </trkpt>
      <trkpt lat="49.36856" lon="-1.07769">
        <ele>13.1</ele>
        <time>2020-06-16T12:38:56Z</time>
      </trkpt>
      <trkpt lat="49.36856" lon="-1.0777">
        <ele>13.1</ele>
        <time>2020-06-16T12:38:57Z</time>
      </trkpt>
      <trkpt lat="49.36856" lon="-1.07769">
        <ele>13.2</ele>
        <time>2020-06-16T12:38:58Z</time>
      </trkpt>
      <trkpt lat="49.36856" lon="-1.07768">
        <ele>13.2</ele>
        <time>2020-06-16T12:38:59Z</time>
      </trkpt>
      <trkpt lat="49.36856" lon="-1.07769">
        <ele>13.2</ele>
        <time>2020-06-16T12:39:00Z</time>
      </trkpt>
      <trkpt lat="49.36856" lon="-1.07769">
        <ele>13.2</ele>
        <time>2020-06-16T12:39:01Z</time>
      </trkpt>
      <trkpt lat="49.36856" lon="-1.07769">
        <ele>13.2</ele>
        <time>2020-06-16T12:39:02Z</time>
      </trkpt>
      <trkpt lat="49.36856" lon="-1.07769">
        <ele>13.2</ele>
        <time>2020-06-16T12:39:03Z</time>
      </trkpt>
      <trkpt lat="49.36856" lon="-1.07769">
        <ele>13.2</ele>
        <time>2020-06-16T12:39:04Z</time>
      </trkpt>
      <trkpt lat="49.36856" lon="-1.07768">
        <ele>13.2</ele>
        <time>2020-06-16T12:39:05Z</time>
      </trkpt>
      <trkpt lat="49.36856" lon="-1.0777">
        <ele>13.1</ele>
        <time>2020-06-16T12:39:06Z</time>
      </trkpt>
      <trkpt lat="49.36856" lon="-1.07769">
        <ele>13.1</ele>
        <time>2020-06-16T12:39:07Z</time>
      </trkpt>
      <trkpt lat="49.36856" lon="-1.07768">
        <ele>13.2</ele>
        <time>2020-06-16T12:39:08Z</time>
      </trkpt>
      <trkpt lat="49.36856" lon="-1.07767">
        <ele>13.2</ele>
        <time>2020-06-16T12:39:09Z</time>
      </trkpt>
      <trkpt lat="49.36856" lon="-1.07766">
        <ele>13.2</ele>
        <time>2020-06-16T12:39:10Z</time>
      </trkpt>
      <trkpt lat="49.36856" lon="-1.07765">
        <ele>13.2</ele>
        <time>2020-06-16T12:39:11Z</time>
      </trkpt>
      <trkpt lat="49.36857" lon="-1.07767">
        <ele>13.2</ele>
        <time>2020-06-16T12:39:12Z</time>
      </trkpt>
      <trkpt lat="49.36857" lon="-1.07767">
        <ele>13.2</ele>
        <time>2020-06-16T12:39:13Z</time>
      </trkpt>
      <trkpt lat="49.36858" lon="-1.07767">
        <ele>13.2</ele>
        <time>2020-06-16T12:39:14Z</time>
      </trkpt>
      <trkpt lat="49.36858" lon="-1.07767">
        <ele>13.2</ele>
        <time>2020-06-16T12:39:15Z</time>
      </trkpt>
      <trkpt lat="49.36859" lon="-1.07768">
        <ele>13.2</ele>
        <time>2020-06-16T12:39:16Z</time>
      </trkpt>
      <trkpt lat="49.36859" lon="-1.07768">
        <ele>13.2</ele>
        <time>2020-06-16T12:39:17Z</time>
      </trkpt>
      <trkpt lat="49.3686" lon="-1.07769">
        <ele>13.2</ele>
        <time>2020-06-16T12:39:18Z</time>
      </trkpt>
      <trkpt lat="49.36861" lon="-1.0777">
        <ele>13.1</ele>
        <time>2020-06-16T12:39:19Z</time>
      </trkpt>
      <trkpt lat="49.36862" lon="-1.07771">
        <ele>13.1</ele>
        <time>2020-06-16T12:39:20Z</time>
      </trkpt>
      <trkpt lat="49.36862" lon="-1.07771">
        <ele>13.1</ele>
        <time>2020-06-16T12:39:21Z</time>
      </trkpt>
      <trkpt lat="49.36862" lon="-1.07771">
        <ele>13.1</ele>
        <time>2020-06-16T12:39:22Z</time>
      </trkpt>
      <trkpt lat="49.36862" lon="-1.07771">
        <ele>13.1</ele>
        <time>2020-06-16T12:39:23Z</time>
      </trkpt>
      <trkpt lat="49.36862" lon="-1.07771">
        <ele>13.1</ele>
        <time>2020-06-16T12:39:24Z</time>
      </trkpt>
      <trkpt lat="49.36862" lon="-1.07772">
        <ele>13.1</ele>
        <time>2020-06-16T12:39:25Z</time>
      </trkpt>
      <trkpt lat="49.36862" lon="-1.07773">
        <ele>13.1</ele>
        <time>2020-06-16T12:39:26Z</time>
      </trkpt>
      <trkpt lat="49.36862" lon="-1.07774">
        <ele>13</ele>
        <time>2020-06-16T12:39:27Z</time>
      </trkpt>
      <trkpt lat="49.36862" lon="-1.07774">
        <ele>13</ele>
        <time>2020-06-16T12:39:28Z</time>
      </trkpt>
      <trkpt lat="49.36863" lon="-1.07773">
        <ele>13</ele>
        <time>2020-06-16T12:39:29Z</time>
      </trkpt>
      <trkpt lat="49.36863" lon="-1.07773">
        <ele>13.1</ele>
        <time>2020-06-16T12:39:30Z</time>
      </trkpt>
      <trkpt lat="49.36863" lon="-1.07773">
        <ele>13.1</ele>
        <time>2020-06-16T12:39:31Z</time>
      </trkpt>
      <trkpt lat="49.36863" lon="-1.07773">
        <ele>13.1</ele>
        <time>2020-06-16T12:39:32Z</time>
      </trkpt>
      <trkpt lat="49.36863" lon="-1.07772">
        <ele>13.1</ele>
        <time>2020-06-16T12:39:33Z</time>
      </trkpt>
      <trkpt lat="49.36863" lon="-1.07772">
        <ele>13.1</ele>
        <time>2020-06-16T12:39:34Z</time>
      </trkpt>
      <trkpt lat="49.36863" lon="-1.07772">
        <ele>13.1</ele>
        <time>2020-06-16T12:39:35Z</time>
      </trkpt>
      <trkpt lat="49.36864" lon="-1.07772">
        <ele>13.1</ele>
        <time>2020-06-16T12:39:36Z</time>
      </trkpt>
      <trkpt lat="49.36865" lon="-1.07771">
        <ele>13.1</ele>
        <time>2020-06-16T12:39:37Z</time>
      </trkpt>
      <trkpt lat="49.36865" lon="-1.0777">
        <ele>13.1</ele>
        <time>2020-06-16T12:39:38Z</time>
      </trkpt>
      <trkpt lat="49.36865" lon="-1.0777">
        <ele>13.1</ele>
        <time>2020-06-16T12:39:39Z</time>
      </trkpt>
      <trkpt lat="49.36865" lon="-1.07769">
        <ele>13.1</ele>
        <time>2020-06-16T12:39:40Z</time>
      </trkpt>
      <trkpt lat="49.36865" lon="-1.07769">
        <ele>13.1</ele>
        <time>2020-06-16T12:39:41Z</time>
      </trkpt>
      <trkpt lat="49.36865" lon="-1.07769">
        <ele>13.1</ele>
        <time>2020-06-16T12:39:42Z</time>
      </trkpt>
      <trkpt lat="49.36865" lon="-1.07768">
        <ele>13.1</ele>
        <time>2020-06-16T12:39:43Z</time>
      </trkpt>
      <trkpt lat="49.36865" lon="-1.07768">
        <ele>13.1</ele>
        <time>2020-06-16T12:39:44Z</time>
      </trkpt>
      <trkpt lat="49.36865" lon="-1.07767">
        <ele>13.1</ele>
        <time>2020-06-16T12:39:45Z</time>
      </trkpt>
      <trkpt lat="49.36866" lon="-1.07767">
        <ele>13.1</ele>
        <time>2020-06-16T12:39:46Z</time>
      </trkpt>
      <trkpt lat="49.36866" lon="-1.07766">
        <ele>13.1</ele>
        <time>2020-06-16T12:39:47Z</time>
      </trkpt>
      <trkpt lat="49.36866" lon="-1.07765">
        <ele>13.1</ele>
        <time>2020-06-16T12:39:48Z</time>
      </trkpt>
      <trkpt lat="49.36866" lon="-1.07765">
        <ele>13.1</ele>
        <time>2020-06-16T12:39:49Z</time>
      </trkpt>
      <trkpt lat="49.36866" lon="-1.07765">
        <ele>13.1</ele>
        <time>2020-06-16T12:39:50Z</time>
      </trkpt>
      <trkpt lat="49.36867" lon="-1.07765">
        <ele>13.1</ele>
        <time>2020-06-16T12:39:51Z</time>
      </trkpt>
      <trkpt lat="49.36867" lon="-1.07765">
        <ele>13.1</ele>
        <time>2020-06-16T12:39:52Z</time>
      </trkpt>
      <trkpt lat="49.36867" lon="-1.07766">
        <ele>13.1</ele>
        <time>2020-06-16T12:39:53Z</time>
      </trkpt>
      <trkpt lat="49.36867" lon="-1.07765">
        <ele>13.1</ele>
        <time>2020-06-16T12:39:54Z</time>
      </trkpt>
      <trkpt lat="49.36867" lon="-1.07765">
        <ele>13.1</ele>
        <time>2020-06-16T12:39:55Z</time>
      </trkpt>
      <trkpt lat="49.36867" lon="-1.07765">
        <ele>13.2</ele>
        <time>2020-06-16T12:39:56Z</time>
      </trkpt>
      <trkpt lat="49.36867" lon="-1.07765">
        <ele>13.2</ele>
        <time>2020-06-16T12:39:57Z</time>
      </trkpt>
      <trkpt lat="49.36867" lon="-1.07764">
        <ele>13.2</ele>
        <time>2020-06-16T12:39:58Z</time>
      </trkpt>
      <trkpt lat="49.36867" lon="-1.07764">
        <ele>13.2</ele>
        <time>2020-06-16T12:39:59Z</time>
      </trkpt>
      <trkpt lat="49.36867" lon="-1.07764">
        <ele>13.2</ele>
        <time>2020-06-16T12:40:00Z</time>
      </trkpt>
      <trkpt lat="49.36868" lon="-1.07765">
        <ele>13.1</ele>
        <time>2020-06-16T12:40:01Z</time>
      </trkpt>
      <trkpt lat="49.36868" lon="-1.07766">
        <ele>13.1</ele>
        <time>2020-06-16T12:40:02Z</time>
      </trkpt>
      <trkpt lat="49.36868" lon="-1.07766">
        <ele>13.1</ele>
        <time>2020-06-16T12:40:03Z</time>
      </trkpt>
      <trkpt lat="49.36868" lon="-1.07766">
        <ele>13.1</ele>
        <time>2020-06-16T12:40:04Z</time>
      </trkpt>
      <trkpt lat="49.36868" lon="-1.07767">
        <ele>13.1</ele>
        <time>2020-06-16T12:40:05Z</time>
      </trkpt>
      <trkpt lat="49.36868" lon="-1.07768">
        <ele>13.1</ele>
        <time>2020-06-16T12:40:06Z</time>
      </trkpt>
      <trkpt lat="49.36867" lon="-1.07769">
        <ele>13.1</ele>
        <time>2020-06-16T12:40:07Z</time>
      </trkpt>
      <trkpt lat="49.36867" lon="-1.07768">
        <ele>13.1</ele>
        <time>2020-06-16T12:40:08Z</time>
      </trkpt>
      <trkpt lat="49.36867" lon="-1.07769">
        <ele>13.1</ele>
        <time>2020-06-16T12:40:09Z</time>
      </trkpt>
      <trkpt lat="49.36867" lon="-1.07769">
        <ele>13.1</ele>
        <time>2020-06-16T12:40:10Z</time>
      </trkpt>
      <trkpt lat="49.36866" lon="-1.07768">
        <ele>13.1</ele>
        <time>2020-06-16T12:40:11Z</time>
      </trkpt>
      <trkpt lat="49.36866" lon="-1.07768">
        <ele>13.1</ele>
        <time>2020-06-16T12:40:12Z</time>
      </trkpt>
      <trkpt lat="49.36866" lon="-1.07767">
        <ele>13.1</ele>
        <time>2020-06-16T12:40:13Z</time>
      </trkpt>
      <trkpt lat="49.36866" lon="-1.07767">
        <ele>13.1</ele>
        <time>2020-06-16T12:40:14Z</time>
      </trkpt>
      <trkpt lat="49.36865" lon="-1.07766">
        <ele>13.1</ele>
        <time>2020-06-16T12:40:15Z</time>
      </trkpt>
      <trkpt lat="49.36865" lon="-1.07765">
        <ele>13.1</ele>
        <time>2020-06-16T12:40:16Z</time>
      </trkpt>
      <trkpt lat="49.36865" lon="-1.07765">
        <ele>13.2</ele>
        <time>2020-06-16T12:40:17Z</time>
      </trkpt>
      <trkpt lat="49.36865" lon="-1.07764">
        <ele>13.2</ele>
        <time>2020-06-16T12:40:18Z</time>
      </trkpt>
      <trkpt lat="49.36864" lon="-1.07762">
        <ele>13.2</ele>
        <time>2020-06-16T12:40:19Z</time>
      </trkpt>
      <trkpt lat="49.36864" lon="-1.07762">
        <ele>13.2</ele>
        <time>2020-06-16T12:40:20Z</time>
      </trkpt>
      <trkpt lat="49.36864" lon="-1.07762">
        <ele>13.2</ele>
        <time>2020-06-16T12:40:21Z</time>
      </trkpt>
      <trkpt lat="49.36864" lon="-1.07763">
        <ele>13.2</ele>
        <time>2020-06-16T12:40:22Z</time>
      </trkpt>
      <trkpt lat="49.36864" lon="-1.07763">
        <ele>13.2</ele>
        <time>2020-06-16T12:40:23Z</time>
      </trkpt>
      <trkpt lat="49.36863" lon="-1.07764">
        <ele>13.2</ele>
        <time>2020-06-16T12:40:24Z</time>
      </trkpt>
      <trkpt lat="49.36863" lon="-1.07764">
        <ele>13.2</ele>
        <time>2020-06-16T12:40:25Z</time>
      </trkpt>
      <trkpt lat="49.36863" lon="-1.07764">
        <ele>13.2</ele>
        <time>2020-06-16T12:40:26Z</time>
      </trkpt>
      <trkpt lat="49.36863" lon="-1.07764">
        <ele>13.2</ele>
        <time>2020-06-16T12:40:27Z</time>
      </trkpt>
      <trkpt lat="49.36863" lon="-1.07764">
        <ele>13.2</ele>
        <time>2020-06-16T12:40:28Z</time>
      </trkpt>
      <trkpt lat="49.36863" lon="-1.07764">
        <ele>13.2</ele>
        <time>2020-06-16T12:40:29Z</time>
      </trkpt>
      <trkpt lat="49.36863" lon="-1.07764">
        <ele>13.2</ele>
        <time>2020-06-16T12:40:30Z</time>
      </trkpt>
      <trkpt lat="49.36863" lon="-1.07765">
        <ele>13.1</ele>
        <time>2020-06-16T12:40:31Z</time>
      </trkpt>
      <trkpt lat="49.36864" lon="-1.07766">
        <ele>13.1</ele>
        <time>2020-06-16T12:40:32Z</time>
      </trkpt>
      <trkpt lat="49.36864" lon="-1.07767">
        <ele>13.1</ele>
        <time>2020-06-16T12:40:33Z</time>
      </trkpt>
      <trkpt lat="49.36866" lon="-1.07763">
        <ele>13.2</ele>
        <time>2020-06-16T12:40:38Z</time>
      </trkpt>
      <trkpt lat="49.36866" lon="-1.07762">
        <ele>13.2</ele>
        <time>2020-06-16T12:40:39Z</time>
      </trkpt>
      <trkpt lat="49.36866" lon="-1.07762">
        <ele>13.2</ele>
        <time>2020-06-16T12:40:40Z</time>
      </trkpt>
      <trkpt lat="49.36866" lon="-1.07761">
        <ele>13.2</ele>
        <time>2020-06-16T12:40:41Z</time>
      </trkpt>
      <trkpt lat="49.36866" lon="-1.07761">
        <ele>13.2</ele>
        <time>2020-06-16T12:40:42Z</time>
      </trkpt>
      <trkpt lat="49.36866" lon="-1.07761">
        <ele>13.2</ele>
        <time>2020-06-16T12:40:43Z</time>
      </trkpt>
      <trkpt lat="49.36867" lon="-1.07762">
        <ele>13.2</ele>
        <time>2020-06-16T12:40:44Z</time>
      </trkpt>
      <trkpt lat="49.36867" lon="-1.07764">
        <ele>13.2</ele>
        <time>2020-06-16T12:40:45Z</time>
      </trkpt>
      <trkpt lat="49.36867" lon="-1.07764">
        <ele>13.2</ele>
        <time>2020-06-16T12:40:46Z</time>
      </trkpt>
      <trkpt lat="49.36868" lon="-1.07766">
        <ele>13.1</ele>
        <time>2020-06-16T12:40:47Z</time>
      </trkpt>
      <trkpt lat="49.36868" lon="-1.07767">
        <ele>13.1</ele>
        <time>2020-06-16T12:40:48Z</time>
      </trkpt>
      <trkpt lat="49.36867" lon="-1.07768">
        <ele>13.1</ele>
        <time>2020-06-16T12:40:49Z</time>
      </trkpt>
      <trkpt lat="49.36867" lon="-1.07769">
        <ele>13</ele>
        <time>2020-06-16T12:40:50Z</time>
      </trkpt>
      <trkpt lat="49.36867" lon="-1.0777">
        <ele>13</ele>
        <time>2020-06-16T12:40:51Z</time>
      </trkpt>
      <trkpt lat="49.36867" lon="-1.07771">
        <ele>13</ele>
        <time>2020-06-16T12:40:52Z</time>
      </trkpt>
      <trkpt lat="49.36867" lon="-1.07771">
        <ele>13</ele>
        <time>2020-06-16T12:40:53Z</time>
      </trkpt>
      <trkpt lat="49.36867" lon="-1.07771">
        <ele>13</ele>
        <time>2020-06-16T12:40:54Z</time>
      </trkpt>
      <trkpt lat="49.36867" lon="-1.07771">
        <ele>13</ele>
        <time>2020-06-16T12:40:55Z</time>
      </trkpt>
      <trkpt lat="49.36867" lon="-1.07771">
        <ele>13</ele>
        <time>2020-06-16T12:40:56Z</time>
      </trkpt>
      <trkpt lat="49.36867" lon="-1.07771">
        <ele>13</ele>
        <time>2020-06-16T12:40:57Z</time>
      </trkpt>
      <trkpt lat="49.36867" lon="-1.07771">
        <ele>13</ele>
        <time>2020-06-16T12:40:58Z</time>
      </trkpt>
      <trkpt lat="49.36867" lon="-1.07771">
        <ele>13</ele>
        <time>2020-06-16T12:40:59Z</time>
      </trkpt>
      <trkpt lat="49.36867" lon="-1.07771">
        <ele>13</ele>
        <time>2020-06-16T12:41:24Z</time>
      </trkpt>
      <trkpt lat="49.36868" lon="-1.07771">
        <ele>13</ele>
        <time>2020-06-16T12:41:25Z</time>
      </trkpt>
      <trkpt lat="49.36868" lon="-1.07771">
        <ele>13</ele>
        <time>2020-06-16T12:41:26Z</time>
      </trkpt>
      <trkpt lat="49.36868" lon="-1.0777">
        <ele>13</ele>
        <time>2020-06-16T12:41:27Z</time>
      </trkpt>
      <trkpt lat="49.36868" lon="-1.0777">
        <ele>13</ele>
        <time>2020-06-16T12:41:28Z</time>
      </trkpt>
      <trkpt lat="49.36868" lon="-1.0777">
        <ele>13</ele>
        <time>2020-06-16T12:41:29Z</time>
      </trkpt>
      <trkpt lat="49.36868" lon="-1.0777">
        <ele>13</ele>
        <time>2020-06-16T12:41:30Z</time>
      </trkpt>
      <trkpt lat="49.36868" lon="-1.0777">
        <ele>13</ele>
        <time>2020-06-16T12:41:31Z</time>
      </trkpt>
      <trkpt lat="49.36868" lon="-1.0777">
        <ele>13</ele>
        <time>2020-06-16T12:41:32Z</time>
      </trkpt>
      <trkpt lat="49.36868" lon="-1.0777">
        <ele>13</ele>
        <time>2020-06-16T12:41:33Z</time>
      </trkpt>
      <trkpt lat="49.36868" lon="-1.0777">
        <ele>13</ele>
        <time>2020-06-16T12:41:34Z</time>
      </trkpt>
      <trkpt lat="49.36868" lon="-1.0777">
        <ele>13</ele>
        <time>2020-06-16T12:41:35Z</time>
      </trkpt>
      <trkpt lat="49.36868" lon="-1.07771">
        <ele>13</ele>
        <time>2020-06-16T12:41:36Z</time>
      </trkpt>
      <trkpt lat="49.36868" lon="-1.07771">
        <ele>13</ele>
        <time>2020-06-16T12:41:37Z</time>
      </trkpt>
      <trkpt lat="49.36868" lon="-1.07771">
        <ele>13</ele>
        <time>2020-06-16T12:41:38Z</time>
      </trkpt>
      <trkpt lat="49.36868" lon="-1.07771">
        <ele>13</ele>
        <time>2020-06-16T12:41:39Z</time>
      </trkpt>
      <trkpt lat="49.36869" lon="-1.07771">
        <ele>13</ele>
        <time>2020-06-16T12:41:40Z</time>
      </trkpt>
      <trkpt lat="49.36869" lon="-1.07761">
        <ele>13.2</ele>
        <time>2020-06-16T12:41:57Z</time>
      </trkpt>
      <trkpt lat="49.36868" lon="-1.07761">
        <ele>13.2</ele>
        <time>2020-06-16T12:41:58Z</time>
      </trkpt>
      <trkpt lat="49.36868" lon="-1.07761">
        <ele>13.2</ele>
        <time>2020-06-16T12:41:59Z</time>
      </trkpt>
      <trkpt lat="49.36869" lon="-1.07761">
        <ele>13.2</ele>
        <time>2020-06-16T12:42:00Z</time>
      </trkpt>
      <trkpt lat="49.36868" lon="-1.0776">
        <ele>13.2</ele>
        <time>2020-06-16T12:42:01Z</time>
      </trkpt>
      <trkpt lat="49.36868" lon="-1.0776">
        <ele>13.2</ele>
        <time>2020-06-16T12:42:02Z</time>
      </trkpt>
      <trkpt lat="49.36868" lon="-1.0776">
        <ele>13.2</ele>
        <time>2020-06-16T12:42:03Z</time>
      </trkpt>
      <trkpt lat="49.36868" lon="-1.0776">
        <ele>13.2</ele>
        <time>2020-06-16T12:42:04Z</time>
      </trkpt>
      <trkpt lat="49.36868" lon="-1.07761">
        <ele>13.2</ele>
        <time>2020-06-16T12:42:05Z</time>
      </trkpt>
      <trkpt lat="49.36868" lon="-1.07762">
        <ele>13.2</ele>
        <time>2020-06-16T12:42:06Z</time>
      </trkpt>
      <trkpt lat="49.36867" lon="-1.07762">
        <ele>13.2</ele>
        <time>2020-06-16T12:42:07Z</time>
      </trkpt>
      <trkpt lat="49.36867" lon="-1.07763">
        <ele>13.2</ele>
        <time>2020-06-16T12:42:08Z</time>
      </trkpt>
      <trkpt lat="49.36866" lon="-1.07763">
        <ele>13.2</ele>
        <time>2020-06-16T12:42:09Z</time>
      </trkpt>
      <trkpt lat="49.36866" lon="-1.07763">
        <ele>13.2</ele>
        <time>2020-06-16T12:42:10Z</time>
      </trkpt>
      <trkpt lat="49.36866" lon="-1.07764">
        <ele>13.2</ele>
        <time>2020-06-16T12:42:11Z</time>
      </trkpt>
      <trkpt lat="49.36866" lon="-1.07764">
        <ele>13.2</ele>
        <time>2020-06-16T12:42:12Z</time>
      </trkpt>
      <trkpt lat="49.36866" lon="-1.07764">
        <ele>13.2</ele>
        <time>2020-06-16T12:42:13Z</time>
      </trkpt>
      <trkpt lat="49.36866" lon="-1.07764">
        <ele>13.2</ele>
        <time>2020-06-16T12:42:14Z</time>
      </trkpt>
      <trkpt lat="49.36866" lon="-1.07765">
        <ele>13.2</ele>
        <time>2020-06-16T12:42:15Z</time>
      </trkpt>
      <trkpt lat="49.36866" lon="-1.07765">
        <ele>13.1</ele>
        <time>2020-06-16T12:42:16Z</time>
      </trkpt>
      <trkpt lat="49.36866" lon="-1.07765">
        <ele>13.1</ele>
        <time>2020-06-16T12:42:17Z</time>
      </trkpt>
      <trkpt lat="49.36866" lon="-1.07766">
        <ele>13.1</ele>
        <time>2020-06-16T12:42:18Z</time>
      </trkpt>
      <trkpt lat="49.36866" lon="-1.07766">
        <ele>13.1</ele>
        <time>2020-06-16T12:42:19Z</time>
      </trkpt>
      <trkpt lat="49.36865" lon="-1.07766">
        <ele>13.1</ele>
        <time>2020-06-16T12:42:20Z</time>
      </trkpt>
      <trkpt lat="49.36865" lon="-1.07767">
        <ele>13.1</ele>
        <time>2020-06-16T12:42:21Z</time>
      </trkpt>
      <trkpt lat="49.36866" lon="-1.07767">
        <ele>13.1</ele>
        <time>2020-06-16T12:42:22Z</time>
      </trkpt>
      <trkpt lat="49.36865" lon="-1.07769">
        <ele>13.1</ele>
        <time>2020-06-16T12:42:23Z</time>
      </trkpt>
      <trkpt lat="49.36865" lon="-1.07769">
        <ele>13</ele>
        <time>2020-06-16T12:42:24Z</time>
      </trkpt>
      <trkpt lat="49.36866" lon="-1.0777">
        <ele>13</ele>
        <time>2020-06-16T12:42:25Z</time>
      </trkpt>
      <trkpt lat="49.36866" lon="-1.0777">
        <ele>13</ele>
        <time>2020-06-16T12:42:26Z</time>
      </trkpt>
      <trkpt lat="49.36866" lon="-1.0777">
        <ele>13</ele>
        <time>2020-06-16T12:42:27Z</time>
      </trkpt>
      <trkpt lat="49.36865" lon="-1.07769">
        <ele>13.1</ele>
        <time>2020-06-16T12:42:28Z</time>
      </trkpt>
      <trkpt lat="49.36865" lon="-1.07769">
        <ele>13.1</ele>
        <time>2020-06-16T12:42:29Z</time>
      </trkpt>
      <trkpt lat="49.36865" lon="-1.07769">
        <ele>13.1</ele>
        <time>2020-06-16T12:42:30Z</time>
      </trkpt>
      <trkpt lat="49.36865" lon="-1.07769">
        <ele>13.1</ele>
        <time>2020-06-16T12:42:31Z</time>
      </trkpt>
      <trkpt lat="49.36865" lon="-1.07769">
        <ele>13.1</ele>
        <time>2020-06-16T12:42:32Z</time>
      </trkpt>
      <trkpt lat="49.36866" lon="-1.07769">
        <ele>13.1</ele>
        <time>2020-06-16T12:42:33Z</time>
      </trkpt>
      <trkpt lat="49.36865" lon="-1.07769">
        <ele>13.1</ele>
        <time>2020-06-16T12:42:34Z</time>
      </trkpt>
      <trkpt lat="49.36866" lon="-1.07769">
        <ele>13.1</ele>
        <time>2020-06-16T12:42:35Z</time>
      </trkpt>
      <trkpt lat="49.36866" lon="-1.07769">
        <ele>13.1</ele>
        <time>2020-06-16T12:42:36Z</time>
      </trkpt>
      <trkpt lat="49.36866" lon="-1.0777">
        <ele>13</ele>
        <time>2020-06-16T12:42:37Z</time>
      </trkpt>
      <trkpt lat="49.36866" lon="-1.07771">
        <ele>13</ele>
        <time>2020-06-16T12:42:38Z</time>
      </trkpt>
      <trkpt lat="49.36866" lon="-1.07771">
        <ele>13</ele>
        <time>2020-06-16T12:42:39Z</time>
      </trkpt>
      <trkpt lat="49.36866" lon="-1.07771">
        <ele>13</ele>
        <time>2020-06-16T12:42:40Z</time>
      </trkpt>
      <trkpt lat="49.36866" lon="-1.07772">
        <ele>13</ele>
        <time>2020-06-16T12:42:41Z</time>
      </trkpt>
      <trkpt lat="49.36866" lon="-1.07772">
        <ele>13</ele>
        <time>2020-06-16T12:42:42Z</time>
      </trkpt>
      <trkpt lat="49.36866" lon="-1.07771">
        <ele>13</ele>
        <time>2020-06-16T12:42:43Z</time>
      </trkpt>
      <trkpt lat="49.36866" lon="-1.07771">
        <ele>13</ele>
        <time>2020-06-16T12:42:44Z</time>
      </trkpt>
      <trkpt lat="49.36865" lon="-1.07771">
        <ele>13.1</ele>
        <time>2020-06-16T12:42:45Z</time>
      </trkpt>
      <trkpt lat="49.36865" lon="-1.07772">
        <ele>13.1</ele>
        <time>2020-06-16T12:42:46Z</time>
      </trkpt>
      <trkpt lat="49.36865" lon="-1.07772">
        <ele>13.1</ele>
        <time>2020-06-16T12:42:47Z</time>
      </trkpt>
      <trkpt lat="49.36864" lon="-1.07773">
        <ele>13.1</ele>
        <time>2020-06-16T12:42:48Z</time>
      </trkpt>
      <trkpt lat="49.36864" lon="-1.07772">
        <ele>13.1</ele>
        <time>2020-06-16T12:42:49Z</time>
      </trkpt>
      <trkpt lat="49.36864" lon="-1.07772">
        <ele>13.1</ele>
        <time>2020-06-16T12:42:50Z</time>
      </trkpt>
      <trkpt lat="49.36864" lon="-1.07771">
        <ele>13.1</ele>
        <time>2020-06-16T12:42:51Z</time>
      </trkpt>
      <trkpt lat="49.36863" lon="-1.0777">
        <ele>13.1</ele>
        <time>2020-06-16T12:42:52Z</time>
      </trkpt>
      <trkpt lat="49.36863" lon="-1.07768">
        <ele>13.1</ele>
        <time>2020-06-16T12:42:53Z</time>
      </trkpt>
      <trkpt lat="49.36863" lon="-1.07768">
        <ele>13.1</ele>
        <time>2020-06-16T12:42:54Z</time>
      </trkpt>
      <trkpt lat="49.36863" lon="-1.07767">
        <ele>13.1</ele>
        <time>2020-06-16T12:42:55Z</time>
      </trkpt>
      <trkpt lat="49.36864" lon="-1.07767">
        <ele>13.1</ele>
        <time>2020-06-16T12:42:56Z</time>
      </trkpt>
      <trkpt lat="49.36865" lon="-1.07766">
        <ele>13.1</ele>
        <time>2020-06-16T12:42:57Z</time>
      </trkpt>
      <trkpt lat="49.36865" lon="-1.07766">
        <ele>13.1</ele>
        <time>2020-06-16T12:42:58Z</time>
      </trkpt>
      <trkpt lat="49.36865" lon="-1.07767">
        <ele>13.1</ele>
        <time>2020-06-16T12:42:59Z</time>
      </trkpt>
      <trkpt lat="49.36866" lon="-1.07767">
        <ele>13.1</ele>
        <time>2020-06-16T12:43:00Z</time>
      </trkpt>
      <trkpt lat="49.36865" lon="-1.07768">
        <ele>13.1</ele>
        <time>2020-06-16T12:43:01Z</time>
      </trkpt>
      <trkpt lat="49.36865" lon="-1.07768">
        <ele>13.1</ele>
        <time>2020-06-16T12:43:02Z</time>
      </trkpt>
      <trkpt lat="49.36865" lon="-1.07769">
        <ele>13.1</ele>
        <time>2020-06-16T12:43:03Z</time>
      </trkpt>
      <trkpt lat="49.36865" lon="-1.0777">
        <ele>13.1</ele>
        <time>2020-06-16T12:43:04Z</time>
      </trkpt>
      <trkpt lat="49.36865" lon="-1.0777">
        <ele>13.1</ele>
        <time>2020-06-16T12:43:05Z</time>
      </trkpt>
      <trkpt lat="49.36865" lon="-1.07769">
        <ele>13.1</ele>
        <time>2020-06-16T12:43:06Z</time>
      </trkpt>
      <trkpt lat="49.36865" lon="-1.0777">
        <ele>13</ele>
        <time>2020-06-16T12:43:07Z</time>
      </trkpt>
      <trkpt lat="49.36866" lon="-1.0777">
        <ele>13</ele>
        <time>2020-06-16T12:43:08Z</time>
      </trkpt>
      <trkpt lat="49.36863" lon="-1.07769">
        <ele>13.1</ele>
        <time>2020-06-16T12:44:06Z</time>
      </trkpt>
      <trkpt lat="49.36865" lon="-1.07768">
        <ele>13.1</ele>
        <time>2020-06-16T12:44:07Z</time>
      </trkpt>
      <trkpt lat="49.36865" lon="-1.07768">
        <ele>13.1</ele>
        <time>2020-06-16T12:44:08Z</time>
      </trkpt>
      <trkpt lat="49.36866" lon="-1.07767">
        <ele>13.1</ele>
        <time>2020-06-16T12:44:09Z</time>
      </trkpt>
      <trkpt lat="49.36866" lon="-1.07767">
        <ele>13.1</ele>
        <time>2020-06-16T12:44:10Z</time>
      </trkpt>
      <trkpt lat="49.36867" lon="-1.07767">
        <ele>13.1</ele>
        <time>2020-06-16T12:44:11Z</time>
      </trkpt>
      <trkpt lat="49.36867" lon="-1.07767">
        <ele>13.1</ele>
        <time>2020-06-16T12:44:12Z</time>
      </trkpt>
      <trkpt lat="49.36868" lon="-1.07766">
        <ele>13.1</ele>
        <time>2020-06-16T12:44:13Z</time>
      </trkpt>
      <trkpt lat="49.36868" lon="-1.07767">
        <ele>13.1</ele>
        <time>2020-06-16T12:44:14Z</time>
      </trkpt>
      <trkpt lat="49.36868" lon="-1.07766">
        <ele>13.1</ele>
        <time>2020-06-16T12:44:15Z</time>
      </trkpt>
      <trkpt lat="49.36869" lon="-1.07766">
        <ele>13.1</ele>
        <time>2020-06-16T12:44:16Z</time>
      </trkpt>
      <trkpt lat="49.36869" lon="-1.07766">
        <ele>13.1</ele>
        <time>2020-06-16T12:44:17Z</time>
      </trkpt>
      <trkpt lat="49.36869" lon="-1.07766">
        <ele>13.1</ele>
        <time>2020-06-16T12:44:18Z</time>
      </trkpt>
      <trkpt lat="49.36869" lon="-1.07766">
        <ele>13.1</ele>
        <time>2020-06-16T12:44:19Z</time>
      </trkpt>
      <trkpt lat="49.36868" lon="-1.07768">
        <ele>13.1</ele>
        <time>2020-06-16T12:44:20Z</time>
      </trkpt>
      <trkpt lat="49.36868" lon="-1.07768">
        <ele>13.1</ele>
        <time>2020-06-16T12:44:21Z</time>
      </trkpt>
      <trkpt lat="49.36868" lon="-1.07768">
        <ele>13.1</ele>
        <time>2020-06-16T12:44:22Z</time>
      </trkpt>
      <trkpt lat="49.36868" lon="-1.07768">
        <ele>13.1</ele>
        <time>2020-06-16T12:44:23Z</time>
      </trkpt>
      <trkpt lat="49.36868" lon="-1.07768">
        <ele>13.1</ele>
        <time>2020-06-16T12:44:24Z</time>
      </trkpt>
      <trkpt lat="49.36868" lon="-1.07769">
        <ele>13.1</ele>
        <time>2020-06-16T12:44:25Z</time>
      </trkpt>
      <trkpt lat="49.36868" lon="-1.0777">
        <ele>13</ele>
        <time>2020-06-16T12:44:26Z</time>
      </trkpt>
      <trkpt lat="49.36868" lon="-1.07769">
        <ele>13</ele>
        <time>2020-06-16T12:44:27Z</time>
      </trkpt>
      <trkpt lat="49.36868" lon="-1.0777">
        <ele>13</ele>
        <time>2020-06-16T12:44:28Z</time>
      </trkpt>
      <trkpt lat="49.36868" lon="-1.0777">
        <ele>13</ele>
        <time>2020-06-16T12:44:29Z</time>
      </trkpt>
      <trkpt lat="49.36868" lon="-1.07772">
        <ele>13</ele>
        <time>2020-06-16T12:44:30Z</time>
      </trkpt>
      <trkpt lat="49.36868" lon="-1.07772">
        <ele>13</ele>
        <time>2020-06-16T12:44:31Z</time>
      </trkpt>
      <trkpt lat="49.36867" lon="-1.07772">
        <ele>13</ele>
        <time>2020-06-16T12:44:32Z</time>
      </trkpt>
      <trkpt lat="49.36867" lon="-1.07771">
        <ele>13</ele>
        <time>2020-06-16T12:44:33Z</time>
      </trkpt>
      <trkpt lat="49.36868" lon="-1.07772">
        <ele>13</ele>
        <time>2020-06-16T12:44:34Z</time>
      </trkpt>
      <trkpt lat="49.36867" lon="-1.07772">
        <ele>13</ele>
        <time>2020-06-16T12:44:35Z</time>
      </trkpt>
      <trkpt lat="49.36868" lon="-1.07772">
        <ele>13</ele>
        <time>2020-06-16T12:44:36Z</time>
      </trkpt>
      <trkpt lat="49.36868" lon="-1.07772">
        <ele>13</ele>
        <time>2020-06-16T12:44:37Z</time>
      </trkpt>
      <trkpt lat="49.36869" lon="-1.07763">
        <ele>13.2</ele>
        <time>2020-06-16T12:45:20Z</time>
      </trkpt>
      <trkpt lat="49.36869" lon="-1.07762">
        <ele>13.2</ele>
        <time>2020-06-16T12:45:21Z</time>
      </trkpt>
      <trkpt lat="49.36869" lon="-1.07762">
        <ele>13.2</ele>
        <time>2020-06-16T12:45:22Z</time>
      </trkpt>
      <trkpt lat="49.36869" lon="-1.07762">
        <ele>13.2</ele>
        <time>2020-06-16T12:45:23Z</time>
      </trkpt>
      <trkpt lat="49.36869" lon="-1.07761">
        <ele>13.2</ele>
        <time>2020-06-16T12:45:24Z</time>
      </trkpt>
      <trkpt lat="49.36869" lon="-1.07761">
        <ele>13.2</ele>
        <time>2020-06-16T12:45:25Z</time>
      </trkpt>
      <trkpt lat="49.36869" lon="-1.07761">
        <ele>13.2</ele>
        <time>2020-06-16T12:45:26Z</time>
      </trkpt>
      <trkpt lat="49.36869" lon="-1.07761">
        <ele>13.2</ele>
        <time>2020-06-16T12:45:27Z</time>
      </trkpt>
      <trkpt lat="49.36869" lon="-1.0776">
        <ele>13.2</ele>
        <time>2020-06-16T12:45:28Z</time>
      </trkpt>
      <trkpt lat="49.36869" lon="-1.07759">
        <ele>13.2</ele>
        <time>2020-06-16T12:45:29Z</time>
      </trkpt>
      <trkpt lat="49.3687" lon="-1.07759">
        <ele>13.2</ele>
        <time>2020-06-16T12:45:30Z</time>
      </trkpt>
      <trkpt lat="49.36871" lon="-1.0776">
        <ele>13.2</ele>
        <time>2020-06-16T12:45:31Z</time>
      </trkpt>
      <trkpt lat="49.36871" lon="-1.0776">
        <ele>13.2</ele>
        <time>2020-06-16T12:45:32Z</time>
      </trkpt>
      <trkpt lat="49.36871" lon="-1.0776">
        <ele>13.2</ele>
        <time>2020-06-16T12:45:33Z</time>
      </trkpt>
      <trkpt lat="49.36872" lon="-1.07761">
        <ele>13.1</ele>
        <time>2020-06-16T12:45:34Z</time>
      </trkpt>
      <trkpt lat="49.36872" lon="-1.07761">
        <ele>13.1</ele>
        <time>2020-06-16T12:45:35Z</time>
      </trkpt>
      <trkpt lat="49.36872" lon="-1.07762">
        <ele>13.1</ele>
        <time>2020-06-16T12:45:36Z</time>
      </trkpt>
      <trkpt lat="49.36873" lon="-1.07763">
        <ele>13.1</ele>
        <time>2020-06-16T12:45:37Z</time>
      </trkpt>
      <trkpt lat="49.36873" lon="-1.07763">
        <ele>13.1</ele>
        <time>2020-06-16T12:45:38Z</time>
      </trkpt>
      <trkpt lat="49.36874" lon="-1.07763">
        <ele>13.1</ele>
        <time>2020-06-16T12:45:39Z</time>
      </trkpt>
      <trkpt lat="49.36874" lon="-1.07762">
        <ele>13.1</ele>
        <time>2020-06-16T12:45:40Z</time>
      </trkpt>
      <trkpt lat="49.36874" lon="-1.07762">
        <ele>13.1</ele>
        <time>2020-06-16T12:45:41Z</time>
      </trkpt>
      <trkpt lat="49.36874" lon="-1.07763">
        <ele>13.1</ele>
        <time>2020-06-16T12:45:42Z</time>
      </trkpt>
      <trkpt lat="49.36874" lon="-1.07764">
        <ele>13.1</ele>
        <time>2020-06-16T12:45:43Z</time>
      </trkpt>
      <trkpt lat="49.36874" lon="-1.07766">
        <ele>13</ele>
        <time>2020-06-16T12:45:44Z</time>
      </trkpt>
      <trkpt lat="49.36874" lon="-1.07767">
        <ele>13</ele>
        <time>2020-06-16T12:45:45Z</time>
      </trkpt>
      <trkpt lat="49.36874" lon="-1.07767">
        <ele>13</ele>
        <time>2020-06-16T12:45:46Z</time>
      </trkpt>
      <trkpt lat="49.36874" lon="-1.07767">
        <ele>13</ele>
        <time>2020-06-16T12:45:47Z</time>
      </trkpt>
      <trkpt lat="49.36874" lon="-1.07767">
        <ele>13</ele>
        <time>2020-06-16T12:45:48Z</time>
      </trkpt>
      <trkpt lat="49.36874" lon="-1.07767">
        <ele>13</ele>
        <time>2020-06-16T12:45:49Z</time>
      </trkpt>
      <trkpt lat="49.36874" lon="-1.07767">
        <ele>13</ele>
        <time>2020-06-16T12:45:50Z</time>
      </trkpt>
      <trkpt lat="49.36874" lon="-1.07767">
        <ele>13</ele>
        <time>2020-06-16T12:45:51Z</time>
      </trkpt>
      <trkpt lat="49.36867" lon="-1.07761">
        <ele>13.2</ele>
        <time>2020-06-16T12:46:44Z</time>
      </trkpt>
      <trkpt lat="49.36867" lon="-1.0776">
        <ele>13.3</ele>
        <time>2020-06-16T12:46:45Z</time>
      </trkpt>
      <trkpt lat="49.36867" lon="-1.07759">
        <ele>13.3</ele>
        <time>2020-06-16T12:46:46Z</time>
      </trkpt>
      <trkpt lat="49.36866" lon="-1.07759">
        <ele>13.3</ele>
        <time>2020-06-16T12:46:47Z</time>
      </trkpt>
      <trkpt lat="49.36866" lon="-1.07759">
        <ele>13.3</ele>
        <time>2020-06-16T12:46:48Z</time>
      </trkpt>
      <trkpt lat="49.36866" lon="-1.07759">
        <ele>13.3</ele>
        <time>2020-06-16T12:46:49Z</time>
      </trkpt>
      <trkpt lat="49.36865" lon="-1.07759">
        <ele>13.3</ele>
        <time>2020-06-16T12:46:50Z</time>
      </trkpt>
      <trkpt lat="49.36866" lon="-1.07759">
        <ele>13.3</ele>
        <time>2020-06-16T12:46:51Z</time>
      </trkpt>
      <trkpt lat="49.36866" lon="-1.07759">
        <ele>13.3</ele>
        <time>2020-06-16T12:46:52Z</time>
      </trkpt>
      <trkpt lat="49.36865" lon="-1.0776">
        <ele>13.3</ele>
        <time>2020-06-16T12:46:53Z</time>
      </trkpt>
      <trkpt lat="49.36865" lon="-1.0776">
        <ele>13.3</ele>
        <time>2020-06-16T12:46:54Z</time>
      </trkpt>
      <trkpt lat="49.36864" lon="-1.0776">
        <ele>13.3</ele>
        <time>2020-06-16T12:46:55Z</time>
      </trkpt>
      <trkpt lat="49.36864" lon="-1.07761">
        <ele>13.2</ele>
        <time>2020-06-16T12:46:56Z</time>
      </trkpt>
      <trkpt lat="49.36864" lon="-1.0776">
        <ele>13.3</ele>
        <time>2020-06-16T12:46:57Z</time>
      </trkpt>
      <trkpt lat="49.36864" lon="-1.0776">
        <ele>13.3</ele>
        <time>2020-06-16T12:46:58Z</time>
      </trkpt>
      <trkpt lat="49.36864" lon="-1.0776">
        <ele>13.3</ele>
        <time>2020-06-16T12:46:59Z</time>
      </trkpt>
      <trkpt lat="49.36865" lon="-1.0776">
        <ele>13.3</ele>
        <time>2020-06-16T12:47:00Z</time>
      </trkpt>
      <trkpt lat="49.36865" lon="-1.07761">
        <ele>13.2</ele>
        <time>2020-06-16T12:47:01Z</time>
      </trkpt>
      <trkpt lat="49.36865" lon="-1.07761">
        <ele>13.2</ele>
        <time>2020-06-16T12:47:02Z</time>
      </trkpt>
      <trkpt lat="49.36865" lon="-1.07761">
        <ele>13.2</ele>
        <time>2020-06-16T12:47:03Z</time>
      </trkpt>
      <trkpt lat="49.36865" lon="-1.07761">
        <ele>13.2</ele>
        <time>2020-06-16T12:47:04Z</time>
      </trkpt>
      <trkpt lat="49.36865" lon="-1.07761">
        <ele>13.2</ele>
        <time>2020-06-16T12:47:05Z</time>
      </trkpt>
      <trkpt lat="49.36864" lon="-1.07762">
        <ele>13.2</ele>
        <time>2020-06-16T12:47:06Z</time>
      </trkpt>
      <trkpt lat="49.36864" lon="-1.07763">
        <ele>13.2</ele>
        <time>2020-06-16T12:47:07Z</time>
      </trkpt>
      <trkpt lat="49.36864" lon="-1.07763">
        <ele>13.2</ele>
        <time>2020-06-16T12:47:08Z</time>
      </trkpt>
      <trkpt lat="49.36864" lon="-1.07764">
        <ele>13.2</ele>
        <time>2020-06-16T12:47:09Z</time>
      </trkpt>
      <trkpt lat="49.36864" lon="-1.07765">
        <ele>13.1</ele>
        <time>2020-06-16T12:47:10Z</time>
      </trkpt>
      <trkpt lat="49.36864" lon="-1.07766">
        <ele>13.1</ele>
        <time>2020-06-16T12:47:11Z</time>
      </trkpt>
      <trkpt lat="49.36863" lon="-1.07766">
        <ele>13.1</ele>
        <time>2020-06-16T12:47:12Z</time>
      </trkpt>
      <trkpt lat="49.36863" lon="-1.07766">
        <ele>13.1</ele>
        <time>2020-06-16T12:47:13Z</time>
      </trkpt>
      <trkpt lat="49.36863" lon="-1.07767">
        <ele>13.1</ele>
        <time>2020-06-16T12:47:14Z</time>
      </trkpt>
      <trkpt lat="49.36864" lon="-1.07768">
        <ele>13.1</ele>
        <time>2020-06-16T12:47:15Z</time>
      </trkpt>
      <trkpt lat="49.36863" lon="-1.07768">
        <ele>13.1</ele>
        <time>2020-06-16T12:47:16Z</time>
      </trkpt>
      <trkpt lat="49.36863" lon="-1.07768">
        <ele>13.1</ele>
        <time>2020-06-16T12:47:17Z</time>
      </trkpt>
      <trkpt lat="49.36863" lon="-1.0777">
        <ele>13.1</ele>
        <time>2020-06-16T12:47:18Z</time>
      </trkpt>
      <trkpt lat="49.36863" lon="-1.07769">
        <ele>13.1</ele>
        <time>2020-06-16T12:47:19Z</time>
      </trkpt>
      <trkpt lat="49.36863" lon="-1.0777">
        <ele>13.1</ele>
        <time>2020-06-16T12:47:20Z</time>
      </trkpt>
      <trkpt lat="49.36862" lon="-1.0777">
        <ele>13.1</ele>
        <time>2020-06-16T12:47:21Z</time>
      </trkpt>
      <trkpt lat="49.36862" lon="-1.07771">
        <ele>13.1</ele>
        <time>2020-06-16T12:47:22Z</time>
      </trkpt>
      <trkpt lat="49.36862" lon="-1.07772">
        <ele>13.1</ele>
        <time>2020-06-16T12:47:23Z</time>
      </trkpt>
      <trkpt lat="49.36861" lon="-1.07772">
        <ele>13.1</ele>
        <time>2020-06-16T12:47:24Z</time>
      </trkpt>
      <trkpt lat="49.36864" lon="-1.0779">
        <ele>12.8</ele>
        <time>2020-06-16T13:02:58Z</time>
      </trkpt>
      <trkpt lat="49.36863" lon="-1.0779">
        <ele>12.8</ele>
        <time>2020-06-16T13:02:59Z</time>
      </trkpt>
      <trkpt lat="49.36863" lon="-1.07791">
        <ele>12.7</ele>
        <time>2020-06-16T13:03:00Z</time>
      </trkpt>
      <trkpt lat="49.36862" lon="-1.07792">
        <ele>12.7</ele>
        <time>2020-06-16T13:03:01Z</time>
      </trkpt>
      <trkpt lat="49.36863" lon="-1.07792">
        <ele>12.7</ele>
        <time>2020-06-16T13:03:02Z</time>
      </trkpt>
      <trkpt lat="49.36863" lon="-1.07792">
        <ele>12.7</ele>
        <time>2020-06-16T13:03:03Z</time>
      </trkpt>
      <trkpt lat="49.36863" lon="-1.07793">
        <ele>12.7</ele>
        <time>2020-06-16T13:03:04Z</time>
      </trkpt>
      <trkpt lat="49.36864" lon="-1.07793">
        <ele>12.7</ele>
        <time>2020-06-16T13:03:05Z</time>
      </trkpt>
      <trkpt lat="49.36865" lon="-1.07793">
        <ele>12.7</ele>
        <time>2020-06-16T13:03:06Z</time>
      </trkpt>
      <trkpt lat="49.36865" lon="-1.07793">
        <ele>12.7</ele>
        <time>2020-06-16T13:03:07Z</time>
      </trkpt>
      <trkpt lat="49.36865" lon="-1.07793">
        <ele>12.7</ele>
        <time>2020-06-16T13:03:08Z</time>
      </trkpt>
      <trkpt lat="49.36866" lon="-1.07793">
        <ele>12.7</ele>
        <time>2020-06-16T13:03:09Z</time>
      </trkpt>
      <trkpt lat="49.36866" lon="-1.07793">
        <ele>12.7</ele>
        <time>2020-06-16T13:03:10Z</time>
      </trkpt>
      <trkpt lat="49.36866" lon="-1.07793">
        <ele>12.7</ele>
        <time>2020-06-16T13:03:11Z</time>
      </trkpt>
      <trkpt lat="49.36866" lon="-1.07792">
        <ele>12.7</ele>
        <time>2020-06-16T13:03:12Z</time>
      </trkpt>
      <trkpt lat="49.36866" lon="-1.07792">
        <ele>12.7</ele>
        <time>2020-06-16T13:03:13Z</time>
      </trkpt>
      <trkpt lat="49.36866" lon="-1.07792">
        <ele>12.7</ele>
        <time>2020-06-16T13:03:14Z</time>
      </trkpt>
      <trkpt lat="49.36866" lon="-1.07792">
        <ele>12.7</ele>
        <time>2020-06-16T13:03:15Z</time>
      </trkpt>
      <trkpt lat="49.36864" lon="-1.07784">
        <ele>12.8</ele>
        <time>2020-06-16T13:03:56Z</time>
      </trkpt>
      <trkpt lat="49.36864" lon="-1.07784">
        <ele>12.8</ele>
        <time>2020-06-16T13:03:57Z</time>
      </trkpt>
      <trkpt lat="49.36863" lon="-1.07783">
        <ele>12.8</ele>
        <time>2020-06-16T13:03:58Z</time>
      </trkpt>
      <trkpt lat="49.36862" lon="-1.07782">
        <ele>12.8</ele>
        <time>2020-06-16T13:03:59Z</time>
      </trkpt>
      <trkpt lat="49.3686" lon="-1.07781">
        <ele>12.9</ele>
        <time>2020-06-16T13:04:00Z</time>
      </trkpt>
      <trkpt lat="49.36859" lon="-1.07781">
        <ele>12.9</ele>
        <time>2020-06-16T13:04:01Z</time>
      </trkpt>
      <trkpt lat="49.36858" lon="-1.07781">
        <ele>12.9</ele>
        <time>2020-06-16T13:04:02Z</time>
      </trkpt>
      <trkpt lat="49.36857" lon="-1.07781">
        <ele>12.9</ele>
        <time>2020-06-16T13:04:03Z</time>
      </trkpt>
      <trkpt lat="49.36857" lon="-1.0778">
        <ele>12.9</ele>
        <time>2020-06-16T13:04:04Z</time>
      </trkpt>
      <trkpt lat="49.36857" lon="-1.0778">
        <ele>12.9</ele>
        <time>2020-06-16T13:04:05Z</time>
      </trkpt>
      <trkpt lat="49.36857" lon="-1.0778">
        <ele>12.9</ele>
        <time>2020-06-16T13:04:06Z</time>
      </trkpt>
      <trkpt lat="49.36857" lon="-1.0778">
        <ele>12.9</ele>
        <time>2020-06-16T13:04:07Z</time>
      </trkpt>
      <trkpt lat="49.36857" lon="-1.0778">
        <ele>12.9</ele>
        <time>2020-06-16T13:04:08Z</time>
      </trkpt>
      <trkpt lat="49.36858" lon="-1.0778">
        <ele>12.9</ele>
        <time>2020-06-16T13:04:09Z</time>
      </trkpt>
      <trkpt lat="49.36857" lon="-1.07779">
        <ele>12.9</ele>
        <time>2020-06-16T13:04:10Z</time>
      </trkpt>
      <trkpt lat="49.36857" lon="-1.07779">
        <ele>12.9</ele>
        <time>2020-06-16T13:04:11Z</time>
      </trkpt>
      <trkpt lat="49.36858" lon="-1.07778">
        <ele>12.9</ele>
        <time>2020-06-16T13:04:12Z</time>
      </trkpt>
      <trkpt lat="49.36858" lon="-1.07778">
        <ele>12.9</ele>
        <time>2020-06-16T13:04:13Z</time>
      </trkpt>
      <trkpt lat="49.36859" lon="-1.07779">
        <ele>12.9</ele>
        <time>2020-06-16T13:04:14Z</time>
      </trkpt>
      <trkpt lat="49.3686" lon="-1.07779">
        <ele>12.9</ele>
        <time>2020-06-16T13:04:15Z</time>
      </trkpt>
      <trkpt lat="49.36861" lon="-1.0778">
        <ele>12.9</ele>
        <time>2020-06-16T13:04:16Z</time>
      </trkpt>
      <trkpt lat="49.36862" lon="-1.0778">
        <ele>12.9</ele>
        <time>2020-06-16T13:04:17Z</time>
      </trkpt>
      <trkpt lat="49.36862" lon="-1.0778">
        <ele>12.9</ele>
        <time>2020-06-16T13:04:18Z</time>
      </trkpt>
      <trkpt lat="49.36864" lon="-1.0778">
        <ele>12.9</ele>
        <time>2020-06-16T13:04:19Z</time>
      </trkpt>
      <trkpt lat="49.36864" lon="-1.0778">
        <ele>12.9</ele>
        <time>2020-06-16T13:04:20Z</time>
      </trkpt>
      <trkpt lat="49.36864" lon="-1.0778">
        <ele>12.9</ele>
        <time>2020-06-16T13:04:21Z</time>
      </trkpt>
      <trkpt lat="49.36865" lon="-1.0778">
        <ele>12.9</ele>
        <time>2020-06-16T13:04:22Z</time>
      </trkpt>
      <trkpt lat="49.36866" lon="-1.07781">
        <ele>12.9</ele>
        <time>2020-06-16T13:04:23Z</time>
      </trkpt>
      <trkpt lat="49.36866" lon="-1.07781">
        <ele>12.9</ele>
        <time>2020-06-16T13:04:24Z</time>
      </trkpt>
      <trkpt lat="49.36867" lon="-1.07781">
        <ele>12.9</ele>
        <time>2020-06-16T13:04:25Z</time>
      </trkpt>
      <trkpt lat="49.36867" lon="-1.07781">
        <ele>12.9</ele>
        <time>2020-06-16T13:04:26Z</time>
      </trkpt>
      <trkpt lat="49.36868" lon="-1.07781">
        <ele>12.9</ele>
        <time>2020-06-16T13:04:27Z</time>
      </trkpt>
      <trkpt lat="49.36868" lon="-1.07781">
        <ele>12.9</ele>
        <time>2020-06-16T13:04:28Z</time>
      </trkpt>
      <trkpt lat="49.36868" lon="-1.0778">
        <ele>12.9</ele>
        <time>2020-06-16T13:04:29Z</time>
      </trkpt>
      <trkpt lat="49.36868" lon="-1.07779">
        <ele>12.9</ele>
        <time>2020-06-16T13:04:30Z</time>
      </trkpt>
      <trkpt lat="49.36868" lon="-1.07778">
        <ele>12.9</ele>
        <time>2020-06-16T13:04:31Z</time>
      </trkpt>
      <trkpt lat="49.36868" lon="-1.07778">
        <ele>12.9</ele>
        <time>2020-06-16T13:04:32Z</time>
      </trkpt>
      <trkpt lat="49.36867" lon="-1.07778">
        <ele>12.9</ele>
        <time>2020-06-16T13:04:33Z</time>
      </trkpt>
      <trkpt lat="49.36868" lon="-1.07778">
        <ele>12.9</ele>
        <time>2020-06-16T13:04:34Z</time>
      </trkpt>
      <trkpt lat="49.36868" lon="-1.07778">
        <ele>12.9</ele>
        <time>2020-06-16T13:04:35Z</time>
      </trkpt>
      <trkpt lat="49.36869" lon="-1.07778">
        <ele>12.9</ele>
        <time>2020-06-16T13:04:36Z</time>
      </trkpt>
      <trkpt lat="49.36869" lon="-1.07778">
        <ele>12.9</ele>
        <time>2020-06-16T13:04:37Z</time>
      </trkpt>
      <trkpt lat="49.36869" lon="-1.07778">
        <ele>12.9</ele>
        <time>2020-06-16T13:04:38Z</time>
      </trkpt>
      <trkpt lat="49.36857" lon="-1.07772">
        <ele>13.1</ele>
        <time>2020-06-16T13:06:08Z</time>
      </trkpt>
      <trkpt lat="49.36856" lon="-1.07772">
        <ele>13.1</ele>
        <time>2020-06-16T13:06:09Z</time>
      </trkpt>
      <trkpt lat="49.36856" lon="-1.07771">
        <ele>13.1</ele>
        <time>2020-06-16T13:06:10Z</time>
      </trkpt>
      <trkpt lat="49.36856" lon="-1.0777">
        <ele>13.1</ele>
        <time>2020-06-16T13:06:11Z</time>
      </trkpt>
      <trkpt lat="49.36855" lon="-1.07769">
        <ele>13.1</ele>
        <time>2020-06-16T13:06:12Z</time>
      </trkpt>
      <trkpt lat="49.36856" lon="-1.07769">
        <ele>13.2</ele>
        <time>2020-06-16T13:06:13Z</time>
      </trkpt>
      <trkpt lat="49.36855" lon="-1.07768">
        <ele>13.2</ele>
        <time>2020-06-16T13:06:14Z</time>
      </trkpt>
      <trkpt lat="49.36855" lon="-1.07768">
        <ele>13.2</ele>
        <time>2020-06-16T13:06:15Z</time>
      </trkpt>
      <trkpt lat="49.36855" lon="-1.07767">
        <ele>13.2</ele>
        <time>2020-06-16T13:06:16Z</time>
      </trkpt>
      <trkpt lat="49.36854" lon="-1.07766">
        <ele>13.2</ele>
        <time>2020-06-16T13:06:17Z</time>
      </trkpt>
      <trkpt lat="49.36853" lon="-1.07766">
        <ele>13.2</ele>
        <time>2020-06-16T13:06:18Z</time>
      </trkpt>
      <trkpt lat="49.36854" lon="-1.07766">
        <ele>13.2</ele>
        <time>2020-06-16T13:06:19Z</time>
      </trkpt>
      <trkpt lat="49.36854" lon="-1.07767">
        <ele>13.2</ele>
        <time>2020-06-16T13:06:20Z</time>
      </trkpt>
      <trkpt lat="49.36855" lon="-1.07766">
        <ele>13.2</ele>
        <time>2020-06-16T13:06:21Z</time>
      </trkpt>
      <trkpt lat="49.36855" lon="-1.07765">
        <ele>13.2</ele>
        <time>2020-06-16T13:06:22Z</time>
      </trkpt>
      <trkpt lat="49.36855" lon="-1.07765">
        <ele>13.3</ele>
        <time>2020-06-16T13:06:23Z</time>
      </trkpt>
      <trkpt lat="49.36855" lon="-1.07764">
        <ele>13.3</ele>
        <time>2020-06-16T13:06:24Z</time>
      </trkpt>
      <trkpt lat="49.36855" lon="-1.07763">
        <ele>13.3</ele>
        <time>2020-06-16T13:06:25Z</time>
      </trkpt>
      <trkpt lat="49.36857" lon="-1.07764">
        <ele>13.3</ele>
        <time>2020-06-16T13:06:26Z</time>
      </trkpt>
      <trkpt lat="49.36857" lon="-1.07764">
        <ele>13.3</ele>
        <time>2020-06-16T13:06:27Z</time>
      </trkpt>
      <trkpt lat="49.36858" lon="-1.07764">
        <ele>13.3</ele>
        <time>2020-06-16T13:06:28Z</time>
      </trkpt>
      <trkpt lat="49.36858" lon="-1.07764">
        <ele>13.3</ele>
        <time>2020-06-16T13:06:29Z</time>
      </trkpt>
      <trkpt lat="49.36858" lon="-1.07763">
        <ele>13.3</ele>
        <time>2020-06-16T13:06:30Z</time>
      </trkpt>
      <trkpt lat="49.36858" lon="-1.07763">
        <ele>13.3</ele>
        <time>2020-06-16T13:06:31Z</time>
      </trkpt>
      <trkpt lat="49.36858" lon="-1.07762">
        <ele>13.3</ele>
        <time>2020-06-16T13:06:32Z</time>
      </trkpt>
      <trkpt lat="49.36858" lon="-1.07762">
        <ele>13.3</ele>
        <time>2020-06-16T13:06:33Z</time>
      </trkpt>
      <trkpt lat="49.36858" lon="-1.07763">
        <ele>13.3</ele>
        <time>2020-06-16T13:06:34Z</time>
      </trkpt>
      <trkpt lat="49.36858" lon="-1.07764">
        <ele>13.3</ele>
        <time>2020-06-16T13:06:35Z</time>
      </trkpt>
      <trkpt lat="49.36858" lon="-1.07766">
        <ele>13.2</ele>
        <time>2020-06-16T13:06:36Z</time>
      </trkpt>
      <trkpt lat="49.36858" lon="-1.07766">
        <ele>13.2</ele>
        <time>2020-06-16T13:06:37Z</time>
      </trkpt>
      <trkpt lat="49.36857" lon="-1.07767">
        <ele>13.2</ele>
        <time>2020-06-16T13:06:38Z</time>
      </trkpt>
      <trkpt lat="49.36857" lon="-1.07767">
        <ele>13.2</ele>
        <time>2020-06-16T13:06:39Z</time>
      </trkpt>
      <trkpt lat="49.36857" lon="-1.07767">
        <ele>13.2</ele>
        <time>2020-06-16T13:06:40Z</time>
      </trkpt>
      <trkpt lat="49.36857" lon="-1.07767">
        <ele>13.2</ele>
        <time>2020-06-16T13:06:41Z</time>
      </trkpt>
      <trkpt lat="49.36857" lon="-1.07767">
        <ele>13.2</ele>
        <time>2020-06-16T13:06:42Z</time>
      </trkpt>
      <trkpt lat="49.36857" lon="-1.07767">
        <ele>13.2</ele>
        <time>2020-06-16T13:06:43Z</time>
      </trkpt>
      <trkpt lat="49.36857" lon="-1.07767">
        <ele>13.2</ele>
        <time>2020-06-16T13:06:44Z</time>
      </trkpt>
      <trkpt lat="49.36857" lon="-1.07767">
        <ele>13.2</ele>
        <time>2020-06-16T13:06:45Z</time>
      </trkpt>
      <trkpt lat="49.36853" lon="-1.07772">
        <ele>13.1</ele>
        <time>2020-06-16T13:07:17Z</time>
      </trkpt>
      <trkpt lat="49.36852" lon="-1.07773">
        <ele>13.1</ele>
        <time>2020-06-16T13:07:18Z</time>
      </trkpt>
      <trkpt lat="49.36851" lon="-1.07773">
        <ele>13.2</ele>
        <time>2020-06-16T13:07:19Z</time>
      </trkpt>
      <trkpt lat="49.3685" lon="-1.07774">
        <ele>13.1</ele>
        <time>2020-06-16T13:07:20Z</time>
      </trkpt>
      <trkpt lat="49.3685" lon="-1.07774">
        <ele>13.1</ele>
        <time>2020-06-16T13:07:21Z</time>
      </trkpt>
      <trkpt lat="49.3685" lon="-1.07774">
        <ele>13.1</ele>
        <time>2020-06-16T13:07:22Z</time>
      </trkpt>
      <trkpt lat="49.36851" lon="-1.07775">
        <ele>13.1</ele>
        <time>2020-06-16T13:07:23Z</time>
      </trkpt>
      <trkpt lat="49.36851" lon="-1.07775">
        <ele>13.1</ele>
        <time>2020-06-16T13:07:24Z</time>
      </trkpt>
      <trkpt lat="49.3685" lon="-1.07775">
        <ele>13.1</ele>
        <time>2020-06-16T13:07:25Z</time>
      </trkpt>
      <trkpt lat="49.36852" lon="-1.07775">
        <ele>13.1</ele>
        <time>2020-06-16T13:07:26Z</time>
      </trkpt>
      <trkpt lat="49.36851" lon="-1.07776">
        <ele>13.1</ele>
        <time>2020-06-16T13:07:27Z</time>
      </trkpt>
      <trkpt lat="49.36851" lon="-1.07776">
        <ele>13.1</ele>
        <time>2020-06-16T13:07:28Z</time>
      </trkpt>
      <trkpt lat="49.36851" lon="-1.07776">
        <ele>13.1</ele>
        <time>2020-06-16T13:07:29Z</time>
      </trkpt>
      <trkpt lat="49.36851" lon="-1.07775">
        <ele>13.1</ele>
        <time>2020-06-16T13:07:30Z</time>
      </trkpt>
      <trkpt lat="49.36852" lon="-1.07776">
        <ele>13.1</ele>
        <time>2020-06-16T13:07:31Z</time>
      </trkpt>
      <trkpt lat="49.36853" lon="-1.07776">
        <ele>13.1</ele>
        <time>2020-06-16T13:07:32Z</time>
      </trkpt>
      <trkpt lat="49.36853" lon="-1.07776">
        <ele>13.1</ele>
        <time>2020-06-16T13:07:33Z</time>
      </trkpt>
      <trkpt lat="49.36852" lon="-1.07777">
        <ele>13.1</ele>
        <time>2020-06-16T13:07:34Z</time>
      </trkpt>
      <trkpt lat="49.36853" lon="-1.07777">
        <ele>13.1</ele>
        <time>2020-06-16T13:07:35Z</time>
      </trkpt>
      <trkpt lat="49.36853" lon="-1.07777">
        <ele>13.1</ele>
        <time>2020-06-16T13:07:36Z</time>
      </trkpt>
      <trkpt lat="49.36852" lon="-1.07777">
        <ele>13.1</ele>
        <time>2020-06-16T13:07:37Z</time>
      </trkpt>
      <trkpt lat="49.36855" lon="-1.07786">
        <ele>12.9</ele>
        <time>2020-06-16T13:09:00Z</time>
      </trkpt>
      <trkpt lat="49.36856" lon="-1.07787">
        <ele>12.8</ele>
        <time>2020-06-16T13:09:01Z</time>
      </trkpt>
      <trkpt lat="49.36855" lon="-1.07787">
        <ele>12.8</ele>
        <time>2020-06-16T13:09:02Z</time>
      </trkpt>
      <trkpt lat="49.36855" lon="-1.07787">
        <ele>12.8</ele>
        <time>2020-06-16T13:09:03Z</time>
      </trkpt>
      <trkpt lat="49.36854" lon="-1.07788">
        <ele>12.8</ele>
        <time>2020-06-16T13:09:04Z</time>
      </trkpt>
      <trkpt lat="49.36854" lon="-1.07787">
        <ele>12.8</ele>
        <time>2020-06-16T13:09:05Z</time>
      </trkpt>
      <trkpt lat="49.36854" lon="-1.07788">
        <ele>12.8</ele>
        <time>2020-06-16T13:09:06Z</time>
      </trkpt>
      <trkpt lat="49.36855" lon="-1.07789">
        <ele>12.8</ele>
        <time>2020-06-16T13:09:07Z</time>
      </trkpt>
      <trkpt lat="49.36855" lon="-1.07789">
        <ele>12.8</ele>
        <time>2020-06-16T13:09:08Z</time>
      </trkpt>
      <trkpt lat="49.36855" lon="-1.0779">
        <ele>12.8</ele>
        <time>2020-06-16T13:09:09Z</time>
      </trkpt>
      <trkpt lat="49.36856" lon="-1.07789">
        <ele>12.8</ele>
        <time>2020-06-16T13:09:10Z</time>
      </trkpt>
      <trkpt lat="49.36856" lon="-1.07789">
        <ele>12.8</ele>
        <time>2020-06-16T13:09:11Z</time>
      </trkpt>
      <trkpt lat="49.36857" lon="-1.0779">
        <ele>12.8</ele>
        <time>2020-06-16T13:09:12Z</time>
      </trkpt>
      <trkpt lat="49.36858" lon="-1.0779">
        <ele>12.8</ele>
        <time>2020-06-16T13:09:13Z</time>
      </trkpt>
      <trkpt lat="49.36859" lon="-1.0779">
        <ele>12.8</ele>
        <time>2020-06-16T13:09:14Z</time>
      </trkpt>
      <trkpt lat="49.36859" lon="-1.0779">
        <ele>12.8</ele>
        <time>2020-06-16T13:09:15Z</time>
      </trkpt>
      <trkpt lat="49.36859" lon="-1.07789">
        <ele>12.8</ele>
        <time>2020-06-16T13:09:16Z</time>
      </trkpt>
      <trkpt lat="49.3686" lon="-1.07788">
        <ele>12.8</ele>
        <time>2020-06-16T13:09:17Z</time>
      </trkpt>
      <trkpt lat="49.36861" lon="-1.07787">
        <ele>12.8</ele>
        <time>2020-06-16T13:09:18Z</time>
      </trkpt>
      <trkpt lat="49.36861" lon="-1.07787">
        <ele>12.8</ele>
        <time>2020-06-16T13:09:19Z</time>
      </trkpt>
      <trkpt lat="49.36862" lon="-1.07787">
        <ele>12.8</ele>
        <time>2020-06-16T13:09:20Z</time>
      </trkpt>
      <trkpt lat="49.36863" lon="-1.07787">
        <ele>12.8</ele>
        <time>2020-06-16T13:09:21Z</time>
      </trkpt>
      <trkpt lat="49.36863" lon="-1.07787">
        <ele>12.8</ele>
        <time>2020-06-16T13:09:22Z</time>
      </trkpt>
      <trkpt lat="49.36864" lon="-1.07786">
        <ele>12.8</ele>
        <time>2020-06-16T13:09:23Z</time>
      </trkpt>
      <trkpt lat="49.36864" lon="-1.07785">
        <ele>12.8</ele>
        <time>2020-06-16T13:09:24Z</time>
      </trkpt>
      <trkpt lat="49.36864" lon="-1.07785">
        <ele>12.8</ele>
        <time>2020-06-16T13:09:25Z</time>
      </trkpt>
      <trkpt lat="49.36864" lon="-1.07785">
        <ele>12.8</ele>
        <time>2020-06-16T13:09:26Z</time>
      </trkpt>
      <trkpt lat="49.36864" lon="-1.07785">
        <ele>12.8</ele>
        <time>2020-06-16T13:09:27Z</time>
      </trkpt>
      <trkpt lat="49.36864" lon="-1.07785">
        <ele>12.8</ele>
        <time>2020-06-16T13:09:28Z</time>
      </trkpt>
      <trkpt lat="49.36864" lon="-1.07785">
        <ele>12.8</ele>
        <time>2020-06-16T13:09:29Z</time>
      </trkpt>
      <trkpt lat="49.36864" lon="-1.07785">
        <ele>12.8</ele>
        <time>2020-06-16T13:09:30Z</time>
      </trkpt>
      <trkpt lat="49.36857" lon="-1.07779">
        <ele>13</ele>
        <time>2020-06-16T13:09:46Z</time>
      </trkpt>
      <trkpt lat="49.36855" lon="-1.07779">
        <ele>13</ele>
        <time>2020-06-16T13:09:47Z</time>
      </trkpt>
      <trkpt lat="49.36855" lon="-1.07778">
        <ele>13</ele>
        <time>2020-06-16T13:09:48Z</time>
      </trkpt>
      <trkpt lat="49.36855" lon="-1.07777">
        <ele>13</ele>
        <time>2020-06-16T13:09:49Z</time>
      </trkpt>
      <trkpt lat="49.36855" lon="-1.07778">
        <ele>13</ele>
        <time>2020-06-16T13:09:50Z</time>
      </trkpt>
      <trkpt lat="49.36855" lon="-1.07778">
        <ele>13</ele>
        <time>2020-06-16T13:09:51Z</time>
      </trkpt>
      <trkpt lat="49.36855" lon="-1.07778">
        <ele>13</ele>
        <time>2020-06-16T13:09:52Z</time>
      </trkpt>
      <trkpt lat="49.36855" lon="-1.07778">
        <ele>13</ele>
        <time>2020-06-16T13:09:53Z</time>
      </trkpt>
      <trkpt lat="49.36855" lon="-1.07777">
        <ele>13</ele>
        <time>2020-06-16T13:09:54Z</time>
      </trkpt>
      <trkpt lat="49.36855" lon="-1.07777">
        <ele>13</ele>
        <time>2020-06-16T13:09:55Z</time>
      </trkpt>
      <trkpt lat="49.36855" lon="-1.07776">
        <ele>13</ele>
        <time>2020-06-16T13:09:56Z</time>
      </trkpt>
      <trkpt lat="49.36855" lon="-1.07776">
        <ele>13</ele>
        <time>2020-06-16T13:09:57Z</time>
      </trkpt>
      <trkpt lat="49.36855" lon="-1.07775">
        <ele>13</ele>
        <time>2020-06-16T13:09:58Z</time>
      </trkpt>
      <trkpt lat="49.36856" lon="-1.07774">
        <ele>13</ele>
        <time>2020-06-16T13:09:59Z</time>
      </trkpt>
      <trkpt lat="49.36856" lon="-1.07773">
        <ele>13.1</ele>
        <time>2020-06-16T13:10:00Z</time>
      </trkpt>
      <trkpt lat="49.36857" lon="-1.07772">
        <ele>13.1</ele>
        <time>2020-06-16T13:10:01Z</time>
      </trkpt>
      <trkpt lat="49.36858" lon="-1.07773">
        <ele>13.1</ele>
        <time>2020-06-16T13:10:02Z</time>
      </trkpt>
      <trkpt lat="49.36859" lon="-1.07775">
        <ele>13</ele>
        <time>2020-06-16T13:10:03Z</time>
      </trkpt>
      <trkpt lat="49.3686" lon="-1.07774">
        <ele>13</ele>
        <time>2020-06-16T13:10:04Z</time>
      </trkpt>
      <trkpt lat="49.3686" lon="-1.07773">
        <ele>13.1</ele>
        <time>2020-06-16T13:10:05Z</time>
      </trkpt>
      <trkpt lat="49.3686" lon="-1.07773">
        <ele>13.1</ele>
        <time>2020-06-16T13:10:06Z</time>
      </trkpt>
      <trkpt lat="49.3686" lon="-1.07772">
        <ele>13.1</ele>
        <time>2020-06-16T13:10:07Z</time>
      </trkpt>
      <trkpt lat="49.3686" lon="-1.07771">
        <ele>13.1</ele>
        <time>2020-06-16T13:10:08Z</time>
      </trkpt>
      <trkpt lat="49.3686" lon="-1.0777">
        <ele>13.1</ele>
        <time>2020-06-16T13:10:09Z</time>
      </trkpt>
      <trkpt lat="49.36859" lon="-1.07768">
        <ele>13.2</ele>
        <time>2020-06-16T13:10:10Z</time>
      </trkpt>
      <trkpt lat="49.36859" lon="-1.07766">
        <ele>13.2</ele>
        <time>2020-06-16T13:10:11Z</time>
      </trkpt>
      <trkpt lat="49.36858" lon="-1.07766">
        <ele>13.2</ele>
        <time>2020-06-16T13:10:12Z</time>
      </trkpt>
      <trkpt lat="49.36858" lon="-1.07765">
        <ele>13.2</ele>
        <time>2020-06-16T13:10:13Z</time>
      </trkpt>
      <trkpt lat="49.36858" lon="-1.07764">
        <ele>13.3</ele>
        <time>2020-06-16T13:10:14Z</time>
      </trkpt>
      <trkpt lat="49.36859" lon="-1.07765">
        <ele>13.3</ele>
        <time>2020-06-16T13:10:15Z</time>
      </trkpt>
      <trkpt lat="49.36859" lon="-1.07764">
        <ele>13.3</ele>
        <time>2020-06-16T13:10:16Z</time>
      </trkpt>
      <trkpt lat="49.36859" lon="-1.07764">
        <ele>13.3</ele>
        <time>2020-06-16T13:10:17Z</time>
      </trkpt>
      <trkpt lat="49.3686" lon="-1.07764">
        <ele>13.3</ele>
        <time>2020-06-16T13:10:18Z</time>
      </trkpt>
      <trkpt lat="49.3686" lon="-1.07764">
        <ele>13.3</ele>
        <time>2020-06-16T13:10:19Z</time>
      </trkpt>
      <trkpt lat="49.36859" lon="-1.07764">
        <ele>13.3</ele>
        <time>2020-06-16T13:10:20Z</time>
      </trkpt>
      <trkpt lat="49.36859" lon="-1.07763">
        <ele>13.3</ele>
        <time>2020-06-16T13:10:21Z</time>
      </trkpt>
      <trkpt lat="49.36859" lon="-1.07762">
        <ele>13.3</ele>
        <time>2020-06-16T13:10:22Z</time>
      </trkpt>
      <trkpt lat="49.3686" lon="-1.07761">
        <ele>13.2</ele>
        <time>2020-06-16T13:10:23Z</time>
      </trkpt>
      <trkpt lat="49.3686" lon="-1.07761">
        <ele>13.2</ele>
        <time>2020-06-16T13:10:24Z</time>
      </trkpt>
      <trkpt lat="49.36861" lon="-1.07761">
        <ele>13.2</ele>
        <time>2020-06-16T13:10:25Z</time>
      </trkpt>
      <trkpt lat="49.36861" lon="-1.07761">
        <ele>13.2</ele>
        <time>2020-06-16T13:10:26Z</time>
      </trkpt>
      <trkpt lat="49.36861" lon="-1.07761">
        <ele>13.2</ele>
        <time>2020-06-16T13:10:27Z</time>
      </trkpt>
      <trkpt lat="49.36861" lon="-1.0776">
        <ele>13.3</ele>
        <time>2020-06-16T13:10:28Z</time>
      </trkpt>
      <trkpt lat="49.36862" lon="-1.0776">
        <ele>13.3</ele>
        <time>2020-06-16T13:10:29Z</time>
      </trkpt>
      <trkpt lat="49.36862" lon="-1.0776">
        <ele>13.3</ele>
        <time>2020-06-16T13:10:30Z</time>
      </trkpt>
      <trkpt lat="49.36862" lon="-1.0776">
        <ele>13.3</ele>
        <time>2020-06-16T13:10:31Z</time>
      </trkpt>
      <trkpt lat="49.36863" lon="-1.07759">
        <ele>13.3</ele>
        <time>2020-06-16T13:10:32Z</time>
      </trkpt>
      <trkpt lat="49.36864" lon="-1.0776">
        <ele>13.3</ele>
        <time>2020-06-16T13:10:33Z</time>
      </trkpt>
      <trkpt lat="49.36865" lon="-1.07761">
        <ele>13.2</ele>
        <time>2020-06-16T13:10:34Z</time>
      </trkpt>
      <trkpt lat="49.36866" lon="-1.07761">
        <ele>13.2</ele>
        <time>2020-06-16T13:10:35Z</time>
      </trkpt>
      <trkpt lat="49.36866" lon="-1.07762">
        <ele>13.2</ele>
        <time>2020-06-16T13:10:36Z</time>
      </trkpt>
      <trkpt lat="49.36866" lon="-1.07761">
        <ele>13.2</ele>
        <time>2020-06-16T13:10:37Z</time>
      </trkpt>
      <trkpt lat="49.36867" lon="-1.07761">
        <ele>13.2</ele>
        <time>2020-06-16T13:10:38Z</time>
      </trkpt>
      <trkpt lat="49.36867" lon="-1.07759">
        <ele>13.3</ele>
        <time>2020-06-16T13:10:39Z</time>
      </trkpt>
      <trkpt lat="49.36868" lon="-1.07759">
        <ele>13.2</ele>
        <time>2020-06-16T13:10:40Z</time>
      </trkpt>
      <trkpt lat="49.36868" lon="-1.07758">
        <ele>13.3</ele>
        <time>2020-06-16T13:10:41Z</time>
      </trkpt>
      <trkpt lat="49.36868" lon="-1.07758">
        <ele>13.3</ele>
        <time>2020-06-16T13:10:42Z</time>
      </trkpt>
      <trkpt lat="49.36868" lon="-1.07759">
        <ele>13.3</ele>
        <time>2020-06-16T13:10:43Z</time>
      </trkpt>
      <trkpt lat="49.36868" lon="-1.0776">
        <ele>13.3</ele>
        <time>2020-06-16T13:10:44Z</time>
      </trkpt>
      <trkpt lat="49.36868" lon="-1.07761">
        <ele>13.2</ele>
        <time>2020-06-16T13:10:45Z</time>
      </trkpt>
      <trkpt lat="49.36868" lon="-1.07762">
        <ele>13.2</ele>
        <time>2020-06-16T13:10:46Z</time>
      </trkpt>
      <trkpt lat="49.36869" lon="-1.07763">
        <ele>13.2</ele>
        <time>2020-06-16T13:11:07Z</time>
      </trkpt>
      <trkpt lat="49.36868" lon="-1.07762">
        <ele>13.2</ele>
        <time>2020-06-16T13:11:08Z</time>
      </trkpt>
      <trkpt lat="49.36868" lon="-1.07761">
        <ele>13.2</ele>
        <time>2020-06-16T13:11:09Z</time>
      </trkpt>
      <trkpt lat="49.36868" lon="-1.0776">
        <ele>13.3</ele>
        <time>2020-06-16T13:11:10Z</time>
      </trkpt>
      <trkpt lat="49.36868" lon="-1.07761">
        <ele>13.2</ele>
        <time>2020-06-16T13:11:11Z</time>
      </trkpt>
      <trkpt lat="49.36868" lon="-1.0776">
        <ele>13.3</ele>
        <time>2020-06-16T13:11:12Z</time>
      </trkpt>
      <trkpt lat="49.36868" lon="-1.0776">
        <ele>13.3</ele>
        <time>2020-06-16T13:11:13Z</time>
      </trkpt>
      <trkpt lat="49.36869" lon="-1.07761">
        <ele>13.2</ele>
        <time>2020-06-16T13:11:14Z</time>
      </trkpt>
      <trkpt lat="49.36869" lon="-1.07761">
        <ele>13.2</ele>
        <time>2020-06-16T13:11:15Z</time>
      </trkpt>
      <trkpt lat="49.3687" lon="-1.07761">
        <ele>13.2</ele>
        <time>2020-06-16T13:11:16Z</time>
      </trkpt>
      <trkpt lat="49.3687" lon="-1.0776">
        <ele>13.2</ele>
        <time>2020-06-16T13:11:17Z</time>
      </trkpt>
      <trkpt lat="49.3687" lon="-1.0776">
        <ele>13.2</ele>
        <time>2020-06-16T13:11:18Z</time>
      </trkpt>
      <trkpt lat="49.3687" lon="-1.0776">
        <ele>13.2</ele>
        <time>2020-06-16T13:11:19Z</time>
      </trkpt>
      <trkpt lat="49.3687" lon="-1.07759">
        <ele>13.2</ele>
        <time>2020-06-16T13:11:20Z</time>
      </trkpt>
      <trkpt lat="49.36871" lon="-1.07758">
        <ele>13.2</ele>
        <time>2020-06-16T13:11:21Z</time>
      </trkpt>
      <trkpt lat="49.36872" lon="-1.07757">
        <ele>13.2</ele>
        <time>2020-06-16T13:11:22Z</time>
      </trkpt>
      <trkpt lat="49.36872" lon="-1.07756">
        <ele>13.3</ele>
        <time>2020-06-16T13:11:23Z</time>
      </trkpt>
      <trkpt lat="49.36872" lon="-1.07755">
        <ele>13.3</ele>
        <time>2020-06-16T13:11:24Z</time>
      </trkpt>
      <trkpt lat="49.36872" lon="-1.07754">
        <ele>13.3</ele>
        <time>2020-06-16T13:11:25Z</time>
      </trkpt>
      <trkpt lat="49.36872" lon="-1.07753">
        <ele>13.3</ele>
        <time>2020-06-16T13:11:26Z</time>
      </trkpt>
      <trkpt lat="49.36872" lon="-1.07752">
        <ele>13.3</ele>
        <time>2020-06-16T13:11:27Z</time>
      </trkpt>
      <trkpt lat="49.36871" lon="-1.07753">
        <ele>13.3</ele>
        <time>2020-06-16T13:11:28Z</time>
      </trkpt>
      <trkpt lat="49.36871" lon="-1.07753">
        <ele>13.3</ele>
        <time>2020-06-16T13:11:29Z</time>
      </trkpt>
      <trkpt lat="49.36872" lon="-1.07752">
        <ele>13.3</ele>
        <time>2020-06-16T13:11:30Z</time>
      </trkpt>
      <trkpt lat="49.36871" lon="-1.07752">
        <ele>13.3</ele>
        <time>2020-06-16T13:11:31Z</time>
      </trkpt>
      <trkpt lat="49.36871" lon="-1.07751">
        <ele>13.3</ele>
        <time>2020-06-16T13:11:32Z</time>
      </trkpt>
      <trkpt lat="49.36871" lon="-1.07751">
        <ele>13.3</ele>
        <time>2020-06-16T13:11:33Z</time>
      </trkpt>
      <trkpt lat="49.36871" lon="-1.07752">
        <ele>13.3</ele>
        <time>2020-06-16T13:11:34Z</time>
      </trkpt>
      <trkpt lat="49.36871" lon="-1.07752">
        <ele>13.3</ele>
        <time>2020-06-16T13:11:35Z</time>
      </trkpt>
      <trkpt lat="49.36871" lon="-1.07752">
        <ele>13.3</ele>
        <time>2020-06-16T13:11:36Z</time>
      </trkpt>
      <trkpt lat="49.36871" lon="-1.07752">
        <ele>13.3</ele>
        <time>2020-06-16T13:11:37Z</time>
      </trkpt>
      <trkpt lat="49.36871" lon="-1.07752">
        <ele>13.3</ele>
        <time>2020-06-16T13:11:38Z</time>
      </trkpt>
      <trkpt lat="49.36871" lon="-1.07752">
        <ele>13.3</ele>
        <time>2020-06-16T13:11:39Z</time>
      </trkpt>
      <trkpt lat="49.36871" lon="-1.07753">
        <ele>13.3</ele>
        <time>2020-06-16T13:11:40Z</time>
      </trkpt>
      <trkpt lat="49.3687" lon="-1.07753">
        <ele>13.3</ele>
        <time>2020-06-16T13:11:41Z</time>
      </trkpt>
      <trkpt lat="49.3687" lon="-1.07754">
        <ele>13.3</ele>
        <time>2020-06-16T13:11:42Z</time>
      </trkpt>
      <trkpt lat="49.3687" lon="-1.07754">
        <ele>13.3</ele>
        <time>2020-06-16T13:11:43Z</time>
      </trkpt>
      <trkpt lat="49.3687" lon="-1.07755">
        <ele>13.3</ele>
        <time>2020-06-16T13:11:44Z</time>
      </trkpt>
      <trkpt lat="49.3687" lon="-1.07755">
        <ele>13.3</ele>
        <time>2020-06-16T13:11:45Z</time>
      </trkpt>
      <trkpt lat="49.36868" lon="-1.07755">
        <ele>13.3</ele>
        <time>2020-06-16T13:11:46Z</time>
      </trkpt>
      <trkpt lat="49.36868" lon="-1.07755">
        <ele>13.3</ele>
        <time>2020-06-16T13:11:47Z</time>
      </trkpt>
      <trkpt lat="49.36867" lon="-1.07755">
        <ele>13.3</ele>
        <time>2020-06-16T13:11:48Z</time>
      </trkpt>
      <trkpt lat="49.36867" lon="-1.07754">
        <ele>13.3</ele>
        <time>2020-06-16T13:11:49Z</time>
      </trkpt>
      <trkpt lat="49.36867" lon="-1.07754">
        <ele>13.3</ele>
        <time>2020-06-16T13:11:50Z</time>
      </trkpt>
      <trkpt lat="49.36867" lon="-1.07754">
        <ele>13.3</ele>
        <time>2020-06-16T13:11:51Z</time>
      </trkpt>
      <trkpt lat="49.36867" lon="-1.07754">
        <ele>13.3</ele>
        <time>2020-06-16T13:11:52Z</time>
      </trkpt>
      <trkpt lat="49.36867" lon="-1.07754">
        <ele>13.3</ele>
        <time>2020-06-16T13:11:53Z</time>
      </trkpt>
      <trkpt lat="49.36867" lon="-1.07755">
        <ele>13.3</ele>
        <time>2020-06-16T13:11:54Z</time>
      </trkpt>
      <trkpt lat="49.36867" lon="-1.07756">
        <ele>13.3</ele>
        <time>2020-06-16T13:11:55Z</time>
      </trkpt>
      <trkpt lat="49.36867" lon="-1.07757">
        <ele>13.3</ele>
        <time>2020-06-16T13:11:56Z</time>
      </trkpt>
      <trkpt lat="49.36866" lon="-1.07757">
        <ele>13.3</ele>
        <time>2020-06-16T13:11:57Z</time>
      </trkpt>
      <trkpt lat="49.36866" lon="-1.07758">
        <ele>13.3</ele>
        <time>2020-06-16T13:11:58Z</time>
      </trkpt>
      <trkpt lat="49.36866" lon="-1.07758">
        <ele>13.3</ele>
        <time>2020-06-16T13:11:59Z</time>
      </trkpt>
      <trkpt lat="49.36866" lon="-1.07759">
        <ele>13.3</ele>
        <time>2020-06-16T13:12:00Z</time>
      </trkpt>
      <trkpt lat="49.36866" lon="-1.07759">
        <ele>13.3</ele>
        <time>2020-06-16T13:12:01Z</time>
      </trkpt>
      <trkpt lat="49.36867" lon="-1.07759">
        <ele>13.3</ele>
        <time>2020-06-16T13:12:02Z</time>
      </trkpt>
      <trkpt lat="49.36867" lon="-1.07759">
        <ele>13.3</ele>
        <time>2020-06-16T13:12:03Z</time>
      </trkpt>
      <trkpt lat="49.36867" lon="-1.07759">
        <ele>13.3</ele>
        <time>2020-06-16T13:12:04Z</time>
      </trkpt>
      <trkpt lat="49.36867" lon="-1.0776">
        <ele>13.3</ele>
        <time>2020-06-16T13:12:05Z</time>
      </trkpt>
      <trkpt lat="49.36867" lon="-1.0776">
        <ele>13.3</ele>
        <time>2020-06-16T13:12:06Z</time>
      </trkpt>
      <trkpt lat="49.36867" lon="-1.0776">
        <ele>13.3</ele>
        <time>2020-06-16T13:12:07Z</time>
      </trkpt>
      <trkpt lat="49.36868" lon="-1.0776">
        <ele>13.3</ele>
        <time>2020-06-16T13:12:08Z</time>
      </trkpt>
      <trkpt lat="49.36868" lon="-1.07761">
        <ele>13.2</ele>
        <time>2020-06-16T13:12:09Z</time>
      </trkpt>
      <trkpt lat="49.36868" lon="-1.07761">
        <ele>13.2</ele>
        <time>2020-06-16T13:12:10Z</time>
      </trkpt>
      <trkpt lat="49.36868" lon="-1.07761">
        <ele>13.2</ele>
        <time>2020-06-16T13:12:11Z</time>
      </trkpt>
      <trkpt lat="49.36868" lon="-1.07761">
        <ele>13.2</ele>
        <time>2020-06-16T13:12:12Z</time>
      </trkpt>
      <trkpt lat="49.36869" lon="-1.07762">
        <ele>13.2</ele>
        <time>2020-06-16T13:12:13Z</time>
      </trkpt>
      <trkpt lat="49.36869" lon="-1.07761">
        <ele>13.2</ele>
        <time>2020-06-16T13:12:14Z</time>
      </trkpt>
      <trkpt lat="49.36868" lon="-1.07761">
        <ele>13.2</ele>
        <time>2020-06-16T13:12:15Z</time>
      </trkpt>
      <trkpt lat="49.36868" lon="-1.07761">
        <ele>13.2</ele>
        <time>2020-06-16T13:12:16Z</time>
      </trkpt>
      <trkpt lat="49.36868" lon="-1.07761">
        <ele>13.2</ele>
        <time>2020-06-16T13:12:17Z</time>
      </trkpt>
      <trkpt lat="49.36868" lon="-1.07761">
        <ele>13.2</ele>
        <time>2020-06-16T13:12:18Z</time>
      </trkpt>
      <trkpt lat="49.36868" lon="-1.0776">
        <ele>13.2</ele>
        <time>2020-06-16T13:12:19Z</time>
      </trkpt>
      <trkpt lat="49.36869" lon="-1.07761">
        <ele>13.2</ele>
        <time>2020-06-16T13:12:20Z</time>
      </trkpt>
      <trkpt lat="49.36869" lon="-1.0776">
        <ele>13.2</ele>
        <time>2020-06-16T13:12:21Z</time>
      </trkpt>
      <trkpt lat="49.36869" lon="-1.07759">
        <ele>13.2</ele>
        <time>2020-06-16T13:12:22Z</time>
      </trkpt>
      <trkpt lat="49.36869" lon="-1.07757">
        <ele>13.2</ele>
        <time>2020-06-16T13:12:23Z</time>
      </trkpt>
      <trkpt lat="49.36869" lon="-1.07755">
        <ele>13.3</ele>
        <time>2020-06-16T13:12:24Z</time>
      </trkpt>
      <trkpt lat="49.36868" lon="-1.07754">
        <ele>13.3</ele>
        <time>2020-06-16T13:12:25Z</time>
      </trkpt>
      <trkpt lat="49.36868" lon="-1.07754">
        <ele>13.3</ele>
        <time>2020-06-16T13:12:26Z</time>
      </trkpt>
      <trkpt lat="49.36868" lon="-1.07753">
        <ele>13.3</ele>
        <time>2020-06-16T13:12:27Z</time>
      </trkpt>
      <trkpt lat="49.36867" lon="-1.07751">
        <ele>13.4</ele>
        <time>2020-06-16T13:12:28Z</time>
      </trkpt>
      <trkpt lat="49.36866" lon="-1.0775">
        <ele>13.4</ele>
        <time>2020-06-16T13:12:29Z</time>
      </trkpt>
      <trkpt lat="49.36866" lon="-1.07749">
        <ele>13.4</ele>
        <time>2020-06-16T13:12:30Z</time>
      </trkpt>
      <trkpt lat="49.36865" lon="-1.0775">
        <ele>13.4</ele>
        <time>2020-06-16T13:12:31Z</time>
      </trkpt>
      <trkpt lat="49.36864" lon="-1.0775">
        <ele>13.4</ele>
        <time>2020-06-16T13:12:32Z</time>
      </trkpt>
      <trkpt lat="49.36863" lon="-1.0775">
        <ele>13.4</ele>
        <time>2020-06-16T13:12:33Z</time>
      </trkpt>
      <trkpt lat="49.36862" lon="-1.0775">
        <ele>13.4</ele>
        <time>2020-06-16T13:12:34Z</time>
      </trkpt>
      <trkpt lat="49.36861" lon="-1.07751">
        <ele>13.4</ele>
        <time>2020-06-16T13:12:35Z</time>
      </trkpt>
      <trkpt lat="49.36861" lon="-1.07753">
        <ele>13.4</ele>
        <time>2020-06-16T13:12:36Z</time>
      </trkpt>
      <trkpt lat="49.3686" lon="-1.07753">
        <ele>13.4</ele>
        <time>2020-06-16T13:12:37Z</time>
      </trkpt>
      <trkpt lat="49.3686" lon="-1.07753">
        <ele>13.4</ele>
        <time>2020-06-16T13:12:38Z</time>
      </trkpt>
      <trkpt lat="49.36859" lon="-1.07752">
        <ele>13.4</ele>
        <time>2020-06-16T13:12:39Z</time>
      </trkpt>
      <trkpt lat="49.36859" lon="-1.07753">
        <ele>13.4</ele>
        <time>2020-06-16T13:12:40Z</time>
      </trkpt>
      <trkpt lat="49.36858" lon="-1.07754">
        <ele>13.4</ele>
        <time>2020-06-16T13:12:41Z</time>
      </trkpt>
      <trkpt lat="49.36858" lon="-1.07755">
        <ele>13.4</ele>
        <time>2020-06-16T13:12:42Z</time>
      </trkpt>
      <trkpt lat="49.36858" lon="-1.07755">
        <ele>13.4</ele>
        <time>2020-06-16T13:12:43Z</time>
      </trkpt>
      <trkpt lat="49.36858" lon="-1.07756">
        <ele>13.4</ele>
        <time>2020-06-16T13:12:44Z</time>
      </trkpt>
      <trkpt lat="49.36858" lon="-1.07757">
        <ele>13.3</ele>
        <time>2020-06-16T13:12:45Z</time>
      </trkpt>
      <trkpt lat="49.36857" lon="-1.07758">
        <ele>13.3</ele>
        <time>2020-06-16T13:12:46Z</time>
      </trkpt>
      <trkpt lat="49.36857" lon="-1.07758">
        <ele>13.3</ele>
        <time>2020-06-16T13:12:47Z</time>
      </trkpt>
      <trkpt lat="49.36857" lon="-1.07759">
        <ele>13.3</ele>
        <time>2020-06-16T13:12:48Z</time>
      </trkpt>
      <trkpt lat="49.36856" lon="-1.0776">
        <ele>13.3</ele>
        <time>2020-06-16T13:12:49Z</time>
      </trkpt>
      <trkpt lat="49.36856" lon="-1.07761">
        <ele>13.3</ele>
        <time>2020-06-16T13:12:50Z</time>
      </trkpt>
      <trkpt lat="49.36855" lon="-1.07761">
        <ele>13.3</ele>
        <time>2020-06-16T13:12:51Z</time>
      </trkpt>
      <trkpt lat="49.36855" lon="-1.07762">
        <ele>13.3</ele>
        <time>2020-06-16T13:12:52Z</time>
      </trkpt>
      <trkpt lat="49.36855" lon="-1.07763">
        <ele>13.3</ele>
        <time>2020-06-16T13:12:53Z</time>
      </trkpt>
      <trkpt lat="49.36854" lon="-1.07763">
        <ele>13.3</ele>
        <time>2020-06-16T13:12:54Z</time>
      </trkpt>
      <trkpt lat="49.36853" lon="-1.07764">
        <ele>13.3</ele>
        <time>2020-06-16T13:12:55Z</time>
      </trkpt>
      <trkpt lat="49.36852" lon="-1.07763">
        <ele>13.3</ele>
        <time>2020-06-16T13:12:56Z</time>
      </trkpt>
      <trkpt lat="49.36851" lon="-1.07764">
        <ele>13.3</ele>
        <time>2020-06-16T13:12:57Z</time>
      </trkpt>
      <trkpt lat="49.36851" lon="-1.07765">
        <ele>13.3</ele>
        <time>2020-06-16T13:12:58Z</time>
      </trkpt>
      <trkpt lat="49.36851" lon="-1.07766">
        <ele>13.2</ele>
        <time>2020-06-16T13:12:59Z</time>
      </trkpt>
      <trkpt lat="49.3685" lon="-1.07767">
        <ele>13.2</ele>
        <time>2020-06-16T13:13:00Z</time>
      </trkpt>
      <trkpt lat="49.36849" lon="-1.07768">
        <ele>13.2</ele>
        <time>2020-06-16T13:13:01Z</time>
      </trkpt>
      <trkpt lat="49.36849" lon="-1.07769">
        <ele>13.2</ele>
        <time>2020-06-16T13:13:02Z</time>
      </trkpt>
      <trkpt lat="49.36849" lon="-1.0777">
        <ele>13.2</ele>
        <time>2020-06-16T13:13:03Z</time>
      </trkpt>
      <trkpt lat="49.36849" lon="-1.0777">
        <ele>13.2</ele>
        <time>2020-06-16T13:13:04Z</time>
      </trkpt>
      <trkpt lat="49.36849" lon="-1.07772">
        <ele>13.2</ele>
        <time>2020-06-16T13:13:05Z</time>
      </trkpt>
      <trkpt lat="49.3685" lon="-1.07771">
        <ele>13.2</ele>
        <time>2020-06-16T13:13:06Z</time>
      </trkpt>
      <trkpt lat="49.3685" lon="-1.07772">
        <ele>13.2</ele>
        <time>2020-06-16T13:13:07Z</time>
      </trkpt>
      <trkpt lat="49.36849" lon="-1.07772">
        <ele>13.2</ele>
        <time>2020-06-16T13:13:08Z</time>
      </trkpt>
      <trkpt lat="49.36847" lon="-1.07774">
        <ele>13.1</ele>
        <time>2020-06-16T13:13:09Z</time>
      </trkpt>
      <trkpt lat="49.36846" lon="-1.07774">
        <ele>13.1</ele>
        <time>2020-06-16T13:13:10Z</time>
      </trkpt>
      <trkpt lat="49.36846" lon="-1.07775">
        <ele>13.1</ele>
        <time>2020-06-16T13:13:11Z</time>
      </trkpt>
      <trkpt lat="49.36845" lon="-1.07775">
        <ele>13.1</ele>
        <time>2020-06-16T13:13:12Z</time>
      </trkpt>
      <trkpt lat="49.36845" lon="-1.07777">
        <ele>13.1</ele>
        <time>2020-06-16T13:13:13Z</time>
      </trkpt>
      <trkpt lat="49.36845" lon="-1.07777">
        <ele>13.1</ele>
        <time>2020-06-16T13:13:14Z</time>
      </trkpt>
      <trkpt lat="49.36845" lon="-1.07777">
        <ele>13.1</ele>
        <time>2020-06-16T13:13:15Z</time>
      </trkpt>
      <trkpt lat="49.36845" lon="-1.07777">
        <ele>13.1</ele>
        <time>2020-06-16T13:13:16Z</time>
      </trkpt>
      <trkpt lat="49.36844" lon="-1.07777">
        <ele>13.1</ele>
        <time>2020-06-16T13:13:17Z</time>
      </trkpt>
      <trkpt lat="49.36843" lon="-1.07777">
        <ele>13.1</ele>
        <time>2020-06-16T13:13:18Z</time>
      </trkpt>
      <trkpt lat="49.36843" lon="-1.07777">
        <ele>13.1</ele>
        <time>2020-06-16T13:13:19Z</time>
      </trkpt>
      <trkpt lat="49.36842" lon="-1.07777">
        <ele>13.1</ele>
        <time>2020-06-16T13:13:20Z</time>
      </trkpt>
      <trkpt lat="49.36842" lon="-1.07778">
        <ele>13</ele>
        <time>2020-06-16T13:13:21Z</time>
      </trkpt>
      <trkpt lat="49.36841" lon="-1.07778">
        <ele>13</ele>
        <time>2020-06-16T13:13:22Z</time>
      </trkpt>
      <trkpt lat="49.36841" lon="-1.07778">
        <ele>13</ele>
        <time>2020-06-16T13:13:23Z</time>
      </trkpt>
      <trkpt lat="49.3684" lon="-1.07778">
        <ele>13</ele>
        <time>2020-06-16T13:13:24Z</time>
      </trkpt>
      <trkpt lat="49.36839" lon="-1.07778">
        <ele>13</ele>
        <time>2020-06-16T13:13:25Z</time>
      </trkpt>
      <trkpt lat="49.36839" lon="-1.07778">
        <ele>13</ele>
        <time>2020-06-16T13:13:26Z</time>
      </trkpt>
      <trkpt lat="49.36839" lon="-1.07778">
        <ele>13</ele>
        <time>2020-06-16T13:13:27Z</time>
      </trkpt>
      <trkpt lat="49.3684" lon="-1.07779">
        <ele>13</ele>
        <time>2020-06-16T13:13:28Z</time>
      </trkpt>
      <trkpt lat="49.36841" lon="-1.07779">
        <ele>13</ele>
        <time>2020-06-16T13:13:29Z</time>
      </trkpt>
      <trkpt lat="49.36843" lon="-1.0778">
        <ele>13</ele>
        <time>2020-06-16T13:13:30Z</time>
      </trkpt>
      <trkpt lat="49.36844" lon="-1.07781">
        <ele>13</ele>
        <time>2020-06-16T13:13:31Z</time>
      </trkpt>
      <trkpt lat="49.36844" lon="-1.07782">
        <ele>13</ele>
        <time>2020-06-16T13:13:32Z</time>
      </trkpt>
      <trkpt lat="49.36844" lon="-1.07782">
        <ele>12.9</ele>
        <time>2020-06-16T13:13:33Z</time>
      </trkpt>
      <trkpt lat="49.36845" lon="-1.07783">
        <ele>12.9</ele>
        <time>2020-06-16T13:13:34Z</time>
      </trkpt>
      <trkpt lat="49.36845" lon="-1.07783">
        <ele>12.9</ele>
        <time>2020-06-16T13:13:35Z</time>
      </trkpt>
      <trkpt lat="49.36845" lon="-1.0778">
        <ele>13</ele>
        <time>2020-06-16T13:13:36Z</time>
      </trkpt>
      <trkpt lat="49.36844" lon="-1.07778">
        <ele>13</ele>
        <time>2020-06-16T13:13:37Z</time>
      </trkpt>
      <trkpt lat="49.36844" lon="-1.07777">
        <ele>13</ele>
        <time>2020-06-16T13:13:38Z</time>
      </trkpt>
      <trkpt lat="49.36844" lon="-1.07777">
        <ele>13</ele>
        <time>2020-06-16T13:13:39Z</time>
      </trkpt>
      <trkpt lat="49.36844" lon="-1.07777">
        <ele>13</ele>
        <time>2020-06-16T13:13:40Z</time>
      </trkpt>
      <trkpt lat="49.36845" lon="-1.07777">
        <ele>13</ele>
        <time>2020-06-16T13:13:41Z</time>
      </trkpt>
      <trkpt lat="49.36846" lon="-1.07779">
        <ele>12.9</ele>
        <time>2020-06-16T13:13:42Z</time>
      </trkpt>
      <trkpt lat="49.36847" lon="-1.07779">
        <ele>12.9</ele>
        <time>2020-06-16T13:13:43Z</time>
      </trkpt>
      <trkpt lat="49.36847" lon="-1.07779">
        <ele>12.9</ele>
        <time>2020-06-16T13:13:44Z</time>
      </trkpt>
      <trkpt lat="49.36847" lon="-1.07779">
        <ele>12.9</ele>
        <time>2020-06-16T13:13:45Z</time>
      </trkpt>
      <trkpt lat="49.36847" lon="-1.07778">
        <ele>12.9</ele>
        <time>2020-06-16T13:13:46Z</time>
      </trkpt>
      <trkpt lat="49.36847" lon="-1.07777">
        <ele>13</ele>
        <time>2020-06-16T13:13:47Z</time>
      </trkpt>
      <trkpt lat="49.36847" lon="-1.07776">
        <ele>13</ele>
        <time>2020-06-16T13:13:48Z</time>
      </trkpt>
      <trkpt lat="49.36847" lon="-1.07775">
        <ele>13</ele>
        <time>2020-06-16T13:13:49Z</time>
      </trkpt>
      <trkpt lat="49.36847" lon="-1.07775">
        <ele>13</ele>
        <time>2020-06-16T13:13:50Z</time>
      </trkpt>
      <trkpt lat="49.36846" lon="-1.07774">
        <ele>13</ele>
        <time>2020-06-16T13:13:51Z</time>
      </trkpt>
      <trkpt lat="49.36846" lon="-1.07774">
        <ele>13</ele>
        <time>2020-06-16T13:13:52Z</time>
      </trkpt>
      <trkpt lat="49.36847" lon="-1.07773">
        <ele>13.1</ele>
        <time>2020-06-16T13:13:53Z</time>
      </trkpt>
      <trkpt lat="49.36847" lon="-1.07772">
        <ele>13.1</ele>
        <time>2020-06-16T13:13:54Z</time>
      </trkpt>
      <trkpt lat="49.36847" lon="-1.07771">
        <ele>13.1</ele>
        <time>2020-06-16T13:13:55Z</time>
      </trkpt>
      <trkpt lat="49.36847" lon="-1.07771">
        <ele>13.1</ele>
        <time>2020-06-16T13:13:56Z</time>
      </trkpt>
      <trkpt lat="49.36847" lon="-1.07771">
        <ele>13.1</ele>
        <time>2020-06-16T13:13:57Z</time>
      </trkpt>
      <trkpt lat="49.36847" lon="-1.0777">
        <ele>13.1</ele>
        <time>2020-06-16T13:13:58Z</time>
      </trkpt>
      <trkpt lat="49.36847" lon="-1.07769">
        <ele>13.1</ele>
        <time>2020-06-16T13:13:59Z</time>
      </trkpt>
      <trkpt lat="49.36846" lon="-1.07769">
        <ele>13.2</ele>
        <time>2020-06-16T13:14:00Z</time>
      </trkpt>
      <trkpt lat="49.36846" lon="-1.07768">
        <ele>13.2</ele>
        <time>2020-06-16T13:14:01Z</time>
      </trkpt>
      <trkpt lat="49.36847" lon="-1.07767">
        <ele>13.2</ele>
        <time>2020-06-16T13:14:02Z</time>
      </trkpt>
      <trkpt lat="49.36848" lon="-1.07765">
        <ele>13.1</ele>
        <time>2020-06-16T13:14:03Z</time>
      </trkpt>
      <trkpt lat="49.36849" lon="-1.07765">
        <ele>13.1</ele>
        <time>2020-06-16T13:14:04Z</time>
      </trkpt>
      <trkpt lat="49.36849" lon="-1.07765">
        <ele>13.1</ele>
        <time>2020-06-16T13:14:05Z</time>
      </trkpt>
      <trkpt lat="49.36849" lon="-1.07765">
        <ele>13.1</ele>
        <time>2020-06-16T13:14:06Z</time>
      </trkpt>
      <trkpt lat="49.36849" lon="-1.07765">
        <ele>13.1</ele>
        <time>2020-06-16T13:14:07Z</time>
      </trkpt>
      <trkpt lat="49.36848" lon="-1.07765">
        <ele>13.2</ele>
        <time>2020-06-16T13:14:08Z</time>
      </trkpt>
      <trkpt lat="49.36848" lon="-1.07764">
        <ele>13.2</ele>
        <time>2020-06-16T13:14:09Z</time>
      </trkpt>
      <trkpt lat="49.36848" lon="-1.07764">
        <ele>13.2</ele>
        <time>2020-06-16T13:14:10Z</time>
      </trkpt>
      <trkpt lat="49.36848" lon="-1.07764">
        <ele>13.2</ele>
        <time>2020-06-16T13:14:11Z</time>
      </trkpt>
      <trkpt lat="49.36849" lon="-1.07763">
        <ele>13.1</ele>
        <time>2020-06-16T13:14:12Z</time>
      </trkpt>
      <trkpt lat="49.36851" lon="-1.07764">
        <ele>13.1</ele>
        <time>2020-06-16T13:14:13Z</time>
      </trkpt>
      <trkpt lat="49.36851" lon="-1.07764">
        <ele>13.1</ele>
        <time>2020-06-16T13:14:14Z</time>
      </trkpt>
      <trkpt lat="49.36852" lon="-1.07763">
        <ele>13.1</ele>
        <time>2020-06-16T13:14:15Z</time>
      </trkpt>
      <trkpt lat="49.36853" lon="-1.07764">
        <ele>13.1</ele>
        <time>2020-06-16T13:14:16Z</time>
      </trkpt>
      <trkpt lat="49.36853" lon="-1.07764">
        <ele>13.1</ele>
        <time>2020-06-16T13:14:17Z</time>
      </trkpt>
      <trkpt lat="49.36854" lon="-1.07764">
        <ele>13.1</ele>
        <time>2020-06-16T13:14:18Z</time>
      </trkpt>
      <trkpt lat="49.36855" lon="-1.07765">
        <ele>13.1</ele>
        <time>2020-06-16T13:14:19Z</time>
      </trkpt>
      <trkpt lat="49.36856" lon="-1.07765">
        <ele>13</ele>
        <time>2020-06-16T13:14:20Z</time>
      </trkpt>
      <trkpt lat="49.36856" lon="-1.07765">
        <ele>13</ele>
        <time>2020-06-16T13:14:21Z</time>
      </trkpt>
      <trkpt lat="49.36857" lon="-1.07765">
        <ele>13.1</ele>
        <time>2020-06-16T13:14:22Z</time>
      </trkpt>
      <trkpt lat="49.36858" lon="-1.07765">
        <ele>13</ele>
        <time>2020-06-16T13:14:23Z</time>
      </trkpt>
      <trkpt lat="49.36858" lon="-1.07765">
        <ele>13</ele>
        <time>2020-06-16T13:14:24Z</time>
      </trkpt>
      <trkpt lat="49.36858" lon="-1.07765">
        <ele>13</ele>
        <time>2020-06-16T13:14:25Z</time>
      </trkpt>
      <trkpt lat="49.36858" lon="-1.07766">
        <ele>13</ele>
        <time>2020-06-16T13:14:26Z</time>
      </trkpt>
      <trkpt lat="49.36859" lon="-1.07766">
        <ele>13</ele>
        <time>2020-06-16T13:14:27Z</time>
      </trkpt>
      <trkpt lat="49.36859" lon="-1.07766">
        <ele>12.9</ele>
        <time>2020-06-16T13:14:28Z</time>
      </trkpt>
      <trkpt lat="49.36859" lon="-1.07766">
        <ele>12.9</ele>
        <time>2020-06-16T13:14:29Z</time>
      </trkpt>
      <trkpt lat="49.36859" lon="-1.07767">
        <ele>12.9</ele>
        <time>2020-06-16T13:14:30Z</time>
      </trkpt>
      <trkpt lat="49.3686" lon="-1.07767">
        <ele>12.9</ele>
        <time>2020-06-16T13:14:31Z</time>
      </trkpt>
      <trkpt lat="49.3686" lon="-1.07767">
        <ele>12.9</ele>
        <time>2020-06-16T13:14:32Z</time>
      </trkpt>
      <trkpt lat="49.3686" lon="-1.07767">
        <ele>12.9</ele>
        <time>2020-06-16T13:14:33Z</time>
      </trkpt>
      <trkpt lat="49.36861" lon="-1.07769">
        <ele>12.9</ele>
        <time>2020-06-16T13:14:34Z</time>
      </trkpt>
      <trkpt lat="49.36861" lon="-1.07769">
        <ele>12.9</ele>
        <time>2020-06-16T13:14:35Z</time>
      </trkpt>
      <trkpt lat="49.36861" lon="-1.07769">
        <ele>12.9</ele>
        <time>2020-06-16T13:14:36Z</time>
      </trkpt>
      <trkpt lat="49.36861" lon="-1.07768">
        <ele>12.9</ele>
        <time>2020-06-16T13:14:37Z</time>
      </trkpt>
      <trkpt lat="49.36861" lon="-1.07768">
        <ele>12.9</ele>
        <time>2020-06-16T13:14:38Z</time>
      </trkpt>
      <trkpt lat="49.36861" lon="-1.0778">
        <ele>12.7</ele>
        <time>2020-06-16T13:14:51Z</time>
      </trkpt>
      <trkpt lat="49.36861" lon="-1.07781">
        <ele>12.7</ele>
        <time>2020-06-16T13:14:52Z</time>
      </trkpt>
      <trkpt lat="49.3686" lon="-1.07781">
        <ele>12.7</ele>
        <time>2020-06-16T13:14:53Z</time>
      </trkpt>
      <trkpt lat="49.3686" lon="-1.07782">
        <ele>12.7</ele>
        <time>2020-06-16T13:14:54Z</time>
      </trkpt>
      <trkpt lat="49.36859" lon="-1.07783">
        <ele>12.6</ele>
        <time>2020-06-16T13:14:55Z</time>
      </trkpt>
      <trkpt lat="49.36859" lon="-1.07784">
        <ele>12.6</ele>
        <time>2020-06-16T13:14:56Z</time>
      </trkpt>
      <trkpt lat="49.36859" lon="-1.07785">
        <ele>12.6</ele>
        <time>2020-06-16T13:14:57Z</time>
      </trkpt>
      <trkpt lat="49.3686" lon="-1.07786">
        <ele>12.5</ele>
        <time>2020-06-16T13:14:58Z</time>
      </trkpt>
      <trkpt lat="49.3686" lon="-1.07788">
        <ele>12.5</ele>
        <time>2020-06-16T13:14:59Z</time>
      </trkpt>
      <trkpt lat="49.36861" lon="-1.0779">
        <ele>12.5</ele>
        <time>2020-06-16T13:15:00Z</time>
      </trkpt>
      <trkpt lat="49.36862" lon="-1.07791">
        <ele>12.4</ele>
        <time>2020-06-16T13:15:01Z</time>
      </trkpt>
      <trkpt lat="49.36862" lon="-1.07793">
        <ele>12.4</ele>
        <time>2020-06-16T13:15:02Z</time>
      </trkpt>
      <trkpt lat="49.36862" lon="-1.07794">
        <ele>12.4</ele>
        <time>2020-06-16T13:15:03Z</time>
      </trkpt>
      <trkpt lat="49.36862" lon="-1.07794">
        <ele>12.4</ele>
        <time>2020-06-16T13:15:04Z</time>
      </trkpt>
      <trkpt lat="49.36863" lon="-1.07793">
        <ele>12.3</ele>
        <time>2020-06-16T13:15:05Z</time>
      </trkpt>
      <trkpt lat="49.36863" lon="-1.07792">
        <ele>12.3</ele>
        <time>2020-06-16T13:15:06Z</time>
      </trkpt>
      <trkpt lat="49.36863" lon="-1.07789">
        <ele>12.4</ele>
        <time>2020-06-16T13:15:07Z</time>
      </trkpt>
      <trkpt lat="49.36863" lon="-1.07787">
        <ele>12.4</ele>
        <time>2020-06-16T13:15:08Z</time>
      </trkpt>
      <trkpt lat="49.36863" lon="-1.07787">
        <ele>12.4</ele>
        <time>2020-06-16T13:15:09Z</time>
      </trkpt>
      <trkpt lat="49.36862" lon="-1.07788">
        <ele>12.4</ele>
        <time>2020-06-16T13:15:10Z</time>
      </trkpt>
      <trkpt lat="49.36863" lon="-1.07788">
        <ele>12.4</ele>
        <time>2020-06-16T13:15:11Z</time>
      </trkpt>
      <trkpt lat="49.36863" lon="-1.0779">
        <ele>12.4</ele>
        <time>2020-06-16T13:15:12Z</time>
      </trkpt>
      <trkpt lat="49.36862" lon="-1.0779">
        <ele>12.4</ele>
        <time>2020-06-16T13:15:13Z</time>
      </trkpt>
      <trkpt lat="49.36862" lon="-1.07791">
        <ele>12.3</ele>
        <time>2020-06-16T13:15:14Z</time>
      </trkpt>
      <trkpt lat="49.36858" lon="-1.07789">
        <ele>12.4</ele>
        <time>2020-06-16T13:15:35Z</time>
      </trkpt>
      <trkpt lat="49.36857" lon="-1.07789">
        <ele>12.4</ele>
        <time>2020-06-16T13:15:36Z</time>
      </trkpt>
      <trkpt lat="49.36856" lon="-1.0779">
        <ele>12.4</ele>
        <time>2020-06-16T13:15:37Z</time>
      </trkpt>
      <trkpt lat="49.36856" lon="-1.0779">
        <ele>12.4</ele>
        <time>2020-06-16T13:15:38Z</time>
      </trkpt>
      <trkpt lat="49.36854" lon="-1.07789">
        <ele>12.4</ele>
        <time>2020-06-16T13:15:39Z</time>
      </trkpt>
      <trkpt lat="49.36854" lon="-1.07789">
        <ele>12.4</ele>
        <time>2020-06-16T13:15:40Z</time>
      </trkpt>
      <trkpt lat="49.36853" lon="-1.07788">
        <ele>12.4</ele>
        <time>2020-06-16T13:15:41Z</time>
      </trkpt>
      <trkpt lat="49.36852" lon="-1.07788">
        <ele>12.4</ele>
        <time>2020-06-16T13:15:42Z</time>
      </trkpt>
      <trkpt lat="49.36852" lon="-1.07788">
        <ele>12.4</ele>
        <time>2020-06-16T13:15:43Z</time>
      </trkpt>
      <trkpt lat="49.36852" lon="-1.07787">
        <ele>12.4</ele>
        <time>2020-06-16T13:15:44Z</time>
      </trkpt>
      <trkpt lat="49.36851" lon="-1.07787">
        <ele>12.5</ele>
        <time>2020-06-16T13:15:45Z</time>
      </trkpt>
      <trkpt lat="49.36852" lon="-1.07787">
        <ele>12.4</ele>
        <time>2020-06-16T13:15:46Z</time>
      </trkpt>
      <trkpt lat="49.36852" lon="-1.07787">
        <ele>12.4</ele>
        <time>2020-06-16T13:15:47Z</time>
      </trkpt>
      <trkpt lat="49.36853" lon="-1.07788">
        <ele>12.4</ele>
        <time>2020-06-16T13:15:48Z</time>
      </trkpt>
      <trkpt lat="49.36854" lon="-1.07788">
        <ele>12.4</ele>
        <time>2020-06-16T13:15:49Z</time>
      </trkpt>
      <trkpt lat="49.36854" lon="-1.07788">
        <ele>12.4</ele>
        <time>2020-06-16T13:15:50Z</time>
      </trkpt>
      <trkpt lat="49.36854" lon="-1.07788">
        <ele>12.4</ele>
        <time>2020-06-16T13:15:51Z</time>
      </trkpt>
      <trkpt lat="49.36854" lon="-1.07788">
        <ele>12.4</ele>
        <time>2020-06-16T13:15:52Z</time>
      </trkpt>
      <trkpt lat="49.36853" lon="-1.07787">
        <ele>12.4</ele>
        <time>2020-06-16T13:15:53Z</time>
      </trkpt>
      <trkpt lat="49.36854" lon="-1.07787">
        <ele>12.4</ele>
        <time>2020-06-16T13:15:54Z</time>
      </trkpt>
      <trkpt lat="49.36854" lon="-1.07787">
        <ele>12.4</ele>
        <time>2020-06-16T13:15:55Z</time>
      </trkpt>
      <trkpt lat="49.36854" lon="-1.07787">
        <ele>12.4</ele>
        <time>2020-06-16T13:15:56Z</time>
      </trkpt>
      <trkpt lat="49.36854" lon="-1.07787">
        <ele>12.4</ele>
        <time>2020-06-16T13:15:57Z</time>
      </trkpt>
      <trkpt lat="49.36854" lon="-1.07787">
        <ele>12.4</ele>
        <time>2020-06-16T13:15:58Z</time>
      </trkpt>
      <trkpt lat="49.36854" lon="-1.07787">
        <ele>12.4</ele>
        <time>2020-06-16T13:15:59Z</time>
      </trkpt>
      <trkpt lat="49.36854" lon="-1.07787">
        <ele>12.4</ele>
        <time>2020-06-16T13:16:00Z</time>
      </trkpt>
      <trkpt lat="49.36854" lon="-1.07787">
        <ele>12.4</ele>
        <time>2020-06-16T13:16:01Z</time>
      </trkpt>
      <trkpt lat="49.36854" lon="-1.07787">
        <ele>12.4</ele>
        <time>2020-06-16T13:16:02Z</time>
      </trkpt>
      <trkpt lat="49.36854" lon="-1.07787">
        <ele>12.4</ele>
        <time>2020-06-16T13:16:03Z</time>
      </trkpt>
      <trkpt lat="49.36853" lon="-1.07782">
        <ele>12.5</ele>
        <time>2020-06-16T13:16:09Z</time>
      </trkpt>
      <trkpt lat="49.36853" lon="-1.07782">
        <ele>12.5</ele>
        <time>2020-06-16T13:16:10Z</time>
      </trkpt>
      <trkpt lat="49.36853" lon="-1.07782">
        <ele>12.5</ele>
        <time>2020-06-16T13:16:11Z</time>
      </trkpt>
      <trkpt lat="49.36854" lon="-1.07783">
        <ele>12.5</ele>
        <time>2020-06-16T13:16:12Z</time>
      </trkpt>
      <trkpt lat="49.36856" lon="-1.07785">
        <ele>12.5</ele>
        <time>2020-06-16T13:16:13Z</time>
      </trkpt>
      <trkpt lat="49.36856" lon="-1.07785">
        <ele>12.5</ele>
        <time>2020-06-16T13:16:14Z</time>
      </trkpt>
      <trkpt lat="49.36857" lon="-1.07787">
        <ele>12.4</ele>
        <time>2020-06-16T13:16:15Z</time>
      </trkpt>
      <trkpt lat="49.36858" lon="-1.07788">
        <ele>12.4</ele>
        <time>2020-06-16T13:16:16Z</time>
      </trkpt>
      <trkpt lat="49.36858" lon="-1.07788">
        <ele>12.4</ele>
        <time>2020-06-16T13:16:17Z</time>
      </trkpt>
      <trkpt lat="49.36858" lon="-1.07789">
        <ele>12.4</ele>
        <time>2020-06-16T13:16:18Z</time>
      </trkpt>
      <trkpt lat="49.36858" lon="-1.07788">
        <ele>12.4</ele>
        <time>2020-06-16T13:16:19Z</time>
      </trkpt>
      <trkpt lat="49.36858" lon="-1.07787">
        <ele>12.4</ele>
        <time>2020-06-16T13:16:20Z</time>
      </trkpt>
      <trkpt lat="49.36857" lon="-1.07787">
        <ele>12.4</ele>
        <time>2020-06-16T13:16:21Z</time>
      </trkpt>
      <trkpt lat="49.36858" lon="-1.07787">
        <ele>12.4</ele>
        <time>2020-06-16T13:16:22Z</time>
      </trkpt>
      <trkpt lat="49.36858" lon="-1.07789">
        <ele>12.4</ele>
        <time>2020-06-16T13:16:23Z</time>
      </trkpt>
      <trkpt lat="49.36858" lon="-1.07789">
        <ele>12.4</ele>
        <time>2020-06-16T13:16:24Z</time>
      </trkpt>
      <trkpt lat="49.36858" lon="-1.0779">
        <ele>12.4</ele>
        <time>2020-06-16T13:16:25Z</time>
      </trkpt>
      <trkpt lat="49.36858" lon="-1.0779">
        <ele>12.4</ele>
        <time>2020-06-16T13:16:26Z</time>
      </trkpt>
      <trkpt lat="49.36858" lon="-1.0779">
        <ele>12.4</ele>
        <time>2020-06-16T13:16:27Z</time>
      </trkpt>
      <trkpt lat="49.36858" lon="-1.0779">
        <ele>12.4</ele>
        <time>2020-06-16T13:16:28Z</time>
      </trkpt>
      <trkpt lat="49.36858" lon="-1.0779">
        <ele>12.4</ele>
        <time>2020-06-16T13:16:29Z</time>
      </trkpt>
      <trkpt lat="49.36858" lon="-1.07791">
        <ele>12.3</ele>
        <time>2020-06-16T13:16:30Z</time>
      </trkpt>
      <trkpt lat="49.36858" lon="-1.07791">
        <ele>12.3</ele>
        <time>2020-06-16T13:16:31Z</time>
      </trkpt>
      <trkpt lat="49.36858" lon="-1.0779">
        <ele>12.4</ele>
        <time>2020-06-16T13:16:32Z</time>
      </trkpt>
      <trkpt lat="49.36858" lon="-1.0779">
        <ele>12.4</ele>
        <time>2020-06-16T13:16:33Z</time>
      </trkpt>
      <trkpt lat="49.36858" lon="-1.0779">
        <ele>12.4</ele>
        <time>2020-06-16T13:16:34Z</time>
      </trkpt>
      <trkpt lat="49.36859" lon="-1.0779">
        <ele>12.4</ele>
        <time>2020-06-16T13:16:35Z</time>
      </trkpt>
      <trkpt lat="49.36859" lon="-1.0779">
        <ele>12.4</ele>
        <time>2020-06-16T13:16:36Z</time>
      </trkpt>
      <trkpt lat="49.36859" lon="-1.0779">
        <ele>12.4</ele>
        <time>2020-06-16T13:16:37Z</time>
      </trkpt>
      <trkpt lat="49.36859" lon="-1.0779">
        <ele>12.4</ele>
        <time>2020-06-16T13:16:38Z</time>
      </trkpt>
      <trkpt lat="49.36859" lon="-1.0779">
        <ele>12.4</ele>
        <time>2020-06-16T13:16:39Z</time>
      </trkpt>
      <trkpt lat="49.36859" lon="-1.0779">
        <ele>12.4</ele>
        <time>2020-06-16T13:16:40Z</time>
      </trkpt>
      <trkpt lat="49.36875" lon="-1.0778">
        <ele>12.5</ele>
        <time>2020-06-16T13:17:06Z</time>
      </trkpt>
      <trkpt lat="49.36874" lon="-1.07779">
        <ele>12.5</ele>
        <time>2020-06-16T13:17:07Z</time>
      </trkpt>
      <trkpt lat="49.36875" lon="-1.07781">
        <ele>12.5</ele>
        <time>2020-06-16T13:17:08Z</time>
      </trkpt>
      <trkpt lat="49.36876" lon="-1.07781">
        <ele>12.5</ele>
        <time>2020-06-16T13:17:09Z</time>
      </trkpt>
      <trkpt lat="49.36876" lon="-1.0778">
        <ele>12.5</ele>
        <time>2020-06-16T13:17:10Z</time>
      </trkpt>
      <trkpt lat="49.36878" lon="-1.0778">
        <ele>12.5</ele>
        <time>2020-06-16T13:17:11Z</time>
      </trkpt>
      <trkpt lat="49.36878" lon="-1.0778">
        <ele>12.5</ele>
        <time>2020-06-16T13:17:12Z</time>
      </trkpt>
      <trkpt lat="49.36878" lon="-1.0778">
        <ele>12.5</ele>
        <time>2020-06-16T13:17:13Z</time>
      </trkpt>
      <trkpt lat="49.36879" lon="-1.07781">
        <ele>12.4</ele>
        <time>2020-06-16T13:17:14Z</time>
      </trkpt>
      <trkpt lat="49.3688" lon="-1.07782">
        <ele>12.4</ele>
        <time>2020-06-16T13:17:15Z</time>
      </trkpt>
      <trkpt lat="49.3688" lon="-1.07782">
        <ele>12.4</ele>
        <time>2020-06-16T13:17:16Z</time>
      </trkpt>
      <trkpt lat="49.3688" lon="-1.07781">
        <ele>12.4</ele>
        <time>2020-06-16T13:17:17Z</time>
      </trkpt>
      <trkpt lat="49.3688" lon="-1.07781">
        <ele>12.4</ele>
        <time>2020-06-16T13:17:18Z</time>
      </trkpt>
      <trkpt lat="49.3688" lon="-1.0778">
        <ele>12.4</ele>
        <time>2020-06-16T13:17:19Z</time>
      </trkpt>
      <trkpt lat="49.36881" lon="-1.07779">
        <ele>12.4</ele>
        <time>2020-06-16T13:17:20Z</time>
      </trkpt>
      <trkpt lat="49.36882" lon="-1.07778">
        <ele>12.4</ele>
        <time>2020-06-16T13:17:21Z</time>
      </trkpt>
      <trkpt lat="49.36882" lon="-1.07778">
        <ele>12.5</ele>
        <time>2020-06-16T13:17:22Z</time>
      </trkpt>
      <trkpt lat="49.36883" lon="-1.07777">
        <ele>12.5</ele>
        <time>2020-06-16T13:17:23Z</time>
      </trkpt>
      <trkpt lat="49.36884" lon="-1.07777">
        <ele>12.5</ele>
        <time>2020-06-16T13:17:24Z</time>
      </trkpt>
      <trkpt lat="49.36885" lon="-1.07776">
        <ele>12.5</ele>
        <time>2020-06-16T13:17:25Z</time>
      </trkpt>
      <trkpt lat="49.36885" lon="-1.07777">
        <ele>12.5</ele>
        <time>2020-06-16T13:17:26Z</time>
      </trkpt>
      <trkpt lat="49.36883" lon="-1.07776">
        <ele>12.5</ele>
        <time>2020-06-16T13:17:27Z</time>
      </trkpt>
      <trkpt lat="49.36883" lon="-1.07775">
        <ele>12.5</ele>
        <time>2020-06-16T13:17:28Z</time>
      </trkpt>
      <trkpt lat="49.36884" lon="-1.07776">
        <ele>12.5</ele>
        <time>2020-06-16T13:17:29Z</time>
      </trkpt>
      <trkpt lat="49.36884" lon="-1.07777">
        <ele>12.5</ele>
        <time>2020-06-16T13:17:30Z</time>
      </trkpt>
      <trkpt lat="49.36884" lon="-1.07778">
        <ele>12.5</ele>
        <time>2020-06-16T13:17:31Z</time>
      </trkpt>
      <trkpt lat="49.36885" lon="-1.07779">
        <ele>12.4</ele>
        <time>2020-06-16T13:17:32Z</time>
      </trkpt>
      <trkpt lat="49.36886" lon="-1.0778">
        <ele>12.4</ele>
        <time>2020-06-16T13:17:33Z</time>
      </trkpt>
      <trkpt lat="49.36885" lon="-1.0778">
        <ele>12.4</ele>
        <time>2020-06-16T13:17:34Z</time>
      </trkpt>
      <trkpt lat="49.36885" lon="-1.07779">
        <ele>12.4</ele>
        <time>2020-06-16T13:17:35Z</time>
      </trkpt>
      <trkpt lat="49.36885" lon="-1.07781">
        <ele>12.4</ele>
        <time>2020-06-16T13:17:36Z</time>
      </trkpt>
      <trkpt lat="49.36885" lon="-1.07782">
        <ele>12.4</ele>
        <time>2020-06-16T13:17:37Z</time>
      </trkpt>
      <trkpt lat="49.36885" lon="-1.07783">
        <ele>12.4</ele>
        <time>2020-06-16T13:17:38Z</time>
      </trkpt>
      <trkpt lat="49.36885" lon="-1.07784">
        <ele>12.4</ele>
        <time>2020-06-16T13:17:39Z</time>
      </trkpt>
      <trkpt lat="49.36885" lon="-1.07784">
        <ele>12.4</ele>
        <time>2020-06-16T13:17:40Z</time>
      </trkpt>
      <trkpt lat="49.36885" lon="-1.07784">
        <ele>12.4</ele>
        <time>2020-06-16T13:17:41Z</time>
      </trkpt>
      <trkpt lat="49.36885" lon="-1.07783">
        <ele>12.4</ele>
        <time>2020-06-16T13:17:42Z</time>
      </trkpt>
      <trkpt lat="49.36884" lon="-1.07783">
        <ele>12.4</ele>
        <time>2020-06-16T13:17:43Z</time>
      </trkpt>
      <trkpt lat="49.36884" lon="-1.07782">
        <ele>12.4</ele>
        <time>2020-06-16T13:17:44Z</time>
      </trkpt>
      <trkpt lat="49.36883" lon="-1.07781">
        <ele>12.4</ele>
        <time>2020-06-16T13:17:45Z</time>
      </trkpt>
      <trkpt lat="49.36882" lon="-1.07781">
        <ele>12.4</ele>
        <time>2020-06-16T13:17:46Z</time>
      </trkpt>
      <trkpt lat="49.36882" lon="-1.07782">
        <ele>12.4</ele>
        <time>2020-06-16T13:17:47Z</time>
      </trkpt>
      <trkpt lat="49.36883" lon="-1.07783">
        <ele>12.4</ele>
        <time>2020-06-16T13:17:48Z</time>
      </trkpt>
      <trkpt lat="49.36883" lon="-1.07785">
        <ele>12.4</ele>
        <time>2020-06-16T13:17:49Z</time>
      </trkpt>
      <trkpt lat="49.36883" lon="-1.07785">
        <ele>12.4</ele>
        <time>2020-06-16T13:17:50Z</time>
      </trkpt>
      <trkpt lat="49.36882" lon="-1.07785">
        <ele>12.4</ele>
        <time>2020-06-16T13:17:51Z</time>
      </trkpt>
      <trkpt lat="49.36883" lon="-1.07785">
        <ele>12.4</ele>
        <time>2020-06-16T13:17:52Z</time>
      </trkpt>
      <trkpt lat="49.36883" lon="-1.07784">
        <ele>12.4</ele>
        <time>2020-06-16T13:17:53Z</time>
      </trkpt>
      <trkpt lat="49.36883" lon="-1.07782">
        <ele>12.4</ele>
        <time>2020-06-16T13:17:54Z</time>
      </trkpt>
      <trkpt lat="49.36882" lon="-1.07781">
        <ele>12.4</ele>
        <time>2020-06-16T13:17:55Z</time>
      </trkpt>
      <trkpt lat="49.36881" lon="-1.07781">
        <ele>12.4</ele>
        <time>2020-06-16T13:17:56Z</time>
      </trkpt>
      <trkpt lat="49.3688" lon="-1.07781">
        <ele>12.4</ele>
        <time>2020-06-16T13:17:57Z</time>
      </trkpt>
      <trkpt lat="49.36879" lon="-1.0778">
        <ele>12.5</ele>
        <time>2020-06-16T13:17:58Z</time>
      </trkpt>
      <trkpt lat="49.36878" lon="-1.0778">
        <ele>12.5</ele>
        <time>2020-06-16T13:17:59Z</time>
      </trkpt>
      <trkpt lat="49.36878" lon="-1.0778">
        <ele>12.5</ele>
        <time>2020-06-16T13:18:00Z</time>
      </trkpt>
      <trkpt lat="49.36877" lon="-1.0778">
        <ele>12.5</ele>
        <time>2020-06-16T13:18:01Z</time>
      </trkpt>
      <trkpt lat="49.36878" lon="-1.07782">
        <ele>12.4</ele>
        <time>2020-06-16T13:18:02Z</time>
      </trkpt>
      <trkpt lat="49.36879" lon="-1.07783">
        <ele>12.4</ele>
        <time>2020-06-16T13:18:03Z</time>
      </trkpt>
      <trkpt lat="49.36879" lon="-1.07784">
        <ele>12.4</ele>
        <time>2020-06-16T13:18:04Z</time>
      </trkpt>
      <trkpt lat="49.3688" lon="-1.07787">
        <ele>12.3</ele>
        <time>2020-06-16T13:18:05Z</time>
      </trkpt>
      <trkpt lat="49.3688" lon="-1.07789">
        <ele>12.3</ele>
        <time>2020-06-16T13:18:06Z</time>
      </trkpt>
      <trkpt lat="49.3688" lon="-1.0779">
        <ele>12.3</ele>
        <time>2020-06-16T13:18:07Z</time>
      </trkpt>
      <trkpt lat="49.3688" lon="-1.07791">
        <ele>12.3</ele>
        <time>2020-06-16T13:18:08Z</time>
      </trkpt>
      <trkpt lat="49.3688" lon="-1.07793">
        <ele>12.3</ele>
        <time>2020-06-16T13:18:09Z</time>
      </trkpt>
      <trkpt lat="49.3688" lon="-1.07796">
        <ele>12.2</ele>
        <time>2020-06-16T13:18:10Z</time>
      </trkpt>
      <trkpt lat="49.36879" lon="-1.07797">
        <ele>12.2</ele>
        <time>2020-06-16T13:18:11Z</time>
      </trkpt>
      <trkpt lat="49.36878" lon="-1.07798">
        <ele>12.2</ele>
        <time>2020-06-16T13:18:12Z</time>
      </trkpt>
      <trkpt lat="49.36877" lon="-1.078">
        <ele>12.1</ele>
        <time>2020-06-16T13:18:13Z</time>
      </trkpt>
      <trkpt lat="49.36876" lon="-1.07802">
        <ele>12.1</ele>
        <time>2020-06-16T13:18:14Z</time>
      </trkpt>
      <trkpt lat="49.36875" lon="-1.07803">
        <ele>12.1</ele>
        <time>2020-06-16T13:18:15Z</time>
      </trkpt>
      <trkpt lat="49.36873" lon="-1.07804">
        <ele>12.1</ele>
        <time>2020-06-16T13:18:16Z</time>
      </trkpt>
      <trkpt lat="49.36873" lon="-1.07804">
        <ele>12.1</ele>
        <time>2020-06-16T13:18:17Z</time>
      </trkpt>
      <trkpt lat="49.36873" lon="-1.07804">
        <ele>12.1</ele>
        <time>2020-06-16T13:18:18Z</time>
      </trkpt>
      <trkpt lat="49.36872" lon="-1.07804">
        <ele>12.1</ele>
        <time>2020-06-16T13:18:19Z</time>
      </trkpt>
      <trkpt lat="49.36872" lon="-1.07805">
        <ele>12.1</ele>
        <time>2020-06-16T13:18:20Z</time>
      </trkpt>
      <trkpt lat="49.36871" lon="-1.07799">
        <ele>12.2</ele>
        <time>2020-06-16T13:20:01Z</time>
      </trkpt>
      <trkpt lat="49.36873" lon="-1.07798">
        <ele>12.2</ele>
        <time>2020-06-16T13:20:02Z</time>
      </trkpt>
      <trkpt lat="49.36874" lon="-1.07798">
        <ele>12.2</ele>
        <time>2020-06-16T13:20:03Z</time>
      </trkpt>
      <trkpt lat="49.36874" lon="-1.07797">
        <ele>12.2</ele>
        <time>2020-06-16T13:20:04Z</time>
      </trkpt>
      <trkpt lat="49.36875" lon="-1.07797">
        <ele>12.2</ele>
        <time>2020-06-16T13:20:05Z</time>
      </trkpt>
      <trkpt lat="49.36875" lon="-1.07796">
        <ele>12.2</ele>
        <time>2020-06-16T13:20:06Z</time>
      </trkpt>
      <trkpt lat="49.36877" lon="-1.07794">
        <ele>12.3</ele>
        <time>2020-06-16T13:20:07Z</time>
      </trkpt>
      <trkpt lat="49.36878" lon="-1.07794">
        <ele>12.3</ele>
        <time>2020-06-16T13:20:08Z</time>
      </trkpt>
      <trkpt lat="49.36879" lon="-1.07793">
        <ele>12.3</ele>
        <time>2020-06-16T13:20:09Z</time>
      </trkpt>
      <trkpt lat="49.3688" lon="-1.07792">
        <ele>12.3</ele>
        <time>2020-06-16T13:20:10Z</time>
      </trkpt>
      <trkpt lat="49.36881" lon="-1.07792">
        <ele>12.3</ele>
        <time>2020-06-16T13:20:11Z</time>
      </trkpt>
      <trkpt lat="49.36882" lon="-1.07792">
        <ele>12.3</ele>
        <time>2020-06-16T13:20:12Z</time>
      </trkpt>
      <trkpt lat="49.36882" lon="-1.07792">
        <ele>12.2</ele>
        <time>2020-06-16T13:20:13Z</time>
      </trkpt>
      <trkpt lat="49.36883" lon="-1.07792">
        <ele>12.2</ele>
        <time>2020-06-16T13:20:14Z</time>
      </trkpt>
      <trkpt lat="49.36883" lon="-1.07792">
        <ele>12.2</ele>
        <time>2020-06-16T13:20:15Z</time>
      </trkpt>
      <trkpt lat="49.36883" lon="-1.07792">
        <ele>12.2</ele>
        <time>2020-06-16T13:20:16Z</time>
      </trkpt>
      <trkpt lat="49.36883" lon="-1.07792">
        <ele>12.2</ele>
        <time>2020-06-16T13:20:17Z</time>
      </trkpt>
      <trkpt lat="49.36883" lon="-1.07792">
        <ele>12.2</ele>
        <time>2020-06-16T13:20:18Z</time>
      </trkpt>
      <trkpt lat="49.36883" lon="-1.07792">
        <ele>12.2</ele>
        <time>2020-06-16T13:20:19Z</time>
      </trkpt>
      <trkpt lat="49.36883" lon="-1.07792">
        <ele>12.2</ele>
        <time>2020-06-16T13:20:20Z</time>
      </trkpt>
      <trkpt lat="49.36883" lon="-1.07792">
        <ele>12.2</ele>
        <time>2020-06-16T13:20:21Z</time>
      </trkpt>
      <trkpt lat="49.36883" lon="-1.07792">
        <ele>12.2</ele>
        <time>2020-06-16T13:20:22Z</time>
      </trkpt>
      <trkpt lat="49.36883" lon="-1.07792">
        <ele>12.2</ele>
        <time>2020-06-16T13:20:23Z</time>
      </trkpt>
      <trkpt lat="49.36883" lon="-1.07792">
        <ele>12.2</ele>
        <time>2020-06-16T13:20:24Z</time>
      </trkpt>
      <trkpt lat="49.36883" lon="-1.07792">
        <ele>12.2</ele>
        <time>2020-06-16T13:20:25Z</time>
      </trkpt>
      <trkpt lat="49.36877" lon="-1.07795">
        <ele>12.2</ele>
        <time>2020-06-16T13:20:51Z</time>
      </trkpt>
      <trkpt lat="49.36876" lon="-1.07797">
        <ele>12.2</ele>
        <time>2020-06-16T13:20:52Z</time>
      </trkpt>
      <trkpt lat="49.36875" lon="-1.07799">
        <ele>12.2</ele>
        <time>2020-06-16T13:20:53Z</time>
      </trkpt>
      <trkpt lat="49.36874" lon="-1.078">
        <ele>12.2</ele>
        <time>2020-06-16T13:20:54Z</time>
      </trkpt>
      <trkpt lat="49.36873" lon="-1.07802">
        <ele>12.2</ele>
        <time>2020-06-16T13:20:55Z</time>
      </trkpt>
      <trkpt lat="49.36872" lon="-1.07804">
        <ele>12.1</ele>
        <time>2020-06-16T13:20:56Z</time>
      </trkpt>
      <trkpt lat="49.36871" lon="-1.07805">
        <ele>12.1</ele>
        <time>2020-06-16T13:20:57Z</time>
      </trkpt>
      <trkpt lat="49.3687" lon="-1.07808">
        <ele>12.1</ele>
        <time>2020-06-16T13:20:58Z</time>
      </trkpt>
      <trkpt lat="49.3687" lon="-1.0781">
        <ele>12</ele>
        <time>2020-06-16T13:20:59Z</time>
      </trkpt>
      <trkpt lat="49.3687" lon="-1.07813">
        <ele>12</ele>
        <time>2020-06-16T13:21:00Z</time>
      </trkpt>
      <trkpt lat="49.3687" lon="-1.07815">
        <ele>12</ele>
        <time>2020-06-16T13:21:01Z</time>
      </trkpt>
      <trkpt lat="49.3687" lon="-1.07818">
        <ele>11.9</ele>
        <time>2020-06-16T13:21:02Z</time>
      </trkpt>
      <trkpt lat="49.36869" lon="-1.07821">
        <ele>11.9</ele>
        <time>2020-06-16T13:21:03Z</time>
      </trkpt>
      <trkpt lat="49.36869" lon="-1.07822">
        <ele>11.9</ele>
        <time>2020-06-16T13:21:04Z</time>
      </trkpt>
      <trkpt lat="49.36869" lon="-1.07823">
        <ele>11.9</ele>
        <time>2020-06-16T13:21:05Z</time>
      </trkpt>
      <trkpt lat="49.36868" lon="-1.07825">
        <ele>11.8</ele>
        <time>2020-06-16T13:21:06Z</time>
      </trkpt>
      <trkpt lat="49.36868" lon="-1.07827">
        <ele>11.8</ele>
        <time>2020-06-16T13:21:07Z</time>
      </trkpt>
      <trkpt lat="49.36868" lon="-1.07829">
        <ele>11.8</ele>
        <time>2020-06-16T13:21:08Z</time>
      </trkpt>
      <trkpt lat="49.36868" lon="-1.0783">
        <ele>11.8</ele>
        <time>2020-06-16T13:21:09Z</time>
      </trkpt>
      <trkpt lat="49.36869" lon="-1.0783">
        <ele>11.8</ele>
        <time>2020-06-16T13:21:10Z</time>
      </trkpt>
      <trkpt lat="49.36869" lon="-1.07831">
        <ele>11.8</ele>
        <time>2020-06-16T13:21:11Z</time>
      </trkpt>
      <trkpt lat="49.36869" lon="-1.07832">
        <ele>11.8</ele>
        <time>2020-06-16T13:21:12Z</time>
      </trkpt>
      <trkpt lat="49.36868" lon="-1.07832">
        <ele>11.8</ele>
        <time>2020-06-16T13:21:13Z</time>
      </trkpt>
      <trkpt lat="49.36868" lon="-1.07833">
        <ele>11.8</ele>
        <time>2020-06-16T13:21:14Z</time>
      </trkpt>
      <trkpt lat="49.36868" lon="-1.07832">
        <ele>11.8</ele>
        <time>2020-06-16T13:21:15Z</time>
      </trkpt>
      <trkpt lat="49.36869" lon="-1.07832">
        <ele>11.8</ele>
        <time>2020-06-16T13:21:16Z</time>
      </trkpt>
      <trkpt lat="49.36869" lon="-1.07833">
        <ele>11.8</ele>
        <time>2020-06-16T13:21:17Z</time>
      </trkpt>
      <trkpt lat="49.36869" lon="-1.07833">
        <ele>11.8</ele>
        <time>2020-06-16T13:21:18Z</time>
      </trkpt>
      <trkpt lat="49.36869" lon="-1.07833">
        <ele>11.8</ele>
        <time>2020-06-16T13:21:19Z</time>
      </trkpt>
      <trkpt lat="49.36869" lon="-1.07833">
        <ele>11.8</ele>
        <time>2020-06-16T13:21:20Z</time>
      </trkpt>
      <trkpt lat="49.36869" lon="-1.07833">
        <ele>11.8</ele>
        <time>2020-06-16T13:21:21Z</time>
      </trkpt>
      <trkpt lat="49.36869" lon="-1.07833">
        <ele>11.8</ele>
        <time>2020-06-16T13:21:22Z</time>
      </trkpt>
      <trkpt lat="49.36869" lon="-1.07833">
        <ele>11.8</ele>
        <time>2020-06-16T13:21:23Z</time>
      </trkpt>
      <trkpt lat="49.36869" lon="-1.07833">
        <ele>11.8</ele>
        <time>2020-06-16T13:21:24Z</time>
      </trkpt>
      <trkpt lat="49.36869" lon="-1.07833">
        <ele>11.8</ele>
        <time>2020-06-16T13:21:25Z</time>
      </trkpt>
      <trkpt lat="49.36869" lon="-1.07833">
        <ele>11.8</ele>
        <time>2020-06-16T13:21:26Z</time>
      </trkpt>
      <trkpt lat="49.36866" lon="-1.07823">
        <ele>11.9</ele>
        <time>2020-06-16T13:26:20Z</time>
      </trkpt>
      <trkpt lat="49.36865" lon="-1.07821">
        <ele>11.9</ele>
        <time>2020-06-16T13:26:21Z</time>
      </trkpt>
      <trkpt lat="49.36866" lon="-1.0782">
        <ele>11.9</ele>
        <time>2020-06-16T13:26:22Z</time>
      </trkpt>
      <trkpt lat="49.36865" lon="-1.07818">
        <ele>11.9</ele>
        <time>2020-06-16T13:26:23Z</time>
      </trkpt>
      <trkpt lat="49.36865" lon="-1.07817">
        <ele>11.9</ele>
        <time>2020-06-16T13:26:24Z</time>
      </trkpt>
      <trkpt lat="49.36865" lon="-1.07816">
        <ele>12</ele>
        <time>2020-06-16T13:26:25Z</time>
      </trkpt>
      <trkpt lat="49.36864" lon="-1.07814">
        <ele>12</ele>
        <time>2020-06-16T13:26:26Z</time>
      </trkpt>
      <trkpt lat="49.36864" lon="-1.07813">
        <ele>12</ele>
        <time>2020-06-16T13:26:27Z</time>
      </trkpt>
      <trkpt lat="49.36863" lon="-1.07812">
        <ele>12</ele>
        <time>2020-06-16T13:26:28Z</time>
      </trkpt>
      <trkpt lat="49.36863" lon="-1.07811">
        <ele>12</ele>
        <time>2020-06-16T13:26:29Z</time>
      </trkpt>
      <trkpt lat="49.36863" lon="-1.07812">
        <ele>12</ele>
        <time>2020-06-16T13:26:30Z</time>
      </trkpt>
      <trkpt lat="49.36863" lon="-1.07811">
        <ele>12</ele>
        <time>2020-06-16T13:26:31Z</time>
      </trkpt>
      <trkpt lat="49.36863" lon="-1.07811">
        <ele>12</ele>
        <time>2020-06-16T13:26:32Z</time>
      </trkpt>
      <trkpt lat="49.36863" lon="-1.07811">
        <ele>12</ele>
        <time>2020-06-16T13:26:33Z</time>
      </trkpt>
      <trkpt lat="49.36863" lon="-1.07811">
        <ele>12</ele>
        <time>2020-06-16T13:26:34Z</time>
      </trkpt>
      <trkpt lat="49.36862" lon="-1.0781">
        <ele>12.1</ele>
        <time>2020-06-16T13:26:35Z</time>
      </trkpt>
      <trkpt lat="49.36862" lon="-1.0781">
        <ele>12.1</ele>
        <time>2020-06-16T13:26:36Z</time>
      </trkpt>
      <trkpt lat="49.36863" lon="-1.07811">
        <ele>12.1</ele>
        <time>2020-06-16T13:26:37Z</time>
      </trkpt>
      <trkpt lat="49.36861" lon="-1.07802">
        <ele>12.2</ele>
        <time>2020-06-16T13:26:47Z</time>
      </trkpt>
      <trkpt lat="49.36861" lon="-1.078">
        <ele>12.2</ele>
        <time>2020-06-16T13:26:48Z</time>
      </trkpt>
      <trkpt lat="49.36862" lon="-1.07802">
        <ele>12.2</ele>
        <time>2020-06-16T13:26:49Z</time>
      </trkpt>
      <trkpt lat="49.36862" lon="-1.07803">
        <ele>12.2</ele>
        <time>2020-06-16T13:26:50Z</time>
      </trkpt>
      <trkpt lat="49.36862" lon="-1.07803">
        <ele>12.2</ele>
        <time>2020-06-16T13:26:51Z</time>
      </trkpt>
      <trkpt lat="49.36862" lon="-1.07803">
        <ele>12.2</ele>
        <time>2020-06-16T13:26:52Z</time>
      </trkpt>
      <trkpt lat="49.36862" lon="-1.07803">
        <ele>12.2</ele>
        <time>2020-06-16T13:26:53Z</time>
      </trkpt>
      <trkpt lat="49.36863" lon="-1.07801">
        <ele>12.2</ele>
        <time>2020-06-16T13:26:54Z</time>
      </trkpt>
      <trkpt lat="49.36863" lon="-1.078">
        <ele>12.2</ele>
        <time>2020-06-16T13:26:55Z</time>
      </trkpt>
      <trkpt lat="49.36864" lon="-1.07799">
        <ele>12.2</ele>
        <time>2020-06-16T13:26:56Z</time>
      </trkpt>
      <trkpt lat="49.36864" lon="-1.07799">
        <ele>12.2</ele>
        <time>2020-06-16T13:26:57Z</time>
      </trkpt>
      <trkpt lat="49.36864" lon="-1.07797">
        <ele>12.2</ele>
        <time>2020-06-16T13:26:58Z</time>
      </trkpt>
      <trkpt lat="49.36865" lon="-1.07797">
        <ele>12.2</ele>
        <time>2020-06-16T13:26:59Z</time>
      </trkpt>
      <trkpt lat="49.36865" lon="-1.07796">
        <ele>12.2</ele>
        <time>2020-06-16T13:27:00Z</time>
      </trkpt>
      <trkpt lat="49.36865" lon="-1.07796">
        <ele>12.2</ele>
        <time>2020-06-16T13:27:01Z</time>
      </trkpt>
      <trkpt lat="49.36866" lon="-1.07796">
        <ele>12.2</ele>
        <time>2020-06-16T13:27:02Z</time>
      </trkpt>
      <trkpt lat="49.36866" lon="-1.07795">
        <ele>12.3</ele>
        <time>2020-06-16T13:27:03Z</time>
      </trkpt>
      <trkpt lat="49.36866" lon="-1.07794">
        <ele>12.3</ele>
        <time>2020-06-16T13:27:04Z</time>
      </trkpt>
      <trkpt lat="49.36866" lon="-1.07793">
        <ele>12.3</ele>
        <time>2020-06-16T13:27:05Z</time>
      </trkpt>
      <trkpt lat="49.36866" lon="-1.07792">
        <ele>12.3</ele>
        <time>2020-06-16T13:27:06Z</time>
      </trkpt>
      <trkpt lat="49.36866" lon="-1.07792">
        <ele>12.3</ele>
        <time>2020-06-16T13:27:07Z</time>
      </trkpt>
      <trkpt lat="49.36866" lon="-1.07793">
        <ele>12.3</ele>
        <time>2020-06-16T13:27:08Z</time>
      </trkpt>
      <trkpt lat="49.36866" lon="-1.07794">
        <ele>12.3</ele>
        <time>2020-06-16T13:27:09Z</time>
      </trkpt>
      <trkpt lat="49.36866" lon="-1.07793">
        <ele>12.3</ele>
        <time>2020-06-16T13:27:10Z</time>
      </trkpt>
      <trkpt lat="49.36866" lon="-1.07793">
        <ele>12.3</ele>
        <time>2020-06-16T13:27:11Z</time>
      </trkpt>
      <trkpt lat="49.36866" lon="-1.07793">
        <ele>12.3</ele>
        <time>2020-06-16T13:27:12Z</time>
      </trkpt>
      <trkpt lat="49.36866" lon="-1.07793">
        <ele>12.3</ele>
        <time>2020-06-16T13:27:13Z</time>
      </trkpt>
      <trkpt lat="49.36866" lon="-1.07793">
        <ele>12.3</ele>
        <time>2020-06-16T13:27:14Z</time>
      </trkpt>
      <trkpt lat="49.36866" lon="-1.07793">
        <ele>12.3</ele>
        <time>2020-06-16T13:27:15Z</time>
      </trkpt>
      <trkpt lat="49.36866" lon="-1.07793">
        <ele>12.3</ele>
        <time>2020-06-16T13:27:16Z</time>
      </trkpt>
      <trkpt lat="49.36869" lon="-1.07807">
        <ele>12.1</ele>
        <time>2020-06-16T13:28:50Z</time>
      </trkpt>
      <trkpt lat="49.36869" lon="-1.07806">
        <ele>12.1</ele>
        <time>2020-06-16T13:28:51Z</time>
      </trkpt>
      <trkpt lat="49.36868" lon="-1.07805">
        <ele>12.1</ele>
        <time>2020-06-16T13:28:52Z</time>
      </trkpt>
      <trkpt lat="49.36867" lon="-1.07806">
        <ele>12.1</ele>
        <time>2020-06-16T13:28:53Z</time>
      </trkpt>
      <trkpt lat="49.36867" lon="-1.07806">
        <ele>12.1</ele>
        <time>2020-06-16T13:28:54Z</time>
      </trkpt>
      <trkpt lat="49.36867" lon="-1.07806">
        <ele>12.1</ele>
        <time>2020-06-16T13:28:55Z</time>
      </trkpt>
      <trkpt lat="49.36867" lon="-1.07806">
        <ele>12.1</ele>
        <time>2020-06-16T13:28:56Z</time>
      </trkpt>
      <trkpt lat="49.36867" lon="-1.07806">
        <ele>12.1</ele>
        <time>2020-06-16T13:28:57Z</time>
      </trkpt>
      <trkpt lat="49.36867" lon="-1.07806">
        <ele>12.1</ele>
        <time>2020-06-16T13:28:58Z</time>
      </trkpt>
      <trkpt lat="49.36866" lon="-1.07806">
        <ele>12.1</ele>
        <time>2020-06-16T13:28:59Z</time>
      </trkpt>
      <trkpt lat="49.36866" lon="-1.07806">
        <ele>12.1</ele>
        <time>2020-06-16T13:29:00Z</time>
      </trkpt>
      <trkpt lat="49.3686" lon="-1.07802">
        <ele>12.2</ele>
        <time>2020-06-16T13:29:19Z</time>
      </trkpt>
      <trkpt lat="49.36859" lon="-1.07802">
        <ele>12.2</ele>
        <time>2020-06-16T13:29:20Z</time>
      </trkpt>
      <trkpt lat="49.36858" lon="-1.07801">
        <ele>12.2</ele>
        <time>2020-06-16T13:29:21Z</time>
      </trkpt>
      <trkpt lat="49.36857" lon="-1.07801">
        <ele>12.2</ele>
        <time>2020-06-16T13:29:22Z</time>
      </trkpt>
      <trkpt lat="49.36856" lon="-1.078">
        <ele>12.2</ele>
        <time>2020-06-16T13:29:23Z</time>
      </trkpt>
      <trkpt lat="49.36855" lon="-1.078">
        <ele>12.2</ele>
        <time>2020-06-16T13:29:24Z</time>
      </trkpt>
      <trkpt lat="49.36855" lon="-1.078">
        <ele>12.2</ele>
        <time>2020-06-16T13:29:25Z</time>
      </trkpt>
      <trkpt lat="49.36855" lon="-1.07799">
        <ele>12.2</ele>
        <time>2020-06-16T13:29:26Z</time>
      </trkpt>
      <trkpt lat="49.36854" lon="-1.07799">
        <ele>12.2</ele>
        <time>2020-06-16T13:29:27Z</time>
      </trkpt>
      <trkpt lat="49.36854" lon="-1.07799">
        <ele>12.3</ele>
        <time>2020-06-16T13:29:28Z</time>
      </trkpt>
      <trkpt lat="49.36853" lon="-1.07799">
        <ele>12.3</ele>
        <time>2020-06-16T13:29:29Z</time>
      </trkpt>
      <trkpt lat="49.36853" lon="-1.07799">
        <ele>12.3</ele>
        <time>2020-06-16T13:29:30Z</time>
      </trkpt>
      <trkpt lat="49.36853" lon="-1.07799">
        <ele>12.3</ele>
        <time>2020-06-16T13:29:31Z</time>
      </trkpt>
      <trkpt lat="49.36853" lon="-1.07799">
        <ele>12.3</ele>
        <time>2020-06-16T13:29:32Z</time>
      </trkpt>
      <trkpt lat="49.36852" lon="-1.07797">
        <ele>12.3</ele>
        <time>2020-06-16T13:29:33Z</time>
      </trkpt>
      <trkpt lat="49.36852" lon="-1.07796">
        <ele>12.3</ele>
        <time>2020-06-16T13:29:34Z</time>
      </trkpt>
      <trkpt lat="49.36852" lon="-1.07795">
        <ele>12.3</ele>
        <time>2020-06-16T13:29:35Z</time>
      </trkpt>
      <trkpt lat="49.36852" lon="-1.07793">
        <ele>12.4</ele>
        <time>2020-06-16T13:29:36Z</time>
      </trkpt>
      <trkpt lat="49.36852" lon="-1.07792">
        <ele>12.4</ele>
        <time>2020-06-16T13:29:37Z</time>
      </trkpt>
      <trkpt lat="49.36852" lon="-1.07792">
        <ele>12.4</ele>
        <time>2020-06-16T13:29:38Z</time>
      </trkpt>
      <trkpt lat="49.36852" lon="-1.07792">
        <ele>12.4</ele>
        <time>2020-06-16T13:29:39Z</time>
      </trkpt>
      <trkpt lat="49.36852" lon="-1.07792">
        <ele>12.4</ele>
        <time>2020-06-16T13:29:40Z</time>
      </trkpt>
      <trkpt lat="49.36852" lon="-1.07792">
        <ele>12.4</ele>
        <time>2020-06-16T13:29:41Z</time>
      </trkpt>
      <trkpt lat="49.36852" lon="-1.07792">
        <ele>12.4</ele>
        <time>2020-06-16T13:29:42Z</time>
      </trkpt>
      <trkpt lat="49.36851" lon="-1.07791">
        <ele>12.4</ele>
        <time>2020-06-16T13:29:43Z</time>
      </trkpt>
      <trkpt lat="49.36851" lon="-1.07789">
        <ele>12.5</ele>
        <time>2020-06-16T13:29:44Z</time>
      </trkpt>
      <trkpt lat="49.36852" lon="-1.07788">
        <ele>12.4</ele>
        <time>2020-06-16T13:29:45Z</time>
      </trkpt>
      <trkpt lat="49.36852" lon="-1.07787">
        <ele>12.4</ele>
        <time>2020-06-16T13:29:46Z</time>
      </trkpt>
      <trkpt lat="49.36852" lon="-1.07786">
        <ele>12.5</ele>
        <time>2020-06-16T13:29:47Z</time>
      </trkpt>
      <trkpt lat="49.36852" lon="-1.07785">
        <ele>12.5</ele>
        <time>2020-06-16T13:29:48Z</time>
      </trkpt>
      <trkpt lat="49.36852" lon="-1.07785">
        <ele>12.5</ele>
        <time>2020-06-16T13:29:49Z</time>
      </trkpt>
      <trkpt lat="49.36852" lon="-1.07784">
        <ele>12.5</ele>
        <time>2020-06-16T13:29:50Z</time>
      </trkpt>
      <trkpt lat="49.36852" lon="-1.07784">
        <ele>12.5</ele>
        <time>2020-06-16T13:29:51Z</time>
      </trkpt>
      <trkpt lat="49.36852" lon="-1.07783">
        <ele>12.5</ele>
        <time>2020-06-16T13:29:52Z</time>
      </trkpt>
      <trkpt lat="49.36852" lon="-1.07783">
        <ele>12.5</ele>
        <time>2020-06-16T13:29:53Z</time>
      </trkpt>
      <trkpt lat="49.36853" lon="-1.07782">
        <ele>12.5</ele>
        <time>2020-06-16T13:29:54Z</time>
      </trkpt>
      <trkpt lat="49.36854" lon="-1.07781">
        <ele>12.6</ele>
        <time>2020-06-16T13:29:55Z</time>
      </trkpt>
      <trkpt lat="49.36855" lon="-1.07779">
        <ele>12.6</ele>
        <time>2020-06-16T13:29:56Z</time>
      </trkpt>
      <trkpt lat="49.36855" lon="-1.07779">
        <ele>12.6</ele>
        <time>2020-06-16T13:29:57Z</time>
      </trkpt>
      <trkpt lat="49.36855" lon="-1.07774">
        <ele>12.7</ele>
        <time>2020-06-16T13:29:58Z</time>
      </trkpt>
      <trkpt lat="49.36855" lon="-1.07771">
        <ele>12.7</ele>
        <time>2020-06-16T13:29:59Z</time>
      </trkpt>
      <trkpt lat="49.36854" lon="-1.07767">
        <ele>12.8</ele>
        <time>2020-06-16T13:30:00Z</time>
      </trkpt>
      <trkpt lat="49.36855" lon="-1.07762">
        <ele>12.9</ele>
        <time>2020-06-16T13:30:01Z</time>
      </trkpt>
      <trkpt lat="49.36856" lon="-1.0776">
        <ele>13</ele>
        <time>2020-06-16T13:30:02Z</time>
      </trkpt>
      <trkpt lat="49.36857" lon="-1.07756">
        <ele>13</ele>
        <time>2020-06-16T13:30:03Z</time>
      </trkpt>
      <trkpt lat="49.36857" lon="-1.07755">
        <ele>13</ele>
        <time>2020-06-16T13:30:04Z</time>
      </trkpt>
      <trkpt lat="49.36857" lon="-1.07751">
        <ele>13.1</ele>
        <time>2020-06-16T13:30:05Z</time>
      </trkpt>
      <trkpt lat="49.36856" lon="-1.07748">
        <ele>13.1</ele>
        <time>2020-06-16T13:30:06Z</time>
      </trkpt>
      <trkpt lat="49.36856" lon="-1.07745">
        <ele>13.2</ele>
        <time>2020-06-16T13:30:07Z</time>
      </trkpt>
      <trkpt lat="49.36856" lon="-1.07742">
        <ele>13.3</ele>
        <time>2020-06-16T13:30:08Z</time>
      </trkpt>
      <trkpt lat="49.36857" lon="-1.0774">
        <ele>13.3</ele>
        <time>2020-06-16T13:30:09Z</time>
      </trkpt>
      <trkpt lat="49.36856" lon="-1.07738">
        <ele>13.3</ele>
        <time>2020-06-16T13:30:10Z</time>
      </trkpt>
      <trkpt lat="49.36856" lon="-1.07735">
        <ele>13.3</ele>
        <time>2020-06-16T13:30:11Z</time>
      </trkpt>
      <trkpt lat="49.36856" lon="-1.07734">
        <ele>13.4</ele>
        <time>2020-06-16T13:30:12Z</time>
      </trkpt>
      <trkpt lat="49.36856" lon="-1.07734">
        <ele>13.4</ele>
        <time>2020-06-16T13:30:13Z</time>
      </trkpt>
      <trkpt lat="49.36854" lon="-1.07734">
        <ele>13.4</ele>
        <time>2020-06-16T13:30:14Z</time>
      </trkpt>
      <trkpt lat="49.36851" lon="-1.07733">
        <ele>13.4</ele>
        <time>2020-06-16T13:30:15Z</time>
      </trkpt>
      <trkpt lat="49.3685" lon="-1.07732">
        <ele>13.4</ele>
        <time>2020-06-16T13:30:16Z</time>
      </trkpt>
      <trkpt lat="49.36847" lon="-1.07731">
        <ele>13.4</ele>
        <time>2020-06-16T13:30:17Z</time>
      </trkpt>
      <trkpt lat="49.36846" lon="-1.07731">
        <ele>13.4</ele>
        <time>2020-06-16T13:30:18Z</time>
      </trkpt>
      <trkpt lat="49.36845" lon="-1.07729">
        <ele>13.5</ele>
        <time>2020-06-16T13:30:19Z</time>
      </trkpt>
      <trkpt lat="49.36844" lon="-1.07728">
        <ele>13.5</ele>
        <time>2020-06-16T13:30:20Z</time>
      </trkpt>
      <trkpt lat="49.36844" lon="-1.07728">
        <ele>13.5</ele>
        <time>2020-06-16T13:30:21Z</time>
      </trkpt>
      <trkpt lat="49.36844" lon="-1.07728">
        <ele>13.5</ele>
        <time>2020-06-16T13:30:22Z</time>
      </trkpt>
      <trkpt lat="49.36843" lon="-1.07728">
        <ele>13.5</ele>
        <time>2020-06-16T13:30:23Z</time>
      </trkpt>
      <trkpt lat="49.36843" lon="-1.07728">
        <ele>13.5</ele>
        <time>2020-06-16T13:30:24Z</time>
      </trkpt>
      <trkpt lat="49.36843" lon="-1.07728">
        <ele>13.5</ele>
        <time>2020-06-16T13:30:25Z</time>
      </trkpt>
      <trkpt lat="49.36843" lon="-1.07727">
        <ele>13.5</ele>
        <time>2020-06-16T13:30:26Z</time>
      </trkpt>
      <trkpt lat="49.36843" lon="-1.07727">
        <ele>13.5</ele>
        <time>2020-06-16T13:30:27Z</time>
      </trkpt>
      <trkpt lat="49.36843" lon="-1.07728">
        <ele>13.5</ele>
        <time>2020-06-16T13:30:28Z</time>
      </trkpt>
      <trkpt lat="49.36841" lon="-1.07731">
        <ele>13.5</ele>
        <time>2020-06-16T13:30:29Z</time>
      </trkpt>
      <trkpt lat="49.36841" lon="-1.0773">
        <ele>13.5</ele>
        <time>2020-06-16T13:30:30Z</time>
      </trkpt>
      <trkpt lat="49.36841" lon="-1.07729">
        <ele>13.5</ele>
        <time>2020-06-16T13:30:31Z</time>
      </trkpt>
      <trkpt lat="49.36841" lon="-1.07728">
        <ele>13.5</ele>
        <time>2020-06-16T13:30:32Z</time>
      </trkpt>
      <trkpt lat="49.36841" lon="-1.07727">
        <ele>13.5</ele>
        <time>2020-06-16T13:30:33Z</time>
      </trkpt>
      <trkpt lat="49.36841" lon="-1.07726">
        <ele>13.6</ele>
        <time>2020-06-16T13:30:34Z</time>
      </trkpt>
      <trkpt lat="49.36841" lon="-1.07724">
        <ele>13.6</ele>
        <time>2020-06-16T13:30:35Z</time>
      </trkpt>
      <trkpt lat="49.36841" lon="-1.07724">
        <ele>13.6</ele>
        <time>2020-06-16T13:30:36Z</time>
      </trkpt>
      <trkpt lat="49.36841" lon="-1.07724">
        <ele>13.6</ele>
        <time>2020-06-16T13:30:37Z</time>
      </trkpt>
      <trkpt lat="49.36841" lon="-1.07724">
        <ele>13.6</ele>
        <time>2020-06-16T13:30:38Z</time>
      </trkpt>
      <trkpt lat="49.36841" lon="-1.07722">
        <ele>13.6</ele>
        <time>2020-06-16T13:30:39Z</time>
      </trkpt>
      <trkpt lat="49.36841" lon="-1.07719">
        <ele>13.6</ele>
        <time>2020-06-16T13:30:40Z</time>
      </trkpt>
      <trkpt lat="49.36842" lon="-1.07717">
        <ele>13.6</ele>
        <time>2020-06-16T13:30:41Z</time>
      </trkpt>
      <trkpt lat="49.36842" lon="-1.07716">
        <ele>13.6</ele>
        <time>2020-06-16T13:30:42Z</time>
      </trkpt>
      <trkpt lat="49.36843" lon="-1.07715">
        <ele>13.6</ele>
        <time>2020-06-16T13:30:43Z</time>
      </trkpt>
      <trkpt lat="49.36844" lon="-1.07707">
        <ele>13.7</ele>
        <time>2020-06-16T13:30:47Z</time>
      </trkpt>
      <trkpt lat="49.36845" lon="-1.07705">
        <ele>13.7</ele>
        <time>2020-06-16T13:30:48Z</time>
      </trkpt>
      <trkpt lat="49.36845" lon="-1.07702">
        <ele>13.7</ele>
        <time>2020-06-16T13:30:49Z</time>
      </trkpt>
      <trkpt lat="49.36846" lon="-1.07701">
        <ele>13.7</ele>
        <time>2020-06-16T13:30:50Z</time>
      </trkpt>
      <trkpt lat="49.36847" lon="-1.07698">
        <ele>13.7</ele>
        <time>2020-06-16T13:30:51Z</time>
      </trkpt>
      <trkpt lat="49.36847" lon="-1.07697">
        <ele>13.7</ele>
        <time>2020-06-16T13:30:52Z</time>
      </trkpt>
      <trkpt lat="49.36848" lon="-1.07695">
        <ele>13.7</ele>
        <time>2020-06-16T13:30:53Z</time>
      </trkpt>
      <trkpt lat="49.36848" lon="-1.07693">
        <ele>13.7</ele>
        <time>2020-06-16T13:30:54Z</time>
      </trkpt>
      <trkpt lat="49.36849" lon="-1.07691">
        <ele>13.7</ele>
        <time>2020-06-16T13:30:55Z</time>
      </trkpt>
      <trkpt lat="49.36849" lon="-1.07691">
        <ele>13.7</ele>
        <time>2020-06-16T13:30:56Z</time>
      </trkpt>
      <trkpt lat="49.36849" lon="-1.07689">
        <ele>13.7</ele>
        <time>2020-06-16T13:30:57Z</time>
      </trkpt>
      <trkpt lat="49.36849" lon="-1.07689">
        <ele>13.7</ele>
        <time>2020-06-16T13:30:58Z</time>
      </trkpt>
      <trkpt lat="49.3685" lon="-1.07688">
        <ele>13.7</ele>
        <time>2020-06-16T13:30:59Z</time>
      </trkpt>
      <trkpt lat="49.36849" lon="-1.07687">
        <ele>13.7</ele>
        <time>2020-06-16T13:31:00Z</time>
      </trkpt>
      <trkpt lat="49.36849" lon="-1.07683">
        <ele>13.7</ele>
        <time>2020-06-16T13:31:01Z</time>
      </trkpt>
      <trkpt lat="49.36848" lon="-1.07678">
        <ele>13.8</ele>
        <time>2020-06-16T13:31:02Z</time>
      </trkpt>
      <trkpt lat="49.36848" lon="-1.07676">
        <ele>13.8</ele>
        <time>2020-06-16T13:31:03Z</time>
      </trkpt>
      <trkpt lat="49.36847" lon="-1.07674">
        <ele>13.8</ele>
        <time>2020-06-16T13:31:04Z</time>
      </trkpt>
      <trkpt lat="49.36846" lon="-1.07669">
        <ele>13.8</ele>
        <time>2020-06-16T13:31:05Z</time>
      </trkpt>
      <trkpt lat="49.36846" lon="-1.07668">
        <ele>13.8</ele>
        <time>2020-06-16T13:31:06Z</time>
      </trkpt>
      <trkpt lat="49.36845" lon="-1.07665">
        <ele>13.9</ele>
        <time>2020-06-16T13:31:07Z</time>
      </trkpt>
      <trkpt lat="49.36845" lon="-1.07664">
        <ele>13.9</ele>
        <time>2020-06-16T13:31:08Z</time>
      </trkpt>
      <trkpt lat="49.36845" lon="-1.07662">
        <ele>13.9</ele>
        <time>2020-06-16T13:31:09Z</time>
      </trkpt>
      <trkpt lat="49.36844" lon="-1.07662">
        <ele>13.9</ele>
        <time>2020-06-16T13:31:10Z</time>
      </trkpt>
      <trkpt lat="49.36845" lon="-1.07664">
        <ele>13.9</ele>
        <time>2020-06-16T13:31:11Z</time>
      </trkpt>
      <trkpt lat="49.36845" lon="-1.07665">
        <ele>13.9</ele>
        <time>2020-06-16T13:31:12Z</time>
      </trkpt>
      <trkpt lat="49.36844" lon="-1.07667">
        <ele>13.8</ele>
        <time>2020-06-16T13:31:13Z</time>
      </trkpt>
      <trkpt lat="49.36845" lon="-1.07667">
        <ele>13.8</ele>
        <time>2020-06-16T13:31:14Z</time>
      </trkpt>
      <trkpt lat="49.36845" lon="-1.07667">
        <ele>13.8</ele>
        <time>2020-06-16T13:31:15Z</time>
      </trkpt>
      <trkpt lat="49.36845" lon="-1.07667">
        <ele>13.8</ele>
        <time>2020-06-16T13:31:16Z</time>
      </trkpt>
      <trkpt lat="49.36845" lon="-1.07667">
        <ele>13.8</ele>
        <time>2020-06-16T13:31:17Z</time>
      </trkpt>
      <trkpt lat="49.36845" lon="-1.07667">
        <ele>13.8</ele>
        <time>2020-06-16T13:31:18Z</time>
      </trkpt>
      <trkpt lat="49.36844" lon="-1.07667">
        <ele>13.8</ele>
        <time>2020-06-16T13:31:19Z</time>
      </trkpt>
      <trkpt lat="49.36843" lon="-1.07665">
        <ele>13.9</ele>
        <time>2020-06-16T13:31:20Z</time>
      </trkpt>
      <trkpt lat="49.36843" lon="-1.07663">
        <ele>13.9</ele>
        <time>2020-06-16T13:31:21Z</time>
      </trkpt>
      <trkpt lat="49.36843" lon="-1.07661">
        <ele>13.9</ele>
        <time>2020-06-16T13:31:22Z</time>
      </trkpt>
      <trkpt lat="49.36843" lon="-1.07657">
        <ele>13.9</ele>
        <time>2020-06-16T13:31:23Z</time>
      </trkpt>
      <trkpt lat="49.36842" lon="-1.07655">
        <ele>13.9</ele>
        <time>2020-06-16T13:31:24Z</time>
      </trkpt>
      <trkpt lat="49.36842" lon="-1.07653">
        <ele>13.9</ele>
        <time>2020-06-16T13:31:25Z</time>
      </trkpt>
      <trkpt lat="49.36842" lon="-1.07651">
        <ele>13.9</ele>
        <time>2020-06-16T13:31:26Z</time>
      </trkpt>
      <trkpt lat="49.36842" lon="-1.07651">
        <ele>13.9</ele>
        <time>2020-06-16T13:31:27Z</time>
      </trkpt>
      <trkpt lat="49.36841" lon="-1.0765">
        <ele>13.9</ele>
        <time>2020-06-16T13:31:28Z</time>
      </trkpt>
      <trkpt lat="49.36841" lon="-1.07651">
        <ele>13.9</ele>
        <time>2020-06-16T13:31:29Z</time>
      </trkpt>
      <trkpt lat="49.36842" lon="-1.07653">
        <ele>13.9</ele>
        <time>2020-06-16T13:31:30Z</time>
      </trkpt>
      <trkpt lat="49.36842" lon="-1.07653">
        <ele>13.9</ele>
        <time>2020-06-16T13:31:31Z</time>
      </trkpt>
      <trkpt lat="49.36842" lon="-1.07653">
        <ele>13.9</ele>
        <time>2020-06-16T13:31:32Z</time>
      </trkpt>
      <trkpt lat="49.36843" lon="-1.07653">
        <ele>13.9</ele>
        <time>2020-06-16T13:31:33Z</time>
      </trkpt>
      <trkpt lat="49.36842" lon="-1.07653">
        <ele>13.9</ele>
        <time>2020-06-16T13:31:34Z</time>
      </trkpt>
      <trkpt lat="49.36842" lon="-1.0765">
        <ele>13.9</ele>
        <time>2020-06-16T13:31:35Z</time>
      </trkpt>
      <trkpt lat="49.36842" lon="-1.0765">
        <ele>13.9</ele>
        <time>2020-06-16T13:31:36Z</time>
      </trkpt>
      <trkpt lat="49.36842" lon="-1.0765">
        <ele>13.9</ele>
        <time>2020-06-16T13:31:37Z</time>
      </trkpt>
      <trkpt lat="49.36842" lon="-1.07649">
        <ele>13.9</ele>
        <time>2020-06-16T13:31:38Z</time>
      </trkpt>
      <trkpt lat="49.36843" lon="-1.07649">
        <ele>13.9</ele>
        <time>2020-06-16T13:31:39Z</time>
      </trkpt>
      <trkpt lat="49.36843" lon="-1.07649">
        <ele>14</ele>
        <time>2020-06-16T13:31:40Z</time>
      </trkpt>
      <trkpt lat="49.36843" lon="-1.07648">
        <ele>14</ele>
        <time>2020-06-16T13:31:41Z</time>
      </trkpt>
      <trkpt lat="49.36843" lon="-1.07648">
        <ele>14</ele>
        <time>2020-06-16T13:31:42Z</time>
      </trkpt>
      <trkpt lat="49.36843" lon="-1.07648">
        <ele>14</ele>
        <time>2020-06-16T13:31:43Z</time>
      </trkpt>
      <trkpt lat="49.36844" lon="-1.07647">
        <ele>14</ele>
        <time>2020-06-16T13:31:44Z</time>
      </trkpt>
      <trkpt lat="49.36844" lon="-1.07645">
        <ele>14</ele>
        <time>2020-06-16T13:31:45Z</time>
      </trkpt>
      <trkpt lat="49.36844" lon="-1.07644">
        <ele>14</ele>
        <time>2020-06-16T13:31:46Z</time>
      </trkpt>
      <trkpt lat="49.36844" lon="-1.07643">
        <ele>14</ele>
        <time>2020-06-16T13:31:47Z</time>
      </trkpt>
      <trkpt lat="49.36845" lon="-1.07642">
        <ele>14</ele>
        <time>2020-06-16T13:31:48Z</time>
      </trkpt>
      <trkpt lat="49.36845" lon="-1.07642">
        <ele>14</ele>
        <time>2020-06-16T13:31:49Z</time>
      </trkpt>
      <trkpt lat="49.36845" lon="-1.07641">
        <ele>14</ele>
        <time>2020-06-16T13:31:50Z</time>
      </trkpt>
      <trkpt lat="49.36845" lon="-1.07642">
        <ele>14</ele>
        <time>2020-06-16T13:31:51Z</time>
      </trkpt>
      <trkpt lat="49.36844" lon="-1.07642">
        <ele>14</ele>
        <time>2020-06-16T13:31:52Z</time>
      </trkpt>
      <trkpt lat="49.36843" lon="-1.07642">
        <ele>14</ele>
        <time>2020-06-16T13:31:53Z</time>
      </trkpt>
      <trkpt lat="49.36843" lon="-1.07642">
        <ele>14</ele>
        <time>2020-06-16T13:31:54Z</time>
      </trkpt>
      <trkpt lat="49.36843" lon="-1.07642">
        <ele>14</ele>
        <time>2020-06-16T13:31:55Z</time>
      </trkpt>
      <trkpt lat="49.36843" lon="-1.07642">
        <ele>14</ele>
        <time>2020-06-16T13:31:56Z</time>
      </trkpt>
      <trkpt lat="49.36842" lon="-1.07642">
        <ele>14</ele>
        <time>2020-06-16T13:31:57Z</time>
      </trkpt>
      <trkpt lat="49.36842" lon="-1.07642">
        <ele>14</ele>
        <time>2020-06-16T13:31:58Z</time>
      </trkpt>
      <trkpt lat="49.36841" lon="-1.07642">
        <ele>14</ele>
        <time>2020-06-16T13:31:59Z</time>
      </trkpt>
      <trkpt lat="49.36842" lon="-1.07647">
        <ele>14</ele>
        <time>2020-06-16T13:32:03Z</time>
      </trkpt>
      <trkpt lat="49.36841" lon="-1.07647">
        <ele>14</ele>
        <time>2020-06-16T13:32:04Z</time>
      </trkpt>
      <trkpt lat="49.36841" lon="-1.07647">
        <ele>14</ele>
        <time>2020-06-16T13:32:05Z</time>
      </trkpt>
      <trkpt lat="49.36841" lon="-1.07647">
        <ele>14</ele>
        <time>2020-06-16T13:32:06Z</time>
      </trkpt>
      <trkpt lat="49.36842" lon="-1.07647">
        <ele>14</ele>
        <time>2020-06-16T13:32:07Z</time>
      </trkpt>
      <trkpt lat="49.36842" lon="-1.07647">
        <ele>14</ele>
        <time>2020-06-16T13:32:08Z</time>
      </trkpt>
      <trkpt lat="49.36843" lon="-1.07649">
        <ele>13.9</ele>
        <time>2020-06-16T13:32:09Z</time>
      </trkpt>
      <trkpt lat="49.36844" lon="-1.0765">
        <ele>13.9</ele>
        <time>2020-06-16T13:32:10Z</time>
      </trkpt>
      <trkpt lat="49.36844" lon="-1.0765">
        <ele>13.9</ele>
        <time>2020-06-16T13:32:11Z</time>
      </trkpt>
      <trkpt lat="49.36844" lon="-1.0765">
        <ele>13.9</ele>
        <time>2020-06-16T13:32:12Z</time>
      </trkpt>
      <trkpt lat="49.36844" lon="-1.0765">
        <ele>13.9</ele>
        <time>2020-06-16T13:32:13Z</time>
      </trkpt>
      <trkpt lat="49.36844" lon="-1.07651">
        <ele>13.9</ele>
        <time>2020-06-16T13:32:14Z</time>
      </trkpt>
      <trkpt lat="49.36844" lon="-1.07651">
        <ele>13.9</ele>
        <time>2020-06-16T13:32:15Z</time>
      </trkpt>
      <trkpt lat="49.36844" lon="-1.07651">
        <ele>13.9</ele>
        <time>2020-06-16T13:32:16Z</time>
      </trkpt>
      <trkpt lat="49.36844" lon="-1.07651">
        <ele>13.9</ele>
        <time>2020-06-16T13:32:17Z</time>
      </trkpt>
      <trkpt lat="49.36843" lon="-1.07652">
        <ele>13.9</ele>
        <time>2020-06-16T13:32:18Z</time>
      </trkpt>
      <trkpt lat="49.36843" lon="-1.07652">
        <ele>13.9</ele>
        <time>2020-06-16T13:32:24Z</time>
      </trkpt>
      <trkpt lat="49.36843" lon="-1.07652">
        <ele>13.9</ele>
        <time>2020-06-16T13:32:25Z</time>
      </trkpt>
      <trkpt lat="49.36843" lon="-1.07652">
        <ele>13.9</ele>
        <time>2020-06-16T13:32:26Z</time>
      </trkpt>
      <trkpt lat="49.36843" lon="-1.07653">
        <ele>13.9</ele>
        <time>2020-06-16T13:32:27Z</time>
      </trkpt>
      <trkpt lat="49.36843" lon="-1.07653">
        <ele>13.9</ele>
        <time>2020-06-16T13:32:28Z</time>
      </trkpt>
      <trkpt lat="49.36843" lon="-1.07653">
        <ele>13.9</ele>
        <time>2020-06-16T13:32:29Z</time>
      </trkpt>
      <trkpt lat="49.36843" lon="-1.07653">
        <ele>13.9</ele>
        <time>2020-06-16T13:32:30Z</time>
      </trkpt>
      <trkpt lat="49.36843" lon="-1.07654">
        <ele>13.9</ele>
        <time>2020-06-16T13:32:31Z</time>
      </trkpt>
      <trkpt lat="49.36843" lon="-1.07654">
        <ele>13.9</ele>
        <time>2020-06-16T13:32:32Z</time>
      </trkpt>
      <trkpt lat="49.36843" lon="-1.07654">
        <ele>13.9</ele>
        <time>2020-06-16T13:32:33Z</time>
      </trkpt>
      <trkpt lat="49.36842" lon="-1.07654">
        <ele>13.9</ele>
        <time>2020-06-16T13:32:34Z</time>
      </trkpt>
      <trkpt lat="49.36842" lon="-1.07655">
        <ele>13.9</ele>
        <time>2020-06-16T13:32:35Z</time>
      </trkpt>
      <trkpt lat="49.36842" lon="-1.07655">
        <ele>13.9</ele>
        <time>2020-06-16T13:32:36Z</time>
      </trkpt>
      <trkpt lat="49.36842" lon="-1.07655">
        <ele>13.9</ele>
        <time>2020-06-16T13:32:37Z</time>
      </trkpt>
      <trkpt lat="49.36842" lon="-1.07655">
        <ele>13.9</ele>
        <time>2020-06-16T13:32:38Z</time>
      </trkpt>
      <trkpt lat="49.36842" lon="-1.07656">
        <ele>13.9</ele>
        <time>2020-06-16T13:32:39Z</time>
      </trkpt>
      <trkpt lat="49.36842" lon="-1.07656">
        <ele>13.9</ele>
        <time>2020-06-16T13:32:40Z</time>
      </trkpt>
      <trkpt lat="49.36842" lon="-1.07656">
        <ele>13.9</ele>
        <time>2020-06-16T13:32:41Z</time>
      </trkpt>
      <trkpt lat="49.36842" lon="-1.07656">
        <ele>13.9</ele>
        <time>2020-06-16T13:32:42Z</time>
      </trkpt>
      <trkpt lat="49.36842" lon="-1.07657">
        <ele>13.9</ele>
        <time>2020-06-16T13:32:43Z</time>
      </trkpt>
      <trkpt lat="49.36841" lon="-1.07657">
        <ele>13.9</ele>
        <time>2020-06-16T13:32:44Z</time>
      </trkpt>
      <trkpt lat="49.36841" lon="-1.07657">
        <ele>13.9</ele>
        <time>2020-06-16T13:32:45Z</time>
      </trkpt>
      <trkpt lat="49.36841" lon="-1.07657">
        <ele>13.9</ele>
        <time>2020-06-16T13:32:46Z</time>
      </trkpt>
      <trkpt lat="49.36841" lon="-1.07657">
        <ele>13.9</ele>
        <time>2020-06-16T13:33:33Z</time>
      </trkpt>
      <trkpt lat="49.36841" lon="-1.07658">
        <ele>13.9</ele>
        <time>2020-06-16T13:33:34Z</time>
      </trkpt>
      <trkpt lat="49.36841" lon="-1.07658">
        <ele>13.9</ele>
        <time>2020-06-16T13:33:35Z</time>
      </trkpt>
      <trkpt lat="49.3684" lon="-1.07658">
        <ele>13.9</ele>
        <time>2020-06-16T13:33:36Z</time>
      </trkpt>
      <trkpt lat="49.3684" lon="-1.07658">
        <ele>13.9</ele>
        <time>2020-06-16T13:33:37Z</time>
      </trkpt>
      <trkpt lat="49.3684" lon="-1.07659">
        <ele>13.9</ele>
        <time>2020-06-16T13:33:38Z</time>
      </trkpt>
      <trkpt lat="49.3684" lon="-1.07659">
        <ele>13.9</ele>
        <time>2020-06-16T13:33:39Z</time>
      </trkpt>
      <trkpt lat="49.3684" lon="-1.0766">
        <ele>13.9</ele>
        <time>2020-06-16T13:33:40Z</time>
      </trkpt>
      <trkpt lat="49.3684" lon="-1.0766">
        <ele>13.9</ele>
        <time>2020-06-16T13:33:41Z</time>
      </trkpt>
      <trkpt lat="49.3684" lon="-1.0766">
        <ele>13.9</ele>
        <time>2020-06-16T13:33:42Z</time>
      </trkpt>
      <trkpt lat="49.3684" lon="-1.07661">
        <ele>13.9</ele>
        <time>2020-06-16T13:33:43Z</time>
      </trkpt>
      <trkpt lat="49.3684" lon="-1.0766">
        <ele>13.9</ele>
        <time>2020-06-16T13:33:44Z</time>
      </trkpt>
      <trkpt lat="49.36839" lon="-1.0766">
        <ele>13.9</ele>
        <time>2020-06-16T13:33:45Z</time>
      </trkpt>
      <trkpt lat="49.3684" lon="-1.0766">
        <ele>13.9</ele>
        <time>2020-06-16T13:33:46Z</time>
      </trkpt>
      <trkpt lat="49.3684" lon="-1.07659">
        <ele>13.9</ele>
        <time>2020-06-16T13:33:47Z</time>
      </trkpt>
      <trkpt lat="49.3684" lon="-1.07659">
        <ele>13.9</ele>
        <time>2020-06-16T13:33:48Z</time>
      </trkpt>
      <trkpt lat="49.3684" lon="-1.07658">
        <ele>13.9</ele>
        <time>2020-06-16T13:33:49Z</time>
      </trkpt>
      <trkpt lat="49.36839" lon="-1.07671">
        <ele>13.8</ele>
        <time>2020-06-16T13:37:34Z</time>
      </trkpt>
      <trkpt lat="49.36839" lon="-1.07671">
        <ele>13.8</ele>
        <time>2020-06-16T13:37:35Z</time>
      </trkpt>
      <trkpt lat="49.3684" lon="-1.07671">
        <ele>13.8</ele>
        <time>2020-06-16T13:37:36Z</time>
      </trkpt>
      <trkpt lat="49.36839" lon="-1.0767">
        <ele>13.8</ele>
        <time>2020-06-16T13:37:37Z</time>
      </trkpt>
      <trkpt lat="49.36839" lon="-1.0767">
        <ele>13.8</ele>
        <time>2020-06-16T13:37:38Z</time>
      </trkpt>
      <trkpt lat="49.36839" lon="-1.0767">
        <ele>13.8</ele>
        <time>2020-06-16T13:37:39Z</time>
      </trkpt>
      <trkpt lat="49.36839" lon="-1.0767">
        <ele>13.8</ele>
        <time>2020-06-16T13:37:40Z</time>
      </trkpt>
      <trkpt lat="49.36839" lon="-1.07671">
        <ele>13.8</ele>
        <time>2020-06-16T13:37:41Z</time>
      </trkpt>
      <trkpt lat="49.36839" lon="-1.07671">
        <ele>13.8</ele>
        <time>2020-06-16T13:37:42Z</time>
      </trkpt>
      <trkpt lat="49.36839" lon="-1.07671">
        <ele>13.8</ele>
        <time>2020-06-16T13:37:43Z</time>
      </trkpt>
      <trkpt lat="49.36839" lon="-1.07671">
        <ele>13.8</ele>
        <time>2020-06-16T13:37:44Z</time>
      </trkpt>
      <trkpt lat="49.36839" lon="-1.07671">
        <ele>13.8</ele>
        <time>2020-06-16T13:37:45Z</time>
      </trkpt>
      <trkpt lat="49.36838" lon="-1.0767">
        <ele>13.8</ele>
        <time>2020-06-16T13:37:46Z</time>
      </trkpt>
      <trkpt lat="49.36838" lon="-1.07671">
        <ele>13.8</ele>
        <time>2020-06-16T13:37:47Z</time>
      </trkpt>
      <trkpt lat="49.36838" lon="-1.0767">
        <ele>13.8</ele>
        <time>2020-06-16T13:37:48Z</time>
      </trkpt>
      <trkpt lat="49.36839" lon="-1.07669">
        <ele>13.8</ele>
        <time>2020-06-16T13:37:49Z</time>
      </trkpt>
      <trkpt lat="49.36839" lon="-1.07668">
        <ele>13.8</ele>
        <time>2020-06-16T13:37:50Z</time>
      </trkpt>
      <trkpt lat="49.3684" lon="-1.07667">
        <ele>13.8</ele>
        <time>2020-06-16T13:37:51Z</time>
      </trkpt>
      <trkpt lat="49.36841" lon="-1.07666">
        <ele>13.9</ele>
        <time>2020-06-16T13:37:52Z</time>
      </trkpt>
      <trkpt lat="49.36841" lon="-1.07666">
        <ele>13.9</ele>
        <time>2020-06-16T13:37:53Z</time>
      </trkpt>
      <trkpt lat="49.36842" lon="-1.07665">
        <ele>13.9</ele>
        <time>2020-06-16T13:37:54Z</time>
      </trkpt>
      <trkpt lat="49.36842" lon="-1.07665">
        <ele>13.9</ele>
        <time>2020-06-16T13:37:55Z</time>
      </trkpt>
      <trkpt lat="49.36842" lon="-1.07665">
        <ele>13.9</ele>
        <time>2020-06-16T13:37:56Z</time>
      </trkpt>
      <trkpt lat="49.36842" lon="-1.07665">
        <ele>13.9</ele>
        <time>2020-06-16T13:37:57Z</time>
      </trkpt>
      <trkpt lat="49.36842" lon="-1.07665">
        <ele>13.9</ele>
        <time>2020-06-16T13:37:58Z</time>
      </trkpt>
      <trkpt lat="49.36842" lon="-1.07665">
        <ele>13.9</ele>
        <time>2020-06-16T13:37:59Z</time>
      </trkpt>
      <trkpt lat="49.36842" lon="-1.07665">
        <ele>13.9</ele>
        <time>2020-06-16T13:38:00Z</time>
      </trkpt>
      <trkpt lat="49.36842" lon="-1.07664">
        <ele>13.9</ele>
        <time>2020-06-16T13:38:01Z</time>
      </trkpt>
      <trkpt lat="49.36842" lon="-1.07664">
        <ele>13.9</ele>
        <time>2020-06-16T13:38:02Z</time>
      </trkpt>
      <trkpt lat="49.36842" lon="-1.07664">
        <ele>13.9</ele>
        <time>2020-06-16T13:38:03Z</time>
      </trkpt>
      <trkpt lat="49.36843" lon="-1.07664">
        <ele>13.9</ele>
        <time>2020-06-16T13:38:04Z</time>
      </trkpt>
      <trkpt lat="49.36844" lon="-1.07663">
        <ele>13.9</ele>
        <time>2020-06-16T13:38:05Z</time>
      </trkpt>
      <trkpt lat="49.36844" lon="-1.07663">
        <ele>13.9</ele>
        <time>2020-06-16T13:38:06Z</time>
      </trkpt>
      <trkpt lat="49.36843" lon="-1.07663">
        <ele>13.9</ele>
        <time>2020-06-16T13:38:07Z</time>
      </trkpt>
      <trkpt lat="49.36843" lon="-1.07663">
        <ele>13.9</ele>
        <time>2020-06-16T13:38:08Z</time>
      </trkpt>
      <trkpt lat="49.36843" lon="-1.07663">
        <ele>13.9</ele>
        <time>2020-06-16T13:38:09Z</time>
      </trkpt>
      <trkpt lat="49.36843" lon="-1.07664">
        <ele>13.9</ele>
        <time>2020-06-16T13:38:10Z</time>
      </trkpt>
      <trkpt lat="49.36844" lon="-1.07664">
        <ele>13.9</ele>
        <time>2020-06-16T13:38:11Z</time>
      </trkpt>
      <trkpt lat="49.36845" lon="-1.07666">
        <ele>13.8</ele>
        <time>2020-06-16T13:38:12Z</time>
      </trkpt>
      <trkpt lat="49.36846" lon="-1.07668">
        <ele>13.8</ele>
        <time>2020-06-16T13:38:13Z</time>
      </trkpt>
      <trkpt lat="49.36847" lon="-1.07669">
        <ele>13.8</ele>
        <time>2020-06-16T13:38:14Z</time>
      </trkpt>
      <trkpt lat="49.36847" lon="-1.07669">
        <ele>13.8</ele>
        <time>2020-06-16T13:38:15Z</time>
      </trkpt>
      <trkpt lat="49.36848" lon="-1.0767">
        <ele>13.8</ele>
        <time>2020-06-16T13:38:16Z</time>
      </trkpt>
      <trkpt lat="49.36848" lon="-1.07672">
        <ele>13.8</ele>
        <time>2020-06-16T13:38:17Z</time>
      </trkpt>
      <trkpt lat="49.36849" lon="-1.07672">
        <ele>13.8</ele>
        <time>2020-06-16T13:38:18Z</time>
      </trkpt>
      <trkpt lat="49.36848" lon="-1.07672">
        <ele>13.8</ele>
        <time>2020-06-16T13:38:19Z</time>
      </trkpt>
      <trkpt lat="49.36849" lon="-1.07673">
        <ele>13.8</ele>
        <time>2020-06-16T13:38:20Z</time>
      </trkpt>
      <trkpt lat="49.36849" lon="-1.07673">
        <ele>13.8</ele>
        <time>2020-06-16T13:38:21Z</time>
      </trkpt>
      <trkpt lat="49.36849" lon="-1.07674">
        <ele>13.8</ele>
        <time>2020-06-16T13:38:22Z</time>
      </trkpt>
      <trkpt lat="49.36849" lon="-1.07674">
        <ele>13.8</ele>
        <time>2020-06-16T13:38:23Z</time>
      </trkpt>
      <trkpt lat="49.36849" lon="-1.07675">
        <ele>13.7</ele>
        <time>2020-06-16T13:38:24Z</time>
      </trkpt>
      <trkpt lat="49.36849" lon="-1.07675">
        <ele>13.7</ele>
        <time>2020-06-16T13:38:25Z</time>
      </trkpt>
      <trkpt lat="49.3685" lon="-1.07677">
        <ele>13.7</ele>
        <time>2020-06-16T13:38:26Z</time>
      </trkpt>
      <trkpt lat="49.3685" lon="-1.07678">
        <ele>13.7</ele>
        <time>2020-06-16T13:38:27Z</time>
      </trkpt>
      <trkpt lat="49.36851" lon="-1.07679">
        <ele>13.7</ele>
        <time>2020-06-16T13:38:28Z</time>
      </trkpt>
      <trkpt lat="49.36843" lon="-1.07673">
        <ele>13.8</ele>
        <time>2020-06-16T13:39:44Z</time>
      </trkpt>
      <trkpt lat="49.3684" lon="-1.07671">
        <ele>13.8</ele>
        <time>2020-06-16T13:39:45Z</time>
      </trkpt>
      <trkpt lat="49.36837" lon="-1.07671">
        <ele>13.8</ele>
        <time>2020-06-16T13:39:46Z</time>
      </trkpt>
      <trkpt lat="49.36834" lon="-1.07671">
        <ele>13.8</ele>
        <time>2020-06-16T13:39:47Z</time>
      </trkpt>
      <trkpt lat="49.3683" lon="-1.0767">
        <ele>13.8</ele>
        <time>2020-06-16T13:39:48Z</time>
      </trkpt>
      <trkpt lat="49.36827" lon="-1.0767">
        <ele>13.8</ele>
        <time>2020-06-16T13:39:49Z</time>
      </trkpt>
      <trkpt lat="49.36823" lon="-1.07669">
        <ele>13.8</ele>
        <time>2020-06-16T13:39:50Z</time>
      </trkpt>
      <trkpt lat="49.36819" lon="-1.07669">
        <ele>13.8</ele>
        <time>2020-06-16T13:39:51Z</time>
      </trkpt>
      <trkpt lat="49.36816" lon="-1.07668">
        <ele>13.8</ele>
        <time>2020-06-16T13:39:52Z</time>
      </trkpt>
      <trkpt lat="49.36813" lon="-1.07668">
        <ele>13.7</ele>
        <time>2020-06-16T13:39:53Z</time>
      </trkpt>
      <trkpt lat="49.3681" lon="-1.07669">
        <ele>13.7</ele>
        <time>2020-06-16T13:39:54Z</time>
      </trkpt>
      <trkpt lat="49.36807" lon="-1.07672">
        <ele>13.7</ele>
        <time>2020-06-16T13:39:55Z</time>
      </trkpt>
      <trkpt lat="49.36807" lon="-1.07673">
        <ele>13.7</ele>
        <time>2020-06-16T13:39:56Z</time>
      </trkpt>
      <trkpt lat="49.36806" lon="-1.07678">
        <ele>13.7</ele>
        <time>2020-06-16T13:39:57Z</time>
      </trkpt>
      <trkpt lat="49.36807" lon="-1.07683">
        <ele>13.7</ele>
        <time>2020-06-16T13:39:58Z</time>
      </trkpt>
      <trkpt lat="49.36807" lon="-1.07688">
        <ele>13.7</ele>
        <time>2020-06-16T13:39:59Z</time>
      </trkpt>
      <trkpt lat="49.36809" lon="-1.07693">
        <ele>13.7</ele>
        <time>2020-06-16T13:40:00Z</time>
      </trkpt>
      <trkpt lat="49.3681" lon="-1.07698">
        <ele>13.7</ele>
        <time>2020-06-16T13:40:01Z</time>
      </trkpt>
      <trkpt lat="49.36811" lon="-1.07702">
        <ele>13.7</ele>
        <time>2020-06-16T13:40:02Z</time>
      </trkpt>
      <trkpt lat="49.36812" lon="-1.07708">
        <ele>13.7</ele>
        <time>2020-06-16T13:40:03Z</time>
      </trkpt>
      <trkpt lat="49.36812" lon="-1.0771">
        <ele>13.7</ele>
        <time>2020-06-16T13:40:04Z</time>
      </trkpt>
      <trkpt lat="49.36813" lon="-1.07716">
        <ele>13.7</ele>
        <time>2020-06-16T13:40:05Z</time>
      </trkpt>
      <trkpt lat="49.36813" lon="-1.07718">
        <ele>13.7</ele>
        <time>2020-06-16T13:40:06Z</time>
      </trkpt>
      <trkpt lat="49.36814" lon="-1.07722">
        <ele>13.7</ele>
        <time>2020-06-16T13:40:07Z</time>
      </trkpt>
      <trkpt lat="49.36816" lon="-1.07726">
        <ele>13.6</ele>
        <time>2020-06-16T13:40:08Z</time>
      </trkpt>
      <trkpt lat="49.36819" lon="-1.07729">
        <ele>13.6</ele>
        <time>2020-06-16T13:40:09Z</time>
      </trkpt>
      <trkpt lat="49.3682" lon="-1.07729">
        <ele>13.6</ele>
        <time>2020-06-16T13:40:10Z</time>
      </trkpt>
      <trkpt lat="49.36823" lon="-1.07729">
        <ele>13.6</ele>
        <time>2020-06-16T13:40:11Z</time>
      </trkpt>
      <trkpt lat="49.36824" lon="-1.07729">
        <ele>13.6</ele>
        <time>2020-06-16T13:40:12Z</time>
      </trkpt>
      <trkpt lat="49.36827" lon="-1.0773">
        <ele>13.6</ele>
        <time>2020-06-16T13:40:13Z</time>
      </trkpt>
      <trkpt lat="49.3683" lon="-1.07731">
        <ele>13.5</ele>
        <time>2020-06-16T13:40:14Z</time>
      </trkpt>
      <trkpt lat="49.36831" lon="-1.07731">
        <ele>13.5</ele>
        <time>2020-06-16T13:40:15Z</time>
      </trkpt>
      <trkpt lat="49.36833" lon="-1.07731">
        <ele>13.5</ele>
        <time>2020-06-16T13:40:16Z</time>
      </trkpt>
      <trkpt lat="49.36834" lon="-1.07731">
        <ele>13.5</ele>
        <time>2020-06-16T13:40:17Z</time>
      </trkpt>
      <trkpt lat="49.36835" lon="-1.07732">
        <ele>13.5</ele>
        <time>2020-06-16T13:40:18Z</time>
      </trkpt>
      <trkpt lat="49.36837" lon="-1.07733">
        <ele>13.5</ele>
        <time>2020-06-16T13:40:19Z</time>
      </trkpt>
      <trkpt lat="49.36839" lon="-1.07735">
        <ele>13.5</ele>
        <time>2020-06-16T13:40:20Z</time>
      </trkpt>
      <trkpt lat="49.36843" lon="-1.07737">
        <ele>13.4</ele>
        <time>2020-06-16T13:40:21Z</time>
      </trkpt>
      <trkpt lat="49.36844" lon="-1.07738">
        <ele>13.4</ele>
        <time>2020-06-16T13:40:22Z</time>
      </trkpt>
      <trkpt lat="49.36847" lon="-1.07741">
        <ele>13.3</ele>
        <time>2020-06-16T13:40:23Z</time>
      </trkpt>
      <trkpt lat="49.3685" lon="-1.07744">
        <ele>13.2</ele>
        <time>2020-06-16T13:40:24Z</time>
      </trkpt>
      <trkpt lat="49.36852" lon="-1.07748">
        <ele>13.2</ele>
        <time>2020-06-16T13:40:25Z</time>
      </trkpt>
      <trkpt lat="49.36853" lon="-1.0775">
        <ele>13.2</ele>
        <time>2020-06-16T13:40:26Z</time>
      </trkpt>
      <trkpt lat="49.36855" lon="-1.07754">
        <ele>13.1</ele>
        <time>2020-06-16T13:40:27Z</time>
      </trkpt>
      <trkpt lat="49.36856" lon="-1.0776">
        <ele>13</ele>
        <time>2020-06-16T13:40:28Z</time>
      </trkpt>
      <trkpt lat="49.36856" lon="-1.07761">
        <ele>12.9</ele>
        <time>2020-06-16T13:40:29Z</time>
      </trkpt>
      <trkpt lat="49.36856" lon="-1.07766">
        <ele>12.8</ele>
        <time>2020-06-16T13:40:30Z</time>
      </trkpt>
      <trkpt lat="49.36856" lon="-1.07768">
        <ele>12.8</ele>
        <time>2020-06-16T13:40:31Z</time>
      </trkpt>
      <trkpt lat="49.36855" lon="-1.0777">
        <ele>12.7</ele>
        <time>2020-06-16T13:40:32Z</time>
      </trkpt>
      <trkpt lat="49.36855" lon="-1.07773">
        <ele>12.7</ele>
        <time>2020-06-16T13:40:33Z</time>
      </trkpt>
      <trkpt lat="49.36855" lon="-1.07776">
        <ele>12.7</ele>
        <time>2020-06-16T13:40:34Z</time>
      </trkpt>
      <trkpt lat="49.36855" lon="-1.07778">
        <ele>12.6</ele>
        <time>2020-06-16T13:40:35Z</time>
      </trkpt>
      <trkpt lat="49.36855" lon="-1.07781">
        <ele>12.6</ele>
        <time>2020-06-16T13:40:36Z</time>
      </trkpt>
      <trkpt lat="49.36855" lon="-1.07783">
        <ele>12.5</ele>
        <time>2020-06-16T13:40:37Z</time>
      </trkpt>
      <trkpt lat="49.36856" lon="-1.07788">
        <ele>12.4</ele>
        <time>2020-06-16T13:40:38Z</time>
      </trkpt>
      <trkpt lat="49.36856" lon="-1.07789">
        <ele>12.4</ele>
        <time>2020-06-16T13:40:39Z</time>
      </trkpt>
      <trkpt lat="49.36858" lon="-1.07793">
        <ele>12.3</ele>
        <time>2020-06-16T13:40:40Z</time>
      </trkpt>
      <trkpt lat="49.36858" lon="-1.07794">
        <ele>12.3</ele>
        <time>2020-06-16T13:40:41Z</time>
      </trkpt>
      <trkpt lat="49.3686" lon="-1.07796">
        <ele>12.3</ele>
        <time>2020-06-16T13:40:42Z</time>
      </trkpt>
      <trkpt lat="49.36861" lon="-1.07798">
        <ele>12.3</ele>
        <time>2020-06-16T13:40:43Z</time>
      </trkpt>
      <trkpt lat="49.36863" lon="-1.07803">
        <ele>12.2</ele>
        <time>2020-06-16T13:40:44Z</time>
      </trkpt>
      <trkpt lat="49.36864" lon="-1.07805">
        <ele>12.1</ele>
        <time>2020-06-16T13:40:45Z</time>
      </trkpt>
      <trkpt lat="49.36865" lon="-1.07811">
        <ele>12</ele>
        <time>2020-06-16T13:40:46Z</time>
      </trkpt>
      <trkpt lat="49.36865" lon="-1.07813">
        <ele>12</ele>
        <time>2020-06-16T13:40:47Z</time>
      </trkpt>
      <trkpt lat="49.36866" lon="-1.07819">
        <ele>12</ele>
        <time>2020-06-16T13:40:48Z</time>
      </trkpt>
      <trkpt lat="49.36866" lon="-1.07823">
        <ele>11.9</ele>
        <time>2020-06-16T13:40:49Z</time>
      </trkpt>
      <trkpt lat="49.36867" lon="-1.07828">
        <ele>11.9</ele>
        <time>2020-06-16T13:40:50Z</time>
      </trkpt>
      <trkpt lat="49.36867" lon="-1.07833">
        <ele>11.9</ele>
        <time>2020-06-16T13:40:51Z</time>
      </trkpt>
      <trkpt lat="49.36867" lon="-1.07838">
        <ele>11.9</ele>
        <time>2020-06-16T13:40:52Z</time>
      </trkpt>
      <trkpt lat="49.36867" lon="-1.07842">
        <ele>11.9</ele>
        <time>2020-06-16T13:40:53Z</time>
      </trkpt>
      <trkpt lat="49.36867" lon="-1.07846">
        <ele>11.8</ele>
        <time>2020-06-16T13:40:54Z</time>
      </trkpt>
      <trkpt lat="49.36868" lon="-1.0785">
        <ele>11.8</ele>
        <time>2020-06-16T13:40:55Z</time>
      </trkpt>
      <trkpt lat="49.36868" lon="-1.07855">
        <ele>11.8</ele>
        <time>2020-06-16T13:40:56Z</time>
      </trkpt>
      <trkpt lat="49.36868" lon="-1.0786">
        <ele>11.8</ele>
        <time>2020-06-16T13:40:57Z</time>
      </trkpt>
      <trkpt lat="49.36869" lon="-1.07865">
        <ele>11.8</ele>
        <time>2020-06-16T13:40:58Z</time>
      </trkpt>
      <trkpt lat="49.36869" lon="-1.0787">
        <ele>11.7</ele>
        <time>2020-06-16T13:40:59Z</time>
      </trkpt>
      <trkpt lat="49.36869" lon="-1.07875">
        <ele>11.7</ele>
        <time>2020-06-16T13:41:00Z</time>
      </trkpt>
      <trkpt lat="49.3687" lon="-1.07879">
        <ele>11.7</ele>
        <time>2020-06-16T13:41:01Z</time>
      </trkpt>
      <trkpt lat="49.3687" lon="-1.07884">
        <ele>11.7</ele>
        <time>2020-06-16T13:41:02Z</time>
      </trkpt>
      <trkpt lat="49.3687" lon="-1.07889">
        <ele>11.7</ele>
        <time>2020-06-16T13:41:03Z</time>
      </trkpt>
      <trkpt lat="49.36871" lon="-1.07894">
        <ele>11.6</ele>
        <time>2020-06-16T13:41:04Z</time>
      </trkpt>
      <trkpt lat="49.36871" lon="-1.07898">
        <ele>11.6</ele>
        <time>2020-06-16T13:41:05Z</time>
      </trkpt>
      <trkpt lat="49.36871" lon="-1.07903">
        <ele>11.6</ele>
        <time>2020-06-16T13:41:06Z</time>
      </trkpt>
      <trkpt lat="49.36872" lon="-1.07908">
        <ele>11.6</ele>
        <time>2020-06-16T13:41:07Z</time>
      </trkpt>
      <trkpt lat="49.36872" lon="-1.07913">
        <ele>11.6</ele>
        <time>2020-06-16T13:41:08Z</time>
      </trkpt>
      <trkpt lat="49.36872" lon="-1.07918">
        <ele>11.5</ele>
        <time>2020-06-16T13:41:09Z</time>
      </trkpt>
      <trkpt lat="49.36873" lon="-1.07923">
        <ele>11.5</ele>
        <time>2020-06-16T13:41:10Z</time>
      </trkpt>
      <trkpt lat="49.36873" lon="-1.07928">
        <ele>11.5</ele>
        <time>2020-06-16T13:41:11Z</time>
      </trkpt>
      <trkpt lat="49.36874" lon="-1.07932">
        <ele>11.5</ele>
        <time>2020-06-16T13:41:12Z</time>
      </trkpt>
      <trkpt lat="49.36874" lon="-1.07937">
        <ele>11.5</ele>
        <time>2020-06-16T13:41:13Z</time>
      </trkpt>
      <trkpt lat="49.36874" lon="-1.07943">
        <ele>11.4</ele>
        <time>2020-06-16T13:41:14Z</time>
      </trkpt>
      <trkpt lat="49.36874" lon="-1.07948">
        <ele>11.4</ele>
        <time>2020-06-16T13:41:15Z</time>
      </trkpt>
      <trkpt lat="49.36874" lon="-1.07953">
        <ele>11.4</ele>
        <time>2020-06-16T13:41:16Z</time>
      </trkpt>
      <trkpt lat="49.36874" lon="-1.07957">
        <ele>11.4</ele>
        <time>2020-06-16T13:41:17Z</time>
      </trkpt>
      <trkpt lat="49.36874" lon="-1.07962">
        <ele>11.3</ele>
        <time>2020-06-16T13:41:18Z</time>
      </trkpt>
      <trkpt lat="49.36874" lon="-1.07968">
        <ele>11.3</ele>
        <time>2020-06-16T13:41:19Z</time>
      </trkpt>
      <trkpt lat="49.36874" lon="-1.07972">
        <ele>11.3</ele>
        <time>2020-06-16T13:41:20Z</time>
      </trkpt>
      <trkpt lat="49.36874" lon="-1.07978">
        <ele>11.3</ele>
        <time>2020-06-16T13:41:21Z</time>
      </trkpt>
      <trkpt lat="49.36873" lon="-1.07984">
        <ele>11.2</ele>
        <time>2020-06-16T13:41:22Z</time>
      </trkpt>
      <trkpt lat="49.36873" lon="-1.07989">
        <ele>11.2</ele>
        <time>2020-06-16T13:41:23Z</time>
      </trkpt>
      <trkpt lat="49.36873" lon="-1.07994">
        <ele>11.2</ele>
        <time>2020-06-16T13:41:24Z</time>
      </trkpt>
      <trkpt lat="49.36873" lon="-1.07999">
        <ele>11.2</ele>
        <time>2020-06-16T13:41:25Z</time>
      </trkpt>
      <trkpt lat="49.36872" lon="-1.08004">
        <ele>11.2</ele>
        <time>2020-06-16T13:41:26Z</time>
      </trkpt>
      <trkpt lat="49.36872" lon="-1.08006">
        <ele>11.2</ele>
        <time>2020-06-16T13:41:27Z</time>
      </trkpt>
      <trkpt lat="49.36872" lon="-1.08009">
        <ele>11.1</ele>
        <time>2020-06-16T13:41:28Z</time>
      </trkpt>
      <trkpt lat="49.36872" lon="-1.08011">
        <ele>11.1</ele>
        <time>2020-06-16T13:41:29Z</time>
      </trkpt>
      <trkpt lat="49.36872" lon="-1.08014">
        <ele>11.1</ele>
        <time>2020-06-16T13:41:30Z</time>
      </trkpt>
      <trkpt lat="49.36872" lon="-1.08016">
        <ele>11.1</ele>
        <time>2020-06-16T13:41:31Z</time>
      </trkpt>
      <trkpt lat="49.36871" lon="-1.08017">
        <ele>11.1</ele>
        <time>2020-06-16T13:41:32Z</time>
      </trkpt>
      <trkpt lat="49.36871" lon="-1.08017">
        <ele>11.1</ele>
        <time>2020-06-16T13:41:33Z</time>
      </trkpt>
      <trkpt lat="49.36871" lon="-1.08017">
        <ele>11.1</ele>
        <time>2020-06-16T13:41:34Z</time>
      </trkpt>
      <trkpt lat="49.36871" lon="-1.08017">
        <ele>11.1</ele>
        <time>2020-06-16T13:41:35Z</time>
      </trkpt>
      <trkpt lat="49.3687" lon="-1.08018">
        <ele>11.1</ele>
        <time>2020-06-16T13:41:36Z</time>
      </trkpt>
      <trkpt lat="49.36871" lon="-1.08018">
        <ele>11.1</ele>
        <time>2020-06-16T13:41:37Z</time>
      </trkpt>
      <trkpt lat="49.36871" lon="-1.08018">
        <ele>11.1</ele>
        <time>2020-06-16T13:41:38Z</time>
      </trkpt>
      <trkpt lat="49.3687" lon="-1.08018">
        <ele>11.1</ele>
        <time>2020-06-16T13:41:39Z</time>
      </trkpt>
      <trkpt lat="49.3687" lon="-1.08018">
        <ele>11.1</ele>
        <time>2020-06-16T13:41:40Z</time>
      </trkpt>
      <trkpt lat="49.36869" lon="-1.08018">
        <ele>11.1</ele>
        <time>2020-06-16T13:41:41Z</time>
      </trkpt>
      <trkpt lat="49.36869" lon="-1.08019">
        <ele>11.1</ele>
        <time>2020-06-16T13:41:42Z</time>
      </trkpt>
      <trkpt lat="49.36874" lon="-1.08037">
        <ele>11</ele>
        <time>2020-06-16T13:42:08Z</time>
      </trkpt>
      <trkpt lat="49.36874" lon="-1.08037">
        <ele>11</ele>
        <time>2020-06-16T13:42:09Z</time>
      </trkpt>
      <trkpt lat="49.36875" lon="-1.08039">
        <ele>11</ele>
        <time>2020-06-16T13:42:10Z</time>
      </trkpt>
      <trkpt lat="49.36877" lon="-1.08041">
        <ele>11.1</ele>
        <time>2020-06-16T13:42:11Z</time>
      </trkpt>
      <trkpt lat="49.36878" lon="-1.08042">
        <ele>11.1</ele>
        <time>2020-06-16T13:42:12Z</time>
      </trkpt>
      <trkpt lat="49.36882" lon="-1.08042">
        <ele>11.2</ele>
        <time>2020-06-16T13:42:13Z</time>
      </trkpt>
      <trkpt lat="49.36884" lon="-1.08041">
        <ele>11.2</ele>
        <time>2020-06-16T13:42:14Z</time>
      </trkpt>
      <trkpt lat="49.36887" lon="-1.08039">
        <ele>11.2</ele>
        <time>2020-06-16T13:42:15Z</time>
      </trkpt>
      <trkpt lat="49.3689" lon="-1.08037">
        <ele>11.3</ele>
        <time>2020-06-16T13:42:16Z</time>
      </trkpt>
      <trkpt lat="49.36894" lon="-1.08038">
        <ele>11.3</ele>
        <time>2020-06-16T13:42:17Z</time>
      </trkpt>
      <trkpt lat="49.36898" lon="-1.08038">
        <ele>11.3</ele>
        <time>2020-06-16T13:42:18Z</time>
      </trkpt>
      <trkpt lat="49.36902" lon="-1.0804">
        <ele>11.3</ele>
        <time>2020-06-16T13:42:19Z</time>
      </trkpt>
      <trkpt lat="49.36907" lon="-1.08039">
        <ele>11.3</ele>
        <time>2020-06-16T13:42:20Z</time>
      </trkpt>
      <trkpt lat="49.36912" lon="-1.0804">
        <ele>11.2</ele>
        <time>2020-06-16T13:42:21Z</time>
      </trkpt>
      <trkpt lat="49.36916" lon="-1.08041">
        <ele>11.2</ele>
        <time>2020-06-16T13:42:22Z</time>
      </trkpt>
      <trkpt lat="49.36921" lon="-1.08042">
        <ele>11.2</ele>
        <time>2020-06-16T13:42:23Z</time>
      </trkpt>
      <trkpt lat="49.36925" lon="-1.08043">
        <ele>11.2</ele>
        <time>2020-06-16T13:42:24Z</time>
      </trkpt>
      <trkpt lat="49.3693" lon="-1.08043">
        <ele>11.1</ele>
        <time>2020-06-16T13:42:25Z</time>
      </trkpt>
      <trkpt lat="49.36933" lon="-1.08044">
        <ele>11.1</ele>
        <time>2020-06-16T13:42:26Z</time>
      </trkpt>
      <trkpt lat="49.36938" lon="-1.08045">
        <ele>11.1</ele>
        <time>2020-06-16T13:42:27Z</time>
      </trkpt>
      <trkpt lat="49.36942" lon="-1.08046">
        <ele>11.1</ele>
        <time>2020-06-16T13:42:28Z</time>
      </trkpt>
      <trkpt lat="49.36945" lon="-1.08047">
        <ele>11.1</ele>
        <time>2020-06-16T13:42:29Z</time>
      </trkpt>
      <trkpt lat="49.36949" lon="-1.08047">
        <ele>11.1</ele>
        <time>2020-06-16T13:42:30Z</time>
      </trkpt>
      <trkpt lat="49.36953" lon="-1.08047">
        <ele>11.1</ele>
        <time>2020-06-16T13:42:31Z</time>
      </trkpt>
      <trkpt lat="49.36958" lon="-1.08046">
        <ele>11</ele>
        <time>2020-06-16T13:42:32Z</time>
      </trkpt>
      <trkpt lat="49.36963" lon="-1.08046">
        <ele>11</ele>
        <time>2020-06-16T13:42:33Z</time>
      </trkpt>
      <trkpt lat="49.36968" lon="-1.08046">
        <ele>11</ele>
        <time>2020-06-16T13:42:34Z</time>
      </trkpt>
      <trkpt lat="49.36974" lon="-1.08045">
        <ele>10.9</ele>
        <time>2020-06-16T13:42:35Z</time>
      </trkpt>
      <trkpt lat="49.36979" lon="-1.08043">
        <ele>10.9</ele>
        <time>2020-06-16T13:42:36Z</time>
      </trkpt>
      <trkpt lat="49.36985" lon="-1.08043">
        <ele>10.8</ele>
        <time>2020-06-16T13:42:37Z</time>
      </trkpt>
      <trkpt lat="49.36991" lon="-1.08042">
        <ele>10.7</ele>
        <time>2020-06-16T13:42:38Z</time>
      </trkpt>
      <trkpt lat="49.36996" lon="-1.08041">
        <ele>10.7</ele>
        <time>2020-06-16T13:42:39Z</time>
      </trkpt>
      <trkpt lat="49.37002" lon="-1.08039">
        <ele>10.6</ele>
        <time>2020-06-16T13:42:40Z</time>
      </trkpt>
      <trkpt lat="49.37008" lon="-1.08038">
        <ele>10.5</ele>
        <time>2020-06-16T13:42:41Z</time>
      </trkpt>
      <trkpt lat="49.37014" lon="-1.08038">
        <ele>10.4</ele>
        <time>2020-06-16T13:42:42Z</time>
      </trkpt>
      <trkpt lat="49.37019" lon="-1.08037">
        <ele>10.3</ele>
        <time>2020-06-16T13:42:43Z</time>
      </trkpt>
      <trkpt lat="49.37025" lon="-1.08036">
        <ele>10.2</ele>
        <time>2020-06-16T13:42:44Z</time>
      </trkpt>
      <trkpt lat="49.37031" lon="-1.08035">
        <ele>10.1</ele>
        <time>2020-06-16T13:42:45Z</time>
      </trkpt>
      <trkpt lat="49.37037" lon="-1.08035">
        <ele>10</ele>
        <time>2020-06-16T13:42:46Z</time>
      </trkpt>
      <trkpt lat="49.37044" lon="-1.08033">
        <ele>10</ele>
        <time>2020-06-16T13:42:47Z</time>
      </trkpt>
      <trkpt lat="49.3705" lon="-1.08033">
        <ele>9.9</ele>
        <time>2020-06-16T13:42:48Z</time>
      </trkpt>
      <trkpt lat="49.37057" lon="-1.08034">
        <ele>9.9</ele>
        <time>2020-06-16T13:42:49Z</time>
      </trkpt>
      <trkpt lat="49.37063" lon="-1.08034">
        <ele>9.9</ele>
        <time>2020-06-16T13:42:50Z</time>
      </trkpt>
      <trkpt lat="49.3707" lon="-1.08035">
        <ele>9.9</ele>
        <time>2020-06-16T13:42:51Z</time>
      </trkpt>
      <trkpt lat="49.37076" lon="-1.08036">
        <ele>9.9</ele>
        <time>2020-06-16T13:42:52Z</time>
      </trkpt>
      <trkpt lat="49.37083" lon="-1.08036">
        <ele>9.9</ele>
        <time>2020-06-16T13:42:53Z</time>
      </trkpt>
      <trkpt lat="49.37089" lon="-1.08037">
        <ele>9.8</ele>
        <time>2020-06-16T13:42:54Z</time>
      </trkpt>
      <trkpt lat="49.37095" lon="-1.08037">
        <ele>9.8</ele>
        <time>2020-06-16T13:42:55Z</time>
      </trkpt>
      <trkpt lat="49.37101" lon="-1.08037">
        <ele>9.7</ele>
        <time>2020-06-16T13:42:56Z</time>
      </trkpt>
      <trkpt lat="49.37107" lon="-1.08036">
        <ele>9.7</ele>
        <time>2020-06-16T13:42:57Z</time>
      </trkpt>
      <trkpt lat="49.37115" lon="-1.08036">
        <ele>9.6</ele>
        <time>2020-06-16T13:42:58Z</time>
      </trkpt>
      <trkpt lat="49.37121" lon="-1.08037">
        <ele>9.5</ele>
        <time>2020-06-16T13:42:59Z</time>
      </trkpt>
      <trkpt lat="49.37127" lon="-1.08038">
        <ele>9.4</ele>
        <time>2020-06-16T13:43:00Z</time>
      </trkpt>
      <trkpt lat="49.37133" lon="-1.08038">
        <ele>9.4</ele>
        <time>2020-06-16T13:43:01Z</time>
      </trkpt>
      <trkpt lat="49.3714" lon="-1.08039">
        <ele>9.3</ele>
        <time>2020-06-16T13:43:02Z</time>
      </trkpt>
      <trkpt lat="49.37147" lon="-1.08038">
        <ele>9.3</ele>
        <time>2020-06-16T13:43:03Z</time>
      </trkpt>
      <trkpt lat="49.37153" lon="-1.08038">
        <ele>9.2</ele>
        <time>2020-06-16T13:43:04Z</time>
      </trkpt>
      <trkpt lat="49.37159" lon="-1.08037">
        <ele>9.1</ele>
        <time>2020-06-16T13:43:05Z</time>
      </trkpt>
      <trkpt lat="49.37166" lon="-1.08037">
        <ele>9.1</ele>
        <time>2020-06-16T13:43:06Z</time>
      </trkpt>
      <trkpt lat="49.37172" lon="-1.08038">
        <ele>9.1</ele>
        <time>2020-06-16T13:43:07Z</time>
      </trkpt>
      <trkpt lat="49.37178" lon="-1.08038">
        <ele>9</ele>
        <time>2020-06-16T13:43:08Z</time>
      </trkpt>
      <trkpt lat="49.37184" lon="-1.08039">
        <ele>9</ele>
        <time>2020-06-16T13:43:09Z</time>
      </trkpt>
      <trkpt lat="49.3719" lon="-1.08042">
        <ele>9.1</ele>
        <time>2020-06-16T13:43:10Z</time>
      </trkpt>
      <trkpt lat="49.37194" lon="-1.08045">
        <ele>9.1</ele>
        <time>2020-06-16T13:43:11Z</time>
      </trkpt>
      <trkpt lat="49.37197" lon="-1.08051">
        <ele>9.1</ele>
        <time>2020-06-16T13:43:12Z</time>
      </trkpt>
      <trkpt lat="49.37199" lon="-1.08058">
        <ele>9.1</ele>
        <time>2020-06-16T13:43:13Z</time>
      </trkpt>
      <trkpt lat="49.372" lon="-1.08064">
        <ele>9</ele>
        <time>2020-06-16T13:43:14Z</time>
      </trkpt>
      <trkpt lat="49.37201" lon="-1.08073">
        <ele>8.9</ele>
        <time>2020-06-16T13:43:15Z</time>
      </trkpt>
      <trkpt lat="49.37203" lon="-1.08081">
        <ele>8.8</ele>
        <time>2020-06-16T13:43:16Z</time>
      </trkpt>
      <trkpt lat="49.37206" lon="-1.08087">
        <ele>8.7</ele>
        <time>2020-06-16T13:43:17Z</time>
      </trkpt>
      <trkpt lat="49.3721" lon="-1.08093">
        <ele>8.7</ele>
        <time>2020-06-16T13:43:18Z</time>
      </trkpt>
      <trkpt lat="49.37215" lon="-1.08096">
        <ele>8.5</ele>
        <time>2020-06-16T13:43:19Z</time>
      </trkpt>
      <trkpt lat="49.3722" lon="-1.08099">
        <ele>8.4</ele>
        <time>2020-06-16T13:43:20Z</time>
      </trkpt>
      <trkpt lat="49.37224" lon="-1.08101">
        <ele>8.3</ele>
        <time>2020-06-16T13:43:21Z</time>
      </trkpt>
      <trkpt lat="49.37229" lon="-1.08103">
        <ele>8.1</ele>
        <time>2020-06-16T13:43:22Z</time>
      </trkpt>
      <trkpt lat="49.37235" lon="-1.08104">
        <ele>8</ele>
        <time>2020-06-16T13:43:23Z</time>
      </trkpt>
      <trkpt lat="49.37241" lon="-1.08105">
        <ele>7.8</ele>
        <time>2020-06-16T13:43:24Z</time>
      </trkpt>
      <trkpt lat="49.37246" lon="-1.08107">
        <ele>7.7</ele>
        <time>2020-06-16T13:43:25Z</time>
      </trkpt>
      <trkpt lat="49.37252" lon="-1.08108">
        <ele>7.6</ele>
        <time>2020-06-16T13:43:26Z</time>
      </trkpt>
      <trkpt lat="49.37258" lon="-1.08108">
        <ele>7.4</ele>
        <time>2020-06-16T13:43:27Z</time>
      </trkpt>
      <trkpt lat="49.37264" lon="-1.08108">
        <ele>7.3</ele>
        <time>2020-06-16T13:43:28Z</time>
      </trkpt>
      <trkpt lat="49.37271" lon="-1.08109">
        <ele>7.1</ele>
        <time>2020-06-16T13:43:29Z</time>
      </trkpt>
      <trkpt lat="49.37278" lon="-1.08109">
        <ele>7</ele>
        <time>2020-06-16T13:43:30Z</time>
      </trkpt>
      <trkpt lat="49.37284" lon="-1.0811">
        <ele>6.9</ele>
        <time>2020-06-16T13:43:31Z</time>
      </trkpt>
      <trkpt lat="49.37288" lon="-1.08111">
        <ele>6.9</ele>
        <time>2020-06-16T13:43:32Z</time>
      </trkpt>
      <trkpt lat="49.37293" lon="-1.08111">
        <ele>6.7</ele>
        <time>2020-06-16T13:43:33Z</time>
      </trkpt>
      <trkpt lat="49.373" lon="-1.08111">
        <ele>6.5</ele>
        <time>2020-06-16T13:43:34Z</time>
      </trkpt>
      <trkpt lat="49.37307" lon="-1.0811">
        <ele>6.3</ele>
        <time>2020-06-16T13:43:35Z</time>
      </trkpt>
      <trkpt lat="49.37313" lon="-1.08109">
        <ele>6.2</ele>
        <time>2020-06-16T13:43:36Z</time>
      </trkpt>
      <trkpt lat="49.37319" lon="-1.0811">
        <ele>6.1</ele>
        <time>2020-06-16T13:43:37Z</time>
      </trkpt>
      <trkpt lat="49.37325" lon="-1.0811">
        <ele>6</ele>
        <time>2020-06-16T13:43:38Z</time>
      </trkpt>
      <trkpt lat="49.37331" lon="-1.08111">
        <ele>5.9</ele>
        <time>2020-06-16T13:43:39Z</time>
      </trkpt>
      <trkpt lat="49.37339" lon="-1.08111">
        <ele>5.8</ele>
        <time>2020-06-16T13:43:40Z</time>
      </trkpt>
      <trkpt lat="49.37346" lon="-1.08112">
        <ele>5.7</ele>
        <time>2020-06-16T13:43:41Z</time>
      </trkpt>
      <trkpt lat="49.37353" lon="-1.08112">
        <ele>5.6</ele>
        <time>2020-06-16T13:43:42Z</time>
      </trkpt>
      <trkpt lat="49.3736" lon="-1.08113">
        <ele>5.4</ele>
        <time>2020-06-16T13:43:43Z</time>
      </trkpt>
      <trkpt lat="49.37367" lon="-1.08114">
        <ele>5.2</ele>
        <time>2020-06-16T13:43:44Z</time>
      </trkpt>
      <trkpt lat="49.37374" lon="-1.08115">
        <ele>5.1</ele>
        <time>2020-06-16T13:43:45Z</time>
      </trkpt>
      <trkpt lat="49.37382" lon="-1.08116">
        <ele>5</ele>
        <time>2020-06-16T13:43:46Z</time>
      </trkpt>
      <trkpt lat="49.37388" lon="-1.08118">
        <ele>4.9</ele>
        <time>2020-06-16T13:43:47Z</time>
      </trkpt>
      <trkpt lat="49.37395" lon="-1.08122">
        <ele>4.8</ele>
        <time>2020-06-16T13:43:48Z</time>
      </trkpt>
      <trkpt lat="49.37401" lon="-1.08126">
        <ele>4.7</ele>
        <time>2020-06-16T13:43:49Z</time>
      </trkpt>
      <trkpt lat="49.37408" lon="-1.08131">
        <ele>4.6</ele>
        <time>2020-06-16T13:43:50Z</time>
      </trkpt>
      <trkpt lat="49.37415" lon="-1.08136">
        <ele>4.4</ele>
        <time>2020-06-16T13:43:51Z</time>
      </trkpt>
      <trkpt lat="49.37421" lon="-1.08141">
        <ele>4.2</ele>
        <time>2020-06-16T13:43:52Z</time>
      </trkpt>
      <trkpt lat="49.37427" lon="-1.08146">
        <ele>4.1</ele>
        <time>2020-06-16T13:43:53Z</time>
      </trkpt>
      <trkpt lat="49.37433" lon="-1.08152">
        <ele>4</ele>
        <time>2020-06-16T13:43:54Z</time>
      </trkpt>
      <trkpt lat="49.37439" lon="-1.08156">
        <ele>3.9</ele>
        <time>2020-06-16T13:43:55Z</time>
      </trkpt>
      <trkpt lat="49.37445" lon="-1.08161">
        <ele>3.8</ele>
        <time>2020-06-16T13:43:56Z</time>
      </trkpt>
      <trkpt lat="49.37451" lon="-1.08167">
        <ele>3.8</ele>
        <time>2020-06-16T13:43:57Z</time>
      </trkpt>
      <trkpt lat="49.37457" lon="-1.08171">
        <ele>3.7</ele>
        <time>2020-06-16T13:43:58Z</time>
      </trkpt>
      <trkpt lat="49.37463" lon="-1.08175">
        <ele>3.7</ele>
        <time>2020-06-16T13:43:59Z</time>
      </trkpt>
      <trkpt lat="49.3747" lon="-1.08179">
        <ele>3.7</ele>
        <time>2020-06-16T13:44:00Z</time>
      </trkpt>
      <trkpt lat="49.37478" lon="-1.08182">
        <ele>3.8</ele>
        <time>2020-06-16T13:44:01Z</time>
      </trkpt>
      <trkpt lat="49.37486" lon="-1.08182">
        <ele>3.8</ele>
        <time>2020-06-16T13:44:02Z</time>
      </trkpt>
      <trkpt lat="49.37493" lon="-1.08182">
        <ele>3.8</ele>
        <time>2020-06-16T13:44:03Z</time>
      </trkpt>
      <trkpt lat="49.375" lon="-1.08181">
        <ele>3.9</ele>
        <time>2020-06-16T13:44:04Z</time>
      </trkpt>
      <trkpt lat="49.37506" lon="-1.08182">
        <ele>3.9</ele>
        <time>2020-06-16T13:44:05Z</time>
      </trkpt>
      <trkpt lat="49.37513" lon="-1.08183">
        <ele>3.9</ele>
        <time>2020-06-16T13:44:06Z</time>
      </trkpt>
      <trkpt lat="49.3752" lon="-1.08183">
        <ele>3.9</ele>
        <time>2020-06-16T13:44:07Z</time>
      </trkpt>
      <trkpt lat="49.37526" lon="-1.08184">
        <ele>4</ele>
        <time>2020-06-16T13:44:08Z</time>
      </trkpt>
      <trkpt lat="49.37533" lon="-1.08185">
        <ele>4</ele>
        <time>2020-06-16T13:44:09Z</time>
      </trkpt>
      <trkpt lat="49.37539" lon="-1.08186">
        <ele>4</ele>
        <time>2020-06-16T13:44:10Z</time>
      </trkpt>
      <trkpt lat="49.37545" lon="-1.08187">
        <ele>4</ele>
        <time>2020-06-16T13:44:11Z</time>
      </trkpt>
      <trkpt lat="49.37551" lon="-1.08188">
        <ele>4</ele>
        <time>2020-06-16T13:44:12Z</time>
      </trkpt>
      <trkpt lat="49.37557" lon="-1.08188">
        <ele>4</ele>
        <time>2020-06-16T13:44:13Z</time>
      </trkpt>
      <trkpt lat="49.37563" lon="-1.08189">
        <ele>3.9</ele>
        <time>2020-06-16T13:44:14Z</time>
      </trkpt>
      <trkpt lat="49.3757" lon="-1.0819">
        <ele>3.9</ele>
        <time>2020-06-16T13:44:15Z</time>
      </trkpt>
      <trkpt lat="49.37576" lon="-1.0819">
        <ele>3.8</ele>
        <time>2020-06-16T13:44:16Z</time>
      </trkpt>
      <trkpt lat="49.37583" lon="-1.0819">
        <ele>3.8</ele>
        <time>2020-06-16T13:44:17Z</time>
      </trkpt>
      <trkpt lat="49.3759" lon="-1.08189">
        <ele>3.8</ele>
        <time>2020-06-16T13:44:18Z</time>
      </trkpt>
      <trkpt lat="49.37597" lon="-1.0819">
        <ele>3.9</ele>
        <time>2020-06-16T13:44:19Z</time>
      </trkpt>
      <trkpt lat="49.37603" lon="-1.08191">
        <ele>3.9</ele>
        <time>2020-06-16T13:44:20Z</time>
      </trkpt>
      <trkpt lat="49.3761" lon="-1.08192">
        <ele>4</ele>
        <time>2020-06-16T13:44:21Z</time>
      </trkpt>
      <trkpt lat="49.37617" lon="-1.08193">
        <ele>4.1</ele>
        <time>2020-06-16T13:44:22Z</time>
      </trkpt>
      <trkpt lat="49.37624" lon="-1.08195">
        <ele>4.2</ele>
        <time>2020-06-16T13:44:23Z</time>
      </trkpt>
      <trkpt lat="49.37632" lon="-1.08198">
        <ele>4.3</ele>
        <time>2020-06-16T13:44:24Z</time>
      </trkpt>
      <trkpt lat="49.37638" lon="-1.082">
        <ele>4.3</ele>
        <time>2020-06-16T13:44:25Z</time>
      </trkpt>
      <trkpt lat="49.37644" lon="-1.08203">
        <ele>4.3</ele>
        <time>2020-06-16T13:44:26Z</time>
      </trkpt>
      <trkpt lat="49.37651" lon="-1.08205">
        <ele>4.3</ele>
        <time>2020-06-16T13:44:27Z</time>
      </trkpt>
      <trkpt lat="49.37658" lon="-1.08208">
        <ele>4.3</ele>
        <time>2020-06-16T13:44:28Z</time>
      </trkpt>
      <trkpt lat="49.37664" lon="-1.08211">
        <ele>4.4</ele>
        <time>2020-06-16T13:44:29Z</time>
      </trkpt>
      <trkpt lat="49.3767" lon="-1.08216">
        <ele>4.5</ele>
        <time>2020-06-16T13:44:30Z</time>
      </trkpt>
      <trkpt lat="49.37675" lon="-1.08222">
        <ele>4.5</ele>
        <time>2020-06-16T13:44:31Z</time>
      </trkpt>
      <trkpt lat="49.37679" lon="-1.08227">
        <ele>4.5</ele>
        <time>2020-06-16T13:44:32Z</time>
      </trkpt>
      <trkpt lat="49.37684" lon="-1.08232">
        <ele>4.5</ele>
        <time>2020-06-16T13:44:33Z</time>
      </trkpt>
      <trkpt lat="49.37689" lon="-1.08239">
        <ele>4.5</ele>
        <time>2020-06-16T13:44:34Z</time>
      </trkpt>
      <trkpt lat="49.37693" lon="-1.08246">
        <ele>4.6</ele>
        <time>2020-06-16T13:44:35Z</time>
      </trkpt>
      <trkpt lat="49.37697" lon="-1.08255">
        <ele>4.7</ele>
        <time>2020-06-16T13:44:36Z</time>
      </trkpt>
      <trkpt lat="49.37702" lon="-1.08262">
        <ele>4.7</ele>
        <time>2020-06-16T13:44:37Z</time>
      </trkpt>
      <trkpt lat="49.37706" lon="-1.0827">
        <ele>4.7</ele>
        <time>2020-06-16T13:44:38Z</time>
      </trkpt>
      <trkpt lat="49.3771" lon="-1.08278">
        <ele>4.7</ele>
        <time>2020-06-16T13:44:39Z</time>
      </trkpt>
      <trkpt lat="49.37715" lon="-1.08286">
        <ele>4.6</ele>
        <time>2020-06-16T13:44:40Z</time>
      </trkpt>
      <trkpt lat="49.37719" lon="-1.08293">
        <ele>4.2</ele>
        <time>2020-06-16T13:44:41Z</time>
      </trkpt>
      <trkpt lat="49.37724" lon="-1.08301">
        <ele>3.4</ele>
        <time>2020-06-16T13:44:42Z</time>
      </trkpt>
      <trkpt lat="49.37728" lon="-1.08308">
        <ele>2.4</ele>
        <time>2020-06-16T13:44:43Z</time>
      </trkpt>
      <trkpt lat="49.37733" lon="-1.08316">
        <ele>2.1</ele>
        <time>2020-06-16T13:44:44Z</time>
      </trkpt>
      <trkpt lat="49.37737" lon="-1.08324">
        <ele>2</ele>
        <time>2020-06-16T13:44:45Z</time>
      </trkpt>
      <trkpt lat="49.37741" lon="-1.08332">
        <ele>1.9</ele>
        <time>2020-06-16T13:44:46Z</time>
      </trkpt>
      <trkpt lat="49.37745" lon="-1.08339">
        <ele>1.8</ele>
        <time>2020-06-16T13:44:47Z</time>
      </trkpt>
      <trkpt lat="49.37749" lon="-1.08346">
        <ele>1.7</ele>
        <time>2020-06-16T13:44:48Z</time>
      </trkpt>
      <trkpt lat="49.37753" lon="-1.08353">
        <ele>1.7</ele>
        <time>2020-06-16T13:44:49Z</time>
      </trkpt>
      <trkpt lat="49.37757" lon="-1.0836">
        <ele>1.6</ele>
        <time>2020-06-16T13:44:50Z</time>
      </trkpt>
      <trkpt lat="49.37761" lon="-1.08367">
        <ele>1.5</ele>
        <time>2020-06-16T13:44:51Z</time>
      </trkpt>
      <trkpt lat="49.37764" lon="-1.08374">
        <ele>1.5</ele>
        <time>2020-06-16T13:44:52Z</time>
      </trkpt>
      <trkpt lat="49.37769" lon="-1.08382">
        <ele>1.4</ele>
        <time>2020-06-16T13:44:53Z</time>
      </trkpt>
      <trkpt lat="49.37773" lon="-1.08389">
        <ele>1.4</ele>
        <time>2020-06-16T13:44:54Z</time>
      </trkpt>
      <trkpt lat="49.37777" lon="-1.08397">
        <ele>1.4</ele>
        <time>2020-06-16T13:44:55Z</time>
      </trkpt>
      <trkpt lat="49.37782" lon="-1.08405">
        <ele>1.4</ele>
        <time>2020-06-16T13:44:56Z</time>
      </trkpt>
      <trkpt lat="49.37787" lon="-1.08413">
        <ele>1.4</ele>
        <time>2020-06-16T13:44:57Z</time>
      </trkpt>
      <trkpt lat="49.37792" lon="-1.0842">
        <ele>1.4</ele>
        <time>2020-06-16T13:44:58Z</time>
      </trkpt>
      <trkpt lat="49.37797" lon="-1.08428">
        <ele>1.4</ele>
        <time>2020-06-16T13:44:59Z</time>
      </trkpt>
      <trkpt lat="49.37802" lon="-1.08435">
        <ele>1.4</ele>
        <time>2020-06-16T13:45:00Z</time>
      </trkpt>
      <trkpt lat="49.37806" lon="-1.08442">
        <ele>1.4</ele>
        <time>2020-06-16T13:45:01Z</time>
      </trkpt>
      <trkpt lat="49.37812" lon="-1.08449">
        <ele>1.4</ele>
        <time>2020-06-16T13:45:02Z</time>
      </trkpt>
      <trkpt lat="49.37818" lon="-1.08455">
        <ele>1.4</ele>
        <time>2020-06-16T13:45:03Z</time>
      </trkpt>
      <trkpt lat="49.37823" lon="-1.08463">
        <ele>1.4</ele>
        <time>2020-06-16T13:45:04Z</time>
      </trkpt>
      <trkpt lat="49.37828" lon="-1.0847">
        <ele>1.4</ele>
        <time>2020-06-16T13:45:05Z</time>
      </trkpt>
      <trkpt lat="49.37833" lon="-1.08475">
        <ele>1.3</ele>
        <time>2020-06-16T13:45:06Z</time>
      </trkpt>
      <trkpt lat="49.37838" lon="-1.08482">
        <ele>1.3</ele>
        <time>2020-06-16T13:45:07Z</time>
      </trkpt>
      <trkpt lat="49.37844" lon="-1.08488">
        <ele>1.3</ele>
        <time>2020-06-16T13:45:08Z</time>
      </trkpt>
      <trkpt lat="49.3785" lon="-1.08495">
        <ele>1.2</ele>
        <time>2020-06-16T13:45:09Z</time>
      </trkpt>
      <trkpt lat="49.37856" lon="-1.08501">
        <ele>1.2</ele>
        <time>2020-06-16T13:45:10Z</time>
      </trkpt>
      <trkpt lat="49.37861" lon="-1.08508">
        <ele>1.2</ele>
        <time>2020-06-16T13:45:11Z</time>
      </trkpt>
      <trkpt lat="49.37868" lon="-1.08516">
        <ele>1.2</ele>
        <time>2020-06-16T13:45:12Z</time>
      </trkpt>
      <trkpt lat="49.37874" lon="-1.08523">
        <ele>1.2</ele>
        <time>2020-06-16T13:45:13Z</time>
      </trkpt>
      <trkpt lat="49.37878" lon="-1.0853">
        <ele>1.2</ele>
        <time>2020-06-16T13:45:14Z</time>
      </trkpt>
      <trkpt lat="49.37883" lon="-1.08536">
        <ele>1.2</ele>
        <time>2020-06-16T13:45:15Z</time>
      </trkpt>
      <trkpt lat="49.37888" lon="-1.08543">
        <ele>1.2</ele>
        <time>2020-06-16T13:45:16Z</time>
      </trkpt>
      <trkpt lat="49.37893" lon="-1.08549">
        <ele>1.2</ele>
        <time>2020-06-16T13:45:17Z</time>
      </trkpt>
      <trkpt lat="49.37898" lon="-1.08556">
        <ele>1.2</ele>
        <time>2020-06-16T13:45:18Z</time>
      </trkpt>
      <trkpt lat="49.37903" lon="-1.08563">
        <ele>1.2</ele>
        <time>2020-06-16T13:45:19Z</time>
      </trkpt>
      <trkpt lat="49.37909" lon="-1.08569">
        <ele>1.3</ele>
        <time>2020-06-16T13:45:20Z</time>
      </trkpt>
      <trkpt lat="49.37914" lon="-1.08577">
        <ele>1.3</ele>
        <time>2020-06-16T13:45:21Z</time>
      </trkpt>
      <trkpt lat="49.37919" lon="-1.08583">
        <ele>1.3</ele>
        <time>2020-06-16T13:45:22Z</time>
      </trkpt>
      <trkpt lat="49.37924" lon="-1.08589">
        <ele>1.3</ele>
        <time>2020-06-16T13:45:23Z</time>
      </trkpt>
      <trkpt lat="49.37928" lon="-1.08594">
        <ele>1.3</ele>
        <time>2020-06-16T13:45:24Z</time>
      </trkpt>
      <trkpt lat="49.37932" lon="-1.086">
        <ele>1.3</ele>
        <time>2020-06-16T13:45:25Z</time>
      </trkpt>
      <trkpt lat="49.37936" lon="-1.08606">
        <ele>1.3</ele>
        <time>2020-06-16T13:45:26Z</time>
      </trkpt>
      <trkpt lat="49.3794" lon="-1.08611">
        <ele>1.3</ele>
        <time>2020-06-16T13:45:27Z</time>
      </trkpt>
      <trkpt lat="49.37944" lon="-1.08618">
        <ele>1.3</ele>
        <time>2020-06-16T13:45:28Z</time>
      </trkpt>
      <trkpt lat="49.37949" lon="-1.08625">
        <ele>1.4</ele>
        <time>2020-06-16T13:45:29Z</time>
      </trkpt>
      <trkpt lat="49.37953" lon="-1.08633">
        <ele>1.4</ele>
        <time>2020-06-16T13:45:30Z</time>
      </trkpt>
      <trkpt lat="49.37957" lon="-1.0864">
        <ele>1.4</ele>
        <time>2020-06-16T13:45:31Z</time>
      </trkpt>
      <trkpt lat="49.3796" lon="-1.08649">
        <ele>1.5</ele>
        <time>2020-06-16T13:45:32Z</time>
      </trkpt>
      <trkpt lat="49.37963" lon="-1.08657">
        <ele>1.5</ele>
        <time>2020-06-16T13:45:33Z</time>
      </trkpt>
      <trkpt lat="49.37966" lon="-1.08665">
        <ele>1.5</ele>
        <time>2020-06-16T13:45:34Z</time>
      </trkpt>
      <trkpt lat="49.37969" lon="-1.08671">
        <ele>1.6</ele>
        <time>2020-06-16T13:45:35Z</time>
      </trkpt>
      <trkpt lat="49.37973" lon="-1.08678">
        <ele>1.7</ele>
        <time>2020-06-16T13:45:36Z</time>
      </trkpt>
      <trkpt lat="49.37976" lon="-1.08684">
        <ele>1.8</ele>
        <time>2020-06-16T13:45:37Z</time>
      </trkpt>
      <trkpt lat="49.3798" lon="-1.08691">
        <ele>2</ele>
        <time>2020-06-16T13:45:38Z</time>
      </trkpt>
      <trkpt lat="49.37983" lon="-1.08697">
        <ele>1.9</ele>
        <time>2020-06-16T13:45:39Z</time>
      </trkpt>
      <trkpt lat="49.37986" lon="-1.08703">
        <ele>1.9</ele>
        <time>2020-06-16T13:45:40Z</time>
      </trkpt>
      <trkpt lat="49.3799" lon="-1.0871">
        <ele>1.8</ele>
        <time>2020-06-16T13:45:41Z</time>
      </trkpt>
      <trkpt lat="49.37993" lon="-1.08717">
        <ele>1.8</ele>
        <time>2020-06-16T13:45:42Z</time>
      </trkpt>
      <trkpt lat="49.37996" lon="-1.08723">
        <ele>1.7</ele>
        <time>2020-06-16T13:45:43Z</time>
      </trkpt>
      <trkpt lat="49.38" lon="-1.0873">
        <ele>1.7</ele>
        <time>2020-06-16T13:45:44Z</time>
      </trkpt>
      <trkpt lat="49.38004" lon="-1.08737">
        <ele>1.7</ele>
        <time>2020-06-16T13:45:45Z</time>
      </trkpt>
      <trkpt lat="49.38008" lon="-1.08745">
        <ele>1.6</ele>
        <time>2020-06-16T13:45:46Z</time>
      </trkpt>
      <trkpt lat="49.38012" lon="-1.08752">
        <ele>1.6</ele>
        <time>2020-06-16T13:45:47Z</time>
      </trkpt>
      <trkpt lat="49.38016" lon="-1.08759">
        <ele>1.6</ele>
        <time>2020-06-16T13:45:48Z</time>
      </trkpt>
      <trkpt lat="49.38019" lon="-1.08767">
        <ele>1.7</ele>
        <time>2020-06-16T13:45:49Z</time>
      </trkpt>
      <trkpt lat="49.38023" lon="-1.08774">
        <ele>1.7</ele>
        <time>2020-06-16T13:45:50Z</time>
      </trkpt>
      <trkpt lat="49.38027" lon="-1.08781">
        <ele>1.7</ele>
        <time>2020-06-16T13:45:51Z</time>
      </trkpt>
      <trkpt lat="49.3803" lon="-1.08787">
        <ele>1.6</ele>
        <time>2020-06-16T13:45:52Z</time>
      </trkpt>
      <trkpt lat="49.38034" lon="-1.08794">
        <ele>1.6</ele>
        <time>2020-06-16T13:45:53Z</time>
      </trkpt>
      <trkpt lat="49.38037" lon="-1.088">
        <ele>1.6</ele>
        <time>2020-06-16T13:45:54Z</time>
      </trkpt>
      <trkpt lat="49.38041" lon="-1.08807">
        <ele>1.6</ele>
        <time>2020-06-16T13:45:55Z</time>
      </trkpt>
      <trkpt lat="49.38045" lon="-1.08814">
        <ele>1.6</ele>
        <time>2020-06-16T13:45:56Z</time>
      </trkpt>
      <trkpt lat="49.38048" lon="-1.0882">
        <ele>1.6</ele>
        <time>2020-06-16T13:45:57Z</time>
      </trkpt>
      <trkpt lat="49.38051" lon="-1.08826">
        <ele>1.6</ele>
        <time>2020-06-16T13:45:58Z</time>
      </trkpt>
      <trkpt lat="49.38055" lon="-1.08833">
        <ele>1.6</ele>
        <time>2020-06-16T13:45:59Z</time>
      </trkpt>
      <trkpt lat="49.38058" lon="-1.0884">
        <ele>1.6</ele>
        <time>2020-06-16T13:46:00Z</time>
      </trkpt>
      <trkpt lat="49.38061" lon="-1.08846">
        <ele>1.6</ele>
        <time>2020-06-16T13:46:01Z</time>
      </trkpt>
      <trkpt lat="49.38065" lon="-1.08852">
        <ele>1.6</ele>
        <time>2020-06-16T13:46:02Z</time>
      </trkpt>
      <trkpt lat="49.38068" lon="-1.08859">
        <ele>1.7</ele>
        <time>2020-06-16T13:46:03Z</time>
      </trkpt>
      <trkpt lat="49.3807" lon="-1.08864">
        <ele>1.7</ele>
        <time>2020-06-16T13:46:04Z</time>
      </trkpt>
      <trkpt lat="49.38072" lon="-1.0887">
        <ele>1.7</ele>
        <time>2020-06-16T13:46:05Z</time>
      </trkpt>
      <trkpt lat="49.38074" lon="-1.08875">
        <ele>1.8</ele>
        <time>2020-06-16T13:46:06Z</time>
      </trkpt>
      <trkpt lat="49.38077" lon="-1.08881">
        <ele>1.8</ele>
        <time>2020-06-16T13:46:07Z</time>
      </trkpt>
      <trkpt lat="49.3808" lon="-1.08885">
        <ele>1.8</ele>
        <time>2020-06-16T13:46:08Z</time>
      </trkpt>
      <trkpt lat="49.38082" lon="-1.08891">
        <ele>1.9</ele>
        <time>2020-06-16T13:46:09Z</time>
      </trkpt>
      <trkpt lat="49.38084" lon="-1.08897">
        <ele>1.9</ele>
        <time>2020-06-16T13:46:10Z</time>
      </trkpt>
      <trkpt lat="49.38087" lon="-1.08902">
        <ele>1.9</ele>
        <time>2020-06-16T13:46:11Z</time>
      </trkpt>
      <trkpt lat="49.38089" lon="-1.08907">
        <ele>2</ele>
        <time>2020-06-16T13:46:12Z</time>
      </trkpt>
      <trkpt lat="49.38092" lon="-1.08912">
        <ele>2</ele>
        <time>2020-06-16T13:46:13Z</time>
      </trkpt>
      <trkpt lat="49.38095" lon="-1.08918">
        <ele>2.1</ele>
        <time>2020-06-16T13:46:14Z</time>
      </trkpt>
      <trkpt lat="49.38098" lon="-1.08923">
        <ele>2.2</ele>
        <time>2020-06-16T13:46:15Z</time>
      </trkpt>
      <trkpt lat="49.38101" lon="-1.08929">
        <ele>2.3</ele>
        <time>2020-06-16T13:46:16Z</time>
      </trkpt>
      <trkpt lat="49.38104" lon="-1.08934">
        <ele>2.4</ele>
        <time>2020-06-16T13:46:17Z</time>
      </trkpt>
      <trkpt lat="49.38107" lon="-1.08939">
        <ele>2.4</ele>
        <time>2020-06-16T13:46:18Z</time>
      </trkpt>
      <trkpt lat="49.38111" lon="-1.08941">
        <ele>2.6</ele>
        <time>2020-06-16T13:46:19Z</time>
      </trkpt>
      <trkpt lat="49.38116" lon="-1.08938">
        <ele>2.6</ele>
        <time>2020-06-16T13:46:20Z</time>
      </trkpt>
      <trkpt lat="49.3812" lon="-1.08936">
        <ele>2.5</ele>
        <time>2020-06-16T13:46:21Z</time>
      </trkpt>
      <trkpt lat="49.38124" lon="-1.08933">
        <ele>2.5</ele>
        <time>2020-06-16T13:46:22Z</time>
      </trkpt>
      <trkpt lat="49.38128" lon="-1.08929">
        <ele>2.4</ele>
        <time>2020-06-16T13:46:23Z</time>
      </trkpt>
      <trkpt lat="49.38132" lon="-1.08926">
        <ele>2.4</ele>
        <time>2020-06-16T13:46:24Z</time>
      </trkpt>
      <trkpt lat="49.38136" lon="-1.0892">
        <ele>2.3</ele>
        <time>2020-06-16T13:46:25Z</time>
      </trkpt>
      <trkpt lat="49.3814" lon="-1.08917">
        <ele>2.3</ele>
        <time>2020-06-16T13:46:26Z</time>
      </trkpt>
      <trkpt lat="49.38143" lon="-1.08914">
        <ele>2.3</ele>
        <time>2020-06-16T13:46:27Z</time>
      </trkpt>
      <trkpt lat="49.38148" lon="-1.0891">
        <ele>2.2</ele>
        <time>2020-06-16T13:46:28Z</time>
      </trkpt>
      <trkpt lat="49.38152" lon="-1.08906">
        <ele>2.2</ele>
        <time>2020-06-16T13:46:29Z</time>
      </trkpt>
      <trkpt lat="49.38156" lon="-1.08903">
        <ele>2.2</ele>
        <time>2020-06-16T13:46:30Z</time>
      </trkpt>
      <trkpt lat="49.38161" lon="-1.08899">
        <ele>2.1</ele>
        <time>2020-06-16T13:46:31Z</time>
      </trkpt>
      <trkpt lat="49.38165" lon="-1.08896">
        <ele>2.1</ele>
        <time>2020-06-16T13:46:32Z</time>
      </trkpt>
      <trkpt lat="49.38169" lon="-1.08892">
        <ele>2.1</ele>
        <time>2020-06-16T13:46:33Z</time>
      </trkpt>
      <trkpt lat="49.38173" lon="-1.08888">
        <ele>2.1</ele>
        <time>2020-06-16T13:46:34Z</time>
      </trkpt>
      <trkpt lat="49.38177" lon="-1.08884">
        <ele>2.2</ele>
        <time>2020-06-16T13:46:35Z</time>
      </trkpt>
      <trkpt lat="49.38182" lon="-1.08881">
        <ele>2.2</ele>
        <time>2020-06-16T13:46:36Z</time>
      </trkpt>
      <trkpt lat="49.38186" lon="-1.08875">
        <ele>2.2</ele>
        <time>2020-06-16T13:46:37Z</time>
      </trkpt>
      <trkpt lat="49.38192" lon="-1.08871">
        <ele>2.2</ele>
        <time>2020-06-16T13:46:38Z</time>
      </trkpt>
      <trkpt lat="49.38197" lon="-1.08867">
        <ele>2.3</ele>
        <time>2020-06-16T13:46:39Z</time>
      </trkpt>
      <trkpt lat="49.38202" lon="-1.08865">
        <ele>2.3</ele>
        <time>2020-06-16T13:46:40Z</time>
      </trkpt>
      <trkpt lat="49.38206" lon="-1.08862">
        <ele>2.3</ele>
        <time>2020-06-16T13:46:41Z</time>
      </trkpt>
      <trkpt lat="49.38211" lon="-1.08859">
        <ele>2.4</ele>
        <time>2020-06-16T13:46:42Z</time>
      </trkpt>
      <trkpt lat="49.38215" lon="-1.08855">
        <ele>2.4</ele>
        <time>2020-06-16T13:46:43Z</time>
      </trkpt>
      <trkpt lat="49.38219" lon="-1.08852">
        <ele>2.5</ele>
        <time>2020-06-16T13:46:44Z</time>
      </trkpt>
      <trkpt lat="49.38224" lon="-1.08848">
        <ele>2.5</ele>
        <time>2020-06-16T13:46:45Z</time>
      </trkpt>
      <trkpt lat="49.38228" lon="-1.08843">
        <ele>2.5</ele>
        <time>2020-06-16T13:46:46Z</time>
      </trkpt>
      <trkpt lat="49.38231" lon="-1.08837">
        <ele>2.5</ele>
        <time>2020-06-16T13:46:47Z</time>
      </trkpt>
      <trkpt lat="49.38232" lon="-1.08832">
        <ele>2.4</ele>
        <time>2020-06-16T13:46:48Z</time>
      </trkpt>
      <trkpt lat="49.38233" lon="-1.08825">
        <ele>2.3</ele>
        <time>2020-06-16T13:46:49Z</time>
      </trkpt>
      <trkpt lat="49.38233" lon="-1.0882">
        <ele>2.2</ele>
        <time>2020-06-16T13:46:50Z</time>
      </trkpt>
      <trkpt lat="49.3823" lon="-1.08815">
        <ele>2</ele>
        <time>2020-06-16T13:46:51Z</time>
      </trkpt>
      <trkpt lat="49.38227" lon="-1.08811">
        <ele>1.9</ele>
        <time>2020-06-16T13:46:52Z</time>
      </trkpt>
      <trkpt lat="49.38223" lon="-1.08808">
        <ele>1.8</ele>
        <time>2020-06-16T13:46:53Z</time>
      </trkpt>
      <trkpt lat="49.38219" lon="-1.08804">
        <ele>1.6</ele>
        <time>2020-06-16T13:46:54Z</time>
      </trkpt>
      <trkpt lat="49.38215" lon="-1.088">
        <ele>1.5</ele>
        <time>2020-06-16T13:46:55Z</time>
      </trkpt>
      <trkpt lat="49.38211" lon="-1.08795">
        <ele>1.5</ele>
        <time>2020-06-16T13:46:56Z</time>
      </trkpt>
      <trkpt lat="49.38208" lon="-1.0879">
        <ele>1.4</ele>
        <time>2020-06-16T13:46:57Z</time>
      </trkpt>
      <trkpt lat="49.38204" lon="-1.08785">
        <ele>1.4</ele>
        <time>2020-06-16T13:46:58Z</time>
      </trkpt>
      <trkpt lat="49.38201" lon="-1.08781">
        <ele>1.3</ele>
        <time>2020-06-16T13:46:59Z</time>
      </trkpt>
      <trkpt lat="49.38198" lon="-1.08778">
        <ele>1.3</ele>
        <time>2020-06-16T13:47:00Z</time>
      </trkpt>
      <trkpt lat="49.38194" lon="-1.08774">
        <ele>1.3</ele>
        <time>2020-06-16T13:47:01Z</time>
      </trkpt>
      <trkpt lat="49.3819" lon="-1.08772">
        <ele>1.3</ele>
        <time>2020-06-16T13:47:02Z</time>
      </trkpt>
      <trkpt lat="49.38187" lon="-1.08769">
        <ele>1.3</ele>
        <time>2020-06-16T13:47:03Z</time>
      </trkpt>
      <trkpt lat="49.38184" lon="-1.08766">
        <ele>1.3</ele>
        <time>2020-06-16T13:47:04Z</time>
      </trkpt>
      <trkpt lat="49.3818" lon="-1.08763">
        <ele>1.2</ele>
        <time>2020-06-16T13:47:05Z</time>
      </trkpt>
      <trkpt lat="49.38177" lon="-1.0876">
        <ele>1.2</ele>
        <time>2020-06-16T13:47:06Z</time>
      </trkpt>
      <trkpt lat="49.38174" lon="-1.08755">
        <ele>1.1</ele>
        <time>2020-06-16T13:47:07Z</time>
      </trkpt>
      <trkpt lat="49.38171" lon="-1.08751">
        <ele>1.1</ele>
        <time>2020-06-16T13:47:08Z</time>
      </trkpt>
      <trkpt lat="49.38168" lon="-1.08746">
        <ele>1.1</ele>
        <time>2020-06-16T13:47:09Z</time>
      </trkpt>
      <trkpt lat="49.38167" lon="-1.0874">
        <ele>1</ele>
        <time>2020-06-16T13:47:10Z</time>
      </trkpt>
      <trkpt lat="49.38167" lon="-1.08734">
        <ele>1</ele>
        <time>2020-06-16T13:47:11Z</time>
      </trkpt>
      <trkpt lat="49.38168" lon="-1.08726">
        <ele>1</ele>
        <time>2020-06-16T13:47:12Z</time>
      </trkpt>
      <trkpt lat="49.38171" lon="-1.08719">
        <ele>0.9</ele>
        <time>2020-06-16T13:47:13Z</time>
      </trkpt>
      <trkpt lat="49.38174" lon="-1.08712">
        <ele>0.9</ele>
        <time>2020-06-16T13:47:14Z</time>
      </trkpt>
      <trkpt lat="49.38177" lon="-1.08705">
        <ele>0.9</ele>
        <time>2020-06-16T13:47:15Z</time>
      </trkpt>
      <trkpt lat="49.38179" lon="-1.08698">
        <ele>0.9</ele>
        <time>2020-06-16T13:47:16Z</time>
      </trkpt>
      <trkpt lat="49.38182" lon="-1.08691">
        <ele>0.9</ele>
        <time>2020-06-16T13:47:17Z</time>
      </trkpt>
      <trkpt lat="49.38184" lon="-1.08685">
        <ele>1</ele>
        <time>2020-06-16T13:47:18Z</time>
      </trkpt>
      <trkpt lat="49.38184" lon="-1.0868">
        <ele>1</ele>
        <time>2020-06-16T13:47:19Z</time>
      </trkpt>
      <trkpt lat="49.38185" lon="-1.08675">
        <ele>1</ele>
        <time>2020-06-16T13:47:20Z</time>
      </trkpt>
      <trkpt lat="49.38186" lon="-1.0867">
        <ele>1</ele>
        <time>2020-06-16T13:47:21Z</time>
      </trkpt>
      <trkpt lat="49.38188" lon="-1.08665">
        <ele>1</ele>
        <time>2020-06-16T13:47:22Z</time>
      </trkpt>
      <trkpt lat="49.38189" lon="-1.0866">
        <ele>1</ele>
        <time>2020-06-16T13:47:23Z</time>
      </trkpt>
      <trkpt lat="49.38191" lon="-1.08654">
        <ele>1</ele>
        <time>2020-06-16T13:47:24Z</time>
      </trkpt>
      <trkpt lat="49.38193" lon="-1.08647">
        <ele>1</ele>
        <time>2020-06-16T13:47:25Z</time>
      </trkpt>
      <trkpt lat="49.38196" lon="-1.08641">
        <ele>1</ele>
        <time>2020-06-16T13:47:26Z</time>
      </trkpt>
      <trkpt lat="49.38198" lon="-1.08635">
        <ele>1</ele>
        <time>2020-06-16T13:47:27Z</time>
      </trkpt>
      <trkpt lat="49.382" lon="-1.08629">
        <ele>1</ele>
        <time>2020-06-16T13:47:28Z</time>
      </trkpt>
      <trkpt lat="49.38203" lon="-1.08624">
        <ele>1.1</ele>
        <time>2020-06-16T13:47:29Z</time>
      </trkpt>
      <trkpt lat="49.38206" lon="-1.08618">
        <ele>1.1</ele>
        <time>2020-06-16T13:47:30Z</time>
      </trkpt>
      <trkpt lat="49.38208" lon="-1.08611">
        <ele>1.2</ele>
        <time>2020-06-16T13:47:31Z</time>
      </trkpt>
      <trkpt lat="49.38211" lon="-1.08606">
        <ele>1.2</ele>
        <time>2020-06-16T13:47:32Z</time>
      </trkpt>
      <trkpt lat="49.38213" lon="-1.086">
        <ele>1.3</ele>
        <time>2020-06-16T13:47:33Z</time>
      </trkpt>
      <trkpt lat="49.38215" lon="-1.08594">
        <ele>1.3</ele>
        <time>2020-06-16T13:47:34Z</time>
      </trkpt>
      <trkpt lat="49.38217" lon="-1.08589">
        <ele>1.2</ele>
        <time>2020-06-16T13:47:35Z</time>
      </trkpt>
      <trkpt lat="49.3822" lon="-1.08584">
        <ele>1.2</ele>
        <time>2020-06-16T13:47:36Z</time>
      </trkpt>
      <trkpt lat="49.38223" lon="-1.08578">
        <ele>1.2</ele>
        <time>2020-06-16T13:47:37Z</time>
      </trkpt>
      <trkpt lat="49.38226" lon="-1.08573">
        <ele>1.2</ele>
        <time>2020-06-16T13:47:38Z</time>
      </trkpt>
      <trkpt lat="49.38228" lon="-1.08567">
        <ele>1.2</ele>
        <time>2020-06-16T13:47:39Z</time>
      </trkpt>
      <trkpt lat="49.38231" lon="-1.08563">
        <ele>1.2</ele>
        <time>2020-06-16T13:47:40Z</time>
      </trkpt>
      <trkpt lat="49.38234" lon="-1.08557">
        <ele>1.2</ele>
        <time>2020-06-16T13:47:41Z</time>
      </trkpt>
      <trkpt lat="49.38236" lon="-1.08551">
        <ele>1.2</ele>
        <time>2020-06-16T13:47:42Z</time>
      </trkpt>
      <trkpt lat="49.38239" lon="-1.08545">
        <ele>1.1</ele>
        <time>2020-06-16T13:47:43Z</time>
      </trkpt>
      <trkpt lat="49.38242" lon="-1.0854">
        <ele>1.1</ele>
        <time>2020-06-16T13:47:44Z</time>
      </trkpt>
      <trkpt lat="49.38245" lon="-1.08534">
        <ele>1.1</ele>
        <time>2020-06-16T13:47:45Z</time>
      </trkpt>
      <trkpt lat="49.38247" lon="-1.08529">
        <ele>1.1</ele>
        <time>2020-06-16T13:47:46Z</time>
      </trkpt>
      <trkpt lat="49.3825" lon="-1.08523">
        <ele>1.1</ele>
        <time>2020-06-16T13:47:47Z</time>
      </trkpt>
      <trkpt lat="49.38252" lon="-1.08518">
        <ele>1.1</ele>
        <time>2020-06-16T13:47:48Z</time>
      </trkpt>
      <trkpt lat="49.38255" lon="-1.08513">
        <ele>1.2</ele>
        <time>2020-06-16T13:47:49Z</time>
      </trkpt>
      <trkpt lat="49.38258" lon="-1.08507">
        <ele>1.2</ele>
        <time>2020-06-16T13:47:50Z</time>
      </trkpt>
      <trkpt lat="49.38261" lon="-1.08501">
        <ele>1.3</ele>
        <time>2020-06-16T13:47:51Z</time>
      </trkpt>
      <trkpt lat="49.38265" lon="-1.08495">
        <ele>1.3</ele>
        <time>2020-06-16T13:47:52Z</time>
      </trkpt>
      <trkpt lat="49.38267" lon="-1.08489">
        <ele>1.4</ele>
        <time>2020-06-16T13:47:53Z</time>
      </trkpt>
      <trkpt lat="49.3827" lon="-1.08483">
        <ele>1.4</ele>
        <time>2020-06-16T13:47:54Z</time>
      </trkpt>
      <trkpt lat="49.38273" lon="-1.08477">
        <ele>1.4</ele>
        <time>2020-06-16T13:47:55Z</time>
      </trkpt>
      <trkpt lat="49.38276" lon="-1.08471">
        <ele>1.4</ele>
        <time>2020-06-16T13:47:56Z</time>
      </trkpt>
      <trkpt lat="49.3828" lon="-1.08465">
        <ele>1.4</ele>
        <time>2020-06-16T13:47:57Z</time>
      </trkpt>
      <trkpt lat="49.38283" lon="-1.0846">
        <ele>1.4</ele>
        <time>2020-06-16T13:47:58Z</time>
      </trkpt>
      <trkpt lat="49.38286" lon="-1.08455">
        <ele>1.3</ele>
        <time>2020-06-16T13:47:59Z</time>
      </trkpt>
      <trkpt lat="49.38289" lon="-1.0845">
        <ele>1.3</ele>
        <time>2020-06-16T13:48:00Z</time>
      </trkpt>
      <trkpt lat="49.38292" lon="-1.08445">
        <ele>1.2</ele>
        <time>2020-06-16T13:48:01Z</time>
      </trkpt>
      <trkpt lat="49.38295" lon="-1.08439">
        <ele>1.2</ele>
        <time>2020-06-16T13:48:02Z</time>
      </trkpt>
      <trkpt lat="49.38298" lon="-1.08434">
        <ele>1.2</ele>
        <time>2020-06-16T13:48:03Z</time>
      </trkpt>
      <trkpt lat="49.38301" lon="-1.08429">
        <ele>1.1</ele>
        <time>2020-06-16T13:48:04Z</time>
      </trkpt>
      <trkpt lat="49.38304" lon="-1.08424">
        <ele>1.1</ele>
        <time>2020-06-16T13:48:05Z</time>
      </trkpt>
      <trkpt lat="49.38308" lon="-1.08419">
        <ele>1.1</ele>
        <time>2020-06-16T13:48:06Z</time>
      </trkpt>
      <trkpt lat="49.38311" lon="-1.08413">
        <ele>1.1</ele>
        <time>2020-06-16T13:48:07Z</time>
      </trkpt>
      <trkpt lat="49.38314" lon="-1.08407">
        <ele>1.1</ele>
        <time>2020-06-16T13:48:08Z</time>
      </trkpt>
      <trkpt lat="49.38317" lon="-1.08401">
        <ele>1.1</ele>
        <time>2020-06-16T13:48:09Z</time>
      </trkpt>
      <trkpt lat="49.38321" lon="-1.08395">
        <ele>1.1</ele>
        <time>2020-06-16T13:48:10Z</time>
      </trkpt>
      <trkpt lat="49.38324" lon="-1.0839">
        <ele>1.1</ele>
        <time>2020-06-16T13:48:11Z</time>
      </trkpt>
      <trkpt lat="49.38327" lon="-1.08384">
        <ele>1.1</ele>
        <time>2020-06-16T13:48:12Z</time>
      </trkpt>
      <trkpt lat="49.3833" lon="-1.08378">
        <ele>1.1</ele>
        <time>2020-06-16T13:48:13Z</time>
      </trkpt>
      <trkpt lat="49.38332" lon="-1.08372">
        <ele>1</ele>
        <time>2020-06-16T13:48:14Z</time>
      </trkpt>
      <trkpt lat="49.38335" lon="-1.08366">
        <ele>0.9</ele>
        <time>2020-06-16T13:48:15Z</time>
      </trkpt>
      <trkpt lat="49.38338" lon="-1.0836">
        <ele>0.8</ele>
        <time>2020-06-16T13:48:16Z</time>
      </trkpt>
      <trkpt lat="49.38341" lon="-1.08354">
        <ele>0.7</ele>
        <time>2020-06-16T13:48:17Z</time>
      </trkpt>
      <trkpt lat="49.38344" lon="-1.08348">
        <ele>0.6</ele>
        <time>2020-06-16T13:48:18Z</time>
      </trkpt>
      <trkpt lat="49.38347" lon="-1.08342">
        <ele>0.6</ele>
        <time>2020-06-16T13:48:19Z</time>
      </trkpt>
      <trkpt lat="49.3835" lon="-1.08335">
        <ele>0.5</ele>
        <time>2020-06-16T13:48:20Z</time>
      </trkpt>
      <trkpt lat="49.38353" lon="-1.08329">
        <ele>0.5</ele>
        <time>2020-06-16T13:48:21Z</time>
      </trkpt>
      <trkpt lat="49.38357" lon="-1.08323">
        <ele>0.4</ele>
        <time>2020-06-16T13:48:22Z</time>
      </trkpt>
      <trkpt lat="49.3836" lon="-1.08317">
        <ele>0.4</ele>
        <time>2020-06-16T13:48:23Z</time>
      </trkpt>
      <trkpt lat="49.38363" lon="-1.08312">
        <ele>0.4</ele>
        <time>2020-06-16T13:48:24Z</time>
      </trkpt>
      <trkpt lat="49.38367" lon="-1.08307">
        <ele>0.5</ele>
        <time>2020-06-16T13:48:25Z</time>
      </trkpt>
      <trkpt lat="49.3837" lon="-1.08302">
        <ele>0.5</ele>
        <time>2020-06-16T13:48:26Z</time>
      </trkpt>
      <trkpt lat="49.38372" lon="-1.08296">
        <ele>0.5</ele>
        <time>2020-06-16T13:48:27Z</time>
      </trkpt>
      <trkpt lat="49.38376" lon="-1.0829">
        <ele>0.6</ele>
        <time>2020-06-16T13:48:28Z</time>
      </trkpt>
      <trkpt lat="49.38378" lon="-1.08285">
        <ele>0.6</ele>
        <time>2020-06-16T13:48:29Z</time>
      </trkpt>
      <trkpt lat="49.38381" lon="-1.0828">
        <ele>0.7</ele>
        <time>2020-06-16T13:48:30Z</time>
      </trkpt>
      <trkpt lat="49.38383" lon="-1.08274">
        <ele>0.8</ele>
        <time>2020-06-16T13:48:31Z</time>
      </trkpt>
      <trkpt lat="49.38386" lon="-1.08269">
        <ele>0.8</ele>
        <time>2020-06-16T13:48:32Z</time>
      </trkpt>
      <trkpt lat="49.38389" lon="-1.08264">
        <ele>0.9</ele>
        <time>2020-06-16T13:48:33Z</time>
      </trkpt>
      <trkpt lat="49.38391" lon="-1.08263">
        <ele>0.9</ele>
        <time>2020-06-16T13:48:34Z</time>
      </trkpt>
      <trkpt lat="49.38391" lon="-1.08264">
        <ele>0.9</ele>
        <time>2020-06-16T13:48:35Z</time>
      </trkpt>
      <trkpt lat="49.38391" lon="-1.08265">
        <ele>1</ele>
        <time>2020-06-16T13:48:36Z</time>
      </trkpt>
      <trkpt lat="49.38391" lon="-1.08266">
        <ele>1</ele>
        <time>2020-06-16T13:48:37Z</time>
      </trkpt>
      <trkpt lat="49.38392" lon="-1.08267">
        <ele>1</ele>
        <time>2020-06-16T13:48:38Z</time>
      </trkpt>
      <trkpt lat="49.38392" lon="-1.08269">
        <ele>1.1</ele>
        <time>2020-06-16T13:48:39Z</time>
      </trkpt>
      <trkpt lat="49.38394" lon="-1.08272">
        <ele>1.1</ele>
        <time>2020-06-16T13:48:40Z</time>
      </trkpt>
      <trkpt lat="49.38396" lon="-1.08277">
        <ele>1.1</ele>
        <time>2020-06-16T13:48:41Z</time>
      </trkpt>
      <trkpt lat="49.38399" lon="-1.08281">
        <ele>1.1</ele>
        <time>2020-06-16T13:48:42Z</time>
      </trkpt>
      <trkpt lat="49.38401" lon="-1.08287">
        <ele>1.1</ele>
        <time>2020-06-16T13:48:43Z</time>
      </trkpt>
      <trkpt lat="49.38404" lon="-1.08292">
        <ele>1.1</ele>
        <time>2020-06-16T13:48:44Z</time>
      </trkpt>
      <trkpt lat="49.38407" lon="-1.08297">
        <ele>1.1</ele>
        <time>2020-06-16T13:48:45Z</time>
      </trkpt>
      <trkpt lat="49.38411" lon="-1.08302">
        <ele>1.1</ele>
        <time>2020-06-16T13:48:46Z</time>
      </trkpt>
      <trkpt lat="49.38414" lon="-1.08306">
        <ele>1.1</ele>
        <time>2020-06-16T13:48:47Z</time>
      </trkpt>
      <trkpt lat="49.38417" lon="-1.0831">
        <ele>1.1</ele>
        <time>2020-06-16T13:48:48Z</time>
      </trkpt>
      <trkpt lat="49.38421" lon="-1.08315">
        <ele>1.2</ele>
        <time>2020-06-16T13:48:49Z</time>
      </trkpt>
      <trkpt lat="49.38424" lon="-1.0832">
        <ele>1.2</ele>
        <time>2020-06-16T13:48:50Z</time>
      </trkpt>
      <trkpt lat="49.38427" lon="-1.08325">
        <ele>1.3</ele>
        <time>2020-06-16T13:48:51Z</time>
      </trkpt>
      <trkpt lat="49.38431" lon="-1.08331">
        <ele>1.3</ele>
        <time>2020-06-16T13:48:52Z</time>
      </trkpt>
      <trkpt lat="49.38435" lon="-1.08336">
        <ele>1.4</ele>
        <time>2020-06-16T13:48:53Z</time>
      </trkpt>
      <trkpt lat="49.3844" lon="-1.08341">
        <ele>1.5</ele>
        <time>2020-06-16T13:48:54Z</time>
      </trkpt>
      <trkpt lat="49.38445" lon="-1.08343">
        <ele>1.6</ele>
        <time>2020-06-16T13:48:55Z</time>
      </trkpt>
      <trkpt lat="49.38448" lon="-1.08347">
        <ele>1.6</ele>
        <time>2020-06-16T13:48:56Z</time>
      </trkpt>
      <trkpt lat="49.38452" lon="-1.0835">
        <ele>1.7</ele>
        <time>2020-06-16T13:48:57Z</time>
      </trkpt>
      <trkpt lat="49.38455" lon="-1.08353">
        <ele>1.8</ele>
        <time>2020-06-16T13:48:58Z</time>
      </trkpt>
      <trkpt lat="49.3846" lon="-1.08354">
        <ele>1.9</ele>
        <time>2020-06-16T13:48:59Z</time>
      </trkpt>
      <trkpt lat="49.38465" lon="-1.08353">
        <ele>2</ele>
        <time>2020-06-16T13:49:00Z</time>
      </trkpt>
      <trkpt lat="49.38471" lon="-1.08353">
        <ele>2.1</ele>
        <time>2020-06-16T13:49:01Z</time>
      </trkpt>
      <trkpt lat="49.38477" lon="-1.08352">
        <ele>2.2</ele>
        <time>2020-06-16T13:49:02Z</time>
      </trkpt>
      <trkpt lat="49.38482" lon="-1.0835">
        <ele>2.2</ele>
        <time>2020-06-16T13:49:03Z</time>
      </trkpt>
      <trkpt lat="49.38487" lon="-1.08349">
        <ele>2.3</ele>
        <time>2020-06-16T13:49:04Z</time>
      </trkpt>
      <trkpt lat="49.38492" lon="-1.08346">
        <ele>2.3</ele>
        <time>2020-06-16T13:49:05Z</time>
      </trkpt>
      <trkpt lat="49.38497" lon="-1.08343">
        <ele>2.3</ele>
        <time>2020-06-16T13:49:06Z</time>
      </trkpt>
      <trkpt lat="49.38501" lon="-1.08338">
        <ele>2.2</ele>
        <time>2020-06-16T13:49:07Z</time>
      </trkpt>
      <trkpt lat="49.38505" lon="-1.08334">
        <ele>2.2</ele>
        <time>2020-06-16T13:49:08Z</time>
      </trkpt>
      <trkpt lat="49.38509" lon="-1.08329">
        <ele>2.2</ele>
        <time>2020-06-16T13:49:09Z</time>
      </trkpt>
      <trkpt lat="49.38513" lon="-1.08324">
        <ele>2.4</ele>
        <time>2020-06-16T13:49:10Z</time>
      </trkpt>
      <trkpt lat="49.38517" lon="-1.08318">
        <ele>2.5</ele>
        <time>2020-06-16T13:49:11Z</time>
      </trkpt>
      <trkpt lat="49.38521" lon="-1.08313">
        <ele>2.5</ele>
        <time>2020-06-16T13:49:12Z</time>
      </trkpt>
      <trkpt lat="49.38523" lon="-1.08307">
        <ele>2.5</ele>
        <time>2020-06-16T13:49:13Z</time>
      </trkpt>
      <trkpt lat="49.38525" lon="-1.08301">
        <ele>2.5</ele>
        <time>2020-06-16T13:49:14Z</time>
      </trkpt>
      <trkpt lat="49.38528" lon="-1.08296">
        <ele>2.6</ele>
        <time>2020-06-16T13:49:15Z</time>
      </trkpt>
      <trkpt lat="49.38531" lon="-1.0829">
        <ele>2.6</ele>
        <time>2020-06-16T13:49:16Z</time>
      </trkpt>
      <trkpt lat="49.38535" lon="-1.08283">
        <ele>2.7</ele>
        <time>2020-06-16T13:49:17Z</time>
      </trkpt>
      <trkpt lat="49.38538" lon="-1.08276">
        <ele>2.6</ele>
        <time>2020-06-16T13:49:18Z</time>
      </trkpt>
      <trkpt lat="49.38542" lon="-1.0827">
        <ele>2.6</ele>
        <time>2020-06-16T13:49:19Z</time>
      </trkpt>
      <trkpt lat="49.38546" lon="-1.08264">
        <ele>2.5</ele>
        <time>2020-06-16T13:49:20Z</time>
      </trkpt>
      <trkpt lat="49.38551" lon="-1.08258">
        <ele>2.4</ele>
        <time>2020-06-16T13:49:21Z</time>
      </trkpt>
      <trkpt lat="49.38555" lon="-1.08252">
        <ele>2.4</ele>
        <time>2020-06-16T13:49:22Z</time>
      </trkpt>
      <trkpt lat="49.38558" lon="-1.08246">
        <ele>2.3</ele>
        <time>2020-06-16T13:49:23Z</time>
      </trkpt>
      <trkpt lat="49.38562" lon="-1.0824">
        <ele>2.3</ele>
        <time>2020-06-16T13:49:24Z</time>
      </trkpt>
      <trkpt lat="49.38566" lon="-1.08234">
        <ele>2.2</ele>
        <time>2020-06-16T13:49:25Z</time>
      </trkpt>
      <trkpt lat="49.38569" lon="-1.08227">
        <ele>2.2</ele>
        <time>2020-06-16T13:49:26Z</time>
      </trkpt>
      <trkpt lat="49.38572" lon="-1.0822">
        <ele>2.2</ele>
        <time>2020-06-16T13:49:27Z</time>
      </trkpt>
      <trkpt lat="49.38575" lon="-1.08214">
        <ele>2.2</ele>
        <time>2020-06-16T13:49:28Z</time>
      </trkpt>
      <trkpt lat="49.38579" lon="-1.08208">
        <ele>2.2</ele>
        <time>2020-06-16T13:49:29Z</time>
      </trkpt>
      <trkpt lat="49.38583" lon="-1.08202">
        <ele>2.2</ele>
        <time>2020-06-16T13:49:30Z</time>
      </trkpt>
      <trkpt lat="49.38586" lon="-1.08197">
        <ele>2.2</ele>
        <time>2020-06-16T13:49:31Z</time>
      </trkpt>
      <trkpt lat="49.38589" lon="-1.08192">
        <ele>2.2</ele>
        <time>2020-06-16T13:49:32Z</time>
      </trkpt>
      <trkpt lat="49.38591" lon="-1.08188">
        <ele>2.2</ele>
        <time>2020-06-16T13:49:33Z</time>
      </trkpt>
      <trkpt lat="49.38593" lon="-1.08183">
        <ele>2.2</ele>
        <time>2020-06-16T13:49:34Z</time>
      </trkpt>
      <trkpt lat="49.38596" lon="-1.08178">
        <ele>2.2</ele>
        <time>2020-06-16T13:49:35Z</time>
      </trkpt>
      <trkpt lat="49.38599" lon="-1.08172">
        <ele>2.2</ele>
        <time>2020-06-16T13:49:36Z</time>
      </trkpt>
      <trkpt lat="49.38602" lon="-1.08167">
        <ele>2.2</ele>
        <time>2020-06-16T13:49:37Z</time>
      </trkpt>
      <trkpt lat="49.38604" lon="-1.0816">
        <ele>2.1</ele>
        <time>2020-06-16T13:49:38Z</time>
      </trkpt>
      <trkpt lat="49.38607" lon="-1.08154">
        <ele>2.1</ele>
        <time>2020-06-16T13:49:39Z</time>
      </trkpt>
      <trkpt lat="49.3861" lon="-1.08149">
        <ele>2.1</ele>
        <time>2020-06-16T13:49:40Z</time>
      </trkpt>
      <trkpt lat="49.38613" lon="-1.08144">
        <ele>2.1</ele>
        <time>2020-06-16T13:49:41Z</time>
      </trkpt>
      <trkpt lat="49.38616" lon="-1.08138">
        <ele>2</ele>
        <time>2020-06-16T13:49:42Z</time>
      </trkpt>
      <trkpt lat="49.38619" lon="-1.08133">
        <ele>2</ele>
        <time>2020-06-16T13:49:43Z</time>
      </trkpt>
      <trkpt lat="49.38622" lon="-1.08127">
        <ele>2</ele>
        <time>2020-06-16T13:49:44Z</time>
      </trkpt>
      <trkpt lat="49.38626" lon="-1.08121">
        <ele>2</ele>
        <time>2020-06-16T13:49:45Z</time>
      </trkpt>
      <trkpt lat="49.38629" lon="-1.08115">
        <ele>2</ele>
        <time>2020-06-16T13:49:46Z</time>
      </trkpt>
      <trkpt lat="49.38633" lon="-1.08109">
        <ele>2</ele>
        <time>2020-06-16T13:49:47Z</time>
      </trkpt>
      <trkpt lat="49.38637" lon="-1.08102">
        <ele>1.9</ele>
        <time>2020-06-16T13:49:48Z</time>
      </trkpt>
      <trkpt lat="49.38641" lon="-1.08096">
        <ele>2</ele>
        <time>2020-06-16T13:49:49Z</time>
      </trkpt>
      <trkpt lat="49.38644" lon="-1.0809">
        <ele>2</ele>
        <time>2020-06-16T13:49:50Z</time>
      </trkpt>
      <trkpt lat="49.38648" lon="-1.08084">
        <ele>2.1</ele>
        <time>2020-06-16T13:49:51Z</time>
      </trkpt>
      <trkpt lat="49.38652" lon="-1.08077">
        <ele>2.1</ele>
        <time>2020-06-16T13:49:52Z</time>
      </trkpt>
      <trkpt lat="49.38656" lon="-1.0807">
        <ele>2.2</ele>
        <time>2020-06-16T13:49:53Z</time>
      </trkpt>
      <trkpt lat="49.38659" lon="-1.08064">
        <ele>2.2</ele>
        <time>2020-06-16T13:49:54Z</time>
      </trkpt>
      <trkpt lat="49.38662" lon="-1.08057">
        <ele>2.2</ele>
        <time>2020-06-16T13:49:55Z</time>
      </trkpt>
      <trkpt lat="49.38666" lon="-1.08051">
        <ele>2.2</ele>
        <time>2020-06-16T13:49:56Z</time>
      </trkpt>
      <trkpt lat="49.38669" lon="-1.08044">
        <ele>2.2</ele>
        <time>2020-06-16T13:49:57Z</time>
      </trkpt>
      <trkpt lat="49.38673" lon="-1.08037">
        <ele>2.2</ele>
        <time>2020-06-16T13:49:58Z</time>
      </trkpt>
      <trkpt lat="49.38676" lon="-1.08029">
        <ele>2.2</ele>
        <time>2020-06-16T13:49:59Z</time>
      </trkpt>
      <trkpt lat="49.3868" lon="-1.08022">
        <ele>2.2</ele>
        <time>2020-06-16T13:50:00Z</time>
      </trkpt>
      <trkpt lat="49.38683" lon="-1.08014">
        <ele>2.2</ele>
        <time>2020-06-16T13:50:01Z</time>
      </trkpt>
      <trkpt lat="49.38686" lon="-1.08008">
        <ele>2.1</ele>
        <time>2020-06-16T13:50:02Z</time>
      </trkpt>
      <trkpt lat="49.38689" lon="-1.08002">
        <ele>2.1</ele>
        <time>2020-06-16T13:50:03Z</time>
      </trkpt>
      <trkpt lat="49.38692" lon="-1.07995">
        <ele>2.1</ele>
        <time>2020-06-16T13:50:04Z</time>
      </trkpt>
      <trkpt lat="49.38695" lon="-1.07988">
        <ele>2.1</ele>
        <time>2020-06-16T13:50:05Z</time>
      </trkpt>
      <trkpt lat="49.38698" lon="-1.07981">
        <ele>2</ele>
        <time>2020-06-16T13:50:06Z</time>
      </trkpt>
      <trkpt lat="49.38701" lon="-1.07975">
        <ele>2</ele>
        <time>2020-06-16T13:50:07Z</time>
      </trkpt>
      <trkpt lat="49.38704" lon="-1.07969">
        <ele>2</ele>
        <time>2020-06-16T13:50:08Z</time>
      </trkpt>
      <trkpt lat="49.38708" lon="-1.07963">
        <ele>2</ele>
        <time>2020-06-16T13:50:09Z</time>
      </trkpt>
      <trkpt lat="49.38711" lon="-1.07957">
        <ele>2</ele>
        <time>2020-06-16T13:50:10Z</time>
      </trkpt>
      <trkpt lat="49.38714" lon="-1.07951">
        <ele>2</ele>
        <time>2020-06-16T13:50:11Z</time>
      </trkpt>
      <trkpt lat="49.38717" lon="-1.07945">
        <ele>2</ele>
        <time>2020-06-16T13:50:12Z</time>
      </trkpt>
      <trkpt lat="49.3872" lon="-1.0794">
        <ele>2</ele>
        <time>2020-06-16T13:50:13Z</time>
      </trkpt>
      <trkpt lat="49.38723" lon="-1.07934">
        <ele>2</ele>
        <time>2020-06-16T13:50:14Z</time>
      </trkpt>
      <trkpt lat="49.38726" lon="-1.07928">
        <ele>2</ele>
        <time>2020-06-16T13:50:15Z</time>
      </trkpt>
      <trkpt lat="49.38729" lon="-1.07923">
        <ele>2.1</ele>
        <time>2020-06-16T13:50:16Z</time>
      </trkpt>
      <trkpt lat="49.38732" lon="-1.07917">
        <ele>2.1</ele>
        <time>2020-06-16T13:50:17Z</time>
      </trkpt>
      <trkpt lat="49.38734" lon="-1.07912">
        <ele>2.2</ele>
        <time>2020-06-16T13:50:18Z</time>
      </trkpt>
      <trkpt lat="49.38736" lon="-1.07907">
        <ele>2.3</ele>
        <time>2020-06-16T13:50:19Z</time>
      </trkpt>
      <trkpt lat="49.38739" lon="-1.07901">
        <ele>2.3</ele>
        <time>2020-06-16T13:50:20Z</time>
      </trkpt>
      <trkpt lat="49.38741" lon="-1.07896">
        <ele>2.3</ele>
        <time>2020-06-16T13:50:21Z</time>
      </trkpt>
      <trkpt lat="49.38744" lon="-1.07892">
        <ele>2.4</ele>
        <time>2020-06-16T13:50:22Z</time>
      </trkpt>
      <trkpt lat="49.38748" lon="-1.07887">
        <ele>2.4</ele>
        <time>2020-06-16T13:50:23Z</time>
      </trkpt>
      <trkpt lat="49.38751" lon="-1.07884">
        <ele>2.4</ele>
        <time>2020-06-16T13:50:24Z</time>
      </trkpt>
      <trkpt lat="49.38755" lon="-1.07881">
        <ele>2.4</ele>
        <time>2020-06-16T13:50:25Z</time>
      </trkpt>
      <trkpt lat="49.38758" lon="-1.07879">
        <ele>2.5</ele>
        <time>2020-06-16T13:50:26Z</time>
      </trkpt>
      <trkpt lat="49.38761" lon="-1.07878">
        <ele>2.5</ele>
        <time>2020-06-16T13:50:27Z</time>
      </trkpt>
      <trkpt lat="49.38765" lon="-1.07877">
        <ele>2.6</ele>
        <time>2020-06-16T13:50:28Z</time>
      </trkpt>
      <trkpt lat="49.38767" lon="-1.07877">
        <ele>2.6</ele>
        <time>2020-06-16T13:50:29Z</time>
      </trkpt>
      <trkpt lat="49.3877" lon="-1.07876">
        <ele>2.6</ele>
        <time>2020-06-16T13:50:30Z</time>
      </trkpt>
      <trkpt lat="49.38771" lon="-1.07875">
        <ele>2.6</ele>
        <time>2020-06-16T13:50:31Z</time>
      </trkpt>
      <trkpt lat="49.38772" lon="-1.07875">
        <ele>2.6</ele>
        <time>2020-06-16T13:50:32Z</time>
      </trkpt>
      <trkpt lat="49.38774" lon="-1.07876">
        <ele>2.6</ele>
        <time>2020-06-16T13:50:33Z</time>
      </trkpt>
      <trkpt lat="49.38777" lon="-1.07875">
        <ele>2.6</ele>
        <time>2020-06-16T13:50:34Z</time>
      </trkpt>
      <trkpt lat="49.3878" lon="-1.07874">
        <ele>2.5</ele>
        <time>2020-06-16T13:50:35Z</time>
      </trkpt>
      <trkpt lat="49.38781" lon="-1.07874">
        <ele>2.5</ele>
        <time>2020-06-16T13:50:36Z</time>
      </trkpt>
      <trkpt lat="49.38782" lon="-1.07873">
        <ele>2.5</ele>
        <time>2020-06-16T13:50:37Z</time>
      </trkpt>
      <trkpt lat="49.38782" lon="-1.07873">
        <ele>2.5</ele>
        <time>2020-06-16T13:50:38Z</time>
      </trkpt>
      <trkpt lat="49.38781" lon="-1.07873">
        <ele>2.5</ele>
        <time>2020-06-16T13:50:39Z</time>
      </trkpt>
      <trkpt lat="49.38781" lon="-1.07872">
        <ele>2.5</ele>
        <time>2020-06-16T13:50:40Z</time>
      </trkpt>
      <trkpt lat="49.38782" lon="-1.07872">
        <ele>2.5</ele>
        <time>2020-06-16T13:50:41Z</time>
      </trkpt>
      <trkpt lat="49.38783" lon="-1.07872">
        <ele>2.4</ele>
        <time>2020-06-16T13:50:42Z</time>
      </trkpt>
      <trkpt lat="49.38783" lon="-1.07873">
        <ele>2.4</ele>
        <time>2020-06-16T13:50:43Z</time>
      </trkpt>
      <trkpt lat="49.38783" lon="-1.07874">
        <ele>2.4</ele>
        <time>2020-06-16T13:50:44Z</time>
      </trkpt>
      <trkpt lat="49.38783" lon="-1.07873">
        <ele>2.4</ele>
        <time>2020-06-16T13:50:45Z</time>
      </trkpt>
      <trkpt lat="49.38783" lon="-1.07874">
        <ele>2.4</ele>
        <time>2020-06-16T13:50:46Z</time>
      </trkpt>
      <trkpt lat="49.38783" lon="-1.07874">
        <ele>2.4</ele>
        <time>2020-06-16T13:50:47Z</time>
      </trkpt>
      <trkpt lat="49.38782" lon="-1.07873">
        <ele>2.4</ele>
        <time>2020-06-16T13:50:48Z</time>
      </trkpt>
      <trkpt lat="49.38783" lon="-1.07872">
        <ele>2.4</ele>
        <time>2020-06-16T13:50:49Z</time>
      </trkpt>
      <trkpt lat="49.38782" lon="-1.07872">
        <ele>2.4</ele>
        <time>2020-06-16T13:50:50Z</time>
      </trkpt>
      <trkpt lat="49.38782" lon="-1.07872">
        <ele>2.4</ele>
        <time>2020-06-16T13:50:51Z</time>
      </trkpt>
      <trkpt lat="49.38783" lon="-1.07872">
        <ele>2.4</ele>
        <time>2020-06-16T13:50:52Z</time>
      </trkpt>
      <trkpt lat="49.38782" lon="-1.07872">
        <ele>2.4</ele>
        <time>2020-06-16T13:50:53Z</time>
      </trkpt>
      <trkpt lat="49.38783" lon="-1.07872">
        <ele>2.4</ele>
        <time>2020-06-16T13:50:54Z</time>
      </trkpt>
      <trkpt lat="49.38783" lon="-1.07872">
        <ele>2.4</ele>
        <time>2020-06-16T13:50:55Z</time>
      </trkpt>
      <trkpt lat="49.38784" lon="-1.07872">
        <ele>2.4</ele>
        <time>2020-06-16T13:50:56Z</time>
      </trkpt>
      <trkpt lat="49.38784" lon="-1.07873">
        <ele>2.4</ele>
        <time>2020-06-16T13:50:57Z</time>
      </trkpt>
      <trkpt lat="49.38784" lon="-1.07872">
        <ele>2.4</ele>
        <time>2020-06-16T13:50:58Z</time>
      </trkpt>
      <trkpt lat="49.38784" lon="-1.07872">
        <ele>2.4</ele>
        <time>2020-06-16T13:50:59Z</time>
      </trkpt>
      <trkpt lat="49.38784" lon="-1.07873">
        <ele>2.4</ele>
        <time>2020-06-16T13:51:00Z</time>
      </trkpt>
      <trkpt lat="49.38784" lon="-1.07873">
        <ele>2.4</ele>
        <time>2020-06-16T13:51:01Z</time>
      </trkpt>
      <trkpt lat="49.38784" lon="-1.07873">
        <ele>2.4</ele>
        <time>2020-06-16T13:51:02Z</time>
      </trkpt>
      <trkpt lat="49.38785" lon="-1.07874">
        <ele>2.4</ele>
        <time>2020-06-16T13:51:03Z</time>
      </trkpt>
      <trkpt lat="49.38785" lon="-1.07874">
        <ele>2.4</ele>
        <time>2020-06-16T13:51:04Z</time>
      </trkpt>
      <trkpt lat="49.38785" lon="-1.07874">
        <ele>2.4</ele>
        <time>2020-06-16T13:51:05Z</time>
      </trkpt>
      <trkpt lat="49.38785" lon="-1.07874">
        <ele>2.4</ele>
        <time>2020-06-16T13:51:06Z</time>
      </trkpt>
      <trkpt lat="49.38784" lon="-1.07874">
        <ele>2.4</ele>
        <time>2020-06-16T13:51:07Z</time>
      </trkpt>
      <trkpt lat="49.38784" lon="-1.07875">
        <ele>2.4</ele>
        <time>2020-06-16T13:51:08Z</time>
      </trkpt>
      <trkpt lat="49.38785" lon="-1.07875">
        <ele>2.4</ele>
        <time>2020-06-16T13:51:09Z</time>
      </trkpt>
      <trkpt lat="49.38786" lon="-1.07875">
        <ele>2.4</ele>
        <time>2020-06-16T13:51:10Z</time>
      </trkpt>
      <trkpt lat="49.38786" lon="-1.07874">
        <ele>2.4</ele>
        <time>2020-06-16T13:51:11Z</time>
      </trkpt>
      <trkpt lat="49.38785" lon="-1.07874">
        <ele>2.4</ele>
        <time>2020-06-16T13:51:12Z</time>
      </trkpt>
      <trkpt lat="49.38786" lon="-1.07875">
        <ele>2.4</ele>
        <time>2020-06-16T13:51:13Z</time>
      </trkpt>
      <trkpt lat="49.38787" lon="-1.07876">
        <ele>2.4</ele>
        <time>2020-06-16T13:51:14Z</time>
      </trkpt>
      <trkpt lat="49.38787" lon="-1.07877">
        <ele>2.4</ele>
        <time>2020-06-16T13:51:15Z</time>
      </trkpt>
      <trkpt lat="49.38787" lon="-1.07877">
        <ele>2.4</ele>
        <time>2020-06-16T13:51:16Z</time>
      </trkpt>
      <trkpt lat="49.38786" lon="-1.07877">
        <ele>2.4</ele>
        <time>2020-06-16T13:51:17Z</time>
      </trkpt>
      <trkpt lat="49.38785" lon="-1.07877">
        <ele>2.4</ele>
        <time>2020-06-16T13:51:18Z</time>
      </trkpt>
      <trkpt lat="49.38785" lon="-1.07877">
        <ele>2.5</ele>
        <time>2020-06-16T13:51:19Z</time>
      </trkpt>
      <trkpt lat="49.38785" lon="-1.07877">
        <ele>2.5</ele>
        <time>2020-06-16T13:51:20Z</time>
      </trkpt>
      <trkpt lat="49.38784" lon="-1.07876">
        <ele>2.5</ele>
        <time>2020-06-16T13:51:21Z</time>
      </trkpt>
      <trkpt lat="49.38784" lon="-1.07876">
        <ele>2.5</ele>
        <time>2020-06-16T13:51:22Z</time>
      </trkpt>
      <trkpt lat="49.38784" lon="-1.07877">
        <ele>2.5</ele>
        <time>2020-06-16T13:51:23Z</time>
      </trkpt>
      <trkpt lat="49.38784" lon="-1.07877">
        <ele>2.5</ele>
        <time>2020-06-16T13:51:24Z</time>
      </trkpt>
      <trkpt lat="49.38784" lon="-1.07878">
        <ele>2.5</ele>
        <time>2020-06-16T13:51:25Z</time>
      </trkpt>
      <trkpt lat="49.38784" lon="-1.07878">
        <ele>2.5</ele>
        <time>2020-06-16T13:51:26Z</time>
      </trkpt>
      <trkpt lat="49.38784" lon="-1.07881">
        <ele>2.5</ele>
        <time>2020-06-16T13:51:57Z</time>
      </trkpt>
      <trkpt lat="49.38784" lon="-1.07881">
        <ele>2.5</ele>
        <time>2020-06-16T13:51:58Z</time>
      </trkpt>
      <trkpt lat="49.38784" lon="-1.07881">
        <ele>2.5</ele>
        <time>2020-06-16T13:51:59Z</time>
      </trkpt>
      <trkpt lat="49.38784" lon="-1.07881">
        <ele>2.5</ele>
        <time>2020-06-16T13:52:00Z</time>
      </trkpt>
      <trkpt lat="49.38784" lon="-1.07881">
        <ele>2.5</ele>
        <time>2020-06-16T13:52:01Z</time>
      </trkpt>
      <trkpt lat="49.38784" lon="-1.07881">
        <ele>2.5</ele>
        <time>2020-06-16T13:52:02Z</time>
      </trkpt>
      <trkpt lat="49.38784" lon="-1.0788">
        <ele>2.5</ele>
        <time>2020-06-16T13:52:03Z</time>
      </trkpt>
      <trkpt lat="49.38784" lon="-1.0788">
        <ele>2.5</ele>
        <time>2020-06-16T13:52:04Z</time>
      </trkpt>
      <trkpt lat="49.38785" lon="-1.0788">
        <ele>2.5</ele>
        <time>2020-06-16T13:52:05Z</time>
      </trkpt>
      <trkpt lat="49.38785" lon="-1.0788">
        <ele>2.5</ele>
        <time>2020-06-16T13:52:06Z</time>
      </trkpt>
      <trkpt lat="49.38785" lon="-1.0788">
        <ele>2.5</ele>
        <time>2020-06-16T13:52:07Z</time>
      </trkpt>
      <trkpt lat="49.38785" lon="-1.0788">
        <ele>2.5</ele>
        <time>2020-06-16T13:52:08Z</time>
      </trkpt>
      <trkpt lat="49.38785" lon="-1.07879">
        <ele>2.5</ele>
        <time>2020-06-16T13:52:09Z</time>
      </trkpt>
      <trkpt lat="49.38784" lon="-1.07878">
        <ele>2.5</ele>
        <time>2020-06-16T13:52:10Z</time>
      </trkpt>
      <trkpt lat="49.38784" lon="-1.07877">
        <ele>2.6</ele>
        <time>2020-06-16T13:52:11Z</time>
      </trkpt>
      <trkpt lat="49.38784" lon="-1.07876">
        <ele>2.6</ele>
        <time>2020-06-16T13:52:12Z</time>
      </trkpt>
      <trkpt lat="49.38784" lon="-1.07876">
        <ele>2.6</ele>
        <time>2020-06-16T13:52:13Z</time>
      </trkpt>
      <trkpt lat="49.38784" lon="-1.07874">
        <ele>2.6</ele>
        <time>2020-06-16T13:52:14Z</time>
      </trkpt>
      <trkpt lat="49.38784" lon="-1.07874">
        <ele>2.6</ele>
        <time>2020-06-16T13:52:15Z</time>
      </trkpt>
      <trkpt lat="49.38783" lon="-1.07874">
        <ele>2.6</ele>
        <time>2020-06-16T13:52:16Z</time>
      </trkpt>
      <trkpt lat="49.38783" lon="-1.07873">
        <ele>2.6</ele>
        <time>2020-06-16T13:52:17Z</time>
      </trkpt>
      <trkpt lat="49.38783" lon="-1.07872">
        <ele>2.6</ele>
        <time>2020-06-16T13:52:18Z</time>
      </trkpt>
      <trkpt lat="49.38782" lon="-1.07872">
        <ele>2.6</ele>
        <time>2020-06-16T13:52:19Z</time>
      </trkpt>
      <trkpt lat="49.38782" lon="-1.07872">
        <ele>2.6</ele>
        <time>2020-06-16T13:52:20Z</time>
      </trkpt>
      <trkpt lat="49.38783" lon="-1.07872">
        <ele>2.6</ele>
        <time>2020-06-16T13:52:21Z</time>
      </trkpt>
      <trkpt lat="49.38783" lon="-1.07872">
        <ele>2.6</ele>
        <time>2020-06-16T13:52:22Z</time>
      </trkpt>
      <trkpt lat="49.38783" lon="-1.07871">
        <ele>2.6</ele>
        <time>2020-06-16T13:52:23Z</time>
      </trkpt>
      <trkpt lat="49.38783" lon="-1.07871">
        <ele>2.6</ele>
        <time>2020-06-16T13:52:24Z</time>
      </trkpt>
      <trkpt lat="49.38783" lon="-1.0787">
        <ele>2.6</ele>
        <time>2020-06-16T13:52:25Z</time>
      </trkpt>
      <trkpt lat="49.38783" lon="-1.07869">
        <ele>2.6</ele>
        <time>2020-06-16T13:52:26Z</time>
      </trkpt>
      <trkpt lat="49.38783" lon="-1.07867">
        <ele>2.6</ele>
        <time>2020-06-16T13:52:27Z</time>
      </trkpt>
      <trkpt lat="49.38784" lon="-1.07863">
        <ele>2.6</ele>
        <time>2020-06-16T13:52:28Z</time>
      </trkpt>
      <trkpt lat="49.38784" lon="-1.07862">
        <ele>2.6</ele>
        <time>2020-06-16T13:52:29Z</time>
      </trkpt>
      <trkpt lat="49.38785" lon="-1.0786">
        <ele>2.7</ele>
        <time>2020-06-16T13:52:30Z</time>
      </trkpt>
      <trkpt lat="49.38786" lon="-1.0786">
        <ele>2.7</ele>
        <time>2020-06-16T13:52:31Z</time>
      </trkpt>
      <trkpt lat="49.38787" lon="-1.07859">
        <ele>2.7</ele>
        <time>2020-06-16T13:52:32Z</time>
      </trkpt>
      <trkpt lat="49.38788" lon="-1.07858">
        <ele>2.7</ele>
        <time>2020-06-16T13:52:33Z</time>
      </trkpt>
      <trkpt lat="49.3879" lon="-1.07856">
        <ele>2.7</ele>
        <time>2020-06-16T13:52:34Z</time>
      </trkpt>
      <trkpt lat="49.3879" lon="-1.07855">
        <ele>2.7</ele>
        <time>2020-06-16T13:52:35Z</time>
      </trkpt>
      <trkpt lat="49.3879" lon="-1.07854">
        <ele>2.7</ele>
        <time>2020-06-16T13:52:36Z</time>
      </trkpt>
      <trkpt lat="49.3879" lon="-1.07853">
        <ele>2.7</ele>
        <time>2020-06-16T13:52:37Z</time>
      </trkpt>
      <trkpt lat="49.3879" lon="-1.07852">
        <ele>2.7</ele>
        <time>2020-06-16T13:52:38Z</time>
      </trkpt>
      <trkpt lat="49.3879" lon="-1.07852">
        <ele>2.7</ele>
        <time>2020-06-16T13:52:39Z</time>
      </trkpt>
      <trkpt lat="49.3879" lon="-1.07851">
        <ele>2.7</ele>
        <time>2020-06-16T13:52:40Z</time>
      </trkpt>
      <trkpt lat="49.38791" lon="-1.07849">
        <ele>2.7</ele>
        <time>2020-06-16T13:52:41Z</time>
      </trkpt>
      <trkpt lat="49.38791" lon="-1.07848">
        <ele>2.7</ele>
        <time>2020-06-16T13:52:42Z</time>
      </trkpt>
      <trkpt lat="49.38792" lon="-1.07848">
        <ele>2.7</ele>
        <time>2020-06-16T13:52:43Z</time>
      </trkpt>
      <trkpt lat="49.38792" lon="-1.07847">
        <ele>2.7</ele>
        <time>2020-06-16T13:52:44Z</time>
      </trkpt>
      <trkpt lat="49.38792" lon="-1.07847">
        <ele>2.7</ele>
        <time>2020-06-16T13:52:45Z</time>
      </trkpt>
      <trkpt lat="49.38792" lon="-1.07849">
        <ele>2.8</ele>
        <time>2020-06-16T13:52:46Z</time>
      </trkpt>
      <trkpt lat="49.38792" lon="-1.07849">
        <ele>2.8</ele>
        <time>2020-06-16T13:52:47Z</time>
      </trkpt>
      <trkpt lat="49.38792" lon="-1.07849">
        <ele>2.8</ele>
        <time>2020-06-16T13:52:48Z</time>
      </trkpt>
      <trkpt lat="49.38793" lon="-1.07849">
        <ele>2.8</ele>
        <time>2020-06-16T13:52:49Z</time>
      </trkpt>
      <trkpt lat="49.38793" lon="-1.07849">
        <ele>2.8</ele>
        <time>2020-06-16T13:52:50Z</time>
      </trkpt>
      <trkpt lat="49.38794" lon="-1.07849">
        <ele>2.8</ele>
        <time>2020-06-16T13:52:51Z</time>
      </trkpt>
      <trkpt lat="49.38795" lon="-1.07847">
        <ele>2.8</ele>
        <time>2020-06-16T13:52:52Z</time>
      </trkpt>
      <trkpt lat="49.38796" lon="-1.07846">
        <ele>2.8</ele>
        <time>2020-06-16T13:52:53Z</time>
      </trkpt>
      <trkpt lat="49.38797" lon="-1.07844">
        <ele>2.8</ele>
        <time>2020-06-16T13:52:54Z</time>
      </trkpt>
      <trkpt lat="49.38797" lon="-1.07843">
        <ele>2.8</ele>
        <time>2020-06-16T13:52:55Z</time>
      </trkpt>
      <trkpt lat="49.388" lon="-1.07839">
        <ele>2.9</ele>
        <time>2020-06-16T13:52:56Z</time>
      </trkpt>
      <trkpt lat="49.38801" lon="-1.07837">
        <ele>2.9</ele>
        <time>2020-06-16T13:52:57Z</time>
      </trkpt>
      <trkpt lat="49.38803" lon="-1.07832">
        <ele>2.9</ele>
        <time>2020-06-16T13:52:58Z</time>
      </trkpt>
      <trkpt lat="49.38805" lon="-1.07827">
        <ele>2.9</ele>
        <time>2020-06-16T13:52:59Z</time>
      </trkpt>
      <trkpt lat="49.38809" lon="-1.07822">
        <ele>2.9</ele>
        <time>2020-06-16T13:53:00Z</time>
      </trkpt>
      <trkpt lat="49.38812" lon="-1.07816">
        <ele>2.9</ele>
        <time>2020-06-16T13:53:01Z</time>
      </trkpt>
      <trkpt lat="49.38814" lon="-1.0781">
        <ele>2.9</ele>
        <time>2020-06-16T13:53:02Z</time>
      </trkpt>
      <trkpt lat="49.38817" lon="-1.07805">
        <ele>2.8</ele>
        <time>2020-06-16T13:53:03Z</time>
      </trkpt>
      <trkpt lat="49.38818" lon="-1.07801">
        <ele>2.8</ele>
        <time>2020-06-16T13:53:04Z</time>
      </trkpt>
      <trkpt lat="49.3882" lon="-1.07799">
        <ele>2.8</ele>
        <time>2020-06-16T13:53:05Z</time>
      </trkpt>
      <trkpt lat="49.3882" lon="-1.07797">
        <ele>2.8</ele>
        <time>2020-06-16T13:53:06Z</time>
      </trkpt>
      <trkpt lat="49.3882" lon="-1.07796">
        <ele>2.8</ele>
        <time>2020-06-16T13:53:07Z</time>
      </trkpt>
      <trkpt lat="49.38821" lon="-1.07795">
        <ele>2.8</ele>
        <time>2020-06-16T13:53:08Z</time>
      </trkpt>
      <trkpt lat="49.38821" lon="-1.07794">
        <ele>2.8</ele>
        <time>2020-06-16T13:53:09Z</time>
      </trkpt>
      <trkpt lat="49.38821" lon="-1.07793">
        <ele>2.8</ele>
        <time>2020-06-16T13:53:10Z</time>
      </trkpt>
      <trkpt lat="49.38821" lon="-1.07792">
        <ele>2.8</ele>
        <time>2020-06-16T13:53:11Z</time>
      </trkpt>
      <trkpt lat="49.38821" lon="-1.0779">
        <ele>2.8</ele>
        <time>2020-06-16T13:53:12Z</time>
      </trkpt>
      <trkpt lat="49.38821" lon="-1.07789">
        <ele>2.8</ele>
        <time>2020-06-16T13:53:13Z</time>
      </trkpt>
      <trkpt lat="49.38821" lon="-1.07788">
        <ele>2.8</ele>
        <time>2020-06-16T13:53:14Z</time>
      </trkpt>
      <trkpt lat="49.38821" lon="-1.07787">
        <ele>2.8</ele>
        <time>2020-06-16T13:53:15Z</time>
      </trkpt>
      <trkpt lat="49.38821" lon="-1.07786">
        <ele>2.8</ele>
        <time>2020-06-16T13:53:16Z</time>
      </trkpt>
      <trkpt lat="49.38821" lon="-1.07785">
        <ele>2.8</ele>
        <time>2020-06-16T13:54:10Z</time>
      </trkpt>
      <trkpt lat="49.38821" lon="-1.07783">
        <ele>2.8</ele>
        <time>2020-06-16T13:54:11Z</time>
      </trkpt>
      <trkpt lat="49.38823" lon="-1.07779">
        <ele>2.8</ele>
        <time>2020-06-16T13:54:12Z</time>
      </trkpt>
      <trkpt lat="49.38823" lon="-1.07777">
        <ele>2.8</ele>
        <time>2020-06-16T13:54:13Z</time>
      </trkpt>
      <trkpt lat="49.38825" lon="-1.07773">
        <ele>2.8</ele>
        <time>2020-06-16T13:54:14Z</time>
      </trkpt>
      <trkpt lat="49.38827" lon="-1.07768">
        <ele>2.7</ele>
        <time>2020-06-16T13:54:15Z</time>
      </trkpt>
      <trkpt lat="49.38827" lon="-1.07766">
        <ele>2.7</ele>
        <time>2020-06-16T13:54:16Z</time>
      </trkpt>
      <trkpt lat="49.38829" lon="-1.07763">
        <ele>2.7</ele>
        <time>2020-06-16T13:54:17Z</time>
      </trkpt>
      <trkpt lat="49.3883" lon="-1.07759">
        <ele>2.7</ele>
        <time>2020-06-16T13:54:18Z</time>
      </trkpt>
      <trkpt lat="49.38832" lon="-1.07754">
        <ele>2.6</ele>
        <time>2020-06-16T13:54:19Z</time>
      </trkpt>
      <trkpt lat="49.38834" lon="-1.07749">
        <ele>2.6</ele>
        <time>2020-06-16T13:54:20Z</time>
      </trkpt>
      <trkpt lat="49.38836" lon="-1.07744">
        <ele>2.6</ele>
        <time>2020-06-16T13:54:21Z</time>
      </trkpt>
      <trkpt lat="49.38838" lon="-1.07739">
        <ele>2.6</ele>
        <time>2020-06-16T13:54:22Z</time>
      </trkpt>
      <trkpt lat="49.3884" lon="-1.07734">
        <ele>2.6</ele>
        <time>2020-06-16T13:54:23Z</time>
      </trkpt>
      <trkpt lat="49.38842" lon="-1.07727">
        <ele>2.6</ele>
        <time>2020-06-16T13:54:24Z</time>
      </trkpt>
      <trkpt lat="49.38843" lon="-1.07722">
        <ele>2.6</ele>
        <time>2020-06-16T13:54:25Z</time>
      </trkpt>
      <trkpt lat="49.38844" lon="-1.07716">
        <ele>2.6</ele>
        <time>2020-06-16T13:54:26Z</time>
      </trkpt>
      <trkpt lat="49.38846" lon="-1.07712">
        <ele>2.6</ele>
        <time>2020-06-16T13:54:27Z</time>
      </trkpt>
      <trkpt lat="49.38847" lon="-1.07709">
        <ele>2.6</ele>
        <time>2020-06-16T13:54:28Z</time>
      </trkpt>
      <trkpt lat="49.38849" lon="-1.07705">
        <ele>2.5</ele>
        <time>2020-06-16T13:54:29Z</time>
      </trkpt>
      <trkpt lat="49.3885" lon="-1.07699">
        <ele>2.5</ele>
        <time>2020-06-16T13:54:30Z</time>
      </trkpt>
      <trkpt lat="49.38851" lon="-1.07697">
        <ele>2.5</ele>
        <time>2020-06-16T13:54:31Z</time>
      </trkpt>
      <trkpt lat="49.38852" lon="-1.07692">
        <ele>2.5</ele>
        <time>2020-06-16T13:54:32Z</time>
      </trkpt>
      <trkpt lat="49.38853" lon="-1.07691">
        <ele>2.5</ele>
        <time>2020-06-16T13:54:33Z</time>
      </trkpt>
      <trkpt lat="49.38855" lon="-1.07686">
        <ele>2.5</ele>
        <time>2020-06-16T13:54:34Z</time>
      </trkpt>
      <trkpt lat="49.38856" lon="-1.07684">
        <ele>2.5</ele>
        <time>2020-06-16T13:54:35Z</time>
      </trkpt>
      <trkpt lat="49.38858" lon="-1.07681">
        <ele>2.5</ele>
        <time>2020-06-16T13:54:36Z</time>
      </trkpt>
      <trkpt lat="49.38859" lon="-1.07677">
        <ele>2.5</ele>
        <time>2020-06-16T13:54:37Z</time>
      </trkpt>
      <trkpt lat="49.38861" lon="-1.07673">
        <ele>2.5</ele>
        <time>2020-06-16T13:54:38Z</time>
      </trkpt>
      <trkpt lat="49.38862" lon="-1.07669">
        <ele>2.5</ele>
        <time>2020-06-16T13:54:39Z</time>
      </trkpt>
      <trkpt lat="49.38863" lon="-1.07665">
        <ele>2.5</ele>
        <time>2020-06-16T13:54:40Z</time>
      </trkpt>
      <trkpt lat="49.38865" lon="-1.0766">
        <ele>2.5</ele>
        <time>2020-06-16T13:54:41Z</time>
      </trkpt>
      <trkpt lat="49.38866" lon="-1.07656">
        <ele>2.5</ele>
        <time>2020-06-16T13:54:42Z</time>
      </trkpt>
      <trkpt lat="49.38867" lon="-1.07652">
        <ele>2.5</ele>
        <time>2020-06-16T13:54:43Z</time>
      </trkpt>
      <trkpt lat="49.38868" lon="-1.07647">
        <ele>2.5</ele>
        <time>2020-06-16T13:54:44Z</time>
      </trkpt>
      <trkpt lat="49.38868" lon="-1.07645">
        <ele>2.5</ele>
        <time>2020-06-16T13:54:45Z</time>
      </trkpt>
      <trkpt lat="49.38871" lon="-1.07641">
        <ele>2.5</ele>
        <time>2020-06-16T13:54:46Z</time>
      </trkpt>
      <trkpt lat="49.38871" lon="-1.07639">
        <ele>2.5</ele>
        <time>2020-06-16T13:54:47Z</time>
      </trkpt>
      <trkpt lat="49.38873" lon="-1.07635">
        <ele>2.5</ele>
        <time>2020-06-16T13:54:48Z</time>
      </trkpt>
      <trkpt lat="49.38874" lon="-1.07633">
        <ele>2.5</ele>
        <time>2020-06-16T13:54:49Z</time>
      </trkpt>
      <trkpt lat="49.38876" lon="-1.07628">
        <ele>2.4</ele>
        <time>2020-06-16T13:54:50Z</time>
      </trkpt>
      <trkpt lat="49.38876" lon="-1.07627">
        <ele>2.4</ele>
        <time>2020-06-16T13:54:51Z</time>
      </trkpt>
      <trkpt lat="49.38878" lon="-1.07622">
        <ele>2.4</ele>
        <time>2020-06-16T13:54:52Z</time>
      </trkpt>
      <trkpt lat="49.38879" lon="-1.0762">
        <ele>2.4</ele>
        <time>2020-06-16T13:54:53Z</time>
      </trkpt>
      <trkpt lat="49.38881" lon="-1.07614">
        <ele>2.4</ele>
        <time>2020-06-16T13:54:54Z</time>
      </trkpt>
      <trkpt lat="49.38882" lon="-1.07612">
        <ele>2.4</ele>
        <time>2020-06-16T13:54:55Z</time>
      </trkpt>
      <trkpt lat="49.38883" lon="-1.07607">
        <ele>2.4</ele>
        <time>2020-06-16T13:54:56Z</time>
      </trkpt>
      <trkpt lat="49.38885" lon="-1.07601">
        <ele>2.5</ele>
        <time>2020-06-16T13:54:57Z</time>
      </trkpt>
      <trkpt lat="49.38887" lon="-1.07596">
        <ele>2.5</ele>
        <time>2020-06-16T13:54:58Z</time>
      </trkpt>
      <trkpt lat="49.38888" lon="-1.07592">
        <ele>2.5</ele>
        <time>2020-06-16T13:54:59Z</time>
      </trkpt>
      <trkpt lat="49.38889" lon="-1.07587">
        <ele>2.5</ele>
        <time>2020-06-16T13:55:00Z</time>
      </trkpt>
      <trkpt lat="49.38891" lon="-1.07583">
        <ele>2.5</ele>
        <time>2020-06-16T13:55:01Z</time>
      </trkpt>
      <trkpt lat="49.38892" lon="-1.07579">
        <ele>2.5</ele>
        <time>2020-06-16T13:55:02Z</time>
      </trkpt>
      <trkpt lat="49.38892" lon="-1.07578">
        <ele>2.5</ele>
        <time>2020-06-16T13:55:03Z</time>
      </trkpt>
      <trkpt lat="49.38892" lon="-1.07575">
        <ele>2.5</ele>
        <time>2020-06-16T13:55:04Z</time>
      </trkpt>
      <trkpt lat="49.38893" lon="-1.07573">
        <ele>2.5</ele>
        <time>2020-06-16T13:55:05Z</time>
      </trkpt>
      <trkpt lat="49.38892" lon="-1.07571">
        <ele>2.5</ele>
        <time>2020-06-16T13:55:06Z</time>
      </trkpt>
      <trkpt lat="49.38892" lon="-1.07569">
        <ele>2.5</ele>
        <time>2020-06-16T13:55:07Z</time>
      </trkpt>
      <trkpt lat="49.38891" lon="-1.07568">
        <ele>2.5</ele>
        <time>2020-06-16T13:55:08Z</time>
      </trkpt>
      <trkpt lat="49.38891" lon="-1.07567">
        <ele>2.5</ele>
        <time>2020-06-16T13:55:09Z</time>
      </trkpt>
      <trkpt lat="49.38891" lon="-1.07566">
        <ele>2.5</ele>
        <time>2020-06-16T13:55:10Z</time>
      </trkpt>
      <trkpt lat="49.38891" lon="-1.07565">
        <ele>2.5</ele>
        <time>2020-06-16T13:55:11Z</time>
      </trkpt>
      <trkpt lat="49.38891" lon="-1.07564">
        <ele>2.5</ele>
        <time>2020-06-16T13:55:12Z</time>
      </trkpt>
      <trkpt lat="49.3889" lon="-1.07563">
        <ele>2.5</ele>
        <time>2020-06-16T13:55:13Z</time>
      </trkpt>
      <trkpt lat="49.38891" lon="-1.07563">
        <ele>2.5</ele>
        <time>2020-06-16T13:55:14Z</time>
      </trkpt>
      <trkpt lat="49.38891" lon="-1.07562">
        <ele>2.5</ele>
        <time>2020-06-16T13:55:15Z</time>
      </trkpt>
      <trkpt lat="49.38891" lon="-1.07561">
        <ele>2.5</ele>
        <time>2020-06-16T13:55:16Z</time>
      </trkpt>
      <trkpt lat="49.38891" lon="-1.07559">
        <ele>2.5</ele>
        <time>2020-06-16T13:55:17Z</time>
      </trkpt>
      <trkpt lat="49.38891" lon="-1.07557">
        <ele>2.5</ele>
        <time>2020-06-16T13:55:18Z</time>
      </trkpt>
      <trkpt lat="49.38891" lon="-1.07557">
        <ele>2.5</ele>
        <time>2020-06-16T13:55:19Z</time>
      </trkpt>
      <trkpt lat="49.38891" lon="-1.07556">
        <ele>2.5</ele>
        <time>2020-06-16T13:55:20Z</time>
      </trkpt>
      <trkpt lat="49.38891" lon="-1.07555">
        <ele>2.6</ele>
        <time>2020-06-16T13:55:21Z</time>
      </trkpt>
      <trkpt lat="49.38891" lon="-1.07553">
        <ele>2.6</ele>
        <time>2020-06-16T13:55:22Z</time>
      </trkpt>
      <trkpt lat="49.38891" lon="-1.07553">
        <ele>2.6</ele>
        <time>2020-06-16T13:55:23Z</time>
      </trkpt>
      <trkpt lat="49.38891" lon="-1.07552">
        <ele>2.6</ele>
        <time>2020-06-16T13:55:24Z</time>
      </trkpt>
      <trkpt lat="49.38891" lon="-1.07551">
        <ele>2.6</ele>
        <time>2020-06-16T13:55:25Z</time>
      </trkpt>
      <trkpt lat="49.38891" lon="-1.0755">
        <ele>2.6</ele>
        <time>2020-06-16T13:55:26Z</time>
      </trkpt>
      <trkpt lat="49.38891" lon="-1.07549">
        <ele>2.6</ele>
        <time>2020-06-16T13:55:27Z</time>
      </trkpt>
      <trkpt lat="49.38892" lon="-1.07548">
        <ele>2.6</ele>
        <time>2020-06-16T13:55:28Z</time>
      </trkpt>
      <trkpt lat="49.38893" lon="-1.07547">
        <ele>2.6</ele>
        <time>2020-06-16T13:55:29Z</time>
      </trkpt>
      <trkpt lat="49.38893" lon="-1.07545">
        <ele>2.6</ele>
        <time>2020-06-16T13:55:30Z</time>
      </trkpt>
      <trkpt lat="49.38893" lon="-1.07545">
        <ele>2.6</ele>
        <time>2020-06-16T13:55:31Z</time>
      </trkpt>
      <trkpt lat="49.38894" lon="-1.07544">
        <ele>2.6</ele>
        <time>2020-06-16T13:55:32Z</time>
      </trkpt>
      <trkpt lat="49.38895" lon="-1.07543">
        <ele>2.6</ele>
        <time>2020-06-16T13:55:33Z</time>
      </trkpt>
      <trkpt lat="49.38895" lon="-1.07542">
        <ele>2.6</ele>
        <time>2020-06-16T13:55:34Z</time>
      </trkpt>
      <trkpt lat="49.38896" lon="-1.07542">
        <ele>2.6</ele>
        <time>2020-06-16T13:55:35Z</time>
      </trkpt>
      <trkpt lat="49.38895" lon="-1.07541">
        <ele>2.6</ele>
        <time>2020-06-16T13:55:36Z</time>
      </trkpt>
      <trkpt lat="49.38895" lon="-1.07541">
        <ele>2.6</ele>
        <time>2020-06-16T13:55:37Z</time>
      </trkpt>
      <trkpt lat="49.38894" lon="-1.07541">
        <ele>2.6</ele>
        <time>2020-06-16T13:55:38Z</time>
      </trkpt>
      <trkpt lat="49.38894" lon="-1.0754">
        <ele>2.6</ele>
        <time>2020-06-16T13:55:39Z</time>
      </trkpt>
      <trkpt lat="49.38895" lon="-1.0754">
        <ele>2.6</ele>
        <time>2020-06-16T13:55:40Z</time>
      </trkpt>
      <trkpt lat="49.38895" lon="-1.07538">
        <ele>2.6</ele>
        <time>2020-06-16T13:55:41Z</time>
      </trkpt>
      <trkpt lat="49.38896" lon="-1.07536">
        <ele>2.7</ele>
        <time>2020-06-16T13:55:42Z</time>
      </trkpt>
      <trkpt lat="49.38896" lon="-1.07535">
        <ele>2.7</ele>
        <time>2020-06-16T13:55:43Z</time>
      </trkpt>
      <trkpt lat="49.38896" lon="-1.07534">
        <ele>2.7</ele>
        <time>2020-06-16T13:55:44Z</time>
      </trkpt>
      <trkpt lat="49.38896" lon="-1.07532">
        <ele>2.7</ele>
        <time>2020-06-16T13:55:45Z</time>
      </trkpt>
      <trkpt lat="49.38896" lon="-1.0753">
        <ele>2.7</ele>
        <time>2020-06-16T13:55:46Z</time>
      </trkpt>
      <trkpt lat="49.38896" lon="-1.07529">
        <ele>2.7</ele>
        <time>2020-06-16T13:55:47Z</time>
      </trkpt>
      <trkpt lat="49.38896" lon="-1.07527">
        <ele>2.7</ele>
        <time>2020-06-16T13:55:48Z</time>
      </trkpt>
      <trkpt lat="49.38896" lon="-1.07526">
        <ele>2.7</ele>
        <time>2020-06-16T13:55:49Z</time>
      </trkpt>
      <trkpt lat="49.38896" lon="-1.07524">
        <ele>2.7</ele>
        <time>2020-06-16T13:55:50Z</time>
      </trkpt>
      <trkpt lat="49.38896" lon="-1.07522">
        <ele>2.7</ele>
        <time>2020-06-16T13:55:51Z</time>
      </trkpt>
      <trkpt lat="49.38896" lon="-1.07521">
        <ele>2.7</ele>
        <time>2020-06-16T13:55:52Z</time>
      </trkpt>
      <trkpt lat="49.38896" lon="-1.07519">
        <ele>2.7</ele>
        <time>2020-06-16T13:55:53Z</time>
      </trkpt>
      <trkpt lat="49.38896" lon="-1.07517">
        <ele>2.7</ele>
        <time>2020-06-16T13:55:54Z</time>
      </trkpt>
      <trkpt lat="49.38896" lon="-1.07516">
        <ele>2.7</ele>
        <time>2020-06-16T13:55:55Z</time>
      </trkpt>
      <trkpt lat="49.38897" lon="-1.07515">
        <ele>2.7</ele>
        <time>2020-06-16T13:55:56Z</time>
      </trkpt>
      <trkpt lat="49.38897" lon="-1.07514">
        <ele>2.7</ele>
        <time>2020-06-16T13:55:57Z</time>
      </trkpt>
      <trkpt lat="49.38897" lon="-1.07514">
        <ele>2.7</ele>
        <time>2020-06-16T13:55:58Z</time>
      </trkpt>
      <trkpt lat="49.38896" lon="-1.07513">
        <ele>2.7</ele>
        <time>2020-06-16T13:55:59Z</time>
      </trkpt>
      <trkpt lat="49.38896" lon="-1.07512">
        <ele>2.7</ele>
        <time>2020-06-16T13:56:00Z</time>
      </trkpt>
      <trkpt lat="49.38895" lon="-1.07511">
        <ele>2.7</ele>
        <time>2020-06-16T13:56:01Z</time>
      </trkpt>
      <trkpt lat="49.38894" lon="-1.07509">
        <ele>2.7</ele>
        <time>2020-06-16T13:56:02Z</time>
      </trkpt>
      <trkpt lat="49.38893" lon="-1.07507">
        <ele>2.7</ele>
        <time>2020-06-16T13:56:03Z</time>
      </trkpt>
      <trkpt lat="49.38892" lon="-1.07505">
        <ele>2.7</ele>
        <time>2020-06-16T13:56:04Z</time>
      </trkpt>
      <trkpt lat="49.38893" lon="-1.07499">
        <ele>2.7</ele>
        <time>2020-06-16T13:56:05Z</time>
      </trkpt>
      <trkpt lat="49.38893" lon="-1.07497">
        <ele>2.7</ele>
        <time>2020-06-16T13:56:06Z</time>
      </trkpt>
      <trkpt lat="49.38894" lon="-1.07494">
        <ele>2.7</ele>
        <time>2020-06-16T13:56:07Z</time>
      </trkpt>
      <trkpt lat="49.38895" lon="-1.07493">
        <ele>2.7</ele>
        <time>2020-06-16T13:56:08Z</time>
      </trkpt>
      <trkpt lat="49.38895" lon="-1.07492">
        <ele>2.7</ele>
        <time>2020-06-16T13:56:09Z</time>
      </trkpt>
      <trkpt lat="49.38896" lon="-1.07487">
        <ele>2.7</ele>
        <time>2020-06-16T13:56:10Z</time>
      </trkpt>
      <trkpt lat="49.38897" lon="-1.07486">
        <ele>2.6</ele>
        <time>2020-06-16T13:56:11Z</time>
      </trkpt>
      <trkpt lat="49.38899" lon="-1.0748">
        <ele>2.6</ele>
        <time>2020-06-16T13:56:12Z</time>
      </trkpt>
      <trkpt lat="49.389" lon="-1.07478">
        <ele>2.6</ele>
        <time>2020-06-16T13:56:13Z</time>
      </trkpt>
      <trkpt lat="49.38902" lon="-1.07473">
        <ele>2.6</ele>
        <time>2020-06-16T13:56:14Z</time>
      </trkpt>
      <trkpt lat="49.38903" lon="-1.07471">
        <ele>2.6</ele>
        <time>2020-06-16T13:56:15Z</time>
      </trkpt>
      <trkpt lat="49.38905" lon="-1.07468">
        <ele>2.5</ele>
        <time>2020-06-16T13:56:16Z</time>
      </trkpt>
      <trkpt lat="49.38907" lon="-1.07465">
        <ele>2.5</ele>
        <time>2020-06-16T13:56:17Z</time>
      </trkpt>
      <trkpt lat="49.38909" lon="-1.07461">
        <ele>2.5</ele>
        <time>2020-06-16T13:56:18Z</time>
      </trkpt>
      <trkpt lat="49.38911" lon="-1.07456">
        <ele>2.5</ele>
        <time>2020-06-16T13:56:19Z</time>
      </trkpt>
      <trkpt lat="49.38912" lon="-1.07451">
        <ele>2.4</ele>
        <time>2020-06-16T13:56:20Z</time>
      </trkpt>
      <trkpt lat="49.38914" lon="-1.07445">
        <ele>2.4</ele>
        <time>2020-06-16T13:56:21Z</time>
      </trkpt>
      <trkpt lat="49.38915" lon="-1.07439">
        <ele>2.4</ele>
        <time>2020-06-16T13:56:22Z</time>
      </trkpt>
      <trkpt lat="49.38917" lon="-1.07434">
        <ele>2.3</ele>
        <time>2020-06-16T13:56:23Z</time>
      </trkpt>
      <trkpt lat="49.38918" lon="-1.07428">
        <ele>2.3</ele>
        <time>2020-06-16T13:56:24Z</time>
      </trkpt>
      <trkpt lat="49.3892" lon="-1.07422">
        <ele>2.2</ele>
        <time>2020-06-16T13:56:25Z</time>
      </trkpt>
      <trkpt lat="49.38922" lon="-1.07416">
        <ele>2.2</ele>
        <time>2020-06-16T13:56:26Z</time>
      </trkpt>
      <trkpt lat="49.38924" lon="-1.07409">
        <ele>2.1</ele>
        <time>2020-06-16T13:56:27Z</time>
      </trkpt>
      <trkpt lat="49.38925" lon="-1.07402">
        <ele>2.1</ele>
        <time>2020-06-16T13:56:28Z</time>
      </trkpt>
      <trkpt lat="49.38927" lon="-1.07396">
        <ele>2</ele>
        <time>2020-06-16T13:56:29Z</time>
      </trkpt>
      <trkpt lat="49.38929" lon="-1.0739">
        <ele>1.9</ele>
        <time>2020-06-16T13:56:30Z</time>
      </trkpt>
      <trkpt lat="49.38931" lon="-1.07384">
        <ele>1.7</ele>
        <time>2020-06-16T13:56:31Z</time>
      </trkpt>
      <trkpt lat="49.38934" lon="-1.07379">
        <ele>1.8</ele>
        <time>2020-06-16T13:56:32Z</time>
      </trkpt>
      <trkpt lat="49.38936" lon="-1.07374">
        <ele>1.9</ele>
        <time>2020-06-16T13:56:33Z</time>
      </trkpt>
      <trkpt lat="49.38939" lon="-1.07368">
        <ele>1.9</ele>
        <time>2020-06-16T13:56:34Z</time>
      </trkpt>
      <trkpt lat="49.3894" lon="-1.07363">
        <ele>1.9</ele>
        <time>2020-06-16T13:56:35Z</time>
      </trkpt>
      <trkpt lat="49.38942" lon="-1.07357">
        <ele>1.9</ele>
        <time>2020-06-16T13:56:36Z</time>
      </trkpt>
      <trkpt lat="49.38944" lon="-1.07351">
        <ele>1.9</ele>
        <time>2020-06-16T13:56:37Z</time>
      </trkpt>
      <trkpt lat="49.38946" lon="-1.07345">
        <ele>1.9</ele>
        <time>2020-06-16T13:56:38Z</time>
      </trkpt>
      <trkpt lat="49.38948" lon="-1.07339">
        <ele>1.9</ele>
        <time>2020-06-16T13:56:39Z</time>
      </trkpt>
      <trkpt lat="49.3895" lon="-1.07332">
        <ele>1.9</ele>
        <time>2020-06-16T13:56:40Z</time>
      </trkpt>
      <trkpt lat="49.38952" lon="-1.07326">
        <ele>1.9</ele>
        <time>2020-06-16T13:56:41Z</time>
      </trkpt>
      <trkpt lat="49.38954" lon="-1.0732">
        <ele>1.9</ele>
        <time>2020-06-16T13:56:42Z</time>
      </trkpt>
      <trkpt lat="49.38955" lon="-1.07313">
        <ele>1.9</ele>
        <time>2020-06-16T13:56:43Z</time>
      </trkpt>
      <trkpt lat="49.38957" lon="-1.07306">
        <ele>1.9</ele>
        <time>2020-06-16T13:56:44Z</time>
      </trkpt>
      <trkpt lat="49.38959" lon="-1.07299">
        <ele>1.9</ele>
        <time>2020-06-16T13:56:45Z</time>
      </trkpt>
      <trkpt lat="49.38961" lon="-1.07292">
        <ele>1.9</ele>
        <time>2020-06-16T13:56:46Z</time>
      </trkpt>
      <trkpt lat="49.38962" lon="-1.07285">
        <ele>1.9</ele>
        <time>2020-06-16T13:56:47Z</time>
      </trkpt>
      <trkpt lat="49.38964" lon="-1.07279">
        <ele>1.9</ele>
        <time>2020-06-16T13:56:48Z</time>
      </trkpt>
      <trkpt lat="49.38965" lon="-1.07272">
        <ele>1.9</ele>
        <time>2020-06-16T13:56:49Z</time>
      </trkpt>
      <trkpt lat="49.38967" lon="-1.07266">
        <ele>1.9</ele>
        <time>2020-06-16T13:56:50Z</time>
      </trkpt>
      <trkpt lat="49.38968" lon="-1.0726">
        <ele>1.9</ele>
        <time>2020-06-16T13:56:51Z</time>
      </trkpt>
      <trkpt lat="49.38969" lon="-1.07255">
        <ele>1.9</ele>
        <time>2020-06-16T13:56:52Z</time>
      </trkpt>
      <trkpt lat="49.3897" lon="-1.07249">
        <ele>1.9</ele>
        <time>2020-06-16T13:56:53Z</time>
      </trkpt>
      <trkpt lat="49.38971" lon="-1.07243">
        <ele>1.9</ele>
        <time>2020-06-16T13:56:54Z</time>
      </trkpt>
      <trkpt lat="49.38972" lon="-1.07238">
        <ele>1.8</ele>
        <time>2020-06-16T13:56:55Z</time>
      </trkpt>
      <trkpt lat="49.38974" lon="-1.07232">
        <ele>1.8</ele>
        <time>2020-06-16T13:56:56Z</time>
      </trkpt>
      <trkpt lat="49.38975" lon="-1.07227">
        <ele>1.8</ele>
        <time>2020-06-16T13:56:57Z</time>
      </trkpt>
      <trkpt lat="49.38976" lon="-1.07222">
        <ele>1.7</ele>
        <time>2020-06-16T13:56:58Z</time>
      </trkpt>
      <trkpt lat="49.38978" lon="-1.07216">
        <ele>1.7</ele>
        <time>2020-06-16T13:56:59Z</time>
      </trkpt>
      <trkpt lat="49.38979" lon="-1.0721">
        <ele>1.7</ele>
        <time>2020-06-16T13:57:00Z</time>
      </trkpt>
      <trkpt lat="49.38981" lon="-1.07205">
        <ele>1.7</ele>
        <time>2020-06-16T13:57:01Z</time>
      </trkpt>
      <trkpt lat="49.38982" lon="-1.072">
        <ele>1.6</ele>
        <time>2020-06-16T13:57:02Z</time>
      </trkpt>
      <trkpt lat="49.38983" lon="-1.07195">
        <ele>1.6</ele>
        <time>2020-06-16T13:57:03Z</time>
      </trkpt>
      <trkpt lat="49.38985" lon="-1.0719">
        <ele>1.7</ele>
        <time>2020-06-16T13:57:04Z</time>
      </trkpt>
      <trkpt lat="49.38987" lon="-1.07184">
        <ele>1.7</ele>
        <time>2020-06-16T13:57:05Z</time>
      </trkpt>
      <trkpt lat="49.38988" lon="-1.07178">
        <ele>1.7</ele>
        <time>2020-06-16T13:57:06Z</time>
      </trkpt>
      <trkpt lat="49.38989" lon="-1.07172">
        <ele>1.8</ele>
        <time>2020-06-16T13:57:07Z</time>
      </trkpt>
      <trkpt lat="49.3899" lon="-1.07166">
        <ele>1.8</ele>
        <time>2020-06-16T13:57:08Z</time>
      </trkpt>
      <trkpt lat="49.3899" lon="-1.0716">
        <ele>1.8</ele>
        <time>2020-06-16T13:57:09Z</time>
      </trkpt>
      <trkpt lat="49.38991" lon="-1.07155">
        <ele>1.9</ele>
        <time>2020-06-16T13:57:10Z</time>
      </trkpt>
      <trkpt lat="49.38992" lon="-1.07151">
        <ele>1.9</ele>
        <time>2020-06-16T13:57:11Z</time>
      </trkpt>
      <trkpt lat="49.38993" lon="-1.07146">
        <ele>1.9</ele>
        <time>2020-06-16T13:57:12Z</time>
      </trkpt>
      <trkpt lat="49.38995" lon="-1.07141">
        <ele>1.9</ele>
        <time>2020-06-16T13:57:13Z</time>
      </trkpt>
      <trkpt lat="49.38996" lon="-1.07136">
        <ele>1.9</ele>
        <time>2020-06-16T13:57:14Z</time>
      </trkpt>
      <trkpt lat="49.38997" lon="-1.07131">
        <ele>1.9</ele>
        <time>2020-06-16T13:57:15Z</time>
      </trkpt>
      <trkpt lat="49.38998" lon="-1.07127">
        <ele>1.9</ele>
        <time>2020-06-16T13:57:16Z</time>
      </trkpt>
      <trkpt lat="49.39" lon="-1.07123">
        <ele>1.8</ele>
        <time>2020-06-16T13:57:17Z</time>
      </trkpt>
      <trkpt lat="49.39001" lon="-1.07118">
        <ele>1.8</ele>
        <time>2020-06-16T13:57:18Z</time>
      </trkpt>
      <trkpt lat="49.39003" lon="-1.07114">
        <ele>1.8</ele>
        <time>2020-06-16T13:57:19Z</time>
      </trkpt>
      <trkpt lat="49.39004" lon="-1.07109">
        <ele>1.8</ele>
        <time>2020-06-16T13:57:20Z</time>
      </trkpt>
      <trkpt lat="49.39006" lon="-1.07104">
        <ele>1.8</ele>
        <time>2020-06-16T13:57:21Z</time>
      </trkpt>
      <trkpt lat="49.39007" lon="-1.07099">
        <ele>1.8</ele>
        <time>2020-06-16T13:57:22Z</time>
      </trkpt>
      <trkpt lat="49.39009" lon="-1.07095">
        <ele>1.8</ele>
        <time>2020-06-16T13:57:23Z</time>
      </trkpt>
      <trkpt lat="49.3901" lon="-1.07091">
        <ele>1.9</ele>
        <time>2020-06-16T13:57:24Z</time>
      </trkpt>
      <trkpt lat="49.39011" lon="-1.07087">
        <ele>1.9</ele>
        <time>2020-06-16T13:57:25Z</time>
      </trkpt>
      <trkpt lat="49.39012" lon="-1.07081">
        <ele>1.9</ele>
        <time>2020-06-16T13:57:26Z</time>
      </trkpt>
      <trkpt lat="49.39013" lon="-1.0708">
        <ele>1.9</ele>
        <time>2020-06-16T13:57:27Z</time>
      </trkpt>
      <trkpt lat="49.39014" lon="-1.07075">
        <ele>2</ele>
        <time>2020-06-16T13:57:28Z</time>
      </trkpt>
      <trkpt lat="49.39015" lon="-1.07074">
        <ele>2</ele>
        <time>2020-06-16T13:57:29Z</time>
      </trkpt>
      <trkpt lat="49.39017" lon="-1.07069">
        <ele>2</ele>
        <time>2020-06-16T13:57:30Z</time>
      </trkpt>
      <trkpt lat="49.39017" lon="-1.07068">
        <ele>2</ele>
        <time>2020-06-16T13:57:31Z</time>
      </trkpt>
      <trkpt lat="49.39019" lon="-1.07063">
        <ele>2</ele>
        <time>2020-06-16T13:57:32Z</time>
      </trkpt>
      <trkpt lat="49.39019" lon="-1.07061">
        <ele>2</ele>
        <time>2020-06-16T13:57:33Z</time>
      </trkpt>
      <trkpt lat="49.3902" lon="-1.07056">
        <ele>2</ele>
        <time>2020-06-16T13:57:34Z</time>
      </trkpt>
      <trkpt lat="49.39021" lon="-1.07054">
        <ele>2</ele>
        <time>2020-06-16T13:57:35Z</time>
      </trkpt>
      <trkpt lat="49.39022" lon="-1.07049">
        <ele>2</ele>
        <time>2020-06-16T13:57:36Z</time>
      </trkpt>
      <trkpt lat="49.39023" lon="-1.07048">
        <ele>2</ele>
        <time>2020-06-16T13:57:37Z</time>
      </trkpt>
      <trkpt lat="49.39023" lon="-1.07045">
        <ele>2</ele>
        <time>2020-06-16T13:57:38Z</time>
      </trkpt>
      <trkpt lat="49.39023" lon="-1.07044">
        <ele>2</ele>
        <time>2020-06-16T13:57:39Z</time>
      </trkpt>
      <trkpt lat="49.39024" lon="-1.07041">
        <ele>2</ele>
        <time>2020-06-16T13:57:40Z</time>
      </trkpt>
      <trkpt lat="49.39024" lon="-1.07039">
        <ele>1.9</ele>
        <time>2020-06-16T13:57:41Z</time>
      </trkpt>
      <trkpt lat="49.39024" lon="-1.07038">
        <ele>1.9</ele>
        <time>2020-06-16T13:57:42Z</time>
      </trkpt>
      <trkpt lat="49.39025" lon="-1.07035">
        <ele>1.9</ele>
        <time>2020-06-16T13:57:43Z</time>
      </trkpt>
      <trkpt lat="49.39025" lon="-1.07033">
        <ele>1.9</ele>
        <time>2020-06-16T13:57:44Z</time>
      </trkpt>
      <trkpt lat="49.39026" lon="-1.0703">
        <ele>1.9</ele>
        <time>2020-06-16T13:57:45Z</time>
      </trkpt>
      <trkpt lat="49.39026" lon="-1.07028">
        <ele>1.9</ele>
        <time>2020-06-16T13:57:46Z</time>
      </trkpt>
      <trkpt lat="49.39026" lon="-1.07026">
        <ele>1.8</ele>
        <time>2020-06-16T13:57:47Z</time>
      </trkpt>
      <trkpt lat="49.39027" lon="-1.07024">
        <ele>1.8</ele>
        <time>2020-06-16T13:57:48Z</time>
      </trkpt>
      <trkpt lat="49.39027" lon="-1.07023">
        <ele>1.8</ele>
        <time>2020-06-16T13:57:49Z</time>
      </trkpt>
      <trkpt lat="49.39027" lon="-1.0702">
        <ele>1.8</ele>
        <time>2020-06-16T13:57:50Z</time>
      </trkpt>
      <trkpt lat="49.39026" lon="-1.07018">
        <ele>1.8</ele>
        <time>2020-06-16T13:57:51Z</time>
      </trkpt>
      <trkpt lat="49.39023" lon="-1.07015">
        <ele>1.7</ele>
        <time>2020-06-16T13:57:52Z</time>
      </trkpt>
      <trkpt lat="49.39022" lon="-1.07013">
        <ele>1.7</ele>
        <time>2020-06-16T13:57:53Z</time>
      </trkpt>
      <trkpt lat="49.39019" lon="-1.07009">
        <ele>1.7</ele>
        <time>2020-06-16T13:57:54Z</time>
      </trkpt>
      <trkpt lat="49.39018" lon="-1.07008">
        <ele>1.7</ele>
        <time>2020-06-16T13:57:55Z</time>
      </trkpt>
      <trkpt lat="49.39016" lon="-1.07005">
        <ele>1.7</ele>
        <time>2020-06-16T13:57:56Z</time>
      </trkpt>
      <trkpt lat="49.39015" lon="-1.07005">
        <ele>1.7</ele>
        <time>2020-06-16T13:57:57Z</time>
      </trkpt>
      <trkpt lat="49.39013" lon="-1.07004">
        <ele>1.7</ele>
        <time>2020-06-16T13:57:58Z</time>
      </trkpt>
      <trkpt lat="49.39012" lon="-1.07002">
        <ele>1.7</ele>
        <time>2020-06-16T13:57:59Z</time>
      </trkpt>
      <trkpt lat="49.39009" lon="-1.06998">
        <ele>1.7</ele>
        <time>2020-06-16T13:58:00Z</time>
      </trkpt>
      <trkpt lat="49.39008" lon="-1.06996">
        <ele>1.7</ele>
        <time>2020-06-16T13:58:01Z</time>
      </trkpt>
      <trkpt lat="49.39006" lon="-1.06991">
        <ele>1.7</ele>
        <time>2020-06-16T13:58:02Z</time>
      </trkpt>
      <trkpt lat="49.39003" lon="-1.06986">
        <ele>1.7</ele>
        <time>2020-06-16T13:58:03Z</time>
      </trkpt>
      <trkpt lat="49.39001" lon="-1.06982">
        <ele>1.7</ele>
        <time>2020-06-16T13:58:04Z</time>
      </trkpt>
      <trkpt lat="49.38999" lon="-1.0698">
        <ele>1.7</ele>
        <time>2020-06-16T13:58:05Z</time>
      </trkpt>
      <trkpt lat="49.38995" lon="-1.06978">
        <ele>1.7</ele>
        <time>2020-06-16T13:58:06Z</time>
      </trkpt>
      <trkpt lat="49.38994" lon="-1.06977">
        <ele>1.7</ele>
        <time>2020-06-16T13:58:07Z</time>
      </trkpt>
      <trkpt lat="49.38992" lon="-1.06973">
        <ele>1.7</ele>
        <time>2020-06-16T13:58:08Z</time>
      </trkpt>
      <trkpt lat="49.38991" lon="-1.06972">
        <ele>1.7</ele>
        <time>2020-06-16T13:58:09Z</time>
      </trkpt>
      <trkpt lat="49.38989" lon="-1.06969">
        <ele>1.8</ele>
        <time>2020-06-16T13:58:10Z</time>
      </trkpt>
      <trkpt lat="49.38988" lon="-1.06968">
        <ele>1.8</ele>
        <time>2020-06-16T13:58:11Z</time>
      </trkpt>
      <trkpt lat="49.38987" lon="-1.06966">
        <ele>1.8</ele>
        <time>2020-06-16T13:58:12Z</time>
      </trkpt>
      <trkpt lat="49.38985" lon="-1.06965">
        <ele>1.9</ele>
        <time>2020-06-16T13:58:13Z</time>
      </trkpt>
      <trkpt lat="49.38984" lon="-1.06961">
        <ele>1.9</ele>
        <time>2020-06-16T13:58:14Z</time>
      </trkpt>
      <trkpt lat="49.38983" lon="-1.06959">
        <ele>1.9</ele>
        <time>2020-06-16T13:58:15Z</time>
      </trkpt>
      <trkpt lat="49.38982" lon="-1.06958">
        <ele>2</ele>
        <time>2020-06-16T13:58:16Z</time>
      </trkpt>
      <trkpt lat="49.38981" lon="-1.06958">
        <ele>2</ele>
        <time>2020-06-16T13:58:17Z</time>
      </trkpt>
      <trkpt lat="49.38981" lon="-1.06956">
        <ele>2</ele>
        <time>2020-06-16T13:58:18Z</time>
      </trkpt>
      <trkpt lat="49.38981" lon="-1.06955">
        <ele>2.1</ele>
        <time>2020-06-16T13:58:19Z</time>
      </trkpt>
      <trkpt lat="49.38981" lon="-1.06955">
        <ele>2.1</ele>
        <time>2020-06-16T13:58:20Z</time>
      </trkpt>
      <trkpt lat="49.38981" lon="-1.06955">
        <ele>2.1</ele>
        <time>2020-06-16T13:58:21Z</time>
      </trkpt>
      <trkpt lat="49.3898" lon="-1.06953">
        <ele>2.1</ele>
        <time>2020-06-16T13:58:22Z</time>
      </trkpt>
      <trkpt lat="49.38978" lon="-1.06952">
        <ele>2.2</ele>
        <time>2020-06-16T13:58:23Z</time>
      </trkpt>
      <trkpt lat="49.38978" lon="-1.06951">
        <ele>2.2</ele>
        <time>2020-06-16T13:58:24Z</time>
      </trkpt>
      <trkpt lat="49.38976" lon="-1.06951">
        <ele>2.2</ele>
        <time>2020-06-16T13:58:25Z</time>
      </trkpt>
      <trkpt lat="49.38976" lon="-1.06951">
        <ele>2.2</ele>
        <time>2020-06-16T13:58:26Z</time>
      </trkpt>
      <trkpt lat="49.38974" lon="-1.0695">
        <ele>2.3</ele>
        <time>2020-06-16T13:58:27Z</time>
      </trkpt>
      <trkpt lat="49.38973" lon="-1.0695">
        <ele>2.3</ele>
        <time>2020-06-16T13:58:28Z</time>
      </trkpt>
      <trkpt lat="49.38972" lon="-1.0695">
        <ele>2.3</ele>
        <time>2020-06-16T13:58:29Z</time>
      </trkpt>
      <trkpt lat="49.38971" lon="-1.0695">
        <ele>2.4</ele>
        <time>2020-06-16T13:58:30Z</time>
      </trkpt>
      <trkpt lat="49.38969" lon="-1.0695">
        <ele>2.4</ele>
        <time>2020-06-16T13:58:31Z</time>
      </trkpt>
      <trkpt lat="49.38968" lon="-1.06948">
        <ele>2.5</ele>
        <time>2020-06-16T13:58:32Z</time>
      </trkpt>
      <trkpt lat="49.38968" lon="-1.06948">
        <ele>2.5</ele>
        <time>2020-06-16T13:58:33Z</time>
      </trkpt>
      <trkpt lat="49.38967" lon="-1.06948">
        <ele>2.5</ele>
        <time>2020-06-16T13:58:34Z</time>
      </trkpt>
      <trkpt lat="49.38965" lon="-1.06945">
        <ele>2.5</ele>
        <time>2020-06-16T13:58:35Z</time>
      </trkpt>
      <trkpt lat="49.38965" lon="-1.06944">
        <ele>2.6</ele>
        <time>2020-06-16T13:58:36Z</time>
      </trkpt>
      <trkpt lat="49.38964" lon="-1.06943">
        <ele>2.6</ele>
        <time>2020-06-16T13:58:37Z</time>
      </trkpt>
      <trkpt lat="49.38962" lon="-1.06941">
        <ele>2.6</ele>
        <time>2020-06-16T13:58:38Z</time>
      </trkpt>
      <trkpt lat="49.38961" lon="-1.0694">
        <ele>2.7</ele>
        <time>2020-06-16T13:58:39Z</time>
      </trkpt>
      <trkpt lat="49.3896" lon="-1.06939">
        <ele>2.7</ele>
        <time>2020-06-16T13:58:40Z</time>
      </trkpt>
      <trkpt lat="49.38959" lon="-1.06938">
        <ele>2.7</ele>
        <time>2020-06-16T13:58:41Z</time>
      </trkpt>
      <trkpt lat="49.38959" lon="-1.06937">
        <ele>2.8</ele>
        <time>2020-06-16T13:58:42Z</time>
      </trkpt>
      <trkpt lat="49.38958" lon="-1.06935">
        <ele>2.8</ele>
        <time>2020-06-16T13:58:43Z</time>
      </trkpt>
      <trkpt lat="49.38957" lon="-1.06935">
        <ele>2.8</ele>
        <time>2020-06-16T13:58:44Z</time>
      </trkpt>
      <trkpt lat="49.38956" lon="-1.06934">
        <ele>2.8</ele>
        <time>2020-06-16T13:58:45Z</time>
      </trkpt>
      <trkpt lat="49.38955" lon="-1.06934">
        <ele>2.9</ele>
        <time>2020-06-16T13:58:46Z</time>
      </trkpt>
      <trkpt lat="49.38955" lon="-1.06933">
        <ele>2.9</ele>
        <time>2020-06-16T13:58:47Z</time>
      </trkpt>
      <trkpt lat="49.38955" lon="-1.06933">
        <ele>2.9</ele>
        <time>2020-06-16T13:58:48Z</time>
      </trkpt>
      <trkpt lat="49.38955" lon="-1.06933">
        <ele>2.9</ele>
        <time>2020-06-16T13:58:49Z</time>
      </trkpt>
      <trkpt lat="49.38955" lon="-1.06933">
        <ele>2.9</ele>
        <time>2020-06-16T13:58:50Z</time>
      </trkpt>
      <trkpt lat="49.38954" lon="-1.06931">
        <ele>2.9</ele>
        <time>2020-06-16T13:58:51Z</time>
      </trkpt>
      <trkpt lat="49.38954" lon="-1.06931">
        <ele>2.9</ele>
        <time>2020-06-16T13:58:52Z</time>
      </trkpt>
      <trkpt lat="49.38953" lon="-1.0693">
        <ele>2.9</ele>
        <time>2020-06-16T13:58:53Z</time>
      </trkpt>
      <trkpt lat="49.38953" lon="-1.0693">
        <ele>2.9</ele>
        <time>2020-06-16T13:58:54Z</time>
      </trkpt>
      <trkpt lat="49.38953" lon="-1.0693">
        <ele>2.9</ele>
        <time>2020-06-16T13:58:55Z</time>
      </trkpt>
      <trkpt lat="49.38953" lon="-1.06929">
        <ele>2.9</ele>
        <time>2020-06-16T13:58:56Z</time>
      </trkpt>
      <trkpt lat="49.38953" lon="-1.06929">
        <ele>2.8</ele>
        <time>2020-06-16T13:58:57Z</time>
      </trkpt>
      <trkpt lat="49.38953" lon="-1.06928">
        <ele>2.8</ele>
        <time>2020-06-16T13:58:58Z</time>
      </trkpt>
      <trkpt lat="49.38953" lon="-1.06929">
        <ele>2.8</ele>
        <time>2020-06-16T13:58:59Z</time>
      </trkpt>
      <trkpt lat="49.38953" lon="-1.06928">
        <ele>2.8</ele>
        <time>2020-06-16T13:59:00Z</time>
      </trkpt>
      <trkpt lat="49.38953" lon="-1.06928">
        <ele>2.8</ele>
        <time>2020-06-16T13:59:01Z</time>
      </trkpt>
      <trkpt lat="49.38953" lon="-1.06928">
        <ele>2.8</ele>
        <time>2020-06-16T13:59:02Z</time>
      </trkpt>
      <trkpt lat="49.38953" lon="-1.06928">
        <ele>2.8</ele>
        <time>2020-06-16T13:59:03Z</time>
      </trkpt>
      <trkpt lat="49.38953" lon="-1.06927">
        <ele>2.8</ele>
        <time>2020-06-16T13:59:04Z</time>
      </trkpt>
      <trkpt lat="49.38953" lon="-1.06927">
        <ele>2.8</ele>
        <time>2020-06-16T13:59:05Z</time>
      </trkpt>
      <trkpt lat="49.38953" lon="-1.06927">
        <ele>2.8</ele>
        <time>2020-06-16T13:59:06Z</time>
      </trkpt>
      <trkpt lat="49.38953" lon="-1.06927">
        <ele>2.8</ele>
        <time>2020-06-16T13:59:07Z</time>
      </trkpt>
      <trkpt lat="49.38953" lon="-1.06927">
        <ele>2.8</ele>
        <time>2020-06-16T13:59:08Z</time>
      </trkpt>
      <trkpt lat="49.38954" lon="-1.06923">
        <ele>2.8</ele>
        <time>2020-06-16T13:59:30Z</time>
      </trkpt>
      <trkpt lat="49.38955" lon="-1.06924">
        <ele>2.8</ele>
        <time>2020-06-16T13:59:31Z</time>
      </trkpt>
      <trkpt lat="49.38955" lon="-1.06925">
        <ele>2.8</ele>
        <time>2020-06-16T13:59:32Z</time>
      </trkpt>
      <trkpt lat="49.38955" lon="-1.06926">
        <ele>2.8</ele>
        <time>2020-06-16T13:59:33Z</time>
      </trkpt>
      <trkpt lat="49.38955" lon="-1.06926">
        <ele>2.8</ele>
        <time>2020-06-16T13:59:34Z</time>
      </trkpt>
      <trkpt lat="49.38956" lon="-1.06926">
        <ele>2.7</ele>
        <time>2020-06-16T13:59:35Z</time>
      </trkpt>
      <trkpt lat="49.38956" lon="-1.06927">
        <ele>2.7</ele>
        <time>2020-06-16T13:59:36Z</time>
      </trkpt>
      <trkpt lat="49.38957" lon="-1.06928">
        <ele>2.7</ele>
        <time>2020-06-16T13:59:37Z</time>
      </trkpt>
      <trkpt lat="49.38957" lon="-1.06929">
        <ele>2.7</ele>
        <time>2020-06-16T13:59:38Z</time>
      </trkpt>
      <trkpt lat="49.38958" lon="-1.0693">
        <ele>2.7</ele>
        <time>2020-06-16T13:59:39Z</time>
      </trkpt>
      <trkpt lat="49.38958" lon="-1.06931">
        <ele>2.7</ele>
        <time>2020-06-16T13:59:40Z</time>
      </trkpt>
      <trkpt lat="49.38959" lon="-1.06933">
        <ele>2.7</ele>
        <time>2020-06-16T13:59:41Z</time>
      </trkpt>
      <trkpt lat="49.3896" lon="-1.06935">
        <ele>2.6</ele>
        <time>2020-06-16T13:59:42Z</time>
      </trkpt>
      <trkpt lat="49.38962" lon="-1.06937">
        <ele>2.6</ele>
        <time>2020-06-16T13:59:43Z</time>
      </trkpt>
      <trkpt lat="49.38962" lon="-1.06938">
        <ele>2.6</ele>
        <time>2020-06-16T13:59:44Z</time>
      </trkpt>
      <trkpt lat="49.38962" lon="-1.06939">
        <ele>2.6</ele>
        <time>2020-06-16T13:59:45Z</time>
      </trkpt>
      <trkpt lat="49.38962" lon="-1.06941">
        <ele>2.6</ele>
        <time>2020-06-16T13:59:46Z</time>
      </trkpt>
      <trkpt lat="49.38963" lon="-1.06942">
        <ele>2.6</ele>
        <time>2020-06-16T13:59:47Z</time>
      </trkpt>
      <trkpt lat="49.38964" lon="-1.06944">
        <ele>2.5</ele>
        <time>2020-06-16T13:59:48Z</time>
      </trkpt>
      <trkpt lat="49.38965" lon="-1.06945">
        <ele>2.5</ele>
        <time>2020-06-16T13:59:49Z</time>
      </trkpt>
      <trkpt lat="49.38966" lon="-1.06946">
        <ele>2.5</ele>
        <time>2020-06-16T13:59:50Z</time>
      </trkpt>
      <trkpt lat="49.38967" lon="-1.06948">
        <ele>2.5</ele>
        <time>2020-06-16T13:59:51Z</time>
      </trkpt>
      <trkpt lat="49.38969" lon="-1.06949">
        <ele>2.5</ele>
        <time>2020-06-16T13:59:52Z</time>
      </trkpt>
      <trkpt lat="49.3897" lon="-1.0695">
        <ele>2.4</ele>
        <time>2020-06-16T13:59:53Z</time>
      </trkpt>
      <trkpt lat="49.38971" lon="-1.06951">
        <ele>2.4</ele>
        <time>2020-06-16T13:59:54Z</time>
      </trkpt>
      <trkpt lat="49.38971" lon="-1.06951">
        <ele>2.4</ele>
        <time>2020-06-16T13:59:55Z</time>
      </trkpt>
      <trkpt lat="49.38972" lon="-1.06952">
        <ele>2.4</ele>
        <time>2020-06-16T13:59:56Z</time>
      </trkpt>
      <trkpt lat="49.38973" lon="-1.06953">
        <ele>2.4</ele>
        <time>2020-06-16T13:59:57Z</time>
      </trkpt>
      <trkpt lat="49.38974" lon="-1.06954">
        <ele>2.4</ele>
        <time>2020-06-16T13:59:58Z</time>
      </trkpt>
      <trkpt lat="49.38975" lon="-1.06956">
        <ele>2.4</ele>
        <time>2020-06-16T13:59:59Z</time>
      </trkpt>
      <trkpt lat="49.38976" lon="-1.06956">
        <ele>2.3</ele>
        <time>2020-06-16T14:00:00Z</time>
      </trkpt>
      <trkpt lat="49.38976" lon="-1.06957">
        <ele>2.3</ele>
        <time>2020-06-16T14:00:01Z</time>
      </trkpt>
      <trkpt lat="49.38977" lon="-1.06957">
        <ele>2.3</ele>
        <time>2020-06-16T14:00:02Z</time>
      </trkpt>
      <trkpt lat="49.38978" lon="-1.06958">
        <ele>2.3</ele>
        <time>2020-06-16T14:00:03Z</time>
      </trkpt>
      <trkpt lat="49.38979" lon="-1.06958">
        <ele>2.3</ele>
        <time>2020-06-16T14:00:04Z</time>
      </trkpt>
      <trkpt lat="49.38979" lon="-1.06959">
        <ele>2.3</ele>
        <time>2020-06-16T14:00:05Z</time>
      </trkpt>
      <trkpt lat="49.38979" lon="-1.06959">
        <ele>2.3</ele>
        <time>2020-06-16T14:00:06Z</time>
      </trkpt>
      <trkpt lat="49.3898" lon="-1.06959">
        <ele>2.3</ele>
        <time>2020-06-16T14:00:07Z</time>
      </trkpt>
      <trkpt lat="49.3898" lon="-1.0696">
        <ele>2.3</ele>
        <time>2020-06-16T14:00:08Z</time>
      </trkpt>
      <trkpt lat="49.38981" lon="-1.06961">
        <ele>2.2</ele>
        <time>2020-06-16T14:00:09Z</time>
      </trkpt>
      <trkpt lat="49.38982" lon="-1.06964">
        <ele>2.2</ele>
        <time>2020-06-16T14:00:10Z</time>
      </trkpt>
      <trkpt lat="49.38983" lon="-1.06965">
        <ele>2.2</ele>
        <time>2020-06-16T14:00:11Z</time>
      </trkpt>
      <trkpt lat="49.38983" lon="-1.06966">
        <ele>2.2</ele>
        <time>2020-06-16T14:00:12Z</time>
      </trkpt>
      <trkpt lat="49.38985" lon="-1.0697">
        <ele>2.1</ele>
        <time>2020-06-16T14:00:13Z</time>
      </trkpt>
      <trkpt lat="49.38986" lon="-1.06971">
        <ele>2.1</ele>
        <time>2020-06-16T14:00:14Z</time>
      </trkpt>
      <trkpt lat="49.38988" lon="-1.06975">
        <ele>2.1</ele>
        <time>2020-06-16T14:00:15Z</time>
      </trkpt>
      <trkpt lat="49.38988" lon="-1.06976">
        <ele>2.1</ele>
        <time>2020-06-16T14:00:16Z</time>
      </trkpt>
      <trkpt lat="49.38991" lon="-1.06979">
        <ele>2</ele>
        <time>2020-06-16T14:00:17Z</time>
      </trkpt>
      <trkpt lat="49.38992" lon="-1.06981">
        <ele>2</ele>
        <time>2020-06-16T14:00:18Z</time>
      </trkpt>
      <trkpt lat="49.38995" lon="-1.06984">
        <ele>1.9</ele>
        <time>2020-06-16T14:00:19Z</time>
      </trkpt>
      <trkpt lat="49.38996" lon="-1.06985">
        <ele>1.9</ele>
        <time>2020-06-16T14:00:20Z</time>
      </trkpt>
      <trkpt lat="49.38998" lon="-1.06988">
        <ele>1.9</ele>
        <time>2020-06-16T14:00:21Z</time>
      </trkpt>
      <trkpt lat="49.38999" lon="-1.0699">
        <ele>1.9</ele>
        <time>2020-06-16T14:00:22Z</time>
      </trkpt>
      <trkpt lat="49.39001" lon="-1.06994">
        <ele>1.8</ele>
        <time>2020-06-16T14:00:23Z</time>
      </trkpt>
      <trkpt lat="49.39002" lon="-1.06995">
        <ele>1.8</ele>
        <time>2020-06-16T14:00:24Z</time>
      </trkpt>
      <trkpt lat="49.39003" lon="-1.06996">
        <ele>1.8</ele>
        <time>2020-06-16T14:00:25Z</time>
      </trkpt>
      <trkpt lat="49.39004" lon="-1.06996">
        <ele>1.8</ele>
        <time>2020-06-16T14:00:26Z</time>
      </trkpt>
      <trkpt lat="49.39005" lon="-1.06997">
        <ele>1.8</ele>
        <time>2020-06-16T14:00:27Z</time>
      </trkpt>
      <trkpt lat="49.39006" lon="-1.06997">
        <ele>1.8</ele>
        <time>2020-06-16T14:00:28Z</time>
      </trkpt>
      <trkpt lat="49.39007" lon="-1.06998">
        <ele>1.8</ele>
        <time>2020-06-16T14:00:29Z</time>
      </trkpt>
      <trkpt lat="49.39009" lon="-1.06997">
        <ele>1.7</ele>
        <time>2020-06-16T14:00:30Z</time>
      </trkpt>
      <trkpt lat="49.3901" lon="-1.06994">
        <ele>1.7</ele>
        <time>2020-06-16T14:00:31Z</time>
      </trkpt>
      <trkpt lat="49.3901" lon="-1.06994">
        <ele>1.7</ele>
        <time>2020-06-16T14:00:32Z</time>
      </trkpt>
      <trkpt lat="49.3901" lon="-1.06994">
        <ele>1.7</ele>
        <time>2020-06-16T14:00:33Z</time>
      </trkpt>
      <trkpt lat="49.3901" lon="-1.06994">
        <ele>1.7</ele>
        <time>2020-06-16T14:00:34Z</time>
      </trkpt>
      <trkpt lat="49.39011" lon="-1.06993">
        <ele>1.7</ele>
        <time>2020-06-16T14:00:35Z</time>
      </trkpt>
      <trkpt lat="49.39012" lon="-1.06992">
        <ele>1.8</ele>
        <time>2020-06-16T14:00:36Z</time>
      </trkpt>
      <trkpt lat="49.39012" lon="-1.06989">
        <ele>1.8</ele>
        <time>2020-06-16T14:00:37Z</time>
      </trkpt>
      <trkpt lat="49.39012" lon="-1.06987">
        <ele>1.8</ele>
        <time>2020-06-16T14:00:38Z</time>
      </trkpt>
      <trkpt lat="49.39012" lon="-1.06984">
        <ele>1.8</ele>
        <time>2020-06-16T14:00:39Z</time>
      </trkpt>
      <trkpt lat="49.39012" lon="-1.06982">
        <ele>1.9</ele>
        <time>2020-06-16T14:00:40Z</time>
      </trkpt>
      <trkpt lat="49.39013" lon="-1.06981">
        <ele>1.9</ele>
        <time>2020-06-16T14:00:41Z</time>
      </trkpt>
      <trkpt lat="49.39013" lon="-1.06982">
        <ele>1.9</ele>
        <time>2020-06-16T14:00:42Z</time>
      </trkpt>
      <trkpt lat="49.39013" lon="-1.06981">
        <ele>1.9</ele>
        <time>2020-06-16T14:00:43Z</time>
      </trkpt>
      <trkpt lat="49.39013" lon="-1.06981">
        <ele>1.9</ele>
        <time>2020-06-16T14:00:44Z</time>
      </trkpt>
      <trkpt lat="49.39013" lon="-1.06981">
        <ele>1.9</ele>
        <time>2020-06-16T14:00:45Z</time>
      </trkpt>
      <trkpt lat="49.39013" lon="-1.06981">
        <ele>1.9</ele>
        <time>2020-06-16T14:00:46Z</time>
      </trkpt>
      <trkpt lat="49.39013" lon="-1.0698">
        <ele>1.9</ele>
        <time>2020-06-16T14:00:47Z</time>
      </trkpt>
      <trkpt lat="49.39013" lon="-1.06979">
        <ele>1.9</ele>
        <time>2020-06-16T14:00:48Z</time>
      </trkpt>
      <trkpt lat="49.39014" lon="-1.06978">
        <ele>2</ele>
        <time>2020-06-16T14:00:49Z</time>
      </trkpt>
      <trkpt lat="49.39014" lon="-1.06978">
        <ele>2</ele>
        <time>2020-06-16T14:00:50Z</time>
      </trkpt>
      <trkpt lat="49.39014" lon="-1.06977">
        <ele>2</ele>
        <time>2020-06-16T14:00:51Z</time>
      </trkpt>
      <trkpt lat="49.39014" lon="-1.06977">
        <ele>2</ele>
        <time>2020-06-16T14:00:52Z</time>
      </trkpt>
      <trkpt lat="49.39015" lon="-1.06976">
        <ele>2</ele>
        <time>2020-06-16T14:00:53Z</time>
      </trkpt>
      <trkpt lat="49.39015" lon="-1.06974">
        <ele>2</ele>
        <time>2020-06-16T14:00:54Z</time>
      </trkpt>
      <trkpt lat="49.39015" lon="-1.06973">
        <ele>2.1</ele>
        <time>2020-06-16T14:00:55Z</time>
      </trkpt>
      <trkpt lat="49.39015" lon="-1.06972">
        <ele>2.1</ele>
        <time>2020-06-16T14:00:56Z</time>
      </trkpt>
      <trkpt lat="49.39015" lon="-1.06969">
        <ele>2.2</ele>
        <time>2020-06-16T14:00:57Z</time>
      </trkpt>
      <trkpt lat="49.39015" lon="-1.06967">
        <ele>2.2</ele>
        <time>2020-06-16T14:00:58Z</time>
      </trkpt>
      <trkpt lat="49.39015" lon="-1.06966">
        <ele>2.2</ele>
        <time>2020-06-16T14:00:59Z</time>
      </trkpt>
      <trkpt lat="49.39015" lon="-1.06961">
        <ele>2.3</ele>
        <time>2020-06-16T14:01:00Z</time>
      </trkpt>
      <trkpt lat="49.39015" lon="-1.06959">
        <ele>2.3</ele>
        <time>2020-06-16T14:01:01Z</time>
      </trkpt>
      <trkpt lat="49.39015" lon="-1.06954">
        <ele>2.4</ele>
        <time>2020-06-16T14:01:02Z</time>
      </trkpt>
      <trkpt lat="49.39014" lon="-1.06953">
        <ele>2.4</ele>
        <time>2020-06-16T14:01:03Z</time>
      </trkpt>
      <trkpt lat="49.39014" lon="-1.06946">
        <ele>2.6</ele>
        <time>2020-06-16T14:01:04Z</time>
      </trkpt>
      <trkpt lat="49.39014" lon="-1.06944">
        <ele>2.6</ele>
        <time>2020-06-16T14:01:05Z</time>
      </trkpt>
      <trkpt lat="49.39014" lon="-1.06938">
        <ele>2.7</ele>
        <time>2020-06-16T14:01:06Z</time>
      </trkpt>
      <trkpt lat="49.39014" lon="-1.06933">
        <ele>2.8</ele>
        <time>2020-06-16T14:01:07Z</time>
      </trkpt>
      <trkpt lat="49.39014" lon="-1.06928">
        <ele>2.9</ele>
        <time>2020-06-16T14:01:08Z</time>
      </trkpt>
      <trkpt lat="49.39014" lon="-1.06923">
        <ele>2.9</ele>
        <time>2020-06-16T14:01:09Z</time>
      </trkpt>
      <trkpt lat="49.39013" lon="-1.06918">
        <ele>3</ele>
        <time>2020-06-16T14:01:10Z</time>
      </trkpt>
      <trkpt lat="49.39013" lon="-1.06913">
        <ele>3.1</ele>
        <time>2020-06-16T14:01:11Z</time>
      </trkpt>
      <trkpt lat="49.39012" lon="-1.06909">
        <ele>3.1</ele>
        <time>2020-06-16T14:01:12Z</time>
      </trkpt>
      <trkpt lat="49.39013" lon="-1.06903">
        <ele>3.1</ele>
        <time>2020-06-16T14:01:13Z</time>
      </trkpt>
      <trkpt lat="49.39014" lon="-1.06901">
        <ele>3.1</ele>
        <time>2020-06-16T14:01:14Z</time>
      </trkpt>
      <trkpt lat="49.39013" lon="-1.06895">
        <ele>3.2</ele>
        <time>2020-06-16T14:01:15Z</time>
      </trkpt>
      <trkpt lat="49.39013" lon="-1.06893">
        <ele>3.2</ele>
        <time>2020-06-16T14:01:16Z</time>
      </trkpt>
      <trkpt lat="49.39012" lon="-1.06888">
        <ele>3.1</ele>
        <time>2020-06-16T14:01:17Z</time>
      </trkpt>
      <trkpt lat="49.39012" lon="-1.06883">
        <ele>3.1</ele>
        <time>2020-06-16T14:01:18Z</time>
      </trkpt>
      <trkpt lat="49.39012" lon="-1.06881">
        <ele>3.1</ele>
        <time>2020-06-16T14:01:19Z</time>
      </trkpt>
      <trkpt lat="49.39011" lon="-1.06875">
        <ele>3.1</ele>
        <time>2020-06-16T14:01:20Z</time>
      </trkpt>
      <trkpt lat="49.39011" lon="-1.06873">
        <ele>3.1</ele>
        <time>2020-06-16T14:01:21Z</time>
      </trkpt>
      <trkpt lat="49.3901" lon="-1.06867">
        <ele>3.1</ele>
        <time>2020-06-16T14:01:22Z</time>
      </trkpt>
      <trkpt lat="49.3901" lon="-1.06866">
        <ele>3.1</ele>
        <time>2020-06-16T14:01:23Z</time>
      </trkpt>
      <trkpt lat="49.3901" lon="-1.0686">
        <ele>3.1</ele>
        <time>2020-06-16T14:01:24Z</time>
      </trkpt>
      <trkpt lat="49.3901" lon="-1.06859">
        <ele>3.1</ele>
        <time>2020-06-16T14:01:25Z</time>
      </trkpt>
      <trkpt lat="49.39009" lon="-1.06852">
        <ele>3.1</ele>
        <time>2020-06-16T14:01:26Z</time>
      </trkpt>
      <trkpt lat="49.39009" lon="-1.0685">
        <ele>3.1</ele>
        <time>2020-06-16T14:01:27Z</time>
      </trkpt>
      <trkpt lat="49.39009" lon="-1.06846">
        <ele>3.1</ele>
        <time>2020-06-16T14:01:28Z</time>
      </trkpt>
      <trkpt lat="49.39009" lon="-1.06842">
        <ele>3.1</ele>
        <time>2020-06-16T14:01:29Z</time>
      </trkpt>
      <trkpt lat="49.39009" lon="-1.06837">
        <ele>3.2</ele>
        <time>2020-06-16T14:01:30Z</time>
      </trkpt>
      <trkpt lat="49.39009" lon="-1.06832">
        <ele>3.2</ele>
        <time>2020-06-16T14:01:31Z</time>
      </trkpt>
      <trkpt lat="49.39009" lon="-1.06827">
        <ele>3.2</ele>
        <time>2020-06-16T14:01:32Z</time>
      </trkpt>
      <trkpt lat="49.39008" lon="-1.06823">
        <ele>3.2</ele>
        <time>2020-06-16T14:01:33Z</time>
      </trkpt>
      <trkpt lat="49.39008" lon="-1.06818">
        <ele>3.2</ele>
        <time>2020-06-16T14:01:34Z</time>
      </trkpt>
      <trkpt lat="49.39008" lon="-1.06813">
        <ele>3.3</ele>
        <time>2020-06-16T14:01:35Z</time>
      </trkpt>
      <trkpt lat="49.39009" lon="-1.06808">
        <ele>3.3</ele>
        <time>2020-06-16T14:01:36Z</time>
      </trkpt>
      <trkpt lat="49.3901" lon="-1.06803">
        <ele>3.3</ele>
        <time>2020-06-16T14:01:37Z</time>
      </trkpt>
      <trkpt lat="49.3901" lon="-1.06798">
        <ele>3.3</ele>
        <time>2020-06-16T14:01:38Z</time>
      </trkpt>
      <trkpt lat="49.3901" lon="-1.06793">
        <ele>3.3</ele>
        <time>2020-06-16T14:01:39Z</time>
      </trkpt>
      <trkpt lat="49.39011" lon="-1.06789">
        <ele>3.3</ele>
        <time>2020-06-16T14:01:40Z</time>
      </trkpt>
      <trkpt lat="49.39011" lon="-1.06784">
        <ele>3.3</ele>
        <time>2020-06-16T14:01:41Z</time>
      </trkpt>
      <trkpt lat="49.39011" lon="-1.06779">
        <ele>3.3</ele>
        <time>2020-06-16T14:01:42Z</time>
      </trkpt>
      <trkpt lat="49.3901" lon="-1.06774">
        <ele>3.3</ele>
        <time>2020-06-16T14:01:43Z</time>
      </trkpt>
      <trkpt lat="49.3901" lon="-1.06768">
        <ele>3.3</ele>
        <time>2020-06-16T14:01:44Z</time>
      </trkpt>
      <trkpt lat="49.3901" lon="-1.06763">
        <ele>3.3</ele>
        <time>2020-06-16T14:01:45Z</time>
      </trkpt>
      <trkpt lat="49.3901" lon="-1.06759">
        <ele>3.3</ele>
        <time>2020-06-16T14:01:46Z</time>
      </trkpt>
      <trkpt lat="49.3901" lon="-1.06754">
        <ele>3.3</ele>
        <time>2020-06-16T14:01:47Z</time>
      </trkpt>
      <trkpt lat="49.39009" lon="-1.06749">
        <ele>3.3</ele>
        <time>2020-06-16T14:01:48Z</time>
      </trkpt>
      <trkpt lat="49.39009" lon="-1.06743">
        <ele>3.3</ele>
        <time>2020-06-16T14:01:49Z</time>
      </trkpt>
      <trkpt lat="49.39008" lon="-1.06741">
        <ele>3.3</ele>
        <time>2020-06-16T14:01:50Z</time>
      </trkpt>
      <trkpt lat="49.39008" lon="-1.06737">
        <ele>3.3</ele>
        <time>2020-06-16T14:01:51Z</time>
      </trkpt>
      <trkpt lat="49.39008" lon="-1.06731">
        <ele>3.3</ele>
        <time>2020-06-16T14:01:52Z</time>
      </trkpt>
      <trkpt lat="49.39007" lon="-1.06729">
        <ele>3.3</ele>
        <time>2020-06-16T14:01:53Z</time>
      </trkpt>
      <trkpt lat="49.39008" lon="-1.06725">
        <ele>3.3</ele>
        <time>2020-06-16T14:01:54Z</time>
      </trkpt>
      <trkpt lat="49.39008" lon="-1.06724">
        <ele>3.3</ele>
        <time>2020-06-16T14:01:55Z</time>
      </trkpt>
      <trkpt lat="49.39009" lon="-1.0672">
        <ele>3.3</ele>
        <time>2020-06-16T14:01:56Z</time>
      </trkpt>
      <trkpt lat="49.39009" lon="-1.06718">
        <ele>3.3</ele>
        <time>2020-06-16T14:01:57Z</time>
      </trkpt>
      <trkpt lat="49.39009" lon="-1.06716">
        <ele>3.3</ele>
        <time>2020-06-16T14:01:58Z</time>
      </trkpt>
      <trkpt lat="49.39009" lon="-1.06713">
        <ele>3.3</ele>
        <time>2020-06-16T14:01:59Z</time>
      </trkpt>
      <trkpt lat="49.39007" lon="-1.06709">
        <ele>3.3</ele>
        <time>2020-06-16T14:02:00Z</time>
      </trkpt>
      <trkpt lat="49.39007" lon="-1.06707">
        <ele>3.3</ele>
        <time>2020-06-16T14:02:01Z</time>
      </trkpt>
      <trkpt lat="49.39007" lon="-1.06704">
        <ele>3.3</ele>
        <time>2020-06-16T14:02:02Z</time>
      </trkpt>
      <trkpt lat="49.39007" lon="-1.06702">
        <ele>3.3</ele>
        <time>2020-06-16T14:02:03Z</time>
      </trkpt>
      <trkpt lat="49.39007" lon="-1.06701">
        <ele>3.3</ele>
        <time>2020-06-16T14:02:04Z</time>
      </trkpt>
      <trkpt lat="49.39008" lon="-1.06698">
        <ele>3.3</ele>
        <time>2020-06-16T14:02:05Z</time>
      </trkpt>
      <trkpt lat="49.39007" lon="-1.06696">
        <ele>3.3</ele>
        <time>2020-06-16T14:02:06Z</time>
      </trkpt>
      <trkpt lat="49.39007" lon="-1.06692">
        <ele>3.3</ele>
        <time>2020-06-16T14:02:07Z</time>
      </trkpt>
      <trkpt lat="49.39007" lon="-1.0669">
        <ele>3.3</ele>
        <time>2020-06-16T14:02:08Z</time>
      </trkpt>
      <trkpt lat="49.39007" lon="-1.06688">
        <ele>3.3</ele>
        <time>2020-06-16T14:02:09Z</time>
      </trkpt>
      <trkpt lat="49.39007" lon="-1.06686">
        <ele>3.3</ele>
        <time>2020-06-16T14:02:10Z</time>
      </trkpt>
      <trkpt lat="49.39008" lon="-1.06684">
        <ele>3.3</ele>
        <time>2020-06-16T14:02:11Z</time>
      </trkpt>
      <trkpt lat="49.39008" lon="-1.06682">
        <ele>3.3</ele>
        <time>2020-06-16T14:02:12Z</time>
      </trkpt>
      <trkpt lat="49.39008" lon="-1.06681">
        <ele>3.3</ele>
        <time>2020-06-16T14:02:13Z</time>
      </trkpt>
      <trkpt lat="49.39008" lon="-1.06678">
        <ele>3.3</ele>
        <time>2020-06-16T14:02:14Z</time>
      </trkpt>
      <trkpt lat="49.39008" lon="-1.06676">
        <ele>3.3</ele>
        <time>2020-06-16T14:02:15Z</time>
      </trkpt>
      <trkpt lat="49.39007" lon="-1.06671">
        <ele>3.3</ele>
        <time>2020-06-16T14:02:16Z</time>
      </trkpt>
      <trkpt lat="49.39007" lon="-1.0667">
        <ele>3.3</ele>
        <time>2020-06-16T14:02:17Z</time>
      </trkpt>
      <trkpt lat="49.39007" lon="-1.06666">
        <ele>3.3</ele>
        <time>2020-06-16T14:02:18Z</time>
      </trkpt>
      <trkpt lat="49.39006" lon="-1.06664">
        <ele>3.3</ele>
        <time>2020-06-16T14:02:19Z</time>
      </trkpt>
      <trkpt lat="49.39006" lon="-1.06662">
        <ele>3.3</ele>
        <time>2020-06-16T14:02:20Z</time>
      </trkpt>
      <trkpt lat="49.39006" lon="-1.06659">
        <ele>3.3</ele>
        <time>2020-06-16T14:02:21Z</time>
      </trkpt>
      <trkpt lat="49.39007" lon="-1.06657">
        <ele>3.3</ele>
        <time>2020-06-16T14:02:22Z</time>
      </trkpt>
      <trkpt lat="49.39007" lon="-1.06656">
        <ele>3.3</ele>
        <time>2020-06-16T14:02:23Z</time>
      </trkpt>
      <trkpt lat="49.39006" lon="-1.06655">
        <ele>3.3</ele>
        <time>2020-06-16T14:02:24Z</time>
      </trkpt>
      <trkpt lat="49.39006" lon="-1.06654">
        <ele>3.3</ele>
        <time>2020-06-16T14:02:25Z</time>
      </trkpt>
      <trkpt lat="49.39006" lon="-1.06653">
        <ele>3.3</ele>
        <time>2020-06-16T14:02:26Z</time>
      </trkpt>
      <trkpt lat="49.39006" lon="-1.0665">
        <ele>3.3</ele>
        <time>2020-06-16T14:02:27Z</time>
      </trkpt>
      <trkpt lat="49.39007" lon="-1.06646">
        <ele>3.3</ele>
        <time>2020-06-16T14:02:28Z</time>
      </trkpt>
      <trkpt lat="49.39007" lon="-1.06644">
        <ele>3.3</ele>
        <time>2020-06-16T14:02:29Z</time>
      </trkpt>
      <trkpt lat="49.39006" lon="-1.06639">
        <ele>3.3</ele>
        <time>2020-06-16T14:02:30Z</time>
      </trkpt>
      <trkpt lat="49.39006" lon="-1.06637">
        <ele>3.3</ele>
        <time>2020-06-16T14:02:31Z</time>
      </trkpt>
      <trkpt lat="49.39007" lon="-1.06632">
        <ele>3.3</ele>
        <time>2020-06-16T14:02:32Z</time>
      </trkpt>
      <trkpt lat="49.39008" lon="-1.0663">
        <ele>3.3</ele>
        <time>2020-06-16T14:02:33Z</time>
      </trkpt>
      <trkpt lat="49.39007" lon="-1.06627">
        <ele>3.3</ele>
        <time>2020-06-16T14:02:34Z</time>
      </trkpt>
      <trkpt lat="49.39007" lon="-1.06625">
        <ele>3.3</ele>
        <time>2020-06-16T14:02:35Z</time>
      </trkpt>
      <trkpt lat="49.39006" lon="-1.06622">
        <ele>3.3</ele>
        <time>2020-06-16T14:02:36Z</time>
      </trkpt>
      <trkpt lat="49.39006" lon="-1.06621">
        <ele>3.3</ele>
        <time>2020-06-16T14:02:37Z</time>
      </trkpt>
      <trkpt lat="49.39006" lon="-1.06619">
        <ele>3.3</ele>
        <time>2020-06-16T14:02:38Z</time>
      </trkpt>
      <trkpt lat="49.39006" lon="-1.06616">
        <ele>3.3</ele>
        <time>2020-06-16T14:02:39Z</time>
      </trkpt>
      <trkpt lat="49.39005" lon="-1.06614">
        <ele>3.3</ele>
        <time>2020-06-16T14:02:40Z</time>
      </trkpt>
      <trkpt lat="49.39005" lon="-1.06613">
        <ele>3.3</ele>
        <time>2020-06-16T14:02:41Z</time>
      </trkpt>
      <trkpt lat="49.39005" lon="-1.0661">
        <ele>3.3</ele>
        <time>2020-06-16T14:02:42Z</time>
      </trkpt>
      <trkpt lat="49.39004" lon="-1.06608">
        <ele>3.4</ele>
        <time>2020-06-16T14:02:43Z</time>
      </trkpt>
      <trkpt lat="49.39003" lon="-1.06604">
        <ele>3.4</ele>
        <time>2020-06-16T14:02:44Z</time>
      </trkpt>
      <trkpt lat="49.39003" lon="-1.06602">
        <ele>3.4</ele>
        <time>2020-06-16T14:02:45Z</time>
      </trkpt>
      <trkpt lat="49.39002" lon="-1.06598">
        <ele>3.4</ele>
        <time>2020-06-16T14:02:46Z</time>
      </trkpt>
      <trkpt lat="49.39002" lon="-1.06596">
        <ele>3.4</ele>
        <time>2020-06-16T14:02:47Z</time>
      </trkpt>
      <trkpt lat="49.39002" lon="-1.06594">
        <ele>3.4</ele>
        <time>2020-06-16T14:02:48Z</time>
      </trkpt>
      <trkpt lat="49.39001" lon="-1.06591">
        <ele>3.4</ele>
        <time>2020-06-16T14:02:49Z</time>
      </trkpt>
      <trkpt lat="49.39001" lon="-1.06589">
        <ele>3.4</ele>
        <time>2020-06-16T14:02:50Z</time>
      </trkpt>
      <trkpt lat="49.39001" lon="-1.06586">
        <ele>3.4</ele>
        <time>2020-06-16T14:02:51Z</time>
      </trkpt>
      <trkpt lat="49.39" lon="-1.06582">
        <ele>3.5</ele>
        <time>2020-06-16T14:02:52Z</time>
      </trkpt>
      <trkpt lat="49.39" lon="-1.0658">
        <ele>3.5</ele>
        <time>2020-06-16T14:02:53Z</time>
      </trkpt>
      <trkpt lat="49.39" lon="-1.06576">
        <ele>3.5</ele>
        <time>2020-06-16T14:02:54Z</time>
      </trkpt>
      <trkpt lat="49.39" lon="-1.06575">
        <ele>3.5</ele>
        <time>2020-06-16T14:02:55Z</time>
      </trkpt>
      <trkpt lat="49.39001" lon="-1.06569">
        <ele>3.5</ele>
        <time>2020-06-16T14:02:56Z</time>
      </trkpt>
      <trkpt lat="49.39001" lon="-1.06567">
        <ele>3.6</ele>
        <time>2020-06-16T14:02:57Z</time>
      </trkpt>
      <trkpt lat="49.39001" lon="-1.06562">
        <ele>3.6</ele>
        <time>2020-06-16T14:02:58Z</time>
      </trkpt>
      <trkpt lat="49.39001" lon="-1.0656">
        <ele>3.6</ele>
        <time>2020-06-16T14:02:59Z</time>
      </trkpt>
      <trkpt lat="49.39001" lon="-1.06556">
        <ele>3.6</ele>
        <time>2020-06-16T14:03:00Z</time>
      </trkpt>
      <trkpt lat="49.39001" lon="-1.06554">
        <ele>3.6</ele>
        <time>2020-06-16T14:03:01Z</time>
      </trkpt>
      <trkpt lat="49.39001" lon="-1.0655">
        <ele>3.6</ele>
        <time>2020-06-16T14:03:02Z</time>
      </trkpt>
      <trkpt lat="49.39001" lon="-1.06548">
        <ele>3.6</ele>
        <time>2020-06-16T14:03:03Z</time>
      </trkpt>
      <trkpt lat="49.39001" lon="-1.06543">
        <ele>3.6</ele>
        <time>2020-06-16T14:03:04Z</time>
      </trkpt>
      <trkpt lat="49.39001" lon="-1.06541">
        <ele>3.6</ele>
        <time>2020-06-16T14:03:05Z</time>
      </trkpt>
      <trkpt lat="49.39001" lon="-1.06537">
        <ele>3.6</ele>
        <time>2020-06-16T14:03:06Z</time>
      </trkpt>
      <trkpt lat="49.39001" lon="-1.06536">
        <ele>3.6</ele>
        <time>2020-06-16T14:03:07Z</time>
      </trkpt>
      <trkpt lat="49.39001" lon="-1.06531">
        <ele>3.6</ele>
        <time>2020-06-16T14:03:08Z</time>
      </trkpt>
      <trkpt lat="49.39001" lon="-1.06529">
        <ele>3.6</ele>
        <time>2020-06-16T14:03:09Z</time>
      </trkpt>
      <trkpt lat="49.39001" lon="-1.06524">
        <ele>3.6</ele>
        <time>2020-06-16T14:03:10Z</time>
      </trkpt>
      <trkpt lat="49.39" lon="-1.06522">
        <ele>3.6</ele>
        <time>2020-06-16T14:03:11Z</time>
      </trkpt>
      <trkpt lat="49.39" lon="-1.06518">
        <ele>3.6</ele>
        <time>2020-06-16T14:03:12Z</time>
      </trkpt>
      <trkpt lat="49.39" lon="-1.06513">
        <ele>3.6</ele>
        <time>2020-06-16T14:03:13Z</time>
      </trkpt>
      <trkpt lat="49.39" lon="-1.06509">
        <ele>3.6</ele>
        <time>2020-06-16T14:03:14Z</time>
      </trkpt>
      <trkpt lat="49.39" lon="-1.06503">
        <ele>3.6</ele>
        <time>2020-06-16T14:03:15Z</time>
      </trkpt>
      <trkpt lat="49.39" lon="-1.06501">
        <ele>3.6</ele>
        <time>2020-06-16T14:03:16Z</time>
      </trkpt>
      <trkpt lat="49.39001" lon="-1.06496">
        <ele>3.6</ele>
        <time>2020-06-16T14:03:17Z</time>
      </trkpt>
      <trkpt lat="49.39002" lon="-1.06494">
        <ele>3.6</ele>
        <time>2020-06-16T14:03:18Z</time>
      </trkpt>
      <trkpt lat="49.39002" lon="-1.06489">
        <ele>3.6</ele>
        <time>2020-06-16T14:03:19Z</time>
      </trkpt>
      <trkpt lat="49.39002" lon="-1.06488">
        <ele>3.6</ele>
        <time>2020-06-16T14:03:20Z</time>
      </trkpt>
      <trkpt lat="49.39002" lon="-1.06485">
        <ele>3.6</ele>
        <time>2020-06-16T14:03:21Z</time>
      </trkpt>
      <trkpt lat="49.39002" lon="-1.06483">
        <ele>3.6</ele>
        <time>2020-06-16T14:03:22Z</time>
      </trkpt>
      <trkpt lat="49.39002" lon="-1.06481">
        <ele>3.5</ele>
        <time>2020-06-16T14:03:23Z</time>
      </trkpt>
      <trkpt lat="49.39002" lon="-1.06478">
        <ele>3.5</ele>
        <time>2020-06-16T14:03:24Z</time>
      </trkpt>
      <trkpt lat="49.39002" lon="-1.06473">
        <ele>3.5</ele>
        <time>2020-06-16T14:03:25Z</time>
      </trkpt>
      <trkpt lat="49.39002" lon="-1.06471">
        <ele>3.5</ele>
        <time>2020-06-16T14:03:26Z</time>
      </trkpt>
      <trkpt lat="49.39002" lon="-1.06467">
        <ele>3.4</ele>
        <time>2020-06-16T14:03:27Z</time>
      </trkpt>
      <trkpt lat="49.39002" lon="-1.06461">
        <ele>3.4</ele>
        <time>2020-06-16T14:03:28Z</time>
      </trkpt>
      <trkpt lat="49.39003" lon="-1.06456">
        <ele>3.3</ele>
        <time>2020-06-16T14:03:29Z</time>
      </trkpt>
      <trkpt lat="49.39003" lon="-1.06451">
        <ele>3.3</ele>
        <time>2020-06-16T14:03:30Z</time>
      </trkpt>
      <trkpt lat="49.39003" lon="-1.06447">
        <ele>3.2</ele>
        <time>2020-06-16T14:03:31Z</time>
      </trkpt>
      <trkpt lat="49.39004" lon="-1.06443">
        <ele>3.2</ele>
        <time>2020-06-16T14:03:32Z</time>
      </trkpt>
      <trkpt lat="49.39005" lon="-1.06438">
        <ele>3.1</ele>
        <time>2020-06-16T14:03:33Z</time>
      </trkpt>
      <trkpt lat="49.39006" lon="-1.06436">
        <ele>3.1</ele>
        <time>2020-06-16T14:03:34Z</time>
      </trkpt>
      <trkpt lat="49.39006" lon="-1.06435">
        <ele>3.1</ele>
        <time>2020-06-16T14:03:35Z</time>
      </trkpt>
      <trkpt lat="49.39007" lon="-1.06433">
        <ele>3.1</ele>
        <time>2020-06-16T14:03:36Z</time>
      </trkpt>
      <trkpt lat="49.39007" lon="-1.06432">
        <ele>3.1</ele>
        <time>2020-06-16T14:03:37Z</time>
      </trkpt>
      <trkpt lat="49.39007" lon="-1.0643">
        <ele>3.1</ele>
        <time>2020-06-16T14:03:38Z</time>
      </trkpt>
      <trkpt lat="49.39008" lon="-1.06428">
        <ele>3.1</ele>
        <time>2020-06-16T14:03:39Z</time>
      </trkpt>
      <trkpt lat="49.39008" lon="-1.06425">
        <ele>3.1</ele>
        <time>2020-06-16T14:03:40Z</time>
      </trkpt>
      <trkpt lat="49.39008" lon="-1.06423">
        <ele>3</ele>
        <time>2020-06-16T14:03:41Z</time>
      </trkpt>
      <trkpt lat="49.39009" lon="-1.06422">
        <ele>3</ele>
        <time>2020-06-16T14:03:42Z</time>
      </trkpt>
      <trkpt lat="49.39009" lon="-1.06421">
        <ele>3</ele>
        <time>2020-06-16T14:03:43Z</time>
      </trkpt>
      <trkpt lat="49.39008" lon="-1.06421">
        <ele>3</ele>
        <time>2020-06-16T14:03:44Z</time>
      </trkpt>
      <trkpt lat="49.39008" lon="-1.0642">
        <ele>3</ele>
        <time>2020-06-16T14:03:45Z</time>
      </trkpt>
      <trkpt lat="49.39008" lon="-1.0642">
        <ele>3</ele>
        <time>2020-06-16T14:03:46Z</time>
      </trkpt>
      <trkpt lat="49.39008" lon="-1.0642">
        <ele>3</ele>
        <time>2020-06-16T14:03:47Z</time>
      </trkpt>
      <trkpt lat="49.39008" lon="-1.06419">
        <ele>3</ele>
        <time>2020-06-16T14:03:48Z</time>
      </trkpt>
      <trkpt lat="49.39009" lon="-1.06419">
        <ele>3</ele>
        <time>2020-06-16T14:03:49Z</time>
      </trkpt>
      <trkpt lat="49.39009" lon="-1.06419">
        <ele>3</ele>
        <time>2020-06-16T14:03:50Z</time>
      </trkpt>
      <trkpt lat="49.39009" lon="-1.06419">
        <ele>3</ele>
        <time>2020-06-16T14:03:51Z</time>
      </trkpt>
      <trkpt lat="49.39009" lon="-1.06419">
        <ele>3</ele>
        <time>2020-06-16T14:03:52Z</time>
      </trkpt>
      <trkpt lat="49.39009" lon="-1.06418">
        <ele>3</ele>
        <time>2020-06-16T14:03:53Z</time>
      </trkpt>
      <trkpt lat="49.39009" lon="-1.06418">
        <ele>3</ele>
        <time>2020-06-16T14:03:54Z</time>
      </trkpt>
      <trkpt lat="49.39009" lon="-1.06416">
        <ele>3</ele>
        <time>2020-06-16T14:03:55Z</time>
      </trkpt>
      <trkpt lat="49.3901" lon="-1.06414">
        <ele>3</ele>
        <time>2020-06-16T14:03:56Z</time>
      </trkpt>
      <trkpt lat="49.39011" lon="-1.06412">
        <ele>3</ele>
        <time>2020-06-16T14:03:57Z</time>
      </trkpt>
      <trkpt lat="49.39012" lon="-1.06411">
        <ele>3</ele>
        <time>2020-06-16T14:03:58Z</time>
      </trkpt>
      <trkpt lat="49.39012" lon="-1.06409">
        <ele>3</ele>
        <time>2020-06-16T14:03:59Z</time>
      </trkpt>
      <trkpt lat="49.39013" lon="-1.06408">
        <ele>3</ele>
        <time>2020-06-16T14:04:00Z</time>
      </trkpt>
      <trkpt lat="49.39014" lon="-1.06407">
        <ele>3</ele>
        <time>2020-06-16T14:04:01Z</time>
      </trkpt>
      <trkpt lat="49.39014" lon="-1.06406">
        <ele>3</ele>
        <time>2020-06-16T14:04:29Z</time>
      </trkpt>
      <trkpt lat="49.39015" lon="-1.06404">
        <ele>3</ele>
        <time>2020-06-16T14:04:30Z</time>
      </trkpt>
      <trkpt lat="49.39016" lon="-1.06403">
        <ele>3</ele>
        <time>2020-06-16T14:04:31Z</time>
      </trkpt>
      <trkpt lat="49.39017" lon="-1.06402">
        <ele>3</ele>
        <time>2020-06-16T14:04:32Z</time>
      </trkpt>
      <trkpt lat="49.39017" lon="-1.064">
        <ele>3</ele>
        <time>2020-06-16T14:04:33Z</time>
      </trkpt>
      <trkpt lat="49.39018" lon="-1.06399">
        <ele>3</ele>
        <time>2020-06-16T14:04:34Z</time>
      </trkpt>
      <trkpt lat="49.39018" lon="-1.06399">
        <ele>3</ele>
        <time>2020-06-16T14:04:35Z</time>
      </trkpt>
      <trkpt lat="49.39018" lon="-1.06399">
        <ele>3</ele>
        <time>2020-06-16T14:04:36Z</time>
      </trkpt>
      <trkpt lat="49.39018" lon="-1.06398">
        <ele>3</ele>
        <time>2020-06-16T14:04:37Z</time>
      </trkpt>
      <trkpt lat="49.39017" lon="-1.06396">
        <ele>3</ele>
        <time>2020-06-16T14:04:38Z</time>
      </trkpt>
      <trkpt lat="49.39017" lon="-1.06395">
        <ele>3</ele>
        <time>2020-06-16T14:04:39Z</time>
      </trkpt>
      <trkpt lat="49.39018" lon="-1.06393">
        <ele>3</ele>
        <time>2020-06-16T14:04:40Z</time>
      </trkpt>
      <trkpt lat="49.39017" lon="-1.06392">
        <ele>3</ele>
        <time>2020-06-16T14:04:41Z</time>
      </trkpt>
      <trkpt lat="49.39017" lon="-1.06391">
        <ele>3</ele>
        <time>2020-06-16T14:04:42Z</time>
      </trkpt>
      <trkpt lat="49.39016" lon="-1.0639">
        <ele>3</ele>
        <time>2020-06-16T14:04:43Z</time>
      </trkpt>
      <trkpt lat="49.39016" lon="-1.06388">
        <ele>3</ele>
        <time>2020-06-16T14:04:44Z</time>
      </trkpt>
      <trkpt lat="49.39016" lon="-1.06386">
        <ele>3</ele>
        <time>2020-06-16T14:04:45Z</time>
      </trkpt>
      <trkpt lat="49.39016" lon="-1.06385">
        <ele>3</ele>
        <time>2020-06-16T14:04:46Z</time>
      </trkpt>
      <trkpt lat="49.39017" lon="-1.06383">
        <ele>3</ele>
        <time>2020-06-16T14:04:47Z</time>
      </trkpt>
      <trkpt lat="49.39017" lon="-1.06382">
        <ele>3</ele>
        <time>2020-06-16T14:04:48Z</time>
      </trkpt>
      <trkpt lat="49.39017" lon="-1.06381">
        <ele>3</ele>
        <time>2020-06-16T14:04:49Z</time>
      </trkpt>
      <trkpt lat="49.39017" lon="-1.0638">
        <ele>2.9</ele>
        <time>2020-06-16T14:04:50Z</time>
      </trkpt>
      <trkpt lat="49.39017" lon="-1.06379">
        <ele>2.9</ele>
        <time>2020-06-16T14:04:51Z</time>
      </trkpt>
      <trkpt lat="49.39017" lon="-1.06376">
        <ele>2.9</ele>
        <time>2020-06-16T14:04:52Z</time>
      </trkpt>
      <trkpt lat="49.39017" lon="-1.06374">
        <ele>2.9</ele>
        <time>2020-06-16T14:04:53Z</time>
      </trkpt>
      <trkpt lat="49.39018" lon="-1.06372">
        <ele>2.9</ele>
        <time>2020-06-16T14:04:54Z</time>
      </trkpt>
      <trkpt lat="49.39017" lon="-1.0637">
        <ele>2.9</ele>
        <time>2020-06-16T14:04:55Z</time>
      </trkpt>
      <trkpt lat="49.39017" lon="-1.06368">
        <ele>2.9</ele>
        <time>2020-06-16T14:04:56Z</time>
      </trkpt>
      <trkpt lat="49.39016" lon="-1.06366">
        <ele>2.9</ele>
        <time>2020-06-16T14:04:57Z</time>
      </trkpt>
      <trkpt lat="49.39016" lon="-1.06365">
        <ele>2.9</ele>
        <time>2020-06-16T14:04:58Z</time>
      </trkpt>
      <trkpt lat="49.39016" lon="-1.06364">
        <ele>2.9</ele>
        <time>2020-06-16T14:04:59Z</time>
      </trkpt>
      <trkpt lat="49.39016" lon="-1.06362">
        <ele>2.9</ele>
        <time>2020-06-16T14:05:00Z</time>
      </trkpt>
      <trkpt lat="49.39016" lon="-1.0636">
        <ele>2.9</ele>
        <time>2020-06-16T14:05:01Z</time>
      </trkpt>
      <trkpt lat="49.39017" lon="-1.06356">
        <ele>2.9</ele>
        <time>2020-06-16T14:05:02Z</time>
      </trkpt>
      <trkpt lat="49.39018" lon="-1.06355">
        <ele>2.9</ele>
        <time>2020-06-16T14:05:03Z</time>
      </trkpt>
      <trkpt lat="49.39018" lon="-1.06353">
        <ele>2.9</ele>
        <time>2020-06-16T14:05:04Z</time>
      </trkpt>
      <trkpt lat="49.39019" lon="-1.0635">
        <ele>2.9</ele>
        <time>2020-06-16T14:05:05Z</time>
      </trkpt>
      <trkpt lat="49.39019" lon="-1.06347">
        <ele>2.9</ele>
        <time>2020-06-16T14:05:06Z</time>
      </trkpt>
      <trkpt lat="49.39019" lon="-1.06345">
        <ele>2.9</ele>
        <time>2020-06-16T14:05:07Z</time>
      </trkpt>
      <trkpt lat="49.39019" lon="-1.06342">
        <ele>2.9</ele>
        <time>2020-06-16T14:05:08Z</time>
      </trkpt>
      <trkpt lat="49.39019" lon="-1.0634">
        <ele>2.9</ele>
        <time>2020-06-16T14:05:09Z</time>
      </trkpt>
      <trkpt lat="49.39019" lon="-1.06336">
        <ele>2.9</ele>
        <time>2020-06-16T14:05:10Z</time>
      </trkpt>
      <trkpt lat="49.39019" lon="-1.06335">
        <ele>2.9</ele>
        <time>2020-06-16T14:05:11Z</time>
      </trkpt>
      <trkpt lat="49.39019" lon="-1.06334">
        <ele>2.9</ele>
        <time>2020-06-16T14:05:12Z</time>
      </trkpt>
      <trkpt lat="49.39019" lon="-1.0633">
        <ele>3</ele>
        <time>2020-06-16T14:05:13Z</time>
      </trkpt>
      <trkpt lat="49.39019" lon="-1.06329">
        <ele>3</ele>
        <time>2020-06-16T14:05:14Z</time>
      </trkpt>
      <trkpt lat="49.39019" lon="-1.06327">
        <ele>3</ele>
        <time>2020-06-16T14:05:15Z</time>
      </trkpt>
      <trkpt lat="49.39019" lon="-1.06325">
        <ele>3</ele>
        <time>2020-06-16T14:05:16Z</time>
      </trkpt>
      <trkpt lat="49.39019" lon="-1.06323">
        <ele>3</ele>
        <time>2020-06-16T14:05:17Z</time>
      </trkpt>
      <trkpt lat="49.39019" lon="-1.06318">
        <ele>3</ele>
        <time>2020-06-16T14:05:18Z</time>
      </trkpt>
      <trkpt lat="49.39019" lon="-1.06316">
        <ele>3</ele>
        <time>2020-06-16T14:05:19Z</time>
      </trkpt>
      <trkpt lat="49.39018" lon="-1.06312">
        <ele>3</ele>
        <time>2020-06-16T14:05:20Z</time>
      </trkpt>
      <trkpt lat="49.39018" lon="-1.06311">
        <ele>3</ele>
        <time>2020-06-16T14:05:21Z</time>
      </trkpt>
      <trkpt lat="49.39018" lon="-1.06308">
        <ele>3</ele>
        <time>2020-06-16T14:05:22Z</time>
      </trkpt>
      <trkpt lat="49.39017" lon="-1.06305">
        <ele>3.1</ele>
        <time>2020-06-16T14:05:23Z</time>
      </trkpt>
      <trkpt lat="49.39017" lon="-1.06303">
        <ele>3.1</ele>
        <time>2020-06-16T14:05:24Z</time>
      </trkpt>
      <trkpt lat="49.39017" lon="-1.063">
        <ele>3.1</ele>
        <time>2020-06-16T14:05:25Z</time>
      </trkpt>
      <trkpt lat="49.39017" lon="-1.06298">
        <ele>3.1</ele>
        <time>2020-06-16T14:05:26Z</time>
      </trkpt>
      <trkpt lat="49.39017" lon="-1.06296">
        <ele>3.1</ele>
        <time>2020-06-16T14:05:27Z</time>
      </trkpt>
      <trkpt lat="49.39016" lon="-1.06295">
        <ele>3.1</ele>
        <time>2020-06-16T14:05:28Z</time>
      </trkpt>
      <trkpt lat="49.39016" lon="-1.06294">
        <ele>3.1</ele>
        <time>2020-06-16T14:05:29Z</time>
      </trkpt>
      <trkpt lat="49.39015" lon="-1.06292">
        <ele>3.1</ele>
        <time>2020-06-16T14:05:30Z</time>
      </trkpt>
      <trkpt lat="49.39015" lon="-1.06292">
        <ele>3.1</ele>
        <time>2020-06-16T14:05:31Z</time>
      </trkpt>
      <trkpt lat="49.39014" lon="-1.06291">
        <ele>3.1</ele>
        <time>2020-06-16T14:05:32Z</time>
      </trkpt>
      <trkpt lat="49.39014" lon="-1.06288">
        <ele>3.1</ele>
        <time>2020-06-16T14:05:33Z</time>
      </trkpt>
      <trkpt lat="49.39014" lon="-1.06289">
        <ele>3.1</ele>
        <time>2020-06-16T14:05:34Z</time>
      </trkpt>
      <trkpt lat="49.39013" lon="-1.06288">
        <ele>3.1</ele>
        <time>2020-06-16T14:05:35Z</time>
      </trkpt>
      <trkpt lat="49.39014" lon="-1.06287">
        <ele>3.1</ele>
        <time>2020-06-16T14:05:36Z</time>
      </trkpt>
      <trkpt lat="49.39014" lon="-1.06286">
        <ele>3.1</ele>
        <time>2020-06-16T14:05:37Z</time>
      </trkpt>
      <trkpt lat="49.39013" lon="-1.06283">
        <ele>3.1</ele>
        <time>2020-06-16T14:05:38Z</time>
      </trkpt>
      <trkpt lat="49.39013" lon="-1.06281">
        <ele>3.1</ele>
        <time>2020-06-16T14:05:39Z</time>
      </trkpt>
      <trkpt lat="49.39013" lon="-1.0628">
        <ele>3.1</ele>
        <time>2020-06-16T14:05:40Z</time>
      </trkpt>
      <trkpt lat="49.39012" lon="-1.06277">
        <ele>3.1</ele>
        <time>2020-06-16T14:05:41Z</time>
      </trkpt>
      <trkpt lat="49.39012" lon="-1.06275">
        <ele>3.1</ele>
        <time>2020-06-16T14:05:42Z</time>
      </trkpt>
      <trkpt lat="49.39012" lon="-1.06272">
        <ele>3.2</ele>
        <time>2020-06-16T14:05:43Z</time>
      </trkpt>
      <trkpt lat="49.39012" lon="-1.06271">
        <ele>3.2</ele>
        <time>2020-06-16T14:05:44Z</time>
      </trkpt>
      <trkpt lat="49.39012" lon="-1.06271">
        <ele>3.2</ele>
        <time>2020-06-16T14:05:45Z</time>
      </trkpt>
      <trkpt lat="49.39012" lon="-1.06271">
        <ele>3.2</ele>
        <time>2020-06-16T14:05:46Z</time>
      </trkpt>
      <trkpt lat="49.39013" lon="-1.0627">
        <ele>3.2</ele>
        <time>2020-06-16T14:05:47Z</time>
      </trkpt>
      <trkpt lat="49.39013" lon="-1.0627">
        <ele>3.2</ele>
        <time>2020-06-16T14:05:48Z</time>
      </trkpt>
      <trkpt lat="49.39013" lon="-1.06269">
        <ele>3.2</ele>
        <time>2020-06-16T14:05:49Z</time>
      </trkpt>
      <trkpt lat="49.39013" lon="-1.06268">
        <ele>3.2</ele>
        <time>2020-06-16T14:05:50Z</time>
      </trkpt>
      <trkpt lat="49.39012" lon="-1.06268">
        <ele>3.2</ele>
        <time>2020-06-16T14:05:51Z</time>
      </trkpt>
      <trkpt lat="49.39012" lon="-1.06267">
        <ele>3.2</ele>
        <time>2020-06-16T14:05:52Z</time>
      </trkpt>
      <trkpt lat="49.39012" lon="-1.06267">
        <ele>3.2</ele>
        <time>2020-06-16T14:05:53Z</time>
      </trkpt>
      <trkpt lat="49.39012" lon="-1.06267">
        <ele>3.2</ele>
        <time>2020-06-16T14:05:54Z</time>
      </trkpt>
      <trkpt lat="49.39012" lon="-1.06267">
        <ele>3.2</ele>
        <time>2020-06-16T14:05:55Z</time>
      </trkpt>
      <trkpt lat="49.39012" lon="-1.06267">
        <ele>3.2</ele>
        <time>2020-06-16T14:05:56Z</time>
      </trkpt>
      <trkpt lat="49.39012" lon="-1.06266">
        <ele>3.2</ele>
        <time>2020-06-16T14:05:57Z</time>
      </trkpt>
      <trkpt lat="49.39012" lon="-1.06265">
        <ele>3.1</ele>
        <time>2020-06-16T14:05:58Z</time>
      </trkpt>
      <trkpt lat="49.39012" lon="-1.06265">
        <ele>3.1</ele>
        <time>2020-06-16T14:05:59Z</time>
      </trkpt>
      <trkpt lat="49.39012" lon="-1.06265">
        <ele>3.1</ele>
        <time>2020-06-16T14:06:00Z</time>
      </trkpt>
      <trkpt lat="49.39011" lon="-1.06257">
        <ele>3.1</ele>
        <time>2020-06-16T14:06:05Z</time>
      </trkpt>
      <trkpt lat="49.39011" lon="-1.06255">
        <ele>3.1</ele>
        <time>2020-06-16T14:06:06Z</time>
      </trkpt>
      <trkpt lat="49.39011" lon="-1.06253">
        <ele>3.1</ele>
        <time>2020-06-16T14:06:07Z</time>
      </trkpt>
      <trkpt lat="49.39012" lon="-1.06251">
        <ele>3.1</ele>
        <time>2020-06-16T14:06:08Z</time>
      </trkpt>
      <trkpt lat="49.39013" lon="-1.0625">
        <ele>3.1</ele>
        <time>2020-06-16T14:06:09Z</time>
      </trkpt>
      <trkpt lat="49.39014" lon="-1.06249">
        <ele>3.1</ele>
        <time>2020-06-16T14:06:10Z</time>
      </trkpt>
      <trkpt lat="49.39014" lon="-1.06248">
        <ele>3.1</ele>
        <time>2020-06-16T14:06:11Z</time>
      </trkpt>
      <trkpt lat="49.39013" lon="-1.06247">
        <ele>3.1</ele>
        <time>2020-06-16T14:06:12Z</time>
      </trkpt>
      <trkpt lat="49.39015" lon="-1.06244">
        <ele>3.1</ele>
        <time>2020-06-16T14:06:13Z</time>
      </trkpt>
      <trkpt lat="49.39016" lon="-1.06243">
        <ele>3.1</ele>
        <time>2020-06-16T14:06:14Z</time>
      </trkpt>
      <trkpt lat="49.39016" lon="-1.06242">
        <ele>3.1</ele>
        <time>2020-06-16T14:06:15Z</time>
      </trkpt>
      <trkpt lat="49.39017" lon="-1.06241">
        <ele>3.1</ele>
        <time>2020-06-16T14:06:16Z</time>
      </trkpt>
      <trkpt lat="49.39017" lon="-1.06239">
        <ele>3.1</ele>
        <time>2020-06-16T14:06:17Z</time>
      </trkpt>
      <trkpt lat="49.39018" lon="-1.06238">
        <ele>3.1</ele>
        <time>2020-06-16T14:06:18Z</time>
      </trkpt>
      <trkpt lat="49.39018" lon="-1.06237">
        <ele>3.1</ele>
        <time>2020-06-16T14:06:19Z</time>
      </trkpt>
      <trkpt lat="49.39018" lon="-1.06236">
        <ele>3.1</ele>
        <time>2020-06-16T14:06:20Z</time>
      </trkpt>
      <trkpt lat="49.39018" lon="-1.06234">
        <ele>3.1</ele>
        <time>2020-06-16T14:06:21Z</time>
      </trkpt>
      <trkpt lat="49.39018" lon="-1.06233">
        <ele>3.1</ele>
        <time>2020-06-16T14:06:22Z</time>
      </trkpt>
      <trkpt lat="49.39018" lon="-1.06232">
        <ele>3.1</ele>
        <time>2020-06-16T14:06:23Z</time>
      </trkpt>
      <trkpt lat="49.39018" lon="-1.06229">
        <ele>3.1</ele>
        <time>2020-06-16T14:06:24Z</time>
      </trkpt>
      <trkpt lat="49.39018" lon="-1.06229">
        <ele>3.1</ele>
        <time>2020-06-16T14:06:25Z</time>
      </trkpt>
      <trkpt lat="49.39018" lon="-1.06227">
        <ele>3.1</ele>
        <time>2020-06-16T14:06:26Z</time>
      </trkpt>
      <trkpt lat="49.39018" lon="-1.06226">
        <ele>3.1</ele>
        <time>2020-06-16T14:06:27Z</time>
      </trkpt>
      <trkpt lat="49.39018" lon="-1.06226">
        <ele>3.1</ele>
        <time>2020-06-16T14:06:28Z</time>
      </trkpt>
      <trkpt lat="49.39017" lon="-1.06225">
        <ele>3.1</ele>
        <time>2020-06-16T14:06:29Z</time>
      </trkpt>
      <trkpt lat="49.39016" lon="-1.06225">
        <ele>3.1</ele>
        <time>2020-06-16T14:06:30Z</time>
      </trkpt>
      <trkpt lat="49.39016" lon="-1.06224">
        <ele>3.1</ele>
        <time>2020-06-16T14:06:31Z</time>
      </trkpt>
      <trkpt lat="49.39016" lon="-1.06224">
        <ele>3.1</ele>
        <time>2020-06-16T14:06:32Z</time>
      </trkpt>
      <trkpt lat="49.39016" lon="-1.06224">
        <ele>3.1</ele>
        <time>2020-06-16T14:06:33Z</time>
      </trkpt>
      <trkpt lat="49.39016" lon="-1.06224">
        <ele>3.1</ele>
        <time>2020-06-16T14:06:34Z</time>
      </trkpt>
      <trkpt lat="49.39017" lon="-1.06223">
        <ele>3.1</ele>
        <time>2020-06-16T14:06:35Z</time>
      </trkpt>
      <trkpt lat="49.39017" lon="-1.06222">
        <ele>3.1</ele>
        <time>2020-06-16T14:06:36Z</time>
      </trkpt>
      <trkpt lat="49.39017" lon="-1.06222">
        <ele>3.1</ele>
        <time>2020-06-16T14:06:37Z</time>
      </trkpt>
      <trkpt lat="49.39018" lon="-1.06222">
        <ele>3.1</ele>
        <time>2020-06-16T14:06:38Z</time>
      </trkpt>
      <trkpt lat="49.39018" lon="-1.06223">
        <ele>3.1</ele>
        <time>2020-06-16T14:06:39Z</time>
      </trkpt>
      <trkpt lat="49.39017" lon="-1.06224">
        <ele>3.1</ele>
        <time>2020-06-16T14:06:40Z</time>
      </trkpt>
      <trkpt lat="49.39017" lon="-1.06223">
        <ele>3.1</ele>
        <time>2020-06-16T14:06:41Z</time>
      </trkpt>
      <trkpt lat="49.39016" lon="-1.06223">
        <ele>3.1</ele>
        <time>2020-06-16T14:06:42Z</time>
      </trkpt>
      <trkpt lat="49.39016" lon="-1.06221">
        <ele>3.1</ele>
        <time>2020-06-16T14:06:43Z</time>
      </trkpt>
      <trkpt lat="49.39015" lon="-1.06221">
        <ele>3.1</ele>
        <time>2020-06-16T14:06:44Z</time>
      </trkpt>
      <trkpt lat="49.39015" lon="-1.06221">
        <ele>3.1</ele>
        <time>2020-06-16T14:06:45Z</time>
      </trkpt>
      <trkpt lat="49.39015" lon="-1.06221">
        <ele>3.1</ele>
        <time>2020-06-16T14:06:46Z</time>
      </trkpt>
      <trkpt lat="49.39014" lon="-1.06221">
        <ele>3.1</ele>
        <time>2020-06-16T14:06:47Z</time>
      </trkpt>
      <trkpt lat="49.39014" lon="-1.06221">
        <ele>3.1</ele>
        <time>2020-06-16T14:06:48Z</time>
      </trkpt>
      <trkpt lat="49.39014" lon="-1.06221">
        <ele>3.1</ele>
        <time>2020-06-16T14:06:49Z</time>
      </trkpt>
      <trkpt lat="49.39014" lon="-1.0622">
        <ele>3.1</ele>
        <time>2020-06-16T14:06:50Z</time>
      </trkpt>
      <trkpt lat="49.39013" lon="-1.0622">
        <ele>3.1</ele>
        <time>2020-06-16T14:06:51Z</time>
      </trkpt>
      <trkpt lat="49.39013" lon="-1.06219">
        <ele>3.1</ele>
        <time>2020-06-16T14:06:52Z</time>
      </trkpt>
      <trkpt lat="49.39012" lon="-1.06218">
        <ele>3.1</ele>
        <time>2020-06-16T14:06:53Z</time>
      </trkpt>
      <trkpt lat="49.39012" lon="-1.06218">
        <ele>3.1</ele>
        <time>2020-06-16T14:06:54Z</time>
      </trkpt>
      <trkpt lat="49.39012" lon="-1.06217">
        <ele>3.1</ele>
        <time>2020-06-16T14:06:55Z</time>
      </trkpt>
      <trkpt lat="49.39012" lon="-1.06215">
        <ele>3.1</ele>
        <time>2020-06-16T14:06:56Z</time>
      </trkpt>
      <trkpt lat="49.39011" lon="-1.06212">
        <ele>3.1</ele>
        <time>2020-06-16T14:06:57Z</time>
      </trkpt>
      <trkpt lat="49.39012" lon="-1.0621">
        <ele>3.1</ele>
        <time>2020-06-16T14:06:58Z</time>
      </trkpt>
      <trkpt lat="49.39011" lon="-1.06209">
        <ele>3.1</ele>
        <time>2020-06-16T14:06:59Z</time>
      </trkpt>
      <trkpt lat="49.39011" lon="-1.06207">
        <ele>3.2</ele>
        <time>2020-06-16T14:07:00Z</time>
      </trkpt>
      <trkpt lat="49.39011" lon="-1.06205">
        <ele>3.2</ele>
        <time>2020-06-16T14:07:01Z</time>
      </trkpt>
      <trkpt lat="49.39011" lon="-1.06204">
        <ele>3.2</ele>
        <time>2020-06-16T14:07:02Z</time>
      </trkpt>
      <trkpt lat="49.39011" lon="-1.06202">
        <ele>3.2</ele>
        <time>2020-06-16T14:07:03Z</time>
      </trkpt>
      <trkpt lat="49.39011" lon="-1.06201">
        <ele>3.2</ele>
        <time>2020-06-16T14:07:04Z</time>
      </trkpt>
      <trkpt lat="49.39012" lon="-1.062">
        <ele>3.2</ele>
        <time>2020-06-16T14:07:05Z</time>
      </trkpt>
      <trkpt lat="49.39011" lon="-1.062">
        <ele>3.2</ele>
        <time>2020-06-16T14:07:06Z</time>
      </trkpt>
      <trkpt lat="49.39012" lon="-1.06199">
        <ele>3.2</ele>
        <time>2020-06-16T14:07:07Z</time>
      </trkpt>
      <trkpt lat="49.39012" lon="-1.06197">
        <ele>3.2</ele>
        <time>2020-06-16T14:07:08Z</time>
      </trkpt>
      <trkpt lat="49.39012" lon="-1.06197">
        <ele>3.2</ele>
        <time>2020-06-16T14:07:09Z</time>
      </trkpt>
      <trkpt lat="49.39012" lon="-1.06197">
        <ele>3.2</ele>
        <time>2020-06-16T14:07:10Z</time>
      </trkpt>
      <trkpt lat="49.39012" lon="-1.06196">
        <ele>3.2</ele>
        <time>2020-06-16T14:07:11Z</time>
      </trkpt>
      <trkpt lat="49.39011" lon="-1.06197">
        <ele>3.2</ele>
        <time>2020-06-16T14:07:12Z</time>
      </trkpt>
      <trkpt lat="49.39011" lon="-1.06196">
        <ele>3.2</ele>
        <time>2020-06-16T14:07:13Z</time>
      </trkpt>
      <trkpt lat="49.39012" lon="-1.06195">
        <ele>3.2</ele>
        <time>2020-06-16T14:07:14Z</time>
      </trkpt>
      <trkpt lat="49.39012" lon="-1.06194">
        <ele>3.2</ele>
        <time>2020-06-16T14:07:15Z</time>
      </trkpt>
      <trkpt lat="49.39013" lon="-1.06194">
        <ele>3.2</ele>
        <time>2020-06-16T14:07:16Z</time>
      </trkpt>
      <trkpt lat="49.39013" lon="-1.06193">
        <ele>3.2</ele>
        <time>2020-06-16T14:07:17Z</time>
      </trkpt>
      <trkpt lat="49.39013" lon="-1.06191">
        <ele>3.2</ele>
        <time>2020-06-16T14:07:18Z</time>
      </trkpt>
      <trkpt lat="49.39013" lon="-1.0619">
        <ele>3.2</ele>
        <time>2020-06-16T14:07:19Z</time>
      </trkpt>
      <trkpt lat="49.39013" lon="-1.0619">
        <ele>3.2</ele>
        <time>2020-06-16T14:07:20Z</time>
      </trkpt>
      <trkpt lat="49.39013" lon="-1.06189">
        <ele>3.2</ele>
        <time>2020-06-16T14:07:21Z</time>
      </trkpt>
      <trkpt lat="49.39013" lon="-1.06188">
        <ele>3.2</ele>
        <time>2020-06-16T14:07:22Z</time>
      </trkpt>
      <trkpt lat="49.39013" lon="-1.06186">
        <ele>3.2</ele>
        <time>2020-06-16T14:07:23Z</time>
      </trkpt>
      <trkpt lat="49.39013" lon="-1.06185">
        <ele>3.2</ele>
        <time>2020-06-16T14:07:24Z</time>
      </trkpt>
      <trkpt lat="49.39012" lon="-1.06185">
        <ele>3.2</ele>
        <time>2020-06-16T14:07:25Z</time>
      </trkpt>
      <trkpt lat="49.39012" lon="-1.06186">
        <ele>3.2</ele>
        <time>2020-06-16T14:07:26Z</time>
      </trkpt>
      <trkpt lat="49.39011" lon="-1.06185">
        <ele>3.2</ele>
        <time>2020-06-16T14:07:27Z</time>
      </trkpt>
      <trkpt lat="49.39011" lon="-1.06184">
        <ele>3.2</ele>
        <time>2020-06-16T14:07:28Z</time>
      </trkpt>
      <trkpt lat="49.39012" lon="-1.06183">
        <ele>3.2</ele>
        <time>2020-06-16T14:07:29Z</time>
      </trkpt>
      <trkpt lat="49.39013" lon="-1.06181">
        <ele>3.2</ele>
        <time>2020-06-16T14:07:30Z</time>
      </trkpt>
      <trkpt lat="49.39013" lon="-1.0618">
        <ele>3.2</ele>
        <time>2020-06-16T14:07:31Z</time>
      </trkpt>
      <trkpt lat="49.39013" lon="-1.0618">
        <ele>3.2</ele>
        <time>2020-06-16T14:07:32Z</time>
      </trkpt>
      <trkpt lat="49.39014" lon="-1.06179">
        <ele>3.2</ele>
        <time>2020-06-16T14:07:33Z</time>
      </trkpt>
      <trkpt lat="49.39014" lon="-1.06178">
        <ele>3.2</ele>
        <time>2020-06-16T14:07:34Z</time>
      </trkpt>
      <trkpt lat="49.39015" lon="-1.06177">
        <ele>3.2</ele>
        <time>2020-06-16T14:07:35Z</time>
      </trkpt>
      <trkpt lat="49.39015" lon="-1.06176">
        <ele>3.2</ele>
        <time>2020-06-16T14:07:36Z</time>
      </trkpt>
      <trkpt lat="49.39014" lon="-1.06175">
        <ele>3.2</ele>
        <time>2020-06-16T14:07:37Z</time>
      </trkpt>
      <trkpt lat="49.39014" lon="-1.06174">
        <ele>3.3</ele>
        <time>2020-06-16T14:07:38Z</time>
      </trkpt>
      <trkpt lat="49.39013" lon="-1.06172">
        <ele>3.3</ele>
        <time>2020-06-16T14:07:39Z</time>
      </trkpt>
      <trkpt lat="49.39013" lon="-1.06169">
        <ele>3.3</ele>
        <time>2020-06-16T14:07:40Z</time>
      </trkpt>
      <trkpt lat="49.39013" lon="-1.06167">
        <ele>3.3</ele>
        <time>2020-06-16T14:07:41Z</time>
      </trkpt>
      <trkpt lat="49.39012" lon="-1.06164">
        <ele>3.3</ele>
        <time>2020-06-16T14:07:42Z</time>
      </trkpt>
      <trkpt lat="49.39012" lon="-1.06163">
        <ele>3.3</ele>
        <time>2020-06-16T14:07:43Z</time>
      </trkpt>
      <trkpt lat="49.39012" lon="-1.06161">
        <ele>3.3</ele>
        <time>2020-06-16T14:07:44Z</time>
      </trkpt>
      <trkpt lat="49.39011" lon="-1.06159">
        <ele>3.3</ele>
        <time>2020-06-16T14:07:45Z</time>
      </trkpt>
      <trkpt lat="49.39011" lon="-1.06158">
        <ele>3.3</ele>
        <time>2020-06-16T14:07:46Z</time>
      </trkpt>
      <trkpt lat="49.3901" lon="-1.06157">
        <ele>3.3</ele>
        <time>2020-06-16T14:07:47Z</time>
      </trkpt>
      <trkpt lat="49.3901" lon="-1.06155">
        <ele>3.3</ele>
        <time>2020-06-16T14:07:48Z</time>
      </trkpt>
      <trkpt lat="49.39009" lon="-1.06153">
        <ele>3.3</ele>
        <time>2020-06-16T14:07:49Z</time>
      </trkpt>
      <trkpt lat="49.39009" lon="-1.06151">
        <ele>3.3</ele>
        <time>2020-06-16T14:07:50Z</time>
      </trkpt>
      <trkpt lat="49.39009" lon="-1.0615">
        <ele>3.3</ele>
        <time>2020-06-16T14:07:51Z</time>
      </trkpt>
      <trkpt lat="49.39009" lon="-1.06149">
        <ele>3.3</ele>
        <time>2020-06-16T14:07:52Z</time>
      </trkpt>
      <trkpt lat="49.39009" lon="-1.06147">
        <ele>3.4</ele>
        <time>2020-06-16T14:07:53Z</time>
      </trkpt>
      <trkpt lat="49.39009" lon="-1.06146">
        <ele>3.4</ele>
        <time>2020-06-16T14:07:54Z</time>
      </trkpt>
      <trkpt lat="49.39009" lon="-1.06145">
        <ele>3.4</ele>
        <time>2020-06-16T14:07:55Z</time>
      </trkpt>
      <trkpt lat="49.39009" lon="-1.06143">
        <ele>3.4</ele>
        <time>2020-06-16T14:07:56Z</time>
      </trkpt>
      <trkpt lat="49.39009" lon="-1.06141">
        <ele>3.4</ele>
        <time>2020-06-16T14:07:57Z</time>
      </trkpt>
      <trkpt lat="49.39009" lon="-1.0614">
        <ele>3.4</ele>
        <time>2020-06-16T14:07:58Z</time>
      </trkpt>
      <trkpt lat="49.39009" lon="-1.06138">
        <ele>3.4</ele>
        <time>2020-06-16T14:07:59Z</time>
      </trkpt>
      <trkpt lat="49.3901" lon="-1.06138">
        <ele>3.4</ele>
        <time>2020-06-16T14:08:00Z</time>
      </trkpt>
      <trkpt lat="49.3901" lon="-1.06137">
        <ele>3.4</ele>
        <time>2020-06-16T14:08:01Z</time>
      </trkpt>
      <trkpt lat="49.3901" lon="-1.06137">
        <ele>3.4</ele>
        <time>2020-06-16T14:08:02Z</time>
      </trkpt>
      <trkpt lat="49.39011" lon="-1.06137">
        <ele>3.4</ele>
        <time>2020-06-16T14:08:03Z</time>
      </trkpt>
      <trkpt lat="49.39012" lon="-1.06137">
        <ele>3.4</ele>
        <time>2020-06-16T14:08:04Z</time>
      </trkpt>
      <trkpt lat="49.39013" lon="-1.06137">
        <ele>3.4</ele>
        <time>2020-06-16T14:08:05Z</time>
      </trkpt>
      <trkpt lat="49.39014" lon="-1.06137">
        <ele>3.4</ele>
        <time>2020-06-16T14:08:06Z</time>
      </trkpt>
      <trkpt lat="49.39016" lon="-1.06137">
        <ele>3.4</ele>
        <time>2020-06-16T14:08:07Z</time>
      </trkpt>
      <trkpt lat="49.39016" lon="-1.06137">
        <ele>3.4</ele>
        <time>2020-06-16T14:08:08Z</time>
      </trkpt>
      <trkpt lat="49.39017" lon="-1.06136">
        <ele>3.4</ele>
        <time>2020-06-16T14:08:09Z</time>
      </trkpt>
      <trkpt lat="49.39018" lon="-1.06135">
        <ele>3.4</ele>
        <time>2020-06-16T14:08:10Z</time>
      </trkpt>
      <trkpt lat="49.39019" lon="-1.06134">
        <ele>3.3</ele>
        <time>2020-06-16T14:08:11Z</time>
      </trkpt>
      <trkpt lat="49.39019" lon="-1.06133">
        <ele>3.3</ele>
        <time>2020-06-16T14:08:12Z</time>
      </trkpt>
      <trkpt lat="49.3902" lon="-1.06132">
        <ele>3.3</ele>
        <time>2020-06-16T14:08:13Z</time>
      </trkpt>
      <trkpt lat="49.39019" lon="-1.06129">
        <ele>3.3</ele>
        <time>2020-06-16T14:08:14Z</time>
      </trkpt>
      <trkpt lat="49.3902" lon="-1.06128">
        <ele>3.3</ele>
        <time>2020-06-16T14:08:15Z</time>
      </trkpt>
      <trkpt lat="49.3902" lon="-1.06127">
        <ele>3.2</ele>
        <time>2020-06-16T14:08:16Z</time>
      </trkpt>
      <trkpt lat="49.3902" lon="-1.06125">
        <ele>3.2</ele>
        <time>2020-06-16T14:08:17Z</time>
      </trkpt>
      <trkpt lat="49.3902" lon="-1.06123">
        <ele>3.2</ele>
        <time>2020-06-16T14:08:18Z</time>
      </trkpt>
      <trkpt lat="49.3902" lon="-1.06122">
        <ele>3.1</ele>
        <time>2020-06-16T14:08:19Z</time>
      </trkpt>
      <trkpt lat="49.3902" lon="-1.0612">
        <ele>3.1</ele>
        <time>2020-06-16T14:08:20Z</time>
      </trkpt>
      <trkpt lat="49.3902" lon="-1.06119">
        <ele>3.1</ele>
        <time>2020-06-16T14:08:21Z</time>
      </trkpt>
      <trkpt lat="49.3902" lon="-1.06118">
        <ele>3.1</ele>
        <time>2020-06-16T14:08:22Z</time>
      </trkpt>
      <trkpt lat="49.39021" lon="-1.06116">
        <ele>3.1</ele>
        <time>2020-06-16T14:08:23Z</time>
      </trkpt>
      <trkpt lat="49.39021" lon="-1.06115">
        <ele>3.1</ele>
        <time>2020-06-16T14:08:24Z</time>
      </trkpt>
      <trkpt lat="49.39021" lon="-1.06113">
        <ele>3.1</ele>
        <time>2020-06-16T14:08:25Z</time>
      </trkpt>
      <trkpt lat="49.39022" lon="-1.06113">
        <ele>3.1</ele>
        <time>2020-06-16T14:08:26Z</time>
      </trkpt>
      <trkpt lat="49.39022" lon="-1.06112">
        <ele>3.1</ele>
        <time>2020-06-16T14:08:27Z</time>
      </trkpt>
      <trkpt lat="49.39022" lon="-1.06111">
        <ele>3.1</ele>
        <time>2020-06-16T14:08:28Z</time>
      </trkpt>
      <trkpt lat="49.39022" lon="-1.0611">
        <ele>3.1</ele>
        <time>2020-06-16T14:08:29Z</time>
      </trkpt>
      <trkpt lat="49.39021" lon="-1.06109">
        <ele>3.1</ele>
        <time>2020-06-16T14:08:30Z</time>
      </trkpt>
      <trkpt lat="49.39021" lon="-1.06108">
        <ele>3.1</ele>
        <time>2020-06-16T14:08:31Z</time>
      </trkpt>
      <trkpt lat="49.39021" lon="-1.06106">
        <ele>3.1</ele>
        <time>2020-06-16T14:08:32Z</time>
      </trkpt>
      <trkpt lat="49.39021" lon="-1.06105">
        <ele>3.1</ele>
        <time>2020-06-16T14:08:33Z</time>
      </trkpt>
      <trkpt lat="49.39021" lon="-1.06105">
        <ele>3.1</ele>
        <time>2020-06-16T14:08:34Z</time>
      </trkpt>
      <trkpt lat="49.39021" lon="-1.06104">
        <ele>3.1</ele>
        <time>2020-06-16T14:08:35Z</time>
      </trkpt>
      <trkpt lat="49.39021" lon="-1.06103">
        <ele>3.1</ele>
        <time>2020-06-16T14:08:36Z</time>
      </trkpt>
      <trkpt lat="49.39021" lon="-1.06102">
        <ele>3.1</ele>
        <time>2020-06-16T14:08:37Z</time>
      </trkpt>
      <trkpt lat="49.39021" lon="-1.06102">
        <ele>3.1</ele>
        <time>2020-06-16T14:08:38Z</time>
      </trkpt>
      <trkpt lat="49.39021" lon="-1.06101">
        <ele>3.1</ele>
        <time>2020-06-16T14:08:39Z</time>
      </trkpt>
      <trkpt lat="49.39021" lon="-1.061">
        <ele>3.1</ele>
        <time>2020-06-16T14:08:40Z</time>
      </trkpt>
      <trkpt lat="49.39021" lon="-1.06099">
        <ele>3.1</ele>
        <time>2020-06-16T14:08:41Z</time>
      </trkpt>
      <trkpt lat="49.39021" lon="-1.06098">
        <ele>3.1</ele>
        <time>2020-06-16T14:08:42Z</time>
      </trkpt>
      <trkpt lat="49.39021" lon="-1.06097">
        <ele>3.1</ele>
        <time>2020-06-16T14:08:43Z</time>
      </trkpt>
      <trkpt lat="49.39021" lon="-1.06096">
        <ele>3.1</ele>
        <time>2020-06-16T14:08:44Z</time>
      </trkpt>
      <trkpt lat="49.39022" lon="-1.06094">
        <ele>3.1</ele>
        <time>2020-06-16T14:08:45Z</time>
      </trkpt>
      <trkpt lat="49.39022" lon="-1.06093">
        <ele>3.1</ele>
        <time>2020-06-16T14:08:46Z</time>
      </trkpt>
      <trkpt lat="49.39023" lon="-1.06091">
        <ele>3.1</ele>
        <time>2020-06-16T14:08:47Z</time>
      </trkpt>
      <trkpt lat="49.39024" lon="-1.0609">
        <ele>3.1</ele>
        <time>2020-06-16T14:08:48Z</time>
      </trkpt>
      <trkpt lat="49.39024" lon="-1.06088">
        <ele>3.1</ele>
        <time>2020-06-16T14:08:49Z</time>
      </trkpt>
      <trkpt lat="49.39024" lon="-1.06085">
        <ele>3.1</ele>
        <time>2020-06-16T14:08:50Z</time>
      </trkpt>
      <trkpt lat="49.39024" lon="-1.06083">
        <ele>3.1</ele>
        <time>2020-06-16T14:08:51Z</time>
      </trkpt>
      <trkpt lat="49.39023" lon="-1.06081">
        <ele>3.1</ele>
        <time>2020-06-16T14:08:52Z</time>
      </trkpt>
      <trkpt lat="49.39023" lon="-1.06078">
        <ele>3.1</ele>
        <time>2020-06-16T14:08:53Z</time>
      </trkpt>
      <trkpt lat="49.39023" lon="-1.06076">
        <ele>3.1</ele>
        <time>2020-06-16T14:08:54Z</time>
      </trkpt>
      <trkpt lat="49.39023" lon="-1.06074">
        <ele>3.1</ele>
        <time>2020-06-16T14:08:55Z</time>
      </trkpt>
      <trkpt lat="49.39023" lon="-1.06072">
        <ele>3.1</ele>
        <time>2020-06-16T14:08:56Z</time>
      </trkpt>
      <trkpt lat="49.39023" lon="-1.0607">
        <ele>3.1</ele>
        <time>2020-06-16T14:08:57Z</time>
      </trkpt>
      <trkpt lat="49.39023" lon="-1.06068">
        <ele>3.1</ele>
        <time>2020-06-16T14:08:58Z</time>
      </trkpt>
      <trkpt lat="49.39023" lon="-1.06066">
        <ele>3.1</ele>
        <time>2020-06-16T14:08:59Z</time>
      </trkpt>
      <trkpt lat="49.39024" lon="-1.06063">
        <ele>3.1</ele>
        <time>2020-06-16T14:09:00Z</time>
      </trkpt>
      <trkpt lat="49.39024" lon="-1.0606">
        <ele>3.1</ele>
        <time>2020-06-16T14:09:01Z</time>
      </trkpt>
      <trkpt lat="49.39025" lon="-1.06059">
        <ele>3.1</ele>
        <time>2020-06-16T14:09:02Z</time>
      </trkpt>
      <trkpt lat="49.39025" lon="-1.06057">
        <ele>3.1</ele>
        <time>2020-06-16T14:09:03Z</time>
      </trkpt>
      <trkpt lat="49.39025" lon="-1.06055">
        <ele>3.1</ele>
        <time>2020-06-16T14:09:04Z</time>
      </trkpt>
      <trkpt lat="49.39026" lon="-1.06052">
        <ele>3</ele>
        <time>2020-06-16T14:09:05Z</time>
      </trkpt>
      <trkpt lat="49.39027" lon="-1.0605">
        <ele>3</ele>
        <time>2020-06-16T14:09:06Z</time>
      </trkpt>
      <trkpt lat="49.39027" lon="-1.06047">
        <ele>3</ele>
        <time>2020-06-16T14:09:07Z</time>
      </trkpt>
      <trkpt lat="49.39028" lon="-1.06045">
        <ele>3</ele>
        <time>2020-06-16T14:09:08Z</time>
      </trkpt>
      <trkpt lat="49.39028" lon="-1.06043">
        <ele>3</ele>
        <time>2020-06-16T14:09:09Z</time>
      </trkpt>
      <trkpt lat="49.39028" lon="-1.06039">
        <ele>3</ele>
        <time>2020-06-16T14:09:10Z</time>
      </trkpt>
      <trkpt lat="49.39028" lon="-1.06037">
        <ele>3</ele>
        <time>2020-06-16T14:09:11Z</time>
      </trkpt>
      <trkpt lat="49.39028" lon="-1.06036">
        <ele>3</ele>
        <time>2020-06-16T14:09:12Z</time>
      </trkpt>
      <trkpt lat="49.39029" lon="-1.0603">
        <ele>3</ele>
        <time>2020-06-16T14:09:13Z</time>
      </trkpt>
      <trkpt lat="49.39029" lon="-1.06028">
        <ele>3.1</ele>
        <time>2020-06-16T14:09:14Z</time>
      </trkpt>
      <trkpt lat="49.3903" lon="-1.06023">
        <ele>3.1</ele>
        <time>2020-06-16T14:09:15Z</time>
      </trkpt>
      <trkpt lat="49.3903" lon="-1.06021">
        <ele>3.1</ele>
        <time>2020-06-16T14:09:16Z</time>
      </trkpt>
      <trkpt lat="49.3903" lon="-1.06016">
        <ele>3.1</ele>
        <time>2020-06-16T14:09:17Z</time>
      </trkpt>
      <trkpt lat="49.3903" lon="-1.06015">
        <ele>3.1</ele>
        <time>2020-06-16T14:09:18Z</time>
      </trkpt>
      <trkpt lat="49.3903" lon="-1.06012">
        <ele>3.1</ele>
        <time>2020-06-16T14:09:19Z</time>
      </trkpt>
      <trkpt lat="49.3903" lon="-1.06009">
        <ele>3.1</ele>
        <time>2020-06-16T14:09:20Z</time>
      </trkpt>
      <trkpt lat="49.39031" lon="-1.06007">
        <ele>3.2</ele>
        <time>2020-06-16T14:09:21Z</time>
      </trkpt>
      <trkpt lat="49.39031" lon="-1.06004">
        <ele>3.2</ele>
        <time>2020-06-16T14:09:22Z</time>
      </trkpt>
      <trkpt lat="49.39031" lon="-1.06002">
        <ele>3.2</ele>
        <time>2020-06-16T14:09:23Z</time>
      </trkpt>
      <trkpt lat="49.39032" lon="-1.06001">
        <ele>3.2</ele>
        <time>2020-06-16T14:09:24Z</time>
      </trkpt>
      <trkpt lat="49.39032" lon="-1.05999">
        <ele>3.2</ele>
        <time>2020-06-16T14:09:25Z</time>
      </trkpt>
      <trkpt lat="49.39032" lon="-1.05996">
        <ele>3.2</ele>
        <time>2020-06-16T14:09:26Z</time>
      </trkpt>
      <trkpt lat="49.39032" lon="-1.05994">
        <ele>3.2</ele>
        <time>2020-06-16T14:09:27Z</time>
      </trkpt>
      <trkpt lat="49.39032" lon="-1.05992">
        <ele>3.2</ele>
        <time>2020-06-16T14:09:28Z</time>
      </trkpt>
      <trkpt lat="49.39032" lon="-1.0599">
        <ele>3.2</ele>
        <time>2020-06-16T14:09:29Z</time>
      </trkpt>
      <trkpt lat="49.39032" lon="-1.05987">
        <ele>3.2</ele>
        <time>2020-06-16T14:09:30Z</time>
      </trkpt>
      <trkpt lat="49.39032" lon="-1.05984">
        <ele>3.2</ele>
        <time>2020-06-16T14:09:31Z</time>
      </trkpt>
      <trkpt lat="49.39032" lon="-1.05979">
        <ele>3.2</ele>
        <time>2020-06-16T14:09:32Z</time>
      </trkpt>
      <trkpt lat="49.39032" lon="-1.05977">
        <ele>3.2</ele>
        <time>2020-06-16T14:09:33Z</time>
      </trkpt>
      <trkpt lat="49.39033" lon="-1.05973">
        <ele>3.2</ele>
        <time>2020-06-16T14:09:34Z</time>
      </trkpt>
      <trkpt lat="49.39033" lon="-1.05968">
        <ele>3.2</ele>
        <time>2020-06-16T14:09:35Z</time>
      </trkpt>
      <trkpt lat="49.39033" lon="-1.05964">
        <ele>3.2</ele>
        <time>2020-06-16T14:09:36Z</time>
      </trkpt>
      <trkpt lat="49.39034" lon="-1.0596">
        <ele>3.2</ele>
        <time>2020-06-16T14:09:37Z</time>
      </trkpt>
      <trkpt lat="49.39035" lon="-1.05955">
        <ele>3.2</ele>
        <time>2020-06-16T14:09:38Z</time>
      </trkpt>
      <trkpt lat="49.39035" lon="-1.0595">
        <ele>3.1</ele>
        <time>2020-06-16T14:09:39Z</time>
      </trkpt>
      <trkpt lat="49.39036" lon="-1.05945">
        <ele>3.1</ele>
        <time>2020-06-16T14:09:40Z</time>
      </trkpt>
      <trkpt lat="49.39037" lon="-1.05939">
        <ele>3</ele>
        <time>2020-06-16T14:09:41Z</time>
      </trkpt>
      <trkpt lat="49.39037" lon="-1.05935">
        <ele>3</ele>
        <time>2020-06-16T14:09:42Z</time>
      </trkpt>
      <trkpt lat="49.39037" lon="-1.05928">
        <ele>3</ele>
        <time>2020-06-16T14:09:43Z</time>
      </trkpt>
      <trkpt lat="49.39038" lon="-1.05921">
        <ele>3</ele>
        <time>2020-06-16T14:09:44Z</time>
      </trkpt>
      <trkpt lat="49.39038" lon="-1.05914">
        <ele>3</ele>
        <time>2020-06-16T14:09:45Z</time>
      </trkpt>
      <trkpt lat="49.39038" lon="-1.05908">
        <ele>3</ele>
        <time>2020-06-16T14:09:46Z</time>
      </trkpt>
      <trkpt lat="49.39038" lon="-1.05902">
        <ele>3</ele>
        <time>2020-06-16T14:09:47Z</time>
      </trkpt>
      <trkpt lat="49.39039" lon="-1.05897">
        <ele>3</ele>
        <time>2020-06-16T14:09:48Z</time>
      </trkpt>
      <trkpt lat="49.39039" lon="-1.05892">
        <ele>3</ele>
        <time>2020-06-16T14:09:49Z</time>
      </trkpt>
      <trkpt lat="49.3904" lon="-1.05888">
        <ele>3</ele>
        <time>2020-06-16T14:09:50Z</time>
      </trkpt>
      <trkpt lat="49.39039" lon="-1.05883">
        <ele>3</ele>
        <time>2020-06-16T14:09:51Z</time>
      </trkpt>
      <trkpt lat="49.39039" lon="-1.05878">
        <ele>3</ele>
        <time>2020-06-16T14:09:52Z</time>
      </trkpt>
      <trkpt lat="49.3904" lon="-1.05873">
        <ele>2.9</ele>
        <time>2020-06-16T14:09:53Z</time>
      </trkpt>
      <trkpt lat="49.3904" lon="-1.05868">
        <ele>2.9</ele>
        <time>2020-06-16T14:09:54Z</time>
      </trkpt>
      <trkpt lat="49.3904" lon="-1.05863">
        <ele>2.9</ele>
        <time>2020-06-16T14:09:55Z</time>
      </trkpt>
      <trkpt lat="49.39041" lon="-1.05858">
        <ele>2.8</ele>
        <time>2020-06-16T14:09:56Z</time>
      </trkpt>
      <trkpt lat="49.39041" lon="-1.05854">
        <ele>2.8</ele>
        <time>2020-06-16T14:09:57Z</time>
      </trkpt>
      <trkpt lat="49.39042" lon="-1.05849">
        <ele>2.7</ele>
        <time>2020-06-16T14:09:58Z</time>
      </trkpt>
      <trkpt lat="49.39043" lon="-1.05844">
        <ele>2.7</ele>
        <time>2020-06-16T14:09:59Z</time>
      </trkpt>
      <trkpt lat="49.39044" lon="-1.0584">
        <ele>2.6</ele>
        <time>2020-06-16T14:10:00Z</time>
      </trkpt>
      <trkpt lat="49.39045" lon="-1.05836">
        <ele>2.6</ele>
        <time>2020-06-16T14:10:01Z</time>
      </trkpt>
      <trkpt lat="49.39047" lon="-1.05831">
        <ele>2.6</ele>
        <time>2020-06-16T14:10:02Z</time>
      </trkpt>
      <trkpt lat="49.39047" lon="-1.0583">
        <ele>2.6</ele>
        <time>2020-06-16T14:10:03Z</time>
      </trkpt>
      <trkpt lat="49.39048" lon="-1.05825">
        <ele>2.6</ele>
        <time>2020-06-16T14:10:04Z</time>
      </trkpt>
      <trkpt lat="49.39048" lon="-1.05823">
        <ele>2.6</ele>
        <time>2020-06-16T14:10:05Z</time>
      </trkpt>
      <trkpt lat="49.3905" lon="-1.05818">
        <ele>2.6</ele>
        <time>2020-06-16T14:10:06Z</time>
      </trkpt>
      <trkpt lat="49.3905" lon="-1.05816">
        <ele>2.6</ele>
        <time>2020-06-16T14:10:07Z</time>
      </trkpt>
      <trkpt lat="49.39049" lon="-1.0581">
        <ele>2.6</ele>
        <time>2020-06-16T14:10:08Z</time>
      </trkpt>
      <trkpt lat="49.39049" lon="-1.05808">
        <ele>2.6</ele>
        <time>2020-06-16T14:10:09Z</time>
      </trkpt>
      <trkpt lat="49.3905" lon="-1.05803">
        <ele>2.5</ele>
        <time>2020-06-16T14:10:10Z</time>
      </trkpt>
      <trkpt lat="49.39051" lon="-1.05801">
        <ele>2.5</ele>
        <time>2020-06-16T14:10:11Z</time>
      </trkpt>
      <trkpt lat="49.39052" lon="-1.05797">
        <ele>2.5</ele>
        <time>2020-06-16T14:10:12Z</time>
      </trkpt>
      <trkpt lat="49.39054" lon="-1.05793">
        <ele>2.5</ele>
        <time>2020-06-16T14:10:13Z</time>
      </trkpt>
      <trkpt lat="49.39055" lon="-1.05789">
        <ele>2.4</ele>
        <time>2020-06-16T14:10:14Z</time>
      </trkpt>
      <trkpt lat="49.39055" lon="-1.05785">
        <ele>2.4</ele>
        <time>2020-06-16T14:10:15Z</time>
      </trkpt>
      <trkpt lat="49.39056" lon="-1.05779">
        <ele>2.4</ele>
        <time>2020-06-16T14:10:16Z</time>
      </trkpt>
      <trkpt lat="49.39057" lon="-1.05777">
        <ele>2.4</ele>
        <time>2020-06-16T14:10:17Z</time>
      </trkpt>
      <trkpt lat="49.39058" lon="-1.05772">
        <ele>2.4</ele>
        <time>2020-06-16T14:10:18Z</time>
      </trkpt>
      <trkpt lat="49.39058" lon="-1.05768">
        <ele>2.4</ele>
        <time>2020-06-16T14:10:19Z</time>
      </trkpt>
      <trkpt lat="49.3906" lon="-1.05763">
        <ele>2.4</ele>
        <time>2020-06-16T14:10:20Z</time>
      </trkpt>
      <trkpt lat="49.39061" lon="-1.05758">
        <ele>2.4</ele>
        <time>2020-06-16T14:10:21Z</time>
      </trkpt>
      <trkpt lat="49.39062" lon="-1.05753">
        <ele>2.5</ele>
        <time>2020-06-16T14:10:22Z</time>
      </trkpt>
      <trkpt lat="49.39064" lon="-1.05748">
        <ele>2.5</ele>
        <time>2020-06-16T14:10:23Z</time>
      </trkpt>
      <trkpt lat="49.39065" lon="-1.05744">
        <ele>2.5</ele>
        <time>2020-06-16T14:10:24Z</time>
      </trkpt>
      <trkpt lat="49.39065" lon="-1.05739">
        <ele>2.5</ele>
        <time>2020-06-16T14:10:25Z</time>
      </trkpt>
      <trkpt lat="49.39065" lon="-1.05734">
        <ele>2.5</ele>
        <time>2020-06-16T14:10:26Z</time>
      </trkpt>
      <trkpt lat="49.39066" lon="-1.0573">
        <ele>2.6</ele>
        <time>2020-06-16T14:10:27Z</time>
      </trkpt>
      <trkpt lat="49.39067" lon="-1.05725">
        <ele>2.6</ele>
        <time>2020-06-16T14:10:28Z</time>
      </trkpt>
      <trkpt lat="49.39068" lon="-1.0572">
        <ele>2.6</ele>
        <time>2020-06-16T14:10:29Z</time>
      </trkpt>
      <trkpt lat="49.39068" lon="-1.05715">
        <ele>2.6</ele>
        <time>2020-06-16T14:10:30Z</time>
      </trkpt>
      <trkpt lat="49.39069" lon="-1.05709">
        <ele>2.6</ele>
        <time>2020-06-16T14:10:31Z</time>
      </trkpt>
      <trkpt lat="49.39069" lon="-1.05705">
        <ele>2.6</ele>
        <time>2020-06-16T14:10:32Z</time>
      </trkpt>
      <trkpt lat="49.39069" lon="-1.05699">
        <ele>2.6</ele>
        <time>2020-06-16T14:10:33Z</time>
      </trkpt>
      <trkpt lat="49.39068" lon="-1.05693">
        <ele>2.6</ele>
        <time>2020-06-16T14:10:34Z</time>
      </trkpt>
      <trkpt lat="49.39067" lon="-1.05687">
        <ele>2.7</ele>
        <time>2020-06-16T14:10:35Z</time>
      </trkpt>
      <trkpt lat="49.39064" lon="-1.05681">
        <ele>2.7</ele>
        <time>2020-06-16T14:10:36Z</time>
      </trkpt>
      <trkpt lat="49.39062" lon="-1.05677">
        <ele>2.7</ele>
        <time>2020-06-16T14:10:37Z</time>
      </trkpt>
      <trkpt lat="49.3906" lon="-1.05672">
        <ele>2.7</ele>
        <time>2020-06-16T14:10:38Z</time>
      </trkpt>
      <trkpt lat="49.39058" lon="-1.05669">
        <ele>2.6</ele>
        <time>2020-06-16T14:10:39Z</time>
      </trkpt>
      <trkpt lat="49.39054" lon="-1.05666">
        <ele>2.5</ele>
        <time>2020-06-16T14:10:40Z</time>
      </trkpt>
      <trkpt lat="49.3905" lon="-1.05663">
        <ele>2.5</ele>
        <time>2020-06-16T14:10:41Z</time>
      </trkpt>
      <trkpt lat="49.39047" lon="-1.0566">
        <ele>2.4</ele>
        <time>2020-06-16T14:10:42Z</time>
      </trkpt>
      <trkpt lat="49.39043" lon="-1.05658">
        <ele>2.3</ele>
        <time>2020-06-16T14:10:43Z</time>
      </trkpt>
      <trkpt lat="49.3904" lon="-1.05657">
        <ele>2.3</ele>
        <time>2020-06-16T14:10:44Z</time>
      </trkpt>
      <trkpt lat="49.39036" lon="-1.05658">
        <ele>2.2</ele>
        <time>2020-06-16T14:10:45Z</time>
      </trkpt>
      <trkpt lat="49.39032" lon="-1.05658">
        <ele>2.2</ele>
        <time>2020-06-16T14:10:46Z</time>
      </trkpt>
      <trkpt lat="49.39028" lon="-1.05657">
        <ele>2.2</ele>
        <time>2020-06-16T14:10:47Z</time>
      </trkpt>
      <trkpt lat="49.39024" lon="-1.05657">
        <ele>2.2</ele>
        <time>2020-06-16T14:10:48Z</time>
      </trkpt>
      <trkpt lat="49.3902" lon="-1.05656">
        <ele>2.2</ele>
        <time>2020-06-16T14:10:49Z</time>
      </trkpt>
      <trkpt lat="49.39015" lon="-1.05655">
        <ele>2.2</ele>
        <time>2020-06-16T14:10:50Z</time>
      </trkpt>
      <trkpt lat="49.39011" lon="-1.05654">
        <ele>2.2</ele>
        <time>2020-06-16T14:10:51Z</time>
      </trkpt>
      <trkpt lat="49.39006" lon="-1.05653">
        <ele>2.2</ele>
        <time>2020-06-16T14:10:52Z</time>
      </trkpt>
      <trkpt lat="49.39001" lon="-1.05653">
        <ele>2.2</ele>
        <time>2020-06-16T14:10:53Z</time>
      </trkpt>
      <trkpt lat="49.38996" lon="-1.05652">
        <ele>2.2</ele>
        <time>2020-06-16T14:10:54Z</time>
      </trkpt>
      <trkpt lat="49.38991" lon="-1.05652">
        <ele>2.2</ele>
        <time>2020-06-16T14:10:55Z</time>
      </trkpt>
      <trkpt lat="49.38986" lon="-1.05652">
        <ele>2.2</ele>
        <time>2020-06-16T14:10:56Z</time>
      </trkpt>
      <trkpt lat="49.38981" lon="-1.05651">
        <ele>2.3</ele>
        <time>2020-06-16T14:10:57Z</time>
      </trkpt>
      <trkpt lat="49.38974" lon="-1.05651">
        <ele>2.3</ele>
        <time>2020-06-16T14:10:58Z</time>
      </trkpt>
      <trkpt lat="49.38969" lon="-1.0565">
        <ele>2.4</ele>
        <time>2020-06-16T14:10:59Z</time>
      </trkpt>
      <trkpt lat="49.38963" lon="-1.05649">
        <ele>2.4</ele>
        <time>2020-06-16T14:11:00Z</time>
      </trkpt>
      <trkpt lat="49.38958" lon="-1.05649">
        <ele>2.3</ele>
        <time>2020-06-16T14:11:01Z</time>
      </trkpt>
      <trkpt lat="49.38953" lon="-1.05648">
        <ele>2.3</ele>
        <time>2020-06-16T14:11:02Z</time>
      </trkpt>
      <trkpt lat="49.38949" lon="-1.05647">
        <ele>2.3</ele>
        <time>2020-06-16T14:11:03Z</time>
      </trkpt>
      <trkpt lat="49.38944" lon="-1.05646">
        <ele>2.3</ele>
        <time>2020-06-16T14:11:04Z</time>
      </trkpt>
      <trkpt lat="49.3894" lon="-1.05645">
        <ele>2.3</ele>
        <time>2020-06-16T14:11:05Z</time>
      </trkpt>
      <trkpt lat="49.38935" lon="-1.05645">
        <ele>2.3</ele>
        <time>2020-06-16T14:11:06Z</time>
      </trkpt>
      <trkpt lat="49.3893" lon="-1.05644">
        <ele>2.2</ele>
        <time>2020-06-16T14:11:07Z</time>
      </trkpt>
      <trkpt lat="49.38926" lon="-1.05643">
        <ele>2.2</ele>
        <time>2020-06-16T14:11:08Z</time>
      </trkpt>
      <trkpt lat="49.38921" lon="-1.05642">
        <ele>2.2</ele>
        <time>2020-06-16T14:11:09Z</time>
      </trkpt>
      <trkpt lat="49.38916" lon="-1.05642">
        <ele>2.2</ele>
        <time>2020-06-16T14:11:10Z</time>
      </trkpt>
      <trkpt lat="49.38912" lon="-1.05641">
        <ele>2.2</ele>
        <time>2020-06-16T14:11:11Z</time>
      </trkpt>
      <trkpt lat="49.38907" lon="-1.0564">
        <ele>2.2</ele>
        <time>2020-06-16T14:11:12Z</time>
      </trkpt>
      <trkpt lat="49.38902" lon="-1.05638">
        <ele>2.2</ele>
        <time>2020-06-16T14:11:13Z</time>
      </trkpt>
      <trkpt lat="49.38897" lon="-1.05636">
        <ele>2.1</ele>
        <time>2020-06-16T14:11:14Z</time>
      </trkpt>
      <trkpt lat="49.38893" lon="-1.05634">
        <ele>2.1</ele>
        <time>2020-06-16T14:11:15Z</time>
      </trkpt>
      <trkpt lat="49.38889" lon="-1.05633">
        <ele>2.1</ele>
        <time>2020-06-16T14:11:16Z</time>
      </trkpt>
      <trkpt lat="49.38885" lon="-1.05631">
        <ele>2.2</ele>
        <time>2020-06-16T14:11:17Z</time>
      </trkpt>
      <trkpt lat="49.3888" lon="-1.0563">
        <ele>2.2</ele>
        <time>2020-06-16T14:11:18Z</time>
      </trkpt>
      <trkpt lat="49.38875" lon="-1.05628">
        <ele>2.2</ele>
        <time>2020-06-16T14:11:19Z</time>
      </trkpt>
      <trkpt lat="49.3887" lon="-1.05627">
        <ele>2.2</ele>
        <time>2020-06-16T14:11:20Z</time>
      </trkpt>
      <trkpt lat="49.38865" lon="-1.05625">
        <ele>2.3</ele>
        <time>2020-06-16T14:11:21Z</time>
      </trkpt>
      <trkpt lat="49.3886" lon="-1.05621">
        <ele>2.3</ele>
        <time>2020-06-16T14:11:22Z</time>
      </trkpt>
      <trkpt lat="49.38855" lon="-1.05618">
        <ele>2.4</ele>
        <time>2020-06-16T14:11:23Z</time>
      </trkpt>
      <trkpt lat="49.3885" lon="-1.05616">
        <ele>2.4</ele>
        <time>2020-06-16T14:11:24Z</time>
      </trkpt>
      <trkpt lat="49.38846" lon="-1.05613">
        <ele>2.4</ele>
        <time>2020-06-16T14:11:25Z</time>
      </trkpt>
      <trkpt lat="49.38842" lon="-1.05611">
        <ele>2.4</ele>
        <time>2020-06-16T14:11:26Z</time>
      </trkpt>
      <trkpt lat="49.38838" lon="-1.05611">
        <ele>2.5</ele>
        <time>2020-06-16T14:11:27Z</time>
      </trkpt>
      <trkpt lat="49.38834" lon="-1.05609">
        <ele>2.5</ele>
        <time>2020-06-16T14:11:28Z</time>
      </trkpt>
      <trkpt lat="49.3883" lon="-1.05608">
        <ele>2.6</ele>
        <time>2020-06-16T14:11:29Z</time>
      </trkpt>
      <trkpt lat="49.38826" lon="-1.05606">
        <ele>2.6</ele>
        <time>2020-06-16T14:11:30Z</time>
      </trkpt>
      <trkpt lat="49.38821" lon="-1.05605">
        <ele>2.7</ele>
        <time>2020-06-16T14:11:31Z</time>
      </trkpt>
      <trkpt lat="49.38817" lon="-1.05603">
        <ele>2.8</ele>
        <time>2020-06-16T14:11:32Z</time>
      </trkpt>
      <trkpt lat="49.38813" lon="-1.056">
        <ele>2.9</ele>
        <time>2020-06-16T14:11:33Z</time>
      </trkpt>
      <trkpt lat="49.38808" lon="-1.05597">
        <ele>2.9</ele>
        <time>2020-06-16T14:11:34Z</time>
      </trkpt>
      <trkpt lat="49.38805" lon="-1.05596">
        <ele>3</ele>
        <time>2020-06-16T14:11:35Z</time>
      </trkpt>
      <trkpt lat="49.38801" lon="-1.05594">
        <ele>3.1</ele>
        <time>2020-06-16T14:11:36Z</time>
      </trkpt>
      <trkpt lat="49.38797" lon="-1.05592">
        <ele>3.1</ele>
        <time>2020-06-16T14:11:37Z</time>
      </trkpt>
      <trkpt lat="49.38793" lon="-1.05589">
        <ele>3.1</ele>
        <time>2020-06-16T14:11:38Z</time>
      </trkpt>
      <trkpt lat="49.38789" lon="-1.05588">
        <ele>3.2</ele>
        <time>2020-06-16T14:11:39Z</time>
      </trkpt>
      <trkpt lat="49.38785" lon="-1.05586">
        <ele>3.2</ele>
        <time>2020-06-16T14:11:40Z</time>
      </trkpt>
      <trkpt lat="49.38781" lon="-1.05584">
        <ele>3.3</ele>
        <time>2020-06-16T14:11:41Z</time>
      </trkpt>
      <trkpt lat="49.38778" lon="-1.05582">
        <ele>3.4</ele>
        <time>2020-06-16T14:11:42Z</time>
      </trkpt>
      <trkpt lat="49.38774" lon="-1.0558">
        <ele>3.4</ele>
        <time>2020-06-16T14:11:43Z</time>
      </trkpt>
      <trkpt lat="49.38771" lon="-1.05579">
        <ele>3.5</ele>
        <time>2020-06-16T14:11:44Z</time>
      </trkpt>
      <trkpt lat="49.38767" lon="-1.05577">
        <ele>3.6</ele>
        <time>2020-06-16T14:11:45Z</time>
      </trkpt>
      <trkpt lat="49.38763" lon="-1.05575">
        <ele>3.6</ele>
        <time>2020-06-16T14:11:46Z</time>
      </trkpt>
      <trkpt lat="49.38759" lon="-1.05574">
        <ele>3.7</ele>
        <time>2020-06-16T14:11:47Z</time>
      </trkpt>
      <trkpt lat="49.38755" lon="-1.05572">
        <ele>3.8</ele>
        <time>2020-06-16T14:11:48Z</time>
      </trkpt>
      <trkpt lat="49.38751" lon="-1.0557">
        <ele>3.8</ele>
        <time>2020-06-16T14:11:49Z</time>
      </trkpt>
      <trkpt lat="49.38747" lon="-1.05568">
        <ele>3.9</ele>
        <time>2020-06-16T14:11:50Z</time>
      </trkpt>
      <trkpt lat="49.38743" lon="-1.05567">
        <ele>4</ele>
        <time>2020-06-16T14:11:51Z</time>
      </trkpt>
      <trkpt lat="49.38739" lon="-1.05564">
        <ele>4.1</ele>
        <time>2020-06-16T14:11:52Z</time>
      </trkpt>
      <trkpt lat="49.38734" lon="-1.0556">
        <ele>4.2</ele>
        <time>2020-06-16T14:11:53Z</time>
      </trkpt>
      <trkpt lat="49.3873" lon="-1.05557">
        <ele>4.3</ele>
        <time>2020-06-16T14:11:54Z</time>
      </trkpt>
      <trkpt lat="49.38726" lon="-1.05554">
        <ele>4.3</ele>
        <time>2020-06-16T14:11:55Z</time>
      </trkpt>
      <trkpt lat="49.38722" lon="-1.05552">
        <ele>4.4</ele>
        <time>2020-06-16T14:11:56Z</time>
      </trkpt>
      <trkpt lat="49.38718" lon="-1.05549">
        <ele>4.4</ele>
        <time>2020-06-16T14:11:57Z</time>
      </trkpt>
      <trkpt lat="49.38713" lon="-1.05546">
        <ele>4.5</ele>
        <time>2020-06-16T14:11:58Z</time>
      </trkpt>
      <trkpt lat="49.38709" lon="-1.05544">
        <ele>4.5</ele>
        <time>2020-06-16T14:11:59Z</time>
      </trkpt>
      <trkpt lat="49.38706" lon="-1.05542">
        <ele>4.6</ele>
        <time>2020-06-16T14:12:00Z</time>
      </trkpt>
      <trkpt lat="49.38702" lon="-1.0554">
        <ele>4.7</ele>
        <time>2020-06-16T14:12:01Z</time>
      </trkpt>
      <trkpt lat="49.38698" lon="-1.05538">
        <ele>4.8</ele>
        <time>2020-06-16T14:12:02Z</time>
      </trkpt>
      <trkpt lat="49.38693" lon="-1.05537">
        <ele>4.9</ele>
        <time>2020-06-16T14:12:03Z</time>
      </trkpt>
      <trkpt lat="49.38688" lon="-1.05536">
        <ele>5.1</ele>
        <time>2020-06-16T14:12:04Z</time>
      </trkpt>
      <trkpt lat="49.38684" lon="-1.05536">
        <ele>5.2</ele>
        <time>2020-06-16T14:12:05Z</time>
      </trkpt>
      <trkpt lat="49.38681" lon="-1.05535">
        <ele>5.4</ele>
        <time>2020-06-16T14:12:06Z</time>
      </trkpt>
      <trkpt lat="49.38677" lon="-1.05535">
        <ele>5.5</ele>
        <time>2020-06-16T14:12:07Z</time>
      </trkpt>
      <trkpt lat="49.38674" lon="-1.05535">
        <ele>5.6</ele>
        <time>2020-06-16T14:12:08Z</time>
      </trkpt>
      <trkpt lat="49.3867" lon="-1.05536">
        <ele>5.7</ele>
        <time>2020-06-16T14:12:09Z</time>
      </trkpt>
      <trkpt lat="49.38667" lon="-1.05536">
        <ele>5.9</ele>
        <time>2020-06-16T14:12:10Z</time>
      </trkpt>
      <trkpt lat="49.38664" lon="-1.05535">
        <ele>6</ele>
        <time>2020-06-16T14:12:11Z</time>
      </trkpt>
      <trkpt lat="49.38661" lon="-1.05534">
        <ele>6.3</ele>
        <time>2020-06-16T14:12:12Z</time>
      </trkpt>
      <trkpt lat="49.3866" lon="-1.05533">
        <ele>6.3</ele>
        <time>2020-06-16T14:12:13Z</time>
      </trkpt>
      <trkpt lat="49.38659" lon="-1.05533">
        <ele>6.3</ele>
        <time>2020-06-16T14:12:14Z</time>
      </trkpt>
      <trkpt lat="49.38659" lon="-1.05531">
        <ele>6.2</ele>
        <time>2020-06-16T14:12:15Z</time>
      </trkpt>
      <trkpt lat="49.38659" lon="-1.0553">
        <ele>6.2</ele>
        <time>2020-06-16T14:12:16Z</time>
      </trkpt>
      <trkpt lat="49.3866" lon="-1.05528">
        <ele>6.2</ele>
        <time>2020-06-16T14:12:17Z</time>
      </trkpt>
      <trkpt lat="49.38662" lon="-1.05525">
        <ele>6.1</ele>
        <time>2020-06-16T14:12:18Z</time>
      </trkpt>
      <trkpt lat="49.38663" lon="-1.05524">
        <ele>6.1</ele>
        <time>2020-06-16T14:12:19Z</time>
      </trkpt>
      <trkpt lat="49.38666" lon="-1.0552">
        <ele>6</ele>
        <time>2020-06-16T14:12:20Z</time>
      </trkpt>
      <trkpt lat="49.38667" lon="-1.05518">
        <ele>6</ele>
        <time>2020-06-16T14:12:21Z</time>
      </trkpt>
      <trkpt lat="49.38669" lon="-1.05514">
        <ele>5.9</ele>
        <time>2020-06-16T14:12:22Z</time>
      </trkpt>
      <trkpt lat="49.38671" lon="-1.0551">
        <ele>5.9</ele>
        <time>2020-06-16T14:12:23Z</time>
      </trkpt>
      <trkpt lat="49.38672" lon="-1.05506">
        <ele>5.9</ele>
        <time>2020-06-16T14:12:24Z</time>
      </trkpt>
      <trkpt lat="49.38674" lon="-1.05501">
        <ele>5.8</ele>
        <time>2020-06-16T14:12:25Z</time>
      </trkpt>
      <trkpt lat="49.38676" lon="-1.05496">
        <ele>5.8</ele>
        <time>2020-06-16T14:12:26Z</time>
      </trkpt>
      <trkpt lat="49.38677" lon="-1.0549">
        <ele>5.8</ele>
        <time>2020-06-16T14:12:27Z</time>
      </trkpt>
      <trkpt lat="49.38679" lon="-1.05484">
        <ele>5.7</ele>
        <time>2020-06-16T14:12:28Z</time>
      </trkpt>
      <trkpt lat="49.38681" lon="-1.05477">
        <ele>5.7</ele>
        <time>2020-06-16T14:12:29Z</time>
      </trkpt>
      <trkpt lat="49.38683" lon="-1.05472">
        <ele>5.6</ele>
        <time>2020-06-16T14:12:30Z</time>
      </trkpt>
      <trkpt lat="49.38685" lon="-1.05466">
        <ele>5.6</ele>
        <time>2020-06-16T14:12:31Z</time>
      </trkpt>
      <trkpt lat="49.38687" lon="-1.05459">
        <ele>5.6</ele>
        <time>2020-06-16T14:12:32Z</time>
      </trkpt>
      <trkpt lat="49.38689" lon="-1.05453">
        <ele>5.6</ele>
        <time>2020-06-16T14:12:33Z</time>
      </trkpt>
      <trkpt lat="49.3869" lon="-1.05447">
        <ele>5.5</ele>
        <time>2020-06-16T14:12:34Z</time>
      </trkpt>
      <trkpt lat="49.38691" lon="-1.05441">
        <ele>5.5</ele>
        <time>2020-06-16T14:12:35Z</time>
      </trkpt>
      <trkpt lat="49.38693" lon="-1.05435">
        <ele>5.5</ele>
        <time>2020-06-16T14:12:36Z</time>
      </trkpt>
      <trkpt lat="49.38694" lon="-1.05429">
        <ele>5.5</ele>
        <time>2020-06-16T14:12:37Z</time>
      </trkpt>
      <trkpt lat="49.38696" lon="-1.05423">
        <ele>5.5</ele>
        <time>2020-06-16T14:12:38Z</time>
      </trkpt>
      <trkpt lat="49.38697" lon="-1.05416">
        <ele>5.5</ele>
        <time>2020-06-16T14:12:39Z</time>
      </trkpt>
      <trkpt lat="49.38697" lon="-1.05409">
        <ele>5.5</ele>
        <time>2020-06-16T14:12:40Z</time>
      </trkpt>
      <trkpt lat="49.38698" lon="-1.05403">
        <ele>5.5</ele>
        <time>2020-06-16T14:12:41Z</time>
      </trkpt>
      <trkpt lat="49.38698" lon="-1.05397">
        <ele>5.5</ele>
        <time>2020-06-16T14:12:42Z</time>
      </trkpt>
      <trkpt lat="49.38699" lon="-1.05391">
        <ele>5.5</ele>
        <time>2020-06-16T14:12:43Z</time>
      </trkpt>
      <trkpt lat="49.38699" lon="-1.05385">
        <ele>5.5</ele>
        <time>2020-06-16T14:12:44Z</time>
      </trkpt>
      <trkpt lat="49.38699" lon="-1.05378">
        <ele>5.5</ele>
        <time>2020-06-16T14:12:45Z</time>
      </trkpt>
      <trkpt lat="49.387" lon="-1.05372">
        <ele>5.5</ele>
        <time>2020-06-16T14:12:46Z</time>
      </trkpt>
      <trkpt lat="49.38699" lon="-1.05366">
        <ele>5.5</ele>
        <time>2020-06-16T14:12:47Z</time>
      </trkpt>
      <trkpt lat="49.38699" lon="-1.05358">
        <ele>5.5</ele>
        <time>2020-06-16T14:12:48Z</time>
      </trkpt>
      <trkpt lat="49.38699" lon="-1.05351">
        <ele>5.5</ele>
        <time>2020-06-16T14:12:49Z</time>
      </trkpt>
      <trkpt lat="49.38699" lon="-1.05344">
        <ele>5.5</ele>
        <time>2020-06-16T14:12:50Z</time>
      </trkpt>
      <trkpt lat="49.387" lon="-1.05336">
        <ele>5.5</ele>
        <time>2020-06-16T14:12:51Z</time>
      </trkpt>
      <trkpt lat="49.387" lon="-1.05329">
        <ele>5.6</ele>
        <time>2020-06-16T14:12:52Z</time>
      </trkpt>
      <trkpt lat="49.387" lon="-1.05321">
        <ele>5.6</ele>
        <time>2020-06-16T14:12:53Z</time>
      </trkpt>
      <trkpt lat="49.38701" lon="-1.05313">
        <ele>5.6</ele>
        <time>2020-06-16T14:12:54Z</time>
      </trkpt>
      <trkpt lat="49.38701" lon="-1.05306">
        <ele>5.7</ele>
        <time>2020-06-16T14:12:55Z</time>
      </trkpt>
      <trkpt lat="49.38702" lon="-1.053">
        <ele>5.7</ele>
        <time>2020-06-16T14:12:56Z</time>
      </trkpt>
      <trkpt lat="49.38702" lon="-1.05295">
        <ele>5.7</ele>
        <time>2020-06-16T14:12:57Z</time>
      </trkpt>
      <trkpt lat="49.38703" lon="-1.05289">
        <ele>5.7</ele>
        <time>2020-06-16T14:12:58Z</time>
      </trkpt>
      <trkpt lat="49.38704" lon="-1.05282">
        <ele>5.7</ele>
        <time>2020-06-16T14:12:59Z</time>
      </trkpt>
      <trkpt lat="49.38704" lon="-1.05275">
        <ele>5.7</ele>
        <time>2020-06-16T14:13:00Z</time>
      </trkpt>
      <trkpt lat="49.38705" lon="-1.05267">
        <ele>5.7</ele>
        <time>2020-06-16T14:13:01Z</time>
      </trkpt>
      <trkpt lat="49.38705" lon="-1.05261">
        <ele>5.7</ele>
        <time>2020-06-16T14:13:02Z</time>
      </trkpt>
      <trkpt lat="49.38706" lon="-1.05255">
        <ele>5.7</ele>
        <time>2020-06-16T14:13:03Z</time>
      </trkpt>
      <trkpt lat="49.38706" lon="-1.05249">
        <ele>5.7</ele>
        <time>2020-06-16T14:13:04Z</time>
      </trkpt>
      <trkpt lat="49.38707" lon="-1.05243">
        <ele>5.7</ele>
        <time>2020-06-16T14:13:05Z</time>
      </trkpt>
      <trkpt lat="49.38707" lon="-1.05236">
        <ele>5.7</ele>
        <time>2020-06-16T14:13:06Z</time>
      </trkpt>
      <trkpt lat="49.38708" lon="-1.05228">
        <ele>5.7</ele>
        <time>2020-06-16T14:13:07Z</time>
      </trkpt>
      <trkpt lat="49.38708" lon="-1.0522">
        <ele>5.7</ele>
        <time>2020-06-16T14:13:08Z</time>
      </trkpt>
      <trkpt lat="49.38708" lon="-1.05212">
        <ele>5.7</ele>
        <time>2020-06-16T14:13:09Z</time>
      </trkpt>
      <trkpt lat="49.38708" lon="-1.05203">
        <ele>5.6</ele>
        <time>2020-06-16T14:13:10Z</time>
      </trkpt>
      <trkpt lat="49.38709" lon="-1.05194">
        <ele>5.6</ele>
        <time>2020-06-16T14:13:11Z</time>
      </trkpt>
      <trkpt lat="49.3871" lon="-1.05186">
        <ele>5.7</ele>
        <time>2020-06-16T14:13:12Z</time>
      </trkpt>
      <trkpt lat="49.38711" lon="-1.05179">
        <ele>5.7</ele>
        <time>2020-06-16T14:13:13Z</time>
      </trkpt>
      <trkpt lat="49.38711" lon="-1.05172">
        <ele>5.7</ele>
        <time>2020-06-16T14:13:14Z</time>
      </trkpt>
      <trkpt lat="49.38711" lon="-1.05165">
        <ele>5.8</ele>
        <time>2020-06-16T14:13:15Z</time>
      </trkpt>
      <trkpt lat="49.38712" lon="-1.05159">
        <ele>5.8</ele>
        <time>2020-06-16T14:13:16Z</time>
      </trkpt>
      <trkpt lat="49.38713" lon="-1.05152">
        <ele>5.9</ele>
        <time>2020-06-16T14:13:17Z</time>
      </trkpt>
      <trkpt lat="49.38713" lon="-1.05146">
        <ele>5.9</ele>
        <time>2020-06-16T14:13:18Z</time>
      </trkpt>
      <trkpt lat="49.38714" lon="-1.05138">
        <ele>6</ele>
        <time>2020-06-16T14:13:19Z</time>
      </trkpt>
      <trkpt lat="49.38715" lon="-1.0513">
        <ele>6.2</ele>
        <time>2020-06-16T14:13:20Z</time>
      </trkpt>
      <trkpt lat="49.38716" lon="-1.05122">
        <ele>6.3</ele>
        <time>2020-06-16T14:13:21Z</time>
      </trkpt>
      <trkpt lat="49.38717" lon="-1.05115">
        <ele>6.5</ele>
        <time>2020-06-16T14:13:22Z</time>
      </trkpt>
      <trkpt lat="49.38719" lon="-1.05109">
        <ele>6.5</ele>
        <time>2020-06-16T14:13:23Z</time>
      </trkpt>
      <trkpt lat="49.38721" lon="-1.05104">
        <ele>6.5</ele>
        <time>2020-06-16T14:13:24Z</time>
      </trkpt>
      <trkpt lat="49.38723" lon="-1.05096">
        <ele>6.5</ele>
        <time>2020-06-16T14:13:25Z</time>
      </trkpt>
      <trkpt lat="49.38723" lon="-1.0509">
        <ele>6.5</ele>
        <time>2020-06-16T14:13:26Z</time>
      </trkpt>
      <trkpt lat="49.38724" lon="-1.05083">
        <ele>6.4</ele>
        <time>2020-06-16T14:13:27Z</time>
      </trkpt>
      <trkpt lat="49.38725" lon="-1.05076">
        <ele>6.4</ele>
        <time>2020-06-16T14:13:28Z</time>
      </trkpt>
      <trkpt lat="49.38726" lon="-1.05068">
        <ele>6.3</ele>
        <time>2020-06-16T14:13:29Z</time>
      </trkpt>
      <trkpt lat="49.38726" lon="-1.05059">
        <ele>6.2</ele>
        <time>2020-06-16T14:13:30Z</time>
      </trkpt>
      <trkpt lat="49.38726" lon="-1.05051">
        <ele>6.1</ele>
        <time>2020-06-16T14:13:31Z</time>
      </trkpt>
      <trkpt lat="49.38726" lon="-1.05044">
        <ele>6.1</ele>
        <time>2020-06-16T14:13:32Z</time>
      </trkpt>
      <trkpt lat="49.38727" lon="-1.05036">
        <ele>6</ele>
        <time>2020-06-16T14:13:33Z</time>
      </trkpt>
      <trkpt lat="49.38728" lon="-1.05029">
        <ele>6</ele>
        <time>2020-06-16T14:13:34Z</time>
      </trkpt>
      <trkpt lat="49.38728" lon="-1.05022">
        <ele>6</ele>
        <time>2020-06-16T14:13:35Z</time>
      </trkpt>
      <trkpt lat="49.38729" lon="-1.05014">
        <ele>6</ele>
        <time>2020-06-16T14:13:36Z</time>
      </trkpt>
      <trkpt lat="49.3873" lon="-1.05008">
        <ele>6</ele>
        <time>2020-06-16T14:13:37Z</time>
      </trkpt>
      <trkpt lat="49.38731" lon="-1.05001">
        <ele>6</ele>
        <time>2020-06-16T14:13:38Z</time>
      </trkpt>
      <trkpt lat="49.38731" lon="-1.04994">
        <ele>6</ele>
        <time>2020-06-16T14:13:39Z</time>
      </trkpt>
      <trkpt lat="49.38731" lon="-1.04988">
        <ele>6</ele>
        <time>2020-06-16T14:13:40Z</time>
      </trkpt>
      <trkpt lat="49.38731" lon="-1.04981">
        <ele>6</ele>
        <time>2020-06-16T14:13:41Z</time>
      </trkpt>
      <trkpt lat="49.38731" lon="-1.04974">
        <ele>6</ele>
        <time>2020-06-16T14:13:42Z</time>
      </trkpt>
      <trkpt lat="49.38731" lon="-1.04965">
        <ele>6</ele>
        <time>2020-06-16T14:13:43Z</time>
      </trkpt>
      <trkpt lat="49.38731" lon="-1.04959">
        <ele>5.9</ele>
        <time>2020-06-16T14:13:44Z</time>
      </trkpt>
      <trkpt lat="49.38732" lon="-1.04953">
        <ele>5.9</ele>
        <time>2020-06-16T14:13:45Z</time>
      </trkpt>
      <trkpt lat="49.38732" lon="-1.04946">
        <ele>5.9</ele>
        <time>2020-06-16T14:13:46Z</time>
      </trkpt>
      <trkpt lat="49.38733" lon="-1.04939">
        <ele>5.9</ele>
        <time>2020-06-16T14:13:47Z</time>
      </trkpt>
      <trkpt lat="49.38733" lon="-1.04932">
        <ele>5.9</ele>
        <time>2020-06-16T14:13:48Z</time>
      </trkpt>
      <trkpt lat="49.38733" lon="-1.04925">
        <ele>5.9</ele>
        <time>2020-06-16T14:13:49Z</time>
      </trkpt>
      <trkpt lat="49.38733" lon="-1.04918">
        <ele>5.9</ele>
        <time>2020-06-16T14:13:50Z</time>
      </trkpt>
      <trkpt lat="49.38734" lon="-1.04912">
        <ele>5.9</ele>
        <time>2020-06-16T14:13:51Z</time>
      </trkpt>
      <trkpt lat="49.38735" lon="-1.04904">
        <ele>5.9</ele>
        <time>2020-06-16T14:13:52Z</time>
      </trkpt>
      <trkpt lat="49.38737" lon="-1.04898">
        <ele>5.9</ele>
        <time>2020-06-16T14:13:53Z</time>
      </trkpt>
      <trkpt lat="49.3874" lon="-1.04892">
        <ele>5.7</ele>
        <time>2020-06-16T14:13:54Z</time>
      </trkpt>
      <trkpt lat="49.38742" lon="-1.04886">
        <ele>5.7</ele>
        <time>2020-06-16T14:13:55Z</time>
      </trkpt>
      <trkpt lat="49.38744" lon="-1.04881">
        <ele>5.6</ele>
        <time>2020-06-16T14:13:56Z</time>
      </trkpt>
      <trkpt lat="49.38747" lon="-1.04875">
        <ele>5.5</ele>
        <time>2020-06-16T14:13:57Z</time>
      </trkpt>
      <trkpt lat="49.38748" lon="-1.04869">
        <ele>5.4</ele>
        <time>2020-06-16T14:13:58Z</time>
      </trkpt>
      <trkpt lat="49.3875" lon="-1.04863">
        <ele>5.3</ele>
        <time>2020-06-16T14:13:59Z</time>
      </trkpt>
      <trkpt lat="49.38752" lon="-1.04857">
        <ele>5.2</ele>
        <time>2020-06-16T14:14:00Z</time>
      </trkpt>
      <trkpt lat="49.38753" lon="-1.04851">
        <ele>5.1</ele>
        <time>2020-06-16T14:14:01Z</time>
      </trkpt>
      <trkpt lat="49.38754" lon="-1.04846">
        <ele>5</ele>
        <time>2020-06-16T14:14:02Z</time>
      </trkpt>
      <trkpt lat="49.38755" lon="-1.0484">
        <ele>4.9</ele>
        <time>2020-06-16T14:14:03Z</time>
      </trkpt>
      <trkpt lat="49.38756" lon="-1.04835">
        <ele>4.8</ele>
        <time>2020-06-16T14:14:04Z</time>
      </trkpt>
      <trkpt lat="49.38756" lon="-1.04829">
        <ele>4.8</ele>
        <time>2020-06-16T14:14:05Z</time>
      </trkpt>
      <trkpt lat="49.38756" lon="-1.04827">
        <ele>4.8</ele>
        <time>2020-06-16T14:14:06Z</time>
      </trkpt>
      <trkpt lat="49.38757" lon="-1.04821">
        <ele>4.8</ele>
        <time>2020-06-16T14:14:07Z</time>
      </trkpt>
      <trkpt lat="49.38757" lon="-1.04819">
        <ele>4.8</ele>
        <time>2020-06-16T14:14:08Z</time>
      </trkpt>
      <trkpt lat="49.38758" lon="-1.04815">
        <ele>4.8</ele>
        <time>2020-06-16T14:14:09Z</time>
      </trkpt>
      <trkpt lat="49.38759" lon="-1.0481">
        <ele>4.8</ele>
        <time>2020-06-16T14:14:10Z</time>
      </trkpt>
      <trkpt lat="49.38759" lon="-1.04806">
        <ele>4.8</ele>
        <time>2020-06-16T14:14:11Z</time>
      </trkpt>
      <trkpt lat="49.38761" lon="-1.048">
        <ele>4.8</ele>
        <time>2020-06-16T14:14:12Z</time>
      </trkpt>
      <trkpt lat="49.38762" lon="-1.04795">
        <ele>4.8</ele>
        <time>2020-06-16T14:14:13Z</time>
      </trkpt>
      <trkpt lat="49.38764" lon="-1.0479">
        <ele>4.8</ele>
        <time>2020-06-16T14:14:14Z</time>
      </trkpt>
      <trkpt lat="49.38765" lon="-1.04786">
        <ele>4.8</ele>
        <time>2020-06-16T14:14:15Z</time>
      </trkpt>
      <trkpt lat="49.38765" lon="-1.0478">
        <ele>4.8</ele>
        <time>2020-06-16T14:14:16Z</time>
      </trkpt>
      <trkpt lat="49.38767" lon="-1.04775">
        <ele>4.8</ele>
        <time>2020-06-16T14:14:17Z</time>
      </trkpt>
      <trkpt lat="49.38768" lon="-1.0477">
        <ele>4.8</ele>
        <time>2020-06-16T14:14:18Z</time>
      </trkpt>
      <trkpt lat="49.38769" lon="-1.04766">
        <ele>4.8</ele>
        <time>2020-06-16T14:14:19Z</time>
      </trkpt>
      <trkpt lat="49.3877" lon="-1.04762">
        <ele>4.8</ele>
        <time>2020-06-16T14:14:20Z</time>
      </trkpt>
      <trkpt lat="49.38771" lon="-1.04757">
        <ele>4.8</ele>
        <time>2020-06-16T14:14:21Z</time>
      </trkpt>
      <trkpt lat="49.38771" lon="-1.04752">
        <ele>4.8</ele>
        <time>2020-06-16T14:14:22Z</time>
      </trkpt>
      <trkpt lat="49.38772" lon="-1.04747">
        <ele>4.8</ele>
        <time>2020-06-16T14:14:23Z</time>
      </trkpt>
      <trkpt lat="49.38772" lon="-1.04742">
        <ele>4.8</ele>
        <time>2020-06-16T14:14:24Z</time>
      </trkpt>
      <trkpt lat="49.38773" lon="-1.04737">
        <ele>4.8</ele>
        <time>2020-06-16T14:14:25Z</time>
      </trkpt>
      <trkpt lat="49.38773" lon="-1.04732">
        <ele>4.8</ele>
        <time>2020-06-16T14:14:26Z</time>
      </trkpt>
      <trkpt lat="49.38774" lon="-1.04726">
        <ele>4.8</ele>
        <time>2020-06-16T14:14:27Z</time>
      </trkpt>
      <trkpt lat="49.38775" lon="-1.0472">
        <ele>4.8</ele>
        <time>2020-06-16T14:14:28Z</time>
      </trkpt>
      <trkpt lat="49.38777" lon="-1.04715">
        <ele>4.9</ele>
        <time>2020-06-16T14:14:29Z</time>
      </trkpt>
      <trkpt lat="49.3878" lon="-1.04713">
        <ele>4.9</ele>
        <time>2020-06-16T14:14:30Z</time>
      </trkpt>
      <trkpt lat="49.38782" lon="-1.04713">
        <ele>4.9</ele>
        <time>2020-06-16T14:14:31Z</time>
      </trkpt>
      <trkpt lat="49.38786" lon="-1.04712">
        <ele>4.9</ele>
        <time>2020-06-16T14:14:32Z</time>
      </trkpt>
      <trkpt lat="49.3879" lon="-1.04711">
        <ele>4.9</ele>
        <time>2020-06-16T14:14:33Z</time>
      </trkpt>
      <trkpt lat="49.38795" lon="-1.04709">
        <ele>4.8</ele>
        <time>2020-06-16T14:14:34Z</time>
      </trkpt>
      <trkpt lat="49.38799" lon="-1.04706">
        <ele>4.7</ele>
        <time>2020-06-16T14:14:35Z</time>
      </trkpt>
      <trkpt lat="49.38804" lon="-1.04703">
        <ele>4.6</ele>
        <time>2020-06-16T14:14:36Z</time>
      </trkpt>
      <trkpt lat="49.38808" lon="-1.047">
        <ele>4.6</ele>
        <time>2020-06-16T14:14:37Z</time>
      </trkpt>
      <trkpt lat="49.38813" lon="-1.04697">
        <ele>4.5</ele>
        <time>2020-06-16T14:14:38Z</time>
      </trkpt>
      <trkpt lat="49.38817" lon="-1.04695">
        <ele>4.5</ele>
        <time>2020-06-16T14:14:39Z</time>
      </trkpt>
      <trkpt lat="49.38822" lon="-1.04693">
        <ele>4.4</ele>
        <time>2020-06-16T14:14:40Z</time>
      </trkpt>
      <trkpt lat="49.38826" lon="-1.04691">
        <ele>4.3</ele>
        <time>2020-06-16T14:14:41Z</time>
      </trkpt>
      <trkpt lat="49.38831" lon="-1.04689">
        <ele>4.3</ele>
        <time>2020-06-16T14:14:42Z</time>
      </trkpt>
      <trkpt lat="49.38835" lon="-1.04688">
        <ele>4.2</ele>
        <time>2020-06-16T14:14:43Z</time>
      </trkpt>
      <trkpt lat="49.3884" lon="-1.04687">
        <ele>4.1</ele>
        <time>2020-06-16T14:14:44Z</time>
      </trkpt>
      <trkpt lat="49.38845" lon="-1.04686">
        <ele>4.1</ele>
        <time>2020-06-16T14:14:45Z</time>
      </trkpt>
      <trkpt lat="49.38849" lon="-1.04687">
        <ele>4</ele>
        <time>2020-06-16T14:14:46Z</time>
      </trkpt>
      <trkpt lat="49.38853" lon="-1.04687">
        <ele>4</ele>
        <time>2020-06-16T14:14:47Z</time>
      </trkpt>
      <trkpt lat="49.38857" lon="-1.04687">
        <ele>3.9</ele>
        <time>2020-06-16T14:14:48Z</time>
      </trkpt>
      <trkpt lat="49.38862" lon="-1.04687">
        <ele>3.9</ele>
        <time>2020-06-16T14:14:49Z</time>
      </trkpt>
      <trkpt lat="49.38866" lon="-1.04687">
        <ele>3.8</ele>
        <time>2020-06-16T14:14:50Z</time>
      </trkpt>
      <trkpt lat="49.3887" lon="-1.04686">
        <ele>3.8</ele>
        <time>2020-06-16T14:14:51Z</time>
      </trkpt>
      <trkpt lat="49.38873" lon="-1.04686">
        <ele>3.8</ele>
        <time>2020-06-16T14:14:52Z</time>
      </trkpt>
      <trkpt lat="49.38878" lon="-1.04686">
        <ele>3.7</ele>
        <time>2020-06-16T14:14:53Z</time>
      </trkpt>
      <trkpt lat="49.38881" lon="-1.04686">
        <ele>3.7</ele>
        <time>2020-06-16T14:14:54Z</time>
      </trkpt>
      <trkpt lat="49.38885" lon="-1.04687">
        <ele>3.7</ele>
        <time>2020-06-16T14:14:55Z</time>
      </trkpt>
      <trkpt lat="49.38889" lon="-1.04688">
        <ele>3.7</ele>
        <time>2020-06-16T14:14:56Z</time>
      </trkpt>
      <trkpt lat="49.38892" lon="-1.0469">
        <ele>3.6</ele>
        <time>2020-06-16T14:14:57Z</time>
      </trkpt>
      <trkpt lat="49.38896" lon="-1.04693">
        <ele>3.6</ele>
        <time>2020-06-16T14:14:58Z</time>
      </trkpt>
      <trkpt lat="49.38901" lon="-1.04694">
        <ele>3.6</ele>
        <time>2020-06-16T14:14:59Z</time>
      </trkpt>
      <trkpt lat="49.38906" lon="-1.04695">
        <ele>3.6</ele>
        <time>2020-06-16T14:15:00Z</time>
      </trkpt>
      <trkpt lat="49.38909" lon="-1.04696">
        <ele>3.6</ele>
        <time>2020-06-16T14:15:01Z</time>
      </trkpt>
      <trkpt lat="49.38913" lon="-1.04699">
        <ele>3.6</ele>
        <time>2020-06-16T14:15:02Z</time>
      </trkpt>
      <trkpt lat="49.38917" lon="-1.047">
        <ele>3.6</ele>
        <time>2020-06-16T14:15:03Z</time>
      </trkpt>
      <trkpt lat="49.38921" lon="-1.04701">
        <ele>3.6</ele>
        <time>2020-06-16T14:15:04Z</time>
      </trkpt>
      <trkpt lat="49.38925" lon="-1.04702">
        <ele>3.7</ele>
        <time>2020-06-16T14:15:05Z</time>
      </trkpt>
      <trkpt lat="49.38929" lon="-1.04703">
        <ele>3.7</ele>
        <time>2020-06-16T14:15:06Z</time>
      </trkpt>
      <trkpt lat="49.38932" lon="-1.04704">
        <ele>3.7</ele>
        <time>2020-06-16T14:15:07Z</time>
      </trkpt>
      <trkpt lat="49.38935" lon="-1.04704">
        <ele>3.7</ele>
        <time>2020-06-16T14:15:08Z</time>
      </trkpt>
      <trkpt lat="49.38938" lon="-1.04705">
        <ele>3.7</ele>
        <time>2020-06-16T14:15:09Z</time>
      </trkpt>
      <trkpt lat="49.38941" lon="-1.04705">
        <ele>3.7</ele>
        <time>2020-06-16T14:15:10Z</time>
      </trkpt>
      <trkpt lat="49.38945" lon="-1.04706">
        <ele>3.7</ele>
        <time>2020-06-16T14:15:11Z</time>
      </trkpt>
      <trkpt lat="49.38947" lon="-1.04707">
        <ele>3.7</ele>
        <time>2020-06-16T14:15:12Z</time>
      </trkpt>
      <trkpt lat="49.3895" lon="-1.04707">
        <ele>3.7</ele>
        <time>2020-06-16T14:15:13Z</time>
      </trkpt>
      <trkpt lat="49.38951" lon="-1.04707">
        <ele>3.7</ele>
        <time>2020-06-16T14:15:14Z</time>
      </trkpt>
      <trkpt lat="49.38956" lon="-1.04703">
        <ele>3.8</ele>
        <time>2020-06-16T14:15:15Z</time>
      </trkpt>
      <trkpt lat="49.38959" lon="-1.047">
        <ele>3.8</ele>
        <time>2020-06-16T14:15:16Z</time>
      </trkpt>
      <trkpt lat="49.3896" lon="-1.04696">
        <ele>3.8</ele>
        <time>2020-06-16T14:15:17Z</time>
      </trkpt>
      <trkpt lat="49.38961" lon="-1.04695">
        <ele>3.8</ele>
        <time>2020-06-16T14:15:18Z</time>
      </trkpt>
      <trkpt lat="49.38961" lon="-1.04691">
        <ele>3.8</ele>
        <time>2020-06-16T14:15:19Z</time>
      </trkpt>
      <trkpt lat="49.38959" lon="-1.04686">
        <ele>3.8</ele>
        <time>2020-06-16T14:15:20Z</time>
      </trkpt>
      <trkpt lat="49.38959" lon="-1.04682">
        <ele>3.7</ele>
        <time>2020-06-16T14:15:21Z</time>
      </trkpt>
      <trkpt lat="49.38958" lon="-1.04677">
        <ele>3.7</ele>
        <time>2020-06-16T14:15:22Z</time>
      </trkpt>
      <trkpt lat="49.38957" lon="-1.04673">
        <ele>3.7</ele>
        <time>2020-06-16T14:15:23Z</time>
      </trkpt>
      <trkpt lat="49.38956" lon="-1.04668">
        <ele>3.6</ele>
        <time>2020-06-16T14:15:24Z</time>
      </trkpt>
      <trkpt lat="49.38955" lon="-1.04664">
        <ele>3.6</ele>
        <time>2020-06-16T14:15:25Z</time>
      </trkpt>
      <trkpt lat="49.38954" lon="-1.04658">
        <ele>3.6</ele>
        <time>2020-06-16T14:15:26Z</time>
      </trkpt>
      <trkpt lat="49.38953" lon="-1.04656">
        <ele>3.6</ele>
        <time>2020-06-16T14:15:27Z</time>
      </trkpt>
      <trkpt lat="49.38953" lon="-1.0465">
        <ele>3.5</ele>
        <time>2020-06-16T14:15:28Z</time>
      </trkpt>
      <trkpt lat="49.38953" lon="-1.04648">
        <ele>3.5</ele>
        <time>2020-06-16T14:15:29Z</time>
      </trkpt>
      <trkpt lat="49.38953" lon="-1.04643">
        <ele>3.5</ele>
        <time>2020-06-16T14:15:30Z</time>
      </trkpt>
      <trkpt lat="49.38953" lon="-1.04637">
        <ele>3.5</ele>
        <time>2020-06-16T14:15:31Z</time>
      </trkpt>
      <trkpt lat="49.38952" lon="-1.04632">
        <ele>3.5</ele>
        <time>2020-06-16T14:15:32Z</time>
      </trkpt>
      <trkpt lat="49.38952" lon="-1.04627">
        <ele>3.4</ele>
        <time>2020-06-16T14:15:33Z</time>
      </trkpt>
      <trkpt lat="49.3895" lon="-1.04621">
        <ele>3.4</ele>
        <time>2020-06-16T14:15:34Z</time>
      </trkpt>
      <trkpt lat="49.38949" lon="-1.04616">
        <ele>3.4</ele>
        <time>2020-06-16T14:15:35Z</time>
      </trkpt>
      <trkpt lat="49.38948" lon="-1.04612">
        <ele>3.4</ele>
        <time>2020-06-16T14:15:36Z</time>
      </trkpt>
      <trkpt lat="49.38948" lon="-1.04608">
        <ele>3.4</ele>
        <time>2020-06-16T14:15:37Z</time>
      </trkpt>
      <trkpt lat="49.38947" lon="-1.04603">
        <ele>3.4</ele>
        <time>2020-06-16T14:15:38Z</time>
      </trkpt>
      <trkpt lat="49.38946" lon="-1.04599">
        <ele>3.4</ele>
        <time>2020-06-16T14:15:39Z</time>
      </trkpt>
      <trkpt lat="49.38945" lon="-1.04594">
        <ele>3.4</ele>
        <time>2020-06-16T14:15:40Z</time>
      </trkpt>
      <trkpt lat="49.38945" lon="-1.04589">
        <ele>3.4</ele>
        <time>2020-06-16T14:15:41Z</time>
      </trkpt>
      <trkpt lat="49.38944" lon="-1.04584">
        <ele>3.4</ele>
        <time>2020-06-16T14:15:42Z</time>
      </trkpt>
      <trkpt lat="49.38944" lon="-1.0458">
        <ele>3.4</ele>
        <time>2020-06-16T14:15:43Z</time>
      </trkpt>
      <trkpt lat="49.38943" lon="-1.04574">
        <ele>3.4</ele>
        <time>2020-06-16T14:15:44Z</time>
      </trkpt>
      <trkpt lat="49.38941" lon="-1.04569">
        <ele>3.4</ele>
        <time>2020-06-16T14:15:45Z</time>
      </trkpt>
      <trkpt lat="49.38939" lon="-1.04564">
        <ele>3.4</ele>
        <time>2020-06-16T14:15:46Z</time>
      </trkpt>
      <trkpt lat="49.38938" lon="-1.04559">
        <ele>3.4</ele>
        <time>2020-06-16T14:15:47Z</time>
      </trkpt>
      <trkpt lat="49.38936" lon="-1.04554">
        <ele>3.4</ele>
        <time>2020-06-16T14:15:48Z</time>
      </trkpt>
      <trkpt lat="49.38935" lon="-1.04549">
        <ele>3.4</ele>
        <time>2020-06-16T14:15:49Z</time>
      </trkpt>
      <trkpt lat="49.38934" lon="-1.04543">
        <ele>3.4</ele>
        <time>2020-06-16T14:15:50Z</time>
      </trkpt>
      <trkpt lat="49.38934" lon="-1.04536">
        <ele>3.4</ele>
        <time>2020-06-16T14:15:51Z</time>
      </trkpt>
      <trkpt lat="49.38933" lon="-1.0453">
        <ele>3.4</ele>
        <time>2020-06-16T14:15:52Z</time>
      </trkpt>
      <trkpt lat="49.38933" lon="-1.04524">
        <ele>3.4</ele>
        <time>2020-06-16T14:15:53Z</time>
      </trkpt>
      <trkpt lat="49.38933" lon="-1.04518">
        <ele>3.4</ele>
        <time>2020-06-16T14:15:54Z</time>
      </trkpt>
      <trkpt lat="49.38932" lon="-1.04512">
        <ele>3.4</ele>
        <time>2020-06-16T14:15:55Z</time>
      </trkpt>
      <trkpt lat="49.38932" lon="-1.04506">
        <ele>3.4</ele>
        <time>2020-06-16T14:15:56Z</time>
      </trkpt>
      <trkpt lat="49.38932" lon="-1.045">
        <ele>3.5</ele>
        <time>2020-06-16T14:15:57Z</time>
      </trkpt>
      <trkpt lat="49.38931" lon="-1.04495">
        <ele>3.5</ele>
        <time>2020-06-16T14:15:58Z</time>
      </trkpt>
      <trkpt lat="49.38931" lon="-1.04489">
        <ele>3.5</ele>
        <time>2020-06-16T14:15:59Z</time>
      </trkpt>
      <trkpt lat="49.38932" lon="-1.04483">
        <ele>3.5</ele>
        <time>2020-06-16T14:16:00Z</time>
      </trkpt>
      <trkpt lat="49.38932" lon="-1.04477">
        <ele>3.5</ele>
        <time>2020-06-16T14:16:01Z</time>
      </trkpt>
      <trkpt lat="49.38932" lon="-1.04471">
        <ele>3.5</ele>
        <time>2020-06-16T14:16:02Z</time>
      </trkpt>
      <trkpt lat="49.38932" lon="-1.04466">
        <ele>3.5</ele>
        <time>2020-06-16T14:16:03Z</time>
      </trkpt>
      <trkpt lat="49.38931" lon="-1.04461">
        <ele>3.5</ele>
        <time>2020-06-16T14:16:04Z</time>
      </trkpt>
      <trkpt lat="49.38931" lon="-1.04456">
        <ele>3.6</ele>
        <time>2020-06-16T14:16:05Z</time>
      </trkpt>
      <trkpt lat="49.38931" lon="-1.04452">
        <ele>3.6</ele>
        <time>2020-06-16T14:16:06Z</time>
      </trkpt>
      <trkpt lat="49.38931" lon="-1.04447">
        <ele>3.6</ele>
        <time>2020-06-16T14:16:07Z</time>
      </trkpt>
      <trkpt lat="49.38931" lon="-1.04441">
        <ele>3.6</ele>
        <time>2020-06-16T14:16:08Z</time>
      </trkpt>
      <trkpt lat="49.3893" lon="-1.04434">
        <ele>3.6</ele>
        <time>2020-06-16T14:16:09Z</time>
      </trkpt>
      <trkpt lat="49.3893" lon="-1.04428">
        <ele>3.6</ele>
        <time>2020-06-16T14:16:10Z</time>
      </trkpt>
      <trkpt lat="49.38929" lon="-1.04422">
        <ele>3.6</ele>
        <time>2020-06-16T14:16:11Z</time>
      </trkpt>
      <trkpt lat="49.38928" lon="-1.04417">
        <ele>3.7</ele>
        <time>2020-06-16T14:16:12Z</time>
      </trkpt>
      <trkpt lat="49.38927" lon="-1.0441">
        <ele>3.7</ele>
        <time>2020-06-16T14:16:13Z</time>
      </trkpt>
      <trkpt lat="49.38927" lon="-1.04401">
        <ele>3.7</ele>
        <time>2020-06-16T14:16:14Z</time>
      </trkpt>
      <trkpt lat="49.38927" lon="-1.04394">
        <ele>3.7</ele>
        <time>2020-06-16T14:16:15Z</time>
      </trkpt>
      <trkpt lat="49.38926" lon="-1.04387">
        <ele>3.7</ele>
        <time>2020-06-16T14:16:16Z</time>
      </trkpt>
      <trkpt lat="49.38926" lon="-1.04381">
        <ele>3.7</ele>
        <time>2020-06-16T14:16:17Z</time>
      </trkpt>
      <trkpt lat="49.38925" lon="-1.04373">
        <ele>3.7</ele>
        <time>2020-06-16T14:16:18Z</time>
      </trkpt>
      <trkpt lat="49.38924" lon="-1.04366">
        <ele>3.7</ele>
        <time>2020-06-16T14:16:19Z</time>
      </trkpt>
      <trkpt lat="49.38922" lon="-1.04359">
        <ele>3.7</ele>
        <time>2020-06-16T14:16:20Z</time>
      </trkpt>
      <trkpt lat="49.38921" lon="-1.04351">
        <ele>3.7</ele>
        <time>2020-06-16T14:16:21Z</time>
      </trkpt>
      <trkpt lat="49.38921" lon="-1.04343">
        <ele>3.7</ele>
        <time>2020-06-16T14:16:22Z</time>
      </trkpt>
      <trkpt lat="49.3892" lon="-1.04335">
        <ele>3.7</ele>
        <time>2020-06-16T14:16:23Z</time>
      </trkpt>
      <trkpt lat="49.3892" lon="-1.04329">
        <ele>3.7</ele>
        <time>2020-06-16T14:16:24Z</time>
      </trkpt>
      <trkpt lat="49.3892" lon="-1.04324">
        <ele>3.7</ele>
        <time>2020-06-16T14:16:25Z</time>
      </trkpt>
      <trkpt lat="49.3892" lon="-1.04318">
        <ele>3.7</ele>
        <time>2020-06-16T14:16:26Z</time>
      </trkpt>
      <trkpt lat="49.3892" lon="-1.04311">
        <ele>3.7</ele>
        <time>2020-06-16T14:16:27Z</time>
      </trkpt>
      <trkpt lat="49.3892" lon="-1.04304">
        <ele>3.7</ele>
        <time>2020-06-16T14:16:28Z</time>
      </trkpt>
      <trkpt lat="49.38921" lon="-1.04293">
        <ele>3.7</ele>
        <time>2020-06-16T14:16:29Z</time>
      </trkpt>
      <trkpt lat="49.38921" lon="-1.04286">
        <ele>3.7</ele>
        <time>2020-06-16T14:16:30Z</time>
      </trkpt>
      <trkpt lat="49.38922" lon="-1.04278">
        <ele>3.7</ele>
        <time>2020-06-16T14:16:31Z</time>
      </trkpt>
      <trkpt lat="49.38922" lon="-1.04271">
        <ele>3.6</ele>
        <time>2020-06-16T14:16:32Z</time>
      </trkpt>
      <trkpt lat="49.38922" lon="-1.04264">
        <ele>3.6</ele>
        <time>2020-06-16T14:16:33Z</time>
      </trkpt>
      <trkpt lat="49.38922" lon="-1.04257">
        <ele>3.6</ele>
        <time>2020-06-16T14:16:34Z</time>
      </trkpt>
      <trkpt lat="49.38923" lon="-1.04249">
        <ele>3.6</ele>
        <time>2020-06-16T14:16:35Z</time>
      </trkpt>
      <trkpt lat="49.38922" lon="-1.04243">
        <ele>3.6</ele>
        <time>2020-06-16T14:16:36Z</time>
      </trkpt>
      <trkpt lat="49.38923" lon="-1.04237">
        <ele>3.6</ele>
        <time>2020-06-16T14:16:37Z</time>
      </trkpt>
      <trkpt lat="49.38922" lon="-1.0423">
        <ele>3.6</ele>
        <time>2020-06-16T14:16:38Z</time>
      </trkpt>
      <trkpt lat="49.38922" lon="-1.04222">
        <ele>3.6</ele>
        <time>2020-06-16T14:16:39Z</time>
      </trkpt>
      <trkpt lat="49.38922" lon="-1.04216">
        <ele>3.6</ele>
        <time>2020-06-16T14:16:40Z</time>
      </trkpt>
      <trkpt lat="49.38922" lon="-1.04208">
        <ele>3.6</ele>
        <time>2020-06-16T14:16:41Z</time>
      </trkpt>
      <trkpt lat="49.38922" lon="-1.042">
        <ele>3.7</ele>
        <time>2020-06-16T14:16:42Z</time>
      </trkpt>
      <trkpt lat="49.38922" lon="-1.04193">
        <ele>3.7</ele>
        <time>2020-06-16T14:16:43Z</time>
      </trkpt>
      <trkpt lat="49.38922" lon="-1.04187">
        <ele>3.7</ele>
        <time>2020-06-16T14:16:44Z</time>
      </trkpt>
      <trkpt lat="49.38921" lon="-1.0418">
        <ele>3.7</ele>
        <time>2020-06-16T14:16:45Z</time>
      </trkpt>
      <trkpt lat="49.38921" lon="-1.04172">
        <ele>3.7</ele>
        <time>2020-06-16T14:16:46Z</time>
      </trkpt>
      <trkpt lat="49.38921" lon="-1.04164">
        <ele>3.7</ele>
        <time>2020-06-16T14:16:47Z</time>
      </trkpt>
      <trkpt lat="49.38921" lon="-1.04157">
        <ele>3.7</ele>
        <time>2020-06-16T14:16:48Z</time>
      </trkpt>
      <trkpt lat="49.3892" lon="-1.0415">
        <ele>3.8</ele>
        <time>2020-06-16T14:16:49Z</time>
      </trkpt>
      <trkpt lat="49.38919" lon="-1.04144">
        <ele>3.7</ele>
        <time>2020-06-16T14:16:50Z</time>
      </trkpt>
      <trkpt lat="49.38919" lon="-1.04137">
        <ele>3.7</ele>
        <time>2020-06-16T14:16:51Z</time>
      </trkpt>
      <trkpt lat="49.38918" lon="-1.04132">
        <ele>3.7</ele>
        <time>2020-06-16T14:16:52Z</time>
      </trkpt>
      <trkpt lat="49.38917" lon="-1.04125">
        <ele>3.6</ele>
        <time>2020-06-16T14:16:53Z</time>
      </trkpt>
      <trkpt lat="49.38917" lon="-1.04117">
        <ele>3.6</ele>
        <time>2020-06-16T14:16:54Z</time>
      </trkpt>
      <trkpt lat="49.38916" lon="-1.04109">
        <ele>3.6</ele>
        <time>2020-06-16T14:16:55Z</time>
      </trkpt>
      <trkpt lat="49.38914" lon="-1.04101">
        <ele>3.5</ele>
        <time>2020-06-16T14:16:56Z</time>
      </trkpt>
      <trkpt lat="49.38913" lon="-1.04093">
        <ele>3.5</ele>
        <time>2020-06-16T14:16:57Z</time>
      </trkpt>
      <trkpt lat="49.38912" lon="-1.04085">
        <ele>3.4</ele>
        <time>2020-06-16T14:16:58Z</time>
      </trkpt>
      <trkpt lat="49.38911" lon="-1.04076">
        <ele>3.4</ele>
        <time>2020-06-16T14:16:59Z</time>
      </trkpt>
      <trkpt lat="49.3891" lon="-1.04068">
        <ele>3.4</ele>
        <time>2020-06-16T14:17:00Z</time>
      </trkpt>
      <trkpt lat="49.38909" lon="-1.04059">
        <ele>3.4</ele>
        <time>2020-06-16T14:17:01Z</time>
      </trkpt>
      <trkpt lat="49.3891" lon="-1.04051">
        <ele>3.4</ele>
        <time>2020-06-16T14:17:02Z</time>
      </trkpt>
      <trkpt lat="49.3891" lon="-1.04044">
        <ele>3.4</ele>
        <time>2020-06-16T14:17:03Z</time>
      </trkpt>
      <trkpt lat="49.38911" lon="-1.04037">
        <ele>3.4</ele>
        <time>2020-06-16T14:17:04Z</time>
      </trkpt>
      <trkpt lat="49.38911" lon="-1.0403">
        <ele>3.5</ele>
        <time>2020-06-16T14:17:05Z</time>
      </trkpt>
      <trkpt lat="49.38911" lon="-1.04024">
        <ele>3.5</ele>
        <time>2020-06-16T14:17:06Z</time>
      </trkpt>
      <trkpt lat="49.38911" lon="-1.04018">
        <ele>3.5</ele>
        <time>2020-06-16T14:17:07Z</time>
      </trkpt>
      <trkpt lat="49.38912" lon="-1.04012">
        <ele>3.5</ele>
        <time>2020-06-16T14:17:08Z</time>
      </trkpt>
      <trkpt lat="49.38912" lon="-1.04005">
        <ele>3.6</ele>
        <time>2020-06-16T14:17:09Z</time>
      </trkpt>
      <trkpt lat="49.38912" lon="-1.04">
        <ele>3.6</ele>
        <time>2020-06-16T14:17:10Z</time>
      </trkpt>
      <trkpt lat="49.38912" lon="-1.03995">
        <ele>3.6</ele>
        <time>2020-06-16T14:17:11Z</time>
      </trkpt>
      <trkpt lat="49.38912" lon="-1.0399">
        <ele>3.6</ele>
        <time>2020-06-16T14:17:12Z</time>
      </trkpt>
      <trkpt lat="49.38912" lon="-1.03985">
        <ele>3.6</ele>
        <time>2020-06-16T14:17:13Z</time>
      </trkpt>
      <trkpt lat="49.38912" lon="-1.03983">
        <ele>3.6</ele>
        <time>2020-06-16T14:17:14Z</time>
      </trkpt>
      <trkpt lat="49.38913" lon="-1.03978">
        <ele>3.7</ele>
        <time>2020-06-16T14:17:15Z</time>
      </trkpt>
      <trkpt lat="49.38914" lon="-1.03974">
        <ele>3.7</ele>
        <time>2020-06-16T14:17:16Z</time>
      </trkpt>
      <trkpt lat="49.38914" lon="-1.03969">
        <ele>3.8</ele>
        <time>2020-06-16T14:17:17Z</time>
      </trkpt>
      <trkpt lat="49.38914" lon="-1.03967">
        <ele>3.8</ele>
        <time>2020-06-16T14:17:18Z</time>
      </trkpt>
      <trkpt lat="49.38913" lon="-1.03966">
        <ele>3.8</ele>
        <time>2020-06-16T14:17:19Z</time>
      </trkpt>
      <trkpt lat="49.38911" lon="-1.03965">
        <ele>3.8</ele>
        <time>2020-06-16T14:17:20Z</time>
      </trkpt>
      <trkpt lat="49.38908" lon="-1.03965">
        <ele>3.8</ele>
        <time>2020-06-16T14:17:21Z</time>
      </trkpt>
      <trkpt lat="49.38907" lon="-1.03965">
        <ele>3.8</ele>
        <time>2020-06-16T14:17:22Z</time>
      </trkpt>
      <trkpt lat="49.38903" lon="-1.03966">
        <ele>3.8</ele>
        <time>2020-06-16T14:17:23Z</time>
      </trkpt>
      <trkpt lat="49.38899" lon="-1.03966">
        <ele>3.8</ele>
        <time>2020-06-16T14:17:24Z</time>
      </trkpt>
      <trkpt lat="49.38895" lon="-1.03966">
        <ele>3.7</ele>
        <time>2020-06-16T14:17:25Z</time>
      </trkpt>
      <trkpt lat="49.38891" lon="-1.03964">
        <ele>3.7</ele>
        <time>2020-06-16T14:17:26Z</time>
      </trkpt>
      <trkpt lat="49.38888" lon="-1.03964">
        <ele>3.7</ele>
        <time>2020-06-16T14:17:27Z</time>
      </trkpt>
      <trkpt lat="49.38885" lon="-1.03963">
        <ele>3.7</ele>
        <time>2020-06-16T14:17:28Z</time>
      </trkpt>
      <trkpt lat="49.38881" lon="-1.03962">
        <ele>3.7</ele>
        <time>2020-06-16T14:17:29Z</time>
      </trkpt>
      <trkpt lat="49.38877" lon="-1.0396">
        <ele>3.7</ele>
        <time>2020-06-16T14:17:30Z</time>
      </trkpt>
      <trkpt lat="49.38874" lon="-1.03956">
        <ele>3.8</ele>
        <time>2020-06-16T14:17:31Z</time>
      </trkpt>
      <trkpt lat="49.38871" lon="-1.03954">
        <ele>3.8</ele>
        <time>2020-06-16T14:17:32Z</time>
      </trkpt>
      <trkpt lat="49.38867" lon="-1.03953">
        <ele>3.8</ele>
        <time>2020-06-16T14:17:33Z</time>
      </trkpt>
      <trkpt lat="49.38866" lon="-1.03953">
        <ele>3.8</ele>
        <time>2020-06-16T14:17:34Z</time>
      </trkpt>
      <trkpt lat="49.38862" lon="-1.03955">
        <ele>3.8</ele>
        <time>2020-06-16T14:17:35Z</time>
      </trkpt>
      <trkpt lat="49.38861" lon="-1.03955">
        <ele>3.8</ele>
        <time>2020-06-16T14:17:36Z</time>
      </trkpt>
      <trkpt lat="49.38857" lon="-1.03956">
        <ele>3.8</ele>
        <time>2020-06-16T14:17:37Z</time>
      </trkpt>
      <trkpt lat="49.38856" lon="-1.03956">
        <ele>3.8</ele>
        <time>2020-06-16T14:17:38Z</time>
      </trkpt>
      <trkpt lat="49.38853" lon="-1.03956">
        <ele>3.9</ele>
        <time>2020-06-16T14:17:39Z</time>
      </trkpt>
      <trkpt lat="49.38852" lon="-1.03955">
        <ele>3.9</ele>
        <time>2020-06-16T14:17:40Z</time>
      </trkpt>
      <trkpt lat="49.3885" lon="-1.0395">
        <ele>3.9</ele>
        <time>2020-06-16T14:17:41Z</time>
      </trkpt>
      <trkpt lat="49.38849" lon="-1.03944">
        <ele>3.8</ele>
        <time>2020-06-16T14:17:42Z</time>
      </trkpt>
      <trkpt lat="49.38847" lon="-1.03937">
        <ele>3.8</ele>
        <time>2020-06-16T14:17:43Z</time>
      </trkpt>
      <trkpt lat="49.38846" lon="-1.03931">
        <ele>3.7</ele>
        <time>2020-06-16T14:17:44Z</time>
      </trkpt>
      <trkpt lat="49.38844" lon="-1.03924">
        <ele>3.7</ele>
        <time>2020-06-16T14:17:45Z</time>
      </trkpt>
      <trkpt lat="49.38843" lon="-1.03917">
        <ele>3.7</ele>
        <time>2020-06-16T14:17:46Z</time>
      </trkpt>
      <trkpt lat="49.38842" lon="-1.0391">
        <ele>3.7</ele>
        <time>2020-06-16T14:17:47Z</time>
      </trkpt>
      <trkpt lat="49.38841" lon="-1.03903">
        <ele>3.7</ele>
        <time>2020-06-16T14:17:48Z</time>
      </trkpt>
      <trkpt lat="49.38841" lon="-1.03896">
        <ele>3.7</ele>
        <time>2020-06-16T14:17:49Z</time>
      </trkpt>
      <trkpt lat="49.3884" lon="-1.0389">
        <ele>3.7</ele>
        <time>2020-06-16T14:17:50Z</time>
      </trkpt>
      <trkpt lat="49.38839" lon="-1.03884">
        <ele>3.7</ele>
        <time>2020-06-16T14:17:51Z</time>
      </trkpt>
      <trkpt lat="49.38839" lon="-1.03877">
        <ele>3.8</ele>
        <time>2020-06-16T14:17:52Z</time>
      </trkpt>
      <trkpt lat="49.38838" lon="-1.0387">
        <ele>4</ele>
        <time>2020-06-16T14:17:53Z</time>
      </trkpt>
      <trkpt lat="49.38837" lon="-1.03863">
        <ele>4.1</ele>
        <time>2020-06-16T14:17:54Z</time>
      </trkpt>
      <trkpt lat="49.38836" lon="-1.03856">
        <ele>4.3</ele>
        <time>2020-06-16T14:17:55Z</time>
      </trkpt>
      <trkpt lat="49.38835" lon="-1.03849">
        <ele>4.4</ele>
        <time>2020-06-16T14:17:56Z</time>
      </trkpt>
      <trkpt lat="49.38835" lon="-1.03841">
        <ele>4.6</ele>
        <time>2020-06-16T14:17:57Z</time>
      </trkpt>
      <trkpt lat="49.38834" lon="-1.03834">
        <ele>4.8</ele>
        <time>2020-06-16T14:17:58Z</time>
      </trkpt>
      <trkpt lat="49.38833" lon="-1.03826">
        <ele>5.1</ele>
        <time>2020-06-16T14:17:59Z</time>
      </trkpt>
      <trkpt lat="49.38833" lon="-1.03819">
        <ele>5.4</ele>
        <time>2020-06-16T14:18:00Z</time>
      </trkpt>
      <trkpt lat="49.38832" lon="-1.03812">
        <ele>5.7</ele>
        <time>2020-06-16T14:18:01Z</time>
      </trkpt>
      <trkpt lat="49.38832" lon="-1.03805">
        <ele>5.9</ele>
        <time>2020-06-16T14:18:02Z</time>
      </trkpt>
      <trkpt lat="49.38831" lon="-1.03799">
        <ele>6.2</ele>
        <time>2020-06-16T14:18:03Z</time>
      </trkpt>
      <trkpt lat="49.3883" lon="-1.03793">
        <ele>6.4</ele>
        <time>2020-06-16T14:18:04Z</time>
      </trkpt>
      <trkpt lat="49.3883" lon="-1.03787">
        <ele>6.7</ele>
        <time>2020-06-16T14:18:05Z</time>
      </trkpt>
      <trkpt lat="49.38829" lon="-1.03782">
        <ele>6.9</ele>
        <time>2020-06-16T14:18:06Z</time>
      </trkpt>
      <trkpt lat="49.38828" lon="-1.03778">
        <ele>7.1</ele>
        <time>2020-06-16T14:18:07Z</time>
      </trkpt>
      <trkpt lat="49.38826" lon="-1.03774">
        <ele>7.3</ele>
        <time>2020-06-16T14:18:08Z</time>
      </trkpt>
      <trkpt lat="49.38826" lon="-1.03767">
        <ele>7.7</ele>
        <time>2020-06-16T14:18:09Z</time>
      </trkpt>
      <trkpt lat="49.38825" lon="-1.03765">
        <ele>7.8</ele>
        <time>2020-06-16T14:18:10Z</time>
      </trkpt>
      <trkpt lat="49.38825" lon="-1.0376">
        <ele>8</ele>
        <time>2020-06-16T14:18:11Z</time>
      </trkpt>
      <trkpt lat="49.38824" lon="-1.03755">
        <ele>8.3</ele>
        <time>2020-06-16T14:18:12Z</time>
      </trkpt>
      <trkpt lat="49.38823" lon="-1.0375">
        <ele>8.5</ele>
        <time>2020-06-16T14:18:13Z</time>
      </trkpt>
      <trkpt lat="49.38822" lon="-1.03745">
        <ele>8.7</ele>
        <time>2020-06-16T14:18:14Z</time>
      </trkpt>
      <trkpt lat="49.38822" lon="-1.03739">
        <ele>9</ele>
        <time>2020-06-16T14:18:15Z</time>
      </trkpt>
      <trkpt lat="49.38821" lon="-1.03733">
        <ele>9.3</ele>
        <time>2020-06-16T14:18:16Z</time>
      </trkpt>
      <trkpt lat="49.38821" lon="-1.03728">
        <ele>9.5</ele>
        <time>2020-06-16T14:18:17Z</time>
      </trkpt>
      <trkpt lat="49.3882" lon="-1.03723">
        <ele>9.8</ele>
        <time>2020-06-16T14:18:18Z</time>
      </trkpt>
      <trkpt lat="49.38819" lon="-1.03719">
        <ele>10</ele>
        <time>2020-06-16T14:18:19Z</time>
      </trkpt>
      <trkpt lat="49.38819" lon="-1.03715">
        <ele>10.1</ele>
        <time>2020-06-16T14:18:20Z</time>
      </trkpt>
      <trkpt lat="49.38819" lon="-1.0371">
        <ele>10.4</ele>
        <time>2020-06-16T14:18:21Z</time>
      </trkpt>
      <trkpt lat="49.38819" lon="-1.03705">
        <ele>10.6</ele>
        <time>2020-06-16T14:18:22Z</time>
      </trkpt>
      <trkpt lat="49.38819" lon="-1.037">
        <ele>10.8</ele>
        <time>2020-06-16T14:18:23Z</time>
      </trkpt>
      <trkpt lat="49.38818" lon="-1.03695">
        <ele>11</ele>
        <time>2020-06-16T14:18:24Z</time>
      </trkpt>
      <trkpt lat="49.38817" lon="-1.0369">
        <ele>11.2</ele>
        <time>2020-06-16T14:18:25Z</time>
      </trkpt>
      <trkpt lat="49.38816" lon="-1.03684">
        <ele>11.4</ele>
        <time>2020-06-16T14:18:26Z</time>
      </trkpt>
      <trkpt lat="49.38816" lon="-1.03679">
        <ele>11.6</ele>
        <time>2020-06-16T14:18:27Z</time>
      </trkpt>
      <trkpt lat="49.38815" lon="-1.03674">
        <ele>11.8</ele>
        <time>2020-06-16T14:18:28Z</time>
      </trkpt>
      <trkpt lat="49.38815" lon="-1.03669">
        <ele>12</ele>
        <time>2020-06-16T14:18:29Z</time>
      </trkpt>
      <trkpt lat="49.38814" lon="-1.03664">
        <ele>12.2</ele>
        <time>2020-06-16T14:18:30Z</time>
      </trkpt>
      <trkpt lat="49.38814" lon="-1.03659">
        <ele>12.4</ele>
        <time>2020-06-16T14:18:31Z</time>
      </trkpt>
      <trkpt lat="49.38814" lon="-1.03654">
        <ele>12.6</ele>
        <time>2020-06-16T14:18:32Z</time>
      </trkpt>
      <trkpt lat="49.38813" lon="-1.03649">
        <ele>12.7</ele>
        <time>2020-06-16T14:18:33Z</time>
      </trkpt>
      <trkpt lat="49.38813" lon="-1.03644">
        <ele>12.9</ele>
        <time>2020-06-16T14:18:34Z</time>
      </trkpt>
      <trkpt lat="49.38812" lon="-1.03639">
        <ele>13.1</ele>
        <time>2020-06-16T14:18:35Z</time>
      </trkpt>
      <trkpt lat="49.38811" lon="-1.03634">
        <ele>13.3</ele>
        <time>2020-06-16T14:18:36Z</time>
      </trkpt>
      <trkpt lat="49.38811" lon="-1.03628">
        <ele>13.5</ele>
        <time>2020-06-16T14:18:37Z</time>
      </trkpt>
      <trkpt lat="49.38811" lon="-1.03621">
        <ele>13.7</ele>
        <time>2020-06-16T14:18:38Z</time>
      </trkpt>
      <trkpt lat="49.38812" lon="-1.03616">
        <ele>13.8</ele>
        <time>2020-06-16T14:18:39Z</time>
      </trkpt>
      <trkpt lat="49.38812" lon="-1.03609">
        <ele>14</ele>
        <time>2020-06-16T14:18:40Z</time>
      </trkpt>
      <trkpt lat="49.38813" lon="-1.03604">
        <ele>14.1</ele>
        <time>2020-06-16T14:18:41Z</time>
      </trkpt>
      <trkpt lat="49.38813" lon="-1.03599">
        <ele>14.2</ele>
        <time>2020-06-16T14:18:42Z</time>
      </trkpt>
      <trkpt lat="49.38812" lon="-1.03594">
        <ele>14.4</ele>
        <time>2020-06-16T14:18:43Z</time>
      </trkpt>
      <trkpt lat="49.38813" lon="-1.03588">
        <ele>14.5</ele>
        <time>2020-06-16T14:18:44Z</time>
      </trkpt>
      <trkpt lat="49.38812" lon="-1.03584">
        <ele>14.6</ele>
        <time>2020-06-16T14:18:45Z</time>
      </trkpt>
      <trkpt lat="49.38813" lon="-1.03578">
        <ele>14.7</ele>
        <time>2020-06-16T14:18:46Z</time>
      </trkpt>
      <trkpt lat="49.38812" lon="-1.03573">
        <ele>14.9</ele>
        <time>2020-06-16T14:18:47Z</time>
      </trkpt>
      <trkpt lat="49.38811" lon="-1.03568">
        <ele>15</ele>
        <time>2020-06-16T14:18:48Z</time>
      </trkpt>
      <trkpt lat="49.3881" lon="-1.03562">
        <ele>15.1</ele>
        <time>2020-06-16T14:18:49Z</time>
      </trkpt>
      <trkpt lat="49.38809" lon="-1.03558">
        <ele>15.2</ele>
        <time>2020-06-16T14:18:50Z</time>
      </trkpt>
      <trkpt lat="49.38809" lon="-1.03554">
        <ele>15.3</ele>
        <time>2020-06-16T14:18:51Z</time>
      </trkpt>
      <trkpt lat="49.38808" lon="-1.03549">
        <ele>15.4</ele>
        <time>2020-06-16T14:18:52Z</time>
      </trkpt>
      <trkpt lat="49.38808" lon="-1.03544">
        <ele>15.5</ele>
        <time>2020-06-16T14:18:53Z</time>
      </trkpt>
      <trkpt lat="49.38807" lon="-1.0354">
        <ele>15.6</ele>
        <time>2020-06-16T14:18:54Z</time>
      </trkpt>
      <trkpt lat="49.38807" lon="-1.03536">
        <ele>15.6</ele>
        <time>2020-06-16T14:18:55Z</time>
      </trkpt>
      <trkpt lat="49.38806" lon="-1.03529">
        <ele>15.8</ele>
        <time>2020-06-16T14:18:56Z</time>
      </trkpt>
      <trkpt lat="49.38806" lon="-1.03527">
        <ele>15.8</ele>
        <time>2020-06-16T14:18:57Z</time>
      </trkpt>
      <trkpt lat="49.38806" lon="-1.03522">
        <ele>15.9</ele>
        <time>2020-06-16T14:18:58Z</time>
      </trkpt>
      <trkpt lat="49.38805" lon="-1.03517">
        <ele>16</ele>
        <time>2020-06-16T14:18:59Z</time>
      </trkpt>
      <trkpt lat="49.38804" lon="-1.03512">
        <ele>16</ele>
        <time>2020-06-16T14:19:00Z</time>
      </trkpt>
      <trkpt lat="49.38803" lon="-1.03506">
        <ele>16.1</ele>
        <time>2020-06-16T14:19:01Z</time>
      </trkpt>
      <trkpt lat="49.38803" lon="-1.035">
        <ele>16.2</ele>
        <time>2020-06-16T14:19:02Z</time>
      </trkpt>
      <trkpt lat="49.38802" lon="-1.03495">
        <ele>16.3</ele>
        <time>2020-06-16T14:19:03Z</time>
      </trkpt>
      <trkpt lat="49.38801" lon="-1.03489">
        <ele>16.4</ele>
        <time>2020-06-16T14:19:04Z</time>
      </trkpt>
      <trkpt lat="49.388" lon="-1.03483">
        <ele>16.4</ele>
        <time>2020-06-16T14:19:05Z</time>
      </trkpt>
      <trkpt lat="49.38799" lon="-1.03476">
        <ele>16.5</ele>
        <time>2020-06-16T14:19:06Z</time>
      </trkpt>
      <trkpt lat="49.38799" lon="-1.03471">
        <ele>16.6</ele>
        <time>2020-06-16T14:19:07Z</time>
      </trkpt>
      <trkpt lat="49.38798" lon="-1.03465">
        <ele>16.7</ele>
        <time>2020-06-16T14:19:08Z</time>
      </trkpt>
      <trkpt lat="49.38798" lon="-1.03458">
        <ele>16.7</ele>
        <time>2020-06-16T14:19:09Z</time>
      </trkpt>
      <trkpt lat="49.38799" lon="-1.03452">
        <ele>16.8</ele>
        <time>2020-06-16T14:19:10Z</time>
      </trkpt>
      <trkpt lat="49.38799" lon="-1.03445">
        <ele>16.9</ele>
        <time>2020-06-16T14:19:11Z</time>
      </trkpt>
      <trkpt lat="49.388" lon="-1.03435">
        <ele>17</ele>
        <time>2020-06-16T14:19:12Z</time>
      </trkpt>
      <trkpt lat="49.38801" lon="-1.03427">
        <ele>17.1</ele>
        <time>2020-06-16T14:19:13Z</time>
      </trkpt>
      <trkpt lat="49.38802" lon="-1.03418">
        <ele>17.2</ele>
        <time>2020-06-16T14:19:14Z</time>
      </trkpt>
      <trkpt lat="49.38802" lon="-1.0341">
        <ele>17.3</ele>
        <time>2020-06-16T14:19:15Z</time>
      </trkpt>
      <trkpt lat="49.38802" lon="-1.03402">
        <ele>17.4</ele>
        <time>2020-06-16T14:19:16Z</time>
      </trkpt>
      <trkpt lat="49.38803" lon="-1.03394">
        <ele>17.6</ele>
        <time>2020-06-16T14:19:17Z</time>
      </trkpt>
      <trkpt lat="49.38803" lon="-1.03386">
        <ele>17.7</ele>
        <time>2020-06-16T14:19:18Z</time>
      </trkpt>
      <trkpt lat="49.38803" lon="-1.03378">
        <ele>17.8</ele>
        <time>2020-06-16T14:19:19Z</time>
      </trkpt>
      <trkpt lat="49.38803" lon="-1.0337">
        <ele>17.9</ele>
        <time>2020-06-16T14:19:20Z</time>
      </trkpt>
      <trkpt lat="49.38802" lon="-1.03363">
        <ele>18</ele>
        <time>2020-06-16T14:19:21Z</time>
      </trkpt>
      <trkpt lat="49.38801" lon="-1.03355">
        <ele>18</ele>
        <time>2020-06-16T14:19:22Z</time>
      </trkpt>
      <trkpt lat="49.38802" lon="-1.03346">
        <ele>18.1</ele>
        <time>2020-06-16T14:19:23Z</time>
      </trkpt>
      <trkpt lat="49.38802" lon="-1.03339">
        <ele>18.2</ele>
        <time>2020-06-16T14:19:24Z</time>
      </trkpt>
      <trkpt lat="49.38802" lon="-1.03332">
        <ele>18.2</ele>
        <time>2020-06-16T14:19:25Z</time>
      </trkpt>
      <trkpt lat="49.38802" lon="-1.03326">
        <ele>18.3</ele>
        <time>2020-06-16T14:19:26Z</time>
      </trkpt>
      <trkpt lat="49.38802" lon="-1.0332">
        <ele>18.3</ele>
        <time>2020-06-16T14:19:27Z</time>
      </trkpt>
      <trkpt lat="49.38802" lon="-1.03313">
        <ele>18.3</ele>
        <time>2020-06-16T14:19:28Z</time>
      </trkpt>
      <trkpt lat="49.38803" lon="-1.03307">
        <ele>18.4</ele>
        <time>2020-06-16T14:19:29Z</time>
      </trkpt>
      <trkpt lat="49.38803" lon="-1.033">
        <ele>18.4</ele>
        <time>2020-06-16T14:19:30Z</time>
      </trkpt>
      <trkpt lat="49.38804" lon="-1.03294">
        <ele>18.4</ele>
        <time>2020-06-16T14:19:31Z</time>
      </trkpt>
      <trkpt lat="49.38804" lon="-1.03287">
        <ele>18.4</ele>
        <time>2020-06-16T14:19:32Z</time>
      </trkpt>
      <trkpt lat="49.38804" lon="-1.0328">
        <ele>18.4</ele>
        <time>2020-06-16T14:19:33Z</time>
      </trkpt>
      <trkpt lat="49.38805" lon="-1.03274">
        <ele>18.4</ele>
        <time>2020-06-16T14:19:34Z</time>
      </trkpt>
      <trkpt lat="49.38805" lon="-1.03267">
        <ele>18.5</ele>
        <time>2020-06-16T14:19:35Z</time>
      </trkpt>
      <trkpt lat="49.38806" lon="-1.03261">
        <ele>18.5</ele>
        <time>2020-06-16T14:19:36Z</time>
      </trkpt>
      <trkpt lat="49.38807" lon="-1.03255">
        <ele>18.5</ele>
        <time>2020-06-16T14:19:37Z</time>
      </trkpt>
      <trkpt lat="49.38807" lon="-1.03249">
        <ele>18.5</ele>
        <time>2020-06-16T14:19:38Z</time>
      </trkpt>
      <trkpt lat="49.38807" lon="-1.03244">
        <ele>18.6</ele>
        <time>2020-06-16T14:19:39Z</time>
      </trkpt>
      <trkpt lat="49.38808" lon="-1.03238">
        <ele>18.6</ele>
        <time>2020-06-16T14:19:40Z</time>
      </trkpt>
      <trkpt lat="49.38808" lon="-1.03236">
        <ele>18.6</ele>
        <time>2020-06-16T14:19:41Z</time>
      </trkpt>
      <trkpt lat="49.38808" lon="-1.0323">
        <ele>18.6</ele>
        <time>2020-06-16T14:19:42Z</time>
      </trkpt>
      <trkpt lat="49.38808" lon="-1.03229">
        <ele>18.6</ele>
        <time>2020-06-16T14:19:43Z</time>
      </trkpt>
      <trkpt lat="49.38808" lon="-1.03226">
        <ele>18.6</ele>
        <time>2020-06-16T14:19:44Z</time>
      </trkpt>
      <trkpt lat="49.38808" lon="-1.03224">
        <ele>18.6</ele>
        <time>2020-06-16T14:19:45Z</time>
      </trkpt>
      <trkpt lat="49.38808" lon="-1.0322">
        <ele>18.6</ele>
        <time>2020-06-16T14:19:46Z</time>
      </trkpt>
      <trkpt lat="49.38808" lon="-1.03218">
        <ele>18.6</ele>
        <time>2020-06-16T14:19:47Z</time>
      </trkpt>
      <trkpt lat="49.38808" lon="-1.03213">
        <ele>18.7</ele>
        <time>2020-06-16T14:19:48Z</time>
      </trkpt>
      <trkpt lat="49.38808" lon="-1.03211">
        <ele>18.7</ele>
        <time>2020-06-16T14:19:49Z</time>
      </trkpt>
      <trkpt lat="49.38809" lon="-1.03205">
        <ele>18.7</ele>
        <time>2020-06-16T14:19:50Z</time>
      </trkpt>
      <trkpt lat="49.38809" lon="-1.03203">
        <ele>18.7</ele>
        <time>2020-06-16T14:19:51Z</time>
      </trkpt>
      <trkpt lat="49.3881" lon="-1.03197">
        <ele>18.6</ele>
        <time>2020-06-16T14:19:52Z</time>
      </trkpt>
      <trkpt lat="49.38811" lon="-1.0319">
        <ele>18.6</ele>
        <time>2020-06-16T14:19:53Z</time>
      </trkpt>
      <trkpt lat="49.38811" lon="-1.03183">
        <ele>18.6</ele>
        <time>2020-06-16T14:19:54Z</time>
      </trkpt>
      <trkpt lat="49.38813" lon="-1.03177">
        <ele>18.6</ele>
        <time>2020-06-16T14:19:55Z</time>
      </trkpt>
      <trkpt lat="49.38814" lon="-1.0317">
        <ele>18.6</ele>
        <time>2020-06-16T14:19:56Z</time>
      </trkpt>
      <trkpt lat="49.38816" lon="-1.03163">
        <ele>18.5</ele>
        <time>2020-06-16T14:19:57Z</time>
      </trkpt>
      <trkpt lat="49.38818" lon="-1.03156">
        <ele>18.5</ele>
        <time>2020-06-16T14:19:58Z</time>
      </trkpt>
      <trkpt lat="49.38818" lon="-1.03149">
        <ele>18.4</ele>
        <time>2020-06-16T14:19:59Z</time>
      </trkpt>
      <trkpt lat="49.38817" lon="-1.03143">
        <ele>18.4</ele>
        <time>2020-06-16T14:20:00Z</time>
      </trkpt>
      <trkpt lat="49.38816" lon="-1.03138">
        <ele>18.4</ele>
        <time>2020-06-16T14:20:01Z</time>
      </trkpt>
      <trkpt lat="49.38814" lon="-1.03131">
        <ele>18.3</ele>
        <time>2020-06-16T14:20:02Z</time>
      </trkpt>
      <trkpt lat="49.38811" lon="-1.03125">
        <ele>18.3</ele>
        <time>2020-06-16T14:20:03Z</time>
      </trkpt>
      <trkpt lat="49.38809" lon="-1.0312">
        <ele>18.3</ele>
        <time>2020-06-16T14:20:04Z</time>
      </trkpt>
      <trkpt lat="49.38807" lon="-1.03115">
        <ele>18.2</ele>
        <time>2020-06-16T14:20:05Z</time>
      </trkpt>
      <trkpt lat="49.38806" lon="-1.0311">
        <ele>18.2</ele>
        <time>2020-06-16T14:20:06Z</time>
      </trkpt>
      <trkpt lat="49.38805" lon="-1.03105">
        <ele>18.1</ele>
        <time>2020-06-16T14:20:07Z</time>
      </trkpt>
      <trkpt lat="49.38805" lon="-1.03098">
        <ele>18.1</ele>
        <time>2020-06-16T14:20:08Z</time>
      </trkpt>
      <trkpt lat="49.38805" lon="-1.03091">
        <ele>18</ele>
        <time>2020-06-16T14:20:09Z</time>
      </trkpt>
      <trkpt lat="49.38807" lon="-1.03083">
        <ele>18</ele>
        <time>2020-06-16T14:20:10Z</time>
      </trkpt>
      <trkpt lat="49.38808" lon="-1.03077">
        <ele>17.9</ele>
        <time>2020-06-16T14:20:11Z</time>
      </trkpt>
      <trkpt lat="49.3881" lon="-1.03068">
        <ele>17.8</ele>
        <time>2020-06-16T14:20:12Z</time>
      </trkpt>
      <trkpt lat="49.38811" lon="-1.03059">
        <ele>17.7</ele>
        <time>2020-06-16T14:20:13Z</time>
      </trkpt>
      <trkpt lat="49.38812" lon="-1.03051">
        <ele>17.6</ele>
        <time>2020-06-16T14:20:14Z</time>
      </trkpt>
      <trkpt lat="49.38814" lon="-1.03043">
        <ele>17.5</ele>
        <time>2020-06-16T14:20:15Z</time>
      </trkpt>
      <trkpt lat="49.38815" lon="-1.03036">
        <ele>17.5</ele>
        <time>2020-06-16T14:20:16Z</time>
      </trkpt>
      <trkpt lat="49.38817" lon="-1.03028">
        <ele>17.4</ele>
        <time>2020-06-16T14:20:17Z</time>
      </trkpt>
      <trkpt lat="49.38818" lon="-1.0302">
        <ele>17.3</ele>
        <time>2020-06-16T14:20:18Z</time>
      </trkpt>
      <trkpt lat="49.3882" lon="-1.03012">
        <ele>17.2</ele>
        <time>2020-06-16T14:20:19Z</time>
      </trkpt>
      <trkpt lat="49.3882" lon="-1.03004">
        <ele>17.1</ele>
        <time>2020-06-16T14:20:20Z</time>
      </trkpt>
      <trkpt lat="49.38821" lon="-1.02997">
        <ele>17.1</ele>
        <time>2020-06-16T14:20:21Z</time>
      </trkpt>
      <trkpt lat="49.38822" lon="-1.02991">
        <ele>17</ele>
        <time>2020-06-16T14:20:22Z</time>
      </trkpt>
      <trkpt lat="49.38823" lon="-1.02985">
        <ele>17</ele>
        <time>2020-06-16T14:20:23Z</time>
      </trkpt>
      <trkpt lat="49.38824" lon="-1.02978">
        <ele>16.9</ele>
        <time>2020-06-16T14:20:24Z</time>
      </trkpt>
      <trkpt lat="49.38825" lon="-1.02972">
        <ele>16.9</ele>
        <time>2020-06-16T14:20:25Z</time>
      </trkpt>
      <trkpt lat="49.38827" lon="-1.02965">
        <ele>16.8</ele>
        <time>2020-06-16T14:20:26Z</time>
      </trkpt>
      <trkpt lat="49.38828" lon="-1.02958">
        <ele>16.8</ele>
        <time>2020-06-16T14:20:27Z</time>
      </trkpt>
      <trkpt lat="49.3883" lon="-1.02951">
        <ele>16.7</ele>
        <time>2020-06-16T14:20:28Z</time>
      </trkpt>
      <trkpt lat="49.3883" lon="-1.02944">
        <ele>16.7</ele>
        <time>2020-06-16T14:20:29Z</time>
      </trkpt>
      <trkpt lat="49.38832" lon="-1.02936">
        <ele>16.6</ele>
        <time>2020-06-16T14:20:30Z</time>
      </trkpt>
      <trkpt lat="49.38833" lon="-1.02929">
        <ele>16.5</ele>
        <time>2020-06-16T14:20:31Z</time>
      </trkpt>
      <trkpt lat="49.38834" lon="-1.02922">
        <ele>16.5</ele>
        <time>2020-06-16T14:20:32Z</time>
      </trkpt>
      <trkpt lat="49.38835" lon="-1.02914">
        <ele>16.4</ele>
        <time>2020-06-16T14:20:33Z</time>
      </trkpt>
      <trkpt lat="49.38837" lon="-1.02906">
        <ele>16.4</ele>
        <time>2020-06-16T14:20:34Z</time>
      </trkpt>
      <trkpt lat="49.38838" lon="-1.02898">
        <ele>16.3</ele>
        <time>2020-06-16T14:20:35Z</time>
      </trkpt>
      <trkpt lat="49.3884" lon="-1.02891">
        <ele>16.3</ele>
        <time>2020-06-16T14:20:36Z</time>
      </trkpt>
      <trkpt lat="49.38841" lon="-1.02884">
        <ele>16.2</ele>
        <time>2020-06-16T14:20:37Z</time>
      </trkpt>
      <trkpt lat="49.38842" lon="-1.02877">
        <ele>16.2</ele>
        <time>2020-06-16T14:20:38Z</time>
      </trkpt>
      <trkpt lat="49.38844" lon="-1.02869">
        <ele>16.2</ele>
        <time>2020-06-16T14:20:39Z</time>
      </trkpt>
      <trkpt lat="49.38845" lon="-1.02862">
        <ele>16.2</ele>
        <time>2020-06-16T14:20:40Z</time>
      </trkpt>
      <trkpt lat="49.38846" lon="-1.02854">
        <ele>16.1</ele>
        <time>2020-06-16T14:20:41Z</time>
      </trkpt>
      <trkpt lat="49.38848" lon="-1.02846">
        <ele>16.1</ele>
        <time>2020-06-16T14:20:42Z</time>
      </trkpt>
      <trkpt lat="49.38849" lon="-1.02838">
        <ele>16.1</ele>
        <time>2020-06-16T14:20:43Z</time>
      </trkpt>
      <trkpt lat="49.3885" lon="-1.0283">
        <ele>16</ele>
        <time>2020-06-16T14:20:44Z</time>
      </trkpt>
      <trkpt lat="49.38851" lon="-1.02822">
        <ele>16</ele>
        <time>2020-06-16T14:20:45Z</time>
      </trkpt>
      <trkpt lat="49.38852" lon="-1.02813">
        <ele>15.9</ele>
        <time>2020-06-16T14:20:46Z</time>
      </trkpt>
      <trkpt lat="49.38854" lon="-1.02803">
        <ele>15.9</ele>
        <time>2020-06-16T14:20:47Z</time>
      </trkpt>
      <trkpt lat="49.38855" lon="-1.02795">
        <ele>15.8</ele>
        <time>2020-06-16T14:20:48Z</time>
      </trkpt>
      <trkpt lat="49.38856" lon="-1.02786">
        <ele>15.7</ele>
        <time>2020-06-16T14:20:49Z</time>
      </trkpt>
      <trkpt lat="49.38857" lon="-1.02777">
        <ele>15.6</ele>
        <time>2020-06-16T14:20:50Z</time>
      </trkpt>
      <trkpt lat="49.38859" lon="-1.02769">
        <ele>15.5</ele>
        <time>2020-06-16T14:20:51Z</time>
      </trkpt>
      <trkpt lat="49.3886" lon="-1.0276">
        <ele>15.5</ele>
        <time>2020-06-16T14:20:52Z</time>
      </trkpt>
      <trkpt lat="49.38862" lon="-1.02751">
        <ele>15.4</ele>
        <time>2020-06-16T14:20:53Z</time>
      </trkpt>
      <trkpt lat="49.38865" lon="-1.02741">
        <ele>15.3</ele>
        <time>2020-06-16T14:20:54Z</time>
      </trkpt>
      <trkpt lat="49.38866" lon="-1.02732">
        <ele>15.3</ele>
        <time>2020-06-16T14:20:55Z</time>
      </trkpt>
      <trkpt lat="49.38868" lon="-1.02722">
        <ele>15.1</ele>
        <time>2020-06-16T14:20:56Z</time>
      </trkpt>
      <trkpt lat="49.3887" lon="-1.02713">
        <ele>15</ele>
        <time>2020-06-16T14:20:57Z</time>
      </trkpt>
      <trkpt lat="49.38872" lon="-1.02704">
        <ele>14.9</ele>
        <time>2020-06-16T14:20:58Z</time>
      </trkpt>
      <trkpt lat="49.38873" lon="-1.02695">
        <ele>14.8</ele>
        <time>2020-06-16T14:20:59Z</time>
      </trkpt>
      <trkpt lat="49.38874" lon="-1.02686">
        <ele>14.8</ele>
        <time>2020-06-16T14:21:00Z</time>
      </trkpt>
      <trkpt lat="49.38876" lon="-1.02677">
        <ele>14.7</ele>
        <time>2020-06-16T14:21:01Z</time>
      </trkpt>
      <trkpt lat="49.38877" lon="-1.02668">
        <ele>14.6</ele>
        <time>2020-06-16T14:21:02Z</time>
      </trkpt>
      <trkpt lat="49.38878" lon="-1.0266">
        <ele>14.5</ele>
        <time>2020-06-16T14:21:03Z</time>
      </trkpt>
      <trkpt lat="49.38879" lon="-1.02651">
        <ele>14.4</ele>
        <time>2020-06-16T14:21:04Z</time>
      </trkpt>
      <trkpt lat="49.3888" lon="-1.02641">
        <ele>14.3</ele>
        <time>2020-06-16T14:21:05Z</time>
      </trkpt>
      <trkpt lat="49.38881" lon="-1.02632">
        <ele>14.2</ele>
        <time>2020-06-16T14:21:06Z</time>
      </trkpt>
      <trkpt lat="49.38881" lon="-1.02623">
        <ele>14</ele>
        <time>2020-06-16T14:21:07Z</time>
      </trkpt>
      <trkpt lat="49.38882" lon="-1.02615">
        <ele>13.9</ele>
        <time>2020-06-16T14:21:08Z</time>
      </trkpt>
      <trkpt lat="49.38883" lon="-1.02606">
        <ele>13.8</ele>
        <time>2020-06-16T14:21:09Z</time>
      </trkpt>
      <trkpt lat="49.38884" lon="-1.02597">
        <ele>13.6</ele>
        <time>2020-06-16T14:21:10Z</time>
      </trkpt>
      <trkpt lat="49.38885" lon="-1.02589">
        <ele>13.5</ele>
        <time>2020-06-16T14:21:11Z</time>
      </trkpt>
      <trkpt lat="49.38886" lon="-1.02581">
        <ele>13.3</ele>
        <time>2020-06-16T14:21:12Z</time>
      </trkpt>
      <trkpt lat="49.38888" lon="-1.02572">
        <ele>13.1</ele>
        <time>2020-06-16T14:21:13Z</time>
      </trkpt>
      <trkpt lat="49.38889" lon="-1.02563">
        <ele>12.8</ele>
        <time>2020-06-16T14:21:14Z</time>
      </trkpt>
      <trkpt lat="49.3889" lon="-1.02552">
        <ele>12.6</ele>
        <time>2020-06-16T14:21:15Z</time>
      </trkpt>
      <trkpt lat="49.38891" lon="-1.02543">
        <ele>12.3</ele>
        <time>2020-06-16T14:21:16Z</time>
      </trkpt>
      <trkpt lat="49.38893" lon="-1.02534">
        <ele>12.1</ele>
        <time>2020-06-16T14:21:17Z</time>
      </trkpt>
      <trkpt lat="49.38894" lon="-1.02525">
        <ele>11.9</ele>
        <time>2020-06-16T14:21:18Z</time>
      </trkpt>
      <trkpt lat="49.38895" lon="-1.02516">
        <ele>11.7</ele>
        <time>2020-06-16T14:21:19Z</time>
      </trkpt>
      <trkpt lat="49.38896" lon="-1.02507">
        <ele>11.4</ele>
        <time>2020-06-16T14:21:20Z</time>
      </trkpt>
      <trkpt lat="49.38896" lon="-1.02496">
        <ele>11.2</ele>
        <time>2020-06-16T14:21:21Z</time>
      </trkpt>
      <trkpt lat="49.38895" lon="-1.02486">
        <ele>11</ele>
        <time>2020-06-16T14:21:22Z</time>
      </trkpt>
      <trkpt lat="49.38895" lon="-1.02475">
        <ele>10.7</ele>
        <time>2020-06-16T14:21:23Z</time>
      </trkpt>
      <trkpt lat="49.38895" lon="-1.02464">
        <ele>10.5</ele>
        <time>2020-06-16T14:21:24Z</time>
      </trkpt>
      <trkpt lat="49.38895" lon="-1.02453">
        <ele>10.2</ele>
        <time>2020-06-16T14:21:25Z</time>
      </trkpt>
      <trkpt lat="49.38895" lon="-1.02443">
        <ele>10</ele>
        <time>2020-06-16T14:21:26Z</time>
      </trkpt>
      <trkpt lat="49.38896" lon="-1.02433">
        <ele>9.8</ele>
        <time>2020-06-16T14:21:27Z</time>
      </trkpt>
      <trkpt lat="49.38897" lon="-1.02422">
        <ele>9.5</ele>
        <time>2020-06-16T14:21:28Z</time>
      </trkpt>
      <trkpt lat="49.38898" lon="-1.02411">
        <ele>9.3</ele>
        <time>2020-06-16T14:21:29Z</time>
      </trkpt>
      <trkpt lat="49.38898" lon="-1.02405">
        <ele>9.1</ele>
        <time>2020-06-16T14:21:30Z</time>
      </trkpt>
      <trkpt lat="49.38899" lon="-1.02396">
        <ele>8.9</ele>
        <time>2020-06-16T14:21:31Z</time>
      </trkpt>
      <trkpt lat="49.38899" lon="-1.02388">
        <ele>8.7</ele>
        <time>2020-06-16T14:21:32Z</time>
      </trkpt>
      <trkpt lat="49.389" lon="-1.0238">
        <ele>8.5</ele>
        <time>2020-06-16T14:21:33Z</time>
      </trkpt>
      <trkpt lat="49.38899" lon="-1.02371">
        <ele>8.3</ele>
        <time>2020-06-16T14:21:34Z</time>
      </trkpt>
      <trkpt lat="49.38899" lon="-1.02362">
        <ele>8.1</ele>
        <time>2020-06-16T14:21:35Z</time>
      </trkpt>
      <trkpt lat="49.389" lon="-1.02352">
        <ele>7.9</ele>
        <time>2020-06-16T14:21:36Z</time>
      </trkpt>
      <trkpt lat="49.38901" lon="-1.02343">
        <ele>7.7</ele>
        <time>2020-06-16T14:21:37Z</time>
      </trkpt>
      <trkpt lat="49.38901" lon="-1.02334">
        <ele>7.5</ele>
        <time>2020-06-16T14:21:38Z</time>
      </trkpt>
      <trkpt lat="49.38902" lon="-1.02326">
        <ele>7.3</ele>
        <time>2020-06-16T14:21:39Z</time>
      </trkpt>
      <trkpt lat="49.38903" lon="-1.02317">
        <ele>7.1</ele>
        <time>2020-06-16T14:21:40Z</time>
      </trkpt>
      <trkpt lat="49.38903" lon="-1.02309">
        <ele>6.9</ele>
        <time>2020-06-16T14:21:41Z</time>
      </trkpt>
      <trkpt lat="49.38905" lon="-1.02298">
        <ele>6.6</ele>
        <time>2020-06-16T14:21:42Z</time>
      </trkpt>
      <trkpt lat="49.38905" lon="-1.02288">
        <ele>6.4</ele>
        <time>2020-06-16T14:21:43Z</time>
      </trkpt>
      <trkpt lat="49.38906" lon="-1.02278">
        <ele>6.1</ele>
        <time>2020-06-16T14:21:44Z</time>
      </trkpt>
      <trkpt lat="49.38907" lon="-1.02265">
        <ele>5.8</ele>
        <time>2020-06-16T14:21:45Z</time>
      </trkpt>
      <trkpt lat="49.38908" lon="-1.02251">
        <ele>5.4</ele>
        <time>2020-06-16T14:21:46Z</time>
      </trkpt>
      <trkpt lat="49.38909" lon="-1.02237">
        <ele>5</ele>
        <time>2020-06-16T14:21:47Z</time>
      </trkpt>
      <trkpt lat="49.3891" lon="-1.02226">
        <ele>4.7</ele>
        <time>2020-06-16T14:21:48Z</time>
      </trkpt>
      <trkpt lat="49.38913" lon="-1.02213">
        <ele>4.4</ele>
        <time>2020-06-16T14:21:49Z</time>
      </trkpt>
      <trkpt lat="49.38915" lon="-1.02201">
        <ele>4</ele>
        <time>2020-06-16T14:21:50Z</time>
      </trkpt>
      <trkpt lat="49.38916" lon="-1.02189">
        <ele>3.7</ele>
        <time>2020-06-16T14:21:51Z</time>
      </trkpt>
      <trkpt lat="49.38918" lon="-1.02179">
        <ele>3.5</ele>
        <time>2020-06-16T14:21:52Z</time>
      </trkpt>
      <trkpt lat="49.3892" lon="-1.02168">
        <ele>3.3</ele>
        <time>2020-06-16T14:21:53Z</time>
      </trkpt>
      <trkpt lat="49.38921" lon="-1.02157">
        <ele>3.1</ele>
        <time>2020-06-16T14:21:54Z</time>
      </trkpt>
      <trkpt lat="49.38923" lon="-1.02146">
        <ele>2.9</ele>
        <time>2020-06-16T14:21:55Z</time>
      </trkpt>
      <trkpt lat="49.38924" lon="-1.02133">
        <ele>2.7</ele>
        <time>2020-06-16T14:21:56Z</time>
      </trkpt>
      <trkpt lat="49.38926" lon="-1.0212">
        <ele>2.4</ele>
        <time>2020-06-16T14:21:57Z</time>
      </trkpt>
      <trkpt lat="49.38928" lon="-1.02106">
        <ele>2.1</ele>
        <time>2020-06-16T14:21:58Z</time>
      </trkpt>
      <trkpt lat="49.38929" lon="-1.02094">
        <ele>1.9</ele>
        <time>2020-06-16T14:21:59Z</time>
      </trkpt>
      <trkpt lat="49.38931" lon="-1.02084">
        <ele>1.8</ele>
        <time>2020-06-16T14:22:00Z</time>
      </trkpt>
      <trkpt lat="49.38932" lon="-1.02074">
        <ele>1.7</ele>
        <time>2020-06-16T14:22:01Z</time>
      </trkpt>
      <trkpt lat="49.38934" lon="-1.02062">
        <ele>1.5</ele>
        <time>2020-06-16T14:22:02Z</time>
      </trkpt>
      <trkpt lat="49.38935" lon="-1.02049">
        <ele>1.5</ele>
        <time>2020-06-16T14:22:03Z</time>
      </trkpt>
      <trkpt lat="49.38936" lon="-1.02039">
        <ele>1.5</ele>
        <time>2020-06-16T14:22:04Z</time>
      </trkpt>
      <trkpt lat="49.38937" lon="-1.02029">
        <ele>1.5</ele>
        <time>2020-06-16T14:22:05Z</time>
      </trkpt>
      <trkpt lat="49.38939" lon="-1.02019">
        <ele>1.5</ele>
        <time>2020-06-16T14:22:06Z</time>
      </trkpt>
      <trkpt lat="49.38941" lon="-1.0201">
        <ele>1.6</ele>
        <time>2020-06-16T14:22:07Z</time>
      </trkpt>
      <trkpt lat="49.38943" lon="-1.02">
        <ele>1.7</ele>
        <time>2020-06-16T14:22:08Z</time>
      </trkpt>
      <trkpt lat="49.38945" lon="-1.01989">
        <ele>1.8</ele>
        <time>2020-06-16T14:22:09Z</time>
      </trkpt>
      <trkpt lat="49.38947" lon="-1.0198">
        <ele>1.8</ele>
        <time>2020-06-16T14:22:10Z</time>
      </trkpt>
      <trkpt lat="49.38949" lon="-1.0197">
        <ele>1.9</ele>
        <time>2020-06-16T14:22:11Z</time>
      </trkpt>
      <trkpt lat="49.38951" lon="-1.01962">
        <ele>2.1</ele>
        <time>2020-06-16T14:22:12Z</time>
      </trkpt>
      <trkpt lat="49.38952" lon="-1.01953">
        <ele>2.2</ele>
        <time>2020-06-16T14:22:13Z</time>
      </trkpt>
      <trkpt lat="49.38953" lon="-1.01945">
        <ele>2.3</ele>
        <time>2020-06-16T14:22:14Z</time>
      </trkpt>
      <trkpt lat="49.38955" lon="-1.01936">
        <ele>2.5</ele>
        <time>2020-06-16T14:22:15Z</time>
      </trkpt>
      <trkpt lat="49.38957" lon="-1.01928">
        <ele>2.7</ele>
        <time>2020-06-16T14:22:16Z</time>
      </trkpt>
      <trkpt lat="49.38958" lon="-1.0192">
        <ele>2.8</ele>
        <time>2020-06-16T14:22:17Z</time>
      </trkpt>
      <trkpt lat="49.3896" lon="-1.01911">
        <ele>3</ele>
        <time>2020-06-16T14:22:18Z</time>
      </trkpt>
      <trkpt lat="49.38962" lon="-1.01904">
        <ele>3.1</ele>
        <time>2020-06-16T14:22:19Z</time>
      </trkpt>
      <trkpt lat="49.38963" lon="-1.01897">
        <ele>3.3</ele>
        <time>2020-06-16T14:22:20Z</time>
      </trkpt>
      <trkpt lat="49.38965" lon="-1.0189">
        <ele>3.5</ele>
        <time>2020-06-16T14:22:21Z</time>
      </trkpt>
      <trkpt lat="49.38967" lon="-1.01884">
        <ele>3.6</ele>
        <time>2020-06-16T14:22:22Z</time>
      </trkpt>
      <trkpt lat="49.38969" lon="-1.01878">
        <ele>3.8</ele>
        <time>2020-06-16T14:22:23Z</time>
      </trkpt>
      <trkpt lat="49.38971" lon="-1.0187">
        <ele>4</ele>
        <time>2020-06-16T14:22:24Z</time>
      </trkpt>
      <trkpt lat="49.38973" lon="-1.01863">
        <ele>4.1</ele>
        <time>2020-06-16T14:22:25Z</time>
      </trkpt>
      <trkpt lat="49.38975" lon="-1.01855">
        <ele>4.3</ele>
        <time>2020-06-16T14:22:26Z</time>
      </trkpt>
      <trkpt lat="49.38977" lon="-1.01849">
        <ele>4.5</ele>
        <time>2020-06-16T14:22:27Z</time>
      </trkpt>
      <trkpt lat="49.38979" lon="-1.01843">
        <ele>4.7</ele>
        <time>2020-06-16T14:22:28Z</time>
      </trkpt>
      <trkpt lat="49.3898" lon="-1.01836">
        <ele>4.9</ele>
        <time>2020-06-16T14:22:29Z</time>
      </trkpt>
      <trkpt lat="49.38982" lon="-1.01828">
        <ele>5.1</ele>
        <time>2020-06-16T14:22:30Z</time>
      </trkpt>
      <trkpt lat="49.38984" lon="-1.01821">
        <ele>5.3</ele>
        <time>2020-06-16T14:22:31Z</time>
      </trkpt>
      <trkpt lat="49.38986" lon="-1.01814">
        <ele>5.5</ele>
        <time>2020-06-16T14:22:32Z</time>
      </trkpt>
      <trkpt lat="49.38988" lon="-1.01807">
        <ele>5.7</ele>
        <time>2020-06-16T14:22:33Z</time>
      </trkpt>
      <trkpt lat="49.38989" lon="-1.01799">
        <ele>5.9</ele>
        <time>2020-06-16T14:22:34Z</time>
      </trkpt>
      <trkpt lat="49.38991" lon="-1.01791">
        <ele>6.2</ele>
        <time>2020-06-16T14:22:35Z</time>
      </trkpt>
      <trkpt lat="49.38994" lon="-1.01784">
        <ele>6.4</ele>
        <time>2020-06-16T14:22:36Z</time>
      </trkpt>
      <trkpt lat="49.38996" lon="-1.01776">
        <ele>6.6</ele>
        <time>2020-06-16T14:22:37Z</time>
      </trkpt>
      <trkpt lat="49.38998" lon="-1.01768">
        <ele>6.9</ele>
        <time>2020-06-16T14:22:38Z</time>
      </trkpt>
      <trkpt lat="49.39" lon="-1.01761">
        <ele>7.1</ele>
        <time>2020-06-16T14:22:39Z</time>
      </trkpt>
      <trkpt lat="49.39002" lon="-1.01754">
        <ele>7.3</ele>
        <time>2020-06-16T14:22:40Z</time>
      </trkpt>
      <trkpt lat="49.39003" lon="-1.01747">
        <ele>7.5</ele>
        <time>2020-06-16T14:22:41Z</time>
      </trkpt>
      <trkpt lat="49.39005" lon="-1.0174">
        <ele>7.7</ele>
        <time>2020-06-16T14:22:42Z</time>
      </trkpt>
      <trkpt lat="49.39007" lon="-1.01733">
        <ele>7.8</ele>
        <time>2020-06-16T14:22:43Z</time>
      </trkpt>
      <trkpt lat="49.39009" lon="-1.01726">
        <ele>8</ele>
        <time>2020-06-16T14:22:44Z</time>
      </trkpt>
      <trkpt lat="49.39011" lon="-1.01719">
        <ele>8.2</ele>
        <time>2020-06-16T14:22:45Z</time>
      </trkpt>
      <trkpt lat="49.39013" lon="-1.01711">
        <ele>8.4</ele>
        <time>2020-06-16T14:22:46Z</time>
      </trkpt>
      <trkpt lat="49.39015" lon="-1.01704">
        <ele>8.6</ele>
        <time>2020-06-16T14:22:47Z</time>
      </trkpt>
      <trkpt lat="49.39017" lon="-1.01698">
        <ele>8.7</ele>
        <time>2020-06-16T14:22:48Z</time>
      </trkpt>
      <trkpt lat="49.39018" lon="-1.01691">
        <ele>8.9</ele>
        <time>2020-06-16T14:22:49Z</time>
      </trkpt>
      <trkpt lat="49.39019" lon="-1.01684">
        <ele>9.1</ele>
        <time>2020-06-16T14:22:50Z</time>
      </trkpt>
      <trkpt lat="49.39021" lon="-1.01677">
        <ele>9.2</ele>
        <time>2020-06-16T14:22:51Z</time>
      </trkpt>
      <trkpt lat="49.39022" lon="-1.0167">
        <ele>9.4</ele>
        <time>2020-06-16T14:22:52Z</time>
      </trkpt>
      <trkpt lat="49.39024" lon="-1.01663">
        <ele>9.5</ele>
        <time>2020-06-16T14:22:53Z</time>
      </trkpt>
      <trkpt lat="49.39025" lon="-1.01657">
        <ele>9.6</ele>
        <time>2020-06-16T14:22:54Z</time>
      </trkpt>
      <trkpt lat="49.39027" lon="-1.0165">
        <ele>9.7</ele>
        <time>2020-06-16T14:22:55Z</time>
      </trkpt>
      <trkpt lat="49.39029" lon="-1.01643">
        <ele>9.9</ele>
        <time>2020-06-16T14:22:56Z</time>
      </trkpt>
      <trkpt lat="49.3903" lon="-1.01636">
        <ele>10</ele>
        <time>2020-06-16T14:22:57Z</time>
      </trkpt>
      <trkpt lat="49.39032" lon="-1.01629">
        <ele>10</ele>
        <time>2020-06-16T14:22:58Z</time>
      </trkpt>
      <trkpt lat="49.39034" lon="-1.01623">
        <ele>10.1</ele>
        <time>2020-06-16T14:22:59Z</time>
      </trkpt>
      <trkpt lat="49.39036" lon="-1.01616">
        <ele>10.2</ele>
        <time>2020-06-16T14:23:00Z</time>
      </trkpt>
      <trkpt lat="49.39038" lon="-1.01609">
        <ele>10.3</ele>
        <time>2020-06-16T14:23:01Z</time>
      </trkpt>
      <trkpt lat="49.39039" lon="-1.01602">
        <ele>10.4</ele>
        <time>2020-06-16T14:23:02Z</time>
      </trkpt>
      <trkpt lat="49.39041" lon="-1.01596">
        <ele>10.4</ele>
        <time>2020-06-16T14:23:03Z</time>
      </trkpt>
      <trkpt lat="49.39043" lon="-1.0159">
        <ele>10.5</ele>
        <time>2020-06-16T14:23:04Z</time>
      </trkpt>
      <trkpt lat="49.39044" lon="-1.01584">
        <ele>10.6</ele>
        <time>2020-06-16T14:23:05Z</time>
      </trkpt>
      <trkpt lat="49.39046" lon="-1.01578">
        <ele>10.7</ele>
        <time>2020-06-16T14:23:06Z</time>
      </trkpt>
      <trkpt lat="49.39048" lon="-1.01572">
        <ele>10.8</ele>
        <time>2020-06-16T14:23:07Z</time>
      </trkpt>
      <trkpt lat="49.3905" lon="-1.01566">
        <ele>10.9</ele>
        <time>2020-06-16T14:23:08Z</time>
      </trkpt>
      <trkpt lat="49.39051" lon="-1.0156">
        <ele>11</ele>
        <time>2020-06-16T14:23:09Z</time>
      </trkpt>
      <trkpt lat="49.39053" lon="-1.01553">
        <ele>11</ele>
        <time>2020-06-16T14:23:10Z</time>
      </trkpt>
      <trkpt lat="49.39055" lon="-1.01547">
        <ele>11.1</ele>
        <time>2020-06-16T14:23:11Z</time>
      </trkpt>
      <trkpt lat="49.39057" lon="-1.0154">
        <ele>11.2</ele>
        <time>2020-06-16T14:23:12Z</time>
      </trkpt>
      <trkpt lat="49.39059" lon="-1.01534">
        <ele>11.3</ele>
        <time>2020-06-16T14:23:13Z</time>
      </trkpt>
      <trkpt lat="49.39061" lon="-1.01527">
        <ele>11.4</ele>
        <time>2020-06-16T14:23:14Z</time>
      </trkpt>
      <trkpt lat="49.39063" lon="-1.01521">
        <ele>11.5</ele>
        <time>2020-06-16T14:23:15Z</time>
      </trkpt>
      <trkpt lat="49.39065" lon="-1.01514">
        <ele>11.6</ele>
        <time>2020-06-16T14:23:16Z</time>
      </trkpt>
      <trkpt lat="49.39067" lon="-1.01508">
        <ele>11.7</ele>
        <time>2020-06-16T14:23:17Z</time>
      </trkpt>
      <trkpt lat="49.39069" lon="-1.01502">
        <ele>11.7</ele>
        <time>2020-06-16T14:23:18Z</time>
      </trkpt>
      <trkpt lat="49.39071" lon="-1.01496">
        <ele>11.8</ele>
        <time>2020-06-16T14:23:19Z</time>
      </trkpt>
      <trkpt lat="49.39073" lon="-1.01491">
        <ele>11.8</ele>
        <time>2020-06-16T14:23:20Z</time>
      </trkpt>
      <trkpt lat="49.39075" lon="-1.01484">
        <ele>11.9</ele>
        <time>2020-06-16T14:23:21Z</time>
      </trkpt>
      <trkpt lat="49.39077" lon="-1.01477">
        <ele>11.9</ele>
        <time>2020-06-16T14:23:22Z</time>
      </trkpt>
      <trkpt lat="49.39079" lon="-1.01471">
        <ele>12</ele>
        <time>2020-06-16T14:23:23Z</time>
      </trkpt>
      <trkpt lat="49.39082" lon="-1.01464">
        <ele>12</ele>
        <time>2020-06-16T14:23:24Z</time>
      </trkpt>
      <trkpt lat="49.39084" lon="-1.01459">
        <ele>12.1</ele>
        <time>2020-06-16T14:23:25Z</time>
      </trkpt>
      <trkpt lat="49.39086" lon="-1.01453">
        <ele>12.1</ele>
        <time>2020-06-16T14:23:26Z</time>
      </trkpt>
      <trkpt lat="49.39088" lon="-1.01447">
        <ele>12.2</ele>
        <time>2020-06-16T14:23:27Z</time>
      </trkpt>
      <trkpt lat="49.3909" lon="-1.0144">
        <ele>12.3</ele>
        <time>2020-06-16T14:23:28Z</time>
      </trkpt>
      <trkpt lat="49.39091" lon="-1.01434">
        <ele>12.4</ele>
        <time>2020-06-16T14:23:29Z</time>
      </trkpt>
      <trkpt lat="49.39093" lon="-1.01427">
        <ele>12.5</ele>
        <time>2020-06-16T14:23:30Z</time>
      </trkpt>
      <trkpt lat="49.39094" lon="-1.0142">
        <ele>12.6</ele>
        <time>2020-06-16T14:23:31Z</time>
      </trkpt>
      <trkpt lat="49.39096" lon="-1.01414">
        <ele>12.7</ele>
        <time>2020-06-16T14:23:32Z</time>
      </trkpt>
      <trkpt lat="49.39097" lon="-1.01407">
        <ele>12.7</ele>
        <time>2020-06-16T14:23:33Z</time>
      </trkpt>
      <trkpt lat="49.39099" lon="-1.014">
        <ele>12.8</ele>
        <time>2020-06-16T14:23:34Z</time>
      </trkpt>
      <trkpt lat="49.39101" lon="-1.01394">
        <ele>12.9</ele>
        <time>2020-06-16T14:23:35Z</time>
      </trkpt>
      <trkpt lat="49.39104" lon="-1.01387">
        <ele>13</ele>
        <time>2020-06-16T14:23:36Z</time>
      </trkpt>
      <trkpt lat="49.39106" lon="-1.0138">
        <ele>13</ele>
        <time>2020-06-16T14:23:37Z</time>
      </trkpt>
      <trkpt lat="49.39108" lon="-1.01374">
        <ele>13.1</ele>
        <time>2020-06-16T14:23:38Z</time>
      </trkpt>
      <trkpt lat="49.3911" lon="-1.01368">
        <ele>13.2</ele>
        <time>2020-06-16T14:23:39Z</time>
      </trkpt>
      <trkpt lat="49.39112" lon="-1.01363">
        <ele>13.2</ele>
        <time>2020-06-16T14:23:40Z</time>
      </trkpt>
      <trkpt lat="49.39114" lon="-1.01357">
        <ele>13.3</ele>
        <time>2020-06-16T14:23:41Z</time>
      </trkpt>
      <trkpt lat="49.39116" lon="-1.0135">
        <ele>13.4</ele>
        <time>2020-06-16T14:23:42Z</time>
      </trkpt>
      <trkpt lat="49.39117" lon="-1.01344">
        <ele>13.4</ele>
        <time>2020-06-16T14:23:43Z</time>
      </trkpt>
      <trkpt lat="49.39119" lon="-1.01337">
        <ele>13.5</ele>
        <time>2020-06-16T14:23:44Z</time>
      </trkpt>
      <trkpt lat="49.39121" lon="-1.0133">
        <ele>13.5</ele>
        <time>2020-06-16T14:23:45Z</time>
      </trkpt>
      <trkpt lat="49.39123" lon="-1.01322">
        <ele>13.6</ele>
        <time>2020-06-16T14:23:46Z</time>
      </trkpt>
      <trkpt lat="49.39124" lon="-1.01315">
        <ele>13.7</ele>
        <time>2020-06-16T14:23:47Z</time>
      </trkpt>
      <trkpt lat="49.39125" lon="-1.01307">
        <ele>13.7</ele>
        <time>2020-06-16T14:23:48Z</time>
      </trkpt>
      <trkpt lat="49.39127" lon="-1.01301">
        <ele>13.8</ele>
        <time>2020-06-16T14:23:49Z</time>
      </trkpt>
      <trkpt lat="49.39128" lon="-1.01294">
        <ele>13.9</ele>
        <time>2020-06-16T14:23:50Z</time>
      </trkpt>
      <trkpt lat="49.3913" lon="-1.01287">
        <ele>14</ele>
        <time>2020-06-16T14:23:51Z</time>
      </trkpt>
      <trkpt lat="49.39131" lon="-1.0128">
        <ele>14.1</ele>
        <time>2020-06-16T14:23:52Z</time>
      </trkpt>
      <trkpt lat="49.39133" lon="-1.01273">
        <ele>14.3</ele>
        <time>2020-06-16T14:23:53Z</time>
      </trkpt>
      <trkpt lat="49.39135" lon="-1.01266">
        <ele>14.4</ele>
        <time>2020-06-16T14:23:54Z</time>
      </trkpt>
      <trkpt lat="49.39137" lon="-1.01259">
        <ele>14.5</ele>
        <time>2020-06-16T14:23:55Z</time>
      </trkpt>
      <trkpt lat="49.39139" lon="-1.01252">
        <ele>14.6</ele>
        <time>2020-06-16T14:23:56Z</time>
      </trkpt>
      <trkpt lat="49.39141" lon="-1.01245">
        <ele>14.7</ele>
        <time>2020-06-16T14:23:57Z</time>
      </trkpt>
      <trkpt lat="49.39144" lon="-1.01237">
        <ele>14.8</ele>
        <time>2020-06-16T14:23:58Z</time>
      </trkpt>
      <trkpt lat="49.39146" lon="-1.0123">
        <ele>14.9</ele>
        <time>2020-06-16T14:23:59Z</time>
      </trkpt>
      <trkpt lat="49.39147" lon="-1.01222">
        <ele>15</ele>
        <time>2020-06-16T14:24:00Z</time>
      </trkpt>
      <trkpt lat="49.39149" lon="-1.01215">
        <ele>15.2</ele>
        <time>2020-06-16T14:24:01Z</time>
      </trkpt>
      <trkpt lat="49.39151" lon="-1.01208">
        <ele>15.3</ele>
        <time>2020-06-16T14:24:02Z</time>
      </trkpt>
      <trkpt lat="49.39153" lon="-1.01201">
        <ele>15.4</ele>
        <time>2020-06-16T14:24:03Z</time>
      </trkpt>
      <trkpt lat="49.39155" lon="-1.01193">
        <ele>15.5</ele>
        <time>2020-06-16T14:24:04Z</time>
      </trkpt>
      <trkpt lat="49.39157" lon="-1.01186">
        <ele>15.6</ele>
        <time>2020-06-16T14:24:05Z</time>
      </trkpt>
      <trkpt lat="49.39158" lon="-1.01178">
        <ele>15.7</ele>
        <time>2020-06-16T14:24:06Z</time>
      </trkpt>
      <trkpt lat="49.3916" lon="-1.01171">
        <ele>15.8</ele>
        <time>2020-06-16T14:24:07Z</time>
      </trkpt>
      <trkpt lat="49.39162" lon="-1.01163">
        <ele>15.9</ele>
        <time>2020-06-16T14:24:08Z</time>
      </trkpt>
      <trkpt lat="49.39164" lon="-1.01156">
        <ele>16.1</ele>
        <time>2020-06-16T14:24:09Z</time>
      </trkpt>
      <trkpt lat="49.39166" lon="-1.01148">
        <ele>16.2</ele>
        <time>2020-06-16T14:24:10Z</time>
      </trkpt>
      <trkpt lat="49.39168" lon="-1.01141">
        <ele>16.3</ele>
        <time>2020-06-16T14:24:11Z</time>
      </trkpt>
      <trkpt lat="49.39169" lon="-1.01134">
        <ele>16.4</ele>
        <time>2020-06-16T14:24:12Z</time>
      </trkpt>
      <trkpt lat="49.39172" lon="-1.01128">
        <ele>16.5</ele>
        <time>2020-06-16T14:24:13Z</time>
      </trkpt>
      <trkpt lat="49.39174" lon="-1.01121">
        <ele>16.6</ele>
        <time>2020-06-16T14:24:14Z</time>
      </trkpt>
      <trkpt lat="49.39176" lon="-1.01114">
        <ele>16.7</ele>
        <time>2020-06-16T14:24:15Z</time>
      </trkpt>
      <trkpt lat="49.39178" lon="-1.01108">
        <ele>16.8</ele>
        <time>2020-06-16T14:24:16Z</time>
      </trkpt>
      <trkpt lat="49.3918" lon="-1.01102">
        <ele>16.9</ele>
        <time>2020-06-16T14:24:17Z</time>
      </trkpt>
      <trkpt lat="49.39182" lon="-1.01096">
        <ele>17</ele>
        <time>2020-06-16T14:24:18Z</time>
      </trkpt>
      <trkpt lat="49.39183" lon="-1.0109">
        <ele>17.1</ele>
        <time>2020-06-16T14:24:19Z</time>
      </trkpt>
      <trkpt lat="49.39185" lon="-1.01084">
        <ele>17.2</ele>
        <time>2020-06-16T14:24:20Z</time>
      </trkpt>
      <trkpt lat="49.39187" lon="-1.01077">
        <ele>17.3</ele>
        <time>2020-06-16T14:24:21Z</time>
      </trkpt>
      <trkpt lat="49.39189" lon="-1.01071">
        <ele>17.5</ele>
        <time>2020-06-16T14:24:22Z</time>
      </trkpt>
      <trkpt lat="49.3919" lon="-1.01065">
        <ele>17.6</ele>
        <time>2020-06-16T14:24:23Z</time>
      </trkpt>
      <trkpt lat="49.39192" lon="-1.0106">
        <ele>17.7</ele>
        <time>2020-06-16T14:24:24Z</time>
      </trkpt>
      <trkpt lat="49.39193" lon="-1.01054">
        <ele>17.8</ele>
        <time>2020-06-16T14:24:25Z</time>
      </trkpt>
      <trkpt lat="49.39195" lon="-1.01047">
        <ele>17.9</ele>
        <time>2020-06-16T14:24:26Z</time>
      </trkpt>
      <trkpt lat="49.39197" lon="-1.01041">
        <ele>18</ele>
        <time>2020-06-16T14:24:27Z</time>
      </trkpt>
      <trkpt lat="49.39198" lon="-1.01036">
        <ele>18.1</ele>
        <time>2020-06-16T14:24:28Z</time>
      </trkpt>
      <trkpt lat="49.392" lon="-1.0103">
        <ele>18.2</ele>
        <time>2020-06-16T14:24:29Z</time>
      </trkpt>
      <trkpt lat="49.39201" lon="-1.01024">
        <ele>18.3</ele>
        <time>2020-06-16T14:24:30Z</time>
      </trkpt>
      <trkpt lat="49.39203" lon="-1.01018">
        <ele>18.4</ele>
        <time>2020-06-16T14:24:31Z</time>
      </trkpt>
      <trkpt lat="49.39205" lon="-1.01011">
        <ele>18.5</ele>
        <time>2020-06-16T14:24:32Z</time>
      </trkpt>
      <trkpt lat="49.39206" lon="-1.01004">
        <ele>18.5</ele>
        <time>2020-06-16T14:24:33Z</time>
      </trkpt>
      <trkpt lat="49.39208" lon="-1.00996">
        <ele>18.5</ele>
        <time>2020-06-16T14:24:34Z</time>
      </trkpt>
      <trkpt lat="49.3921" lon="-1.0099">
        <ele>18.4</ele>
        <time>2020-06-16T14:24:35Z</time>
      </trkpt>
      <trkpt lat="49.39212" lon="-1.00983">
        <ele>18.2</ele>
        <time>2020-06-16T14:24:36Z</time>
      </trkpt>
      <trkpt lat="49.39214" lon="-1.00977">
        <ele>18.1</ele>
        <time>2020-06-16T14:24:37Z</time>
      </trkpt>
      <trkpt lat="49.39216" lon="-1.0097">
        <ele>18.2</ele>
        <time>2020-06-16T14:24:38Z</time>
      </trkpt>
      <trkpt lat="49.39218" lon="-1.00963">
        <ele>18.3</ele>
        <time>2020-06-16T14:24:39Z</time>
      </trkpt>
      <trkpt lat="49.3922" lon="-1.00957">
        <ele>18.4</ele>
        <time>2020-06-16T14:24:40Z</time>
      </trkpt>
      <trkpt lat="49.39222" lon="-1.0095">
        <ele>18.5</ele>
        <time>2020-06-16T14:24:41Z</time>
      </trkpt>
      <trkpt lat="49.39224" lon="-1.00944">
        <ele>18.7</ele>
        <time>2020-06-16T14:24:42Z</time>
      </trkpt>
      <trkpt lat="49.39225" lon="-1.00938">
        <ele>18.8</ele>
        <time>2020-06-16T14:24:43Z</time>
      </trkpt>
      <trkpt lat="49.39226" lon="-1.00932">
        <ele>18.9</ele>
        <time>2020-06-16T14:24:44Z</time>
      </trkpt>
      <trkpt lat="49.39228" lon="-1.00925">
        <ele>19</ele>
        <time>2020-06-16T14:24:45Z</time>
      </trkpt>
      <trkpt lat="49.39229" lon="-1.00919">
        <ele>19.1</ele>
        <time>2020-06-16T14:24:46Z</time>
      </trkpt>
      <trkpt lat="49.39231" lon="-1.00913">
        <ele>19.2</ele>
        <time>2020-06-16T14:24:47Z</time>
      </trkpt>
      <trkpt lat="49.39233" lon="-1.00907">
        <ele>19.3</ele>
        <time>2020-06-16T14:24:48Z</time>
      </trkpt>
      <trkpt lat="49.39234" lon="-1.00901">
        <ele>19.4</ele>
        <time>2020-06-16T14:24:49Z</time>
      </trkpt>
      <trkpt lat="49.39235" lon="-1.00895">
        <ele>19.4</ele>
        <time>2020-06-16T14:24:50Z</time>
      </trkpt>
      <trkpt lat="49.39236" lon="-1.00888">
        <ele>19.5</ele>
        <time>2020-06-16T14:24:51Z</time>
      </trkpt>
      <trkpt lat="49.39238" lon="-1.00882">
        <ele>19.6</ele>
        <time>2020-06-16T14:24:52Z</time>
      </trkpt>
      <trkpt lat="49.39239" lon="-1.00877">
        <ele>19.7</ele>
        <time>2020-06-16T14:24:53Z</time>
      </trkpt>
      <trkpt lat="49.3924" lon="-1.0087">
        <ele>19.8</ele>
        <time>2020-06-16T14:24:54Z</time>
      </trkpt>
      <trkpt lat="49.39241" lon="-1.00863">
        <ele>19.9</ele>
        <time>2020-06-16T14:24:55Z</time>
      </trkpt>
      <trkpt lat="49.39243" lon="-1.00857">
        <ele>20</ele>
        <time>2020-06-16T14:24:56Z</time>
      </trkpt>
      <trkpt lat="49.39244" lon="-1.00851">
        <ele>20.1</ele>
        <time>2020-06-16T14:24:57Z</time>
      </trkpt>
      <trkpt lat="49.39246" lon="-1.00845">
        <ele>20.2</ele>
        <time>2020-06-16T14:24:58Z</time>
      </trkpt>
      <trkpt lat="49.39247" lon="-1.00839">
        <ele>20.3</ele>
        <time>2020-06-16T14:24:59Z</time>
      </trkpt>
      <trkpt lat="49.39249" lon="-1.00833">
        <ele>20.4</ele>
        <time>2020-06-16T14:25:00Z</time>
      </trkpt>
      <trkpt lat="49.39251" lon="-1.00826">
        <ele>20.5</ele>
        <time>2020-06-16T14:25:01Z</time>
      </trkpt>
      <trkpt lat="49.39254" lon="-1.0082">
        <ele>20.5</ele>
        <time>2020-06-16T14:25:02Z</time>
      </trkpt>
      <trkpt lat="49.39256" lon="-1.00815">
        <ele>20.6</ele>
        <time>2020-06-16T14:25:03Z</time>
      </trkpt>
      <trkpt lat="49.39257" lon="-1.00809">
        <ele>20.7</ele>
        <time>2020-06-16T14:25:04Z</time>
      </trkpt>
      <trkpt lat="49.39259" lon="-1.00803">
        <ele>20.8</ele>
        <time>2020-06-16T14:25:05Z</time>
      </trkpt>
      <trkpt lat="49.39261" lon="-1.00797">
        <ele>20.9</ele>
        <time>2020-06-16T14:25:06Z</time>
      </trkpt>
      <trkpt lat="49.39263" lon="-1.00791">
        <ele>21</ele>
        <time>2020-06-16T14:25:07Z</time>
      </trkpt>
      <trkpt lat="49.39265" lon="-1.00785">
        <ele>21.1</ele>
        <time>2020-06-16T14:25:08Z</time>
      </trkpt>
      <trkpt lat="49.39266" lon="-1.00779">
        <ele>21.2</ele>
        <time>2020-06-16T14:25:09Z</time>
      </trkpt>
      <trkpt lat="49.39267" lon="-1.00774">
        <ele>21.2</ele>
        <time>2020-06-16T14:25:10Z</time>
      </trkpt>
      <trkpt lat="49.39268" lon="-1.00767">
        <ele>21.3</ele>
        <time>2020-06-16T14:25:11Z</time>
      </trkpt>
      <trkpt lat="49.39269" lon="-1.00761">
        <ele>21.4</ele>
        <time>2020-06-16T14:25:12Z</time>
      </trkpt>
      <trkpt lat="49.39269" lon="-1.00755">
        <ele>21.5</ele>
        <time>2020-06-16T14:25:13Z</time>
      </trkpt>
      <trkpt lat="49.39269" lon="-1.00749">
        <ele>21.7</ele>
        <time>2020-06-16T14:25:14Z</time>
      </trkpt>
      <trkpt lat="49.39268" lon="-1.00742">
        <ele>21.8</ele>
        <time>2020-06-16T14:25:15Z</time>
      </trkpt>
      <trkpt lat="49.39267" lon="-1.00736">
        <ele>21.9</ele>
        <time>2020-06-16T14:25:16Z</time>
      </trkpt>
      <trkpt lat="49.39266" lon="-1.0073">
        <ele>22</ele>
        <time>2020-06-16T14:25:17Z</time>
      </trkpt>
      <trkpt lat="49.39265" lon="-1.00723">
        <ele>22</ele>
        <time>2020-06-16T14:25:18Z</time>
      </trkpt>
      <trkpt lat="49.39264" lon="-1.00717">
        <ele>22</ele>
        <time>2020-06-16T14:25:19Z</time>
      </trkpt>
      <trkpt lat="49.39263" lon="-1.0071">
        <ele>22.1</ele>
        <time>2020-06-16T14:25:20Z</time>
      </trkpt>
      <trkpt lat="49.39263" lon="-1.00704">
        <ele>22.1</ele>
        <time>2020-06-16T14:25:21Z</time>
      </trkpt>
      <trkpt lat="49.39262" lon="-1.00697">
        <ele>22.1</ele>
        <time>2020-06-16T14:25:22Z</time>
      </trkpt>
      <trkpt lat="49.39262" lon="-1.0069">
        <ele>22.1</ele>
        <time>2020-06-16T14:25:23Z</time>
      </trkpt>
      <trkpt lat="49.39261" lon="-1.00683">
        <ele>22.1</ele>
        <time>2020-06-16T14:25:24Z</time>
      </trkpt>
      <trkpt lat="49.3926" lon="-1.00676">
        <ele>22.1</ele>
        <time>2020-06-16T14:25:25Z</time>
      </trkpt>
      <trkpt lat="49.39258" lon="-1.00669">
        <ele>22.1</ele>
        <time>2020-06-16T14:25:26Z</time>
      </trkpt>
      <trkpt lat="49.39257" lon="-1.00663">
        <ele>22.1</ele>
        <time>2020-06-16T14:25:27Z</time>
      </trkpt>
      <trkpt lat="49.39255" lon="-1.00656">
        <ele>22.1</ele>
        <time>2020-06-16T14:25:28Z</time>
      </trkpt>
      <trkpt lat="49.39253" lon="-1.0065">
        <ele>22.1</ele>
        <time>2020-06-16T14:25:29Z</time>
      </trkpt>
      <trkpt lat="49.39252" lon="-1.00644">
        <ele>22.1</ele>
        <time>2020-06-16T14:25:30Z</time>
      </trkpt>
      <trkpt lat="49.3925" lon="-1.00637">
        <ele>22</ele>
        <time>2020-06-16T14:25:31Z</time>
      </trkpt>
      <trkpt lat="49.39248" lon="-1.00631">
        <ele>21.9</ele>
        <time>2020-06-16T14:25:32Z</time>
      </trkpt>
      <trkpt lat="49.39246" lon="-1.00624">
        <ele>21.9</ele>
        <time>2020-06-16T14:25:33Z</time>
      </trkpt>
      <trkpt lat="49.39244" lon="-1.00616">
        <ele>21.8</ele>
        <time>2020-06-16T14:25:34Z</time>
      </trkpt>
      <trkpt lat="49.39243" lon="-1.00608">
        <ele>21.7</ele>
        <time>2020-06-16T14:25:35Z</time>
      </trkpt>
      <trkpt lat="49.39241" lon="-1.00601">
        <ele>21.6</ele>
        <time>2020-06-16T14:25:36Z</time>
      </trkpt>
      <trkpt lat="49.39239" lon="-1.00594">
        <ele>21.5</ele>
        <time>2020-06-16T14:25:37Z</time>
      </trkpt>
      <trkpt lat="49.39237" lon="-1.00586">
        <ele>21.4</ele>
        <time>2020-06-16T14:25:38Z</time>
      </trkpt>
      <trkpt lat="49.39235" lon="-1.00578">
        <ele>21.3</ele>
        <time>2020-06-16T14:25:39Z</time>
      </trkpt>
      <trkpt lat="49.39233" lon="-1.00571">
        <ele>21.3</ele>
        <time>2020-06-16T14:25:40Z</time>
      </trkpt>
      <trkpt lat="49.39232" lon="-1.00563">
        <ele>21.2</ele>
        <time>2020-06-16T14:25:41Z</time>
      </trkpt>
      <trkpt lat="49.3923" lon="-1.00557">
        <ele>21.1</ele>
        <time>2020-06-16T14:25:42Z</time>
      </trkpt>
      <trkpt lat="49.39228" lon="-1.00551">
        <ele>21</ele>
        <time>2020-06-16T14:25:43Z</time>
      </trkpt>
      <trkpt lat="49.39226" lon="-1.00545">
        <ele>21</ele>
        <time>2020-06-16T14:25:44Z</time>
      </trkpt>
      <trkpt lat="49.39224" lon="-1.00538">
        <ele>20.9</ele>
        <time>2020-06-16T14:25:45Z</time>
      </trkpt>
      <trkpt lat="49.39222" lon="-1.00532">
        <ele>20.8</ele>
        <time>2020-06-16T14:25:46Z</time>
      </trkpt>
      <trkpt lat="49.3922" lon="-1.00524">
        <ele>20.8</ele>
        <time>2020-06-16T14:25:47Z</time>
      </trkpt>
      <trkpt lat="49.39218" lon="-1.00517">
        <ele>20.7</ele>
        <time>2020-06-16T14:25:48Z</time>
      </trkpt>
      <trkpt lat="49.39216" lon="-1.00508">
        <ele>20.6</ele>
        <time>2020-06-16T14:25:49Z</time>
      </trkpt>
      <trkpt lat="49.39213" lon="-1.005">
        <ele>20.5</ele>
        <time>2020-06-16T14:25:50Z</time>
      </trkpt>
      <trkpt lat="49.39211" lon="-1.00492">
        <ele>20.4</ele>
        <time>2020-06-16T14:25:51Z</time>
      </trkpt>
      <trkpt lat="49.39208" lon="-1.00485">
        <ele>20.3</ele>
        <time>2020-06-16T14:25:52Z</time>
      </trkpt>
      <trkpt lat="49.39206" lon="-1.00479">
        <ele>20.2</ele>
        <time>2020-06-16T14:25:53Z</time>
      </trkpt>
      <trkpt lat="49.39203" lon="-1.00472">
        <ele>20.1</ele>
        <time>2020-06-16T14:25:54Z</time>
      </trkpt>
      <trkpt lat="49.39201" lon="-1.00464">
        <ele>20</ele>
        <time>2020-06-16T14:25:55Z</time>
      </trkpt>
      <trkpt lat="49.39199" lon="-1.00457">
        <ele>19.9</ele>
        <time>2020-06-16T14:25:56Z</time>
      </trkpt>
      <trkpt lat="49.39197" lon="-1.00449">
        <ele>19.8</ele>
        <time>2020-06-16T14:25:57Z</time>
      </trkpt>
      <trkpt lat="49.39195" lon="-1.00441">
        <ele>19.7</ele>
        <time>2020-06-16T14:25:58Z</time>
      </trkpt>
      <trkpt lat="49.39192" lon="-1.00433">
        <ele>19.6</ele>
        <time>2020-06-16T14:25:59Z</time>
      </trkpt>
      <trkpt lat="49.3919" lon="-1.00427">
        <ele>19.5</ele>
        <time>2020-06-16T14:26:00Z</time>
      </trkpt>
      <trkpt lat="49.39187" lon="-1.0042">
        <ele>19.5</ele>
        <time>2020-06-16T14:26:01Z</time>
      </trkpt>
      <trkpt lat="49.39185" lon="-1.00411">
        <ele>19.4</ele>
        <time>2020-06-16T14:26:02Z</time>
      </trkpt>
      <trkpt lat="49.39183" lon="-1.00403">
        <ele>19.3</ele>
        <time>2020-06-16T14:26:03Z</time>
      </trkpt>
      <trkpt lat="49.39181" lon="-1.00395">
        <ele>19.2</ele>
        <time>2020-06-16T14:26:04Z</time>
      </trkpt>
      <trkpt lat="49.39178" lon="-1.00388">
        <ele>19.2</ele>
        <time>2020-06-16T14:26:05Z</time>
      </trkpt>
      <trkpt lat="49.39175" lon="-1.00381">
        <ele>19.1</ele>
        <time>2020-06-16T14:26:06Z</time>
      </trkpt>
      <trkpt lat="49.39172" lon="-1.00373">
        <ele>19.1</ele>
        <time>2020-06-16T14:26:07Z</time>
      </trkpt>
      <trkpt lat="49.3917" lon="-1.00365">
        <ele>19</ele>
        <time>2020-06-16T14:26:08Z</time>
      </trkpt>
      <trkpt lat="49.39168" lon="-1.00357">
        <ele>19</ele>
        <time>2020-06-16T14:26:09Z</time>
      </trkpt>
      <trkpt lat="49.39166" lon="-1.00349">
        <ele>19</ele>
        <time>2020-06-16T14:26:10Z</time>
      </trkpt>
      <trkpt lat="49.39164" lon="-1.00342">
        <ele>18.9</ele>
        <time>2020-06-16T14:26:11Z</time>
      </trkpt>
      <trkpt lat="49.39162" lon="-1.00334">
        <ele>18.9</ele>
        <time>2020-06-16T14:26:12Z</time>
      </trkpt>
      <trkpt lat="49.3916" lon="-1.00326">
        <ele>18.8</ele>
        <time>2020-06-16T14:26:13Z</time>
      </trkpt>
      <trkpt lat="49.39158" lon="-1.00317">
        <ele>18.7</ele>
        <time>2020-06-16T14:26:14Z</time>
      </trkpt>
      <trkpt lat="49.39156" lon="-1.00308">
        <ele>18.6</ele>
        <time>2020-06-16T14:26:15Z</time>
      </trkpt>
      <trkpt lat="49.39155" lon="-1.003">
        <ele>18.5</ele>
        <time>2020-06-16T14:26:16Z</time>
      </trkpt>
      <trkpt lat="49.39153" lon="-1.00291">
        <ele>18.5</ele>
        <time>2020-06-16T14:26:17Z</time>
      </trkpt>
      <trkpt lat="49.39152" lon="-1.00283">
        <ele>18.4</ele>
        <time>2020-06-16T14:26:18Z</time>
      </trkpt>
      <trkpt lat="49.3915" lon="-1.00275">
        <ele>18.4</ele>
        <time>2020-06-16T14:26:19Z</time>
      </trkpt>
      <trkpt lat="49.3915" lon="-1.00267">
        <ele>18.4</ele>
        <time>2020-06-16T14:26:20Z</time>
      </trkpt>
      <trkpt lat="49.39148" lon="-1.00259">
        <ele>18.3</ele>
        <time>2020-06-16T14:26:21Z</time>
      </trkpt>
      <trkpt lat="49.39147" lon="-1.0025">
        <ele>18.2</ele>
        <time>2020-06-16T14:26:22Z</time>
      </trkpt>
      <trkpt lat="49.39144" lon="-1.00239">
        <ele>18.2</ele>
        <time>2020-06-16T14:26:23Z</time>
      </trkpt>
      <trkpt lat="49.39142" lon="-1.00228">
        <ele>18.1</ele>
        <time>2020-06-16T14:26:24Z</time>
      </trkpt>
      <trkpt lat="49.39141" lon="-1.00219">
        <ele>18.1</ele>
        <time>2020-06-16T14:26:25Z</time>
      </trkpt>
      <trkpt lat="49.3914" lon="-1.00209">
        <ele>18.1</ele>
        <time>2020-06-16T14:26:26Z</time>
      </trkpt>
      <trkpt lat="49.39138" lon="-1.002">
        <ele>18.1</ele>
        <time>2020-06-16T14:26:27Z</time>
      </trkpt>
      <trkpt lat="49.39137" lon="-1.0019">
        <ele>18.1</ele>
        <time>2020-06-16T14:26:28Z</time>
      </trkpt>
      <trkpt lat="49.39136" lon="-1.00181">
        <ele>18.1</ele>
        <time>2020-06-16T14:26:29Z</time>
      </trkpt>
      <trkpt lat="49.39135" lon="-1.00172">
        <ele>18.1</ele>
        <time>2020-06-16T14:26:30Z</time>
      </trkpt>
      <trkpt lat="49.39134" lon="-1.00163">
        <ele>18.1</ele>
        <time>2020-06-16T14:26:31Z</time>
      </trkpt>
      <trkpt lat="49.39133" lon="-1.00154">
        <ele>18.1</ele>
        <time>2020-06-16T14:26:32Z</time>
      </trkpt>
      <trkpt lat="49.39132" lon="-1.00145">
        <ele>18.2</ele>
        <time>2020-06-16T14:26:33Z</time>
      </trkpt>
      <trkpt lat="49.39131" lon="-1.00135">
        <ele>18.2</ele>
        <time>2020-06-16T14:26:34Z</time>
      </trkpt>
      <trkpt lat="49.39129" lon="-1.00127">
        <ele>18.2</ele>
        <time>2020-06-16T14:26:35Z</time>
      </trkpt>
      <trkpt lat="49.39127" lon="-1.00117">
        <ele>18.2</ele>
        <time>2020-06-16T14:26:36Z</time>
      </trkpt>
      <trkpt lat="49.39125" lon="-1.00107">
        <ele>18.2</ele>
        <time>2020-06-16T14:26:37Z</time>
      </trkpt>
      <trkpt lat="49.39124" lon="-1.00097">
        <ele>18.2</ele>
        <time>2020-06-16T14:26:38Z</time>
      </trkpt>
      <trkpt lat="49.39122" lon="-1.00088">
        <ele>18.2</ele>
        <time>2020-06-16T14:26:39Z</time>
      </trkpt>
      <trkpt lat="49.3912" lon="-1.00078">
        <ele>18.2</ele>
        <time>2020-06-16T14:26:40Z</time>
      </trkpt>
      <trkpt lat="49.39118" lon="-1.00069">
        <ele>18.3</ele>
        <time>2020-06-16T14:26:41Z</time>
      </trkpt>
      <trkpt lat="49.39115" lon="-1.00061">
        <ele>18.4</ele>
        <time>2020-06-16T14:26:42Z</time>
      </trkpt>
      <trkpt lat="49.39112" lon="-1.00054">
        <ele>18.5</ele>
        <time>2020-06-16T14:26:43Z</time>
      </trkpt>
      <trkpt lat="49.39109" lon="-1.00046">
        <ele>18.6</ele>
        <time>2020-06-16T14:26:44Z</time>
      </trkpt>
      <trkpt lat="49.39106" lon="-1.0004">
        <ele>18.8</ele>
        <time>2020-06-16T14:26:45Z</time>
      </trkpt>
      <trkpt lat="49.39103" lon="-1.00032">
        <ele>18.9</ele>
        <time>2020-06-16T14:26:46Z</time>
      </trkpt>
      <trkpt lat="49.391" lon="-1.00025">
        <ele>19.1</ele>
        <time>2020-06-16T14:26:47Z</time>
      </trkpt>
      <trkpt lat="49.39096" lon="-1.00019">
        <ele>19.2</ele>
        <time>2020-06-16T14:26:48Z</time>
      </trkpt>
      <trkpt lat="49.39094" lon="-1.00012">
        <ele>19.3</ele>
        <time>2020-06-16T14:26:49Z</time>
      </trkpt>
      <trkpt lat="49.39091" lon="-1.00006">
        <ele>19.5</ele>
        <time>2020-06-16T14:26:50Z</time>
      </trkpt>
      <trkpt lat="49.39089" lon="-1.00001">
        <ele>19.6</ele>
        <time>2020-06-16T14:26:51Z</time>
      </trkpt>
      <trkpt lat="49.39086" lon="-0.99997">
        <ele>19.7</ele>
        <time>2020-06-16T14:26:52Z</time>
      </trkpt>
      <trkpt lat="49.39084" lon="-0.99992">
        <ele>19.8</ele>
        <time>2020-06-16T14:26:53Z</time>
      </trkpt>
      <trkpt lat="49.39083" lon="-0.99986">
        <ele>19.9</ele>
        <time>2020-06-16T14:26:54Z</time>
      </trkpt>
      <trkpt lat="49.39081" lon="-0.9998">
        <ele>20.1</ele>
        <time>2020-06-16T14:26:55Z</time>
      </trkpt>
      <trkpt lat="49.39079" lon="-0.99974">
        <ele>20.2</ele>
        <time>2020-06-16T14:26:56Z</time>
      </trkpt>
      <trkpt lat="49.39077" lon="-0.99968">
        <ele>20.4</ele>
        <time>2020-06-16T14:26:57Z</time>
      </trkpt>
      <trkpt lat="49.39074" lon="-0.99962">
        <ele>20.5</ele>
        <time>2020-06-16T14:26:58Z</time>
      </trkpt>
      <trkpt lat="49.39072" lon="-0.99955">
        <ele>20.7</ele>
        <time>2020-06-16T14:26:59Z</time>
      </trkpt>
      <trkpt lat="49.39071" lon="-0.99949">
        <ele>20.8</ele>
        <time>2020-06-16T14:27:00Z</time>
      </trkpt>
      <trkpt lat="49.39069" lon="-0.99943">
        <ele>21</ele>
        <time>2020-06-16T14:27:01Z</time>
      </trkpt>
      <trkpt lat="49.39067" lon="-0.99937">
        <ele>21.1</ele>
        <time>2020-06-16T14:27:02Z</time>
      </trkpt>
      <trkpt lat="49.39065" lon="-0.99931">
        <ele>21.2</ele>
        <time>2020-06-16T14:27:03Z</time>
      </trkpt>
      <trkpt lat="49.39063" lon="-0.99925">
        <ele>21.4</ele>
        <time>2020-06-16T14:27:04Z</time>
      </trkpt>
      <trkpt lat="49.39061" lon="-0.99919">
        <ele>21.5</ele>
        <time>2020-06-16T14:27:05Z</time>
      </trkpt>
      <trkpt lat="49.39058" lon="-0.99913">
        <ele>21.6</ele>
        <time>2020-06-16T14:27:06Z</time>
      </trkpt>
      <trkpt lat="49.39056" lon="-0.99907">
        <ele>21.8</ele>
        <time>2020-06-16T14:27:07Z</time>
      </trkpt>
      <trkpt lat="49.39053" lon="-0.99901">
        <ele>22</ele>
        <time>2020-06-16T14:27:08Z</time>
      </trkpt>
      <trkpt lat="49.39051" lon="-0.99894">
        <ele>22.2</ele>
        <time>2020-06-16T14:27:09Z</time>
      </trkpt>
      <trkpt lat="49.39048" lon="-0.99887">
        <ele>22.4</ele>
        <time>2020-06-16T14:27:10Z</time>
      </trkpt>
      <trkpt lat="49.39046" lon="-0.9988">
        <ele>22.6</ele>
        <time>2020-06-16T14:27:11Z</time>
      </trkpt>
      <trkpt lat="49.39045" lon="-0.99873">
        <ele>22.8</ele>
        <time>2020-06-16T14:27:12Z</time>
      </trkpt>
      <trkpt lat="49.39043" lon="-0.99867">
        <ele>23</ele>
        <time>2020-06-16T14:27:13Z</time>
      </trkpt>
      <trkpt lat="49.39041" lon="-0.99861">
        <ele>23.1</ele>
        <time>2020-06-16T14:27:14Z</time>
      </trkpt>
      <trkpt lat="49.39039" lon="-0.99856">
        <ele>23.3</ele>
        <time>2020-06-16T14:27:15Z</time>
      </trkpt>
      <trkpt lat="49.39036" lon="-0.9985">
        <ele>23.4</ele>
        <time>2020-06-16T14:27:16Z</time>
      </trkpt>
      <trkpt lat="49.39034" lon="-0.99845">
        <ele>23.6</ele>
        <time>2020-06-16T14:27:17Z</time>
      </trkpt>
      <trkpt lat="49.39032" lon="-0.99839">
        <ele>23.8</ele>
        <time>2020-06-16T14:27:18Z</time>
      </trkpt>
      <trkpt lat="49.3903" lon="-0.99833">
        <ele>23.9</ele>
        <time>2020-06-16T14:27:19Z</time>
      </trkpt>
      <trkpt lat="49.39028" lon="-0.99827">
        <ele>24.1</ele>
        <time>2020-06-16T14:27:20Z</time>
      </trkpt>
      <trkpt lat="49.39026" lon="-0.9982">
        <ele>24.3</ele>
        <time>2020-06-16T14:27:21Z</time>
      </trkpt>
      <trkpt lat="49.39024" lon="-0.99814">
        <ele>24.4</ele>
        <time>2020-06-16T14:27:22Z</time>
      </trkpt>
      <trkpt lat="49.39022" lon="-0.99807">
        <ele>24.6</ele>
        <time>2020-06-16T14:27:23Z</time>
      </trkpt>
      <trkpt lat="49.3902" lon="-0.99801">
        <ele>24.7</ele>
        <time>2020-06-16T14:27:24Z</time>
      </trkpt>
      <trkpt lat="49.39017" lon="-0.99794">
        <ele>24.8</ele>
        <time>2020-06-16T14:27:25Z</time>
      </trkpt>
      <trkpt lat="49.39016" lon="-0.99787">
        <ele>25</ele>
        <time>2020-06-16T14:27:26Z</time>
      </trkpt>
      <trkpt lat="49.39014" lon="-0.9978">
        <ele>25.1</ele>
        <time>2020-06-16T14:27:27Z</time>
      </trkpt>
      <trkpt lat="49.39012" lon="-0.99773">
        <ele>25.2</ele>
        <time>2020-06-16T14:27:28Z</time>
      </trkpt>
      <trkpt lat="49.39011" lon="-0.99767">
        <ele>25.4</ele>
        <time>2020-06-16T14:27:29Z</time>
      </trkpt>
      <trkpt lat="49.39009" lon="-0.9976">
        <ele>25.6</ele>
        <time>2020-06-16T14:27:30Z</time>
      </trkpt>
      <trkpt lat="49.39008" lon="-0.99754">
        <ele>25.7</ele>
        <time>2020-06-16T14:27:31Z</time>
      </trkpt>
      <trkpt lat="49.39006" lon="-0.99747">
        <ele>25.9</ele>
        <time>2020-06-16T14:27:32Z</time>
      </trkpt>
      <trkpt lat="49.39005" lon="-0.99741">
        <ele>26</ele>
        <time>2020-06-16T14:27:33Z</time>
      </trkpt>
      <trkpt lat="49.39004" lon="-0.99734">
        <ele>26.1</ele>
        <time>2020-06-16T14:27:34Z</time>
      </trkpt>
      <trkpt lat="49.39003" lon="-0.99728">
        <ele>26.2</ele>
        <time>2020-06-16T14:27:35Z</time>
      </trkpt>
      <trkpt lat="49.39002" lon="-0.99722">
        <ele>26.3</ele>
        <time>2020-06-16T14:27:36Z</time>
      </trkpt>
      <trkpt lat="49.39001" lon="-0.99716">
        <ele>26.4</ele>
        <time>2020-06-16T14:27:37Z</time>
      </trkpt>
      <trkpt lat="49.39" lon="-0.9971">
        <ele>26.5</ele>
        <time>2020-06-16T14:27:38Z</time>
      </trkpt>
      <trkpt lat="49.38998" lon="-0.99704">
        <ele>26.6</ele>
        <time>2020-06-16T14:27:39Z</time>
      </trkpt>
      <trkpt lat="49.38997" lon="-0.99697">
        <ele>26.8</ele>
        <time>2020-06-16T14:27:40Z</time>
      </trkpt>
      <trkpt lat="49.38995" lon="-0.99691">
        <ele>26.9</ele>
        <time>2020-06-16T14:27:41Z</time>
      </trkpt>
      <trkpt lat="49.38994" lon="-0.99685">
        <ele>27</ele>
        <time>2020-06-16T14:27:42Z</time>
      </trkpt>
      <trkpt lat="49.38993" lon="-0.99679">
        <ele>27.1</ele>
        <time>2020-06-16T14:27:43Z</time>
      </trkpt>
      <trkpt lat="49.38993" lon="-0.99674">
        <ele>27.2</ele>
        <time>2020-06-16T14:27:44Z</time>
      </trkpt>
      <trkpt lat="49.38992" lon="-0.99668">
        <ele>27.3</ele>
        <time>2020-06-16T14:27:45Z</time>
      </trkpt>
      <trkpt lat="49.38991" lon="-0.99664">
        <ele>27.4</ele>
        <time>2020-06-16T14:27:46Z</time>
      </trkpt>
      <trkpt lat="49.3899" lon="-0.9966">
        <ele>27.4</ele>
        <time>2020-06-16T14:27:47Z</time>
      </trkpt>
      <trkpt lat="49.38988" lon="-0.99655">
        <ele>27.5</ele>
        <time>2020-06-16T14:27:48Z</time>
      </trkpt>
      <trkpt lat="49.38986" lon="-0.99649">
        <ele>27.6</ele>
        <time>2020-06-16T14:27:49Z</time>
      </trkpt>
      <trkpt lat="49.38985" lon="-0.99644">
        <ele>27.7</ele>
        <time>2020-06-16T14:27:50Z</time>
      </trkpt>
      <trkpt lat="49.38983" lon="-0.99638">
        <ele>27.8</ele>
        <time>2020-06-16T14:27:51Z</time>
      </trkpt>
      <trkpt lat="49.38981" lon="-0.99633">
        <ele>27.9</ele>
        <time>2020-06-16T14:27:52Z</time>
      </trkpt>
      <trkpt lat="49.38979" lon="-0.99627">
        <ele>28</ele>
        <time>2020-06-16T14:27:53Z</time>
      </trkpt>
      <trkpt lat="49.38977" lon="-0.99621">
        <ele>28</ele>
        <time>2020-06-16T14:27:54Z</time>
      </trkpt>
      <trkpt lat="49.38975" lon="-0.99615">
        <ele>28.1</ele>
        <time>2020-06-16T14:27:55Z</time>
      </trkpt>
      <trkpt lat="49.38974" lon="-0.9961">
        <ele>28.2</ele>
        <time>2020-06-16T14:27:56Z</time>
      </trkpt>
      <trkpt lat="49.38971" lon="-0.99604">
        <ele>28.3</ele>
        <time>2020-06-16T14:27:57Z</time>
      </trkpt>
      <trkpt lat="49.38969" lon="-0.996">
        <ele>28.4</ele>
        <time>2020-06-16T14:27:58Z</time>
      </trkpt>
      <trkpt lat="49.38968" lon="-0.99595">
        <ele>28.4</ele>
        <time>2020-06-16T14:27:59Z</time>
      </trkpt>
      <trkpt lat="49.38966" lon="-0.9959">
        <ele>28.5</ele>
        <time>2020-06-16T14:28:00Z</time>
      </trkpt>
      <trkpt lat="49.38963" lon="-0.99586">
        <ele>28.6</ele>
        <time>2020-06-16T14:28:01Z</time>
      </trkpt>
      <trkpt lat="49.3896" lon="-0.99581">
        <ele>28.7</ele>
        <time>2020-06-16T14:28:02Z</time>
      </trkpt>
      <trkpt lat="49.38957" lon="-0.99576">
        <ele>28.8</ele>
        <time>2020-06-16T14:28:03Z</time>
      </trkpt>
      <trkpt lat="49.38955" lon="-0.99571">
        <ele>28.9</ele>
        <time>2020-06-16T14:28:04Z</time>
      </trkpt>
      <trkpt lat="49.38952" lon="-0.99565">
        <ele>29</ele>
        <time>2020-06-16T14:28:05Z</time>
      </trkpt>
      <trkpt lat="49.38949" lon="-0.9956">
        <ele>29.1</ele>
        <time>2020-06-16T14:28:06Z</time>
      </trkpt>
      <trkpt lat="49.38947" lon="-0.99554">
        <ele>29.2</ele>
        <time>2020-06-16T14:28:07Z</time>
      </trkpt>
      <trkpt lat="49.38945" lon="-0.99548">
        <ele>29.3</ele>
        <time>2020-06-16T14:28:08Z</time>
      </trkpt>
      <trkpt lat="49.38942" lon="-0.99542">
        <ele>29.4</ele>
        <time>2020-06-16T14:28:09Z</time>
      </trkpt>
      <trkpt lat="49.38939" lon="-0.99537">
        <ele>29.5</ele>
        <time>2020-06-16T14:28:10Z</time>
      </trkpt>
      <trkpt lat="49.38935" lon="-0.99532">
        <ele>29.6</ele>
        <time>2020-06-16T14:28:11Z</time>
      </trkpt>
      <trkpt lat="49.38932" lon="-0.99525">
        <ele>29.7</ele>
        <time>2020-06-16T14:28:12Z</time>
      </trkpt>
      <trkpt lat="49.38929" lon="-0.99519">
        <ele>29.8</ele>
        <time>2020-06-16T14:28:13Z</time>
      </trkpt>
      <trkpt lat="49.38927" lon="-0.99513">
        <ele>29.8</ele>
        <time>2020-06-16T14:28:14Z</time>
      </trkpt>
      <trkpt lat="49.38925" lon="-0.99508">
        <ele>29.9</ele>
        <time>2020-06-16T14:28:15Z</time>
      </trkpt>
      <trkpt lat="49.38923" lon="-0.99503">
        <ele>30</ele>
        <time>2020-06-16T14:28:16Z</time>
      </trkpt>
      <trkpt lat="49.38921" lon="-0.99497">
        <ele>30</ele>
        <time>2020-06-16T14:28:17Z</time>
      </trkpt>
      <trkpt lat="49.38919" lon="-0.99491">
        <ele>30.1</ele>
        <time>2020-06-16T14:28:18Z</time>
      </trkpt>
      <trkpt lat="49.38917" lon="-0.99484">
        <ele>30.2</ele>
        <time>2020-06-16T14:28:19Z</time>
      </trkpt>
      <trkpt lat="49.38915" lon="-0.99479">
        <ele>30.2</ele>
        <time>2020-06-16T14:28:20Z</time>
      </trkpt>
      <trkpt lat="49.38913" lon="-0.99473">
        <ele>30.3</ele>
        <time>2020-06-16T14:28:21Z</time>
      </trkpt>
      <trkpt lat="49.38911" lon="-0.99468">
        <ele>30.4</ele>
        <time>2020-06-16T14:28:22Z</time>
      </trkpt>
      <trkpt lat="49.38909" lon="-0.99462">
        <ele>30.5</ele>
        <time>2020-06-16T14:28:23Z</time>
      </trkpt>
      <trkpt lat="49.38908" lon="-0.99456">
        <ele>30.6</ele>
        <time>2020-06-16T14:28:24Z</time>
      </trkpt>
      <trkpt lat="49.38906" lon="-0.99451">
        <ele>30.6</ele>
        <time>2020-06-16T14:28:25Z</time>
      </trkpt>
      <trkpt lat="49.38904" lon="-0.99445">
        <ele>30.7</ele>
        <time>2020-06-16T14:28:26Z</time>
      </trkpt>
      <trkpt lat="49.38903" lon="-0.99439">
        <ele>30.8</ele>
        <time>2020-06-16T14:28:27Z</time>
      </trkpt>
      <trkpt lat="49.38902" lon="-0.99432">
        <ele>30.9</ele>
        <time>2020-06-16T14:28:28Z</time>
      </trkpt>
      <trkpt lat="49.38901" lon="-0.99426">
        <ele>31</ele>
        <time>2020-06-16T14:28:29Z</time>
      </trkpt>
      <trkpt lat="49.389" lon="-0.9942">
        <ele>31</ele>
        <time>2020-06-16T14:28:30Z</time>
      </trkpt>
      <trkpt lat="49.38899" lon="-0.99413">
        <ele>31.1</ele>
        <time>2020-06-16T14:28:31Z</time>
      </trkpt>
      <trkpt lat="49.38898" lon="-0.99405">
        <ele>31.2</ele>
        <time>2020-06-16T14:28:32Z</time>
      </trkpt>
      <trkpt lat="49.38897" lon="-0.99397">
        <ele>31.2</ele>
        <time>2020-06-16T14:28:33Z</time>
      </trkpt>
      <trkpt lat="49.38897" lon="-0.99391">
        <ele>31.3</ele>
        <time>2020-06-16T14:28:34Z</time>
      </trkpt>
      <trkpt lat="49.38897" lon="-0.99384">
        <ele>31.4</ele>
        <time>2020-06-16T14:28:35Z</time>
      </trkpt>
      <trkpt lat="49.38896" lon="-0.99377">
        <ele>31.5</ele>
        <time>2020-06-16T14:28:36Z</time>
      </trkpt>
      <trkpt lat="49.38896" lon="-0.9937">
        <ele>31.5</ele>
        <time>2020-06-16T14:28:37Z</time>
      </trkpt>
      <trkpt lat="49.38895" lon="-0.99362">
        <ele>31.6</ele>
        <time>2020-06-16T14:28:38Z</time>
      </trkpt>
      <trkpt lat="49.38895" lon="-0.99354">
        <ele>31.7</ele>
        <time>2020-06-16T14:28:39Z</time>
      </trkpt>
      <trkpt lat="49.38894" lon="-0.99347">
        <ele>31.8</ele>
        <time>2020-06-16T14:28:40Z</time>
      </trkpt>
      <trkpt lat="49.38894" lon="-0.99339">
        <ele>31.8</ele>
        <time>2020-06-16T14:28:41Z</time>
      </trkpt>
      <trkpt lat="49.38894" lon="-0.99331">
        <ele>31.9</ele>
        <time>2020-06-16T14:28:42Z</time>
      </trkpt>
      <trkpt lat="49.38894" lon="-0.99323">
        <ele>31.9</ele>
        <time>2020-06-16T14:28:43Z</time>
      </trkpt>
      <trkpt lat="49.38894" lon="-0.99314">
        <ele>32</ele>
        <time>2020-06-16T14:28:44Z</time>
      </trkpt>
      <trkpt lat="49.38894" lon="-0.99304">
        <ele>32.1</ele>
        <time>2020-06-16T14:28:45Z</time>
      </trkpt>
      <trkpt lat="49.38893" lon="-0.99297">
        <ele>32.1</ele>
        <time>2020-06-16T14:28:46Z</time>
      </trkpt>
      <trkpt lat="49.38893" lon="-0.99287">
        <ele>32.2</ele>
        <time>2020-06-16T14:28:47Z</time>
      </trkpt>
      <trkpt lat="49.38893" lon="-0.99278">
        <ele>32.3</ele>
        <time>2020-06-16T14:28:48Z</time>
      </trkpt>
      <trkpt lat="49.38893" lon="-0.99268">
        <ele>32.3</ele>
        <time>2020-06-16T14:28:49Z</time>
      </trkpt>
      <trkpt lat="49.38892" lon="-0.99258">
        <ele>32.4</ele>
        <time>2020-06-16T14:28:50Z</time>
      </trkpt>
      <trkpt lat="49.3889" lon="-0.99249">
        <ele>32.5</ele>
        <time>2020-06-16T14:28:51Z</time>
      </trkpt>
      <trkpt lat="49.38888" lon="-0.99243">
        <ele>32.5</ele>
        <time>2020-06-16T14:28:52Z</time>
      </trkpt>
      <trkpt lat="49.38886" lon="-0.99237">
        <ele>32.5</ele>
        <time>2020-06-16T14:28:53Z</time>
      </trkpt>
      <trkpt lat="49.38884" lon="-0.99231">
        <ele>32.6</ele>
        <time>2020-06-16T14:28:54Z</time>
      </trkpt>
      <trkpt lat="49.38882" lon="-0.99223">
        <ele>32.6</ele>
        <time>2020-06-16T14:28:55Z</time>
      </trkpt>
      <trkpt lat="49.38881" lon="-0.99213">
        <ele>32.7</ele>
        <time>2020-06-16T14:28:56Z</time>
      </trkpt>
      <trkpt lat="49.3888" lon="-0.99202">
        <ele>32.7</ele>
        <time>2020-06-16T14:28:57Z</time>
      </trkpt>
      <trkpt lat="49.38881" lon="-0.99191">
        <ele>32.8</ele>
        <time>2020-06-16T14:28:58Z</time>
      </trkpt>
      <trkpt lat="49.38884" lon="-0.99181">
        <ele>32.9</ele>
        <time>2020-06-16T14:28:59Z</time>
      </trkpt>
      <trkpt lat="49.38887" lon="-0.99175">
        <ele>32.9</ele>
        <time>2020-06-16T14:29:00Z</time>
      </trkpt>
      <trkpt lat="49.38891" lon="-0.99172">
        <ele>32.9</ele>
        <time>2020-06-16T14:29:01Z</time>
      </trkpt>
      <trkpt lat="49.38896" lon="-0.99172">
        <ele>32.9</ele>
        <time>2020-06-16T14:29:02Z</time>
      </trkpt>
      <trkpt lat="49.38899" lon="-0.99171">
        <ele>32.9</ele>
        <time>2020-06-16T14:29:03Z</time>
      </trkpt>
      <trkpt lat="49.38904" lon="-0.99171">
        <ele>32.9</ele>
        <time>2020-06-16T14:29:04Z</time>
      </trkpt>
      <trkpt lat="49.38909" lon="-0.99171">
        <ele>32.9</ele>
        <time>2020-06-16T14:29:05Z</time>
      </trkpt>
      <trkpt lat="49.38912" lon="-0.99173">
        <ele>32.9</ele>
        <time>2020-06-16T14:29:06Z</time>
      </trkpt>
      <trkpt lat="49.38916" lon="-0.99174">
        <ele>33.3</ele>
        <time>2020-06-16T14:29:07Z</time>
      </trkpt>
      <trkpt lat="49.3892" lon="-0.99175">
        <ele>33.3</ele>
        <time>2020-06-16T14:29:08Z</time>
      </trkpt>
      <trkpt lat="49.38924" lon="-0.99176">
        <ele>33.3</ele>
        <time>2020-06-16T14:29:09Z</time>
      </trkpt>
      <trkpt lat="49.38929" lon="-0.99176">
        <ele>33.3</ele>
        <time>2020-06-16T14:29:10Z</time>
      </trkpt>
      <trkpt lat="49.38933" lon="-0.99176">
        <ele>33.3</ele>
        <time>2020-06-16T14:29:11Z</time>
      </trkpt>
      <trkpt lat="49.38938" lon="-0.99176">
        <ele>33.3</ele>
        <time>2020-06-16T14:29:12Z</time>
      </trkpt>
      <trkpt lat="49.38942" lon="-0.99175">
        <ele>33.7</ele>
        <time>2020-06-16T14:29:13Z</time>
      </trkpt>
      <trkpt lat="49.38946" lon="-0.99175">
        <ele>33.7</ele>
        <time>2020-06-16T14:29:14Z</time>
      </trkpt>
      <trkpt lat="49.38952" lon="-0.99175">
        <ele>33.8</ele>
        <time>2020-06-16T14:29:15Z</time>
      </trkpt>
      <trkpt lat="49.38957" lon="-0.99172">
        <ele>33.8</ele>
        <time>2020-06-16T14:29:16Z</time>
      </trkpt>
      <trkpt lat="49.38963" lon="-0.99168">
        <ele>33.8</ele>
        <time>2020-06-16T14:29:17Z</time>
      </trkpt>
      <trkpt lat="49.38969" lon="-0.99165">
        <ele>33.7</ele>
        <time>2020-06-16T14:29:18Z</time>
      </trkpt>
      <trkpt lat="49.38974" lon="-0.99164">
        <ele>33.7</ele>
        <time>2020-06-16T14:29:19Z</time>
      </trkpt>
      <trkpt lat="49.38979" lon="-0.99162">
        <ele>33.7</ele>
        <time>2020-06-16T14:29:20Z</time>
      </trkpt>
      <trkpt lat="49.38985" lon="-0.9916">
        <ele>33.7</ele>
        <time>2020-06-16T14:29:21Z</time>
      </trkpt>
      <trkpt lat="49.38992" lon="-0.99157">
        <ele>33.7</ele>
        <time>2020-06-16T14:29:22Z</time>
      </trkpt>
      <trkpt lat="49.38999" lon="-0.99152">
        <ele>33.7</ele>
        <time>2020-06-16T14:29:23Z</time>
      </trkpt>
      <trkpt lat="49.39005" lon="-0.99149">
        <ele>33.7</ele>
        <time>2020-06-16T14:29:24Z</time>
      </trkpt>
      <trkpt lat="49.39012" lon="-0.99145">
        <ele>33.7</ele>
        <time>2020-06-16T14:29:25Z</time>
      </trkpt>
      <trkpt lat="49.39019" lon="-0.99139">
        <ele>33.6</ele>
        <time>2020-06-16T14:29:26Z</time>
      </trkpt>
      <trkpt lat="49.39026" lon="-0.99133">
        <ele>33.6</ele>
        <time>2020-06-16T14:29:27Z</time>
      </trkpt>
      <trkpt lat="49.39033" lon="-0.99127">
        <ele>33.6</ele>
        <time>2020-06-16T14:29:28Z</time>
      </trkpt>
      <trkpt lat="49.3904" lon="-0.99121">
        <ele>33.5</ele>
        <time>2020-06-16T14:29:29Z</time>
      </trkpt>
      <trkpt lat="49.39046" lon="-0.99116">
        <ele>33.5</ele>
        <time>2020-06-16T14:29:30Z</time>
      </trkpt>
      <trkpt lat="49.39053" lon="-0.99112">
        <ele>33.4</ele>
        <time>2020-06-16T14:29:31Z</time>
      </trkpt>
      <trkpt lat="49.39059" lon="-0.99108">
        <ele>33.4</ele>
        <time>2020-06-16T14:29:32Z</time>
      </trkpt>
      <trkpt lat="49.39066" lon="-0.99104">
        <ele>33.3</ele>
        <time>2020-06-16T14:29:33Z</time>
      </trkpt>
      <trkpt lat="49.39073" lon="-0.991">
        <ele>33.3</ele>
        <time>2020-06-16T14:29:34Z</time>
      </trkpt>
      <trkpt lat="49.3908" lon="-0.99096">
        <ele>33.3</ele>
        <time>2020-06-16T14:29:35Z</time>
      </trkpt>
      <trkpt lat="49.39086" lon="-0.99092">
        <ele>33.2</ele>
        <time>2020-06-16T14:29:36Z</time>
      </trkpt>
      <trkpt lat="49.39092" lon="-0.99088">
        <ele>33.2</ele>
        <time>2020-06-16T14:29:37Z</time>
      </trkpt>
      <trkpt lat="49.39099" lon="-0.99084">
        <ele>33.2</ele>
        <time>2020-06-16T14:29:38Z</time>
      </trkpt>
      <trkpt lat="49.39105" lon="-0.9908">
        <ele>33.2</ele>
        <time>2020-06-16T14:29:39Z</time>
      </trkpt>
      <trkpt lat="49.39112" lon="-0.99076">
        <ele>33.3</ele>
        <time>2020-06-16T14:29:40Z</time>
      </trkpt>
      <trkpt lat="49.39118" lon="-0.99073">
        <ele>33.3</ele>
        <time>2020-06-16T14:29:41Z</time>
      </trkpt>
      <trkpt lat="49.39124" lon="-0.99068">
        <ele>33.3</ele>
        <time>2020-06-16T14:29:42Z</time>
      </trkpt>
      <trkpt lat="49.3913" lon="-0.99065">
        <ele>33.2</ele>
        <time>2020-06-16T14:29:43Z</time>
      </trkpt>
      <trkpt lat="49.39134" lon="-0.9906">
        <ele>33.2</ele>
        <time>2020-06-16T14:29:44Z</time>
      </trkpt>
      <trkpt lat="49.39136" lon="-0.99058">
        <ele>33.2</ele>
        <time>2020-06-16T14:29:45Z</time>
      </trkpt>
      <trkpt lat="49.3914" lon="-0.99055">
        <ele>33.2</ele>
        <time>2020-06-16T14:29:46Z</time>
      </trkpt>
      <trkpt lat="49.39145" lon="-0.99051">
        <ele>33.2</ele>
        <time>2020-06-16T14:29:47Z</time>
      </trkpt>
      <trkpt lat="49.39149" lon="-0.99048">
        <ele>33.2</ele>
        <time>2020-06-16T14:29:48Z</time>
      </trkpt>
      <trkpt lat="49.39155" lon="-0.99045">
        <ele>33.1</ele>
        <time>2020-06-16T14:29:49Z</time>
      </trkpt>
      <trkpt lat="49.39159" lon="-0.99043">
        <ele>33.1</ele>
        <time>2020-06-16T14:29:50Z</time>
      </trkpt>
      <trkpt lat="49.39165" lon="-0.99042">
        <ele>33.1</ele>
        <time>2020-06-16T14:29:51Z</time>
      </trkpt>
      <trkpt lat="49.39169" lon="-0.9904">
        <ele>33</ele>
        <time>2020-06-16T14:29:52Z</time>
      </trkpt>
      <trkpt lat="49.39173" lon="-0.99039">
        <ele>33</ele>
        <time>2020-06-16T14:29:53Z</time>
      </trkpt>
      <trkpt lat="49.39175" lon="-0.9904">
        <ele>33</ele>
        <time>2020-06-16T14:29:54Z</time>
      </trkpt>
      <trkpt lat="49.3918" lon="-0.9904">
        <ele>33</ele>
        <time>2020-06-16T14:29:55Z</time>
      </trkpt>
      <trkpt lat="49.39185" lon="-0.9904">
        <ele>32.9</ele>
        <time>2020-06-16T14:29:56Z</time>
      </trkpt>
      <trkpt lat="49.3919" lon="-0.9904">
        <ele>32.9</ele>
        <time>2020-06-16T14:29:57Z</time>
      </trkpt>
      <trkpt lat="49.39195" lon="-0.9904">
        <ele>32.8</ele>
        <time>2020-06-16T14:29:58Z</time>
      </trkpt>
      <trkpt lat="49.39202" lon="-0.99041">
        <ele>32.8</ele>
        <time>2020-06-16T14:29:59Z</time>
      </trkpt>
      <trkpt lat="49.39208" lon="-0.99041">
        <ele>32.8</ele>
        <time>2020-06-16T14:30:00Z</time>
      </trkpt>
      <trkpt lat="49.39214" lon="-0.99042">
        <ele>32.8</ele>
        <time>2020-06-16T14:30:01Z</time>
      </trkpt>
      <trkpt lat="49.3922" lon="-0.99043">
        <ele>32.7</ele>
        <time>2020-06-16T14:30:02Z</time>
      </trkpt>
      <trkpt lat="49.39226" lon="-0.99043">
        <ele>32.7</ele>
        <time>2020-06-16T14:30:03Z</time>
      </trkpt>
      <trkpt lat="49.3923" lon="-0.99044">
        <ele>32.8</ele>
        <time>2020-06-16T14:30:04Z</time>
      </trkpt>
      <trkpt lat="49.39235" lon="-0.99044">
        <ele>32.8</ele>
        <time>2020-06-16T14:30:05Z</time>
      </trkpt>
      <trkpt lat="49.39241" lon="-0.99042">
        <ele>32.9</ele>
        <time>2020-06-16T14:30:06Z</time>
      </trkpt>
      <trkpt lat="49.39247" lon="-0.99039">
        <ele>32.9</ele>
        <time>2020-06-16T14:30:07Z</time>
      </trkpt>
      <trkpt lat="49.39254" lon="-0.99036">
        <ele>33</ele>
        <time>2020-06-16T14:30:08Z</time>
      </trkpt>
      <trkpt lat="49.39259" lon="-0.99032">
        <ele>33</ele>
        <time>2020-06-16T14:30:09Z</time>
      </trkpt>
      <trkpt lat="49.39262" lon="-0.99029">
        <ele>33</ele>
        <time>2020-06-16T14:30:10Z</time>
      </trkpt>
      <trkpt lat="49.39263" lon="-0.99026">
        <ele>33</ele>
        <time>2020-06-16T14:30:11Z</time>
      </trkpt>
      <trkpt lat="49.39264" lon="-0.99019">
        <ele>33.1</ele>
        <time>2020-06-16T14:30:12Z</time>
      </trkpt>
      <trkpt lat="49.39261" lon="-0.99012">
        <ele>33.4</ele>
        <time>2020-06-16T14:30:13Z</time>
      </trkpt>
      <trkpt lat="49.39259" lon="-0.99005">
        <ele>33.4</ele>
        <time>2020-06-16T14:30:14Z</time>
      </trkpt>
      <trkpt lat="49.39257" lon="-0.98998">
        <ele>33.5</ele>
        <time>2020-06-16T14:30:15Z</time>
      </trkpt>
      <trkpt lat="49.39255" lon="-0.98992">
        <ele>33.4</ele>
        <time>2020-06-16T14:30:16Z</time>
      </trkpt>
      <trkpt lat="49.39253" lon="-0.98985">
        <ele>33.3</ele>
        <time>2020-06-16T14:30:17Z</time>
      </trkpt>
      <trkpt lat="49.39252" lon="-0.98978">
        <ele>33.2</ele>
        <time>2020-06-16T14:30:18Z</time>
      </trkpt>
      <trkpt lat="49.3925" lon="-0.98969">
        <ele>33.2</ele>
        <time>2020-06-16T14:30:19Z</time>
      </trkpt>
      <trkpt lat="49.39248" lon="-0.98961">
        <ele>33.1</ele>
        <time>2020-06-16T14:30:20Z</time>
      </trkpt>
      <trkpt lat="49.39247" lon="-0.98956">
        <ele>33.1</ele>
        <time>2020-06-16T14:30:21Z</time>
      </trkpt>
      <trkpt lat="49.39247" lon="-0.98951">
        <ele>33.1</ele>
        <time>2020-06-16T14:30:22Z</time>
      </trkpt>
      <trkpt lat="49.39247" lon="-0.98947">
        <ele>33</ele>
        <time>2020-06-16T14:30:23Z</time>
      </trkpt>
      <trkpt lat="49.39248" lon="-0.98942">
        <ele>33</ele>
        <time>2020-06-16T14:30:24Z</time>
      </trkpt>
      <trkpt lat="49.39248" lon="-0.98938">
        <ele>33</ele>
        <time>2020-06-16T14:30:25Z</time>
      </trkpt>
      <trkpt lat="49.39249" lon="-0.98932">
        <ele>33</ele>
        <time>2020-06-16T14:30:26Z</time>
      </trkpt>
      <trkpt lat="49.39249" lon="-0.98926">
        <ele>33</ele>
        <time>2020-06-16T14:30:27Z</time>
      </trkpt>
      <trkpt lat="49.39249" lon="-0.9892">
        <ele>33</ele>
        <time>2020-06-16T14:30:28Z</time>
      </trkpt>
      <trkpt lat="49.39249" lon="-0.98913">
        <ele>33</ele>
        <time>2020-06-16T14:30:29Z</time>
      </trkpt>
      <trkpt lat="49.3925" lon="-0.98907">
        <ele>33</ele>
        <time>2020-06-16T14:30:30Z</time>
      </trkpt>
      <trkpt lat="49.3925" lon="-0.989">
        <ele>33</ele>
        <time>2020-06-16T14:30:31Z</time>
      </trkpt>
      <trkpt lat="49.39251" lon="-0.98892">
        <ele>32.9</ele>
        <time>2020-06-16T14:30:32Z</time>
      </trkpt>
      <trkpt lat="49.39251" lon="-0.98885">
        <ele>32.9</ele>
        <time>2020-06-16T14:30:33Z</time>
      </trkpt>
      <trkpt lat="49.39251" lon="-0.98877">
        <ele>32.9</ele>
        <time>2020-06-16T14:30:34Z</time>
      </trkpt>
      <trkpt lat="49.39251" lon="-0.98868">
        <ele>32.9</ele>
        <time>2020-06-16T14:30:35Z</time>
      </trkpt>
      <trkpt lat="49.39251" lon="-0.9886">
        <ele>32.9</ele>
        <time>2020-06-16T14:30:36Z</time>
      </trkpt>
      <trkpt lat="49.39251" lon="-0.98853">
        <ele>33</ele>
        <time>2020-06-16T14:30:37Z</time>
      </trkpt>
      <trkpt lat="49.39252" lon="-0.98847">
        <ele>33</ele>
        <time>2020-06-16T14:30:38Z</time>
      </trkpt>
      <trkpt lat="49.39252" lon="-0.98841">
        <ele>33</ele>
        <time>2020-06-16T14:30:39Z</time>
      </trkpt>
      <trkpt lat="49.39252" lon="-0.98834">
        <ele>33</ele>
        <time>2020-06-16T14:30:40Z</time>
      </trkpt>
      <trkpt lat="49.39252" lon="-0.98827">
        <ele>33.1</ele>
        <time>2020-06-16T14:30:41Z</time>
      </trkpt>
      <trkpt lat="49.39251" lon="-0.9882">
        <ele>33.1</ele>
        <time>2020-06-16T14:30:42Z</time>
      </trkpt>
      <trkpt lat="49.39251" lon="-0.98813">
        <ele>33.1</ele>
        <time>2020-06-16T14:30:43Z</time>
      </trkpt>
      <trkpt lat="49.39251" lon="-0.98805">
        <ele>33.2</ele>
        <time>2020-06-16T14:30:44Z</time>
      </trkpt>
      <trkpt lat="49.39251" lon="-0.98797">
        <ele>33.3</ele>
        <time>2020-06-16T14:30:45Z</time>
      </trkpt>
      <trkpt lat="49.39251" lon="-0.98789">
        <ele>33.3</ele>
        <time>2020-06-16T14:30:46Z</time>
      </trkpt>
      <trkpt lat="49.39251" lon="-0.98782">
        <ele>33.4</ele>
        <time>2020-06-16T14:30:47Z</time>
      </trkpt>
      <trkpt lat="49.3925" lon="-0.98776">
        <ele>33.4</ele>
        <time>2020-06-16T14:30:48Z</time>
      </trkpt>
      <trkpt lat="49.3925" lon="-0.9877">
        <ele>33.5</ele>
        <time>2020-06-16T14:30:49Z</time>
      </trkpt>
      <trkpt lat="49.39249" lon="-0.98765">
        <ele>33.5</ele>
        <time>2020-06-16T14:30:50Z</time>
      </trkpt>
      <trkpt lat="49.39249" lon="-0.98759">
        <ele>33.6</ele>
        <time>2020-06-16T14:30:51Z</time>
      </trkpt>
      <trkpt lat="49.3925" lon="-0.98754">
        <ele>33.6</ele>
        <time>2020-06-16T14:30:52Z</time>
      </trkpt>
      <trkpt lat="49.3925" lon="-0.98749">
        <ele>33.7</ele>
        <time>2020-06-16T14:30:53Z</time>
      </trkpt>
      <trkpt lat="49.3925" lon="-0.98744">
        <ele>33.7</ele>
        <time>2020-06-16T14:30:54Z</time>
      </trkpt>
      <trkpt lat="49.39251" lon="-0.98738">
        <ele>33.8</ele>
        <time>2020-06-16T14:30:55Z</time>
      </trkpt>
      <trkpt lat="49.39251" lon="-0.98736">
        <ele>33.8</ele>
        <time>2020-06-16T14:30:56Z</time>
      </trkpt>
      <trkpt lat="49.39255" lon="-0.98734">
        <ele>33.9</ele>
        <time>2020-06-16T14:30:57Z</time>
      </trkpt>
      <trkpt lat="49.39257" lon="-0.98734">
        <ele>33.9</ele>
        <time>2020-06-16T14:30:58Z</time>
      </trkpt>
      <trkpt lat="49.3926" lon="-0.98735">
        <ele>34</ele>
        <time>2020-06-16T14:30:59Z</time>
      </trkpt>
      <trkpt lat="49.39263" lon="-0.98737">
        <ele>34</ele>
        <time>2020-06-16T14:31:00Z</time>
      </trkpt>
      <trkpt lat="49.39264" lon="-0.98738">
        <ele>34.1</ele>
        <time>2020-06-16T14:31:01Z</time>
      </trkpt>
      <trkpt lat="49.39266" lon="-0.9874">
        <ele>34</ele>
        <time>2020-06-16T14:31:02Z</time>
      </trkpt>
      <trkpt lat="49.39268" lon="-0.9874">
        <ele>34</ele>
        <time>2020-06-16T14:31:03Z</time>
      </trkpt>
      <trkpt lat="49.39269" lon="-0.98738">
        <ele>34</ele>
        <time>2020-06-16T14:31:04Z</time>
      </trkpt>
      <trkpt lat="49.39271" lon="-0.98737">
        <ele>34</ele>
        <time>2020-06-16T14:31:05Z</time>
      </trkpt>
      <trkpt lat="49.39272" lon="-0.98737">
        <ele>33.9</ele>
        <time>2020-06-16T14:31:06Z</time>
      </trkpt>
      <trkpt lat="49.39274" lon="-0.98738">
        <ele>33.9</ele>
        <time>2020-06-16T14:31:07Z</time>
      </trkpt>
      <trkpt lat="49.39275" lon="-0.98739">
        <ele>33.9</ele>
        <time>2020-06-16T14:31:08Z</time>
      </trkpt>
      <trkpt lat="49.39277" lon="-0.98741">
        <ele>33.9</ele>
        <time>2020-06-16T14:31:09Z</time>
      </trkpt>
      <trkpt lat="49.3928" lon="-0.98741">
        <ele>33.8</ele>
        <time>2020-06-16T14:31:10Z</time>
      </trkpt>
      <trkpt lat="49.39284" lon="-0.9874">
        <ele>33.8</ele>
        <time>2020-06-16T14:31:11Z</time>
      </trkpt>
      <trkpt lat="49.39287" lon="-0.98738">
        <ele>33.7</ele>
        <time>2020-06-16T14:31:12Z</time>
      </trkpt>
      <trkpt lat="49.3929" lon="-0.98737">
        <ele>33.7</ele>
        <time>2020-06-16T14:31:13Z</time>
      </trkpt>
      <trkpt lat="49.39293" lon="-0.98736">
        <ele>33.6</ele>
        <time>2020-06-16T14:31:14Z</time>
      </trkpt>
      <trkpt lat="49.39297" lon="-0.98735">
        <ele>33.6</ele>
        <time>2020-06-16T14:31:15Z</time>
      </trkpt>
      <trkpt lat="49.39299" lon="-0.98735">
        <ele>33.6</ele>
        <time>2020-06-16T14:31:16Z</time>
      </trkpt>
      <trkpt lat="49.39303" lon="-0.98734">
        <ele>33.5</ele>
        <time>2020-06-16T14:31:17Z</time>
      </trkpt>
      <trkpt lat="49.39304" lon="-0.98734">
        <ele>33.5</ele>
        <time>2020-06-16T14:31:18Z</time>
      </trkpt>
      <trkpt lat="49.39305" lon="-0.98733">
        <ele>33.5</ele>
        <time>2020-06-16T14:31:19Z</time>
      </trkpt>
      <trkpt lat="49.39307" lon="-0.98733">
        <ele>33.4</ele>
        <time>2020-06-16T14:31:20Z</time>
      </trkpt>
      <trkpt lat="49.3931" lon="-0.98732">
        <ele>33.4</ele>
        <time>2020-06-16T14:31:21Z</time>
      </trkpt>
      <trkpt lat="49.39311" lon="-0.98732">
        <ele>33.4</ele>
        <time>2020-06-16T14:31:22Z</time>
      </trkpt>
      <trkpt lat="49.39313" lon="-0.98731">
        <ele>33.4</ele>
        <time>2020-06-16T14:31:23Z</time>
      </trkpt>
      <trkpt lat="49.39314" lon="-0.98731">
        <ele>33.3</ele>
        <time>2020-06-16T14:31:24Z</time>
      </trkpt>
      <trkpt lat="49.39315" lon="-0.9873">
        <ele>33.3</ele>
        <time>2020-06-16T14:31:25Z</time>
      </trkpt>
      <trkpt lat="49.39316" lon="-0.98729">
        <ele>33.3</ele>
        <time>2020-06-16T14:31:26Z</time>
      </trkpt>
      <trkpt lat="49.39317" lon="-0.98727">
        <ele>33.3</ele>
        <time>2020-06-16T14:31:27Z</time>
      </trkpt>
      <trkpt lat="49.39317" lon="-0.98727">
        <ele>33.3</ele>
        <time>2020-06-16T14:31:28Z</time>
      </trkpt>
      <trkpt lat="49.39318" lon="-0.98724">
        <ele>33.3</ele>
        <time>2020-06-16T14:31:29Z</time>
      </trkpt>
      <trkpt lat="49.39318" lon="-0.98722">
        <ele>33.3</ele>
        <time>2020-06-16T14:31:30Z</time>
      </trkpt>
      <trkpt lat="49.39318" lon="-0.98721">
        <ele>33.3</ele>
        <time>2020-06-16T14:31:31Z</time>
      </trkpt>
      <trkpt lat="49.39318" lon="-0.98719">
        <ele>33.3</ele>
        <time>2020-06-16T14:31:32Z</time>
      </trkpt>
      <trkpt lat="49.39319" lon="-0.98717">
        <ele>33.2</ele>
        <time>2020-06-16T14:31:33Z</time>
      </trkpt>
      <trkpt lat="49.39319" lon="-0.98716">
        <ele>33.2</ele>
        <time>2020-06-16T14:31:34Z</time>
      </trkpt>
      <trkpt lat="49.39319" lon="-0.98715">
        <ele>33.2</ele>
        <time>2020-06-16T14:31:35Z</time>
      </trkpt>
      <trkpt lat="49.3932" lon="-0.98716">
        <ele>33.2</ele>
        <time>2020-06-16T14:31:36Z</time>
      </trkpt>
      <trkpt lat="49.3932" lon="-0.98716">
        <ele>33.2</ele>
        <time>2020-06-16T14:31:37Z</time>
      </trkpt>
      <trkpt lat="49.39321" lon="-0.98716">
        <ele>33.2</ele>
        <time>2020-06-16T14:31:38Z</time>
      </trkpt>
      <trkpt lat="49.39321" lon="-0.98716">
        <ele>33.2</ele>
        <time>2020-06-16T14:31:39Z</time>
      </trkpt>
      <trkpt lat="49.39321" lon="-0.98716">
        <ele>33.2</ele>
        <time>2020-06-16T14:31:40Z</time>
      </trkpt>
      <trkpt lat="49.39321" lon="-0.98716">
        <ele>33.2</ele>
        <time>2020-06-16T14:31:41Z</time>
      </trkpt>
      <trkpt lat="49.39321" lon="-0.98716">
        <ele>33.2</ele>
        <time>2020-06-16T14:31:42Z</time>
      </trkpt>
      <trkpt lat="49.39321" lon="-0.98716">
        <ele>33.1</ele>
        <time>2020-06-16T14:31:43Z</time>
      </trkpt>
      <trkpt lat="49.39321" lon="-0.98716">
        <ele>33.1</ele>
        <time>2020-06-16T14:31:44Z</time>
      </trkpt>
      <trkpt lat="49.39325" lon="-0.98711">
        <ele>33.1</ele>
        <time>2020-06-16T14:31:54Z</time>
      </trkpt>
      <trkpt lat="49.39326" lon="-0.98711">
        <ele>33.1</ele>
        <time>2020-06-16T14:31:55Z</time>
      </trkpt>
      <trkpt lat="49.39326" lon="-0.9871">
        <ele>33.1</ele>
        <time>2020-06-16T14:31:56Z</time>
      </trkpt>
      <trkpt lat="49.39327" lon="-0.9871">
        <ele>33.1</ele>
        <time>2020-06-16T14:31:57Z</time>
      </trkpt>
      <trkpt lat="49.39327" lon="-0.9871">
        <ele>33.1</ele>
        <time>2020-06-16T14:31:58Z</time>
      </trkpt>
      <trkpt lat="49.39327" lon="-0.98709">
        <ele>33.1</ele>
        <time>2020-06-16T14:31:59Z</time>
      </trkpt>
      <trkpt lat="49.39328" lon="-0.98709">
        <ele>33.1</ele>
        <time>2020-06-16T14:32:00Z</time>
      </trkpt>
      <trkpt lat="49.39328" lon="-0.98708">
        <ele>33.1</ele>
        <time>2020-06-16T14:32:01Z</time>
      </trkpt>
      <trkpt lat="49.39328" lon="-0.98707">
        <ele>33.1</ele>
        <time>2020-06-16T14:32:02Z</time>
      </trkpt>
      <trkpt lat="49.39329" lon="-0.98707">
        <ele>33.1</ele>
        <time>2020-06-16T14:32:03Z</time>
      </trkpt>
      <trkpt lat="49.39329" lon="-0.98707">
        <ele>33.1</ele>
        <time>2020-06-16T14:32:04Z</time>
      </trkpt>
      <trkpt lat="49.39329" lon="-0.98707">
        <ele>33.1</ele>
        <time>2020-06-16T14:32:05Z</time>
      </trkpt>
      <trkpt lat="49.39329" lon="-0.98707">
        <ele>33.1</ele>
        <time>2020-06-16T14:32:06Z</time>
      </trkpt>
      <trkpt lat="49.39329" lon="-0.98707">
        <ele>33.1</ele>
        <time>2020-06-16T14:32:07Z</time>
      </trkpt>
      <trkpt lat="49.3933" lon="-0.98707">
        <ele>33.1</ele>
        <time>2020-06-16T14:32:08Z</time>
      </trkpt>
      <trkpt lat="49.3933" lon="-0.98706">
        <ele>33.1</ele>
        <time>2020-06-16T14:32:09Z</time>
      </trkpt>
      <trkpt lat="49.3933" lon="-0.98706">
        <ele>33.1</ele>
        <time>2020-06-16T14:32:10Z</time>
      </trkpt>
      <trkpt lat="49.3933" lon="-0.98705">
        <ele>33.1</ele>
        <time>2020-06-16T14:32:11Z</time>
      </trkpt>
      <trkpt lat="49.39329" lon="-0.98705">
        <ele>33.1</ele>
        <time>2020-06-16T14:32:12Z</time>
      </trkpt>
      <trkpt lat="49.39329" lon="-0.98705">
        <ele>33.1</ele>
        <time>2020-06-16T14:32:13Z</time>
      </trkpt>
      <trkpt lat="49.39329" lon="-0.98704">
        <ele>33.1</ele>
        <time>2020-06-16T14:32:14Z</time>
      </trkpt>
      <trkpt lat="49.39329" lon="-0.98704">
        <ele>33.1</ele>
        <time>2020-06-16T14:32:15Z</time>
      </trkpt>
      <trkpt lat="49.39329" lon="-0.98703">
        <ele>33.1</ele>
        <time>2020-06-16T14:32:16Z</time>
      </trkpt>
      <trkpt lat="49.39329" lon="-0.98707">
        <ele>33</ele>
        <time>2020-06-16T14:32:17Z</time>
      </trkpt>
      <trkpt lat="49.39329" lon="-0.98708">
        <ele>33</ele>
        <time>2020-06-16T14:32:18Z</time>
      </trkpt>
      <trkpt lat="49.39329" lon="-0.98709">
        <ele>33</ele>
        <time>2020-06-16T14:32:19Z</time>
      </trkpt>
      <trkpt lat="49.39329" lon="-0.98709">
        <ele>33</ele>
        <time>2020-06-16T14:32:20Z</time>
      </trkpt>
      <trkpt lat="49.3933" lon="-0.98711">
        <ele>33</ele>
        <time>2020-06-16T14:32:21Z</time>
      </trkpt>
      <trkpt lat="49.3933" lon="-0.98714">
        <ele>33</ele>
        <time>2020-06-16T14:32:22Z</time>
      </trkpt>
      <trkpt lat="49.3933" lon="-0.98716">
        <ele>33</ele>
        <time>2020-06-16T14:32:23Z</time>
      </trkpt>
      <trkpt lat="49.39331" lon="-0.98717">
        <ele>33</ele>
        <time>2020-06-16T14:32:24Z</time>
      </trkpt>
      <trkpt lat="49.39331" lon="-0.9872">
        <ele>32.9</ele>
        <time>2020-06-16T14:32:25Z</time>
      </trkpt>
      <trkpt lat="49.39331" lon="-0.98721">
        <ele>32.9</ele>
        <time>2020-06-16T14:32:26Z</time>
      </trkpt>
      <trkpt lat="49.39331" lon="-0.98723">
        <ele>32.9</ele>
        <time>2020-06-16T14:32:27Z</time>
      </trkpt>
      <trkpt lat="49.39331" lon="-0.98724">
        <ele>32.9</ele>
        <time>2020-06-16T14:32:28Z</time>
      </trkpt>
      <trkpt lat="49.39331" lon="-0.98725">
        <ele>32.9</ele>
        <time>2020-06-16T14:32:29Z</time>
      </trkpt>
      <trkpt lat="49.39331" lon="-0.98726">
        <ele>32.9</ele>
        <time>2020-06-16T14:32:30Z</time>
      </trkpt>
      <trkpt lat="49.3933" lon="-0.98725">
        <ele>32.9</ele>
        <time>2020-06-16T14:32:31Z</time>
      </trkpt>
      <trkpt lat="49.39329" lon="-0.98725">
        <ele>32.9</ele>
        <time>2020-06-16T14:32:32Z</time>
      </trkpt>
      <trkpt lat="49.39328" lon="-0.98725">
        <ele>32.9</ele>
        <time>2020-06-16T14:32:33Z</time>
      </trkpt>
      <trkpt lat="49.39327" lon="-0.98725">
        <ele>32.9</ele>
        <time>2020-06-16T14:32:34Z</time>
      </trkpt>
      <trkpt lat="49.39325" lon="-0.98724">
        <ele>32.9</ele>
        <time>2020-06-16T14:32:35Z</time>
      </trkpt>
      <trkpt lat="49.39325" lon="-0.98723">
        <ele>32.9</ele>
        <time>2020-06-16T14:32:36Z</time>
      </trkpt>
      <trkpt lat="49.39324" lon="-0.98721">
        <ele>32.9</ele>
        <time>2020-06-16T14:32:37Z</time>
      </trkpt>
      <trkpt lat="49.39324" lon="-0.98722">
        <ele>32.9</ele>
        <time>2020-06-16T14:32:38Z</time>
      </trkpt>
      <trkpt lat="49.39324" lon="-0.98722">
        <ele>32.9</ele>
        <time>2020-06-16T14:32:39Z</time>
      </trkpt>
      <trkpt lat="49.39323" lon="-0.98721">
        <ele>32.9</ele>
        <time>2020-06-16T14:32:40Z</time>
      </trkpt>
      <trkpt lat="49.39323" lon="-0.9872">
        <ele>32.9</ele>
        <time>2020-06-16T14:32:41Z</time>
      </trkpt>
      <trkpt lat="49.39323" lon="-0.9872">
        <ele>32.9</ele>
        <time>2020-06-16T14:32:42Z</time>
      </trkpt>
      <trkpt lat="49.39323" lon="-0.98721">
        <ele>32.9</ele>
        <time>2020-06-16T14:32:43Z</time>
      </trkpt>
      <trkpt lat="49.39323" lon="-0.9872">
        <ele>32.9</ele>
        <time>2020-06-16T14:32:44Z</time>
      </trkpt>
      <trkpt lat="49.39323" lon="-0.9872">
        <ele>32.9</ele>
        <time>2020-06-16T14:32:45Z</time>
      </trkpt>
      <trkpt lat="49.39323" lon="-0.9872">
        <ele>32.9</ele>
        <time>2020-06-16T14:32:46Z</time>
      </trkpt>
      <trkpt lat="49.39322" lon="-0.98719">
        <ele>32.9</ele>
        <time>2020-06-16T14:32:47Z</time>
      </trkpt>
      <trkpt lat="49.39322" lon="-0.98719">
        <ele>32.9</ele>
        <time>2020-06-16T14:32:48Z</time>
      </trkpt>
      <trkpt lat="49.39322" lon="-0.98719">
        <ele>32.9</ele>
        <time>2020-06-16T14:32:49Z</time>
      </trkpt>
      <trkpt lat="49.39322" lon="-0.98719">
        <ele>32.9</ele>
        <time>2020-06-16T14:32:50Z</time>
      </trkpt>
      <trkpt lat="49.39321" lon="-0.98715">
        <ele>32.9</ele>
        <time>2020-06-16T14:34:06Z</time>
      </trkpt>
      <trkpt lat="49.39322" lon="-0.98715">
        <ele>32.9</ele>
        <time>2020-06-16T14:34:07Z</time>
      </trkpt>
      <trkpt lat="49.39322" lon="-0.98715">
        <ele>32.9</ele>
        <time>2020-06-16T14:34:08Z</time>
      </trkpt>
      <trkpt lat="49.39322" lon="-0.98715">
        <ele>32.9</ele>
        <time>2020-06-16T14:34:09Z</time>
      </trkpt>
      <trkpt lat="49.39322" lon="-0.98715">
        <ele>32.9</ele>
        <time>2020-06-16T14:34:10Z</time>
      </trkpt>
      <trkpt lat="49.39322" lon="-0.98715">
        <ele>32.9</ele>
        <time>2020-06-16T14:34:11Z</time>
      </trkpt>
      <trkpt lat="49.39322" lon="-0.98715">
        <ele>32.9</ele>
        <time>2020-06-16T14:34:12Z</time>
      </trkpt>
      <trkpt lat="49.39322" lon="-0.98715">
        <ele>32.9</ele>
        <time>2020-06-16T14:34:13Z</time>
      </trkpt>
      <trkpt lat="49.39322" lon="-0.98715">
        <ele>32.9</ele>
        <time>2020-06-16T14:34:14Z</time>
      </trkpt>
      <trkpt lat="49.39322" lon="-0.98715">
        <ele>32.9</ele>
        <time>2020-06-16T14:34:15Z</time>
      </trkpt>
      <trkpt lat="49.39322" lon="-0.98715">
        <ele>32.9</ele>
        <time>2020-06-16T14:34:16Z</time>
      </trkpt>
      <trkpt lat="49.39322" lon="-0.98715">
        <ele>32.9</ele>
        <time>2020-06-16T14:34:17Z</time>
      </trkpt>
      <trkpt lat="49.39322" lon="-0.98715">
        <ele>32.9</ele>
        <time>2020-06-16T14:34:18Z</time>
      </trkpt>
      <trkpt lat="49.39316" lon="-0.98713">
        <ele>32.9</ele>
        <time>2020-06-16T14:34:45Z</time>
      </trkpt>
      <trkpt lat="49.39315" lon="-0.98714">
        <ele>32.9</ele>
        <time>2020-06-16T14:34:46Z</time>
      </trkpt>
      <trkpt lat="49.39315" lon="-0.98714">
        <ele>32.9</ele>
        <time>2020-06-16T14:34:47Z</time>
      </trkpt>
      <trkpt lat="49.39314" lon="-0.98714">
        <ele>32.9</ele>
        <time>2020-06-16T14:34:48Z</time>
      </trkpt>
      <trkpt lat="49.39314" lon="-0.98714">
        <ele>32.9</ele>
        <time>2020-06-16T14:34:49Z</time>
      </trkpt>
      <trkpt lat="49.39314" lon="-0.98714">
        <ele>32.9</ele>
        <time>2020-06-16T14:34:50Z</time>
      </trkpt>
      <trkpt lat="49.39314" lon="-0.98715">
        <ele>32.9</ele>
        <time>2020-06-16T14:34:51Z</time>
      </trkpt>
      <trkpt lat="49.39313" lon="-0.98715">
        <ele>32.9</ele>
        <time>2020-06-16T14:34:52Z</time>
      </trkpt>
      <trkpt lat="49.39313" lon="-0.98716">
        <ele>32.9</ele>
        <time>2020-06-16T14:34:53Z</time>
      </trkpt>
      <trkpt lat="49.39313" lon="-0.98715">
        <ele>32.9</ele>
        <time>2020-06-16T14:34:54Z</time>
      </trkpt>
      <trkpt lat="49.39313" lon="-0.98715">
        <ele>32.9</ele>
        <time>2020-06-16T14:34:55Z</time>
      </trkpt>
      <trkpt lat="49.39313" lon="-0.98715">
        <ele>32.9</ele>
        <time>2020-06-16T14:34:56Z</time>
      </trkpt>
      <trkpt lat="49.39312" lon="-0.98715">
        <ele>32.9</ele>
        <time>2020-06-16T14:34:57Z</time>
      </trkpt>
      <trkpt lat="49.39312" lon="-0.98715">
        <ele>32.9</ele>
        <time>2020-06-16T14:34:58Z</time>
      </trkpt>
      <trkpt lat="49.39312" lon="-0.98715">
        <ele>32.9</ele>
        <time>2020-06-16T14:34:59Z</time>
      </trkpt>
      <trkpt lat="49.39312" lon="-0.98715">
        <ele>32.9</ele>
        <time>2020-06-16T14:35:00Z</time>
      </trkpt>
      <trkpt lat="49.39311" lon="-0.98715">
        <ele>32.9</ele>
        <time>2020-06-16T14:35:01Z</time>
      </trkpt>
      <trkpt lat="49.39311" lon="-0.98714">
        <ele>32.9</ele>
        <time>2020-06-16T14:35:02Z</time>
      </trkpt>
      <trkpt lat="49.3931" lon="-0.98714">
        <ele>32.9</ele>
        <time>2020-06-16T14:35:03Z</time>
      </trkpt>
      <trkpt lat="49.3931" lon="-0.98714">
        <ele>32.9</ele>
        <time>2020-06-16T14:35:04Z</time>
      </trkpt>
      <trkpt lat="49.3931" lon="-0.98715">
        <ele>32.9</ele>
        <time>2020-06-16T14:35:05Z</time>
      </trkpt>
      <trkpt lat="49.39309" lon="-0.98716">
        <ele>32.9</ele>
        <time>2020-06-16T14:35:06Z</time>
      </trkpt>
      <trkpt lat="49.39309" lon="-0.98717">
        <ele>32.9</ele>
        <time>2020-06-16T14:35:07Z</time>
      </trkpt>
      <trkpt lat="49.39308" lon="-0.98718">
        <ele>32.9</ele>
        <time>2020-06-16T14:35:10Z</time>
      </trkpt>
      <trkpt lat="49.39309" lon="-0.98719">
        <ele>32.9</ele>
        <time>2020-06-16T14:35:11Z</time>
      </trkpt>
      <trkpt lat="49.39309" lon="-0.98719">
        <ele>32.9</ele>
        <time>2020-06-16T14:35:12Z</time>
      </trkpt>
      <trkpt lat="49.39309" lon="-0.98719">
        <ele>32.9</ele>
        <time>2020-06-16T14:35:13Z</time>
      </trkpt>
      <trkpt lat="49.39309" lon="-0.9872">
        <ele>32.9</ele>
        <time>2020-06-16T14:35:14Z</time>
      </trkpt>
      <trkpt lat="49.39309" lon="-0.9872">
        <ele>32.9</ele>
        <time>2020-06-16T14:35:15Z</time>
      </trkpt>
      <trkpt lat="49.3931" lon="-0.98721">
        <ele>32.9</ele>
        <time>2020-06-16T14:35:16Z</time>
      </trkpt>
      <trkpt lat="49.3931" lon="-0.98721">
        <ele>32.9</ele>
        <time>2020-06-16T14:35:17Z</time>
      </trkpt>
      <trkpt lat="49.3931" lon="-0.98722">
        <ele>32.9</ele>
        <time>2020-06-16T14:35:18Z</time>
      </trkpt>
      <trkpt lat="49.3931" lon="-0.98722">
        <ele>32.9</ele>
        <time>2020-06-16T14:35:19Z</time>
      </trkpt>
      <trkpt lat="49.3931" lon="-0.98723">
        <ele>32.9</ele>
        <time>2020-06-16T14:35:20Z</time>
      </trkpt>
      <trkpt lat="49.3931" lon="-0.98722">
        <ele>32.9</ele>
        <time>2020-06-16T14:35:21Z</time>
      </trkpt>
      <trkpt lat="49.3931" lon="-0.98721">
        <ele>32.9</ele>
        <time>2020-06-16T14:35:22Z</time>
      </trkpt>
      <trkpt lat="49.39309" lon="-0.98722">
        <ele>32.9</ele>
        <time>2020-06-16T14:35:23Z</time>
      </trkpt>
      <trkpt lat="49.39309" lon="-0.98721">
        <ele>32.9</ele>
        <time>2020-06-16T14:35:24Z</time>
      </trkpt>
      <trkpt lat="49.39309" lon="-0.98722">
        <ele>32.9</ele>
        <time>2020-06-16T14:35:25Z</time>
      </trkpt>
      <trkpt lat="49.39309" lon="-0.98722">
        <ele>32.9</ele>
        <time>2020-06-16T14:35:26Z</time>
      </trkpt>
      <trkpt lat="49.39309" lon="-0.98722">
        <ele>32.9</ele>
        <time>2020-06-16T14:35:27Z</time>
      </trkpt>
      <trkpt lat="49.39309" lon="-0.98722">
        <ele>32.9</ele>
        <time>2020-06-16T14:35:28Z</time>
      </trkpt>
      <trkpt lat="49.39309" lon="-0.98722">
        <ele>32.9</ele>
        <time>2020-06-16T14:35:29Z</time>
      </trkpt>
      <trkpt lat="49.39309" lon="-0.98721">
        <ele>32.9</ele>
        <time>2020-06-16T14:35:30Z</time>
      </trkpt>
      <trkpt lat="49.39308" lon="-0.98721">
        <ele>32.9</ele>
        <time>2020-06-16T14:35:31Z</time>
      </trkpt>
      <trkpt lat="49.39308" lon="-0.98721">
        <ele>32.8</ele>
        <time>2020-06-16T14:35:32Z</time>
      </trkpt>
      <trkpt lat="49.39307" lon="-0.9872">
        <ele>32.8</ele>
        <time>2020-06-16T14:35:33Z</time>
      </trkpt>
      <trkpt lat="49.39307" lon="-0.98719">
        <ele>32.8</ele>
        <time>2020-06-16T14:35:34Z</time>
      </trkpt>
      <trkpt lat="49.39307" lon="-0.98718">
        <ele>32.8</ele>
        <time>2020-06-16T14:35:35Z</time>
      </trkpt>
      <trkpt lat="49.39308" lon="-0.98717">
        <ele>32.8</ele>
        <time>2020-06-16T14:35:36Z</time>
      </trkpt>
      <trkpt lat="49.39308" lon="-0.98717">
        <ele>32.8</ele>
        <time>2020-06-16T14:35:37Z</time>
      </trkpt>
      <trkpt lat="49.39308" lon="-0.98716">
        <ele>32.8</ele>
        <time>2020-06-16T14:35:38Z</time>
      </trkpt>
      <trkpt lat="49.39308" lon="-0.98716">
        <ele>32.8</ele>
        <time>2020-06-16T14:35:39Z</time>
      </trkpt>
      <trkpt lat="49.39308" lon="-0.98716">
        <ele>32.8</ele>
        <time>2020-06-16T14:35:40Z</time>
      </trkpt>
      <trkpt lat="49.39308" lon="-0.98717">
        <ele>32.8</ele>
        <time>2020-06-16T14:35:41Z</time>
      </trkpt>
      <trkpt lat="49.39308" lon="-0.98717">
        <ele>32.8</ele>
        <time>2020-06-16T14:35:42Z</time>
      </trkpt>
      <trkpt lat="49.39308" lon="-0.98718">
        <ele>32.8</ele>
        <time>2020-06-16T14:35:43Z</time>
      </trkpt>
      <trkpt lat="49.39308" lon="-0.98717">
        <ele>32.8</ele>
        <time>2020-06-16T14:35:44Z</time>
      </trkpt>
      <trkpt lat="49.39308" lon="-0.98717">
        <ele>32.8</ele>
        <time>2020-06-16T14:35:45Z</time>
      </trkpt>
      <trkpt lat="49.39308" lon="-0.98716">
        <ele>32.8</ele>
        <time>2020-06-16T14:35:46Z</time>
      </trkpt>
      <trkpt lat="49.39308" lon="-0.98716">
        <ele>32.8</ele>
        <time>2020-06-16T14:35:47Z</time>
      </trkpt>
      <trkpt lat="49.39308" lon="-0.98717">
        <ele>32.8</ele>
        <time>2020-06-16T14:35:48Z</time>
      </trkpt>
      <trkpt lat="49.39307" lon="-0.98717">
        <ele>32.8</ele>
        <time>2020-06-16T14:35:49Z</time>
      </trkpt>
      <trkpt lat="49.39307" lon="-0.98718">
        <ele>32.8</ele>
        <time>2020-06-16T14:35:50Z</time>
      </trkpt>
      <trkpt lat="49.39306" lon="-0.98718">
        <ele>32.8</ele>
        <time>2020-06-16T14:35:51Z</time>
      </trkpt>
      <trkpt lat="49.39306" lon="-0.98718">
        <ele>32.8</ele>
        <time>2020-06-16T14:35:52Z</time>
      </trkpt>
      <trkpt lat="49.39307" lon="-0.98718">
        <ele>32.8</ele>
        <time>2020-06-16T14:35:53Z</time>
      </trkpt>
      <trkpt lat="49.39307" lon="-0.98718">
        <ele>32.8</ele>
        <time>2020-06-16T14:35:54Z</time>
      </trkpt>
      <trkpt lat="49.39307" lon="-0.98719">
        <ele>32.8</ele>
        <time>2020-06-16T14:35:55Z</time>
      </trkpt>
      <trkpt lat="49.39306" lon="-0.98719">
        <ele>32.8</ele>
        <time>2020-06-16T14:35:56Z</time>
      </trkpt>
      <trkpt lat="49.39306" lon="-0.9872">
        <ele>32.8</ele>
        <time>2020-06-16T14:35:57Z</time>
      </trkpt>
      <trkpt lat="49.39305" lon="-0.98721">
        <ele>32.8</ele>
        <time>2020-06-16T14:35:58Z</time>
      </trkpt>
      <trkpt lat="49.39306" lon="-0.9872">
        <ele>32.8</ele>
        <time>2020-06-16T14:35:59Z</time>
      </trkpt>
      <trkpt lat="49.39306" lon="-0.9872">
        <ele>32.8</ele>
        <time>2020-06-16T14:36:00Z</time>
      </trkpt>
      <trkpt lat="49.39306" lon="-0.9872">
        <ele>32.8</ele>
        <time>2020-06-16T14:36:01Z</time>
      </trkpt>
      <trkpt lat="49.39306" lon="-0.98721">
        <ele>32.8</ele>
        <time>2020-06-16T14:36:02Z</time>
      </trkpt>
      <trkpt lat="49.39306" lon="-0.98721">
        <ele>32.8</ele>
        <time>2020-06-16T14:36:03Z</time>
      </trkpt>
      <trkpt lat="49.39306" lon="-0.98721">
        <ele>32.8</ele>
        <time>2020-06-16T14:36:04Z</time>
      </trkpt>
      <trkpt lat="49.39306" lon="-0.98721">
        <ele>32.8</ele>
        <time>2020-06-16T14:36:05Z</time>
      </trkpt>
      <trkpt lat="49.39306" lon="-0.98721">
        <ele>32.8</ele>
        <time>2020-06-16T14:36:06Z</time>
      </trkpt>
      <trkpt lat="49.39306" lon="-0.98721">
        <ele>32.8</ele>
        <time>2020-06-16T14:36:07Z</time>
      </trkpt>
      <trkpt lat="49.39306" lon="-0.98721">
        <ele>32.8</ele>
        <time>2020-06-16T14:36:08Z</time>
      </trkpt>
      <trkpt lat="49.39306" lon="-0.9872">
        <ele>32.8</ele>
        <time>2020-06-16T14:36:09Z</time>
      </trkpt>
      <trkpt lat="49.39307" lon="-0.9872">
        <ele>32.8</ele>
        <time>2020-06-16T14:36:10Z</time>
      </trkpt>
      <trkpt lat="49.39307" lon="-0.9872">
        <ele>32.8</ele>
        <time>2020-06-16T14:36:11Z</time>
      </trkpt>
      <trkpt lat="49.39307" lon="-0.9872">
        <ele>32.8</ele>
        <time>2020-06-16T14:36:12Z</time>
      </trkpt>
      <trkpt lat="49.39307" lon="-0.9872">
        <ele>32.8</ele>
        <time>2020-06-16T14:36:13Z</time>
      </trkpt>
      <trkpt lat="49.39307" lon="-0.98719">
        <ele>32.8</ele>
        <time>2020-06-16T14:36:14Z</time>
      </trkpt>
      <trkpt lat="49.39307" lon="-0.98719">
        <ele>32.8</ele>
        <time>2020-06-16T14:36:15Z</time>
      </trkpt>
      <trkpt lat="49.39307" lon="-0.98719">
        <ele>32.8</ele>
        <time>2020-06-16T14:36:16Z</time>
      </trkpt>
      <trkpt lat="49.39307" lon="-0.98719">
        <ele>32.8</ele>
        <time>2020-06-16T14:36:17Z</time>
      </trkpt>
      <trkpt lat="49.39307" lon="-0.98719">
        <ele>32.8</ele>
        <time>2020-06-16T14:36:18Z</time>
      </trkpt>
      <trkpt lat="49.39308" lon="-0.98718">
        <ele>32.8</ele>
        <time>2020-06-16T14:36:19Z</time>
      </trkpt>
      <trkpt lat="49.39309" lon="-0.98717">
        <ele>32.8</ele>
        <time>2020-06-16T14:36:20Z</time>
      </trkpt>
      <trkpt lat="49.39309" lon="-0.98718">
        <ele>32.8</ele>
        <time>2020-06-16T14:36:21Z</time>
      </trkpt>
      <trkpt lat="49.39155" lon="-0.99025">
        <ele>32.9</ele>
        <time>2020-06-16T15:27:16Z</time>
      </trkpt>
      <trkpt lat="49.39149" lon="-0.99032">
        <ele>32.9</ele>
        <time>2020-06-16T15:27:17Z</time>
      </trkpt>
      <trkpt lat="49.39146" lon="-0.99034">
        <ele>32.9</ele>
        <time>2020-06-16T15:27:18Z</time>
      </trkpt>
      <trkpt lat="49.39142" lon="-0.99037">
        <ele>32.9</ele>
        <time>2020-06-16T15:27:19Z</time>
      </trkpt>
      <trkpt lat="49.39138" lon="-0.99039">
        <ele>32.9</ele>
        <time>2020-06-16T15:27:20Z</time>
      </trkpt>
      <trkpt lat="49.39135" lon="-0.99041">
        <ele>32.9</ele>
        <time>2020-06-16T15:27:21Z</time>
      </trkpt>
      <trkpt lat="49.39131" lon="-0.99044">
        <ele>32.9</ele>
        <time>2020-06-16T15:27:22Z</time>
      </trkpt>
      <trkpt lat="49.39126" lon="-0.99044">
        <ele>32.9</ele>
        <time>2020-06-16T15:27:24Z</time>
      </trkpt>
      <trkpt lat="49.39121" lon="-0.99046">
        <ele>32.9</ele>
        <time>2020-06-16T15:27:25Z</time>
      </trkpt>
      <trkpt lat="49.39117" lon="-0.99047">
        <ele>32.9</ele>
        <time>2020-06-16T15:27:26Z</time>
      </trkpt>
      <trkpt lat="49.39114" lon="-0.99049">
        <ele>32.9</ele>
        <time>2020-06-16T15:27:27Z</time>
      </trkpt>
      <trkpt lat="49.39106" lon="-0.99053">
        <ele>32.9</ele>
        <time>2020-06-16T15:27:28Z</time>
      </trkpt>
      <trkpt lat="49.39101" lon="-0.99055">
        <ele>33</ele>
        <time>2020-06-16T15:27:29Z</time>
      </trkpt>
      <trkpt lat="49.39097" lon="-0.99057">
        <ele>33</ele>
        <time>2020-06-16T15:27:30Z</time>
      </trkpt>
      <trkpt lat="49.39091" lon="-0.9906">
        <ele>33</ele>
        <time>2020-06-16T15:27:31Z</time>
      </trkpt>
      <trkpt lat="49.39086" lon="-0.99062">
        <ele>33</ele>
        <time>2020-06-16T15:27:32Z</time>
      </trkpt>
      <trkpt lat="49.39081" lon="-0.99064">
        <ele>33.1</ele>
        <time>2020-06-16T15:27:33Z</time>
      </trkpt>
      <trkpt lat="49.39076" lon="-0.99066">
        <ele>33.1</ele>
        <time>2020-06-16T15:27:34Z</time>
      </trkpt>
      <trkpt lat="49.39071" lon="-0.9907">
        <ele>33.1</ele>
        <time>2020-06-16T15:27:35Z</time>
      </trkpt>
      <trkpt lat="49.39061" lon="-0.99074">
        <ele>33.2</ele>
        <time>2020-06-16T15:27:37Z</time>
      </trkpt>
      <trkpt lat="49.39056" lon="-0.99077">
        <ele>33.2</ele>
        <time>2020-06-16T15:27:38Z</time>
      </trkpt>
      <trkpt lat="49.39051" lon="-0.99079">
        <ele>33.3</ele>
        <time>2020-06-16T15:27:39Z</time>
      </trkpt>
      <trkpt lat="49.39046" lon="-0.99081">
        <ele>33.3</ele>
        <time>2020-06-16T15:27:40Z</time>
      </trkpt>
      <trkpt lat="49.3904" lon="-0.99083">
        <ele>33.3</ele>
        <time>2020-06-16T15:27:41Z</time>
      </trkpt>
      <trkpt lat="49.39035" lon="-0.99085">
        <ele>33.3</ele>
        <time>2020-06-16T15:27:42Z</time>
      </trkpt>
      <trkpt lat="49.39031" lon="-0.99086">
        <ele>33.3</ele>
        <time>2020-06-16T15:27:43Z</time>
      </trkpt>
      <trkpt lat="49.39026" lon="-0.99088">
        <ele>33.4</ele>
        <time>2020-06-16T15:27:44Z</time>
      </trkpt>
      <trkpt lat="49.39021" lon="-0.9909">
        <ele>33.4</ele>
        <time>2020-06-16T15:27:45Z</time>
      </trkpt>
      <trkpt lat="49.39016" lon="-0.99092">
        <ele>33.4</ele>
        <time>2020-06-16T15:27:46Z</time>
      </trkpt>
      <trkpt lat="49.3901" lon="-0.99093">
        <ele>33.5</ele>
        <time>2020-06-16T15:27:47Z</time>
      </trkpt>
      <trkpt lat="49.39006" lon="-0.99094">
        <ele>33.5</ele>
        <time>2020-06-16T15:27:48Z</time>
      </trkpt>
      <trkpt lat="49.39002" lon="-0.99095">
        <ele>33.5</ele>
        <time>2020-06-16T15:27:49Z</time>
      </trkpt>
      <trkpt lat="49.38997" lon="-0.99098">
        <ele>33.5</ele>
        <time>2020-06-16T15:27:50Z</time>
      </trkpt>
      <trkpt lat="49.38993" lon="-0.99099">
        <ele>33.5</ele>
        <time>2020-06-16T15:27:51Z</time>
      </trkpt>
      <trkpt lat="49.38988" lon="-0.99101">
        <ele>33.5</ele>
        <time>2020-06-16T15:27:52Z</time>
      </trkpt>
      <trkpt lat="49.38984" lon="-0.99102">
        <ele>33.4</ele>
        <time>2020-06-16T15:27:53Z</time>
      </trkpt>
      <trkpt lat="49.38978" lon="-0.99104">
        <ele>33.4</ele>
        <time>2020-06-16T15:27:54Z</time>
      </trkpt>
      <trkpt lat="49.38973" lon="-0.99105">
        <ele>33.4</ele>
        <time>2020-06-16T15:27:55Z</time>
      </trkpt>
      <trkpt lat="49.38968" lon="-0.99107">
        <ele>33.4</ele>
        <time>2020-06-16T15:27:56Z</time>
      </trkpt>
      <trkpt lat="49.38964" lon="-0.99108">
        <ele>33.5</ele>
        <time>2020-06-16T15:27:57Z</time>
      </trkpt>
      <trkpt lat="49.38959" lon="-0.99109">
        <ele>33.5</ele>
        <time>2020-06-16T15:27:58Z</time>
      </trkpt>
      <trkpt lat="49.38954" lon="-0.99111">
        <ele>33.5</ele>
        <time>2020-06-16T15:27:59Z</time>
      </trkpt>
      <trkpt lat="49.3895" lon="-0.99113">
        <ele>33.6</ele>
        <time>2020-06-16T15:28:00Z</time>
      </trkpt>
      <trkpt lat="49.38945" lon="-0.99115">
        <ele>33.6</ele>
        <time>2020-06-16T15:28:01Z</time>
      </trkpt>
      <trkpt lat="49.3894" lon="-0.99117">
        <ele>33.7</ele>
        <time>2020-06-16T15:28:02Z</time>
      </trkpt>
      <trkpt lat="49.38935" lon="-0.99119">
        <ele>33.7</ele>
        <time>2020-06-16T15:28:03Z</time>
      </trkpt>
      <trkpt lat="49.3893" lon="-0.99121">
        <ele>33.6</ele>
        <time>2020-06-16T15:28:04Z</time>
      </trkpt>
      <trkpt lat="49.38926" lon="-0.99125">
        <ele>33.5</ele>
        <time>2020-06-16T15:28:05Z</time>
      </trkpt>
      <trkpt lat="49.38922" lon="-0.99129">
        <ele>33.4</ele>
        <time>2020-06-16T15:28:06Z</time>
      </trkpt>
      <trkpt lat="49.38918" lon="-0.99134">
        <ele>33.3</ele>
        <time>2020-06-16T15:28:07Z</time>
      </trkpt>
      <trkpt lat="49.38914" lon="-0.99138">
        <ele>33.3</ele>
        <time>2020-06-16T15:28:08Z</time>
      </trkpt>
      <trkpt lat="49.3891" lon="-0.99142">
        <ele>33.3</ele>
        <time>2020-06-16T15:28:09Z</time>
      </trkpt>
      <trkpt lat="49.38906" lon="-0.99145">
        <ele>33.2</ele>
        <time>2020-06-16T15:28:10Z</time>
      </trkpt>
      <trkpt lat="49.38902" lon="-0.99147">
        <ele>33.2</ele>
        <time>2020-06-16T15:28:11Z</time>
      </trkpt>
      <trkpt lat="49.38899" lon="-0.99146">
        <ele>33.2</ele>
        <time>2020-06-16T15:28:12Z</time>
      </trkpt>
      <trkpt lat="49.38897" lon="-0.99143">
        <ele>33.2</ele>
        <time>2020-06-16T15:28:13Z</time>
      </trkpt>
      <trkpt lat="49.38895" lon="-0.99137">
        <ele>33.2</ele>
        <time>2020-06-16T15:28:14Z</time>
      </trkpt>
      <trkpt lat="49.38894" lon="-0.9913">
        <ele>33.1</ele>
        <time>2020-06-16T15:28:15Z</time>
      </trkpt>
      <trkpt lat="49.38895" lon="-0.99124">
        <ele>33.1</ele>
        <time>2020-06-16T15:28:16Z</time>
      </trkpt>
      <trkpt lat="49.38896" lon="-0.99117">
        <ele>33.2</ele>
        <time>2020-06-16T15:28:17Z</time>
      </trkpt>
      <trkpt lat="49.38897" lon="-0.99109">
        <ele>33.2</ele>
        <time>2020-06-16T15:28:18Z</time>
      </trkpt>
      <trkpt lat="49.38897" lon="-0.99102">
        <ele>33.2</ele>
        <time>2020-06-16T15:28:19Z</time>
      </trkpt>
      <trkpt lat="49.38897" lon="-0.99095">
        <ele>33.2</ele>
        <time>2020-06-16T15:28:20Z</time>
      </trkpt>
      <trkpt lat="49.38898" lon="-0.99088">
        <ele>33.2</ele>
        <time>2020-06-16T15:28:21Z</time>
      </trkpt>
      <trkpt lat="49.38897" lon="-0.99081">
        <ele>33.2</ele>
        <time>2020-06-16T15:28:22Z</time>
      </trkpt>
      <trkpt lat="49.38897" lon="-0.99073">
        <ele>33.2</ele>
        <time>2020-06-16T15:28:23Z</time>
      </trkpt>
      <trkpt lat="49.38896" lon="-0.99065">
        <ele>33.2</ele>
        <time>2020-06-16T15:28:24Z</time>
      </trkpt>
      <trkpt lat="49.38895" lon="-0.99056">
        <ele>33.2</ele>
        <time>2020-06-16T15:28:25Z</time>
      </trkpt>
      <trkpt lat="49.38894" lon="-0.99048">
        <ele>33.3</ele>
        <time>2020-06-16T15:28:26Z</time>
      </trkpt>
      <trkpt lat="49.38893" lon="-0.9904">
        <ele>33.3</ele>
        <time>2020-06-16T15:28:27Z</time>
      </trkpt>
      <trkpt lat="49.38892" lon="-0.99033">
        <ele>33.3</ele>
        <time>2020-06-16T15:28:28Z</time>
      </trkpt>
      <trkpt lat="49.38891" lon="-0.99025">
        <ele>33.3</ele>
        <time>2020-06-16T15:28:29Z</time>
      </trkpt>
      <trkpt lat="49.38891" lon="-0.99016">
        <ele>33.3</ele>
        <time>2020-06-16T15:28:30Z</time>
      </trkpt>
      <trkpt lat="49.38891" lon="-0.99009">
        <ele>33.4</ele>
        <time>2020-06-16T15:28:31Z</time>
      </trkpt>
      <trkpt lat="49.38891" lon="-0.99001">
        <ele>33.4</ele>
        <time>2020-06-16T15:28:32Z</time>
      </trkpt>
      <trkpt lat="49.3889" lon="-0.98994">
        <ele>33.4</ele>
        <time>2020-06-16T15:28:33Z</time>
      </trkpt>
      <trkpt lat="49.38889" lon="-0.98987">
        <ele>33.5</ele>
        <time>2020-06-16T15:28:34Z</time>
      </trkpt>
      <trkpt lat="49.38888" lon="-0.98979">
        <ele>33.5</ele>
        <time>2020-06-16T15:28:35Z</time>
      </trkpt>
      <trkpt lat="49.38887" lon="-0.98973">
        <ele>33.5</ele>
        <time>2020-06-16T15:28:36Z</time>
      </trkpt>
      <trkpt lat="49.38887" lon="-0.98967">
        <ele>33.6</ele>
        <time>2020-06-16T15:28:37Z</time>
      </trkpt>
      <trkpt lat="49.38887" lon="-0.98959">
        <ele>33.6</ele>
        <time>2020-06-16T15:28:38Z</time>
      </trkpt>
      <trkpt lat="49.38886" lon="-0.98951">
        <ele>33.7</ele>
        <time>2020-06-16T15:28:39Z</time>
      </trkpt>
      <trkpt lat="49.38886" lon="-0.98942">
        <ele>33.7</ele>
        <time>2020-06-16T15:28:40Z</time>
      </trkpt>
      <trkpt lat="49.38886" lon="-0.98934">
        <ele>33.8</ele>
        <time>2020-06-16T15:28:41Z</time>
      </trkpt>
      <trkpt lat="49.38886" lon="-0.98925">
        <ele>33.8</ele>
        <time>2020-06-16T15:28:42Z</time>
      </trkpt>
      <trkpt lat="49.38886" lon="-0.98917">
        <ele>33.8</ele>
        <time>2020-06-16T15:28:43Z</time>
      </trkpt>
      <trkpt lat="49.38886" lon="-0.98909">
        <ele>33.9</ele>
        <time>2020-06-16T15:28:44Z</time>
      </trkpt>
      <trkpt lat="49.38887" lon="-0.98901">
        <ele>33.9</ele>
        <time>2020-06-16T15:28:45Z</time>
      </trkpt>
      <trkpt lat="49.38887" lon="-0.98893">
        <ele>33.9</ele>
        <time>2020-06-16T15:28:46Z</time>
      </trkpt>
      <trkpt lat="49.38886" lon="-0.98886">
        <ele>33.9</ele>
        <time>2020-06-16T15:28:47Z</time>
      </trkpt>
      <trkpt lat="49.38886" lon="-0.98876">
        <ele>34</ele>
        <time>2020-06-16T15:28:48Z</time>
      </trkpt>
      <trkpt lat="49.38885" lon="-0.98868">
        <ele>34</ele>
        <time>2020-06-16T15:28:49Z</time>
      </trkpt>
      <trkpt lat="49.38883" lon="-0.9886">
        <ele>34</ele>
        <time>2020-06-16T15:28:50Z</time>
      </trkpt>
      <trkpt lat="49.38882" lon="-0.98852">
        <ele>34.1</ele>
        <time>2020-06-16T15:28:51Z</time>
      </trkpt>
      <trkpt lat="49.38881" lon="-0.98845">
        <ele>34.1</ele>
        <time>2020-06-16T15:28:52Z</time>
      </trkpt>
      <trkpt lat="49.38879" lon="-0.98838">
        <ele>34.2</ele>
        <time>2020-06-16T15:28:53Z</time>
      </trkpt>
      <trkpt lat="49.38877" lon="-0.98831">
        <ele>34.3</ele>
        <time>2020-06-16T15:28:54Z</time>
      </trkpt>
      <trkpt lat="49.38875" lon="-0.98824">
        <ele>34.3</ele>
        <time>2020-06-16T15:28:55Z</time>
      </trkpt>
      <trkpt lat="49.38873" lon="-0.98816">
        <ele>34.4</ele>
        <time>2020-06-16T15:28:56Z</time>
      </trkpt>
      <trkpt lat="49.38872" lon="-0.98809">
        <ele>34.5</ele>
        <time>2020-06-16T15:28:57Z</time>
      </trkpt>
      <trkpt lat="49.3887" lon="-0.98801">
        <ele>34.5</ele>
        <time>2020-06-16T15:28:58Z</time>
      </trkpt>
      <trkpt lat="49.38869" lon="-0.98794">
        <ele>34.6</ele>
        <time>2020-06-16T15:28:59Z</time>
      </trkpt>
      <trkpt lat="49.38868" lon="-0.98786">
        <ele>34.7</ele>
        <time>2020-06-16T15:29:00Z</time>
      </trkpt>
      <trkpt lat="49.38866" lon="-0.98779">
        <ele>34.7</ele>
        <time>2020-06-16T15:29:01Z</time>
      </trkpt>
      <trkpt lat="49.38865" lon="-0.98771">
        <ele>34.8</ele>
        <time>2020-06-16T15:29:02Z</time>
      </trkpt>
      <trkpt lat="49.38864" lon="-0.98764">
        <ele>34.8</ele>
        <time>2020-06-16T15:29:03Z</time>
      </trkpt>
      <trkpt lat="49.38862" lon="-0.98758">
        <ele>34.9</ele>
        <time>2020-06-16T15:29:04Z</time>
      </trkpt>
      <trkpt lat="49.38861" lon="-0.98751">
        <ele>34.9</ele>
        <time>2020-06-16T15:29:05Z</time>
      </trkpt>
      <trkpt lat="49.38861" lon="-0.98743">
        <ele>35</ele>
        <time>2020-06-16T15:29:06Z</time>
      </trkpt>
      <trkpt lat="49.38859" lon="-0.98736">
        <ele>35</ele>
        <time>2020-06-16T15:29:07Z</time>
      </trkpt>
      <trkpt lat="49.38857" lon="-0.98729">
        <ele>35.1</ele>
        <time>2020-06-16T15:29:08Z</time>
      </trkpt>
      <trkpt lat="49.38856" lon="-0.98722">
        <ele>35.1</ele>
        <time>2020-06-16T15:29:09Z</time>
      </trkpt>
      <trkpt lat="49.38855" lon="-0.98715">
        <ele>35.1</ele>
        <time>2020-06-16T15:29:10Z</time>
      </trkpt>
      <trkpt lat="49.38853" lon="-0.98707">
        <ele>35.2</ele>
        <time>2020-06-16T15:29:11Z</time>
      </trkpt>
      <trkpt lat="49.38852" lon="-0.987">
        <ele>35.2</ele>
        <time>2020-06-16T15:29:12Z</time>
      </trkpt>
      <trkpt lat="49.38851" lon="-0.98693">
        <ele>35.2</ele>
        <time>2020-06-16T15:29:13Z</time>
      </trkpt>
      <trkpt lat="49.38849" lon="-0.98686">
        <ele>35.2</ele>
        <time>2020-06-16T15:29:14Z</time>
      </trkpt>
      <trkpt lat="49.38849" lon="-0.98678">
        <ele>35.3</ele>
        <time>2020-06-16T15:29:15Z</time>
      </trkpt>
      <trkpt lat="49.38848" lon="-0.98669">
        <ele>35.3</ele>
        <time>2020-06-16T15:29:16Z</time>
      </trkpt>
      <trkpt lat="49.38847" lon="-0.98661">
        <ele>35.3</ele>
        <time>2020-06-16T15:29:17Z</time>
      </trkpt>
      <trkpt lat="49.38846" lon="-0.98654">
        <ele>35.3</ele>
        <time>2020-06-16T15:29:18Z</time>
      </trkpt>
      <trkpt lat="49.38845" lon="-0.98648">
        <ele>35.3</ele>
        <time>2020-06-16T15:29:19Z</time>
      </trkpt>
      <trkpt lat="49.38844" lon="-0.98641">
        <ele>35.4</ele>
        <time>2020-06-16T15:29:20Z</time>
      </trkpt>
      <trkpt lat="49.38844" lon="-0.98633">
        <ele>35.4</ele>
        <time>2020-06-16T15:29:21Z</time>
      </trkpt>
      <trkpt lat="49.38843" lon="-0.98625">
        <ele>35.4</ele>
        <time>2020-06-16T15:29:22Z</time>
      </trkpt>
      <trkpt lat="49.38842" lon="-0.98618">
        <ele>35.5</ele>
        <time>2020-06-16T15:29:23Z</time>
      </trkpt>
      <trkpt lat="49.38841" lon="-0.98612">
        <ele>35.5</ele>
        <time>2020-06-16T15:29:24Z</time>
      </trkpt>
      <trkpt lat="49.38839" lon="-0.98604">
        <ele>35.6</ele>
        <time>2020-06-16T15:29:25Z</time>
      </trkpt>
      <trkpt lat="49.38838" lon="-0.98597">
        <ele>35.6</ele>
        <time>2020-06-16T15:29:26Z</time>
      </trkpt>
      <trkpt lat="49.38837" lon="-0.9859">
        <ele>35.6</ele>
        <time>2020-06-16T15:29:27Z</time>
      </trkpt>
      <trkpt lat="49.38836" lon="-0.98582">
        <ele>35.6</ele>
        <time>2020-06-16T15:29:28Z</time>
      </trkpt>
      <trkpt lat="49.38835" lon="-0.98575">
        <ele>35.7</ele>
        <time>2020-06-16T15:29:29Z</time>
      </trkpt>
      <trkpt lat="49.38834" lon="-0.98567">
        <ele>35.7</ele>
        <time>2020-06-16T15:29:30Z</time>
      </trkpt>
      <trkpt lat="49.38832" lon="-0.98559">
        <ele>35.8</ele>
        <time>2020-06-16T15:29:31Z</time>
      </trkpt>
      <trkpt lat="49.38831" lon="-0.98552">
        <ele>35.9</ele>
        <time>2020-06-16T15:29:32Z</time>
      </trkpt>
      <trkpt lat="49.3883" lon="-0.98545">
        <ele>36</ele>
        <time>2020-06-16T15:29:33Z</time>
      </trkpt>
      <trkpt lat="49.38828" lon="-0.98538">
        <ele>36.1</ele>
        <time>2020-06-16T15:29:34Z</time>
      </trkpt>
      <trkpt lat="49.38827" lon="-0.98531">
        <ele>36</ele>
        <time>2020-06-16T15:29:35Z</time>
      </trkpt>
      <trkpt lat="49.38825" lon="-0.98523">
        <ele>36</ele>
        <time>2020-06-16T15:29:36Z</time>
      </trkpt>
      <trkpt lat="49.38823" lon="-0.98517">
        <ele>36</ele>
        <time>2020-06-16T15:29:37Z</time>
      </trkpt>
      <trkpt lat="49.38823" lon="-0.98509">
        <ele>35.9</ele>
        <time>2020-06-16T15:29:38Z</time>
      </trkpt>
      <trkpt lat="49.38822" lon="-0.98501">
        <ele>35.9</ele>
        <time>2020-06-16T15:29:39Z</time>
      </trkpt>
      <trkpt lat="49.38821" lon="-0.98493">
        <ele>35.9</ele>
        <time>2020-06-16T15:29:40Z</time>
      </trkpt>
      <trkpt lat="49.38819" lon="-0.98485">
        <ele>35.9</ele>
        <time>2020-06-16T15:29:41Z</time>
      </trkpt>
      <trkpt lat="49.38819" lon="-0.98477">
        <ele>35.9</ele>
        <time>2020-06-16T15:29:42Z</time>
      </trkpt>
      <trkpt lat="49.38817" lon="-0.98468">
        <ele>35.9</ele>
        <time>2020-06-16T15:29:43Z</time>
      </trkpt>
      <trkpt lat="49.38816" lon="-0.9846">
        <ele>35.9</ele>
        <time>2020-06-16T15:29:44Z</time>
      </trkpt>
      <trkpt lat="49.38815" lon="-0.98452">
        <ele>35.9</ele>
        <time>2020-06-16T15:29:45Z</time>
      </trkpt>
      <trkpt lat="49.38814" lon="-0.98445">
        <ele>35.9</ele>
        <time>2020-06-16T15:29:46Z</time>
      </trkpt>
      <trkpt lat="49.38812" lon="-0.98438">
        <ele>35.9</ele>
        <time>2020-06-16T15:29:47Z</time>
      </trkpt>
      <trkpt lat="49.3881" lon="-0.98431">
        <ele>36</ele>
        <time>2020-06-16T15:29:48Z</time>
      </trkpt>
      <trkpt lat="49.38808" lon="-0.98425">
        <ele>36</ele>
        <time>2020-06-16T15:29:49Z</time>
      </trkpt>
      <trkpt lat="49.38805" lon="-0.98417">
        <ele>36</ele>
        <time>2020-06-16T15:29:50Z</time>
      </trkpt>
      <trkpt lat="49.38803" lon="-0.9841">
        <ele>36</ele>
        <time>2020-06-16T15:29:51Z</time>
      </trkpt>
      <trkpt lat="49.388" lon="-0.98402">
        <ele>36</ele>
        <time>2020-06-16T15:29:52Z</time>
      </trkpt>
      <trkpt lat="49.38798" lon="-0.98395">
        <ele>36</ele>
        <time>2020-06-16T15:29:53Z</time>
      </trkpt>
      <trkpt lat="49.38795" lon="-0.98387">
        <ele>36</ele>
        <time>2020-06-16T15:29:54Z</time>
      </trkpt>
      <trkpt lat="49.38794" lon="-0.98379">
        <ele>36</ele>
        <time>2020-06-16T15:29:55Z</time>
      </trkpt>
      <trkpt lat="49.38793" lon="-0.98371">
        <ele>36</ele>
        <time>2020-06-16T15:29:56Z</time>
      </trkpt>
      <trkpt lat="49.38791" lon="-0.98363">
        <ele>36</ele>
        <time>2020-06-16T15:29:57Z</time>
      </trkpt>
      <trkpt lat="49.38789" lon="-0.98354">
        <ele>36</ele>
        <time>2020-06-16T15:29:58Z</time>
      </trkpt>
      <trkpt lat="49.38787" lon="-0.98347">
        <ele>36</ele>
        <time>2020-06-16T15:29:59Z</time>
      </trkpt>
      <trkpt lat="49.38785" lon="-0.98339">
        <ele>36</ele>
        <time>2020-06-16T15:30:00Z</time>
      </trkpt>
      <trkpt lat="49.38784" lon="-0.98332">
        <ele>36</ele>
        <time>2020-06-16T15:30:01Z</time>
      </trkpt>
      <trkpt lat="49.38784" lon="-0.98324">
        <ele>36</ele>
        <time>2020-06-16T15:30:02Z</time>
      </trkpt>
      <trkpt lat="49.38783" lon="-0.98316">
        <ele>36</ele>
        <time>2020-06-16T15:30:03Z</time>
      </trkpt>
      <trkpt lat="49.38782" lon="-0.98308">
        <ele>36</ele>
        <time>2020-06-16T15:30:04Z</time>
      </trkpt>
      <trkpt lat="49.38782" lon="-0.98302">
        <ele>36</ele>
        <time>2020-06-16T15:30:05Z</time>
      </trkpt>
      <trkpt lat="49.38782" lon="-0.98294">
        <ele>36</ele>
        <time>2020-06-16T15:30:06Z</time>
      </trkpt>
      <trkpt lat="49.38782" lon="-0.98286">
        <ele>36</ele>
        <time>2020-06-16T15:30:07Z</time>
      </trkpt>
      <trkpt lat="49.38782" lon="-0.98279">
        <ele>36.1</ele>
        <time>2020-06-16T15:30:08Z</time>
      </trkpt>
      <trkpt lat="49.38781" lon="-0.98272">
        <ele>36.1</ele>
        <time>2020-06-16T15:30:09Z</time>
      </trkpt>
      <trkpt lat="49.38782" lon="-0.98264">
        <ele>36.1</ele>
        <time>2020-06-16T15:30:10Z</time>
      </trkpt>
      <trkpt lat="49.38782" lon="-0.98255">
        <ele>36.1</ele>
        <time>2020-06-16T15:30:11Z</time>
      </trkpt>
      <trkpt lat="49.38782" lon="-0.98246">
        <ele>36.1</ele>
        <time>2020-06-16T15:30:12Z</time>
      </trkpt>
      <trkpt lat="49.38781" lon="-0.98237">
        <ele>36.1</ele>
        <time>2020-06-16T15:30:13Z</time>
      </trkpt>
      <trkpt lat="49.3878" lon="-0.98228">
        <ele>36.1</ele>
        <time>2020-06-16T15:30:14Z</time>
      </trkpt>
      <trkpt lat="49.38779" lon="-0.98219">
        <ele>36.1</ele>
        <time>2020-06-16T15:30:15Z</time>
      </trkpt>
      <trkpt lat="49.38778" lon="-0.9821">
        <ele>36.1</ele>
        <time>2020-06-16T15:30:16Z</time>
      </trkpt>
      <trkpt lat="49.38777" lon="-0.98202">
        <ele>36.1</ele>
        <time>2020-06-16T15:30:17Z</time>
      </trkpt>
      <trkpt lat="49.38776" lon="-0.98194">
        <ele>36.1</ele>
        <time>2020-06-16T15:30:18Z</time>
      </trkpt>
      <trkpt lat="49.38775" lon="-0.98185">
        <ele>36.1</ele>
        <time>2020-06-16T15:30:19Z</time>
      </trkpt>
      <trkpt lat="49.38773" lon="-0.98176">
        <ele>36</ele>
        <time>2020-06-16T15:30:20Z</time>
      </trkpt>
      <trkpt lat="49.38772" lon="-0.98168">
        <ele>36</ele>
        <time>2020-06-16T15:30:21Z</time>
      </trkpt>
      <trkpt lat="49.38772" lon="-0.98159">
        <ele>36</ele>
        <time>2020-06-16T15:30:22Z</time>
      </trkpt>
      <trkpt lat="49.38771" lon="-0.98151">
        <ele>36</ele>
        <time>2020-06-16T15:30:23Z</time>
      </trkpt>
      <trkpt lat="49.3877" lon="-0.98142">
        <ele>36</ele>
        <time>2020-06-16T15:30:24Z</time>
      </trkpt>
      <trkpt lat="49.38769" lon="-0.98133">
        <ele>36</ele>
        <time>2020-06-16T15:30:25Z</time>
      </trkpt>
      <trkpt lat="49.38769" lon="-0.98124">
        <ele>36</ele>
        <time>2020-06-16T15:30:26Z</time>
      </trkpt>
      <trkpt lat="49.38768" lon="-0.98116">
        <ele>36</ele>
        <time>2020-06-16T15:30:27Z</time>
      </trkpt>
      <trkpt lat="49.38766" lon="-0.98108">
        <ele>36.1</ele>
        <time>2020-06-16T15:30:28Z</time>
      </trkpt>
      <trkpt lat="49.38765" lon="-0.98099">
        <ele>36.1</ele>
        <time>2020-06-16T15:30:29Z</time>
      </trkpt>
      <trkpt lat="49.38763" lon="-0.98092">
        <ele>36.1</ele>
        <time>2020-06-16T15:30:30Z</time>
      </trkpt>
      <trkpt lat="49.38762" lon="-0.98083">
        <ele>36.1</ele>
        <time>2020-06-16T15:30:31Z</time>
      </trkpt>
      <trkpt lat="49.3876" lon="-0.98075">
        <ele>36.1</ele>
        <time>2020-06-16T15:30:32Z</time>
      </trkpt>
      <trkpt lat="49.38759" lon="-0.98066">
        <ele>36.1</ele>
        <time>2020-06-16T15:30:33Z</time>
      </trkpt>
      <trkpt lat="49.38758" lon="-0.98056">
        <ele>36.1</ele>
        <time>2020-06-16T15:30:34Z</time>
      </trkpt>
      <trkpt lat="49.38758" lon="-0.98049">
        <ele>36.1</ele>
        <time>2020-06-16T15:30:35Z</time>
      </trkpt>
      <trkpt lat="49.38757" lon="-0.98041">
        <ele>36.1</ele>
        <time>2020-06-16T15:30:36Z</time>
      </trkpt>
      <trkpt lat="49.38756" lon="-0.98033">
        <ele>36.1</ele>
        <time>2020-06-16T15:30:37Z</time>
      </trkpt>
      <trkpt lat="49.38755" lon="-0.98024">
        <ele>36.1</ele>
        <time>2020-06-16T15:30:38Z</time>
      </trkpt>
      <trkpt lat="49.38753" lon="-0.98014">
        <ele>36.1</ele>
        <time>2020-06-16T15:30:39Z</time>
      </trkpt>
      <trkpt lat="49.38752" lon="-0.98004">
        <ele>36.1</ele>
        <time>2020-06-16T15:30:40Z</time>
      </trkpt>
      <trkpt lat="49.38751" lon="-0.97993">
        <ele>36.1</ele>
        <time>2020-06-16T15:30:41Z</time>
      </trkpt>
      <trkpt lat="49.3875" lon="-0.97986">
        <ele>36.1</ele>
        <time>2020-06-16T15:30:42Z</time>
      </trkpt>
      <trkpt lat="49.3875" lon="-0.9798">
        <ele>36.1</ele>
        <time>2020-06-16T15:30:43Z</time>
      </trkpt>
      <trkpt lat="49.3875" lon="-0.97974">
        <ele>36.1</ele>
        <time>2020-06-16T15:30:44Z</time>
      </trkpt>
      <trkpt lat="49.38749" lon="-0.97965">
        <ele>36.1</ele>
        <time>2020-06-16T15:30:45Z</time>
      </trkpt>
      <trkpt lat="49.3875" lon="-0.97959">
        <ele>36.1</ele>
        <time>2020-06-16T15:30:46Z</time>
      </trkpt>
      <trkpt lat="49.3875" lon="-0.97952">
        <ele>36.1</ele>
        <time>2020-06-16T15:30:47Z</time>
      </trkpt>
      <trkpt lat="49.3875" lon="-0.97945">
        <ele>36.2</ele>
        <time>2020-06-16T15:30:48Z</time>
      </trkpt>
      <trkpt lat="49.38751" lon="-0.97938">
        <ele>36.2</ele>
        <time>2020-06-16T15:30:49Z</time>
      </trkpt>
      <trkpt lat="49.3875" lon="-0.97932">
        <ele>36.2</ele>
        <time>2020-06-16T15:30:50Z</time>
      </trkpt>
      <trkpt lat="49.3875" lon="-0.97925">
        <ele>36.2</ele>
        <time>2020-06-16T15:30:51Z</time>
      </trkpt>
      <trkpt lat="49.3875" lon="-0.97917">
        <ele>36.2</ele>
        <time>2020-06-16T15:30:52Z</time>
      </trkpt>
      <trkpt lat="49.3875" lon="-0.97909">
        <ele>36.3</ele>
        <time>2020-06-16T15:30:53Z</time>
      </trkpt>
      <trkpt lat="49.38749" lon="-0.979">
        <ele>36.3</ele>
        <time>2020-06-16T15:30:54Z</time>
      </trkpt>
      <trkpt lat="49.38749" lon="-0.97891">
        <ele>36.4</ele>
        <time>2020-06-16T15:30:55Z</time>
      </trkpt>
      <trkpt lat="49.38748" lon="-0.97882">
        <ele>36.5</ele>
        <time>2020-06-16T15:30:56Z</time>
      </trkpt>
      <trkpt lat="49.38747" lon="-0.97874">
        <ele>36.5</ele>
        <time>2020-06-16T15:30:57Z</time>
      </trkpt>
      <trkpt lat="49.38747" lon="-0.97866">
        <ele>36.4</ele>
        <time>2020-06-16T15:30:58Z</time>
      </trkpt>
      <trkpt lat="49.38746" lon="-0.97857">
        <ele>36.4</ele>
        <time>2020-06-16T15:30:59Z</time>
      </trkpt>
      <trkpt lat="49.38746" lon="-0.97849">
        <ele>36.4</ele>
        <time>2020-06-16T15:31:00Z</time>
      </trkpt>
      <trkpt lat="49.38745" lon="-0.97841">
        <ele>36.4</ele>
        <time>2020-06-16T15:31:01Z</time>
      </trkpt>
      <trkpt lat="49.38744" lon="-0.97833">
        <ele>36.4</ele>
        <time>2020-06-16T15:31:02Z</time>
      </trkpt>
      <trkpt lat="49.38743" lon="-0.97825">
        <ele>36.4</ele>
        <time>2020-06-16T15:31:03Z</time>
      </trkpt>
      <trkpt lat="49.38742" lon="-0.97817">
        <ele>36.4</ele>
        <time>2020-06-16T15:31:04Z</time>
      </trkpt>
      <trkpt lat="49.38741" lon="-0.97809">
        <ele>36.4</ele>
        <time>2020-06-16T15:31:05Z</time>
      </trkpt>
      <trkpt lat="49.3874" lon="-0.97801">
        <ele>36.4</ele>
        <time>2020-06-16T15:31:06Z</time>
      </trkpt>
      <trkpt lat="49.38739" lon="-0.97793">
        <ele>36.4</ele>
        <time>2020-06-16T15:31:07Z</time>
      </trkpt>
      <trkpt lat="49.38738" lon="-0.97785">
        <ele>36.3</ele>
        <time>2020-06-16T15:31:08Z</time>
      </trkpt>
      <trkpt lat="49.38736" lon="-0.97777">
        <ele>36.3</ele>
        <time>2020-06-16T15:31:09Z</time>
      </trkpt>
      <trkpt lat="49.38734" lon="-0.9777">
        <ele>36.3</ele>
        <time>2020-06-16T15:31:10Z</time>
      </trkpt>
      <trkpt lat="49.38733" lon="-0.97762">
        <ele>36.3</ele>
        <time>2020-06-16T15:31:11Z</time>
      </trkpt>
      <trkpt lat="49.38732" lon="-0.97755">
        <ele>36.3</ele>
        <time>2020-06-16T15:31:12Z</time>
      </trkpt>
      <trkpt lat="49.38731" lon="-0.97748">
        <ele>36.3</ele>
        <time>2020-06-16T15:31:13Z</time>
      </trkpt>
      <trkpt lat="49.3873" lon="-0.97742">
        <ele>36.3</ele>
        <time>2020-06-16T15:31:14Z</time>
      </trkpt>
      <trkpt lat="49.3873" lon="-0.97735">
        <ele>36.3</ele>
        <time>2020-06-16T15:31:15Z</time>
      </trkpt>
      <trkpt lat="49.3873" lon="-0.97727">
        <ele>36.3</ele>
        <time>2020-06-16T15:31:16Z</time>
      </trkpt>
      <trkpt lat="49.38729" lon="-0.97719">
        <ele>36.3</ele>
        <time>2020-06-16T15:31:17Z</time>
      </trkpt>
      <trkpt lat="49.38729" lon="-0.97712">
        <ele>36.3</ele>
        <time>2020-06-16T15:31:18Z</time>
      </trkpt>
      <trkpt lat="49.38729" lon="-0.97705">
        <ele>36.2</ele>
        <time>2020-06-16T15:31:19Z</time>
      </trkpt>
      <trkpt lat="49.38728" lon="-0.97699">
        <ele>36.2</ele>
        <time>2020-06-16T15:31:20Z</time>
      </trkpt>
      <trkpt lat="49.38728" lon="-0.97692">
        <ele>36.2</ele>
        <time>2020-06-16T15:31:21Z</time>
      </trkpt>
      <trkpt lat="49.38729" lon="-0.97685">
        <ele>36.2</ele>
        <time>2020-06-16T15:31:22Z</time>
      </trkpt>
      <trkpt lat="49.38729" lon="-0.97678">
        <ele>36.2</ele>
        <time>2020-06-16T15:31:23Z</time>
      </trkpt>
      <trkpt lat="49.38729" lon="-0.9767">
        <ele>36.1</ele>
        <time>2020-06-16T15:31:24Z</time>
      </trkpt>
      <trkpt lat="49.38729" lon="-0.97663">
        <ele>36.1</ele>
        <time>2020-06-16T15:31:25Z</time>
      </trkpt>
      <trkpt lat="49.38729" lon="-0.97656">
        <ele>36.1</ele>
        <time>2020-06-16T15:31:26Z</time>
      </trkpt>
      <trkpt lat="49.3873" lon="-0.97649">
        <ele>36.1</ele>
        <time>2020-06-16T15:31:27Z</time>
      </trkpt>
      <trkpt lat="49.3873" lon="-0.97642">
        <ele>36.1</ele>
        <time>2020-06-16T15:31:28Z</time>
      </trkpt>
      <trkpt lat="49.38731" lon="-0.97635">
        <ele>36.1</ele>
        <time>2020-06-16T15:31:29Z</time>
      </trkpt>
      <trkpt lat="49.38732" lon="-0.97627">
        <ele>36.1</ele>
        <time>2020-06-16T15:31:30Z</time>
      </trkpt>
      <trkpt lat="49.38733" lon="-0.9762">
        <ele>36.1</ele>
        <time>2020-06-16T15:31:31Z</time>
      </trkpt>
      <trkpt lat="49.38734" lon="-0.97612">
        <ele>36.1</ele>
        <time>2020-06-16T15:31:32Z</time>
      </trkpt>
      <trkpt lat="49.38734" lon="-0.97605">
        <ele>36.1</ele>
        <time>2020-06-16T15:31:33Z</time>
      </trkpt>
      <trkpt lat="49.38734" lon="-0.97599">
        <ele>36.1</ele>
        <time>2020-06-16T15:31:34Z</time>
      </trkpt>
      <trkpt lat="49.38734" lon="-0.97593">
        <ele>36.1</ele>
        <time>2020-06-16T15:31:35Z</time>
      </trkpt>
      <trkpt lat="49.38734" lon="-0.97586">
        <ele>36.1</ele>
        <time>2020-06-16T15:31:36Z</time>
      </trkpt>
      <trkpt lat="49.38735" lon="-0.97579">
        <ele>36.2</ele>
        <time>2020-06-16T15:31:37Z</time>
      </trkpt>
      <trkpt lat="49.38735" lon="-0.97572">
        <ele>36.2</ele>
        <time>2020-06-16T15:31:38Z</time>
      </trkpt>
      <trkpt lat="49.38735" lon="-0.97566">
        <ele>36.2</ele>
        <time>2020-06-16T15:31:39Z</time>
      </trkpt>
      <trkpt lat="49.38735" lon="-0.97559">
        <ele>36.2</ele>
        <time>2020-06-16T15:31:40Z</time>
      </trkpt>
      <trkpt lat="49.38735" lon="-0.97552">
        <ele>36.3</ele>
        <time>2020-06-16T15:31:41Z</time>
      </trkpt>
      <trkpt lat="49.38736" lon="-0.97546">
        <ele>36.3</ele>
        <time>2020-06-16T15:31:42Z</time>
      </trkpt>
      <trkpt lat="49.38736" lon="-0.97538">
        <ele>36.3</ele>
        <time>2020-06-16T15:31:43Z</time>
      </trkpt>
      <trkpt lat="49.38736" lon="-0.97532">
        <ele>36.3</ele>
        <time>2020-06-16T15:31:44Z</time>
      </trkpt>
      <trkpt lat="49.38735" lon="-0.97525">
        <ele>36.3</ele>
        <time>2020-06-16T15:31:45Z</time>
      </trkpt>
      <trkpt lat="49.38735" lon="-0.97517">
        <ele>36.2</ele>
        <time>2020-06-16T15:31:46Z</time>
      </trkpt>
      <trkpt lat="49.38735" lon="-0.9751">
        <ele>36.2</ele>
        <time>2020-06-16T15:31:47Z</time>
      </trkpt>
      <trkpt lat="49.38735" lon="-0.97502">
        <ele>36.2</ele>
        <time>2020-06-16T15:31:48Z</time>
      </trkpt>
      <trkpt lat="49.38736" lon="-0.97493">
        <ele>36.1</ele>
        <time>2020-06-16T15:31:49Z</time>
      </trkpt>
      <trkpt lat="49.38736" lon="-0.97486">
        <ele>36.1</ele>
        <time>2020-06-16T15:31:50Z</time>
      </trkpt>
      <trkpt lat="49.38737" lon="-0.97478">
        <ele>36</ele>
        <time>2020-06-16T15:31:51Z</time>
      </trkpt>
      <trkpt lat="49.38737" lon="-0.97471">
        <ele>36</ele>
        <time>2020-06-16T15:31:52Z</time>
      </trkpt>
      <trkpt lat="49.38737" lon="-0.97463">
        <ele>36</ele>
        <time>2020-06-16T15:31:53Z</time>
      </trkpt>
      <trkpt lat="49.38738" lon="-0.97456">
        <ele>36</ele>
        <time>2020-06-16T15:31:54Z</time>
      </trkpt>
      <trkpt lat="49.38738" lon="-0.97448">
        <ele>36</ele>
        <time>2020-06-16T15:31:55Z</time>
      </trkpt>
      <trkpt lat="49.38739" lon="-0.9744">
        <ele>36</ele>
        <time>2020-06-16T15:31:56Z</time>
      </trkpt>
      <trkpt lat="49.38739" lon="-0.97432">
        <ele>35.9</ele>
        <time>2020-06-16T15:31:57Z</time>
      </trkpt>
      <trkpt lat="49.3874" lon="-0.97425">
        <ele>35.9</ele>
        <time>2020-06-16T15:31:58Z</time>
      </trkpt>
      <trkpt lat="49.3874" lon="-0.97417">
        <ele>35.9</ele>
        <time>2020-06-16T15:31:59Z</time>
      </trkpt>
      <trkpt lat="49.3874" lon="-0.97409">
        <ele>35.9</ele>
        <time>2020-06-16T15:32:00Z</time>
      </trkpt>
      <trkpt lat="49.3874" lon="-0.974">
        <ele>36</ele>
        <time>2020-06-16T15:32:01Z</time>
      </trkpt>
      <trkpt lat="49.3874" lon="-0.97392">
        <ele>36.1</ele>
        <time>2020-06-16T15:32:02Z</time>
      </trkpt>
      <trkpt lat="49.3874" lon="-0.97383">
        <ele>36.1</ele>
        <time>2020-06-16T15:32:03Z</time>
      </trkpt>
      <trkpt lat="49.38741" lon="-0.97375">
        <ele>36.2</ele>
        <time>2020-06-16T15:32:04Z</time>
      </trkpt>
      <trkpt lat="49.38741" lon="-0.97367">
        <ele>36.1</ele>
        <time>2020-06-16T15:32:05Z</time>
      </trkpt>
      <trkpt lat="49.38743" lon="-0.9736">
        <ele>36</ele>
        <time>2020-06-16T15:32:06Z</time>
      </trkpt>
      <trkpt lat="49.38744" lon="-0.97354">
        <ele>36</ele>
        <time>2020-06-16T15:32:07Z</time>
      </trkpt>
      <trkpt lat="49.38745" lon="-0.97348">
        <ele>36</ele>
        <time>2020-06-16T15:32:08Z</time>
      </trkpt>
      <trkpt lat="49.38747" lon="-0.97342">
        <ele>35.9</ele>
        <time>2020-06-16T15:32:09Z</time>
      </trkpt>
      <trkpt lat="49.38749" lon="-0.97335">
        <ele>35.9</ele>
        <time>2020-06-16T15:32:10Z</time>
      </trkpt>
      <trkpt lat="49.3875" lon="-0.97328">
        <ele>35.9</ele>
        <time>2020-06-16T15:32:11Z</time>
      </trkpt>
      <trkpt lat="49.38752" lon="-0.97321">
        <ele>35.9</ele>
        <time>2020-06-16T15:32:12Z</time>
      </trkpt>
      <trkpt lat="49.38754" lon="-0.97313">
        <ele>35.9</ele>
        <time>2020-06-16T15:32:13Z</time>
      </trkpt>
      <trkpt lat="49.38755" lon="-0.97306">
        <ele>35.9</ele>
        <time>2020-06-16T15:32:14Z</time>
      </trkpt>
      <trkpt lat="49.38757" lon="-0.97299">
        <ele>35.9</ele>
        <time>2020-06-16T15:32:15Z</time>
      </trkpt>
      <trkpt lat="49.38758" lon="-0.97292">
        <ele>35.9</ele>
        <time>2020-06-16T15:32:16Z</time>
      </trkpt>
      <trkpt lat="49.3876" lon="-0.97286">
        <ele>35.9</ele>
        <time>2020-06-16T15:32:17Z</time>
      </trkpt>
      <trkpt lat="49.38761" lon="-0.9728">
        <ele>35.9</ele>
        <time>2020-06-16T15:32:18Z</time>
      </trkpt>
      <trkpt lat="49.38763" lon="-0.97273">
        <ele>35.9</ele>
        <time>2020-06-16T15:32:19Z</time>
      </trkpt>
      <trkpt lat="49.38764" lon="-0.97266">
        <ele>35.9</ele>
        <time>2020-06-16T15:32:20Z</time>
      </trkpt>
      <trkpt lat="49.38766" lon="-0.9726">
        <ele>35.9</ele>
        <time>2020-06-16T15:32:21Z</time>
      </trkpt>
      <trkpt lat="49.38768" lon="-0.97253">
        <ele>36</ele>
        <time>2020-06-16T15:32:22Z</time>
      </trkpt>
      <trkpt lat="49.3877" lon="-0.97245">
        <ele>36</ele>
        <time>2020-06-16T15:32:23Z</time>
      </trkpt>
      <trkpt lat="49.38771" lon="-0.97238">
        <ele>36</ele>
        <time>2020-06-16T15:32:24Z</time>
      </trkpt>
      <trkpt lat="49.38773" lon="-0.97231">
        <ele>36</ele>
        <time>2020-06-16T15:32:25Z</time>
      </trkpt>
      <trkpt lat="49.38774" lon="-0.97223">
        <ele>36</ele>
        <time>2020-06-16T15:32:26Z</time>
      </trkpt>
      <trkpt lat="49.38775" lon="-0.97216">
        <ele>36</ele>
        <time>2020-06-16T15:32:27Z</time>
      </trkpt>
      <trkpt lat="49.38775" lon="-0.97209">
        <ele>36</ele>
        <time>2020-06-16T15:32:28Z</time>
      </trkpt>
      <trkpt lat="49.38776" lon="-0.97203">
        <ele>36</ele>
        <time>2020-06-16T15:32:29Z</time>
      </trkpt>
      <trkpt lat="49.38775" lon="-0.97197">
        <ele>36.1</ele>
        <time>2020-06-16T15:32:30Z</time>
      </trkpt>
      <trkpt lat="49.38775" lon="-0.97189">
        <ele>36.1</ele>
        <time>2020-06-16T15:32:31Z</time>
      </trkpt>
      <trkpt lat="49.38775" lon="-0.97182">
        <ele>36.2</ele>
        <time>2020-06-16T15:32:32Z</time>
      </trkpt>
      <trkpt lat="49.38774" lon="-0.97174">
        <ele>36.3</ele>
        <time>2020-06-16T15:32:33Z</time>
      </trkpt>
      <trkpt lat="49.38773" lon="-0.97167">
        <ele>36.4</ele>
        <time>2020-06-16T15:32:34Z</time>
      </trkpt>
      <trkpt lat="49.38772" lon="-0.97159">
        <ele>36.5</ele>
        <time>2020-06-16T15:32:35Z</time>
      </trkpt>
      <trkpt lat="49.38772" lon="-0.97152">
        <ele>36.6</ele>
        <time>2020-06-16T15:32:36Z</time>
      </trkpt>
      <trkpt lat="49.38772" lon="-0.97146">
        <ele>36.6</ele>
        <time>2020-06-16T15:32:37Z</time>
      </trkpt>
      <trkpt lat="49.38772" lon="-0.97139">
        <ele>36.5</ele>
        <time>2020-06-16T15:32:38Z</time>
      </trkpt>
      <trkpt lat="49.38772" lon="-0.97131">
        <ele>36.5</ele>
        <time>2020-06-16T15:32:39Z</time>
      </trkpt>
      <trkpt lat="49.38772" lon="-0.97123">
        <ele>36.5</ele>
        <time>2020-06-16T15:32:40Z</time>
      </trkpt>
      <trkpt lat="49.38773" lon="-0.97116">
        <ele>36.5</ele>
        <time>2020-06-16T15:32:41Z</time>
      </trkpt>
      <trkpt lat="49.38774" lon="-0.9711">
        <ele>36.5</ele>
        <time>2020-06-16T15:32:42Z</time>
      </trkpt>
      <trkpt lat="49.38774" lon="-0.97103">
        <ele>36.5</ele>
        <time>2020-06-16T15:32:43Z</time>
      </trkpt>
      <trkpt lat="49.38775" lon="-0.97096">
        <ele>36.5</ele>
        <time>2020-06-16T15:32:44Z</time>
      </trkpt>
      <trkpt lat="49.38775" lon="-0.97089">
        <ele>36.6</ele>
        <time>2020-06-16T15:32:45Z</time>
      </trkpt>
      <trkpt lat="49.38776" lon="-0.9708">
        <ele>36.6</ele>
        <time>2020-06-16T15:32:46Z</time>
      </trkpt>
      <trkpt lat="49.38777" lon="-0.97073">
        <ele>36.6</ele>
        <time>2020-06-16T15:32:47Z</time>
      </trkpt>
      <trkpt lat="49.38777" lon="-0.97065">
        <ele>36.6</ele>
        <time>2020-06-16T15:32:48Z</time>
      </trkpt>
      <trkpt lat="49.38777" lon="-0.97058">
        <ele>36.7</ele>
        <time>2020-06-16T15:32:49Z</time>
      </trkpt>
      <trkpt lat="49.38778" lon="-0.97051">
        <ele>36.7</ele>
        <time>2020-06-16T15:32:50Z</time>
      </trkpt>
      <trkpt lat="49.38779" lon="-0.97044">
        <ele>36.7</ele>
        <time>2020-06-16T15:32:51Z</time>
      </trkpt>
      <trkpt lat="49.38779" lon="-0.97035">
        <ele>36.8</ele>
        <time>2020-06-16T15:32:52Z</time>
      </trkpt>
      <trkpt lat="49.3878" lon="-0.97027">
        <ele>36.8</ele>
        <time>2020-06-16T15:32:53Z</time>
      </trkpt>
      <trkpt lat="49.38781" lon="-0.9702">
        <ele>36.8</ele>
        <time>2020-06-16T15:32:54Z</time>
      </trkpt>
      <trkpt lat="49.38782" lon="-0.97013">
        <ele>36.9</ele>
        <time>2020-06-16T15:32:55Z</time>
      </trkpt>
      <trkpt lat="49.38783" lon="-0.97006">
        <ele>36.9</ele>
        <time>2020-06-16T15:32:56Z</time>
      </trkpt>
      <trkpt lat="49.38784" lon="-0.96997">
        <ele>36.9</ele>
        <time>2020-06-16T15:32:57Z</time>
      </trkpt>
      <trkpt lat="49.38784" lon="-0.9699">
        <ele>36.9</ele>
        <time>2020-06-16T15:32:58Z</time>
      </trkpt>
      <trkpt lat="49.38786" lon="-0.96982">
        <ele>36.9</ele>
        <time>2020-06-16T15:32:59Z</time>
      </trkpt>
      <trkpt lat="49.38787" lon="-0.96975">
        <ele>36.9</ele>
        <time>2020-06-16T15:33:00Z</time>
      </trkpt>
      <trkpt lat="49.38787" lon="-0.96967">
        <ele>36.9</ele>
        <time>2020-06-16T15:33:01Z</time>
      </trkpt>
      <trkpt lat="49.38788" lon="-0.96958">
        <ele>36.9</ele>
        <time>2020-06-16T15:33:02Z</time>
      </trkpt>
      <trkpt lat="49.38788" lon="-0.9695">
        <ele>36.9</ele>
        <time>2020-06-16T15:33:03Z</time>
      </trkpt>
      <trkpt lat="49.38788" lon="-0.96942">
        <ele>37</ele>
        <time>2020-06-16T15:33:04Z</time>
      </trkpt>
      <trkpt lat="49.38788" lon="-0.96934">
        <ele>37</ele>
        <time>2020-06-16T15:33:05Z</time>
      </trkpt>
      <trkpt lat="49.38788" lon="-0.96927">
        <ele>37</ele>
        <time>2020-06-16T15:33:06Z</time>
      </trkpt>
      <trkpt lat="49.38788" lon="-0.9692">
        <ele>37</ele>
        <time>2020-06-16T15:33:07Z</time>
      </trkpt>
      <trkpt lat="49.38789" lon="-0.96912">
        <ele>37</ele>
        <time>2020-06-16T15:33:08Z</time>
      </trkpt>
      <trkpt lat="49.38789" lon="-0.96903">
        <ele>37.1</ele>
        <time>2020-06-16T15:33:09Z</time>
      </trkpt>
      <trkpt lat="49.3879" lon="-0.96895">
        <ele>37.1</ele>
        <time>2020-06-16T15:33:10Z</time>
      </trkpt>
      <trkpt lat="49.38789" lon="-0.96886">
        <ele>37.1</ele>
        <time>2020-06-16T15:33:11Z</time>
      </trkpt>
      <trkpt lat="49.38789" lon="-0.96878">
        <ele>37.1</ele>
        <time>2020-06-16T15:33:12Z</time>
      </trkpt>
      <trkpt lat="49.3879" lon="-0.96869">
        <ele>37.1</ele>
        <time>2020-06-16T15:33:13Z</time>
      </trkpt>
      <trkpt lat="49.3879" lon="-0.96861">
        <ele>37.1</ele>
        <time>2020-06-16T15:33:14Z</time>
      </trkpt>
      <trkpt lat="49.3879" lon="-0.96851">
        <ele>37.1</ele>
        <time>2020-06-16T15:33:15Z</time>
      </trkpt>
      <trkpt lat="49.38791" lon="-0.96842">
        <ele>37.1</ele>
        <time>2020-06-16T15:33:16Z</time>
      </trkpt>
      <trkpt lat="49.38792" lon="-0.96834">
        <ele>37.1</ele>
        <time>2020-06-16T15:33:17Z</time>
      </trkpt>
      <trkpt lat="49.38793" lon="-0.96825">
        <ele>37.1</ele>
        <time>2020-06-16T15:33:18Z</time>
      </trkpt>
      <trkpt lat="49.38793" lon="-0.96815">
        <ele>37.1</ele>
        <time>2020-06-16T15:33:19Z</time>
      </trkpt>
      <trkpt lat="49.38793" lon="-0.96806">
        <ele>37.1</ele>
        <time>2020-06-16T15:33:20Z</time>
      </trkpt>
      <trkpt lat="49.38793" lon="-0.96796">
        <ele>37.2</ele>
        <time>2020-06-16T15:33:21Z</time>
      </trkpt>
      <trkpt lat="49.38794" lon="-0.96787">
        <ele>37.2</ele>
        <time>2020-06-16T15:33:22Z</time>
      </trkpt>
      <trkpt lat="49.38794" lon="-0.96777">
        <ele>37.2</ele>
        <time>2020-06-16T15:33:23Z</time>
      </trkpt>
      <trkpt lat="49.38794" lon="-0.96768">
        <ele>37.2</ele>
        <time>2020-06-16T15:33:24Z</time>
      </trkpt>
      <trkpt lat="49.38794" lon="-0.96759">
        <ele>37.2</ele>
        <time>2020-06-16T15:33:25Z</time>
      </trkpt>
      <trkpt lat="49.38795" lon="-0.96749">
        <ele>37.2</ele>
        <time>2020-06-16T15:33:26Z</time>
      </trkpt>
      <trkpt lat="49.38796" lon="-0.96739">
        <ele>37.2</ele>
        <time>2020-06-16T15:33:27Z</time>
      </trkpt>
      <trkpt lat="49.38797" lon="-0.96729">
        <ele>37.2</ele>
        <time>2020-06-16T15:33:28Z</time>
      </trkpt>
      <trkpt lat="49.38797" lon="-0.96719">
        <ele>37.3</ele>
        <time>2020-06-16T15:33:29Z</time>
      </trkpt>
      <trkpt lat="49.38798" lon="-0.96709">
        <ele>37.3</ele>
        <time>2020-06-16T15:33:30Z</time>
      </trkpt>
      <trkpt lat="49.38799" lon="-0.96697">
        <ele>37.3</ele>
        <time>2020-06-16T15:33:31Z</time>
      </trkpt>
      <trkpt lat="49.38801" lon="-0.96686">
        <ele>37.3</ele>
        <time>2020-06-16T15:33:32Z</time>
      </trkpt>
      <trkpt lat="49.38801" lon="-0.96675">
        <ele>37.3</ele>
        <time>2020-06-16T15:33:33Z</time>
      </trkpt>
      <trkpt lat="49.38802" lon="-0.96665">
        <ele>37.3</ele>
        <time>2020-06-16T15:33:34Z</time>
      </trkpt>
      <trkpt lat="49.38803" lon="-0.96655">
        <ele>37.3</ele>
        <time>2020-06-16T15:33:35Z</time>
      </trkpt>
      <trkpt lat="49.38803" lon="-0.96645">
        <ele>37.3</ele>
        <time>2020-06-16T15:33:36Z</time>
      </trkpt>
      <trkpt lat="49.38804" lon="-0.96634">
        <ele>37.3</ele>
        <time>2020-06-16T15:33:37Z</time>
      </trkpt>
      <trkpt lat="49.38804" lon="-0.96624">
        <ele>37.3</ele>
        <time>2020-06-16T15:33:38Z</time>
      </trkpt>
      <trkpt lat="49.38805" lon="-0.96615">
        <ele>37.4</ele>
        <time>2020-06-16T15:33:39Z</time>
      </trkpt>
      <trkpt lat="49.38805" lon="-0.96607">
        <ele>37.4</ele>
        <time>2020-06-16T15:33:40Z</time>
      </trkpt>
      <trkpt lat="49.38805" lon="-0.96598">
        <ele>37.4</ele>
        <time>2020-06-16T15:33:41Z</time>
      </trkpt>
      <trkpt lat="49.38805" lon="-0.96589">
        <ele>37.4</ele>
        <time>2020-06-16T15:33:42Z</time>
      </trkpt>
      <trkpt lat="49.38804" lon="-0.9658">
        <ele>37.4</ele>
        <time>2020-06-16T15:33:43Z</time>
      </trkpt>
      <trkpt lat="49.38804" lon="-0.96572">
        <ele>37.4</ele>
        <time>2020-06-16T15:33:44Z</time>
      </trkpt>
      <trkpt lat="49.38803" lon="-0.96565">
        <ele>37.4</ele>
        <time>2020-06-16T15:33:45Z</time>
      </trkpt>
      <trkpt lat="49.38803" lon="-0.96556">
        <ele>37.4</ele>
        <time>2020-06-16T15:33:46Z</time>
      </trkpt>
      <trkpt lat="49.38802" lon="-0.96547">
        <ele>37.4</ele>
        <time>2020-06-16T15:33:47Z</time>
      </trkpt>
      <trkpt lat="49.38803" lon="-0.96538">
        <ele>37.5</ele>
        <time>2020-06-16T15:33:48Z</time>
      </trkpt>
      <trkpt lat="49.38803" lon="-0.96529">
        <ele>37.5</ele>
        <time>2020-06-16T15:33:49Z</time>
      </trkpt>
      <trkpt lat="49.38803" lon="-0.9652">
        <ele>37.5</ele>
        <time>2020-06-16T15:33:50Z</time>
      </trkpt>
      <trkpt lat="49.38802" lon="-0.9651">
        <ele>37.6</ele>
        <time>2020-06-16T15:33:51Z</time>
      </trkpt>
      <trkpt lat="49.38802" lon="-0.96501">
        <ele>37.6</ele>
        <time>2020-06-16T15:33:52Z</time>
      </trkpt>
      <trkpt lat="49.38802" lon="-0.96492">
        <ele>37.6</ele>
        <time>2020-06-16T15:33:53Z</time>
      </trkpt>
      <trkpt lat="49.38802" lon="-0.96483">
        <ele>37.6</ele>
        <time>2020-06-16T15:33:54Z</time>
      </trkpt>
      <trkpt lat="49.38802" lon="-0.96475">
        <ele>37.6</ele>
        <time>2020-06-16T15:33:55Z</time>
      </trkpt>
      <trkpt lat="49.38802" lon="-0.96467">
        <ele>37.6</ele>
        <time>2020-06-16T15:33:56Z</time>
      </trkpt>
      <trkpt lat="49.38802" lon="-0.96458">
        <ele>37.7</ele>
        <time>2020-06-16T15:33:57Z</time>
      </trkpt>
      <trkpt lat="49.38801" lon="-0.96449">
        <ele>37.8</ele>
        <time>2020-06-16T15:33:58Z</time>
      </trkpt>
      <trkpt lat="49.38801" lon="-0.9644">
        <ele>37.8</ele>
        <time>2020-06-16T15:33:59Z</time>
      </trkpt>
      <trkpt lat="49.388" lon="-0.96431">
        <ele>37.9</ele>
        <time>2020-06-16T15:34:00Z</time>
      </trkpt>
      <trkpt lat="49.38799" lon="-0.96421">
        <ele>37.9</ele>
        <time>2020-06-16T15:34:01Z</time>
      </trkpt>
      <trkpt lat="49.38798" lon="-0.96411">
        <ele>37.9</ele>
        <time>2020-06-16T15:34:02Z</time>
      </trkpt>
      <trkpt lat="49.38797" lon="-0.964">
        <ele>37.8</ele>
        <time>2020-06-16T15:34:03Z</time>
      </trkpt>
      <trkpt lat="49.38797" lon="-0.96389">
        <ele>37.8</ele>
        <time>2020-06-16T15:34:04Z</time>
      </trkpt>
      <trkpt lat="49.38796" lon="-0.96378">
        <ele>37.7</ele>
        <time>2020-06-16T15:34:05Z</time>
      </trkpt>
      <trkpt lat="49.38795" lon="-0.96369">
        <ele>37.7</ele>
        <time>2020-06-16T15:34:06Z</time>
      </trkpt>
      <trkpt lat="49.38794" lon="-0.9636">
        <ele>37.7</ele>
        <time>2020-06-16T15:34:07Z</time>
      </trkpt>
      <trkpt lat="49.38793" lon="-0.96351">
        <ele>37.6</ele>
        <time>2020-06-16T15:34:08Z</time>
      </trkpt>
      <trkpt lat="49.38791" lon="-0.96341">
        <ele>37.6</ele>
        <time>2020-06-16T15:34:09Z</time>
      </trkpt>
      <trkpt lat="49.3879" lon="-0.9633">
        <ele>37.5</ele>
        <time>2020-06-16T15:34:10Z</time>
      </trkpt>
      <trkpt lat="49.38788" lon="-0.9632">
        <ele>37.5</ele>
        <time>2020-06-16T15:34:11Z</time>
      </trkpt>
      <trkpt lat="49.38787" lon="-0.96309">
        <ele>37.5</ele>
        <time>2020-06-16T15:34:12Z</time>
      </trkpt>
      <trkpt lat="49.38786" lon="-0.96298">
        <ele>37.5</ele>
        <time>2020-06-16T15:34:13Z</time>
      </trkpt>
      <trkpt lat="49.38786" lon="-0.96287">
        <ele>37.5</ele>
        <time>2020-06-16T15:34:14Z</time>
      </trkpt>
      <trkpt lat="49.38786" lon="-0.96275">
        <ele>37.5</ele>
        <time>2020-06-16T15:34:15Z</time>
      </trkpt>
      <trkpt lat="49.38786" lon="-0.96265">
        <ele>37.5</ele>
        <time>2020-06-16T15:34:16Z</time>
      </trkpt>
      <trkpt lat="49.38785" lon="-0.96254">
        <ele>37.5</ele>
        <time>2020-06-16T15:34:17Z</time>
      </trkpt>
      <trkpt lat="49.38785" lon="-0.96244">
        <ele>37.5</ele>
        <time>2020-06-16T15:34:18Z</time>
      </trkpt>
      <trkpt lat="49.38785" lon="-0.96233">
        <ele>37.4</ele>
        <time>2020-06-16T15:34:19Z</time>
      </trkpt>
      <trkpt lat="49.38784" lon="-0.96224">
        <ele>37.4</ele>
        <time>2020-06-16T15:34:20Z</time>
      </trkpt>
      <trkpt lat="49.38785" lon="-0.96215">
        <ele>37.5</ele>
        <time>2020-06-16T15:34:21Z</time>
      </trkpt>
      <trkpt lat="49.38785" lon="-0.96206">
        <ele>37.5</ele>
        <time>2020-06-16T15:34:22Z</time>
      </trkpt>
      <trkpt lat="49.38785" lon="-0.96198">
        <ele>37.6</ele>
        <time>2020-06-16T15:34:23Z</time>
      </trkpt>
      <trkpt lat="49.38785" lon="-0.96189">
        <ele>37.5</ele>
        <time>2020-06-16T15:34:24Z</time>
      </trkpt>
      <trkpt lat="49.38785" lon="-0.9618">
        <ele>37.5</ele>
        <time>2020-06-16T15:34:25Z</time>
      </trkpt>
      <trkpt lat="49.38785" lon="-0.96172">
        <ele>37.4</ele>
        <time>2020-06-16T15:34:26Z</time>
      </trkpt>
      <trkpt lat="49.38785" lon="-0.96163">
        <ele>37.4</ele>
        <time>2020-06-16T15:34:27Z</time>
      </trkpt>
      <trkpt lat="49.38785" lon="-0.96154">
        <ele>37.4</ele>
        <time>2020-06-16T15:34:28Z</time>
      </trkpt>
      <trkpt lat="49.38785" lon="-0.96146">
        <ele>37.4</ele>
        <time>2020-06-16T15:34:29Z</time>
      </trkpt>
      <trkpt lat="49.38785" lon="-0.96138">
        <ele>37.4</ele>
        <time>2020-06-16T15:34:30Z</time>
      </trkpt>
      <trkpt lat="49.38785" lon="-0.9613">
        <ele>37.4</ele>
        <time>2020-06-16T15:34:31Z</time>
      </trkpt>
      <trkpt lat="49.38785" lon="-0.96121">
        <ele>37.4</ele>
        <time>2020-06-16T15:34:32Z</time>
      </trkpt>
      <trkpt lat="49.38784" lon="-0.96113">
        <ele>37.4</ele>
        <time>2020-06-16T15:34:33Z</time>
      </trkpt>
      <trkpt lat="49.38784" lon="-0.96104">
        <ele>37.4</ele>
        <time>2020-06-16T15:34:34Z</time>
      </trkpt>
      <trkpt lat="49.38784" lon="-0.96096">
        <ele>37.4</ele>
        <time>2020-06-16T15:34:35Z</time>
      </trkpt>
      <trkpt lat="49.38783" lon="-0.96087">
        <ele>37.4</ele>
        <time>2020-06-16T15:34:36Z</time>
      </trkpt>
      <trkpt lat="49.38784" lon="-0.96079">
        <ele>37.4</ele>
        <time>2020-06-16T15:34:37Z</time>
      </trkpt>
      <trkpt lat="49.38783" lon="-0.96071">
        <ele>37.4</ele>
        <time>2020-06-16T15:34:38Z</time>
      </trkpt>
      <trkpt lat="49.38783" lon="-0.96063">
        <ele>37.4</ele>
        <time>2020-06-16T15:34:39Z</time>
      </trkpt>
      <trkpt lat="49.38783" lon="-0.96056">
        <ele>37.4</ele>
        <time>2020-06-16T15:34:40Z</time>
      </trkpt>
      <trkpt lat="49.38783" lon="-0.96047">
        <ele>37.4</ele>
        <time>2020-06-16T15:34:41Z</time>
      </trkpt>
      <trkpt lat="49.38783" lon="-0.96039">
        <ele>37.4</ele>
        <time>2020-06-16T15:34:42Z</time>
      </trkpt>
      <trkpt lat="49.38783" lon="-0.9603">
        <ele>37.4</ele>
        <time>2020-06-16T15:34:43Z</time>
      </trkpt>
      <trkpt lat="49.38783" lon="-0.96022">
        <ele>37.4</ele>
        <time>2020-06-16T15:34:44Z</time>
      </trkpt>
      <trkpt lat="49.38784" lon="-0.96015">
        <ele>37.4</ele>
        <time>2020-06-16T15:34:45Z</time>
      </trkpt>
      <trkpt lat="49.38784" lon="-0.96007">
        <ele>37.4</ele>
        <time>2020-06-16T15:34:46Z</time>
      </trkpt>
      <trkpt lat="49.38784" lon="-0.95998">
        <ele>37.4</ele>
        <time>2020-06-16T15:34:47Z</time>
      </trkpt>
      <trkpt lat="49.38784" lon="-0.9599">
        <ele>37.4</ele>
        <time>2020-06-16T15:34:48Z</time>
      </trkpt>
      <trkpt lat="49.38785" lon="-0.95982">
        <ele>37.4</ele>
        <time>2020-06-16T15:34:49Z</time>
      </trkpt>
      <trkpt lat="49.38786" lon="-0.95974">
        <ele>37.4</ele>
        <time>2020-06-16T15:34:50Z</time>
      </trkpt>
      <trkpt lat="49.38787" lon="-0.95965">
        <ele>37.4</ele>
        <time>2020-06-16T15:34:51Z</time>
      </trkpt>
      <trkpt lat="49.38787" lon="-0.95956">
        <ele>37.4</ele>
        <time>2020-06-16T15:34:52Z</time>
      </trkpt>
      <trkpt lat="49.38788" lon="-0.95947">
        <ele>37.4</ele>
        <time>2020-06-16T15:34:53Z</time>
      </trkpt>
      <trkpt lat="49.38788" lon="-0.95938">
        <ele>37.4</ele>
        <time>2020-06-16T15:34:54Z</time>
      </trkpt>
      <trkpt lat="49.38788" lon="-0.95928">
        <ele>37.3</ele>
        <time>2020-06-16T15:34:55Z</time>
      </trkpt>
      <trkpt lat="49.38788" lon="-0.95919">
        <ele>37.3</ele>
        <time>2020-06-16T15:34:56Z</time>
      </trkpt>
      <trkpt lat="49.38788" lon="-0.95909">
        <ele>37.4</ele>
        <time>2020-06-16T15:34:57Z</time>
      </trkpt>
      <trkpt lat="49.38788" lon="-0.95901">
        <ele>37.4</ele>
        <time>2020-06-16T15:34:58Z</time>
      </trkpt>
      <trkpt lat="49.38789" lon="-0.95892">
        <ele>37.4</ele>
        <time>2020-06-16T15:34:59Z</time>
      </trkpt>
      <trkpt lat="49.38789" lon="-0.95884">
        <ele>37.4</ele>
        <time>2020-06-16T15:35:00Z</time>
      </trkpt>
      <trkpt lat="49.38789" lon="-0.95875">
        <ele>37.4</ele>
        <time>2020-06-16T15:35:01Z</time>
      </trkpt>
      <trkpt lat="49.38789" lon="-0.95866">
        <ele>37.4</ele>
        <time>2020-06-16T15:35:02Z</time>
      </trkpt>
      <trkpt lat="49.38789" lon="-0.95858">
        <ele>37.4</ele>
        <time>2020-06-16T15:35:03Z</time>
      </trkpt>
      <trkpt lat="49.38788" lon="-0.95849">
        <ele>37.4</ele>
        <time>2020-06-16T15:35:04Z</time>
      </trkpt>
      <trkpt lat="49.38788" lon="-0.95842">
        <ele>37.4</ele>
        <time>2020-06-16T15:35:05Z</time>
      </trkpt>
      <trkpt lat="49.38787" lon="-0.95833">
        <ele>37.4</ele>
        <time>2020-06-16T15:35:06Z</time>
      </trkpt>
      <trkpt lat="49.38786" lon="-0.95825">
        <ele>37.4</ele>
        <time>2020-06-16T15:35:07Z</time>
      </trkpt>
      <trkpt lat="49.38786" lon="-0.95816">
        <ele>37.4</ele>
        <time>2020-06-16T15:35:08Z</time>
      </trkpt>
      <trkpt lat="49.38786" lon="-0.95808">
        <ele>37.3</ele>
        <time>2020-06-16T15:35:09Z</time>
      </trkpt>
      <trkpt lat="49.38786" lon="-0.95799">
        <ele>37.3</ele>
        <time>2020-06-16T15:35:10Z</time>
      </trkpt>
      <trkpt lat="49.38787" lon="-0.9579">
        <ele>37.3</ele>
        <time>2020-06-16T15:35:11Z</time>
      </trkpt>
      <trkpt lat="49.38787" lon="-0.95781">
        <ele>37.3</ele>
        <time>2020-06-16T15:35:12Z</time>
      </trkpt>
      <trkpt lat="49.38788" lon="-0.95773">
        <ele>37.3</ele>
        <time>2020-06-16T15:35:13Z</time>
      </trkpt>
      <trkpt lat="49.38787" lon="-0.95765">
        <ele>37.4</ele>
        <time>2020-06-16T15:35:14Z</time>
      </trkpt>
      <trkpt lat="49.38788" lon="-0.95756">
        <ele>37.4</ele>
        <time>2020-06-16T15:35:15Z</time>
      </trkpt>
      <trkpt lat="49.38788" lon="-0.95748">
        <ele>37.4</ele>
        <time>2020-06-16T15:35:16Z</time>
      </trkpt>
      <trkpt lat="49.38788" lon="-0.95739">
        <ele>37.4</ele>
        <time>2020-06-16T15:35:17Z</time>
      </trkpt>
      <trkpt lat="49.38788" lon="-0.95729">
        <ele>37.4</ele>
        <time>2020-06-16T15:35:18Z</time>
      </trkpt>
      <trkpt lat="49.38787" lon="-0.95718">
        <ele>37.4</ele>
        <time>2020-06-16T15:35:19Z</time>
      </trkpt>
      <trkpt lat="49.38787" lon="-0.95708">
        <ele>37.4</ele>
        <time>2020-06-16T15:35:20Z</time>
      </trkpt>
      <trkpt lat="49.38788" lon="-0.95699">
        <ele>37.4</ele>
        <time>2020-06-16T15:35:21Z</time>
      </trkpt>
      <trkpt lat="49.38788" lon="-0.95691">
        <ele>37.4</ele>
        <time>2020-06-16T15:35:22Z</time>
      </trkpt>
      <trkpt lat="49.38788" lon="-0.95683">
        <ele>37.4</ele>
        <time>2020-06-16T15:35:23Z</time>
      </trkpt>
      <trkpt lat="49.38789" lon="-0.95675">
        <ele>37.4</ele>
        <time>2020-06-16T15:35:24Z</time>
      </trkpt>
      <trkpt lat="49.3879" lon="-0.95666">
        <ele>37.4</ele>
        <time>2020-06-16T15:35:25Z</time>
      </trkpt>
      <trkpt lat="49.38791" lon="-0.95658">
        <ele>37.4</ele>
        <time>2020-06-16T15:35:26Z</time>
      </trkpt>
      <trkpt lat="49.38793" lon="-0.9565">
        <ele>37.4</ele>
        <time>2020-06-16T15:35:27Z</time>
      </trkpt>
      <trkpt lat="49.38793" lon="-0.95642">
        <ele>37.4</ele>
        <time>2020-06-16T15:35:28Z</time>
      </trkpt>
      <trkpt lat="49.38794" lon="-0.95634">
        <ele>37.4</ele>
        <time>2020-06-16T15:35:29Z</time>
      </trkpt>
      <trkpt lat="49.38794" lon="-0.95627">
        <ele>37.4</ele>
        <time>2020-06-16T15:35:30Z</time>
      </trkpt>
      <trkpt lat="49.38794" lon="-0.95619">
        <ele>37.4</ele>
        <time>2020-06-16T15:35:31Z</time>
      </trkpt>
      <trkpt lat="49.38794" lon="-0.95611">
        <ele>37.3</ele>
        <time>2020-06-16T15:35:32Z</time>
      </trkpt>
      <trkpt lat="49.38794" lon="-0.95604">
        <ele>37.3</ele>
        <time>2020-06-16T15:35:33Z</time>
      </trkpt>
      <trkpt lat="49.38794" lon="-0.95597">
        <ele>37.3</ele>
        <time>2020-06-16T15:35:34Z</time>
      </trkpt>
      <trkpt lat="49.38794" lon="-0.9559">
        <ele>37.3</ele>
        <time>2020-06-16T15:35:35Z</time>
      </trkpt>
      <trkpt lat="49.38794" lon="-0.95582">
        <ele>37.3</ele>
        <time>2020-06-16T15:35:36Z</time>
      </trkpt>
      <trkpt lat="49.38794" lon="-0.95575">
        <ele>37.4</ele>
        <time>2020-06-16T15:35:37Z</time>
      </trkpt>
      <trkpt lat="49.38794" lon="-0.95568">
        <ele>37.4</ele>
        <time>2020-06-16T15:35:38Z</time>
      </trkpt>
      <trkpt lat="49.38794" lon="-0.95561">
        <ele>37.4</ele>
        <time>2020-06-16T15:35:39Z</time>
      </trkpt>
      <trkpt lat="49.38793" lon="-0.95554">
        <ele>37.4</ele>
        <time>2020-06-16T15:35:40Z</time>
      </trkpt>
      <trkpt lat="49.38792" lon="-0.95546">
        <ele>37.5</ele>
        <time>2020-06-16T15:35:41Z</time>
      </trkpt>
      <trkpt lat="49.38793" lon="-0.95535">
        <ele>37.6</ele>
        <time>2020-06-16T15:35:42Z</time>
      </trkpt>
      <trkpt lat="49.38793" lon="-0.95527">
        <ele>37.6</ele>
        <time>2020-06-16T15:35:43Z</time>
      </trkpt>
      <trkpt lat="49.38794" lon="-0.95519">
        <ele>37.6</ele>
        <time>2020-06-16T15:35:44Z</time>
      </trkpt>
      <trkpt lat="49.38795" lon="-0.95511">
        <ele>37.6</ele>
        <time>2020-06-16T15:35:45Z</time>
      </trkpt>
      <trkpt lat="49.38796" lon="-0.95503">
        <ele>37.6</ele>
        <time>2020-06-16T15:35:46Z</time>
      </trkpt>
      <trkpt lat="49.38795" lon="-0.95494">
        <ele>37.6</ele>
        <time>2020-06-16T15:35:47Z</time>
      </trkpt>
      <trkpt lat="49.38796" lon="-0.95487">
        <ele>37.6</ele>
        <time>2020-06-16T15:35:48Z</time>
      </trkpt>
      <trkpt lat="49.38797" lon="-0.95479">
        <ele>37.6</ele>
        <time>2020-06-16T15:35:49Z</time>
      </trkpt>
      <trkpt lat="49.38797" lon="-0.95472">
        <ele>37.6</ele>
        <time>2020-06-16T15:35:50Z</time>
      </trkpt>
      <trkpt lat="49.38797" lon="-0.95464">
        <ele>37.5</ele>
        <time>2020-06-16T15:35:51Z</time>
      </trkpt>
      <trkpt lat="49.38797" lon="-0.95457">
        <ele>37.5</ele>
        <time>2020-06-16T15:35:52Z</time>
      </trkpt>
      <trkpt lat="49.38798" lon="-0.95448">
        <ele>37.5</ele>
        <time>2020-06-16T15:35:53Z</time>
      </trkpt>
      <trkpt lat="49.38799" lon="-0.95441">
        <ele>37.5</ele>
        <time>2020-06-16T15:35:54Z</time>
      </trkpt>
      <trkpt lat="49.38798" lon="-0.95433">
        <ele>37.4</ele>
        <time>2020-06-16T15:35:55Z</time>
      </trkpt>
      <trkpt lat="49.38799" lon="-0.95426">
        <ele>37.4</ele>
        <time>2020-06-16T15:35:56Z</time>
      </trkpt>
      <trkpt lat="49.38799" lon="-0.9542">
        <ele>37.4</ele>
        <time>2020-06-16T15:35:57Z</time>
      </trkpt>
      <trkpt lat="49.388" lon="-0.95414">
        <ele>37.4</ele>
        <time>2020-06-16T15:35:58Z</time>
      </trkpt>
      <trkpt lat="49.388" lon="-0.95407">
        <ele>37.4</ele>
        <time>2020-06-16T15:35:59Z</time>
      </trkpt>
      <trkpt lat="49.388" lon="-0.954">
        <ele>37.4</ele>
        <time>2020-06-16T15:36:00Z</time>
      </trkpt>
      <trkpt lat="49.388" lon="-0.95393">
        <ele>37.4</ele>
        <time>2020-06-16T15:36:01Z</time>
      </trkpt>
      <trkpt lat="49.388" lon="-0.95386">
        <ele>37.4</ele>
        <time>2020-06-16T15:36:02Z</time>
      </trkpt>
      <trkpt lat="49.388" lon="-0.95379">
        <ele>37.4</ele>
        <time>2020-06-16T15:36:03Z</time>
      </trkpt>
      <trkpt lat="49.388" lon="-0.95372">
        <ele>37.4</ele>
        <time>2020-06-16T15:36:04Z</time>
      </trkpt>
      <trkpt lat="49.388" lon="-0.95366">
        <ele>37.4</ele>
        <time>2020-06-16T15:36:05Z</time>
      </trkpt>
      <trkpt lat="49.38801" lon="-0.95359">
        <ele>37.4</ele>
        <time>2020-06-16T15:36:06Z</time>
      </trkpt>
      <trkpt lat="49.38801" lon="-0.95352">
        <ele>37.3</ele>
        <time>2020-06-16T15:36:07Z</time>
      </trkpt>
      <trkpt lat="49.38802" lon="-0.95344">
        <ele>37.3</ele>
        <time>2020-06-16T15:36:08Z</time>
      </trkpt>
      <trkpt lat="49.38802" lon="-0.95337">
        <ele>37.3</ele>
        <time>2020-06-16T15:36:09Z</time>
      </trkpt>
      <trkpt lat="49.38802" lon="-0.95331">
        <ele>37.3</ele>
        <time>2020-06-16T15:36:10Z</time>
      </trkpt>
      <trkpt lat="49.38802" lon="-0.95323">
        <ele>37.2</ele>
        <time>2020-06-16T15:36:11Z</time>
      </trkpt>
      <trkpt lat="49.38802" lon="-0.95317">
        <ele>37.2</ele>
        <time>2020-06-16T15:36:12Z</time>
      </trkpt>
      <trkpt lat="49.38802" lon="-0.9531">
        <ele>37.2</ele>
        <time>2020-06-16T15:36:13Z</time>
      </trkpt>
      <trkpt lat="49.38801" lon="-0.95303">
        <ele>37.1</ele>
        <time>2020-06-16T15:36:14Z</time>
      </trkpt>
      <trkpt lat="49.38801" lon="-0.95297">
        <ele>37.1</ele>
        <time>2020-06-16T15:36:15Z</time>
      </trkpt>
      <trkpt lat="49.38802" lon="-0.95289">
        <ele>37.1</ele>
        <time>2020-06-16T15:36:16Z</time>
      </trkpt>
      <trkpt lat="49.38802" lon="-0.95281">
        <ele>37.1</ele>
        <time>2020-06-16T15:36:17Z</time>
      </trkpt>
      <trkpt lat="49.38803" lon="-0.95272">
        <ele>37</ele>
        <time>2020-06-16T15:36:18Z</time>
      </trkpt>
      <trkpt lat="49.38803" lon="-0.95264">
        <ele>37</ele>
        <time>2020-06-16T15:36:19Z</time>
      </trkpt>
      <trkpt lat="49.38803" lon="-0.95256">
        <ele>37</ele>
        <time>2020-06-16T15:36:20Z</time>
      </trkpt>
      <trkpt lat="49.38803" lon="-0.95247">
        <ele>37</ele>
        <time>2020-06-16T15:36:21Z</time>
      </trkpt>
      <trkpt lat="49.38802" lon="-0.95238">
        <ele>36.9</ele>
        <time>2020-06-16T15:36:22Z</time>
      </trkpt>
      <trkpt lat="49.38803" lon="-0.9523">
        <ele>36.9</ele>
        <time>2020-06-16T15:36:23Z</time>
      </trkpt>
      <trkpt lat="49.38803" lon="-0.95222">
        <ele>36.9</ele>
        <time>2020-06-16T15:36:24Z</time>
      </trkpt>
      <trkpt lat="49.38803" lon="-0.95215">
        <ele>36.9</ele>
        <time>2020-06-16T15:36:25Z</time>
      </trkpt>
      <trkpt lat="49.38802" lon="-0.95206">
        <ele>36.9</ele>
        <time>2020-06-16T15:36:26Z</time>
      </trkpt>
      <trkpt lat="49.38802" lon="-0.95198">
        <ele>36.9</ele>
        <time>2020-06-16T15:36:27Z</time>
      </trkpt>
      <trkpt lat="49.38802" lon="-0.9519">
        <ele>36.9</ele>
        <time>2020-06-16T15:36:28Z</time>
      </trkpt>
      <trkpt lat="49.38802" lon="-0.95182">
        <ele>36.9</ele>
        <time>2020-06-16T15:36:29Z</time>
      </trkpt>
      <trkpt lat="49.38801" lon="-0.95173">
        <ele>36.9</ele>
        <time>2020-06-16T15:36:30Z</time>
      </trkpt>
      <trkpt lat="49.38801" lon="-0.95166">
        <ele>36.9</ele>
        <time>2020-06-16T15:36:31Z</time>
      </trkpt>
      <trkpt lat="49.38801" lon="-0.95158">
        <ele>36.9</ele>
        <time>2020-06-16T15:36:32Z</time>
      </trkpt>
      <trkpt lat="49.38801" lon="-0.9515">
        <ele>36.9</ele>
        <time>2020-06-16T15:36:33Z</time>
      </trkpt>
      <trkpt lat="49.388" lon="-0.95143">
        <ele>36.9</ele>
        <time>2020-06-16T15:36:34Z</time>
      </trkpt>
      <trkpt lat="49.388" lon="-0.95136">
        <ele>36.9</ele>
        <time>2020-06-16T15:36:35Z</time>
      </trkpt>
      <trkpt lat="49.38799" lon="-0.95129">
        <ele>36.9</ele>
        <time>2020-06-16T15:36:36Z</time>
      </trkpt>
      <trkpt lat="49.38799" lon="-0.95121">
        <ele>36.9</ele>
        <time>2020-06-16T15:36:37Z</time>
      </trkpt>
      <trkpt lat="49.38799" lon="-0.95113">
        <ele>36.9</ele>
        <time>2020-06-16T15:36:38Z</time>
      </trkpt>
      <trkpt lat="49.38798" lon="-0.95105">
        <ele>36.9</ele>
        <time>2020-06-16T15:36:39Z</time>
      </trkpt>
      <trkpt lat="49.38798" lon="-0.95097">
        <ele>36.8</ele>
        <time>2020-06-16T15:36:40Z</time>
      </trkpt>
      <trkpt lat="49.38798" lon="-0.9509">
        <ele>36.8</ele>
        <time>2020-06-16T15:36:41Z</time>
      </trkpt>
      <trkpt lat="49.38798" lon="-0.95082">
        <ele>36.8</ele>
        <time>2020-06-16T15:36:42Z</time>
      </trkpt>
      <trkpt lat="49.38797" lon="-0.95075">
        <ele>36.8</ele>
        <time>2020-06-16T15:36:43Z</time>
      </trkpt>
      <trkpt lat="49.38797" lon="-0.95068">
        <ele>36.7</ele>
        <time>2020-06-16T15:36:44Z</time>
      </trkpt>
      <trkpt lat="49.38797" lon="-0.9506">
        <ele>36.7</ele>
        <time>2020-06-16T15:36:45Z</time>
      </trkpt>
      <trkpt lat="49.38798" lon="-0.95053">
        <ele>36.6</ele>
        <time>2020-06-16T15:36:46Z</time>
      </trkpt>
      <trkpt lat="49.38799" lon="-0.95046">
        <ele>36.6</ele>
        <time>2020-06-16T15:36:47Z</time>
      </trkpt>
      <trkpt lat="49.38799" lon="-0.9504">
        <ele>36.6</ele>
        <time>2020-06-16T15:36:48Z</time>
      </trkpt>
      <trkpt lat="49.38799" lon="-0.95034">
        <ele>36.5</ele>
        <time>2020-06-16T15:36:49Z</time>
      </trkpt>
      <trkpt lat="49.38798" lon="-0.95028">
        <ele>36.5</ele>
        <time>2020-06-16T15:36:50Z</time>
      </trkpt>
      <trkpt lat="49.38798" lon="-0.95022">
        <ele>36.5</ele>
        <time>2020-06-16T15:36:51Z</time>
      </trkpt>
      <trkpt lat="49.38798" lon="-0.95016">
        <ele>36.4</ele>
        <time>2020-06-16T15:36:52Z</time>
      </trkpt>
      <trkpt lat="49.38797" lon="-0.95009">
        <ele>36.4</ele>
        <time>2020-06-16T15:36:53Z</time>
      </trkpt>
      <trkpt lat="49.38797" lon="-0.95002">
        <ele>36.3</ele>
        <time>2020-06-16T15:36:54Z</time>
      </trkpt>
      <trkpt lat="49.38797" lon="-0.94995">
        <ele>36.3</ele>
        <time>2020-06-16T15:36:55Z</time>
      </trkpt>
      <trkpt lat="49.38797" lon="-0.94989">
        <ele>36.2</ele>
        <time>2020-06-16T15:36:56Z</time>
      </trkpt>
      <trkpt lat="49.38797" lon="-0.94982">
        <ele>36.2</ele>
        <time>2020-06-16T15:36:57Z</time>
      </trkpt>
      <trkpt lat="49.38796" lon="-0.94975">
        <ele>36.1</ele>
        <time>2020-06-16T15:36:58Z</time>
      </trkpt>
      <trkpt lat="49.38795" lon="-0.94968">
        <ele>36.1</ele>
        <time>2020-06-16T15:36:59Z</time>
      </trkpt>
      <trkpt lat="49.38794" lon="-0.9496">
        <ele>36</ele>
        <time>2020-06-16T15:37:00Z</time>
      </trkpt>
      <trkpt lat="49.38795" lon="-0.94952">
        <ele>36</ele>
        <time>2020-06-16T15:37:01Z</time>
      </trkpt>
      <trkpt lat="49.38794" lon="-0.94942">
        <ele>35.9</ele>
        <time>2020-06-16T15:37:02Z</time>
      </trkpt>
      <trkpt lat="49.38791" lon="-0.94931">
        <ele>35.8</ele>
        <time>2020-06-16T15:37:03Z</time>
      </trkpt>
      <trkpt lat="49.38792" lon="-0.94923">
        <ele>35.7</ele>
        <time>2020-06-16T15:37:04Z</time>
      </trkpt>
      <trkpt lat="49.38793" lon="-0.94913">
        <ele>35.7</ele>
        <time>2020-06-16T15:37:05Z</time>
      </trkpt>
      <trkpt lat="49.38794" lon="-0.94906">
        <ele>35.7</ele>
        <time>2020-06-16T15:37:06Z</time>
      </trkpt>
      <trkpt lat="49.38795" lon="-0.94899">
        <ele>35.7</ele>
        <time>2020-06-16T15:37:07Z</time>
      </trkpt>
      <trkpt lat="49.38795" lon="-0.94892">
        <ele>35.8</ele>
        <time>2020-06-16T15:37:08Z</time>
      </trkpt>
      <trkpt lat="49.38795" lon="-0.94883">
        <ele>35.9</ele>
        <time>2020-06-16T15:37:09Z</time>
      </trkpt>
      <trkpt lat="49.38796" lon="-0.94875">
        <ele>36.1</ele>
        <time>2020-06-16T15:37:10Z</time>
      </trkpt>
      <trkpt lat="49.38796" lon="-0.94865">
        <ele>36.2</ele>
        <time>2020-06-16T15:37:11Z</time>
      </trkpt>
      <trkpt lat="49.38798" lon="-0.94855">
        <ele>36.1</ele>
        <time>2020-06-16T15:37:12Z</time>
      </trkpt>
      <trkpt lat="49.38798" lon="-0.94845">
        <ele>36.1</ele>
        <time>2020-06-16T15:37:13Z</time>
      </trkpt>
      <trkpt lat="49.388" lon="-0.94836">
        <ele>36.1</ele>
        <time>2020-06-16T15:37:14Z</time>
      </trkpt>
      <trkpt lat="49.388" lon="-0.94827">
        <ele>36</ele>
        <time>2020-06-16T15:37:15Z</time>
      </trkpt>
      <trkpt lat="49.38799" lon="-0.94818">
        <ele>36</ele>
        <time>2020-06-16T15:37:16Z</time>
      </trkpt>
      <trkpt lat="49.38799" lon="-0.94809">
        <ele>36</ele>
        <time>2020-06-16T15:37:17Z</time>
      </trkpt>
      <trkpt lat="49.38799" lon="-0.94801">
        <ele>35.9</ele>
        <time>2020-06-16T15:37:18Z</time>
      </trkpt>
      <trkpt lat="49.38799" lon="-0.94791">
        <ele>35.9</ele>
        <time>2020-06-16T15:37:19Z</time>
      </trkpt>
      <trkpt lat="49.38799" lon="-0.94782">
        <ele>35.8</ele>
        <time>2020-06-16T15:37:20Z</time>
      </trkpt>
      <trkpt lat="49.38799" lon="-0.94773">
        <ele>35.8</ele>
        <time>2020-06-16T15:37:21Z</time>
      </trkpt>
      <trkpt lat="49.38799" lon="-0.94764">
        <ele>35.7</ele>
        <time>2020-06-16T15:37:22Z</time>
      </trkpt>
      <trkpt lat="49.38799" lon="-0.94756">
        <ele>35.7</ele>
        <time>2020-06-16T15:37:23Z</time>
      </trkpt>
      <trkpt lat="49.388" lon="-0.94748">
        <ele>35.7</ele>
        <time>2020-06-16T15:37:24Z</time>
      </trkpt>
      <trkpt lat="49.388" lon="-0.94739">
        <ele>35.6</ele>
        <time>2020-06-16T15:37:25Z</time>
      </trkpt>
      <trkpt lat="49.38801" lon="-0.94731">
        <ele>35.6</ele>
        <time>2020-06-16T15:37:26Z</time>
      </trkpt>
      <trkpt lat="49.38801" lon="-0.94722">
        <ele>35.6</ele>
        <time>2020-06-16T15:37:27Z</time>
      </trkpt>
      <trkpt lat="49.38803" lon="-0.94714">
        <ele>35.6</ele>
        <time>2020-06-16T15:37:28Z</time>
      </trkpt>
      <trkpt lat="49.38804" lon="-0.94706">
        <ele>35.6</ele>
        <time>2020-06-16T15:37:29Z</time>
      </trkpt>
      <trkpt lat="49.38804" lon="-0.94697">
        <ele>35.6</ele>
        <time>2020-06-16T15:37:30Z</time>
      </trkpt>
      <trkpt lat="49.38806" lon="-0.94688">
        <ele>35.6</ele>
        <time>2020-06-16T15:37:31Z</time>
      </trkpt>
      <trkpt lat="49.38807" lon="-0.94678">
        <ele>35.6</ele>
        <time>2020-06-16T15:37:32Z</time>
      </trkpt>
      <trkpt lat="49.38808" lon="-0.94669">
        <ele>35.6</ele>
        <time>2020-06-16T15:37:33Z</time>
      </trkpt>
      <trkpt lat="49.38808" lon="-0.94661">
        <ele>35.5</ele>
        <time>2020-06-16T15:37:34Z</time>
      </trkpt>
      <trkpt lat="49.38809" lon="-0.94652">
        <ele>35.5</ele>
        <time>2020-06-16T15:37:35Z</time>
      </trkpt>
      <trkpt lat="49.38809" lon="-0.94643">
        <ele>35.5</ele>
        <time>2020-06-16T15:37:36Z</time>
      </trkpt>
      <trkpt lat="49.3881" lon="-0.94632">
        <ele>35.5</ele>
        <time>2020-06-16T15:37:37Z</time>
      </trkpt>
      <trkpt lat="49.38809" lon="-0.94623">
        <ele>35.5</ele>
        <time>2020-06-16T15:37:38Z</time>
      </trkpt>
      <trkpt lat="49.38808" lon="-0.94612">
        <ele>35.4</ele>
        <time>2020-06-16T15:37:39Z</time>
      </trkpt>
      <trkpt lat="49.38808" lon="-0.94602">
        <ele>35.4</ele>
        <time>2020-06-16T15:37:40Z</time>
      </trkpt>
      <trkpt lat="49.38806" lon="-0.94593">
        <ele>35.4</ele>
        <time>2020-06-16T15:37:41Z</time>
      </trkpt>
      <trkpt lat="49.38806" lon="-0.94583">
        <ele>35.4</ele>
        <time>2020-06-16T15:37:42Z</time>
      </trkpt>
      <trkpt lat="49.38806" lon="-0.94574">
        <ele>35.4</ele>
        <time>2020-06-16T15:37:43Z</time>
      </trkpt>
      <trkpt lat="49.38806" lon="-0.94565">
        <ele>35.4</ele>
        <time>2020-06-16T15:37:44Z</time>
      </trkpt>
      <trkpt lat="49.38806" lon="-0.94558">
        <ele>35.4</ele>
        <time>2020-06-16T15:37:45Z</time>
      </trkpt>
      <trkpt lat="49.38806" lon="-0.94549">
        <ele>35.4</ele>
        <time>2020-06-16T15:37:46Z</time>
      </trkpt>
      <trkpt lat="49.38807" lon="-0.94541">
        <ele>35.4</ele>
        <time>2020-06-16T15:37:47Z</time>
      </trkpt>
      <trkpt lat="49.38807" lon="-0.94534">
        <ele>35.4</ele>
        <time>2020-06-16T15:37:48Z</time>
      </trkpt>
      <trkpt lat="49.38808" lon="-0.94526">
        <ele>35.4</ele>
        <time>2020-06-16T15:37:49Z</time>
      </trkpt>
      <trkpt lat="49.38808" lon="-0.94518">
        <ele>35.4</ele>
        <time>2020-06-16T15:37:50Z</time>
      </trkpt>
      <trkpt lat="49.38809" lon="-0.9451">
        <ele>35.4</ele>
        <time>2020-06-16T15:37:51Z</time>
      </trkpt>
      <trkpt lat="49.3881" lon="-0.94498">
        <ele>35.4</ele>
        <time>2020-06-16T15:37:52Z</time>
      </trkpt>
      <trkpt lat="49.38811" lon="-0.94488">
        <ele>35.4</ele>
        <time>2020-06-16T15:37:53Z</time>
      </trkpt>
      <trkpt lat="49.38812" lon="-0.94478">
        <ele>35.4</ele>
        <time>2020-06-16T15:37:54Z</time>
      </trkpt>
      <trkpt lat="49.38813" lon="-0.94466">
        <ele>35.5</ele>
        <time>2020-06-16T15:37:55Z</time>
      </trkpt>
      <trkpt lat="49.38814" lon="-0.94456">
        <ele>35.6</ele>
        <time>2020-06-16T15:37:56Z</time>
      </trkpt>
      <trkpt lat="49.38816" lon="-0.94446">
        <ele>35.6</ele>
        <time>2020-06-16T15:37:57Z</time>
      </trkpt>
      <trkpt lat="49.38816" lon="-0.94435">
        <ele>35.5</ele>
        <time>2020-06-16T15:37:58Z</time>
      </trkpt>
      <trkpt lat="49.38817" lon="-0.94425">
        <ele>35.5</ele>
        <time>2020-06-16T15:37:59Z</time>
      </trkpt>
      <trkpt lat="49.38817" lon="-0.94418">
        <ele>35.5</ele>
        <time>2020-06-16T15:38:00Z</time>
      </trkpt>
      <trkpt lat="49.38817" lon="-0.94411">
        <ele>35.6</ele>
        <time>2020-06-16T15:38:01Z</time>
      </trkpt>
      <trkpt lat="49.38817" lon="-0.94402">
        <ele>35.6</ele>
        <time>2020-06-16T15:38:02Z</time>
      </trkpt>
      <trkpt lat="49.38818" lon="-0.94395">
        <ele>35.6</ele>
        <time>2020-06-16T15:38:03Z</time>
      </trkpt>
      <trkpt lat="49.38819" lon="-0.94386">
        <ele>35.7</ele>
        <time>2020-06-16T15:38:04Z</time>
      </trkpt>
      <trkpt lat="49.3882" lon="-0.94376">
        <ele>35.7</ele>
        <time>2020-06-16T15:38:05Z</time>
      </trkpt>
      <trkpt lat="49.38821" lon="-0.94366">
        <ele>35.8</ele>
        <time>2020-06-16T15:38:06Z</time>
      </trkpt>
      <trkpt lat="49.38822" lon="-0.94355">
        <ele>35.8</ele>
        <time>2020-06-16T15:38:07Z</time>
      </trkpt>
      <trkpt lat="49.38823" lon="-0.94346">
        <ele>35.8</ele>
        <time>2020-06-16T15:38:08Z</time>
      </trkpt>
      <trkpt lat="49.38825" lon="-0.94336">
        <ele>35.8</ele>
        <time>2020-06-16T15:38:09Z</time>
      </trkpt>
      <trkpt lat="49.38826" lon="-0.94328">
        <ele>35.8</ele>
        <time>2020-06-16T15:38:10Z</time>
      </trkpt>
      <trkpt lat="49.38826" lon="-0.94321">
        <ele>35.8</ele>
        <time>2020-06-16T15:38:11Z</time>
      </trkpt>
      <trkpt lat="49.38826" lon="-0.94313">
        <ele>35.9</ele>
        <time>2020-06-16T15:38:12Z</time>
      </trkpt>
      <trkpt lat="49.38827" lon="-0.94307">
        <ele>35.9</ele>
        <time>2020-06-16T15:38:13Z</time>
      </trkpt>
      <trkpt lat="49.38827" lon="-0.943">
        <ele>35.9</ele>
        <time>2020-06-16T15:38:14Z</time>
      </trkpt>
      <trkpt lat="49.38827" lon="-0.94292">
        <ele>35.9</ele>
        <time>2020-06-16T15:38:15Z</time>
      </trkpt>
      <trkpt lat="49.38828" lon="-0.94285">
        <ele>35.9</ele>
        <time>2020-06-16T15:38:16Z</time>
      </trkpt>
      <trkpt lat="49.38829" lon="-0.94277">
        <ele>35.9</ele>
        <time>2020-06-16T15:38:17Z</time>
      </trkpt>
      <trkpt lat="49.3883" lon="-0.94267">
        <ele>35.9</ele>
        <time>2020-06-16T15:38:18Z</time>
      </trkpt>
      <trkpt lat="49.38831" lon="-0.94258">
        <ele>35.9</ele>
        <time>2020-06-16T15:38:19Z</time>
      </trkpt>
      <trkpt lat="49.38833" lon="-0.94251">
        <ele>35.9</ele>
        <time>2020-06-16T15:38:20Z</time>
      </trkpt>
      <trkpt lat="49.38835" lon="-0.94243">
        <ele>35.9</ele>
        <time>2020-06-16T15:38:21Z</time>
      </trkpt>
      <trkpt lat="49.38837" lon="-0.94236">
        <ele>35.8</ele>
        <time>2020-06-16T15:38:22Z</time>
      </trkpt>
      <trkpt lat="49.38838" lon="-0.94228">
        <ele>35.8</ele>
        <time>2020-06-16T15:38:23Z</time>
      </trkpt>
      <trkpt lat="49.38839" lon="-0.9422">
        <ele>35.8</ele>
        <time>2020-06-16T15:38:24Z</time>
      </trkpt>
      <trkpt lat="49.3884" lon="-0.94212">
        <ele>35.8</ele>
        <time>2020-06-16T15:38:25Z</time>
      </trkpt>
      <trkpt lat="49.38841" lon="-0.94204">
        <ele>35.8</ele>
        <time>2020-06-16T15:38:26Z</time>
      </trkpt>
      <trkpt lat="49.38843" lon="-0.94197">
        <ele>35.8</ele>
        <time>2020-06-16T15:38:27Z</time>
      </trkpt>
      <trkpt lat="49.38843" lon="-0.9419">
        <ele>35.7</ele>
        <time>2020-06-16T15:38:28Z</time>
      </trkpt>
      <trkpt lat="49.38844" lon="-0.94182">
        <ele>35.7</ele>
        <time>2020-06-16T15:38:29Z</time>
      </trkpt>
      <trkpt lat="49.38846" lon="-0.94174">
        <ele>35.7</ele>
        <time>2020-06-16T15:38:30Z</time>
      </trkpt>
      <trkpt lat="49.38848" lon="-0.94164">
        <ele>35.7</ele>
        <time>2020-06-16T15:38:31Z</time>
      </trkpt>
      <trkpt lat="49.3885" lon="-0.94155">
        <ele>35.7</ele>
        <time>2020-06-16T15:38:32Z</time>
      </trkpt>
      <trkpt lat="49.38851" lon="-0.94148">
        <ele>35.7</ele>
        <time>2020-06-16T15:38:33Z</time>
      </trkpt>
      <trkpt lat="49.38853" lon="-0.94141">
        <ele>35.7</ele>
        <time>2020-06-16T15:38:34Z</time>
      </trkpt>
      <trkpt lat="49.38853" lon="-0.94134">
        <ele>35.7</ele>
        <time>2020-06-16T15:38:35Z</time>
      </trkpt>
      <trkpt lat="49.38854" lon="-0.94127">
        <ele>35.7</ele>
        <time>2020-06-16T15:38:36Z</time>
      </trkpt>
      <trkpt lat="49.38855" lon="-0.9412">
        <ele>35.7</ele>
        <time>2020-06-16T15:38:37Z</time>
      </trkpt>
      <trkpt lat="49.38856" lon="-0.94113">
        <ele>35.6</ele>
        <time>2020-06-16T15:38:38Z</time>
      </trkpt>
      <trkpt lat="49.38857" lon="-0.94105">
        <ele>35.6</ele>
        <time>2020-06-16T15:38:39Z</time>
      </trkpt>
      <trkpt lat="49.38857" lon="-0.94097">
        <ele>35.6</ele>
        <time>2020-06-16T15:38:40Z</time>
      </trkpt>
      <trkpt lat="49.38857" lon="-0.9409">
        <ele>35.5</ele>
        <time>2020-06-16T15:38:41Z</time>
      </trkpt>
      <trkpt lat="49.38857" lon="-0.94081">
        <ele>35.5</ele>
        <time>2020-06-16T15:38:42Z</time>
      </trkpt>
      <trkpt lat="49.38857" lon="-0.94073">
        <ele>35.5</ele>
        <time>2020-06-16T15:38:43Z</time>
      </trkpt>
      <trkpt lat="49.38857" lon="-0.94064">
        <ele>35.4</ele>
        <time>2020-06-16T15:38:44Z</time>
      </trkpt>
      <trkpt lat="49.38857" lon="-0.94055">
        <ele>35.4</ele>
        <time>2020-06-16T15:38:45Z</time>
      </trkpt>
      <trkpt lat="49.38856" lon="-0.94046">
        <ele>35.3</ele>
        <time>2020-06-16T15:38:46Z</time>
      </trkpt>
      <trkpt lat="49.38855" lon="-0.94037">
        <ele>35.3</ele>
        <time>2020-06-16T15:38:47Z</time>
      </trkpt>
      <trkpt lat="49.38853" lon="-0.9403">
        <ele>35.3</ele>
        <time>2020-06-16T15:38:48Z</time>
      </trkpt>
      <trkpt lat="49.38851" lon="-0.94022">
        <ele>35.3</ele>
        <time>2020-06-16T15:38:49Z</time>
      </trkpt>
      <trkpt lat="49.38849" lon="-0.94015">
        <ele>35.3</ele>
        <time>2020-06-16T15:38:50Z</time>
      </trkpt>
      <trkpt lat="49.38847" lon="-0.94008">
        <ele>35.4</ele>
        <time>2020-06-16T15:38:51Z</time>
      </trkpt>
      <trkpt lat="49.38844" lon="-0.94001">
        <ele>35.4</ele>
        <time>2020-06-16T15:38:52Z</time>
      </trkpt>
      <trkpt lat="49.38841" lon="-0.93994">
        <ele>35.4</ele>
        <time>2020-06-16T15:38:53Z</time>
      </trkpt>
      <trkpt lat="49.3884" lon="-0.93987">
        <ele>35.4</ele>
        <time>2020-06-16T15:38:54Z</time>
      </trkpt>
      <trkpt lat="49.38838" lon="-0.93981">
        <ele>35.4</ele>
        <time>2020-06-16T15:38:55Z</time>
      </trkpt>
      <trkpt lat="49.38837" lon="-0.93976">
        <ele>35.4</ele>
        <time>2020-06-16T15:38:56Z</time>
      </trkpt>
      <trkpt lat="49.38835" lon="-0.93972">
        <ele>35.4</ele>
        <time>2020-06-16T15:38:57Z</time>
      </trkpt>
      <trkpt lat="49.38833" lon="-0.93969">
        <ele>35.4</ele>
        <time>2020-06-16T15:38:58Z</time>
      </trkpt>
      <trkpt lat="49.38833" lon="-0.93966">
        <ele>35.4</ele>
        <time>2020-06-16T15:38:59Z</time>
      </trkpt>
      <trkpt lat="49.38833" lon="-0.93965">
        <ele>35.4</ele>
        <time>2020-06-16T15:39:00Z</time>
      </trkpt>
      <trkpt lat="49.38835" lon="-0.93966">
        <ele>35.4</ele>
        <time>2020-06-16T15:39:01Z</time>
      </trkpt>
      <trkpt lat="49.38836" lon="-0.93967">
        <ele>35.4</ele>
        <time>2020-06-16T15:39:02Z</time>
      </trkpt>
      <trkpt lat="49.38839" lon="-0.93971">
        <ele>35.4</ele>
        <time>2020-06-16T15:39:03Z</time>
      </trkpt>
      <trkpt lat="49.3884" lon="-0.93972">
        <ele>35.4</ele>
        <time>2020-06-16T15:39:04Z</time>
      </trkpt>
      <trkpt lat="49.38841" lon="-0.93976">
        <ele>35.4</ele>
        <time>2020-06-16T15:39:05Z</time>
      </trkpt>
      <trkpt lat="49.38842" lon="-0.93977">
        <ele>35.4</ele>
        <time>2020-06-16T15:39:06Z</time>
      </trkpt>
      <trkpt lat="49.38843" lon="-0.93979">
        <ele>35.4</ele>
        <time>2020-06-16T15:39:07Z</time>
      </trkpt>
      <trkpt lat="49.38843" lon="-0.93981">
        <ele>35.4</ele>
        <time>2020-06-16T15:39:08Z</time>
      </trkpt>
      <trkpt lat="49.38844" lon="-0.93981">
        <ele>35.4</ele>
        <time>2020-06-16T15:39:09Z</time>
      </trkpt>
      <trkpt lat="49.38845" lon="-0.9398">
        <ele>35.4</ele>
        <time>2020-06-16T15:39:10Z</time>
      </trkpt>
      <trkpt lat="49.38846" lon="-0.93979">
        <ele>35.4</ele>
        <time>2020-06-16T15:39:11Z</time>
      </trkpt>
      <trkpt lat="49.38846" lon="-0.93979">
        <ele>35.4</ele>
        <time>2020-06-16T15:39:12Z</time>
      </trkpt>
      <trkpt lat="49.38846" lon="-0.93978">
        <ele>35.4</ele>
        <time>2020-06-16T15:39:13Z</time>
      </trkpt>
      <trkpt lat="49.38846" lon="-0.93978">
        <ele>35.4</ele>
        <time>2020-06-16T15:39:14Z</time>
      </trkpt>
      <trkpt lat="49.38846" lon="-0.93978">
        <ele>35.4</ele>
        <time>2020-06-16T15:39:15Z</time>
      </trkpt>
      <trkpt lat="49.38846" lon="-0.93978">
        <ele>35.4</ele>
        <time>2020-06-16T15:39:16Z</time>
      </trkpt>
      <trkpt lat="49.38846" lon="-0.93977">
        <ele>35.4</ele>
        <time>2020-06-16T15:39:17Z</time>
      </trkpt>
      <trkpt lat="49.38846" lon="-0.93977">
        <ele>35.4</ele>
        <time>2020-06-16T15:39:18Z</time>
      </trkpt>
      <trkpt lat="49.38846" lon="-0.93977">
        <ele>35.4</ele>
        <time>2020-06-16T15:39:19Z</time>
      </trkpt>
      <trkpt lat="49.38848" lon="-0.93984">
        <ele>35.4</ele>
        <time>2020-06-16T15:39:32Z</time>
      </trkpt>
      <trkpt lat="49.38848" lon="-0.93985">
        <ele>35.3</ele>
        <time>2020-06-16T15:39:33Z</time>
      </trkpt>
      <trkpt lat="49.38848" lon="-0.93986">
        <ele>35.3</ele>
        <time>2020-06-16T15:39:34Z</time>
      </trkpt>
      <trkpt lat="49.38848" lon="-0.93987">
        <ele>35.3</ele>
        <time>2020-06-16T15:39:35Z</time>
      </trkpt>
      <trkpt lat="49.38848" lon="-0.93986">
        <ele>35.3</ele>
        <time>2020-06-16T15:39:36Z</time>
      </trkpt>
      <trkpt lat="49.38848" lon="-0.93985">
        <ele>35.3</ele>
        <time>2020-06-16T15:39:37Z</time>
      </trkpt>
      <trkpt lat="49.38847" lon="-0.93984">
        <ele>35.3</ele>
        <time>2020-06-16T15:39:38Z</time>
      </trkpt>
      <trkpt lat="49.38847" lon="-0.93983">
        <ele>35.3</ele>
        <time>2020-06-16T15:39:39Z</time>
      </trkpt>
      <trkpt lat="49.38846" lon="-0.93982">
        <ele>35.3</ele>
        <time>2020-06-16T15:39:40Z</time>
      </trkpt>
      <trkpt lat="49.38846" lon="-0.93981">
        <ele>35.3</ele>
        <time>2020-06-16T15:39:41Z</time>
      </trkpt>
      <trkpt lat="49.38846" lon="-0.9398">
        <ele>35.3</ele>
        <time>2020-06-16T15:39:42Z</time>
      </trkpt>
      <trkpt lat="49.38845" lon="-0.93979">
        <ele>35.3</ele>
        <time>2020-06-16T15:39:43Z</time>
      </trkpt>
      <trkpt lat="49.38845" lon="-0.93978">
        <ele>35.3</ele>
        <time>2020-06-16T15:39:44Z</time>
      </trkpt>
      <trkpt lat="49.38845" lon="-0.93976">
        <ele>35.3</ele>
        <time>2020-06-16T15:39:45Z</time>
      </trkpt>
      <trkpt lat="49.38844" lon="-0.93975">
        <ele>35.3</ele>
        <time>2020-06-16T15:39:46Z</time>
      </trkpt>
      <trkpt lat="49.38844" lon="-0.93974">
        <ele>35.3</ele>
        <time>2020-06-16T15:39:47Z</time>
      </trkpt>
      <trkpt lat="49.38843" lon="-0.93973">
        <ele>35.3</ele>
        <time>2020-06-16T15:39:48Z</time>
      </trkpt>
      <trkpt lat="49.38843" lon="-0.93972">
        <ele>35.3</ele>
        <time>2020-06-16T15:39:49Z</time>
      </trkpt>
      <trkpt lat="49.38843" lon="-0.93971">
        <ele>35.3</ele>
        <time>2020-06-16T15:39:50Z</time>
      </trkpt>
      <trkpt lat="49.38842" lon="-0.9397">
        <ele>35.3</ele>
        <time>2020-06-16T15:39:51Z</time>
      </trkpt>
      <trkpt lat="49.38842" lon="-0.93969">
        <ele>35.3</ele>
        <time>2020-06-16T15:39:52Z</time>
      </trkpt>
      <trkpt lat="49.38842" lon="-0.93968">
        <ele>35.3</ele>
        <time>2020-06-16T15:39:53Z</time>
      </trkpt>
      <trkpt lat="49.38841" lon="-0.93967">
        <ele>35.3</ele>
        <time>2020-06-16T15:39:54Z</time>
      </trkpt>
      <trkpt lat="49.38841" lon="-0.93965">
        <ele>35.3</ele>
        <time>2020-06-16T15:47:03Z</time>
      </trkpt>
      <trkpt lat="49.3884" lon="-0.93964">
        <ele>35.3</ele>
        <time>2020-06-16T15:47:04Z</time>
      </trkpt>
      <trkpt lat="49.3884" lon="-0.93963">
        <ele>35.3</ele>
        <time>2020-06-16T15:47:05Z</time>
      </trkpt>
      <trkpt lat="49.38838" lon="-0.93961">
        <ele>35.3</ele>
        <time>2020-06-16T15:47:06Z</time>
      </trkpt>
      <trkpt lat="49.38836" lon="-0.93957">
        <ele>35.3</ele>
        <time>2020-06-16T15:47:07Z</time>
      </trkpt>
      <trkpt lat="49.38833" lon="-0.93954">
        <ele>35.3</ele>
        <time>2020-06-16T15:47:08Z</time>
      </trkpt>
      <trkpt lat="49.38832" lon="-0.93949">
        <ele>35.3</ele>
        <time>2020-06-16T15:47:09Z</time>
      </trkpt>
      <trkpt lat="49.3883" lon="-0.93944">
        <ele>35.3</ele>
        <time>2020-06-16T15:47:10Z</time>
      </trkpt>
      <trkpt lat="49.38828" lon="-0.93938">
        <ele>35.3</ele>
        <time>2020-06-16T15:47:11Z</time>
      </trkpt>
      <trkpt lat="49.38827" lon="-0.93932">
        <ele>35.3</ele>
        <time>2020-06-16T15:47:12Z</time>
      </trkpt>
      <trkpt lat="49.38826" lon="-0.93925">
        <ele>35.3</ele>
        <time>2020-06-16T15:47:13Z</time>
      </trkpt>
      <trkpt lat="49.38826" lon="-0.93917">
        <ele>35.3</ele>
        <time>2020-06-16T15:47:14Z</time>
      </trkpt>
      <trkpt lat="49.38825" lon="-0.93909">
        <ele>35.3</ele>
        <time>2020-06-16T15:47:15Z</time>
      </trkpt>
      <trkpt lat="49.38824" lon="-0.93901">
        <ele>35.3</ele>
        <time>2020-06-16T15:47:16Z</time>
      </trkpt>
      <trkpt lat="49.38824" lon="-0.93894">
        <ele>35.3</ele>
        <time>2020-06-16T15:47:17Z</time>
      </trkpt>
      <trkpt lat="49.38824" lon="-0.93885">
        <ele>35.3</ele>
        <time>2020-06-16T15:47:18Z</time>
      </trkpt>
      <trkpt lat="49.38823" lon="-0.93878">
        <ele>35.3</ele>
        <time>2020-06-16T15:47:19Z</time>
      </trkpt>
      <trkpt lat="49.38821" lon="-0.93871">
        <ele>35.3</ele>
        <time>2020-06-16T15:47:20Z</time>
      </trkpt>
      <trkpt lat="49.38821" lon="-0.93864">
        <ele>35.3</ele>
        <time>2020-06-16T15:47:21Z</time>
      </trkpt>
      <trkpt lat="49.3882" lon="-0.93857">
        <ele>35.3</ele>
        <time>2020-06-16T15:47:22Z</time>
      </trkpt>
      <trkpt lat="49.3882" lon="-0.93851">
        <ele>35.3</ele>
        <time>2020-06-16T15:47:23Z</time>
      </trkpt>
      <trkpt lat="49.3882" lon="-0.93844">
        <ele>35.3</ele>
        <time>2020-06-16T15:47:24Z</time>
      </trkpt>
      <trkpt lat="49.3882" lon="-0.93836">
        <ele>35.3</ele>
        <time>2020-06-16T15:47:25Z</time>
      </trkpt>
      <trkpt lat="49.38821" lon="-0.93828">
        <ele>35.3</ele>
        <time>2020-06-16T15:47:26Z</time>
      </trkpt>
      <trkpt lat="49.38821" lon="-0.9382">
        <ele>35.3</ele>
        <time>2020-06-16T15:47:27Z</time>
      </trkpt>
      <trkpt lat="49.38821" lon="-0.93812">
        <ele>35.2</ele>
        <time>2020-06-16T15:47:28Z</time>
      </trkpt>
      <trkpt lat="49.3882" lon="-0.93805">
        <ele>35.1</ele>
        <time>2020-06-16T15:47:29Z</time>
      </trkpt>
      <trkpt lat="49.38819" lon="-0.93796">
        <ele>35</ele>
        <time>2020-06-16T15:47:30Z</time>
      </trkpt>
      <trkpt lat="49.38818" lon="-0.93789">
        <ele>35</ele>
        <time>2020-06-16T15:47:31Z</time>
      </trkpt>
      <trkpt lat="49.38818" lon="-0.93783">
        <ele>35</ele>
        <time>2020-06-16T15:47:32Z</time>
      </trkpt>
      <trkpt lat="49.38817" lon="-0.93775">
        <ele>35</ele>
        <time>2020-06-16T15:47:33Z</time>
      </trkpt>
      <trkpt lat="49.38817" lon="-0.93768">
        <ele>34.9</ele>
        <time>2020-06-16T15:47:34Z</time>
      </trkpt>
      <trkpt lat="49.38816" lon="-0.93759">
        <ele>34.9</ele>
        <time>2020-06-16T15:47:35Z</time>
      </trkpt>
      <trkpt lat="49.38815" lon="-0.9375">
        <ele>34.9</ele>
        <time>2020-06-16T15:47:36Z</time>
      </trkpt>
      <trkpt lat="49.38814" lon="-0.9374">
        <ele>34.9</ele>
        <time>2020-06-16T15:47:37Z</time>
      </trkpt>
      <trkpt lat="49.38813" lon="-0.93733">
        <ele>34.9</ele>
        <time>2020-06-16T15:47:38Z</time>
      </trkpt>
      <trkpt lat="49.38812" lon="-0.93724">
        <ele>34.9</ele>
        <time>2020-06-16T15:47:39Z</time>
      </trkpt>
      <trkpt lat="49.38812" lon="-0.93717">
        <ele>34.8</ele>
        <time>2020-06-16T15:47:40Z</time>
      </trkpt>
      <trkpt lat="49.3881" lon="-0.9371">
        <ele>34.8</ele>
        <time>2020-06-16T15:47:41Z</time>
      </trkpt>
      <trkpt lat="49.38808" lon="-0.93702">
        <ele>34.8</ele>
        <time>2020-06-16T15:47:42Z</time>
      </trkpt>
      <trkpt lat="49.38806" lon="-0.93693">
        <ele>34.7</ele>
        <time>2020-06-16T15:47:43Z</time>
      </trkpt>
      <trkpt lat="49.38805" lon="-0.93684">
        <ele>34.7</ele>
        <time>2020-06-16T15:47:44Z</time>
      </trkpt>
      <trkpt lat="49.38804" lon="-0.93676">
        <ele>34.7</ele>
        <time>2020-06-16T15:47:45Z</time>
      </trkpt>
      <trkpt lat="49.38802" lon="-0.93667">
        <ele>34.7</ele>
        <time>2020-06-16T15:47:46Z</time>
      </trkpt>
      <trkpt lat="49.38801" lon="-0.93658">
        <ele>34.7</ele>
        <time>2020-06-16T15:47:47Z</time>
      </trkpt>
      <trkpt lat="49.38799" lon="-0.93649">
        <ele>34.7</ele>
        <time>2020-06-16T15:47:48Z</time>
      </trkpt>
      <trkpt lat="49.38797" lon="-0.9364">
        <ele>34.8</ele>
        <time>2020-06-16T15:47:49Z</time>
      </trkpt>
      <trkpt lat="49.38796" lon="-0.93632">
        <ele>34.8</ele>
        <time>2020-06-16T15:47:50Z</time>
      </trkpt>
      <trkpt lat="49.38794" lon="-0.93623">
        <ele>34.9</ele>
        <time>2020-06-16T15:47:51Z</time>
      </trkpt>
      <trkpt lat="49.38792" lon="-0.93613">
        <ele>34.9</ele>
        <time>2020-06-16T15:47:52Z</time>
      </trkpt>
      <trkpt lat="49.3879" lon="-0.93603">
        <ele>34.9</ele>
        <time>2020-06-16T15:47:53Z</time>
      </trkpt>
      <trkpt lat="49.38788" lon="-0.93592">
        <ele>34.9</ele>
        <time>2020-06-16T15:47:54Z</time>
      </trkpt>
      <trkpt lat="49.38786" lon="-0.93583">
        <ele>35</ele>
        <time>2020-06-16T15:47:55Z</time>
      </trkpt>
      <trkpt lat="49.38785" lon="-0.93573">
        <ele>35</ele>
        <time>2020-06-16T15:47:56Z</time>
      </trkpt>
      <trkpt lat="49.38784" lon="-0.93565">
        <ele>35</ele>
        <time>2020-06-16T15:47:57Z</time>
      </trkpt>
      <trkpt lat="49.38782" lon="-0.93557">
        <ele>35.1</ele>
        <time>2020-06-16T15:47:58Z</time>
      </trkpt>
      <trkpt lat="49.38781" lon="-0.93548">
        <ele>35.2</ele>
        <time>2020-06-16T15:47:59Z</time>
      </trkpt>
      <trkpt lat="49.38779" lon="-0.93537">
        <ele>35.2</ele>
        <time>2020-06-16T15:48:00Z</time>
      </trkpt>
      <trkpt lat="49.38777" lon="-0.93529">
        <ele>35.3</ele>
        <time>2020-06-16T15:48:01Z</time>
      </trkpt>
      <trkpt lat="49.38775" lon="-0.9352">
        <ele>35.4</ele>
        <time>2020-06-16T15:48:02Z</time>
      </trkpt>
      <trkpt lat="49.38773" lon="-0.93511">
        <ele>35.5</ele>
        <time>2020-06-16T15:48:03Z</time>
      </trkpt>
      <trkpt lat="49.38771" lon="-0.93501">
        <ele>35.6</ele>
        <time>2020-06-16T15:48:04Z</time>
      </trkpt>
      <trkpt lat="49.3877" lon="-0.93492">
        <ele>35.7</ele>
        <time>2020-06-16T15:48:05Z</time>
      </trkpt>
      <trkpt lat="49.38768" lon="-0.93482">
        <ele>35.7</ele>
        <time>2020-06-16T15:48:06Z</time>
      </trkpt>
      <trkpt lat="49.38767" lon="-0.93473">
        <ele>35.9</ele>
        <time>2020-06-16T15:48:07Z</time>
      </trkpt>
      <trkpt lat="49.38765" lon="-0.93465">
        <ele>36</ele>
        <time>2020-06-16T15:48:08Z</time>
      </trkpt>
      <trkpt lat="49.38763" lon="-0.93456">
        <ele>36.1</ele>
        <time>2020-06-16T15:48:09Z</time>
      </trkpt>
      <trkpt lat="49.38762" lon="-0.93446">
        <ele>36.2</ele>
        <time>2020-06-16T15:48:10Z</time>
      </trkpt>
      <trkpt lat="49.38761" lon="-0.93438">
        <ele>36.3</ele>
        <time>2020-06-16T15:48:11Z</time>
      </trkpt>
      <trkpt lat="49.3876" lon="-0.93429">
        <ele>36.4</ele>
        <time>2020-06-16T15:48:12Z</time>
      </trkpt>
      <trkpt lat="49.38758" lon="-0.9342">
        <ele>36.5</ele>
        <time>2020-06-16T15:48:13Z</time>
      </trkpt>
      <trkpt lat="49.38758" lon="-0.93411">
        <ele>36.6</ele>
        <time>2020-06-16T15:48:14Z</time>
      </trkpt>
      <trkpt lat="49.38756" lon="-0.93402">
        <ele>36.7</ele>
        <time>2020-06-16T15:48:15Z</time>
      </trkpt>
      <trkpt lat="49.38754" lon="-0.93394">
        <ele>36.8</ele>
        <time>2020-06-16T15:48:16Z</time>
      </trkpt>
      <trkpt lat="49.38753" lon="-0.93385">
        <ele>36.9</ele>
        <time>2020-06-16T15:48:17Z</time>
      </trkpt>
      <trkpt lat="49.38751" lon="-0.93377">
        <ele>37</ele>
        <time>2020-06-16T15:48:18Z</time>
      </trkpt>
      <trkpt lat="49.38748" lon="-0.93368">
        <ele>37.1</ele>
        <time>2020-06-16T15:48:19Z</time>
      </trkpt>
      <trkpt lat="49.38747" lon="-0.93361">
        <ele>37.2</ele>
        <time>2020-06-16T15:48:20Z</time>
      </trkpt>
      <trkpt lat="49.38745" lon="-0.93353">
        <ele>37.3</ele>
        <time>2020-06-16T15:48:21Z</time>
      </trkpt>
      <trkpt lat="49.38743" lon="-0.93344">
        <ele>37.4</ele>
        <time>2020-06-16T15:48:22Z</time>
      </trkpt>
      <trkpt lat="49.38741" lon="-0.93335">
        <ele>37.6</ele>
        <time>2020-06-16T15:48:23Z</time>
      </trkpt>
      <trkpt lat="49.3874" lon="-0.93326">
        <ele>37.7</ele>
        <time>2020-06-16T15:48:24Z</time>
      </trkpt>
      <trkpt lat="49.38738" lon="-0.93318">
        <ele>37.8</ele>
        <time>2020-06-16T15:48:25Z</time>
      </trkpt>
      <trkpt lat="49.38737" lon="-0.9331">
        <ele>37.8</ele>
        <time>2020-06-16T15:48:26Z</time>
      </trkpt>
      <trkpt lat="49.38735" lon="-0.93301">
        <ele>37.9</ele>
        <time>2020-06-16T15:48:27Z</time>
      </trkpt>
      <trkpt lat="49.38734" lon="-0.93293">
        <ele>38</ele>
        <time>2020-06-16T15:48:28Z</time>
      </trkpt>
      <trkpt lat="49.38732" lon="-0.93285">
        <ele>38</ele>
        <time>2020-06-16T15:48:29Z</time>
      </trkpt>
      <trkpt lat="49.3873" lon="-0.93276">
        <ele>38.1</ele>
        <time>2020-06-16T15:48:30Z</time>
      </trkpt>
      <trkpt lat="49.38729" lon="-0.93267">
        <ele>38.2</ele>
        <time>2020-06-16T15:48:31Z</time>
      </trkpt>
      <trkpt lat="49.38727" lon="-0.9326">
        <ele>38.2</ele>
        <time>2020-06-16T15:48:32Z</time>
      </trkpt>
      <trkpt lat="49.38725" lon="-0.93251">
        <ele>38.3</ele>
        <time>2020-06-16T15:48:33Z</time>
      </trkpt>
      <trkpt lat="49.38722" lon="-0.93243">
        <ele>38.4</ele>
        <time>2020-06-16T15:48:34Z</time>
      </trkpt>
      <trkpt lat="49.38719" lon="-0.93234">
        <ele>38.5</ele>
        <time>2020-06-16T15:48:35Z</time>
      </trkpt>
      <trkpt lat="49.38716" lon="-0.93226">
        <ele>38.6</ele>
        <time>2020-06-16T15:48:36Z</time>
      </trkpt>
      <trkpt lat="49.38713" lon="-0.93218">
        <ele>38.6</ele>
        <time>2020-06-16T15:48:37Z</time>
      </trkpt>
      <trkpt lat="49.38711" lon="-0.93211">
        <ele>38.7</ele>
        <time>2020-06-16T15:48:38Z</time>
      </trkpt>
      <trkpt lat="49.38707" lon="-0.93203">
        <ele>38.7</ele>
        <time>2020-06-16T15:48:39Z</time>
      </trkpt>
      <trkpt lat="49.38704" lon="-0.93195">
        <ele>38.8</ele>
        <time>2020-06-16T15:48:40Z</time>
      </trkpt>
      <trkpt lat="49.387" lon="-0.93188">
        <ele>38.8</ele>
        <time>2020-06-16T15:48:41Z</time>
      </trkpt>
      <trkpt lat="49.38695" lon="-0.93181">
        <ele>38.8</ele>
        <time>2020-06-16T15:48:42Z</time>
      </trkpt>
      <trkpt lat="49.3869" lon="-0.93174">
        <ele>38.9</ele>
        <time>2020-06-16T15:48:43Z</time>
      </trkpt>
      <trkpt lat="49.38687" lon="-0.93168">
        <ele>38.9</ele>
        <time>2020-06-16T15:48:44Z</time>
      </trkpt>
      <trkpt lat="49.38683" lon="-0.93161">
        <ele>39</ele>
        <time>2020-06-16T15:48:45Z</time>
      </trkpt>
      <trkpt lat="49.3868" lon="-0.93154">
        <ele>39</ele>
        <time>2020-06-16T15:48:46Z</time>
      </trkpt>
      <trkpt lat="49.38676" lon="-0.93148">
        <ele>39</ele>
        <time>2020-06-16T15:48:47Z</time>
      </trkpt>
      <trkpt lat="49.38672" lon="-0.93141">
        <ele>39.1</ele>
        <time>2020-06-16T15:48:48Z</time>
      </trkpt>
      <trkpt lat="49.38668" lon="-0.93136">
        <ele>39.1</ele>
        <time>2020-06-16T15:48:49Z</time>
      </trkpt>
      <trkpt lat="49.38666" lon="-0.93131">
        <ele>39.1</ele>
        <time>2020-06-16T15:48:50Z</time>
      </trkpt>
      <trkpt lat="49.38662" lon="-0.93125">
        <ele>39.2</ele>
        <time>2020-06-16T15:48:51Z</time>
      </trkpt>
      <trkpt lat="49.38659" lon="-0.93119">
        <ele>39.2</ele>
        <time>2020-06-16T15:48:52Z</time>
      </trkpt>
      <trkpt lat="49.38655" lon="-0.93114">
        <ele>39.2</ele>
        <time>2020-06-16T15:48:53Z</time>
      </trkpt>
      <trkpt lat="49.38652" lon="-0.93109">
        <ele>39.3</ele>
        <time>2020-06-16T15:48:54Z</time>
      </trkpt>
      <trkpt lat="49.38648" lon="-0.93104">
        <ele>39.3</ele>
        <time>2020-06-16T15:48:55Z</time>
      </trkpt>
      <trkpt lat="49.38644" lon="-0.93099">
        <ele>39.3</ele>
        <time>2020-06-16T15:48:56Z</time>
      </trkpt>
      <trkpt lat="49.3864" lon="-0.93093">
        <ele>39.4</ele>
        <time>2020-06-16T15:48:57Z</time>
      </trkpt>
      <trkpt lat="49.38637" lon="-0.93087">
        <ele>39.4</ele>
        <time>2020-06-16T15:48:58Z</time>
      </trkpt>
      <trkpt lat="49.38633" lon="-0.93081">
        <ele>39.5</ele>
        <time>2020-06-16T15:48:59Z</time>
      </trkpt>
      <trkpt lat="49.3863" lon="-0.93076">
        <ele>39.5</ele>
        <time>2020-06-16T15:49:00Z</time>
      </trkpt>
      <trkpt lat="49.38626" lon="-0.93071">
        <ele>39.6</ele>
        <time>2020-06-16T15:49:01Z</time>
      </trkpt>
      <trkpt lat="49.38623" lon="-0.93066">
        <ele>39.6</ele>
        <time>2020-06-16T15:49:02Z</time>
      </trkpt>
      <trkpt lat="49.3862" lon="-0.93061">
        <ele>39.6</ele>
        <time>2020-06-16T15:49:03Z</time>
      </trkpt>
      <trkpt lat="49.38617" lon="-0.93057">
        <ele>39.6</ele>
        <time>2020-06-16T15:49:04Z</time>
      </trkpt>
      <trkpt lat="49.38614" lon="-0.93052">
        <ele>39.6</ele>
        <time>2020-06-16T15:49:05Z</time>
      </trkpt>
      <trkpt lat="49.3861" lon="-0.93048">
        <ele>39.6</ele>
        <time>2020-06-16T15:49:06Z</time>
      </trkpt>
      <trkpt lat="49.38606" lon="-0.93044">
        <ele>39.7</ele>
        <time>2020-06-16T15:49:07Z</time>
      </trkpt>
      <trkpt lat="49.38602" lon="-0.9304">
        <ele>39.7</ele>
        <time>2020-06-16T15:49:08Z</time>
      </trkpt>
      <trkpt lat="49.38598" lon="-0.93036">
        <ele>39.7</ele>
        <time>2020-06-16T15:49:09Z</time>
      </trkpt>
      <trkpt lat="49.38594" lon="-0.93032">
        <ele>39.8</ele>
        <time>2020-06-16T15:49:10Z</time>
      </trkpt>
      <trkpt lat="49.3859" lon="-0.93027">
        <ele>39.9</ele>
        <time>2020-06-16T15:49:11Z</time>
      </trkpt>
      <trkpt lat="49.38587" lon="-0.93022">
        <ele>39.9</ele>
        <time>2020-06-16T15:49:12Z</time>
      </trkpt>
      <trkpt lat="49.38583" lon="-0.93017">
        <ele>40</ele>
        <time>2020-06-16T15:49:13Z</time>
      </trkpt>
      <trkpt lat="49.3858" lon="-0.93011">
        <ele>40.1</ele>
        <time>2020-06-16T15:49:14Z</time>
      </trkpt>
      <trkpt lat="49.38576" lon="-0.93006">
        <ele>40.2</ele>
        <time>2020-06-16T15:49:15Z</time>
      </trkpt>
      <trkpt lat="49.38572" lon="-0.93001">
        <ele>40.3</ele>
        <time>2020-06-16T15:49:16Z</time>
      </trkpt>
      <trkpt lat="49.38568" lon="-0.92996">
        <ele>40.3</ele>
        <time>2020-06-16T15:49:17Z</time>
      </trkpt>
      <trkpt lat="49.38563" lon="-0.92992">
        <ele>40.4</ele>
        <time>2020-06-16T15:49:18Z</time>
      </trkpt>
      <trkpt lat="49.38559" lon="-0.92986">
        <ele>40.5</ele>
        <time>2020-06-16T15:49:19Z</time>
      </trkpt>
      <trkpt lat="49.38557" lon="-0.9298">
        <ele>40.6</ele>
        <time>2020-06-16T15:49:20Z</time>
      </trkpt>
      <trkpt lat="49.38554" lon="-0.92975">
        <ele>40.7</ele>
        <time>2020-06-16T15:49:21Z</time>
      </trkpt>
      <trkpt lat="49.38551" lon="-0.9297">
        <ele>40.7</ele>
        <time>2020-06-16T15:49:22Z</time>
      </trkpt>
      <trkpt lat="49.38548" lon="-0.92965">
        <ele>40.8</ele>
        <time>2020-06-16T15:49:23Z</time>
      </trkpt>
      <trkpt lat="49.38545" lon="-0.9296">
        <ele>40.8</ele>
        <time>2020-06-16T15:49:24Z</time>
      </trkpt>
      <trkpt lat="49.38541" lon="-0.92955">
        <ele>40.8</ele>
        <time>2020-06-16T15:49:25Z</time>
      </trkpt>
      <trkpt lat="49.38538" lon="-0.9295">
        <ele>40.9</ele>
        <time>2020-06-16T15:49:26Z</time>
      </trkpt>
      <trkpt lat="49.38534" lon="-0.92946">
        <ele>40.9</ele>
        <time>2020-06-16T15:49:27Z</time>
      </trkpt>
      <trkpt lat="49.38531" lon="-0.92941">
        <ele>41</ele>
        <time>2020-06-16T15:49:28Z</time>
      </trkpt>
      <trkpt lat="49.38526" lon="-0.92935">
        <ele>41.1</ele>
        <time>2020-06-16T15:49:29Z</time>
      </trkpt>
      <trkpt lat="49.38523" lon="-0.92929">
        <ele>41.2</ele>
        <time>2020-06-16T15:49:30Z</time>
      </trkpt>
      <trkpt lat="49.38519" lon="-0.92924">
        <ele>41.3</ele>
        <time>2020-06-16T15:49:31Z</time>
      </trkpt>
      <trkpt lat="49.38515" lon="-0.92918">
        <ele>41.4</ele>
        <time>2020-06-16T15:49:32Z</time>
      </trkpt>
      <trkpt lat="49.38511" lon="-0.92912">
        <ele>41.3</ele>
        <time>2020-06-16T15:49:33Z</time>
      </trkpt>
      <trkpt lat="49.38507" lon="-0.92907">
        <ele>41.3</ele>
        <time>2020-06-16T15:49:34Z</time>
      </trkpt>
      <trkpt lat="49.38504" lon="-0.92901">
        <ele>41.3</ele>
        <time>2020-06-16T15:49:35Z</time>
      </trkpt>
      <trkpt lat="49.385" lon="-0.92894">
        <ele>41.3</ele>
        <time>2020-06-16T15:49:36Z</time>
      </trkpt>
      <trkpt lat="49.38497" lon="-0.92889">
        <ele>41.3</ele>
        <time>2020-06-16T15:49:37Z</time>
      </trkpt>
      <trkpt lat="49.38493" lon="-0.92884">
        <ele>41.3</ele>
        <time>2020-06-16T15:49:38Z</time>
      </trkpt>
      <trkpt lat="49.38489" lon="-0.92879">
        <ele>41.4</ele>
        <time>2020-06-16T15:49:39Z</time>
      </trkpt>
      <trkpt lat="49.38485" lon="-0.92874">
        <ele>41.4</ele>
        <time>2020-06-16T15:49:40Z</time>
      </trkpt>
      <trkpt lat="49.3848" lon="-0.9287">
        <ele>41.4</ele>
        <time>2020-06-16T15:49:41Z</time>
      </trkpt>
      <trkpt lat="49.38476" lon="-0.92864">
        <ele>41.4</ele>
        <time>2020-06-16T15:49:42Z</time>
      </trkpt>
      <trkpt lat="49.38472" lon="-0.92859">
        <ele>41.5</ele>
        <time>2020-06-16T15:49:43Z</time>
      </trkpt>
      <trkpt lat="49.38468" lon="-0.92854">
        <ele>41.5</ele>
        <time>2020-06-16T15:49:44Z</time>
      </trkpt>
      <trkpt lat="49.38465" lon="-0.92849">
        <ele>41.5</ele>
        <time>2020-06-16T15:49:45Z</time>
      </trkpt>
      <trkpt lat="49.38461" lon="-0.92843">
        <ele>41.5</ele>
        <time>2020-06-16T15:49:46Z</time>
      </trkpt>
      <trkpt lat="49.38458" lon="-0.92836">
        <ele>41.5</ele>
        <time>2020-06-16T15:49:47Z</time>
      </trkpt>
      <trkpt lat="49.38454" lon="-0.9283">
        <ele>41.6</ele>
        <time>2020-06-16T15:49:48Z</time>
      </trkpt>
      <trkpt lat="49.3845" lon="-0.92824">
        <ele>41.6</ele>
        <time>2020-06-16T15:49:49Z</time>
      </trkpt>
      <trkpt lat="49.38447" lon="-0.92819">
        <ele>41.6</ele>
        <time>2020-06-16T15:49:50Z</time>
      </trkpt>
      <trkpt lat="49.38444" lon="-0.92814">
        <ele>41.7</ele>
        <time>2020-06-16T15:49:51Z</time>
      </trkpt>
      <trkpt lat="49.3844" lon="-0.92809">
        <ele>41.7</ele>
        <time>2020-06-16T15:49:52Z</time>
      </trkpt>
      <trkpt lat="49.38437" lon="-0.92802">
        <ele>41.7</ele>
        <time>2020-06-16T15:49:53Z</time>
      </trkpt>
      <trkpt lat="49.38433" lon="-0.92797">
        <ele>41.7</ele>
        <time>2020-06-16T15:49:54Z</time>
      </trkpt>
      <trkpt lat="49.3843" lon="-0.92791">
        <ele>41.8</ele>
        <time>2020-06-16T15:49:55Z</time>
      </trkpt>
      <trkpt lat="49.38426" lon="-0.92785">
        <ele>41.8</ele>
        <time>2020-06-16T15:49:56Z</time>
      </trkpt>
      <trkpt lat="49.38423" lon="-0.92779">
        <ele>41.8</ele>
        <time>2020-06-16T15:49:57Z</time>
      </trkpt>
      <trkpt lat="49.3842" lon="-0.92772">
        <ele>41.9</ele>
        <time>2020-06-16T15:49:58Z</time>
      </trkpt>
      <trkpt lat="49.38416" lon="-0.92766">
        <ele>41.9</ele>
        <time>2020-06-16T15:49:59Z</time>
      </trkpt>
      <trkpt lat="49.38411" lon="-0.92761">
        <ele>41.9</ele>
        <time>2020-06-16T15:50:00Z</time>
      </trkpt>
      <trkpt lat="49.38406" lon="-0.92755">
        <ele>42</ele>
        <time>2020-06-16T15:50:01Z</time>
      </trkpt>
      <trkpt lat="49.38403" lon="-0.92749">
        <ele>42</ele>
        <time>2020-06-16T15:50:02Z</time>
      </trkpt>
      <trkpt lat="49.384" lon="-0.92742">
        <ele>42.1</ele>
        <time>2020-06-16T15:50:03Z</time>
      </trkpt>
      <trkpt lat="49.38397" lon="-0.92735">
        <ele>42.2</ele>
        <time>2020-06-16T15:50:04Z</time>
      </trkpt>
      <trkpt lat="49.38396" lon="-0.92728">
        <ele>42.2</ele>
        <time>2020-06-16T15:50:05Z</time>
      </trkpt>
      <trkpt lat="49.38394" lon="-0.9272">
        <ele>42.2</ele>
        <time>2020-06-16T15:50:06Z</time>
      </trkpt>
      <trkpt lat="49.38392" lon="-0.92712">
        <ele>42.2</ele>
        <time>2020-06-16T15:50:07Z</time>
      </trkpt>
      <trkpt lat="49.38391" lon="-0.92702">
        <ele>42.2</ele>
        <time>2020-06-16T15:50:08Z</time>
      </trkpt>
      <trkpt lat="49.38389" lon="-0.92693">
        <ele>42.2</ele>
        <time>2020-06-16T15:50:09Z</time>
      </trkpt>
      <trkpt lat="49.38388" lon="-0.92683">
        <ele>42.2</ele>
        <time>2020-06-16T15:50:10Z</time>
      </trkpt>
      <trkpt lat="49.38386" lon="-0.92676">
        <ele>42.3</ele>
        <time>2020-06-16T15:50:11Z</time>
      </trkpt>
      <trkpt lat="49.38385" lon="-0.92668">
        <ele>42.4</ele>
        <time>2020-06-16T15:50:12Z</time>
      </trkpt>
      <trkpt lat="49.38383" lon="-0.92659">
        <ele>42.4</ele>
        <time>2020-06-16T15:50:13Z</time>
      </trkpt>
      <trkpt lat="49.38382" lon="-0.92651">
        <ele>42.4</ele>
        <time>2020-06-16T15:50:14Z</time>
      </trkpt>
      <trkpt lat="49.38381" lon="-0.92644">
        <ele>42.5</ele>
        <time>2020-06-16T15:50:15Z</time>
      </trkpt>
      <trkpt lat="49.3838" lon="-0.92636">
        <ele>42.5</ele>
        <time>2020-06-16T15:50:16Z</time>
      </trkpt>
      <trkpt lat="49.38379" lon="-0.92628">
        <ele>42.6</ele>
        <time>2020-06-16T15:50:17Z</time>
      </trkpt>
      <trkpt lat="49.38378" lon="-0.92619">
        <ele>42.6</ele>
        <time>2020-06-16T15:50:18Z</time>
      </trkpt>
      <trkpt lat="49.38376" lon="-0.92611">
        <ele>42.7</ele>
        <time>2020-06-16T15:50:19Z</time>
      </trkpt>
      <trkpt lat="49.38375" lon="-0.92603">
        <ele>42.7</ele>
        <time>2020-06-16T15:50:20Z</time>
      </trkpt>
      <trkpt lat="49.38374" lon="-0.92596">
        <ele>42.8</ele>
        <time>2020-06-16T15:50:21Z</time>
      </trkpt>
      <trkpt lat="49.38373" lon="-0.92588">
        <ele>42.8</ele>
        <time>2020-06-16T15:50:22Z</time>
      </trkpt>
      <trkpt lat="49.38372" lon="-0.9258">
        <ele>42.9</ele>
        <time>2020-06-16T15:50:23Z</time>
      </trkpt>
      <trkpt lat="49.38371" lon="-0.92571">
        <ele>42.9</ele>
        <time>2020-06-16T15:50:24Z</time>
      </trkpt>
      <trkpt lat="49.38369" lon="-0.92563">
        <ele>43</ele>
        <time>2020-06-16T15:50:25Z</time>
      </trkpt>
      <trkpt lat="49.38368" lon="-0.92556">
        <ele>43.1</ele>
        <time>2020-06-16T15:50:26Z</time>
      </trkpt>
      <trkpt lat="49.38367" lon="-0.92548">
        <ele>43.1</ele>
        <time>2020-06-16T15:50:27Z</time>
      </trkpt>
      <trkpt lat="49.38365" lon="-0.92541">
        <ele>43.2</ele>
        <time>2020-06-16T15:50:28Z</time>
      </trkpt>
      <trkpt lat="49.38363" lon="-0.92532">
        <ele>43.2</ele>
        <time>2020-06-16T15:50:29Z</time>
      </trkpt>
      <trkpt lat="49.38361" lon="-0.92525">
        <ele>43.3</ele>
        <time>2020-06-16T15:50:30Z</time>
      </trkpt>
      <trkpt lat="49.38358" lon="-0.92517">
        <ele>43.3</ele>
        <time>2020-06-16T15:50:31Z</time>
      </trkpt>
      <trkpt lat="49.38356" lon="-0.9251">
        <ele>43.4</ele>
        <time>2020-06-16T15:50:32Z</time>
      </trkpt>
      <trkpt lat="49.38353" lon="-0.92502">
        <ele>43.4</ele>
        <time>2020-06-16T15:50:33Z</time>
      </trkpt>
      <trkpt lat="49.38351" lon="-0.92495">
        <ele>43.5</ele>
        <time>2020-06-16T15:50:34Z</time>
      </trkpt>
      <trkpt lat="49.38348" lon="-0.92488">
        <ele>43.5</ele>
        <time>2020-06-16T15:50:35Z</time>
      </trkpt>
      <trkpt lat="49.38345" lon="-0.92481">
        <ele>43.5</ele>
        <time>2020-06-16T15:50:36Z</time>
      </trkpt>
      <trkpt lat="49.38342" lon="-0.92475">
        <ele>43.5</ele>
        <time>2020-06-16T15:50:37Z</time>
      </trkpt>
      <trkpt lat="49.38339" lon="-0.92468">
        <ele>43.5</ele>
        <time>2020-06-16T15:50:38Z</time>
      </trkpt>
      <trkpt lat="49.38336" lon="-0.92462">
        <ele>43.5</ele>
        <time>2020-06-16T15:50:39Z</time>
      </trkpt>
      <trkpt lat="49.38333" lon="-0.92456">
        <ele>43.6</ele>
        <time>2020-06-16T15:50:40Z</time>
      </trkpt>
      <trkpt lat="49.3833" lon="-0.92449">
        <ele>43.6</ele>
        <time>2020-06-16T15:50:41Z</time>
      </trkpt>
      <trkpt lat="49.38328" lon="-0.92445">
        <ele>43.6</ele>
        <time>2020-06-16T15:50:42Z</time>
      </trkpt>
      <trkpt lat="49.38325" lon="-0.9244">
        <ele>43.6</ele>
        <time>2020-06-16T15:50:43Z</time>
      </trkpt>
      <trkpt lat="49.38323" lon="-0.92435">
        <ele>43.6</ele>
        <time>2020-06-16T15:50:44Z</time>
      </trkpt>
      <trkpt lat="49.3832" lon="-0.9243">
        <ele>43.6</ele>
        <time>2020-06-16T15:50:45Z</time>
      </trkpt>
      <trkpt lat="49.38317" lon="-0.92425">
        <ele>43.6</ele>
        <time>2020-06-16T15:50:46Z</time>
      </trkpt>
      <trkpt lat="49.38313" lon="-0.9242">
        <ele>43.7</ele>
        <time>2020-06-16T15:50:47Z</time>
      </trkpt>
      <trkpt lat="49.3831" lon="-0.92416">
        <ele>43.7</ele>
        <time>2020-06-16T15:50:48Z</time>
      </trkpt>
      <trkpt lat="49.38307" lon="-0.92411">
        <ele>43.7</ele>
        <time>2020-06-16T15:50:49Z</time>
      </trkpt>
      <trkpt lat="49.38304" lon="-0.92405">
        <ele>43.8</ele>
        <time>2020-06-16T15:50:50Z</time>
      </trkpt>
      <trkpt lat="49.383" lon="-0.92399">
        <ele>43.8</ele>
        <time>2020-06-16T15:50:51Z</time>
      </trkpt>
      <trkpt lat="49.38296" lon="-0.92391">
        <ele>43.9</ele>
        <time>2020-06-16T15:50:52Z</time>
      </trkpt>
      <trkpt lat="49.38293" lon="-0.92384">
        <ele>44</ele>
        <time>2020-06-16T15:50:53Z</time>
      </trkpt>
      <trkpt lat="49.38289" lon="-0.92379">
        <ele>44</ele>
        <time>2020-06-16T15:50:54Z</time>
      </trkpt>
      <trkpt lat="49.38285" lon="-0.92372">
        <ele>44.1</ele>
        <time>2020-06-16T15:50:55Z</time>
      </trkpt>
      <trkpt lat="49.38281" lon="-0.92365">
        <ele>44.2</ele>
        <time>2020-06-16T15:50:56Z</time>
      </trkpt>
      <trkpt lat="49.38277" lon="-0.92359">
        <ele>44.3</ele>
        <time>2020-06-16T15:50:57Z</time>
      </trkpt>
      <trkpt lat="49.38275" lon="-0.92353">
        <ele>44.3</ele>
        <time>2020-06-16T15:50:58Z</time>
      </trkpt>
      <trkpt lat="49.38271" lon="-0.92347">
        <ele>44.4</ele>
        <time>2020-06-16T15:50:59Z</time>
      </trkpt>
      <trkpt lat="49.38268" lon="-0.9234">
        <ele>44.4</ele>
        <time>2020-06-16T15:51:00Z</time>
      </trkpt>
      <trkpt lat="49.38265" lon="-0.92333">
        <ele>44.4</ele>
        <time>2020-06-16T15:51:01Z</time>
      </trkpt>
      <trkpt lat="49.38262" lon="-0.92326">
        <ele>44.5</ele>
        <time>2020-06-16T15:51:02Z</time>
      </trkpt>
      <trkpt lat="49.38259" lon="-0.9232">
        <ele>44.5</ele>
        <time>2020-06-16T15:51:03Z</time>
      </trkpt>
      <trkpt lat="49.38256" lon="-0.92314">
        <ele>44.5</ele>
        <time>2020-06-16T15:51:04Z</time>
      </trkpt>
      <trkpt lat="49.38253" lon="-0.92307">
        <ele>44.6</ele>
        <time>2020-06-16T15:51:05Z</time>
      </trkpt>
      <trkpt lat="49.3825" lon="-0.92302">
        <ele>44.6</ele>
        <time>2020-06-16T15:51:06Z</time>
      </trkpt>
      <trkpt lat="49.38246" lon="-0.92296">
        <ele>44.7</ele>
        <time>2020-06-16T15:51:07Z</time>
      </trkpt>
      <trkpt lat="49.38242" lon="-0.9229">
        <ele>44.7</ele>
        <time>2020-06-16T15:51:08Z</time>
      </trkpt>
      <trkpt lat="49.38239" lon="-0.92283">
        <ele>44.8</ele>
        <time>2020-06-16T15:51:09Z</time>
      </trkpt>
      <trkpt lat="49.38235" lon="-0.92275">
        <ele>44.9</ele>
        <time>2020-06-16T15:51:10Z</time>
      </trkpt>
      <trkpt lat="49.38231" lon="-0.92267">
        <ele>45</ele>
        <time>2020-06-16T15:51:11Z</time>
      </trkpt>
      <trkpt lat="49.38228" lon="-0.9226">
        <ele>45</ele>
        <time>2020-06-16T15:51:12Z</time>
      </trkpt>
      <trkpt lat="49.38224" lon="-0.92254">
        <ele>45.1</ele>
        <time>2020-06-16T15:51:13Z</time>
      </trkpt>
      <trkpt lat="49.3822" lon="-0.92248">
        <ele>45.1</ele>
        <time>2020-06-16T15:51:14Z</time>
      </trkpt>
      <trkpt lat="49.38217" lon="-0.92242">
        <ele>45.1</ele>
        <time>2020-06-16T15:51:15Z</time>
      </trkpt>
      <trkpt lat="49.38213" lon="-0.92237">
        <ele>45.2</ele>
        <time>2020-06-16T15:51:16Z</time>
      </trkpt>
      <trkpt lat="49.3821" lon="-0.92231">
        <ele>45.2</ele>
        <time>2020-06-16T15:51:17Z</time>
      </trkpt>
      <trkpt lat="49.38208" lon="-0.92226">
        <ele>45.2</ele>
        <time>2020-06-16T15:51:18Z</time>
      </trkpt>
      <trkpt lat="49.38205" lon="-0.92219">
        <ele>45.2</ele>
        <time>2020-06-16T15:51:19Z</time>
      </trkpt>
      <trkpt lat="49.38201" lon="-0.92213">
        <ele>45.3</ele>
        <time>2020-06-16T15:51:20Z</time>
      </trkpt>
      <trkpt lat="49.38198" lon="-0.92208">
        <ele>45.3</ele>
        <time>2020-06-16T15:51:21Z</time>
      </trkpt>
      <trkpt lat="49.38195" lon="-0.92204">
        <ele>45.3</ele>
        <time>2020-06-16T15:51:22Z</time>
      </trkpt>
      <trkpt lat="49.38192" lon="-0.92199">
        <ele>45.3</ele>
        <time>2020-06-16T15:51:23Z</time>
      </trkpt>
      <trkpt lat="49.38188" lon="-0.92194">
        <ele>45.3</ele>
        <time>2020-06-16T15:51:24Z</time>
      </trkpt>
      <trkpt lat="49.38185" lon="-0.92188">
        <ele>45.4</ele>
        <time>2020-06-16T15:51:25Z</time>
      </trkpt>
      <trkpt lat="49.38182" lon="-0.92182">
        <ele>45.4</ele>
        <time>2020-06-16T15:51:26Z</time>
      </trkpt>
      <trkpt lat="49.38179" lon="-0.92175">
        <ele>45.4</ele>
        <time>2020-06-16T15:51:27Z</time>
      </trkpt>
      <trkpt lat="49.38176" lon="-0.92167">
        <ele>45.4</ele>
        <time>2020-06-16T15:51:28Z</time>
      </trkpt>
      <trkpt lat="49.38173" lon="-0.9216">
        <ele>45.5</ele>
        <time>2020-06-16T15:51:29Z</time>
      </trkpt>
      <trkpt lat="49.38171" lon="-0.92154">
        <ele>45.5</ele>
        <time>2020-06-16T15:51:30Z</time>
      </trkpt>
      <trkpt lat="49.38167" lon="-0.92149">
        <ele>45.5</ele>
        <time>2020-06-16T15:51:31Z</time>
      </trkpt>
      <trkpt lat="49.38164" lon="-0.92143">
        <ele>45.5</ele>
        <time>2020-06-16T15:51:32Z</time>
      </trkpt>
      <trkpt lat="49.38161" lon="-0.92138">
        <ele>45.6</ele>
        <time>2020-06-16T15:51:33Z</time>
      </trkpt>
      <trkpt lat="49.38157" lon="-0.92132">
        <ele>45.6</ele>
        <time>2020-06-16T15:51:34Z</time>
      </trkpt>
      <trkpt lat="49.38154" lon="-0.92127">
        <ele>45.6</ele>
        <time>2020-06-16T15:51:35Z</time>
      </trkpt>
      <trkpt lat="49.38151" lon="-0.92122">
        <ele>45.7</ele>
        <time>2020-06-16T15:51:36Z</time>
      </trkpt>
      <trkpt lat="49.38148" lon="-0.92117">
        <ele>45.7</ele>
        <time>2020-06-16T15:51:37Z</time>
      </trkpt>
      <trkpt lat="49.38145" lon="-0.92113">
        <ele>45.8</ele>
        <time>2020-06-16T15:51:38Z</time>
      </trkpt>
      <trkpt lat="49.38142" lon="-0.92107">
        <ele>45.8</ele>
        <time>2020-06-16T15:51:39Z</time>
      </trkpt>
      <trkpt lat="49.38139" lon="-0.921">
        <ele>45.8</ele>
        <time>2020-06-16T15:51:40Z</time>
      </trkpt>
      <trkpt lat="49.38136" lon="-0.92093">
        <ele>45.8</ele>
        <time>2020-06-16T15:51:41Z</time>
      </trkpt>
      <trkpt lat="49.38133" lon="-0.92086">
        <ele>45.8</ele>
        <time>2020-06-16T15:51:42Z</time>
      </trkpt>
      <trkpt lat="49.3813" lon="-0.92078">
        <ele>45.8</ele>
        <time>2020-06-16T15:51:43Z</time>
      </trkpt>
      <trkpt lat="49.38126" lon="-0.9207">
        <ele>45.8</ele>
        <time>2020-06-16T15:51:44Z</time>
      </trkpt>
      <trkpt lat="49.38123" lon="-0.92062">
        <ele>45.8</ele>
        <time>2020-06-16T15:51:45Z</time>
      </trkpt>
      <trkpt lat="49.38119" lon="-0.92055">
        <ele>45.8</ele>
        <time>2020-06-16T15:51:46Z</time>
      </trkpt>
      <trkpt lat="49.38116" lon="-0.92047">
        <ele>45.8</ele>
        <time>2020-06-16T15:51:47Z</time>
      </trkpt>
      <trkpt lat="49.38112" lon="-0.92039">
        <ele>45.8</ele>
        <time>2020-06-16T15:51:48Z</time>
      </trkpt>
      <trkpt lat="49.38108" lon="-0.92031">
        <ele>45.9</ele>
        <time>2020-06-16T15:51:49Z</time>
      </trkpt>
      <trkpt lat="49.38103" lon="-0.92023">
        <ele>46</ele>
        <time>2020-06-16T15:51:50Z</time>
      </trkpt>
      <trkpt lat="49.38099" lon="-0.92017">
        <ele>45.9</ele>
        <time>2020-06-16T15:51:51Z</time>
      </trkpt>
      <trkpt lat="49.38095" lon="-0.92011">
        <ele>45.9</ele>
        <time>2020-06-16T15:51:52Z</time>
      </trkpt>
      <trkpt lat="49.38091" lon="-0.92005">
        <ele>45.9</ele>
        <time>2020-06-16T15:51:53Z</time>
      </trkpt>
      <trkpt lat="49.38087" lon="-0.91998">
        <ele>45.9</ele>
        <time>2020-06-16T15:51:54Z</time>
      </trkpt>
      <trkpt lat="49.38083" lon="-0.91991">
        <ele>45.8</ele>
        <time>2020-06-16T15:51:55Z</time>
      </trkpt>
      <trkpt lat="49.38079" lon="-0.91984">
        <ele>45.8</ele>
        <time>2020-06-16T15:51:56Z</time>
      </trkpt>
      <trkpt lat="49.38074" lon="-0.91976">
        <ele>45.8</ele>
        <time>2020-06-16T15:51:57Z</time>
      </trkpt>
      <trkpt lat="49.3807" lon="-0.9197">
        <ele>45.8</ele>
        <time>2020-06-16T15:51:58Z</time>
      </trkpt>
      <trkpt lat="49.38064" lon="-0.91963">
        <ele>45.8</ele>
        <time>2020-06-16T15:51:59Z</time>
      </trkpt>
      <trkpt lat="49.38058" lon="-0.91957">
        <ele>45.8</ele>
        <time>2020-06-16T15:52:00Z</time>
      </trkpt>
      <trkpt lat="49.38053" lon="-0.9195">
        <ele>45.7</ele>
        <time>2020-06-16T15:52:01Z</time>
      </trkpt>
      <trkpt lat="49.38049" lon="-0.91943">
        <ele>45.7</ele>
        <time>2020-06-16T15:52:02Z</time>
      </trkpt>
      <trkpt lat="49.38044" lon="-0.91937">
        <ele>45.7</ele>
        <time>2020-06-16T15:52:03Z</time>
      </trkpt>
      <trkpt lat="49.3804" lon="-0.91933">
        <ele>45.7</ele>
        <time>2020-06-16T15:52:04Z</time>
      </trkpt>
      <trkpt lat="49.38036" lon="-0.91929">
        <ele>45.7</ele>
        <time>2020-06-16T15:52:05Z</time>
      </trkpt>
      <trkpt lat="49.38032" lon="-0.91922">
        <ele>45.6</ele>
        <time>2020-06-16T15:52:06Z</time>
      </trkpt>
      <trkpt lat="49.38027" lon="-0.91916">
        <ele>45.6</ele>
        <time>2020-06-16T15:52:07Z</time>
      </trkpt>
      <trkpt lat="49.38023" lon="-0.9191">
        <ele>45.6</ele>
        <time>2020-06-16T15:52:08Z</time>
      </trkpt>
      <trkpt lat="49.38019" lon="-0.91905">
        <ele>45.5</ele>
        <time>2020-06-16T15:52:09Z</time>
      </trkpt>
      <trkpt lat="49.38015" lon="-0.919">
        <ele>45.5</ele>
        <time>2020-06-16T15:52:10Z</time>
      </trkpt>
      <trkpt lat="49.38012" lon="-0.91895">
        <ele>45.5</ele>
        <time>2020-06-16T15:52:11Z</time>
      </trkpt>
      <trkpt lat="49.38008" lon="-0.91889">
        <ele>45.4</ele>
        <time>2020-06-16T15:52:12Z</time>
      </trkpt>
      <trkpt lat="49.38005" lon="-0.91884">
        <ele>45.4</ele>
        <time>2020-06-16T15:52:13Z</time>
      </trkpt>
      <trkpt lat="49.38002" lon="-0.91878">
        <ele>45.4</ele>
        <time>2020-06-16T15:52:14Z</time>
      </trkpt>
      <trkpt lat="49.37999" lon="-0.91872">
        <ele>45.3</ele>
        <time>2020-06-16T15:52:15Z</time>
      </trkpt>
      <trkpt lat="49.37997" lon="-0.91866">
        <ele>45.3</ele>
        <time>2020-06-16T15:52:16Z</time>
      </trkpt>
      <trkpt lat="49.37993" lon="-0.9186">
        <ele>45.3</ele>
        <time>2020-06-16T15:52:17Z</time>
      </trkpt>
      <trkpt lat="49.37989" lon="-0.91851">
        <ele>45.2</ele>
        <time>2020-06-16T15:52:18Z</time>
      </trkpt>
      <trkpt lat="49.37986" lon="-0.91843">
        <ele>45.2</ele>
        <time>2020-06-16T15:52:19Z</time>
      </trkpt>
      <trkpt lat="49.37982" lon="-0.91834">
        <ele>45.2</ele>
        <time>2020-06-16T15:52:20Z</time>
      </trkpt>
      <trkpt lat="49.37978" lon="-0.91827">
        <ele>45.1</ele>
        <time>2020-06-16T15:52:21Z</time>
      </trkpt>
      <trkpt lat="49.37974" lon="-0.9182">
        <ele>45.1</ele>
        <time>2020-06-16T15:52:22Z</time>
      </trkpt>
      <trkpt lat="49.3797" lon="-0.91814">
        <ele>45</ele>
        <time>2020-06-16T15:52:23Z</time>
      </trkpt>
      <trkpt lat="49.37966" lon="-0.91807">
        <ele>45</ele>
        <time>2020-06-16T15:52:24Z</time>
      </trkpt>
      <trkpt lat="49.37962" lon="-0.91801">
        <ele>45</ele>
        <time>2020-06-16T15:52:25Z</time>
      </trkpt>
      <trkpt lat="49.37957" lon="-0.91794">
        <ele>45</ele>
        <time>2020-06-16T15:52:26Z</time>
      </trkpt>
      <trkpt lat="49.37952" lon="-0.91787">
        <ele>45</ele>
        <time>2020-06-16T15:52:27Z</time>
      </trkpt>
      <trkpt lat="49.37948" lon="-0.91779">
        <ele>45</ele>
        <time>2020-06-16T15:52:28Z</time>
      </trkpt>
      <trkpt lat="49.37944" lon="-0.91772">
        <ele>45</ele>
        <time>2020-06-16T15:52:29Z</time>
      </trkpt>
      <trkpt lat="49.37939" lon="-0.91766">
        <ele>44.9</ele>
        <time>2020-06-16T15:52:30Z</time>
      </trkpt>
      <trkpt lat="49.37934" lon="-0.9176">
        <ele>44.9</ele>
        <time>2020-06-16T15:52:31Z</time>
      </trkpt>
      <trkpt lat="49.3793" lon="-0.91753">
        <ele>44.8</ele>
        <time>2020-06-16T15:52:32Z</time>
      </trkpt>
      <trkpt lat="49.37925" lon="-0.91747">
        <ele>44.8</ele>
        <time>2020-06-16T15:52:33Z</time>
      </trkpt>
      <trkpt lat="49.3792" lon="-0.9174">
        <ele>44.8</ele>
        <time>2020-06-16T15:52:34Z</time>
      </trkpt>
      <trkpt lat="49.37914" lon="-0.91734">
        <ele>44.8</ele>
        <time>2020-06-16T15:52:35Z</time>
      </trkpt>
      <trkpt lat="49.37909" lon="-0.91728">
        <ele>44.8</ele>
        <time>2020-06-16T15:52:36Z</time>
      </trkpt>
      <trkpt lat="49.37903" lon="-0.91723">
        <ele>44.8</ele>
        <time>2020-06-16T15:52:37Z</time>
      </trkpt>
      <trkpt lat="49.37898" lon="-0.91719">
        <ele>44.8</ele>
        <time>2020-06-16T15:52:38Z</time>
      </trkpt>
      <trkpt lat="49.37893" lon="-0.91713">
        <ele>44.8</ele>
        <time>2020-06-16T15:52:39Z</time>
      </trkpt>
      <trkpt lat="49.37888" lon="-0.91708">
        <ele>44.9</ele>
        <time>2020-06-16T15:52:40Z</time>
      </trkpt>
      <trkpt lat="49.37882" lon="-0.91703">
        <ele>44.9</ele>
        <time>2020-06-16T15:52:41Z</time>
      </trkpt>
      <trkpt lat="49.37877" lon="-0.91697">
        <ele>44.9</ele>
        <time>2020-06-16T15:52:42Z</time>
      </trkpt>
      <trkpt lat="49.37872" lon="-0.91692">
        <ele>45</ele>
        <time>2020-06-16T15:52:43Z</time>
      </trkpt>
      <trkpt lat="49.37867" lon="-0.91685">
        <ele>45</ele>
        <time>2020-06-16T15:52:44Z</time>
      </trkpt>
      <trkpt lat="49.37862" lon="-0.91679">
        <ele>45.1</ele>
        <time>2020-06-16T15:52:45Z</time>
      </trkpt>
      <trkpt lat="49.37856" lon="-0.91675">
        <ele>45.1</ele>
        <time>2020-06-16T15:52:46Z</time>
      </trkpt>
      <trkpt lat="49.3785" lon="-0.9167">
        <ele>45.1</ele>
        <time>2020-06-16T15:52:47Z</time>
      </trkpt>
      <trkpt lat="49.37845" lon="-0.91664">
        <ele>45.1</ele>
        <time>2020-06-16T15:52:48Z</time>
      </trkpt>
      <trkpt lat="49.37842" lon="-0.9166">
        <ele>45.1</ele>
        <time>2020-06-16T15:52:49Z</time>
      </trkpt>
      <trkpt lat="49.37837" lon="-0.91655">
        <ele>45.1</ele>
        <time>2020-06-16T15:52:50Z</time>
      </trkpt>
      <trkpt lat="49.37832" lon="-0.91649">
        <ele>45.1</ele>
        <time>2020-06-16T15:52:51Z</time>
      </trkpt>
      <trkpt lat="49.37828" lon="-0.91643">
        <ele>45.2</ele>
        <time>2020-06-16T15:52:52Z</time>
      </trkpt>
      <trkpt lat="49.37823" lon="-0.91639">
        <ele>45.2</ele>
        <time>2020-06-16T15:52:53Z</time>
      </trkpt>
      <trkpt lat="49.37819" lon="-0.91632">
        <ele>45.2</ele>
        <time>2020-06-16T15:52:54Z</time>
      </trkpt>
      <trkpt lat="49.37815" lon="-0.91625">
        <ele>45.1</ele>
        <time>2020-06-16T15:52:55Z</time>
      </trkpt>
      <trkpt lat="49.37809" lon="-0.91619">
        <ele>45.1</ele>
        <time>2020-06-16T15:52:56Z</time>
      </trkpt>
      <trkpt lat="49.37804" lon="-0.91614">
        <ele>45</ele>
        <time>2020-06-16T15:52:57Z</time>
      </trkpt>
      <trkpt lat="49.37799" lon="-0.91609">
        <ele>45</ele>
        <time>2020-06-16T15:52:58Z</time>
      </trkpt>
      <trkpt lat="49.37794" lon="-0.91604">
        <ele>44.9</ele>
        <time>2020-06-16T15:52:59Z</time>
      </trkpt>
      <trkpt lat="49.37789" lon="-0.91599">
        <ele>44.8</ele>
        <time>2020-06-16T15:53:00Z</time>
      </trkpt>
      <trkpt lat="49.37784" lon="-0.91593">
        <ele>44.8</ele>
        <time>2020-06-16T15:53:01Z</time>
      </trkpt>
      <trkpt lat="49.3778" lon="-0.91587">
        <ele>44.7</ele>
        <time>2020-06-16T15:53:02Z</time>
      </trkpt>
      <trkpt lat="49.37775" lon="-0.9158">
        <ele>44.6</ele>
        <time>2020-06-16T15:53:03Z</time>
      </trkpt>
      <trkpt lat="49.37771" lon="-0.91574">
        <ele>44.6</ele>
        <time>2020-06-16T15:53:04Z</time>
      </trkpt>
      <trkpt lat="49.37767" lon="-0.91568">
        <ele>44.5</ele>
        <time>2020-06-16T15:53:05Z</time>
      </trkpt>
      <trkpt lat="49.37762" lon="-0.91562">
        <ele>44.4</ele>
        <time>2020-06-16T15:53:06Z</time>
      </trkpt>
      <trkpt lat="49.37758" lon="-0.91556">
        <ele>44.4</ele>
        <time>2020-06-16T15:53:07Z</time>
      </trkpt>
      <trkpt lat="49.37755" lon="-0.9155">
        <ele>44.3</ele>
        <time>2020-06-16T15:53:08Z</time>
      </trkpt>
      <trkpt lat="49.3775" lon="-0.91542">
        <ele>44.3</ele>
        <time>2020-06-16T15:53:09Z</time>
      </trkpt>
      <trkpt lat="49.37745" lon="-0.91535">
        <ele>44.3</ele>
        <time>2020-06-16T15:53:10Z</time>
      </trkpt>
      <trkpt lat="49.3774" lon="-0.91528">
        <ele>44.2</ele>
        <time>2020-06-16T15:53:11Z</time>
      </trkpt>
      <trkpt lat="49.37736" lon="-0.91521">
        <ele>44.2</ele>
        <time>2020-06-16T15:53:12Z</time>
      </trkpt>
      <trkpt lat="49.37732" lon="-0.91514">
        <ele>44.2</ele>
        <time>2020-06-16T15:53:13Z</time>
      </trkpt>
      <trkpt lat="49.37728" lon="-0.91507">
        <ele>44.2</ele>
        <time>2020-06-16T15:53:14Z</time>
      </trkpt>
      <trkpt lat="49.37724" lon="-0.91499">
        <ele>44.2</ele>
        <time>2020-06-16T15:53:15Z</time>
      </trkpt>
      <trkpt lat="49.3772" lon="-0.91492">
        <ele>44.1</ele>
        <time>2020-06-16T15:53:16Z</time>
      </trkpt>
      <trkpt lat="49.37717" lon="-0.91485">
        <ele>44.1</ele>
        <time>2020-06-16T15:53:17Z</time>
      </trkpt>
      <trkpt lat="49.37714" lon="-0.91478">
        <ele>44.1</ele>
        <time>2020-06-16T15:53:18Z</time>
      </trkpt>
      <trkpt lat="49.3771" lon="-0.9147">
        <ele>44.1</ele>
        <time>2020-06-16T15:53:19Z</time>
      </trkpt>
      <trkpt lat="49.37707" lon="-0.91463">
        <ele>44.1</ele>
        <time>2020-06-16T15:53:20Z</time>
      </trkpt>
      <trkpt lat="49.37703" lon="-0.91456">
        <ele>44.1</ele>
        <time>2020-06-16T15:53:21Z</time>
      </trkpt>
      <trkpt lat="49.37699" lon="-0.91449">
        <ele>44.1</ele>
        <time>2020-06-16T15:53:22Z</time>
      </trkpt>
      <trkpt lat="49.37695" lon="-0.91443">
        <ele>44.1</ele>
        <time>2020-06-16T15:53:23Z</time>
      </trkpt>
      <trkpt lat="49.37692" lon="-0.91436">
        <ele>44.1</ele>
        <time>2020-06-16T15:53:24Z</time>
      </trkpt>
      <trkpt lat="49.37688" lon="-0.91429">
        <ele>44.1</ele>
        <time>2020-06-16T15:53:25Z</time>
      </trkpt>
      <trkpt lat="49.37685" lon="-0.91423">
        <ele>44.1</ele>
        <time>2020-06-16T15:53:26Z</time>
      </trkpt>
      <trkpt lat="49.37681" lon="-0.91416">
        <ele>44</ele>
        <time>2020-06-16T15:53:27Z</time>
      </trkpt>
      <trkpt lat="49.37677" lon="-0.91409">
        <ele>44</ele>
        <time>2020-06-16T15:53:28Z</time>
      </trkpt>
      <trkpt lat="49.37672" lon="-0.91402">
        <ele>44</ele>
        <time>2020-06-16T15:53:29Z</time>
      </trkpt>
      <trkpt lat="49.37669" lon="-0.91395">
        <ele>44</ele>
        <time>2020-06-16T15:53:30Z</time>
      </trkpt>
      <trkpt lat="49.37665" lon="-0.91388">
        <ele>44</ele>
        <time>2020-06-16T15:53:31Z</time>
      </trkpt>
      <trkpt lat="49.37661" lon="-0.9138">
        <ele>44</ele>
        <time>2020-06-16T15:53:32Z</time>
      </trkpt>
      <trkpt lat="49.37658" lon="-0.91371">
        <ele>44</ele>
        <time>2020-06-16T15:53:33Z</time>
      </trkpt>
      <trkpt lat="49.37655" lon="-0.91363">
        <ele>44</ele>
        <time>2020-06-16T15:53:34Z</time>
      </trkpt>
      <trkpt lat="49.37652" lon="-0.91355">
        <ele>44</ele>
        <time>2020-06-16T15:53:35Z</time>
      </trkpt>
      <trkpt lat="49.37649" lon="-0.91346">
        <ele>43.9</ele>
        <time>2020-06-16T15:53:36Z</time>
      </trkpt>
      <trkpt lat="49.37645" lon="-0.91338">
        <ele>43.9</ele>
        <time>2020-06-16T15:53:37Z</time>
      </trkpt>
      <trkpt lat="49.37642" lon="-0.9133">
        <ele>43.9</ele>
        <time>2020-06-16T15:53:38Z</time>
      </trkpt>
      <trkpt lat="49.37639" lon="-0.91322">
        <ele>43.9</ele>
        <time>2020-06-16T15:53:39Z</time>
      </trkpt>
      <trkpt lat="49.37635" lon="-0.91313">
        <ele>44</ele>
        <time>2020-06-16T15:53:40Z</time>
      </trkpt>
      <trkpt lat="49.37632" lon="-0.91306">
        <ele>44</ele>
        <time>2020-06-16T15:53:41Z</time>
      </trkpt>
      <trkpt lat="49.37629" lon="-0.91297">
        <ele>44</ele>
        <time>2020-06-16T15:53:42Z</time>
      </trkpt>
      <trkpt lat="49.37627" lon="-0.91289">
        <ele>44</ele>
        <time>2020-06-16T15:53:43Z</time>
      </trkpt>
      <trkpt lat="49.37624" lon="-0.91279">
        <ele>44</ele>
        <time>2020-06-16T15:53:44Z</time>
      </trkpt>
      <trkpt lat="49.37622" lon="-0.91271">
        <ele>44</ele>
        <time>2020-06-16T15:53:45Z</time>
      </trkpt>
      <trkpt lat="49.3762" lon="-0.91262">
        <ele>44</ele>
        <time>2020-06-16T15:53:46Z</time>
      </trkpt>
      <trkpt lat="49.37618" lon="-0.91253">
        <ele>44</ele>
        <time>2020-06-16T15:53:47Z</time>
      </trkpt>
      <trkpt lat="49.37616" lon="-0.91244">
        <ele>44</ele>
        <time>2020-06-16T15:53:48Z</time>
      </trkpt>
      <trkpt lat="49.37613" lon="-0.91235">
        <ele>44</ele>
        <time>2020-06-16T15:53:49Z</time>
      </trkpt>
      <trkpt lat="49.37611" lon="-0.91227">
        <ele>44</ele>
        <time>2020-06-16T15:53:50Z</time>
      </trkpt>
      <trkpt lat="49.37608" lon="-0.91217">
        <ele>44</ele>
        <time>2020-06-16T15:53:51Z</time>
      </trkpt>
      <trkpt lat="49.37606" lon="-0.91207">
        <ele>44</ele>
        <time>2020-06-16T15:53:52Z</time>
      </trkpt>
      <trkpt lat="49.37603" lon="-0.91199">
        <ele>44.1</ele>
        <time>2020-06-16T15:53:53Z</time>
      </trkpt>
      <trkpt lat="49.37601" lon="-0.91189">
        <ele>44.1</ele>
        <time>2020-06-16T15:53:54Z</time>
      </trkpt>
      <trkpt lat="49.37599" lon="-0.9118">
        <ele>44.2</ele>
        <time>2020-06-16T15:53:55Z</time>
      </trkpt>
      <trkpt lat="49.37596" lon="-0.91172">
        <ele>44.3</ele>
        <time>2020-06-16T15:53:56Z</time>
      </trkpt>
      <trkpt lat="49.37593" lon="-0.91163">
        <ele>44.4</ele>
        <time>2020-06-16T15:53:57Z</time>
      </trkpt>
      <trkpt lat="49.37589" lon="-0.91151">
        <ele>44.4</ele>
        <time>2020-06-16T15:53:58Z</time>
      </trkpt>
      <trkpt lat="49.37586" lon="-0.91141">
        <ele>44.3</ele>
        <time>2020-06-16T15:53:59Z</time>
      </trkpt>
      <trkpt lat="49.37582" lon="-0.91131">
        <ele>44.3</ele>
        <time>2020-06-16T15:54:00Z</time>
      </trkpt>
      <trkpt lat="49.37579" lon="-0.91123">
        <ele>44.3</ele>
        <time>2020-06-16T15:54:01Z</time>
      </trkpt>
      <trkpt lat="49.37575" lon="-0.91115">
        <ele>44.2</ele>
        <time>2020-06-16T15:54:02Z</time>
      </trkpt>
      <trkpt lat="49.37572" lon="-0.91107">
        <ele>44.2</ele>
        <time>2020-06-16T15:54:03Z</time>
      </trkpt>
      <trkpt lat="49.37567" lon="-0.91099">
        <ele>44.2</ele>
        <time>2020-06-16T15:54:04Z</time>
      </trkpt>
      <trkpt lat="49.37564" lon="-0.91091">
        <ele>44.1</ele>
        <time>2020-06-16T15:54:05Z</time>
      </trkpt>
      <trkpt lat="49.3756" lon="-0.91082">
        <ele>44</ele>
        <time>2020-06-16T15:54:06Z</time>
      </trkpt>
      <trkpt lat="49.37556" lon="-0.91073">
        <ele>44</ele>
        <time>2020-06-16T15:54:07Z</time>
      </trkpt>
      <trkpt lat="49.37553" lon="-0.91064">
        <ele>43.9</ele>
        <time>2020-06-16T15:54:08Z</time>
      </trkpt>
      <trkpt lat="49.37549" lon="-0.91056">
        <ele>43.9</ele>
        <time>2020-06-16T15:54:09Z</time>
      </trkpt>
      <trkpt lat="49.37546" lon="-0.91048">
        <ele>43.8</ele>
        <time>2020-06-16T15:54:10Z</time>
      </trkpt>
      <trkpt lat="49.37544" lon="-0.9104">
        <ele>43.8</ele>
        <time>2020-06-16T15:54:11Z</time>
      </trkpt>
      <trkpt lat="49.37541" lon="-0.91033">
        <ele>43.7</ele>
        <time>2020-06-16T15:54:12Z</time>
      </trkpt>
      <trkpt lat="49.37539" lon="-0.91026">
        <ele>43.7</ele>
        <time>2020-06-16T15:54:13Z</time>
      </trkpt>
      <trkpt lat="49.37537" lon="-0.91019">
        <ele>43.7</ele>
        <time>2020-06-16T15:54:14Z</time>
      </trkpt>
      <trkpt lat="49.37535" lon="-0.91013">
        <ele>43.6</ele>
        <time>2020-06-16T15:54:15Z</time>
      </trkpt>
      <trkpt lat="49.37533" lon="-0.91006">
        <ele>43.6</ele>
        <time>2020-06-16T15:54:16Z</time>
      </trkpt>
      <trkpt lat="49.37531" lon="-0.90999">
        <ele>43.6</ele>
        <time>2020-06-16T15:54:17Z</time>
      </trkpt>
      <trkpt lat="49.37529" lon="-0.9099">
        <ele>43.5</ele>
        <time>2020-06-16T15:54:18Z</time>
      </trkpt>
      <trkpt lat="49.37528" lon="-0.90981">
        <ele>43.4</ele>
        <time>2020-06-16T15:54:19Z</time>
      </trkpt>
      <trkpt lat="49.37527" lon="-0.90972">
        <ele>43.4</ele>
        <time>2020-06-16T15:54:20Z</time>
      </trkpt>
      <trkpt lat="49.37525" lon="-0.90963">
        <ele>43.3</ele>
        <time>2020-06-16T15:54:21Z</time>
      </trkpt>
      <trkpt lat="49.37522" lon="-0.90953">
        <ele>43.3</ele>
        <time>2020-06-16T15:54:22Z</time>
      </trkpt>
      <trkpt lat="49.37521" lon="-0.90944">
        <ele>43.2</ele>
        <time>2020-06-16T15:54:23Z</time>
      </trkpt>
      <trkpt lat="49.37519" lon="-0.90936">
        <ele>43.1</ele>
        <time>2020-06-16T15:54:24Z</time>
      </trkpt>
      <trkpt lat="49.37517" lon="-0.90927">
        <ele>43.1</ele>
        <time>2020-06-16T15:54:25Z</time>
      </trkpt>
      <trkpt lat="49.37515" lon="-0.90917">
        <ele>43</ele>
        <time>2020-06-16T15:54:26Z</time>
      </trkpt>
      <trkpt lat="49.37514" lon="-0.90909">
        <ele>43</ele>
        <time>2020-06-16T15:54:27Z</time>
      </trkpt>
      <trkpt lat="49.37513" lon="-0.909">
        <ele>43</ele>
        <time>2020-06-16T15:54:28Z</time>
      </trkpt>
      <trkpt lat="49.37511" lon="-0.90892">
        <ele>43</ele>
        <time>2020-06-16T15:54:29Z</time>
      </trkpt>
      <trkpt lat="49.37508" lon="-0.90884">
        <ele>42.9</ele>
        <time>2020-06-16T15:54:30Z</time>
      </trkpt>
      <trkpt lat="49.37508" lon="-0.90877">
        <ele>42.8</ele>
        <time>2020-06-16T15:54:31Z</time>
      </trkpt>
      <trkpt lat="49.37507" lon="-0.90871">
        <ele>42.7</ele>
        <time>2020-06-16T15:54:32Z</time>
      </trkpt>
      <trkpt lat="49.37505" lon="-0.90864">
        <ele>42.5</ele>
        <time>2020-06-16T15:54:33Z</time>
      </trkpt>
      <trkpt lat="49.37503" lon="-0.90857">
        <ele>42.4</ele>
        <time>2020-06-16T15:54:34Z</time>
      </trkpt>
      <trkpt lat="49.37501" lon="-0.90847">
        <ele>42.1</ele>
        <time>2020-06-16T15:54:35Z</time>
      </trkpt>
      <trkpt lat="49.37499" lon="-0.90839">
        <ele>41.9</ele>
        <time>2020-06-16T15:54:36Z</time>
      </trkpt>
      <trkpt lat="49.37497" lon="-0.90829">
        <ele>41.7</ele>
        <time>2020-06-16T15:54:37Z</time>
      </trkpt>
      <trkpt lat="49.37495" lon="-0.90821">
        <ele>41.5</ele>
        <time>2020-06-16T15:54:38Z</time>
      </trkpt>
      <trkpt lat="49.37493" lon="-0.90813">
        <ele>41.3</ele>
        <time>2020-06-16T15:54:39Z</time>
      </trkpt>
      <trkpt lat="49.3749" lon="-0.90803">
        <ele>41.1</ele>
        <time>2020-06-16T15:54:40Z</time>
      </trkpt>
      <trkpt lat="49.37488" lon="-0.90795">
        <ele>40.9</ele>
        <time>2020-06-16T15:54:41Z</time>
      </trkpt>
      <trkpt lat="49.37486" lon="-0.90786">
        <ele>40.7</ele>
        <time>2020-06-16T15:54:42Z</time>
      </trkpt>
      <trkpt lat="49.37484" lon="-0.90777">
        <ele>40.5</ele>
        <time>2020-06-16T15:54:43Z</time>
      </trkpt>
      <trkpt lat="49.37483" lon="-0.90768">
        <ele>40.3</ele>
        <time>2020-06-16T15:54:44Z</time>
      </trkpt>
      <trkpt lat="49.37481" lon="-0.9076">
        <ele>40.1</ele>
        <time>2020-06-16T15:54:45Z</time>
      </trkpt>
      <trkpt lat="49.37479" lon="-0.90752">
        <ele>39.9</ele>
        <time>2020-06-16T15:54:46Z</time>
      </trkpt>
      <trkpt lat="49.37476" lon="-0.90744">
        <ele>39.7</ele>
        <time>2020-06-16T15:54:47Z</time>
      </trkpt>
      <trkpt lat="49.37473" lon="-0.90735">
        <ele>39.5</ele>
        <time>2020-06-16T15:54:48Z</time>
      </trkpt>
      <trkpt lat="49.37472" lon="-0.90727">
        <ele>39.3</ele>
        <time>2020-06-16T15:54:49Z</time>
      </trkpt>
      <trkpt lat="49.37469" lon="-0.90717">
        <ele>39.1</ele>
        <time>2020-06-16T15:54:50Z</time>
      </trkpt>
      <trkpt lat="49.37467" lon="-0.9071">
        <ele>38.9</ele>
        <time>2020-06-16T15:54:51Z</time>
      </trkpt>
      <trkpt lat="49.37466" lon="-0.90702">
        <ele>38.7</ele>
        <time>2020-06-16T15:54:52Z</time>
      </trkpt>
      <trkpt lat="49.37464" lon="-0.90694">
        <ele>38.6</ele>
        <time>2020-06-16T15:54:53Z</time>
      </trkpt>
      <trkpt lat="49.37462" lon="-0.90684">
        <ele>38.5</ele>
        <time>2020-06-16T15:54:54Z</time>
      </trkpt>
      <trkpt lat="49.37461" lon="-0.90674">
        <ele>38.3</ele>
        <time>2020-06-16T15:54:55Z</time>
      </trkpt>
      <trkpt lat="49.3746" lon="-0.90665">
        <ele>38.2</ele>
        <time>2020-06-16T15:54:56Z</time>
      </trkpt>
      <trkpt lat="49.3746" lon="-0.90656">
        <ele>38.1</ele>
        <time>2020-06-16T15:54:57Z</time>
      </trkpt>
      <trkpt lat="49.37459" lon="-0.90647">
        <ele>38.1</ele>
        <time>2020-06-16T15:54:58Z</time>
      </trkpt>
      <trkpt lat="49.3746" lon="-0.90639">
        <ele>38</ele>
        <time>2020-06-16T15:54:59Z</time>
      </trkpt>
      <trkpt lat="49.37461" lon="-0.90629">
        <ele>38</ele>
        <time>2020-06-16T15:55:00Z</time>
      </trkpt>
      <trkpt lat="49.37463" lon="-0.90621">
        <ele>37.7</ele>
        <time>2020-06-16T15:55:01Z</time>
      </trkpt>
      <trkpt lat="49.37466" lon="-0.90613">
        <ele>37.4</ele>
        <time>2020-06-16T15:55:02Z</time>
      </trkpt>
      <trkpt lat="49.37469" lon="-0.90606">
        <ele>37.2</ele>
        <time>2020-06-16T15:55:03Z</time>
      </trkpt>
      <trkpt lat="49.37473" lon="-0.90599">
        <ele>36.9</ele>
        <time>2020-06-16T15:55:04Z</time>
      </trkpt>
      <trkpt lat="49.37477" lon="-0.90591">
        <ele>36.6</ele>
        <time>2020-06-16T15:55:05Z</time>
      </trkpt>
      <trkpt lat="49.3748" lon="-0.90585">
        <ele>36.3</ele>
        <time>2020-06-16T15:55:06Z</time>
      </trkpt>
      <trkpt lat="49.37484" lon="-0.90581">
        <ele>36.1</ele>
        <time>2020-06-16T15:55:07Z</time>
      </trkpt>
      <trkpt lat="49.37488" lon="-0.90575">
        <ele>35.9</ele>
        <time>2020-06-16T15:55:08Z</time>
      </trkpt>
      <trkpt lat="49.37493" lon="-0.90569">
        <ele>35.6</ele>
        <time>2020-06-16T15:55:09Z</time>
      </trkpt>
      <trkpt lat="49.37497" lon="-0.90563">
        <ele>35.3</ele>
        <time>2020-06-16T15:55:10Z</time>
      </trkpt>
      <trkpt lat="49.37503" lon="-0.90556">
        <ele>35</ele>
        <time>2020-06-16T15:55:11Z</time>
      </trkpt>
      <trkpt lat="49.37509" lon="-0.90551">
        <ele>34.6</ele>
        <time>2020-06-16T15:55:12Z</time>
      </trkpt>
      <trkpt lat="49.37514" lon="-0.90545">
        <ele>34.3</ele>
        <time>2020-06-16T15:55:13Z</time>
      </trkpt>
      <trkpt lat="49.37522" lon="-0.90538">
        <ele>33.9</ele>
        <time>2020-06-16T15:55:14Z</time>
      </trkpt>
      <trkpt lat="49.37529" lon="-0.90531">
        <ele>33.5</ele>
        <time>2020-06-16T15:55:15Z</time>
      </trkpt>
      <trkpt lat="49.37536" lon="-0.90526">
        <ele>33.2</ele>
        <time>2020-06-16T15:55:16Z</time>
      </trkpt>
      <trkpt lat="49.37542" lon="-0.90522">
        <ele>32.8</ele>
        <time>2020-06-16T15:55:17Z</time>
      </trkpt>
      <trkpt lat="49.37549" lon="-0.90517">
        <ele>32.5</ele>
        <time>2020-06-16T15:55:18Z</time>
      </trkpt>
      <trkpt lat="49.37555" lon="-0.90513">
        <ele>32.2</ele>
        <time>2020-06-16T15:55:19Z</time>
      </trkpt>
      <trkpt lat="49.37561" lon="-0.90509">
        <ele>31.9</ele>
        <time>2020-06-16T15:55:20Z</time>
      </trkpt>
      <trkpt lat="49.37567" lon="-0.90505">
        <ele>31.6</ele>
        <time>2020-06-16T15:55:21Z</time>
      </trkpt>
      <trkpt lat="49.37574" lon="-0.90501">
        <ele>31.3</ele>
        <time>2020-06-16T15:55:22Z</time>
      </trkpt>
      <trkpt lat="49.37581" lon="-0.90497">
        <ele>30.9</ele>
        <time>2020-06-16T15:55:23Z</time>
      </trkpt>
      <trkpt lat="49.37588" lon="-0.90494">
        <ele>30.6</ele>
        <time>2020-06-16T15:55:24Z</time>
      </trkpt>
      <trkpt lat="49.37594" lon="-0.9049">
        <ele>30.2</ele>
        <time>2020-06-16T15:55:25Z</time>
      </trkpt>
      <trkpt lat="49.376" lon="-0.90487">
        <ele>29.9</ele>
        <time>2020-06-16T15:55:26Z</time>
      </trkpt>
      <trkpt lat="49.37607" lon="-0.90484">
        <ele>29.6</ele>
        <time>2020-06-16T15:55:27Z</time>
      </trkpt>
      <trkpt lat="49.37614" lon="-0.90482">
        <ele>29.2</ele>
        <time>2020-06-16T15:55:28Z</time>
      </trkpt>
      <trkpt lat="49.37621" lon="-0.90479">
        <ele>29</ele>
        <time>2020-06-16T15:55:29Z</time>
      </trkpt>
      <trkpt lat="49.37628" lon="-0.90477">
        <ele>28.7</ele>
        <time>2020-06-16T15:55:30Z</time>
      </trkpt>
      <trkpt lat="49.37634" lon="-0.90475">
        <ele>28.6</ele>
        <time>2020-06-16T15:55:31Z</time>
      </trkpt>
      <trkpt lat="49.37641" lon="-0.90473">
        <ele>28.4</ele>
        <time>2020-06-16T15:55:32Z</time>
      </trkpt>
      <trkpt lat="49.37649" lon="-0.9047">
        <ele>28.1</ele>
        <time>2020-06-16T15:55:33Z</time>
      </trkpt>
      <trkpt lat="49.37658" lon="-0.90468">
        <ele>27.7</ele>
        <time>2020-06-16T15:55:34Z</time>
      </trkpt>
      <trkpt lat="49.37665" lon="-0.90466">
        <ele>27.4</ele>
        <time>2020-06-16T15:55:35Z</time>
      </trkpt>
      <trkpt lat="49.37673" lon="-0.90464">
        <ele>27</ele>
        <time>2020-06-16T15:55:36Z</time>
      </trkpt>
      <trkpt lat="49.3768" lon="-0.90462">
        <ele>26.7</ele>
        <time>2020-06-16T15:55:37Z</time>
      </trkpt>
      <trkpt lat="49.37688" lon="-0.90461">
        <ele>26.4</ele>
        <time>2020-06-16T15:55:38Z</time>
      </trkpt>
      <trkpt lat="49.37697" lon="-0.90461">
        <ele>26.1</ele>
        <time>2020-06-16T15:55:39Z</time>
      </trkpt>
      <trkpt lat="49.37706" lon="-0.9046">
        <ele>25.8</ele>
        <time>2020-06-16T15:55:40Z</time>
      </trkpt>
      <trkpt lat="49.37714" lon="-0.90458">
        <ele>25.5</ele>
        <time>2020-06-16T15:55:41Z</time>
      </trkpt>
      <trkpt lat="49.37722" lon="-0.90455">
        <ele>25.2</ele>
        <time>2020-06-16T15:55:42Z</time>
      </trkpt>
      <trkpt lat="49.37731" lon="-0.90453">
        <ele>24.9</ele>
        <time>2020-06-16T15:55:43Z</time>
      </trkpt>
      <trkpt lat="49.37738" lon="-0.90451">
        <ele>24.6</ele>
        <time>2020-06-16T15:55:44Z</time>
      </trkpt>
      <trkpt lat="49.37743" lon="-0.9045">
        <ele>24.4</ele>
        <time>2020-06-16T15:55:45Z</time>
      </trkpt>
      <trkpt lat="49.3775" lon="-0.90449">
        <ele>24.1</ele>
        <time>2020-06-16T15:55:46Z</time>
      </trkpt>
      <trkpt lat="49.37756" lon="-0.90447">
        <ele>23.9</ele>
        <time>2020-06-16T15:55:47Z</time>
      </trkpt>
      <trkpt lat="49.37762" lon="-0.90446">
        <ele>23.7</ele>
        <time>2020-06-16T15:55:48Z</time>
      </trkpt>
      <trkpt lat="49.3777" lon="-0.90444">
        <ele>23.3</ele>
        <time>2020-06-16T15:55:49Z</time>
      </trkpt>
      <trkpt lat="49.37776" lon="-0.9044">
        <ele>23</ele>
        <time>2020-06-16T15:55:50Z</time>
      </trkpt>
      <trkpt lat="49.37782" lon="-0.90438">
        <ele>22.7</ele>
        <time>2020-06-16T15:55:51Z</time>
      </trkpt>
      <trkpt lat="49.37788" lon="-0.90437">
        <ele>22.5</ele>
        <time>2020-06-16T15:55:52Z</time>
      </trkpt>
      <trkpt lat="49.37794" lon="-0.90437">
        <ele>22.2</ele>
        <time>2020-06-16T15:55:53Z</time>
      </trkpt>
      <trkpt lat="49.37803" lon="-0.90437">
        <ele>21.8</ele>
        <time>2020-06-16T15:55:54Z</time>
      </trkpt>
      <trkpt lat="49.37811" lon="-0.90438">
        <ele>21.5</ele>
        <time>2020-06-16T15:55:55Z</time>
      </trkpt>
      <trkpt lat="49.37819" lon="-0.90436">
        <ele>21.1</ele>
        <time>2020-06-16T15:55:56Z</time>
      </trkpt>
      <trkpt lat="49.37827" lon="-0.90433">
        <ele>20.7</ele>
        <time>2020-06-16T15:55:57Z</time>
      </trkpt>
      <trkpt lat="49.37834" lon="-0.90428">
        <ele>20.3</ele>
        <time>2020-06-16T15:55:58Z</time>
      </trkpt>
      <trkpt lat="49.37841" lon="-0.90423">
        <ele>19.8</ele>
        <time>2020-06-16T15:55:59Z</time>
      </trkpt>
      <trkpt lat="49.37849" lon="-0.90417">
        <ele>19.2</ele>
        <time>2020-06-16T15:56:00Z</time>
      </trkpt>
      <trkpt lat="49.37855" lon="-0.90412">
        <ele>18.7</ele>
        <time>2020-06-16T15:56:01Z</time>
      </trkpt>
      <trkpt lat="49.3786" lon="-0.90406">
        <ele>18.1</ele>
        <time>2020-06-16T15:56:02Z</time>
      </trkpt>
      <trkpt lat="49.37866" lon="-0.90401">
        <ele>17.6</ele>
        <time>2020-06-16T15:56:03Z</time>
      </trkpt>
      <trkpt lat="49.37872" lon="-0.90393">
        <ele>17</ele>
        <time>2020-06-16T15:56:04Z</time>
      </trkpt>
      <trkpt lat="49.37877" lon="-0.90385">
        <ele>16.3</ele>
        <time>2020-06-16T15:56:05Z</time>
      </trkpt>
      <trkpt lat="49.37882" lon="-0.90377">
        <ele>15.8</ele>
        <time>2020-06-16T15:56:06Z</time>
      </trkpt>
      <trkpt lat="49.37886" lon="-0.9037">
        <ele>15.2</ele>
        <time>2020-06-16T15:56:07Z</time>
      </trkpt>
      <trkpt lat="49.37889" lon="-0.90362">
        <ele>14.7</ele>
        <time>2020-06-16T15:56:08Z</time>
      </trkpt>
      <trkpt lat="49.37892" lon="-0.90357">
        <ele>14.3</ele>
        <time>2020-06-16T15:56:09Z</time>
      </trkpt>
      <trkpt lat="49.37895" lon="-0.90351">
        <ele>13.9</ele>
        <time>2020-06-16T15:56:10Z</time>
      </trkpt>
      <trkpt lat="49.37899" lon="-0.90345">
        <ele>13.5</ele>
        <time>2020-06-16T15:56:11Z</time>
      </trkpt>
      <trkpt lat="49.37903" lon="-0.9034">
        <ele>13.4</ele>
        <time>2020-06-16T15:56:12Z</time>
      </trkpt>
      <trkpt lat="49.37906" lon="-0.90335">
        <ele>13.3</ele>
        <time>2020-06-16T15:56:13Z</time>
      </trkpt>
      <trkpt lat="49.37908" lon="-0.90331">
        <ele>13.3</ele>
        <time>2020-06-16T15:56:14Z</time>
      </trkpt>
      <trkpt lat="49.3791" lon="-0.90328">
        <ele>13.2</ele>
        <time>2020-06-16T15:56:15Z</time>
      </trkpt>
      <trkpt lat="49.37912" lon="-0.90324">
        <ele>12.6</ele>
        <time>2020-06-16T15:56:16Z</time>
      </trkpt>
      <trkpt lat="49.37912" lon="-0.90322">
        <ele>12.5</ele>
        <time>2020-06-16T15:56:17Z</time>
      </trkpt>
      <trkpt lat="49.37914" lon="-0.90319">
        <ele>12.5</ele>
        <time>2020-06-16T15:56:18Z</time>
      </trkpt>
      <trkpt lat="49.37915" lon="-0.90318">
        <ele>12.5</ele>
        <time>2020-06-16T15:56:19Z</time>
      </trkpt>
      <trkpt lat="49.37917" lon="-0.90314">
        <ele>12.4</ele>
        <time>2020-06-16T15:56:20Z</time>
      </trkpt>
      <trkpt lat="49.37917" lon="-0.90314">
        <ele>12.4</ele>
        <time>2020-06-16T15:56:21Z</time>
      </trkpt>
      <trkpt lat="49.37918" lon="-0.90312">
        <ele>12.4</ele>
        <time>2020-06-16T15:56:22Z</time>
      </trkpt>
      <trkpt lat="49.37919" lon="-0.90311">
        <ele>12.4</ele>
        <time>2020-06-16T15:56:23Z</time>
      </trkpt>
      <trkpt lat="49.37919" lon="-0.9031">
        <ele>12.3</ele>
        <time>2020-06-16T15:56:24Z</time>
      </trkpt>
      <trkpt lat="49.37919" lon="-0.90308">
        <ele>12.3</ele>
        <time>2020-06-16T15:56:25Z</time>
      </trkpt>
      <trkpt lat="49.37919" lon="-0.90308">
        <ele>12.3</ele>
        <time>2020-06-16T15:56:26Z</time>
      </trkpt>
      <trkpt lat="49.37919" lon="-0.90306">
        <ele>12.3</ele>
        <time>2020-06-16T15:56:27Z</time>
      </trkpt>
      <trkpt lat="49.3792" lon="-0.90305">
        <ele>12.3</ele>
        <time>2020-06-16T15:56:28Z</time>
      </trkpt>
      <trkpt lat="49.37921" lon="-0.90304">
        <ele>12.2</ele>
        <time>2020-06-16T15:56:29Z</time>
      </trkpt>
      <trkpt lat="49.37922" lon="-0.90303">
        <ele>12.2</ele>
        <time>2020-06-16T15:56:30Z</time>
      </trkpt>
      <trkpt lat="49.37922" lon="-0.90303">
        <ele>12.2</ele>
        <time>2020-06-16T15:56:31Z</time>
      </trkpt>
      <trkpt lat="49.37923" lon="-0.90304">
        <ele>12.2</ele>
        <time>2020-06-16T15:56:32Z</time>
      </trkpt>
      <trkpt lat="49.37924" lon="-0.90305">
        <ele>12.2</ele>
        <time>2020-06-16T15:56:33Z</time>
      </trkpt>
      <trkpt lat="49.37924" lon="-0.90305">
        <ele>12.2</ele>
        <time>2020-06-16T15:56:34Z</time>
      </trkpt>
      <trkpt lat="49.37924" lon="-0.90306">
        <ele>12.2</ele>
        <time>2020-06-16T15:56:35Z</time>
      </trkpt>
      <trkpt lat="49.37924" lon="-0.90306">
        <ele>12.2</ele>
        <time>2020-06-16T15:56:36Z</time>
      </trkpt>
      <trkpt lat="49.37924" lon="-0.90306">
        <ele>12.2</ele>
        <time>2020-06-16T15:56:37Z</time>
      </trkpt>
      <trkpt lat="49.37924" lon="-0.90306">
        <ele>12.2</ele>
        <time>2020-06-16T15:56:38Z</time>
      </trkpt>
      <trkpt lat="49.37924" lon="-0.90306">
        <ele>12.2</ele>
        <time>2020-06-16T15:56:39Z</time>
      </trkpt>
      <trkpt lat="49.37924" lon="-0.90306">
        <ele>12.2</ele>
        <time>2020-06-16T15:56:40Z</time>
      </trkpt>
      <trkpt lat="49.37924" lon="-0.90306">
        <ele>12.2</ele>
        <time>2020-06-16T15:56:41Z</time>
      </trkpt>
      <trkpt lat="49.37924" lon="-0.90306">
        <ele>12.2</ele>
        <time>2020-06-16T15:56:42Z</time>
      </trkpt>
      <trkpt lat="49.37925" lon="-0.90306">
        <ele>12.2</ele>
        <time>2020-06-16T15:56:43Z</time>
      </trkpt>
      <trkpt lat="49.37925" lon="-0.90306">
        <ele>12.2</ele>
        <time>2020-06-16T15:56:44Z</time>
      </trkpt>
      <trkpt lat="49.37927" lon="-0.90306">
        <ele>12.1</ele>
        <time>2020-06-16T15:57:01Z</time>
      </trkpt>
      <trkpt lat="49.37928" lon="-0.90306">
        <ele>12.1</ele>
        <time>2020-06-16T15:57:02Z</time>
      </trkpt>
      <trkpt lat="49.37928" lon="-0.90306">
        <ele>12.1</ele>
        <time>2020-06-16T15:57:03Z</time>
      </trkpt>
      <trkpt lat="49.37927" lon="-0.90307">
        <ele>12.1</ele>
        <time>2020-06-16T15:57:04Z</time>
      </trkpt>
      <trkpt lat="49.37928" lon="-0.90307">
        <ele>12.1</ele>
        <time>2020-06-16T15:57:05Z</time>
      </trkpt>
      <trkpt lat="49.37929" lon="-0.90307">
        <ele>12.1</ele>
        <time>2020-06-16T15:57:06Z</time>
      </trkpt>
      <trkpt lat="49.37929" lon="-0.90307">
        <ele>12</ele>
        <time>2020-06-16T15:57:07Z</time>
      </trkpt>
      <trkpt lat="49.37929" lon="-0.90306">
        <ele>12</ele>
        <time>2020-06-16T15:57:08Z</time>
      </trkpt>
      <trkpt lat="49.3793" lon="-0.90307">
        <ele>12</ele>
        <time>2020-06-16T15:57:09Z</time>
      </trkpt>
      <trkpt lat="49.3793" lon="-0.90307">
        <ele>12</ele>
        <time>2020-06-16T15:57:10Z</time>
      </trkpt>
      <trkpt lat="49.3793" lon="-0.90307">
        <ele>12</ele>
        <time>2020-06-16T15:57:11Z</time>
      </trkpt>
      <trkpt lat="49.37929" lon="-0.90308">
        <ele>12</ele>
        <time>2020-06-16T15:57:12Z</time>
      </trkpt>
      <trkpt lat="49.37929" lon="-0.90308">
        <ele>12</ele>
        <time>2020-06-16T15:57:13Z</time>
      </trkpt>
      <trkpt lat="49.37929" lon="-0.90309">
        <ele>12</ele>
        <time>2020-06-16T15:57:14Z</time>
      </trkpt>
      <trkpt lat="49.37929" lon="-0.9031">
        <ele>12</ele>
        <time>2020-06-16T15:57:15Z</time>
      </trkpt>
      <trkpt lat="49.37929" lon="-0.90311">
        <ele>12</ele>
        <time>2020-06-16T15:57:16Z</time>
      </trkpt>
      <trkpt lat="49.37929" lon="-0.90311">
        <ele>12</ele>
        <time>2020-06-16T15:57:17Z</time>
      </trkpt>
      <trkpt lat="49.37929" lon="-0.90311">
        <ele>12</ele>
        <time>2020-06-16T15:57:18Z</time>
      </trkpt>
      <trkpt lat="49.37929" lon="-0.90311">
        <ele>12</ele>
        <time>2020-06-16T15:57:19Z</time>
      </trkpt>
      <trkpt lat="49.37926" lon="-0.90314">
        <ele>11.9</ele>
        <time>2020-06-16T15:58:51Z</time>
      </trkpt>
      <trkpt lat="49.37926" lon="-0.90312">
        <ele>11.9</ele>
        <time>2020-06-16T15:58:52Z</time>
      </trkpt>
      <trkpt lat="49.37925" lon="-0.9031">
        <ele>11.8</ele>
        <time>2020-06-16T15:58:53Z</time>
      </trkpt>
      <trkpt lat="49.37925" lon="-0.90308">
        <ele>11.8</ele>
        <time>2020-06-16T15:58:54Z</time>
      </trkpt>
      <trkpt lat="49.37926" lon="-0.90305">
        <ele>11.8</ele>
        <time>2020-06-16T15:58:55Z</time>
      </trkpt>
      <trkpt lat="49.37926" lon="-0.90302">
        <ele>11.8</ele>
        <time>2020-06-16T15:58:56Z</time>
      </trkpt>
      <trkpt lat="49.37925" lon="-0.90301">
        <ele>11.7</ele>
        <time>2020-06-16T15:58:57Z</time>
      </trkpt>
      <trkpt lat="49.37925" lon="-0.90299">
        <ele>11.7</ele>
        <time>2020-06-16T15:58:58Z</time>
      </trkpt>
      <trkpt lat="49.37925" lon="-0.90298">
        <ele>11.7</ele>
        <time>2020-06-16T15:58:59Z</time>
      </trkpt>
      <trkpt lat="49.37925" lon="-0.90297">
        <ele>11.7</ele>
        <time>2020-06-16T15:59:00Z</time>
      </trkpt>
      <trkpt lat="49.37925" lon="-0.90296">
        <ele>11.7</ele>
        <time>2020-06-16T15:59:01Z</time>
      </trkpt>
      <trkpt lat="49.37925" lon="-0.90295">
        <ele>11.7</ele>
        <time>2020-06-16T15:59:02Z</time>
      </trkpt>
      <trkpt lat="49.37925" lon="-0.90295">
        <ele>11.7</ele>
        <time>2020-06-16T15:59:03Z</time>
      </trkpt>
      <trkpt lat="49.37925" lon="-0.90295">
        <ele>11.6</ele>
        <time>2020-06-16T15:59:04Z</time>
      </trkpt>
      <trkpt lat="49.37925" lon="-0.90294">
        <ele>11.6</ele>
        <time>2020-06-16T15:59:05Z</time>
      </trkpt>
      <trkpt lat="49.37925" lon="-0.90294">
        <ele>11.6</ele>
        <time>2020-06-16T15:59:06Z</time>
      </trkpt>
      <trkpt lat="49.37925" lon="-0.90294">
        <ele>11.6</ele>
        <time>2020-06-16T15:59:07Z</time>
      </trkpt>
      <trkpt lat="49.37925" lon="-0.90294">
        <ele>11.6</ele>
        <time>2020-06-16T15:59:08Z</time>
      </trkpt>
      <trkpt lat="49.37925" lon="-0.90293">
        <ele>11.6</ele>
        <time>2020-06-16T15:59:09Z</time>
      </trkpt>
      <trkpt lat="49.37925" lon="-0.90293">
        <ele>11.6</ele>
        <time>2020-06-16T15:59:10Z</time>
      </trkpt>
      <trkpt lat="49.37925" lon="-0.90293">
        <ele>11.6</ele>
        <time>2020-06-16T15:59:11Z</time>
      </trkpt>
      <trkpt lat="49.37925" lon="-0.90292">
        <ele>11.6</ele>
        <time>2020-06-16T15:59:12Z</time>
      </trkpt>
      <trkpt lat="49.37925" lon="-0.90291">
        <ele>11.6</ele>
        <time>2020-06-16T15:59:13Z</time>
      </trkpt>
      <trkpt lat="49.37925" lon="-0.9029">
        <ele>11.6</ele>
        <time>2020-06-16T15:59:14Z</time>
      </trkpt>
      <trkpt lat="49.37925" lon="-0.9029">
        <ele>11.6</ele>
        <time>2020-06-16T15:59:15Z</time>
      </trkpt>
      <trkpt lat="49.37925" lon="-0.90289">
        <ele>11.6</ele>
        <time>2020-06-16T15:59:16Z</time>
      </trkpt>
      <trkpt lat="49.37925" lon="-0.90289">
        <ele>11.6</ele>
        <time>2020-06-16T15:59:17Z</time>
      </trkpt>
      <trkpt lat="49.37925" lon="-0.90289">
        <ele>11.6</ele>
        <time>2020-06-16T15:59:18Z</time>
      </trkpt>
      <trkpt lat="49.37925" lon="-0.90289">
        <ele>11.6</ele>
        <time>2020-06-16T15:59:19Z</time>
      </trkpt>
      <trkpt lat="49.37925" lon="-0.90289">
        <ele>11.6</ele>
        <time>2020-06-16T15:59:20Z</time>
      </trkpt>
      <trkpt lat="49.37925" lon="-0.90289">
        <ele>11.6</ele>
        <time>2020-06-16T15:59:21Z</time>
      </trkpt>
      <trkpt lat="49.37925" lon="-0.90289">
        <ele>11.6</ele>
        <time>2020-06-16T15:59:22Z</time>
      </trkpt>
      <trkpt lat="49.37925" lon="-0.90289">
        <ele>11.6</ele>
        <time>2020-06-16T15:59:23Z</time>
      </trkpt>
      <trkpt lat="49.37925" lon="-0.90289">
        <ele>11.6</ele>
        <time>2020-06-16T15:59:24Z</time>
      </trkpt>
      <trkpt lat="49.37924" lon="-0.90288">
        <ele>11.5</ele>
        <time>2020-06-16T16:00:17Z</time>
      </trkpt>
      <trkpt lat="49.37924" lon="-0.90289">
        <ele>11.5</ele>
        <time>2020-06-16T16:00:18Z</time>
      </trkpt>
      <trkpt lat="49.37923" lon="-0.9029">
        <ele>11.5</ele>
        <time>2020-06-16T16:00:19Z</time>
      </trkpt>
      <trkpt lat="49.37923" lon="-0.9029">
        <ele>11.5</ele>
        <time>2020-06-16T16:00:20Z</time>
      </trkpt>
      <trkpt lat="49.37923" lon="-0.9029">
        <ele>11.5</ele>
        <time>2020-06-16T16:00:21Z</time>
      </trkpt>
      <trkpt lat="49.37923" lon="-0.90289">
        <ele>11.5</ele>
        <time>2020-06-16T16:00:22Z</time>
      </trkpt>
      <trkpt lat="49.37923" lon="-0.90289">
        <ele>11.5</ele>
        <time>2020-06-16T16:00:23Z</time>
      </trkpt>
      <trkpt lat="49.37923" lon="-0.90289">
        <ele>11.5</ele>
        <time>2020-06-16T16:00:24Z</time>
      </trkpt>
      <trkpt lat="49.37923" lon="-0.9029">
        <ele>11.5</ele>
        <time>2020-06-16T16:00:25Z</time>
      </trkpt>
      <trkpt lat="49.37923" lon="-0.9029">
        <ele>11.5</ele>
        <time>2020-06-16T16:00:26Z</time>
      </trkpt>
      <trkpt lat="49.37923" lon="-0.9029">
        <ele>11.5</ele>
        <time>2020-06-16T16:00:27Z</time>
      </trkpt>
      <trkpt lat="49.37925" lon="-0.90294">
        <ele>11.4</ele>
        <time>2020-06-16T16:00:37Z</time>
      </trkpt>
      <trkpt lat="49.37925" lon="-0.90295">
        <ele>11.4</ele>
        <time>2020-06-16T16:00:38Z</time>
      </trkpt>
      <trkpt lat="49.37926" lon="-0.90297">
        <ele>11.4</ele>
        <time>2020-06-16T16:00:39Z</time>
      </trkpt>
      <trkpt lat="49.37926" lon="-0.90299">
        <ele>11.4</ele>
        <time>2020-06-16T16:00:40Z</time>
      </trkpt>
      <trkpt lat="49.37926" lon="-0.90301">
        <ele>11.4</ele>
        <time>2020-06-16T16:00:41Z</time>
      </trkpt>
      <trkpt lat="49.37927" lon="-0.90302">
        <ele>11.3</ele>
        <time>2020-06-16T16:00:42Z</time>
      </trkpt>
      <trkpt lat="49.37928" lon="-0.90305">
        <ele>11.3</ele>
        <time>2020-06-16T16:00:43Z</time>
      </trkpt>
      <trkpt lat="49.37928" lon="-0.90307">
        <ele>11.3</ele>
        <time>2020-06-16T16:00:44Z</time>
      </trkpt>
      <trkpt lat="49.37929" lon="-0.90308">
        <ele>11.3</ele>
        <time>2020-06-16T16:00:45Z</time>
      </trkpt>
      <trkpt lat="49.3793" lon="-0.9031">
        <ele>11.2</ele>
        <time>2020-06-16T16:00:46Z</time>
      </trkpt>
      <trkpt lat="49.3793" lon="-0.9031">
        <ele>11.2</ele>
        <time>2020-06-16T16:00:47Z</time>
      </trkpt>
      <trkpt lat="49.37931" lon="-0.90311">
        <ele>11.2</ele>
        <time>2020-06-16T16:00:48Z</time>
      </trkpt>
      <trkpt lat="49.37932" lon="-0.90312">
        <ele>11.2</ele>
        <time>2020-06-16T16:00:49Z</time>
      </trkpt>
      <trkpt lat="49.37932" lon="-0.90313">
        <ele>11.2</ele>
        <time>2020-06-16T16:00:50Z</time>
      </trkpt>
      <trkpt lat="49.37933" lon="-0.90314">
        <ele>11.1</ele>
        <time>2020-06-16T16:00:51Z</time>
      </trkpt>
      <trkpt lat="49.37933" lon="-0.90315">
        <ele>11.1</ele>
        <time>2020-06-16T16:00:52Z</time>
      </trkpt>
      <trkpt lat="49.37933" lon="-0.90316">
        <ele>11.1</ele>
        <time>2020-06-16T16:00:53Z</time>
      </trkpt>
      <trkpt lat="49.37933" lon="-0.90316">
        <ele>11.1</ele>
        <time>2020-06-16T16:00:54Z</time>
      </trkpt>
      <trkpt lat="49.37933" lon="-0.90317">
        <ele>11.1</ele>
        <time>2020-06-16T16:00:55Z</time>
      </trkpt>
      <trkpt lat="49.37934" lon="-0.90318">
        <ele>11.1</ele>
        <time>2020-06-16T16:00:56Z</time>
      </trkpt>
      <trkpt lat="49.37934" lon="-0.90319">
        <ele>11.1</ele>
        <time>2020-06-16T16:00:57Z</time>
      </trkpt>
      <trkpt lat="49.37934" lon="-0.9032">
        <ele>11.1</ele>
        <time>2020-06-16T16:00:58Z</time>
      </trkpt>
      <trkpt lat="49.37936" lon="-0.90323">
        <ele>11</ele>
        <time>2020-06-16T16:00:59Z</time>
      </trkpt>
      <trkpt lat="49.37936" lon="-0.90324">
        <ele>11</ele>
        <time>2020-06-16T16:01:00Z</time>
      </trkpt>
      <trkpt lat="49.37937" lon="-0.90325">
        <ele>11</ele>
        <time>2020-06-16T16:01:01Z</time>
      </trkpt>
      <trkpt lat="49.37937" lon="-0.90326">
        <ele>11</ele>
        <time>2020-06-16T16:01:02Z</time>
      </trkpt>
      <trkpt lat="49.37938" lon="-0.90328">
        <ele>10.9</ele>
        <time>2020-06-16T16:01:03Z</time>
      </trkpt>
      <trkpt lat="49.37937" lon="-0.90328">
        <ele>10.9</ele>
        <time>2020-06-16T16:01:04Z</time>
      </trkpt>
      <trkpt lat="49.37938" lon="-0.9033">
        <ele>10.9</ele>
        <time>2020-06-16T16:01:05Z</time>
      </trkpt>
      <trkpt lat="49.37938" lon="-0.90329">
        <ele>10.9</ele>
        <time>2020-06-16T16:01:06Z</time>
      </trkpt>
      <trkpt lat="49.37938" lon="-0.90329">
        <ele>10.9</ele>
        <time>2020-06-16T16:01:07Z</time>
      </trkpt>
      <trkpt lat="49.37939" lon="-0.9033">
        <ele>10.9</ele>
        <time>2020-06-16T16:01:08Z</time>
      </trkpt>
      <trkpt lat="49.37939" lon="-0.9033">
        <ele>10.9</ele>
        <time>2020-06-16T16:01:09Z</time>
      </trkpt>
      <trkpt lat="49.37939" lon="-0.9033">
        <ele>10.9</ele>
        <time>2020-06-16T16:01:10Z</time>
      </trkpt>
      <trkpt lat="49.37939" lon="-0.9033">
        <ele>10.9</ele>
        <time>2020-06-16T16:01:11Z</time>
      </trkpt>
      <trkpt lat="49.37939" lon="-0.9033">
        <ele>10.9</ele>
        <time>2020-06-16T16:01:12Z</time>
      </trkpt>
      <trkpt lat="49.37939" lon="-0.9033">
        <ele>10.9</ele>
        <time>2020-06-16T16:01:13Z</time>
      </trkpt>
      <trkpt lat="49.37939" lon="-0.9033">
        <ele>10.9</ele>
        <time>2020-06-16T16:01:14Z</time>
      </trkpt>
      <trkpt lat="49.3794" lon="-0.90326">
        <ele>10.8</ele>
        <time>2020-06-16T16:03:10Z</time>
      </trkpt>
      <trkpt lat="49.3794" lon="-0.90325">
        <ele>10.8</ele>
        <time>2020-06-16T16:03:11Z</time>
      </trkpt>
      <trkpt lat="49.3794" lon="-0.90325">
        <ele>10.8</ele>
        <time>2020-06-16T16:03:12Z</time>
      </trkpt>
      <trkpt lat="49.3794" lon="-0.90324">
        <ele>10.8</ele>
        <time>2020-06-16T16:03:13Z</time>
      </trkpt>
      <trkpt lat="49.37941" lon="-0.90323">
        <ele>10.8</ele>
        <time>2020-06-16T16:03:14Z</time>
      </trkpt>
      <trkpt lat="49.37941" lon="-0.90323">
        <ele>10.8</ele>
        <time>2020-06-16T16:03:15Z</time>
      </trkpt>
      <trkpt lat="49.37941" lon="-0.90322">
        <ele>10.8</ele>
        <time>2020-06-16T16:03:16Z</time>
      </trkpt>
      <trkpt lat="49.37941" lon="-0.90322">
        <ele>10.8</ele>
        <time>2020-06-16T16:03:17Z</time>
      </trkpt>
      <trkpt lat="49.37941" lon="-0.90322">
        <ele>10.8</ele>
        <time>2020-06-16T16:03:18Z</time>
      </trkpt>
      <trkpt lat="49.37941" lon="-0.90322">
        <ele>10.8</ele>
        <time>2020-06-16T16:03:19Z</time>
      </trkpt>
      <trkpt lat="49.37941" lon="-0.90322">
        <ele>10.8</ele>
        <time>2020-06-16T16:03:20Z</time>
      </trkpt>
      <trkpt lat="49.37941" lon="-0.90322">
        <ele>10.8</ele>
        <time>2020-06-16T16:03:21Z</time>
      </trkpt>
      <trkpt lat="49.37941" lon="-0.90321">
        <ele>10.8</ele>
        <time>2020-06-16T16:03:22Z</time>
      </trkpt>
      <trkpt lat="49.37941" lon="-0.90321">
        <ele>10.7</ele>
        <time>2020-06-16T16:03:23Z</time>
      </trkpt>
      <trkpt lat="49.37941" lon="-0.90321">
        <ele>10.7</ele>
        <time>2020-06-16T16:03:24Z</time>
      </trkpt>
      <trkpt lat="49.37947" lon="-0.90319">
        <ele>10.3</ele>
        <time>2020-06-16T16:03:32Z</time>
      </trkpt>
      <trkpt lat="49.37948" lon="-0.90318">
        <ele>10.3</ele>
        <time>2020-06-16T16:03:33Z</time>
      </trkpt>
      <trkpt lat="49.37949" lon="-0.90318">
        <ele>10.4</ele>
        <time>2020-06-16T16:03:34Z</time>
      </trkpt>
      <trkpt lat="49.3795" lon="-0.90317">
        <ele>10.4</ele>
        <time>2020-06-16T16:03:35Z</time>
      </trkpt>
      <trkpt lat="49.37951" lon="-0.90317">
        <ele>10.4</ele>
        <time>2020-06-16T16:03:36Z</time>
      </trkpt>
      <trkpt lat="49.37952" lon="-0.90316">
        <ele>10.4</ele>
        <time>2020-06-16T16:03:37Z</time>
      </trkpt>
      <trkpt lat="49.37953" lon="-0.90315">
        <ele>10.4</ele>
        <time>2020-06-16T16:03:38Z</time>
      </trkpt>
      <trkpt lat="49.37954" lon="-0.90315">
        <ele>10.4</ele>
        <time>2020-06-16T16:03:39Z</time>
      </trkpt>
      <trkpt lat="49.37955" lon="-0.90315">
        <ele>10.4</ele>
        <time>2020-06-16T16:03:40Z</time>
      </trkpt>
      <trkpt lat="49.37955" lon="-0.90315">
        <ele>10.4</ele>
        <time>2020-06-16T16:03:41Z</time>
      </trkpt>
      <trkpt lat="49.37955" lon="-0.90315">
        <ele>10.4</ele>
        <time>2020-06-16T16:03:42Z</time>
      </trkpt>
      <trkpt lat="49.37955" lon="-0.90315">
        <ele>10.4</ele>
        <time>2020-06-16T16:03:43Z</time>
      </trkpt>
      <trkpt lat="49.37955" lon="-0.90315">
        <ele>10.4</ele>
        <time>2020-06-16T16:03:44Z</time>
      </trkpt>
      <trkpt lat="49.37955" lon="-0.90315">
        <ele>10.4</ele>
        <time>2020-06-16T16:03:45Z</time>
      </trkpt>
      <trkpt lat="49.37955" lon="-0.90315">
        <ele>10.4</ele>
        <time>2020-06-16T16:03:46Z</time>
      </trkpt>
      <trkpt lat="49.37955" lon="-0.90315">
        <ele>10.4</ele>
        <time>2020-06-16T16:03:47Z</time>
      </trkpt>
      <trkpt lat="49.37955" lon="-0.90315">
        <ele>10.4</ele>
        <time>2020-06-16T16:03:48Z</time>
      </trkpt>
      <trkpt lat="49.37955" lon="-0.90315">
        <ele>10.4</ele>
        <time>2020-06-16T16:03:49Z</time>
      </trkpt>
      <trkpt lat="49.3795" lon="-0.9031">
        <ele>10.5</ele>
        <time>2020-06-16T16:11:58Z</time>
      </trkpt>
      <trkpt lat="49.3795" lon="-0.9031">
        <ele>10.5</ele>
        <time>2020-06-16T16:11:59Z</time>
      </trkpt>
      <trkpt lat="49.37949" lon="-0.90311">
        <ele>10.5</ele>
        <time>2020-06-16T16:12:00Z</time>
      </trkpt>
      <trkpt lat="49.37949" lon="-0.90311">
        <ele>10.5</ele>
        <time>2020-06-16T16:12:01Z</time>
      </trkpt>
      <trkpt lat="49.37949" lon="-0.90312">
        <ele>10.6</ele>
        <time>2020-06-16T16:12:02Z</time>
      </trkpt>
      <trkpt lat="49.37947" lon="-0.90312">
        <ele>10.6</ele>
        <time>2020-06-16T16:12:03Z</time>
      </trkpt>
      <trkpt lat="49.37947" lon="-0.90313">
        <ele>10.6</ele>
        <time>2020-06-16T16:12:04Z</time>
      </trkpt>
      <trkpt lat="49.37946" lon="-0.90313">
        <ele>10.6</ele>
        <time>2020-06-16T16:12:05Z</time>
      </trkpt>
      <trkpt lat="49.37945" lon="-0.90314">
        <ele>10.6</ele>
        <time>2020-06-16T16:12:06Z</time>
      </trkpt>
      <trkpt lat="49.37945" lon="-0.90314">
        <ele>10.6</ele>
        <time>2020-06-16T16:12:07Z</time>
      </trkpt>
      <trkpt lat="49.37944" lon="-0.90315">
        <ele>10.6</ele>
        <time>2020-06-16T16:12:08Z</time>
      </trkpt>
      <trkpt lat="49.37944" lon="-0.90315">
        <ele>10.6</ele>
        <time>2020-06-16T16:12:09Z</time>
      </trkpt>
      <trkpt lat="49.37944" lon="-0.90316">
        <ele>10.6</ele>
        <time>2020-06-16T16:12:10Z</time>
      </trkpt>
      <trkpt lat="49.37944" lon="-0.90316">
        <ele>10.6</ele>
        <time>2020-06-16T16:12:11Z</time>
      </trkpt>
      <trkpt lat="49.37944" lon="-0.90316">
        <ele>10.6</ele>
        <time>2020-06-16T16:12:12Z</time>
      </trkpt>
      <trkpt lat="49.37944" lon="-0.90316">
        <ele>10.6</ele>
        <time>2020-06-16T16:12:13Z</time>
      </trkpt>
      <trkpt lat="49.37944" lon="-0.90316">
        <ele>10.6</ele>
        <time>2020-06-16T16:12:14Z</time>
      </trkpt>
      <trkpt lat="49.37943" lon="-0.90317">
        <ele>10.7</ele>
        <time>2020-06-16T16:12:15Z</time>
      </trkpt>
      <trkpt lat="49.37943" lon="-0.90318">
        <ele>10.7</ele>
        <time>2020-06-16T16:12:16Z</time>
      </trkpt>
      <trkpt lat="49.37942" lon="-0.90318">
        <ele>10.7</ele>
        <time>2020-06-16T16:12:17Z</time>
      </trkpt>
      <trkpt lat="49.37942" lon="-0.90319">
        <ele>10.7</ele>
        <time>2020-06-16T16:12:18Z</time>
      </trkpt>
      <trkpt lat="49.37942" lon="-0.90319">
        <ele>10.7</ele>
        <time>2020-06-16T16:12:19Z</time>
      </trkpt>
      <trkpt lat="49.37942" lon="-0.90319">
        <ele>10.7</ele>
        <time>2020-06-16T16:12:20Z</time>
      </trkpt>
      <trkpt lat="49.37942" lon="-0.9032">
        <ele>10.7</ele>
        <time>2020-06-16T16:12:21Z</time>
      </trkpt>
      <trkpt lat="49.37941" lon="-0.9032">
        <ele>10.7</ele>
        <time>2020-06-16T16:12:22Z</time>
      </trkpt>
      <trkpt lat="49.37941" lon="-0.90319">
        <ele>10.7</ele>
        <time>2020-06-16T16:12:23Z</time>
      </trkpt>
      <trkpt lat="49.37941" lon="-0.90319">
        <ele>10.7</ele>
        <time>2020-06-16T16:12:24Z</time>
      </trkpt>
      <trkpt lat="49.3794" lon="-0.90319">
        <ele>10.7</ele>
        <time>2020-06-16T16:12:25Z</time>
      </trkpt>
      <trkpt lat="49.3794" lon="-0.90319">
        <ele>10.7</ele>
        <time>2020-06-16T16:12:26Z</time>
      </trkpt>
      <trkpt lat="49.3794" lon="-0.90319">
        <ele>10.7</ele>
        <time>2020-06-16T16:12:27Z</time>
      </trkpt>
      <trkpt lat="49.3794" lon="-0.90319">
        <ele>10.7</ele>
        <time>2020-06-16T16:12:28Z</time>
      </trkpt>
      <trkpt lat="49.3794" lon="-0.90319">
        <ele>10.7</ele>
        <time>2020-06-16T16:12:29Z</time>
      </trkpt>
      <trkpt lat="49.3794" lon="-0.90318">
        <ele>10.7</ele>
        <time>2020-06-16T16:12:30Z</time>
      </trkpt>
      <trkpt lat="49.3794" lon="-0.90316">
        <ele>10.7</ele>
        <time>2020-06-16T16:12:31Z</time>
      </trkpt>
      <trkpt lat="49.3794" lon="-0.90314">
        <ele>10.8</ele>
        <time>2020-06-16T16:12:32Z</time>
      </trkpt>
      <trkpt lat="49.3794" lon="-0.90313">
        <ele>10.8</ele>
        <time>2020-06-16T16:12:33Z</time>
      </trkpt>
      <trkpt lat="49.3794" lon="-0.90312">
        <ele>10.8</ele>
        <time>2020-06-16T16:12:34Z</time>
      </trkpt>
      <trkpt lat="49.3794" lon="-0.90311">
        <ele>10.8</ele>
        <time>2020-06-16T16:12:35Z</time>
      </trkpt>
      <trkpt lat="49.37939" lon="-0.90311">
        <ele>10.8</ele>
        <time>2020-06-16T16:12:36Z</time>
      </trkpt>
      <trkpt lat="49.37938" lon="-0.9031">
        <ele>10.8</ele>
        <time>2020-06-16T16:12:37Z</time>
      </trkpt>
      <trkpt lat="49.37937" lon="-0.90309">
        <ele>10.8</ele>
        <time>2020-06-16T16:12:38Z</time>
      </trkpt>
      <trkpt lat="49.37936" lon="-0.90308">
        <ele>10.8</ele>
        <time>2020-06-16T16:12:39Z</time>
      </trkpt>
      <trkpt lat="49.37936" lon="-0.90308">
        <ele>10.8</ele>
        <time>2020-06-16T16:12:40Z</time>
      </trkpt>
      <trkpt lat="49.37936" lon="-0.90307">
        <ele>10.8</ele>
        <time>2020-06-16T16:12:41Z</time>
      </trkpt>
      <trkpt lat="49.37936" lon="-0.90307">
        <ele>10.9</ele>
        <time>2020-06-16T16:12:42Z</time>
      </trkpt>
      <trkpt lat="49.37935" lon="-0.90307">
        <ele>10.9</ele>
        <time>2020-06-16T16:12:43Z</time>
      </trkpt>
      <trkpt lat="49.37935" lon="-0.90306">
        <ele>10.9</ele>
        <time>2020-06-16T16:12:44Z</time>
      </trkpt>
      <trkpt lat="49.37934" lon="-0.90307">
        <ele>10.9</ele>
        <time>2020-06-16T16:12:45Z</time>
      </trkpt>
      <trkpt lat="49.37934" lon="-0.90308">
        <ele>10.9</ele>
        <time>2020-06-16T16:12:46Z</time>
      </trkpt>
      <trkpt lat="49.37933" lon="-0.90308">
        <ele>10.9</ele>
        <time>2020-06-16T16:12:47Z</time>
      </trkpt>
      <trkpt lat="49.37933" lon="-0.90308">
        <ele>10.9</ele>
        <time>2020-06-16T16:12:48Z</time>
      </trkpt>
      <trkpt lat="49.37933" lon="-0.90308">
        <ele>10.9</ele>
        <time>2020-06-16T16:12:49Z</time>
      </trkpt>
      <trkpt lat="49.37932" lon="-0.90308">
        <ele>10.9</ele>
        <time>2020-06-16T16:12:50Z</time>
      </trkpt>
      <trkpt lat="49.37932" lon="-0.90308">
        <ele>10.9</ele>
        <time>2020-06-16T16:12:51Z</time>
      </trkpt>
      <trkpt lat="49.37933" lon="-0.90307">
        <ele>10.9</ele>
        <time>2020-06-16T16:12:52Z</time>
      </trkpt>
      <trkpt lat="49.37933" lon="-0.90307">
        <ele>10.9</ele>
        <time>2020-06-16T16:12:53Z</time>
      </trkpt>
      <trkpt lat="49.37933" lon="-0.90307">
        <ele>10.9</ele>
        <time>2020-06-16T16:12:54Z</time>
      </trkpt>
      <trkpt lat="49.37934" lon="-0.90307">
        <ele>10.9</ele>
        <time>2020-06-16T16:12:55Z</time>
      </trkpt>
      <trkpt lat="49.37934" lon="-0.90306">
        <ele>10.9</ele>
        <time>2020-06-16T16:12:56Z</time>
      </trkpt>
      <trkpt lat="49.37934" lon="-0.90306">
        <ele>10.9</ele>
        <time>2020-06-16T16:12:57Z</time>
      </trkpt>
      <trkpt lat="49.37935" lon="-0.90306">
        <ele>10.9</ele>
        <time>2020-06-16T16:13:24Z</time>
      </trkpt>
      <trkpt lat="49.37935" lon="-0.90306">
        <ele>11</ele>
        <time>2020-06-16T16:13:25Z</time>
      </trkpt>
      <trkpt lat="49.37935" lon="-0.90305">
        <ele>11</ele>
        <time>2020-06-16T16:13:26Z</time>
      </trkpt>
      <trkpt lat="49.37935" lon="-0.90305">
        <ele>11</ele>
        <time>2020-06-16T16:13:27Z</time>
      </trkpt>
      <trkpt lat="49.37936" lon="-0.90305">
        <ele>11</ele>
        <time>2020-06-16T16:13:28Z</time>
      </trkpt>
      <trkpt lat="49.37936" lon="-0.90304">
        <ele>11</ele>
        <time>2020-06-16T16:13:29Z</time>
      </trkpt>
      <trkpt lat="49.37936" lon="-0.90304">
        <ele>11</ele>
        <time>2020-06-16T16:13:30Z</time>
      </trkpt>
      <trkpt lat="49.37937" lon="-0.90304">
        <ele>11</ele>
        <time>2020-06-16T16:13:31Z</time>
      </trkpt>
      <trkpt lat="49.37937" lon="-0.90304">
        <ele>11</ele>
        <time>2020-06-16T16:13:32Z</time>
      </trkpt>
      <trkpt lat="49.37938" lon="-0.90304">
        <ele>11</ele>
        <time>2020-06-16T16:13:33Z</time>
      </trkpt>
      <trkpt lat="49.37939" lon="-0.90304">
        <ele>11</ele>
        <time>2020-06-16T16:13:34Z</time>
      </trkpt>
      <trkpt lat="49.37939" lon="-0.90305">
        <ele>11</ele>
        <time>2020-06-16T16:13:35Z</time>
      </trkpt>
      <trkpt lat="49.3794" lon="-0.90305">
        <ele>11</ele>
        <time>2020-06-16T16:13:36Z</time>
      </trkpt>
      <trkpt lat="49.37941" lon="-0.90306">
        <ele>11</ele>
        <time>2020-06-16T16:13:37Z</time>
      </trkpt>
      <trkpt lat="49.37941" lon="-0.90308">
        <ele>11.1</ele>
        <time>2020-06-16T16:13:38Z</time>
      </trkpt>
      <trkpt lat="49.37941" lon="-0.90309">
        <ele>11.1</ele>
        <time>2020-06-16T16:13:39Z</time>
      </trkpt>
      <trkpt lat="49.37942" lon="-0.90311">
        <ele>11.1</ele>
        <time>2020-06-16T16:13:40Z</time>
      </trkpt>
      <trkpt lat="49.37942" lon="-0.90313">
        <ele>11.1</ele>
        <time>2020-06-16T16:13:41Z</time>
      </trkpt>
      <trkpt lat="49.37942" lon="-0.90316">
        <ele>11.1</ele>
        <time>2020-06-16T16:13:42Z</time>
      </trkpt>
      <trkpt lat="49.37942" lon="-0.90317">
        <ele>11.1</ele>
        <time>2020-06-16T16:13:43Z</time>
      </trkpt>
      <trkpt lat="49.37942" lon="-0.90319">
        <ele>11.2</ele>
        <time>2020-06-16T16:13:44Z</time>
      </trkpt>
      <trkpt lat="49.37942" lon="-0.9032">
        <ele>11.2</ele>
        <time>2020-06-16T16:13:45Z</time>
      </trkpt>
      <trkpt lat="49.37942" lon="-0.90321">
        <ele>11.2</ele>
        <time>2020-06-16T16:13:46Z</time>
      </trkpt>
      <trkpt lat="49.37942" lon="-0.90321">
        <ele>11.2</ele>
        <time>2020-06-16T16:13:47Z</time>
      </trkpt>
      <trkpt lat="49.37942" lon="-0.90321">
        <ele>11.2</ele>
        <time>2020-06-16T16:13:48Z</time>
      </trkpt>
      <trkpt lat="49.37942" lon="-0.90322">
        <ele>11.2</ele>
        <time>2020-06-16T16:13:49Z</time>
      </trkpt>
      <trkpt lat="49.37941" lon="-0.90321">
        <ele>11.2</ele>
        <time>2020-06-16T16:13:50Z</time>
      </trkpt>
      <trkpt lat="49.3794" lon="-0.90321">
        <ele>11.2</ele>
        <time>2020-06-16T16:13:51Z</time>
      </trkpt>
      <trkpt lat="49.3794" lon="-0.90321">
        <ele>11.2</ele>
        <time>2020-06-16T16:13:52Z</time>
      </trkpt>
      <trkpt lat="49.37939" lon="-0.9032">
        <ele>11.2</ele>
        <time>2020-06-16T16:13:53Z</time>
      </trkpt>
      <trkpt lat="49.37939" lon="-0.9032">
        <ele>11.2</ele>
        <time>2020-06-16T16:13:54Z</time>
      </trkpt>
      <trkpt lat="49.37938" lon="-0.9032">
        <ele>11.2</ele>
        <time>2020-06-16T16:13:55Z</time>
      </trkpt>
      <trkpt lat="49.37937" lon="-0.90319">
        <ele>11.2</ele>
        <time>2020-06-16T16:14:05Z</time>
      </trkpt>
      <trkpt lat="49.37937" lon="-0.90319">
        <ele>11.3</ele>
        <time>2020-06-16T16:14:06Z</time>
      </trkpt>
      <trkpt lat="49.37936" lon="-0.90319">
        <ele>11.3</ele>
        <time>2020-06-16T16:14:07Z</time>
      </trkpt>
      <trkpt lat="49.37936" lon="-0.90318">
        <ele>11.3</ele>
        <time>2020-06-16T16:14:08Z</time>
      </trkpt>
      <trkpt lat="49.37936" lon="-0.90318">
        <ele>11.3</ele>
        <time>2020-06-16T16:14:09Z</time>
      </trkpt>
      <trkpt lat="49.37935" lon="-0.90316">
        <ele>11.3</ele>
        <time>2020-06-16T16:14:10Z</time>
      </trkpt>
      <trkpt lat="49.37935" lon="-0.90314">
        <ele>11.3</ele>
        <time>2020-06-16T16:14:11Z</time>
      </trkpt>
      <trkpt lat="49.37934" lon="-0.90312">
        <ele>11.3</ele>
        <time>2020-06-16T16:14:12Z</time>
      </trkpt>
      <trkpt lat="49.37934" lon="-0.90312">
        <ele>11.3</ele>
        <time>2020-06-16T16:14:13Z</time>
      </trkpt>
      <trkpt lat="49.37934" lon="-0.90312">
        <ele>11.3</ele>
        <time>2020-06-16T16:14:14Z</time>
      </trkpt>
      <trkpt lat="49.37934" lon="-0.90312">
        <ele>11.3</ele>
        <time>2020-06-16T16:14:15Z</time>
      </trkpt>
      <trkpt lat="49.37934" lon="-0.90312">
        <ele>11.3</ele>
        <time>2020-06-16T16:14:16Z</time>
      </trkpt>
      <trkpt lat="49.37934" lon="-0.90312">
        <ele>11.3</ele>
        <time>2020-06-16T16:14:17Z</time>
      </trkpt>
      <trkpt lat="49.37933" lon="-0.90312">
        <ele>11.4</ele>
        <time>2020-06-16T16:14:18Z</time>
      </trkpt>
      <trkpt lat="49.37933" lon="-0.90311">
        <ele>11.4</ele>
        <time>2020-06-16T16:14:19Z</time>
      </trkpt>
      <trkpt lat="49.37932" lon="-0.90311">
        <ele>11.4</ele>
        <time>2020-06-16T16:14:20Z</time>
      </trkpt>
      <trkpt lat="49.37932" lon="-0.90311">
        <ele>11.4</ele>
        <time>2020-06-16T16:14:21Z</time>
      </trkpt>
      <trkpt lat="49.37932" lon="-0.90311">
        <ele>11.4</ele>
        <time>2020-06-16T16:14:22Z</time>
      </trkpt>
      <trkpt lat="49.37932" lon="-0.90311">
        <ele>11.4</ele>
        <time>2020-06-16T16:14:23Z</time>
      </trkpt>
      <trkpt lat="49.37926" lon="-0.90312">
        <ele>11.4</ele>
        <time>2020-06-16T16:17:10Z</time>
      </trkpt>
      <trkpt lat="49.37924" lon="-0.90313">
        <ele>11.5</ele>
        <time>2020-06-16T16:17:11Z</time>
      </trkpt>
      <trkpt lat="49.37923" lon="-0.90314">
        <ele>11.5</ele>
        <time>2020-06-16T16:17:12Z</time>
      </trkpt>
      <trkpt lat="49.37922" lon="-0.90315">
        <ele>11.5</ele>
        <time>2020-06-16T16:17:13Z</time>
      </trkpt>
      <trkpt lat="49.3792" lon="-0.90316">
        <ele>11.5</ele>
        <time>2020-06-16T16:17:14Z</time>
      </trkpt>
      <trkpt lat="49.37919" lon="-0.90317">
        <ele>11.5</ele>
        <time>2020-06-16T16:17:15Z</time>
      </trkpt>
      <trkpt lat="49.37919" lon="-0.90319">
        <ele>11.6</ele>
        <time>2020-06-16T16:17:16Z</time>
      </trkpt>
      <trkpt lat="49.37918" lon="-0.9032">
        <ele>11.6</ele>
        <time>2020-06-16T16:17:17Z</time>
      </trkpt>
      <trkpt lat="49.37917" lon="-0.90322">
        <ele>11.6</ele>
        <time>2020-06-16T16:17:18Z</time>
      </trkpt>
      <trkpt lat="49.37917" lon="-0.90322">
        <ele>11.6</ele>
        <time>2020-06-16T16:17:19Z</time>
      </trkpt>
      <trkpt lat="49.37916" lon="-0.90323">
        <ele>11.6</ele>
        <time>2020-06-16T16:17:20Z</time>
      </trkpt>
      <trkpt lat="49.37916" lon="-0.90324">
        <ele>11.6</ele>
        <time>2020-06-16T16:17:21Z</time>
      </trkpt>
      <trkpt lat="49.37916" lon="-0.90324">
        <ele>11.6</ele>
        <time>2020-06-16T16:17:22Z</time>
      </trkpt>
      <trkpt lat="49.37916" lon="-0.90324">
        <ele>11.6</ele>
        <time>2020-06-16T16:17:23Z</time>
      </trkpt>
      <trkpt lat="49.37916" lon="-0.90324">
        <ele>11.6</ele>
        <time>2020-06-16T16:17:24Z</time>
      </trkpt>
      <trkpt lat="49.37915" lon="-0.90325">
        <ele>11.6</ele>
        <time>2020-06-16T16:17:25Z</time>
      </trkpt>
      <trkpt lat="49.37915" lon="-0.90325">
        <ele>11.6</ele>
        <time>2020-06-16T16:17:26Z</time>
      </trkpt>
      <trkpt lat="49.37915" lon="-0.90325">
        <ele>11.6</ele>
        <time>2020-06-16T16:17:27Z</time>
      </trkpt>
      <trkpt lat="49.37914" lon="-0.90326">
        <ele>11.6</ele>
        <time>2020-06-16T16:17:28Z</time>
      </trkpt>
      <trkpt lat="49.37914" lon="-0.90325">
        <ele>11.6</ele>
        <time>2020-06-16T16:17:29Z</time>
      </trkpt>
      <trkpt lat="49.37916" lon="-0.90316">
        <ele>11.7</ele>
        <time>2020-06-16T16:17:38Z</time>
      </trkpt>
      <trkpt lat="49.37917" lon="-0.90312">
        <ele>11.8</ele>
        <time>2020-06-16T16:17:39Z</time>
      </trkpt>
      <trkpt lat="49.37918" lon="-0.90307">
        <ele>11.8</ele>
        <time>2020-06-16T16:17:40Z</time>
      </trkpt>
      <trkpt lat="49.37918" lon="-0.90306">
        <ele>11.8</ele>
        <time>2020-06-16T16:17:41Z</time>
      </trkpt>
      <trkpt lat="49.37918" lon="-0.90304">
        <ele>11.8</ele>
        <time>2020-06-16T16:17:42Z</time>
      </trkpt>
      <trkpt lat="49.37918" lon="-0.90303">
        <ele>11.8</ele>
        <time>2020-06-16T16:17:43Z</time>
      </trkpt>
      <trkpt lat="49.37918" lon="-0.90302">
        <ele>11.8</ele>
        <time>2020-06-16T16:17:44Z</time>
      </trkpt>
      <trkpt lat="49.37918" lon="-0.90302">
        <ele>11.8</ele>
        <time>2020-06-16T16:17:45Z</time>
      </trkpt>
      <trkpt lat="49.37918" lon="-0.90301">
        <ele>11.9</ele>
        <time>2020-06-16T16:17:46Z</time>
      </trkpt>
      <trkpt lat="49.37918" lon="-0.90299">
        <ele>11.9</ele>
        <time>2020-06-16T16:17:47Z</time>
      </trkpt>
      <trkpt lat="49.37917" lon="-0.90298">
        <ele>11.9</ele>
        <time>2020-06-16T16:17:48Z</time>
      </trkpt>
      <trkpt lat="49.37917" lon="-0.90296">
        <ele>11.9</ele>
        <time>2020-06-16T16:17:49Z</time>
      </trkpt>
      <trkpt lat="49.37917" lon="-0.90296">
        <ele>11.9</ele>
        <time>2020-06-16T16:17:50Z</time>
      </trkpt>
      <trkpt lat="49.37918" lon="-0.90296">
        <ele>11.9</ele>
        <time>2020-06-16T16:17:51Z</time>
      </trkpt>
      <trkpt lat="49.37918" lon="-0.90297">
        <ele>11.9</ele>
        <time>2020-06-16T16:17:52Z</time>
      </trkpt>
      <trkpt lat="49.37919" lon="-0.90297">
        <ele>11.9</ele>
        <time>2020-06-16T16:17:53Z</time>
      </trkpt>
      <trkpt lat="49.3792" lon="-0.90297">
        <ele>11.9</ele>
        <time>2020-06-16T16:17:57Z</time>
      </trkpt>
      <trkpt lat="49.3792" lon="-0.90298">
        <ele>11.9</ele>
        <time>2020-06-16T16:17:58Z</time>
      </trkpt>
      <trkpt lat="49.37921" lon="-0.90298">
        <ele>12</ele>
        <time>2020-06-16T16:17:59Z</time>
      </trkpt>
      <trkpt lat="49.37921" lon="-0.90298">
        <ele>12</ele>
        <time>2020-06-16T16:18:00Z</time>
      </trkpt>
      <trkpt lat="49.37924" lon="-0.90301">
        <ele>12</ele>
        <time>2020-06-16T16:18:01Z</time>
      </trkpt>
      <trkpt lat="49.37927" lon="-0.90304">
        <ele>12</ele>
        <time>2020-06-16T16:18:02Z</time>
      </trkpt>
      <trkpt lat="49.3793" lon="-0.90308">
        <ele>12.1</ele>
        <time>2020-06-16T16:18:03Z</time>
      </trkpt>
      <trkpt lat="49.37933" lon="-0.90311">
        <ele>12.1</ele>
        <time>2020-06-16T16:18:04Z</time>
      </trkpt>
      <trkpt lat="49.37935" lon="-0.90315">
        <ele>12.2</ele>
        <time>2020-06-16T16:18:05Z</time>
      </trkpt>
      <trkpt lat="49.37937" lon="-0.9032">
        <ele>12.2</ele>
        <time>2020-06-16T16:18:06Z</time>
      </trkpt>
      <trkpt lat="49.37937" lon="-0.90326">
        <ele>12.3</ele>
        <time>2020-06-16T16:18:07Z</time>
      </trkpt>
      <trkpt lat="49.37937" lon="-0.9033">
        <ele>12.3</ele>
        <time>2020-06-16T16:18:08Z</time>
      </trkpt>
      <trkpt lat="49.37936" lon="-0.90332">
        <ele>12.3</ele>
        <time>2020-06-16T16:18:09Z</time>
      </trkpt>
      <trkpt lat="49.37935" lon="-0.90336">
        <ele>12.4</ele>
        <time>2020-06-16T16:18:10Z</time>
      </trkpt>
      <trkpt lat="49.37934" lon="-0.90337">
        <ele>12.4</ele>
        <time>2020-06-16T16:18:11Z</time>
      </trkpt>
      <trkpt lat="49.37932" lon="-0.90338">
        <ele>12.4</ele>
        <time>2020-06-16T16:18:12Z</time>
      </trkpt>
      <trkpt lat="49.37931" lon="-0.90337">
        <ele>12.4</ele>
        <time>2020-06-16T16:18:13Z</time>
      </trkpt>
      <trkpt lat="49.37928" lon="-0.90336">
        <ele>12.5</ele>
        <time>2020-06-16T16:18:14Z</time>
      </trkpt>
      <trkpt lat="49.37925" lon="-0.90334">
        <ele>12.5</ele>
        <time>2020-06-16T16:18:15Z</time>
      </trkpt>
      <trkpt lat="49.37922" lon="-0.90332">
        <ele>12.6</ele>
        <time>2020-06-16T16:18:16Z</time>
      </trkpt>
      <trkpt lat="49.3792" lon="-0.9033">
        <ele>12.6</ele>
        <time>2020-06-16T16:18:17Z</time>
      </trkpt>
      <trkpt lat="49.37917" lon="-0.90327">
        <ele>12.6</ele>
        <time>2020-06-16T16:18:18Z</time>
      </trkpt>
      <trkpt lat="49.37916" lon="-0.90326">
        <ele>12.6</ele>
        <time>2020-06-16T16:18:19Z</time>
      </trkpt>
      <trkpt lat="49.37915" lon="-0.90324">
        <ele>12.7</ele>
        <time>2020-06-16T16:18:20Z</time>
      </trkpt>
      <trkpt lat="49.37914" lon="-0.90323">
        <ele>12.7</ele>
        <time>2020-06-16T16:18:21Z</time>
      </trkpt>
      <trkpt lat="49.37914" lon="-0.90323">
        <ele>12.7</ele>
        <time>2020-06-16T16:18:22Z</time>
      </trkpt>
      <trkpt lat="49.37913" lon="-0.90323">
        <ele>12.7</ele>
        <time>2020-06-16T16:18:23Z</time>
      </trkpt>
      <trkpt lat="49.37913" lon="-0.90323">
        <ele>12.7</ele>
        <time>2020-06-16T16:18:24Z</time>
      </trkpt>
      <trkpt lat="49.37913" lon="-0.90323">
        <ele>12.7</ele>
        <time>2020-06-16T16:18:25Z</time>
      </trkpt>
      <trkpt lat="49.37913" lon="-0.90322">
        <ele>12.7</ele>
        <time>2020-06-16T16:18:26Z</time>
      </trkpt>
      <trkpt lat="49.37912" lon="-0.90322">
        <ele>12.7</ele>
        <time>2020-06-16T16:18:27Z</time>
      </trkpt>
      <trkpt lat="49.37911" lon="-0.90321">
        <ele>12.7</ele>
        <time>2020-06-16T16:18:28Z</time>
      </trkpt>
      <trkpt lat="49.3791" lon="-0.9032">
        <ele>12.7</ele>
        <time>2020-06-16T16:18:29Z</time>
      </trkpt>
      <trkpt lat="49.3791" lon="-0.90318">
        <ele>12.8</ele>
        <time>2020-06-16T16:18:30Z</time>
      </trkpt>
      <trkpt lat="49.3791" lon="-0.90317">
        <ele>12.8</ele>
        <time>2020-06-16T16:18:31Z</time>
      </trkpt>
      <trkpt lat="49.37909" lon="-0.90316">
        <ele>12.4</ele>
        <time>2020-06-16T16:18:32Z</time>
      </trkpt>
      <trkpt lat="49.37909" lon="-0.90314">
        <ele>12.3</ele>
        <time>2020-06-16T16:18:33Z</time>
      </trkpt>
      <trkpt lat="49.37908" lon="-0.90313">
        <ele>12.2</ele>
        <time>2020-06-16T16:18:34Z</time>
      </trkpt>
      <trkpt lat="49.37908" lon="-0.90311">
        <ele>12.1</ele>
        <time>2020-06-16T16:18:35Z</time>
      </trkpt>
      <trkpt lat="49.37907" lon="-0.9031">
        <ele>12</ele>
        <time>2020-06-16T16:18:42Z</time>
      </trkpt>
      <trkpt lat="49.37907" lon="-0.90309">
        <ele>11.9</ele>
        <time>2020-06-16T16:18:43Z</time>
      </trkpt>
      <trkpt lat="49.37906" lon="-0.90304">
        <ele>11.6</ele>
        <time>2020-06-16T16:18:44Z</time>
      </trkpt>
      <trkpt lat="49.37905" lon="-0.90297">
        <ele>11.2</ele>
        <time>2020-06-16T16:18:45Z</time>
      </trkpt>
      <trkpt lat="49.37906" lon="-0.9029">
        <ele>10.8</ele>
        <time>2020-06-16T16:18:46Z</time>
      </trkpt>
      <trkpt lat="49.37906" lon="-0.90284">
        <ele>10.4</ele>
        <time>2020-06-16T16:18:47Z</time>
      </trkpt>
      <trkpt lat="49.37906" lon="-0.90278">
        <ele>10</ele>
        <time>2020-06-16T16:18:48Z</time>
      </trkpt>
      <trkpt lat="49.37906" lon="-0.90272">
        <ele>9.6</ele>
        <time>2020-06-16T16:18:49Z</time>
      </trkpt>
      <trkpt lat="49.37904" lon="-0.90265">
        <ele>9.1</ele>
        <time>2020-06-16T16:18:50Z</time>
      </trkpt>
      <trkpt lat="49.37902" lon="-0.90256">
        <ele>8.5</ele>
        <time>2020-06-16T16:18:51Z</time>
      </trkpt>
      <trkpt lat="49.379" lon="-0.90247">
        <ele>7.9</ele>
        <time>2020-06-16T16:18:52Z</time>
      </trkpt>
      <trkpt lat="49.37897" lon="-0.90237">
        <ele>7.3</ele>
        <time>2020-06-16T16:18:53Z</time>
      </trkpt>
      <trkpt lat="49.37895" lon="-0.90226">
        <ele>6.7</ele>
        <time>2020-06-16T16:18:54Z</time>
      </trkpt>
      <trkpt lat="49.37893" lon="-0.90215">
        <ele>6.2</ele>
        <time>2020-06-16T16:18:55Z</time>
      </trkpt>
      <trkpt lat="49.3789" lon="-0.90205">
        <ele>5.6</ele>
        <time>2020-06-16T16:18:56Z</time>
      </trkpt>
      <trkpt lat="49.37887" lon="-0.90194">
        <ele>5.4</ele>
        <time>2020-06-16T16:18:57Z</time>
      </trkpt>
      <trkpt lat="49.37885" lon="-0.90184">
        <ele>5.3</ele>
        <time>2020-06-16T16:18:58Z</time>
      </trkpt>
      <trkpt lat="49.37882" lon="-0.90175">
        <ele>5.2</ele>
        <time>2020-06-16T16:18:59Z</time>
      </trkpt>
      <trkpt lat="49.37879" lon="-0.90165">
        <ele>5.2</ele>
        <time>2020-06-16T16:19:00Z</time>
      </trkpt>
      <trkpt lat="49.37876" lon="-0.90155">
        <ele>5.1</ele>
        <time>2020-06-16T16:19:01Z</time>
      </trkpt>
      <trkpt lat="49.37872" lon="-0.90144">
        <ele>5.1</ele>
        <time>2020-06-16T16:19:02Z</time>
      </trkpt>
      <trkpt lat="49.37869" lon="-0.90134">
        <ele>5</ele>
        <time>2020-06-16T16:19:03Z</time>
      </trkpt>
      <trkpt lat="49.37866" lon="-0.90125">
        <ele>5</ele>
        <time>2020-06-16T16:19:04Z</time>
      </trkpt>
      <trkpt lat="49.37863" lon="-0.90116">
        <ele>4.9</ele>
        <time>2020-06-16T16:19:05Z</time>
      </trkpt>
      <trkpt lat="49.37861" lon="-0.90108">
        <ele>4.9</ele>
        <time>2020-06-16T16:19:06Z</time>
      </trkpt>
      <trkpt lat="49.37858" lon="-0.90098">
        <ele>4.9</ele>
        <time>2020-06-16T16:19:07Z</time>
      </trkpt>
      <trkpt lat="49.37855" lon="-0.90089">
        <ele>4.8</ele>
        <time>2020-06-16T16:19:08Z</time>
      </trkpt>
      <trkpt lat="49.37852" lon="-0.90081">
        <ele>4.8</ele>
        <time>2020-06-16T16:19:09Z</time>
      </trkpt>
      <trkpt lat="49.37849" lon="-0.90074">
        <ele>4.8</ele>
        <time>2020-06-16T16:19:10Z</time>
      </trkpt>
      <trkpt lat="49.37845" lon="-0.90068">
        <ele>4.8</ele>
        <time>2020-06-16T16:19:11Z</time>
      </trkpt>
      <trkpt lat="49.37842" lon="-0.90061">
        <ele>4.8</ele>
        <time>2020-06-16T16:19:12Z</time>
      </trkpt>
      <trkpt lat="49.37839" lon="-0.90054">
        <ele>4.7</ele>
        <time>2020-06-16T16:19:13Z</time>
      </trkpt>
      <trkpt lat="49.37836" lon="-0.90047">
        <ele>4.7</ele>
        <time>2020-06-16T16:19:14Z</time>
      </trkpt>
      <trkpt lat="49.37833" lon="-0.90039">
        <ele>4.7</ele>
        <time>2020-06-16T16:19:15Z</time>
      </trkpt>
      <trkpt lat="49.3783" lon="-0.90032">
        <ele>4.7</ele>
        <time>2020-06-16T16:19:16Z</time>
      </trkpt>
      <trkpt lat="49.37827" lon="-0.90026">
        <ele>4.7</ele>
        <time>2020-06-16T16:19:17Z</time>
      </trkpt>
      <trkpt lat="49.37824" lon="-0.9002">
        <ele>4.7</ele>
        <time>2020-06-16T16:19:18Z</time>
      </trkpt>
      <trkpt lat="49.37821" lon="-0.90013">
        <ele>4.7</ele>
        <time>2020-06-16T16:19:19Z</time>
      </trkpt>
      <trkpt lat="49.37817" lon="-0.90006">
        <ele>4.6</ele>
        <time>2020-06-16T16:19:20Z</time>
      </trkpt>
      <trkpt lat="49.37814" lon="-0.89999">
        <ele>4.6</ele>
        <time>2020-06-16T16:19:21Z</time>
      </trkpt>
      <trkpt lat="49.37812" lon="-0.89993">
        <ele>4.6</ele>
        <time>2020-06-16T16:19:22Z</time>
      </trkpt>
      <trkpt lat="49.37809" lon="-0.89987">
        <ele>4.6</ele>
        <time>2020-06-16T16:19:23Z</time>
      </trkpt>
      <trkpt lat="49.37807" lon="-0.89981">
        <ele>4.6</ele>
        <time>2020-06-16T16:19:24Z</time>
      </trkpt>
      <trkpt lat="49.37804" lon="-0.89974">
        <ele>4.6</ele>
        <time>2020-06-16T16:19:25Z</time>
      </trkpt>
      <trkpt lat="49.37801" lon="-0.89968">
        <ele>4.6</ele>
        <time>2020-06-16T16:19:26Z</time>
      </trkpt>
      <trkpt lat="49.37798" lon="-0.89961">
        <ele>4.6</ele>
        <time>2020-06-16T16:19:27Z</time>
      </trkpt>
      <trkpt lat="49.37795" lon="-0.89954">
        <ele>4.6</ele>
        <time>2020-06-16T16:19:28Z</time>
      </trkpt>
      <trkpt lat="49.37792" lon="-0.89947">
        <ele>4.6</ele>
        <time>2020-06-16T16:19:29Z</time>
      </trkpt>
      <trkpt lat="49.3779" lon="-0.8994">
        <ele>4.6</ele>
        <time>2020-06-16T16:19:30Z</time>
      </trkpt>
      <trkpt lat="49.37788" lon="-0.89933">
        <ele>4.6</ele>
        <time>2020-06-16T16:19:31Z</time>
      </trkpt>
      <trkpt lat="49.37785" lon="-0.89927">
        <ele>4.6</ele>
        <time>2020-06-16T16:19:32Z</time>
      </trkpt>
      <trkpt lat="49.37783" lon="-0.89922">
        <ele>4.6</ele>
        <time>2020-06-16T16:19:33Z</time>
      </trkpt>
      <trkpt lat="49.3778" lon="-0.89916">
        <ele>4.6</ele>
        <time>2020-06-16T16:19:34Z</time>
      </trkpt>
      <trkpt lat="49.37777" lon="-0.8991">
        <ele>4.6</ele>
        <time>2020-06-16T16:19:35Z</time>
      </trkpt>
      <trkpt lat="49.37774" lon="-0.89902">
        <ele>4.6</ele>
        <time>2020-06-16T16:19:36Z</time>
      </trkpt>
      <trkpt lat="49.37771" lon="-0.89896">
        <ele>4.6</ele>
        <time>2020-06-16T16:19:37Z</time>
      </trkpt>
      <trkpt lat="49.37769" lon="-0.8989">
        <ele>4.6</ele>
        <time>2020-06-16T16:19:38Z</time>
      </trkpt>
      <trkpt lat="49.37766" lon="-0.89884">
        <ele>4.6</ele>
        <time>2020-06-16T16:19:39Z</time>
      </trkpt>
      <trkpt lat="49.37764" lon="-0.89877">
        <ele>4.6</ele>
        <time>2020-06-16T16:19:40Z</time>
      </trkpt>
      <trkpt lat="49.37761" lon="-0.89871">
        <ele>4.7</ele>
        <time>2020-06-16T16:19:41Z</time>
      </trkpt>
      <trkpt lat="49.37758" lon="-0.89864">
        <ele>4.7</ele>
        <time>2020-06-16T16:19:42Z</time>
      </trkpt>
      <trkpt lat="49.37755" lon="-0.89858">
        <ele>4.7</ele>
        <time>2020-06-16T16:19:43Z</time>
      </trkpt>
      <trkpt lat="49.37752" lon="-0.89851">
        <ele>4.7</ele>
        <time>2020-06-16T16:19:44Z</time>
      </trkpt>
      <trkpt lat="49.37748" lon="-0.89845">
        <ele>4.7</ele>
        <time>2020-06-16T16:19:45Z</time>
      </trkpt>
      <trkpt lat="49.37745" lon="-0.89838">
        <ele>4.7</ele>
        <time>2020-06-16T16:19:46Z</time>
      </trkpt>
      <trkpt lat="49.37742" lon="-0.89831">
        <ele>4.6</ele>
        <time>2020-06-16T16:19:47Z</time>
      </trkpt>
      <trkpt lat="49.3774" lon="-0.89825">
        <ele>4.6</ele>
        <time>2020-06-16T16:19:48Z</time>
      </trkpt>
      <trkpt lat="49.37737" lon="-0.89818">
        <ele>4.6</ele>
        <time>2020-06-16T16:19:49Z</time>
      </trkpt>
      <trkpt lat="49.37734" lon="-0.89811">
        <ele>4.6</ele>
        <time>2020-06-16T16:19:50Z</time>
      </trkpt>
      <trkpt lat="49.37732" lon="-0.89804">
        <ele>4.6</ele>
        <time>2020-06-16T16:19:51Z</time>
      </trkpt>
      <trkpt lat="49.37729" lon="-0.89798">
        <ele>4.6</ele>
        <time>2020-06-16T16:19:52Z</time>
      </trkpt>
      <trkpt lat="49.37726" lon="-0.89792">
        <ele>4.6</ele>
        <time>2020-06-16T16:19:53Z</time>
      </trkpt>
      <trkpt lat="49.37723" lon="-0.89785">
        <ele>4.6</ele>
        <time>2020-06-16T16:19:54Z</time>
      </trkpt>
      <trkpt lat="49.3772" lon="-0.89779">
        <ele>4.6</ele>
        <time>2020-06-16T16:19:55Z</time>
      </trkpt>
      <trkpt lat="49.37717" lon="-0.89774">
        <ele>4.6</ele>
        <time>2020-06-16T16:19:56Z</time>
      </trkpt>
      <trkpt lat="49.37714" lon="-0.89768">
        <ele>4.6</ele>
        <time>2020-06-16T16:19:57Z</time>
      </trkpt>
      <trkpt lat="49.37711" lon="-0.89762">
        <ele>4.6</ele>
        <time>2020-06-16T16:19:58Z</time>
      </trkpt>
      <trkpt lat="49.37708" lon="-0.89756">
        <ele>4.5</ele>
        <time>2020-06-16T16:19:59Z</time>
      </trkpt>
      <trkpt lat="49.37705" lon="-0.8975">
        <ele>4.5</ele>
        <time>2020-06-16T16:20:00Z</time>
      </trkpt>
      <trkpt lat="49.37702" lon="-0.89744">
        <ele>4.5</ele>
        <time>2020-06-16T16:20:01Z</time>
      </trkpt>
      <trkpt lat="49.377" lon="-0.89739">
        <ele>4.5</ele>
        <time>2020-06-16T16:20:02Z</time>
      </trkpt>
      <trkpt lat="49.37698" lon="-0.89735">
        <ele>4.5</ele>
        <time>2020-06-16T16:20:03Z</time>
      </trkpt>
      <trkpt lat="49.37696" lon="-0.89731">
        <ele>4.5</ele>
        <time>2020-06-16T16:20:04Z</time>
      </trkpt>
      <trkpt lat="49.37693" lon="-0.89726">
        <ele>4.5</ele>
        <time>2020-06-16T16:20:05Z</time>
      </trkpt>
      <trkpt lat="49.37692" lon="-0.89721">
        <ele>4.5</ele>
        <time>2020-06-16T16:20:06Z</time>
      </trkpt>
      <trkpt lat="49.37689" lon="-0.89715">
        <ele>4.5</ele>
        <time>2020-06-16T16:20:07Z</time>
      </trkpt>
      <trkpt lat="49.37686" lon="-0.89709">
        <ele>4.5</ele>
        <time>2020-06-16T16:20:08Z</time>
      </trkpt>
      <trkpt lat="49.37683" lon="-0.89704">
        <ele>4.5</ele>
        <time>2020-06-16T16:20:09Z</time>
      </trkpt>
      <trkpt lat="49.37681" lon="-0.89698">
        <ele>4.5</ele>
        <time>2020-06-16T16:20:10Z</time>
      </trkpt>
      <trkpt lat="49.37679" lon="-0.89692">
        <ele>4.5</ele>
        <time>2020-06-16T16:20:11Z</time>
      </trkpt>
      <trkpt lat="49.37677" lon="-0.89686">
        <ele>4.4</ele>
        <time>2020-06-16T16:20:12Z</time>
      </trkpt>
      <trkpt lat="49.37674" lon="-0.8968">
        <ele>4.4</ele>
        <time>2020-06-16T16:20:13Z</time>
      </trkpt>
      <trkpt lat="49.37672" lon="-0.89674">
        <ele>4.4</ele>
        <time>2020-06-16T16:20:14Z</time>
      </trkpt>
      <trkpt lat="49.3767" lon="-0.89668">
        <ele>4.4</ele>
        <time>2020-06-16T16:20:15Z</time>
      </trkpt>
      <trkpt lat="49.37667" lon="-0.89662">
        <ele>4.4</ele>
        <time>2020-06-16T16:20:16Z</time>
      </trkpt>
      <trkpt lat="49.37665" lon="-0.89656">
        <ele>4.4</ele>
        <time>2020-06-16T16:20:17Z</time>
      </trkpt>
      <trkpt lat="49.37663" lon="-0.89649">
        <ele>4.4</ele>
        <time>2020-06-16T16:20:18Z</time>
      </trkpt>
      <trkpt lat="49.37661" lon="-0.89643">
        <ele>4.4</ele>
        <time>2020-06-16T16:20:19Z</time>
      </trkpt>
      <trkpt lat="49.37659" lon="-0.89636">
        <ele>4.4</ele>
        <time>2020-06-16T16:20:20Z</time>
      </trkpt>
      <trkpt lat="49.37656" lon="-0.8963">
        <ele>4.4</ele>
        <time>2020-06-16T16:20:21Z</time>
      </trkpt>
      <trkpt lat="49.37654" lon="-0.89624">
        <ele>4.3</ele>
        <time>2020-06-16T16:20:22Z</time>
      </trkpt>
      <trkpt lat="49.37651" lon="-0.89618">
        <ele>4.3</ele>
        <time>2020-06-16T16:20:23Z</time>
      </trkpt>
      <trkpt lat="49.37647" lon="-0.89612">
        <ele>4.3</ele>
        <time>2020-06-16T16:20:24Z</time>
      </trkpt>
      <trkpt lat="49.37645" lon="-0.89606">
        <ele>4.3</ele>
        <time>2020-06-16T16:20:25Z</time>
      </trkpt>
      <trkpt lat="49.37642" lon="-0.89601">
        <ele>4.3</ele>
        <time>2020-06-16T16:20:26Z</time>
      </trkpt>
      <trkpt lat="49.3764" lon="-0.89594">
        <ele>4.3</ele>
        <time>2020-06-16T16:20:27Z</time>
      </trkpt>
      <trkpt lat="49.37637" lon="-0.89588">
        <ele>4.3</ele>
        <time>2020-06-16T16:20:28Z</time>
      </trkpt>
      <trkpt lat="49.37635" lon="-0.89583">
        <ele>4.3</ele>
        <time>2020-06-16T16:20:29Z</time>
      </trkpt>
      <trkpt lat="49.37632" lon="-0.89577">
        <ele>4.3</ele>
        <time>2020-06-16T16:20:30Z</time>
      </trkpt>
      <trkpt lat="49.37629" lon="-0.8957">
        <ele>4.3</ele>
        <time>2020-06-16T16:20:31Z</time>
      </trkpt>
      <trkpt lat="49.37627" lon="-0.89563">
        <ele>4.3</ele>
        <time>2020-06-16T16:20:32Z</time>
      </trkpt>
      <trkpt lat="49.37625" lon="-0.89556">
        <ele>4.3</ele>
        <time>2020-06-16T16:20:33Z</time>
      </trkpt>
      <trkpt lat="49.37623" lon="-0.8955">
        <ele>4.3</ele>
        <time>2020-06-16T16:20:34Z</time>
      </trkpt>
      <trkpt lat="49.3762" lon="-0.89543">
        <ele>4.3</ele>
        <time>2020-06-16T16:20:35Z</time>
      </trkpt>
      <trkpt lat="49.37617" lon="-0.89536">
        <ele>4.3</ele>
        <time>2020-06-16T16:20:36Z</time>
      </trkpt>
      <trkpt lat="49.37614" lon="-0.8953">
        <ele>4.3</ele>
        <time>2020-06-16T16:20:37Z</time>
      </trkpt>
      <trkpt lat="49.37612" lon="-0.89525">
        <ele>4.3</ele>
        <time>2020-06-16T16:20:38Z</time>
      </trkpt>
      <trkpt lat="49.37609" lon="-0.89519">
        <ele>4.3</ele>
        <time>2020-06-16T16:20:39Z</time>
      </trkpt>
      <trkpt lat="49.37607" lon="-0.89513">
        <ele>4.3</ele>
        <time>2020-06-16T16:20:40Z</time>
      </trkpt>
      <trkpt lat="49.37604" lon="-0.89506">
        <ele>4.3</ele>
        <time>2020-06-16T16:20:41Z</time>
      </trkpt>
      <trkpt lat="49.37602" lon="-0.89499">
        <ele>4.3</ele>
        <time>2020-06-16T16:20:42Z</time>
      </trkpt>
      <trkpt lat="49.376" lon="-0.89492">
        <ele>4.3</ele>
        <time>2020-06-16T16:20:43Z</time>
      </trkpt>
      <trkpt lat="49.37598" lon="-0.89485">
        <ele>4.3</ele>
        <time>2020-06-16T16:20:44Z</time>
      </trkpt>
      <trkpt lat="49.37596" lon="-0.89478">
        <ele>4.3</ele>
        <time>2020-06-16T16:20:45Z</time>
      </trkpt>
      <trkpt lat="49.37594" lon="-0.89471">
        <ele>4.3</ele>
        <time>2020-06-16T16:20:46Z</time>
      </trkpt>
      <trkpt lat="49.37592" lon="-0.89464">
        <ele>4.3</ele>
        <time>2020-06-16T16:20:47Z</time>
      </trkpt>
      <trkpt lat="49.3759" lon="-0.89457">
        <ele>4.3</ele>
        <time>2020-06-16T16:20:48Z</time>
      </trkpt>
      <trkpt lat="49.37588" lon="-0.89451">
        <ele>4.3</ele>
        <time>2020-06-16T16:20:49Z</time>
      </trkpt>
      <trkpt lat="49.37586" lon="-0.89444">
        <ele>4.3</ele>
        <time>2020-06-16T16:20:50Z</time>
      </trkpt>
      <trkpt lat="49.37585" lon="-0.89437">
        <ele>4.3</ele>
        <time>2020-06-16T16:20:51Z</time>
      </trkpt>
      <trkpt lat="49.37583" lon="-0.8943">
        <ele>4.2</ele>
        <time>2020-06-16T16:20:52Z</time>
      </trkpt>
      <trkpt lat="49.3758" lon="-0.89423">
        <ele>4.2</ele>
        <time>2020-06-16T16:20:53Z</time>
      </trkpt>
      <trkpt lat="49.37578" lon="-0.89417">
        <ele>4.2</ele>
        <time>2020-06-16T16:20:54Z</time>
      </trkpt>
      <trkpt lat="49.37575" lon="-0.8941">
        <ele>4.2</ele>
        <time>2020-06-16T16:20:55Z</time>
      </trkpt>
      <trkpt lat="49.37573" lon="-0.89403">
        <ele>4.2</ele>
        <time>2020-06-16T16:20:56Z</time>
      </trkpt>
      <trkpt lat="49.3757" lon="-0.89396">
        <ele>4.2</ele>
        <time>2020-06-16T16:20:57Z</time>
      </trkpt>
      <trkpt lat="49.37567" lon="-0.8939">
        <ele>4.1</ele>
        <time>2020-06-16T16:20:58Z</time>
      </trkpt>
      <trkpt lat="49.37564" lon="-0.89383">
        <ele>4.1</ele>
        <time>2020-06-16T16:20:59Z</time>
      </trkpt>
      <trkpt lat="49.37562" lon="-0.89376">
        <ele>4.1</ele>
        <time>2020-06-16T16:21:00Z</time>
      </trkpt>
      <trkpt lat="49.37559" lon="-0.89369">
        <ele>4.1</ele>
        <time>2020-06-16T16:21:01Z</time>
      </trkpt>
      <trkpt lat="49.37557" lon="-0.89363">
        <ele>4.2</ele>
        <time>2020-06-16T16:21:02Z</time>
      </trkpt>
      <trkpt lat="49.37555" lon="-0.89356">
        <ele>4.2</ele>
        <time>2020-06-16T16:21:03Z</time>
      </trkpt>
      <trkpt lat="49.37553" lon="-0.89349">
        <ele>4.2</ele>
        <time>2020-06-16T16:21:04Z</time>
      </trkpt>
      <trkpt lat="49.37551" lon="-0.89341">
        <ele>4.2</ele>
        <time>2020-06-16T16:21:05Z</time>
      </trkpt>
      <trkpt lat="49.37549" lon="-0.89334">
        <ele>4.2</ele>
        <time>2020-06-16T16:21:06Z</time>
      </trkpt>
      <trkpt lat="49.37547" lon="-0.89328">
        <ele>4.2</ele>
        <time>2020-06-16T16:21:07Z</time>
      </trkpt>
      <trkpt lat="49.37544" lon="-0.89321">
        <ele>4.2</ele>
        <time>2020-06-16T16:21:08Z</time>
      </trkpt>
      <trkpt lat="49.37542" lon="-0.89314">
        <ele>4.2</ele>
        <time>2020-06-16T16:21:09Z</time>
      </trkpt>
      <trkpt lat="49.37539" lon="-0.89307">
        <ele>4.2</ele>
        <time>2020-06-16T16:21:10Z</time>
      </trkpt>
      <trkpt lat="49.37537" lon="-0.89302">
        <ele>4.3</ele>
        <time>2020-06-16T16:21:11Z</time>
      </trkpt>
      <trkpt lat="49.37535" lon="-0.89296">
        <ele>4.3</ele>
        <time>2020-06-16T16:21:12Z</time>
      </trkpt>
      <trkpt lat="49.37533" lon="-0.89288">
        <ele>4.3</ele>
        <time>2020-06-16T16:21:13Z</time>
      </trkpt>
      <trkpt lat="49.37531" lon="-0.89282">
        <ele>4.2</ele>
        <time>2020-06-16T16:21:14Z</time>
      </trkpt>
      <trkpt lat="49.37529" lon="-0.89275">
        <ele>4.2</ele>
        <time>2020-06-16T16:21:15Z</time>
      </trkpt>
      <trkpt lat="49.37526" lon="-0.89269">
        <ele>4.2</ele>
        <time>2020-06-16T16:21:16Z</time>
      </trkpt>
      <trkpt lat="49.37524" lon="-0.89262">
        <ele>4.2</ele>
        <time>2020-06-16T16:21:17Z</time>
      </trkpt>
      <trkpt lat="49.37521" lon="-0.89255">
        <ele>4.2</ele>
        <time>2020-06-16T16:21:18Z</time>
      </trkpt>
      <trkpt lat="49.37519" lon="-0.89248">
        <ele>4.2</ele>
        <time>2020-06-16T16:21:19Z</time>
      </trkpt>
      <trkpt lat="49.37516" lon="-0.89241">
        <ele>4.2</ele>
        <time>2020-06-16T16:21:20Z</time>
      </trkpt>
      <trkpt lat="49.37514" lon="-0.89234">
        <ele>4.2</ele>
        <time>2020-06-16T16:21:21Z</time>
      </trkpt>
      <trkpt lat="49.37512" lon="-0.89227">
        <ele>4.2</ele>
        <time>2020-06-16T16:21:22Z</time>
      </trkpt>
      <trkpt lat="49.3751" lon="-0.89221">
        <ele>4.2</ele>
        <time>2020-06-16T16:21:23Z</time>
      </trkpt>
      <trkpt lat="49.37507" lon="-0.89214">
        <ele>4.2</ele>
        <time>2020-06-16T16:21:24Z</time>
      </trkpt>
      <trkpt lat="49.37505" lon="-0.89207">
        <ele>4.2</ele>
        <time>2020-06-16T16:21:25Z</time>
      </trkpt>
      <trkpt lat="49.37503" lon="-0.892">
        <ele>4.2</ele>
        <time>2020-06-16T16:21:26Z</time>
      </trkpt>
      <trkpt lat="49.37501" lon="-0.89193">
        <ele>4.2</ele>
        <time>2020-06-16T16:21:27Z</time>
      </trkpt>
      <trkpt lat="49.37499" lon="-0.89186">
        <ele>4.2</ele>
        <time>2020-06-16T16:21:28Z</time>
      </trkpt>
      <trkpt lat="49.37497" lon="-0.89179">
        <ele>4.3</ele>
        <time>2020-06-16T16:21:29Z</time>
      </trkpt>
      <trkpt lat="49.37494" lon="-0.89171">
        <ele>4.3</ele>
        <time>2020-06-16T16:21:30Z</time>
      </trkpt>
      <trkpt lat="49.37492" lon="-0.89165">
        <ele>4.3</ele>
        <time>2020-06-16T16:21:31Z</time>
      </trkpt>
      <trkpt lat="49.3749" lon="-0.89158">
        <ele>4.3</ele>
        <time>2020-06-16T16:21:32Z</time>
      </trkpt>
      <trkpt lat="49.37487" lon="-0.8915">
        <ele>4.3</ele>
        <time>2020-06-16T16:21:33Z</time>
      </trkpt>
      <trkpt lat="49.37485" lon="-0.89143">
        <ele>4.3</ele>
        <time>2020-06-16T16:21:34Z</time>
      </trkpt>
      <trkpt lat="49.37482" lon="-0.89136">
        <ele>4.3</ele>
        <time>2020-06-16T16:21:35Z</time>
      </trkpt>
      <trkpt lat="49.37479" lon="-0.89129">
        <ele>4.3</ele>
        <time>2020-06-16T16:21:36Z</time>
      </trkpt>
      <trkpt lat="49.37477" lon="-0.89122">
        <ele>4.3</ele>
        <time>2020-06-16T16:21:37Z</time>
      </trkpt>
      <trkpt lat="49.37474" lon="-0.89116">
        <ele>4.3</ele>
        <time>2020-06-16T16:21:38Z</time>
      </trkpt>
      <trkpt lat="49.37472" lon="-0.89109">
        <ele>4.3</ele>
        <time>2020-06-16T16:21:39Z</time>
      </trkpt>
      <trkpt lat="49.37469" lon="-0.89103">
        <ele>4.3</ele>
        <time>2020-06-16T16:21:40Z</time>
      </trkpt>
      <trkpt lat="49.37467" lon="-0.89097">
        <ele>4.3</ele>
        <time>2020-06-16T16:21:41Z</time>
      </trkpt>
      <trkpt lat="49.37465" lon="-0.89091">
        <ele>4.4</ele>
        <time>2020-06-16T16:21:42Z</time>
      </trkpt>
      <trkpt lat="49.37463" lon="-0.89084">
        <ele>4.4</ele>
        <time>2020-06-16T16:21:43Z</time>
      </trkpt>
      <trkpt lat="49.37461" lon="-0.89077">
        <ele>4.4</ele>
        <time>2020-06-16T16:21:44Z</time>
      </trkpt>
      <trkpt lat="49.37459" lon="-0.89071">
        <ele>4.4</ele>
        <time>2020-06-16T16:21:45Z</time>
      </trkpt>
      <trkpt lat="49.37458" lon="-0.89064">
        <ele>4.4</ele>
        <time>2020-06-16T16:21:46Z</time>
      </trkpt>
      <trkpt lat="49.37456" lon="-0.89057">
        <ele>4.3</ele>
        <time>2020-06-16T16:21:47Z</time>
      </trkpt>
      <trkpt lat="49.37455" lon="-0.8905">
        <ele>4.3</ele>
        <time>2020-06-16T16:21:48Z</time>
      </trkpt>
      <trkpt lat="49.37453" lon="-0.89043">
        <ele>4.3</ele>
        <time>2020-06-16T16:21:49Z</time>
      </trkpt>
      <trkpt lat="49.37449" lon="-0.89037">
        <ele>4.3</ele>
        <time>2020-06-16T16:21:50Z</time>
      </trkpt>
      <trkpt lat="49.37447" lon="-0.8903">
        <ele>4.3</ele>
        <time>2020-06-16T16:21:51Z</time>
      </trkpt>
      <trkpt lat="49.37444" lon="-0.89024">
        <ele>4.3</ele>
        <time>2020-06-16T16:21:52Z</time>
      </trkpt>
      <trkpt lat="49.37442" lon="-0.89017">
        <ele>4.3</ele>
        <time>2020-06-16T16:21:53Z</time>
      </trkpt>
      <trkpt lat="49.37439" lon="-0.8901">
        <ele>4.3</ele>
        <time>2020-06-16T16:21:54Z</time>
      </trkpt>
      <trkpt lat="49.37437" lon="-0.89003">
        <ele>4.3</ele>
        <time>2020-06-16T16:21:55Z</time>
      </trkpt>
      <trkpt lat="49.37436" lon="-0.88996">
        <ele>4.3</ele>
        <time>2020-06-16T16:21:56Z</time>
      </trkpt>
      <trkpt lat="49.37433" lon="-0.88989">
        <ele>4.3</ele>
        <time>2020-06-16T16:21:57Z</time>
      </trkpt>
      <trkpt lat="49.37431" lon="-0.88983">
        <ele>4.3</ele>
        <time>2020-06-16T16:21:58Z</time>
      </trkpt>
      <trkpt lat="49.37428" lon="-0.88976">
        <ele>4.3</ele>
        <time>2020-06-16T16:21:59Z</time>
      </trkpt>
      <trkpt lat="49.37426" lon="-0.8897">
        <ele>4.3</ele>
        <time>2020-06-16T16:22:00Z</time>
      </trkpt>
      <trkpt lat="49.37424" lon="-0.88964">
        <ele>4.4</ele>
        <time>2020-06-16T16:22:01Z</time>
      </trkpt>
      <trkpt lat="49.37422" lon="-0.88957">
        <ele>4.4</ele>
        <time>2020-06-16T16:22:02Z</time>
      </trkpt>
      <trkpt lat="49.3742" lon="-0.88951">
        <ele>4.4</ele>
        <time>2020-06-16T16:22:03Z</time>
      </trkpt>
      <trkpt lat="49.37418" lon="-0.88945">
        <ele>4.5</ele>
        <time>2020-06-16T16:22:04Z</time>
      </trkpt>
      <trkpt lat="49.37416" lon="-0.88939">
        <ele>4.5</ele>
        <time>2020-06-16T16:22:05Z</time>
      </trkpt>
      <trkpt lat="49.37414" lon="-0.88934">
        <ele>4.5</ele>
        <time>2020-06-16T16:22:06Z</time>
      </trkpt>
      <trkpt lat="49.37412" lon="-0.88927">
        <ele>4.5</ele>
        <time>2020-06-16T16:22:07Z</time>
      </trkpt>
      <trkpt lat="49.3741" lon="-0.88921">
        <ele>4.6</ele>
        <time>2020-06-16T16:22:08Z</time>
      </trkpt>
      <trkpt lat="49.37407" lon="-0.88914">
        <ele>4.5</ele>
        <time>2020-06-16T16:22:09Z</time>
      </trkpt>
      <trkpt lat="49.37405" lon="-0.88908">
        <ele>4.5</ele>
        <time>2020-06-16T16:22:10Z</time>
      </trkpt>
      <trkpt lat="49.37403" lon="-0.88901">
        <ele>4.5</ele>
        <time>2020-06-16T16:22:11Z</time>
      </trkpt>
      <trkpt lat="49.37401" lon="-0.88896">
        <ele>4.5</ele>
        <time>2020-06-16T16:22:12Z</time>
      </trkpt>
      <trkpt lat="49.37398" lon="-0.88889">
        <ele>4.4</ele>
        <time>2020-06-16T16:22:13Z</time>
      </trkpt>
      <trkpt lat="49.37396" lon="-0.88884">
        <ele>4.4</ele>
        <time>2020-06-16T16:22:14Z</time>
      </trkpt>
      <trkpt lat="49.37394" lon="-0.88877">
        <ele>4.4</ele>
        <time>2020-06-16T16:22:15Z</time>
      </trkpt>
      <trkpt lat="49.37391" lon="-0.8887">
        <ele>4.4</ele>
        <time>2020-06-16T16:22:16Z</time>
      </trkpt>
      <trkpt lat="49.37388" lon="-0.88864">
        <ele>4.5</ele>
        <time>2020-06-16T16:22:17Z</time>
      </trkpt>
      <trkpt lat="49.37387" lon="-0.88857">
        <ele>4.5</ele>
        <time>2020-06-16T16:22:18Z</time>
      </trkpt>
      <trkpt lat="49.37385" lon="-0.88851">
        <ele>4.5</ele>
        <time>2020-06-16T16:22:19Z</time>
      </trkpt>
      <trkpt lat="49.37383" lon="-0.88844">
        <ele>4.5</ele>
        <time>2020-06-16T16:22:20Z</time>
      </trkpt>
      <trkpt lat="49.37381" lon="-0.88839">
        <ele>4.5</ele>
        <time>2020-06-16T16:22:21Z</time>
      </trkpt>
      <trkpt lat="49.37379" lon="-0.88832">
        <ele>4.5</ele>
        <time>2020-06-16T16:22:22Z</time>
      </trkpt>
      <trkpt lat="49.37376" lon="-0.88826">
        <ele>4.5</ele>
        <time>2020-06-16T16:22:23Z</time>
      </trkpt>
      <trkpt lat="49.37374" lon="-0.8882">
        <ele>4.6</ele>
        <time>2020-06-16T16:22:24Z</time>
      </trkpt>
      <trkpt lat="49.37372" lon="-0.88813">
        <ele>4.6</ele>
        <time>2020-06-16T16:22:25Z</time>
      </trkpt>
      <trkpt lat="49.3737" lon="-0.88806">
        <ele>4.6</ele>
        <time>2020-06-16T16:22:26Z</time>
      </trkpt>
      <trkpt lat="49.37368" lon="-0.888">
        <ele>4.5</ele>
        <time>2020-06-16T16:22:27Z</time>
      </trkpt>
      <trkpt lat="49.37366" lon="-0.88795">
        <ele>4.5</ele>
        <time>2020-06-16T16:22:28Z</time>
      </trkpt>
      <trkpt lat="49.37364" lon="-0.88789">
        <ele>4.5</ele>
        <time>2020-06-16T16:22:29Z</time>
      </trkpt>
      <trkpt lat="49.37362" lon="-0.88783">
        <ele>4.5</ele>
        <time>2020-06-16T16:22:30Z</time>
      </trkpt>
      <trkpt lat="49.37359" lon="-0.88777">
        <ele>4.5</ele>
        <time>2020-06-16T16:22:31Z</time>
      </trkpt>
      <trkpt lat="49.37357" lon="-0.8877">
        <ele>4.5</ele>
        <time>2020-06-16T16:22:32Z</time>
      </trkpt>
      <trkpt lat="49.37354" lon="-0.88764">
        <ele>4.5</ele>
        <time>2020-06-16T16:22:33Z</time>
      </trkpt>
      <trkpt lat="49.37352" lon="-0.88757">
        <ele>4.6</ele>
        <time>2020-06-16T16:22:34Z</time>
      </trkpt>
      <trkpt lat="49.37349" lon="-0.8875">
        <ele>4.6</ele>
        <time>2020-06-16T16:22:35Z</time>
      </trkpt>
      <trkpt lat="49.37347" lon="-0.88743">
        <ele>4.6</ele>
        <time>2020-06-16T16:22:36Z</time>
      </trkpt>
      <trkpt lat="49.37345" lon="-0.88736">
        <ele>4.5</ele>
        <time>2020-06-16T16:22:37Z</time>
      </trkpt>
      <trkpt lat="49.37343" lon="-0.88728">
        <ele>4.5</ele>
        <time>2020-06-16T16:22:38Z</time>
      </trkpt>
      <trkpt lat="49.3734" lon="-0.88721">
        <ele>4.5</ele>
        <time>2020-06-16T16:22:39Z</time>
      </trkpt>
      <trkpt lat="49.37338" lon="-0.88714">
        <ele>4.5</ele>
        <time>2020-06-16T16:22:40Z</time>
      </trkpt>
      <trkpt lat="49.37335" lon="-0.88707">
        <ele>4.5</ele>
        <time>2020-06-16T16:22:41Z</time>
      </trkpt>
      <trkpt lat="49.37331" lon="-0.88701">
        <ele>4.5</ele>
        <time>2020-06-16T16:22:42Z</time>
      </trkpt>
      <trkpt lat="49.37328" lon="-0.88694">
        <ele>4.5</ele>
        <time>2020-06-16T16:22:43Z</time>
      </trkpt>
      <trkpt lat="49.37326" lon="-0.88688">
        <ele>4.5</ele>
        <time>2020-06-16T16:22:44Z</time>
      </trkpt>
      <trkpt lat="49.37324" lon="-0.88681">
        <ele>4.5</ele>
        <time>2020-06-16T16:22:45Z</time>
      </trkpt>
      <trkpt lat="49.37321" lon="-0.88673">
        <ele>4.5</ele>
        <time>2020-06-16T16:22:46Z</time>
      </trkpt>
      <trkpt lat="49.37318" lon="-0.88665">
        <ele>4.5</ele>
        <time>2020-06-16T16:22:47Z</time>
      </trkpt>
      <trkpt lat="49.37316" lon="-0.88657">
        <ele>4.5</ele>
        <time>2020-06-16T16:22:48Z</time>
      </trkpt>
      <trkpt lat="49.37313" lon="-0.8865">
        <ele>4.5</ele>
        <time>2020-06-16T16:22:49Z</time>
      </trkpt>
      <trkpt lat="49.37311" lon="-0.88643">
        <ele>4.5</ele>
        <time>2020-06-16T16:22:50Z</time>
      </trkpt>
      <trkpt lat="49.37309" lon="-0.88638">
        <ele>4.5</ele>
        <time>2020-06-16T16:22:51Z</time>
      </trkpt>
      <trkpt lat="49.37307" lon="-0.88632">
        <ele>4.5</ele>
        <time>2020-06-16T16:22:52Z</time>
      </trkpt>
      <trkpt lat="49.37304" lon="-0.88626">
        <ele>4.5</ele>
        <time>2020-06-16T16:22:53Z</time>
      </trkpt>
      <trkpt lat="49.37302" lon="-0.8862">
        <ele>4.5</ele>
        <time>2020-06-16T16:22:54Z</time>
      </trkpt>
      <trkpt lat="49.37299" lon="-0.88614">
        <ele>4.5</ele>
        <time>2020-06-16T16:22:55Z</time>
      </trkpt>
      <trkpt lat="49.37297" lon="-0.88609">
        <ele>4.5</ele>
        <time>2020-06-16T16:22:56Z</time>
      </trkpt>
      <trkpt lat="49.37294" lon="-0.88604">
        <ele>4.5</ele>
        <time>2020-06-16T16:22:57Z</time>
      </trkpt>
      <trkpt lat="49.37292" lon="-0.88597">
        <ele>4.5</ele>
        <time>2020-06-16T16:22:58Z</time>
      </trkpt>
      <trkpt lat="49.3729" lon="-0.8859">
        <ele>4.5</ele>
        <time>2020-06-16T16:22:59Z</time>
      </trkpt>
      <trkpt lat="49.37288" lon="-0.88584">
        <ele>4.5</ele>
        <time>2020-06-16T16:23:00Z</time>
      </trkpt>
      <trkpt lat="49.37286" lon="-0.88578">
        <ele>4.5</ele>
        <time>2020-06-16T16:23:01Z</time>
      </trkpt>
      <trkpt lat="49.37283" lon="-0.88572">
        <ele>4.5</ele>
        <time>2020-06-16T16:23:02Z</time>
      </trkpt>
      <trkpt lat="49.37281" lon="-0.88566">
        <ele>4.5</ele>
        <time>2020-06-16T16:23:03Z</time>
      </trkpt>
      <trkpt lat="49.37279" lon="-0.88561">
        <ele>4.5</ele>
        <time>2020-06-16T16:23:04Z</time>
      </trkpt>
      <trkpt lat="49.37276" lon="-0.88555">
        <ele>4.5</ele>
        <time>2020-06-16T16:23:05Z</time>
      </trkpt>
      <trkpt lat="49.37274" lon="-0.88549">
        <ele>4.5</ele>
        <time>2020-06-16T16:23:06Z</time>
      </trkpt>
      <trkpt lat="49.37272" lon="-0.88542">
        <ele>4.5</ele>
        <time>2020-06-16T16:23:07Z</time>
      </trkpt>
      <trkpt lat="49.37269" lon="-0.88536">
        <ele>4.5</ele>
        <time>2020-06-16T16:23:08Z</time>
      </trkpt>
      <trkpt lat="49.37267" lon="-0.88528">
        <ele>4.5</ele>
        <time>2020-06-16T16:23:09Z</time>
      </trkpt>
      <trkpt lat="49.37264" lon="-0.88521">
        <ele>4.5</ele>
        <time>2020-06-16T16:23:10Z</time>
      </trkpt>
      <trkpt lat="49.37262" lon="-0.88513">
        <ele>4.5</ele>
        <time>2020-06-16T16:23:11Z</time>
      </trkpt>
      <trkpt lat="49.37259" lon="-0.88506">
        <ele>4.5</ele>
        <time>2020-06-16T16:23:12Z</time>
      </trkpt>
      <trkpt lat="49.37257" lon="-0.88499">
        <ele>4.5</ele>
        <time>2020-06-16T16:23:13Z</time>
      </trkpt>
      <trkpt lat="49.37254" lon="-0.88492">
        <ele>4.5</ele>
        <time>2020-06-16T16:23:14Z</time>
      </trkpt>
      <trkpt lat="49.37252" lon="-0.88486">
        <ele>4.5</ele>
        <time>2020-06-16T16:23:15Z</time>
      </trkpt>
      <trkpt lat="49.37249" lon="-0.88479">
        <ele>4.5</ele>
        <time>2020-06-16T16:23:16Z</time>
      </trkpt>
      <trkpt lat="49.37247" lon="-0.88472">
        <ele>4.5</ele>
        <time>2020-06-16T16:23:17Z</time>
      </trkpt>
      <trkpt lat="49.37246" lon="-0.88466">
        <ele>4.5</ele>
        <time>2020-06-16T16:23:18Z</time>
      </trkpt>
      <trkpt lat="49.37243" lon="-0.88461">
        <ele>4.5</ele>
        <time>2020-06-16T16:23:19Z</time>
      </trkpt>
      <trkpt lat="49.37241" lon="-0.88454">
        <ele>4.5</ele>
        <time>2020-06-16T16:23:20Z</time>
      </trkpt>
      <trkpt lat="49.37239" lon="-0.88449">
        <ele>4.6</ele>
        <time>2020-06-16T16:23:21Z</time>
      </trkpt>
      <trkpt lat="49.37236" lon="-0.88442">
        <ele>4.6</ele>
        <time>2020-06-16T16:23:22Z</time>
      </trkpt>
      <trkpt lat="49.37234" lon="-0.88436">
        <ele>4.6</ele>
        <time>2020-06-16T16:23:23Z</time>
      </trkpt>
      <trkpt lat="49.37232" lon="-0.88428">
        <ele>4.6</ele>
        <time>2020-06-16T16:23:24Z</time>
      </trkpt>
      <trkpt lat="49.3723" lon="-0.88421">
        <ele>4.6</ele>
        <time>2020-06-16T16:23:25Z</time>
      </trkpt>
      <trkpt lat="49.37228" lon="-0.88415">
        <ele>4.6</ele>
        <time>2020-06-16T16:23:26Z</time>
      </trkpt>
      <trkpt lat="49.37226" lon="-0.88408">
        <ele>4.6</ele>
        <time>2020-06-16T16:23:27Z</time>
      </trkpt>
      <trkpt lat="49.37223" lon="-0.88402">
        <ele>4.6</ele>
        <time>2020-06-16T16:23:28Z</time>
      </trkpt>
      <trkpt lat="49.37221" lon="-0.88395">
        <ele>4.6</ele>
        <time>2020-06-16T16:23:29Z</time>
      </trkpt>
      <trkpt lat="49.37219" lon="-0.8839">
        <ele>4.6</ele>
        <time>2020-06-16T16:23:30Z</time>
      </trkpt>
      <trkpt lat="49.37216" lon="-0.88384">
        <ele>4.6</ele>
        <time>2020-06-16T16:23:31Z</time>
      </trkpt>
      <trkpt lat="49.37214" lon="-0.88378">
        <ele>4.6</ele>
        <time>2020-06-16T16:23:32Z</time>
      </trkpt>
      <trkpt lat="49.37211" lon="-0.88371">
        <ele>4.6</ele>
        <time>2020-06-16T16:23:33Z</time>
      </trkpt>
      <trkpt lat="49.37209" lon="-0.88364">
        <ele>4.6</ele>
        <time>2020-06-16T16:23:34Z</time>
      </trkpt>
      <trkpt lat="49.37207" lon="-0.88358">
        <ele>4.6</ele>
        <time>2020-06-16T16:23:35Z</time>
      </trkpt>
      <trkpt lat="49.37205" lon="-0.88351">
        <ele>4.6</ele>
        <time>2020-06-16T16:23:36Z</time>
      </trkpt>
      <trkpt lat="49.37203" lon="-0.88344">
        <ele>4.6</ele>
        <time>2020-06-16T16:23:37Z</time>
      </trkpt>
      <trkpt lat="49.37201" lon="-0.88337">
        <ele>4.6</ele>
        <time>2020-06-16T16:23:38Z</time>
      </trkpt>
      <trkpt lat="49.37198" lon="-0.8833">
        <ele>4.5</ele>
        <time>2020-06-16T16:23:39Z</time>
      </trkpt>
      <trkpt lat="49.37196" lon="-0.88323">
        <ele>4.5</ele>
        <time>2020-06-16T16:23:40Z</time>
      </trkpt>
      <trkpt lat="49.37194" lon="-0.88317">
        <ele>4.5</ele>
        <time>2020-06-16T16:23:41Z</time>
      </trkpt>
      <trkpt lat="49.37193" lon="-0.88311">
        <ele>4.5</ele>
        <time>2020-06-16T16:23:42Z</time>
      </trkpt>
      <trkpt lat="49.3719" lon="-0.88305">
        <ele>4.5</ele>
        <time>2020-06-16T16:23:43Z</time>
      </trkpt>
      <trkpt lat="49.37188" lon="-0.88299">
        <ele>4.5</ele>
        <time>2020-06-16T16:23:44Z</time>
      </trkpt>
      <trkpt lat="49.37185" lon="-0.88293">
        <ele>4.5</ele>
        <time>2020-06-16T16:23:45Z</time>
      </trkpt>
      <trkpt lat="49.37182" lon="-0.88287">
        <ele>4.5</ele>
        <time>2020-06-16T16:23:46Z</time>
      </trkpt>
      <trkpt lat="49.37179" lon="-0.8828">
        <ele>4.5</ele>
        <time>2020-06-16T16:23:47Z</time>
      </trkpt>
      <trkpt lat="49.37177" lon="-0.88272">
        <ele>4.5</ele>
        <time>2020-06-16T16:23:48Z</time>
      </trkpt>
      <trkpt lat="49.37175" lon="-0.88265">
        <ele>4.5</ele>
        <time>2020-06-16T16:23:49Z</time>
      </trkpt>
      <trkpt lat="49.37173" lon="-0.88257">
        <ele>4.5</ele>
        <time>2020-06-16T16:23:50Z</time>
      </trkpt>
      <trkpt lat="49.3717" lon="-0.88251">
        <ele>4.5</ele>
        <time>2020-06-16T16:23:51Z</time>
      </trkpt>
      <trkpt lat="49.37168" lon="-0.88244">
        <ele>4.5</ele>
        <time>2020-06-16T16:23:52Z</time>
      </trkpt>
      <trkpt lat="49.37166" lon="-0.88238">
        <ele>4.5</ele>
        <time>2020-06-16T16:23:53Z</time>
      </trkpt>
      <trkpt lat="49.37163" lon="-0.88232">
        <ele>4.5</ele>
        <time>2020-06-16T16:23:54Z</time>
      </trkpt>
      <trkpt lat="49.37162" lon="-0.88225">
        <ele>4.5</ele>
        <time>2020-06-16T16:23:55Z</time>
      </trkpt>
      <trkpt lat="49.37159" lon="-0.88218">
        <ele>4.6</ele>
        <time>2020-06-16T16:23:56Z</time>
      </trkpt>
      <trkpt lat="49.37157" lon="-0.88211">
        <ele>4.6</ele>
        <time>2020-06-16T16:23:57Z</time>
      </trkpt>
      <trkpt lat="49.37155" lon="-0.88204">
        <ele>4.6</ele>
        <time>2020-06-16T16:23:58Z</time>
      </trkpt>
      <trkpt lat="49.37153" lon="-0.88198">
        <ele>4.6</ele>
        <time>2020-06-16T16:23:59Z</time>
      </trkpt>
      <trkpt lat="49.37151" lon="-0.88191">
        <ele>4.6</ele>
        <time>2020-06-16T16:24:00Z</time>
      </trkpt>
      <trkpt lat="49.37149" lon="-0.88184">
        <ele>4.6</ele>
        <time>2020-06-16T16:24:01Z</time>
      </trkpt>
      <trkpt lat="49.37146" lon="-0.88177">
        <ele>4.6</ele>
        <time>2020-06-16T16:24:02Z</time>
      </trkpt>
      <trkpt lat="49.37144" lon="-0.88172">
        <ele>4.6</ele>
        <time>2020-06-16T16:24:03Z</time>
      </trkpt>
      <trkpt lat="49.37141" lon="-0.88166">
        <ele>4.6</ele>
        <time>2020-06-16T16:24:04Z</time>
      </trkpt>
      <trkpt lat="49.37139" lon="-0.8816">
        <ele>4.6</ele>
        <time>2020-06-16T16:24:05Z</time>
      </trkpt>
      <trkpt lat="49.37137" lon="-0.88154">
        <ele>4.5</ele>
        <time>2020-06-16T16:24:06Z</time>
      </trkpt>
      <trkpt lat="49.37135" lon="-0.88148">
        <ele>4.5</ele>
        <time>2020-06-16T16:24:07Z</time>
      </trkpt>
      <trkpt lat="49.37132" lon="-0.88142">
        <ele>4.5</ele>
        <time>2020-06-16T16:24:08Z</time>
      </trkpt>
      <trkpt lat="49.3713" lon="-0.88137">
        <ele>4.5</ele>
        <time>2020-06-16T16:24:09Z</time>
      </trkpt>
      <trkpt lat="49.37127" lon="-0.8813">
        <ele>4.5</ele>
        <time>2020-06-16T16:24:10Z</time>
      </trkpt>
      <trkpt lat="49.37125" lon="-0.88124">
        <ele>4.5</ele>
        <time>2020-06-16T16:24:11Z</time>
      </trkpt>
      <trkpt lat="49.37122" lon="-0.88118">
        <ele>4.5</ele>
        <time>2020-06-16T16:24:12Z</time>
      </trkpt>
      <trkpt lat="49.3712" lon="-0.88112">
        <ele>4.5</ele>
        <time>2020-06-16T16:24:13Z</time>
      </trkpt>
      <trkpt lat="49.37118" lon="-0.88104">
        <ele>4.5</ele>
        <time>2020-06-16T16:24:14Z</time>
      </trkpt>
      <trkpt lat="49.37116" lon="-0.88096">
        <ele>4.5</ele>
        <time>2020-06-16T16:24:15Z</time>
      </trkpt>
      <trkpt lat="49.37114" lon="-0.88089">
        <ele>4.5</ele>
        <time>2020-06-16T16:24:16Z</time>
      </trkpt>
      <trkpt lat="49.37111" lon="-0.88083">
        <ele>4.5</ele>
        <time>2020-06-16T16:24:17Z</time>
      </trkpt>
      <trkpt lat="49.37109" lon="-0.88077">
        <ele>4.5</ele>
        <time>2020-06-16T16:24:18Z</time>
      </trkpt>
      <trkpt lat="49.37106" lon="-0.88071">
        <ele>4.5</ele>
        <time>2020-06-16T16:24:19Z</time>
      </trkpt>
      <trkpt lat="49.37103" lon="-0.88066">
        <ele>4.5</ele>
        <time>2020-06-16T16:24:20Z</time>
      </trkpt>
      <trkpt lat="49.371" lon="-0.8806">
        <ele>4.5</ele>
        <time>2020-06-16T16:24:21Z</time>
      </trkpt>
      <trkpt lat="49.37098" lon="-0.88054">
        <ele>4.6</ele>
        <time>2020-06-16T16:24:22Z</time>
      </trkpt>
      <trkpt lat="49.37095" lon="-0.88049">
        <ele>4.6</ele>
        <time>2020-06-16T16:24:23Z</time>
      </trkpt>
      <trkpt lat="49.37092" lon="-0.88043">
        <ele>4.6</ele>
        <time>2020-06-16T16:24:24Z</time>
      </trkpt>
      <trkpt lat="49.37089" lon="-0.88038">
        <ele>4.6</ele>
        <time>2020-06-16T16:24:25Z</time>
      </trkpt>
      <trkpt lat="49.37086" lon="-0.88034">
        <ele>4.6</ele>
        <time>2020-06-16T16:24:26Z</time>
      </trkpt>
      <trkpt lat="49.37082" lon="-0.8803">
        <ele>4.7</ele>
        <time>2020-06-16T16:24:27Z</time>
      </trkpt>
      <trkpt lat="49.37078" lon="-0.88027">
        <ele>4.7</ele>
        <time>2020-06-16T16:24:28Z</time>
      </trkpt>
      <trkpt lat="49.37073" lon="-0.88023">
        <ele>4.7</ele>
        <time>2020-06-16T16:24:29Z</time>
      </trkpt>
      <trkpt lat="49.37069" lon="-0.8802">
        <ele>4.7</ele>
        <time>2020-06-16T16:24:30Z</time>
      </trkpt>
      <trkpt lat="49.37065" lon="-0.88018">
        <ele>4.8</ele>
        <time>2020-06-16T16:24:31Z</time>
      </trkpt>
      <trkpt lat="49.37061" lon="-0.88017">
        <ele>4.8</ele>
        <time>2020-06-16T16:24:32Z</time>
      </trkpt>
      <trkpt lat="49.37057" lon="-0.88018">
        <ele>4.8</ele>
        <time>2020-06-16T16:24:33Z</time>
      </trkpt>
      <trkpt lat="49.37054" lon="-0.88018">
        <ele>4.8</ele>
        <time>2020-06-16T16:24:34Z</time>
      </trkpt>
      <trkpt lat="49.37051" lon="-0.88019">
        <ele>4.8</ele>
        <time>2020-06-16T16:24:35Z</time>
      </trkpt>
      <trkpt lat="49.37046" lon="-0.88019">
        <ele>4.8</ele>
        <time>2020-06-16T16:24:36Z</time>
      </trkpt>
      <trkpt lat="49.37042" lon="-0.88018">
        <ele>4.9</ele>
        <time>2020-06-16T16:24:37Z</time>
      </trkpt>
      <trkpt lat="49.37038" lon="-0.88018">
        <ele>4.9</ele>
        <time>2020-06-16T16:24:38Z</time>
      </trkpt>
      <trkpt lat="49.37035" lon="-0.88018">
        <ele>5</ele>
        <time>2020-06-16T16:24:39Z</time>
      </trkpt>
      <trkpt lat="49.37031" lon="-0.88018">
        <ele>5</ele>
        <time>2020-06-16T16:24:40Z</time>
      </trkpt>
      <trkpt lat="49.37028" lon="-0.88018">
        <ele>5.1</ele>
        <time>2020-06-16T16:24:41Z</time>
      </trkpt>
      <trkpt lat="49.37025" lon="-0.88019">
        <ele>5.2</ele>
        <time>2020-06-16T16:24:42Z</time>
      </trkpt>
      <trkpt lat="49.37022" lon="-0.8802">
        <ele>5.2</ele>
        <time>2020-06-16T16:24:43Z</time>
      </trkpt>
      <trkpt lat="49.37019" lon="-0.88022">
        <ele>5.3</ele>
        <time>2020-06-16T16:24:44Z</time>
      </trkpt>
      <trkpt lat="49.37016" lon="-0.88023">
        <ele>5.4</ele>
        <time>2020-06-16T16:24:45Z</time>
      </trkpt>
      <trkpt lat="49.37013" lon="-0.88025">
        <ele>5.4</ele>
        <time>2020-06-16T16:24:46Z</time>
      </trkpt>
      <trkpt lat="49.37009" lon="-0.88026">
        <ele>5.5</ele>
        <time>2020-06-16T16:24:47Z</time>
      </trkpt>
      <trkpt lat="49.37006" lon="-0.88027">
        <ele>5.6</ele>
        <time>2020-06-16T16:24:48Z</time>
      </trkpt>
      <trkpt lat="49.37004" lon="-0.88027">
        <ele>5.7</ele>
        <time>2020-06-16T16:24:49Z</time>
      </trkpt>
      <trkpt lat="49.37001" lon="-0.88027">
        <ele>5.9</ele>
        <time>2020-06-16T16:24:50Z</time>
      </trkpt>
      <trkpt lat="49.36997" lon="-0.88027">
        <ele>6</ele>
        <time>2020-06-16T16:24:51Z</time>
      </trkpt>
      <trkpt lat="49.36995" lon="-0.88027">
        <ele>6</ele>
        <time>2020-06-16T16:24:52Z</time>
      </trkpt>
      <trkpt lat="49.36991" lon="-0.88028">
        <ele>6.1</ele>
        <time>2020-06-16T16:24:53Z</time>
      </trkpt>
      <trkpt lat="49.3699" lon="-0.88029">
        <ele>6.1</ele>
        <time>2020-06-16T16:24:54Z</time>
      </trkpt>
      <trkpt lat="49.36989" lon="-0.8803">
        <ele>6.1</ele>
        <time>2020-06-16T16:24:55Z</time>
      </trkpt>
      <trkpt lat="49.36989" lon="-0.88031">
        <ele>6.1</ele>
        <time>2020-06-16T16:24:56Z</time>
      </trkpt>
      <trkpt lat="49.36988" lon="-0.88031">
        <ele>6.1</ele>
        <time>2020-06-16T16:24:57Z</time>
      </trkpt>
      <trkpt lat="49.36988" lon="-0.88031">
        <ele>6.1</ele>
        <time>2020-06-16T16:24:58Z</time>
      </trkpt>
      <trkpt lat="49.36989" lon="-0.8803">
        <ele>6.1</ele>
        <time>2020-06-16T16:24:59Z</time>
      </trkpt>
      <trkpt lat="49.36988" lon="-0.88028">
        <ele>6.1</ele>
        <time>2020-06-16T16:25:00Z</time>
      </trkpt>
      <trkpt lat="49.36989" lon="-0.88027">
        <ele>6.1</ele>
        <time>2020-06-16T16:25:01Z</time>
      </trkpt>
      <trkpt lat="49.36992" lon="-0.88025">
        <ele>6</ele>
        <time>2020-06-16T16:25:02Z</time>
      </trkpt>
      <trkpt lat="49.36993" lon="-0.88025">
        <ele>6</ele>
        <time>2020-06-16T16:25:03Z</time>
      </trkpt>
      <trkpt lat="49.36996" lon="-0.88026">
        <ele>6</ele>
        <time>2020-06-16T16:25:04Z</time>
      </trkpt>
      <trkpt lat="49.37" lon="-0.88028">
        <ele>5.7</ele>
        <time>2020-06-16T16:25:05Z</time>
      </trkpt>
      <trkpt lat="49.37001" lon="-0.88028">
        <ele>5.7</ele>
        <time>2020-06-16T16:25:06Z</time>
      </trkpt>
      <trkpt lat="49.37005" lon="-0.88032">
        <ele>5.8</ele>
        <time>2020-06-16T16:25:07Z</time>
      </trkpt>
      <trkpt lat="49.37006" lon="-0.88033">
        <ele>5.8</ele>
        <time>2020-06-16T16:25:08Z</time>
      </trkpt>
      <trkpt lat="49.37008" lon="-0.88039">
        <ele>5.9</ele>
        <time>2020-06-16T16:25:09Z</time>
      </trkpt>
      <trkpt lat="49.37008" lon="-0.88041">
        <ele>6</ele>
        <time>2020-06-16T16:25:10Z</time>
      </trkpt>
      <trkpt lat="49.37009" lon="-0.88046">
        <ele>6</ele>
        <time>2020-06-16T16:25:11Z</time>
      </trkpt>
      <trkpt lat="49.37009" lon="-0.88048">
        <ele>6.1</ele>
        <time>2020-06-16T16:25:12Z</time>
      </trkpt>
      <trkpt lat="49.37009" lon="-0.88053">
        <ele>6.1</ele>
        <time>2020-06-16T16:25:13Z</time>
      </trkpt>
      <trkpt lat="49.37009" lon="-0.88057">
        <ele>6.2</ele>
        <time>2020-06-16T16:25:14Z</time>
      </trkpt>
      <trkpt lat="49.3701" lon="-0.88062">
        <ele>6.3</ele>
        <time>2020-06-16T16:25:15Z</time>
      </trkpt>
      <trkpt lat="49.3701" lon="-0.88064">
        <ele>6.3</ele>
        <time>2020-06-16T16:25:16Z</time>
      </trkpt>
      <trkpt lat="49.37011" lon="-0.88068">
        <ele>6.4</ele>
        <time>2020-06-16T16:25:17Z</time>
      </trkpt>
      <trkpt lat="49.37011" lon="-0.88069">
        <ele>6.5</ele>
        <time>2020-06-16T16:25:18Z</time>
      </trkpt>
      <trkpt lat="49.37012" lon="-0.8807">
        <ele>6.5</ele>
        <time>2020-06-16T16:25:19Z</time>
      </trkpt>
      <trkpt lat="49.37014" lon="-0.8807">
        <ele>6.6</ele>
        <time>2020-06-16T16:25:20Z</time>
      </trkpt>
      <trkpt lat="49.37017" lon="-0.88073">
        <ele>6.7</ele>
        <time>2020-06-16T16:25:21Z</time>
      </trkpt>
      <trkpt lat="49.37018" lon="-0.88075">
        <ele>6.7</ele>
        <time>2020-06-16T16:25:22Z</time>
      </trkpt>
      <trkpt lat="49.37019" lon="-0.88079">
        <ele>6.8</ele>
        <time>2020-06-16T16:25:23Z</time>
      </trkpt>
      <trkpt lat="49.3702" lon="-0.8808">
        <ele>6.9</ele>
        <time>2020-06-16T16:25:24Z</time>
      </trkpt>
      <trkpt lat="49.3702" lon="-0.88081">
        <ele>6.9</ele>
        <time>2020-06-16T16:25:25Z</time>
      </trkpt>
      <trkpt lat="49.3702" lon="-0.88081">
        <ele>6.9</ele>
        <time>2020-06-16T16:25:26Z</time>
      </trkpt>
      <trkpt lat="49.3702" lon="-0.88083">
        <ele>6.9</ele>
        <time>2020-06-16T16:25:27Z</time>
      </trkpt>
      <trkpt lat="49.3702" lon="-0.88084">
        <ele>6.9</ele>
        <time>2020-06-16T16:25:28Z</time>
      </trkpt>
      <trkpt lat="49.37021" lon="-0.88086">
        <ele>6.9</ele>
        <time>2020-06-16T16:25:29Z</time>
      </trkpt>
      <trkpt lat="49.37022" lon="-0.88087">
        <ele>6.9</ele>
        <time>2020-06-16T16:25:30Z</time>
      </trkpt>
      <trkpt lat="49.37022" lon="-0.88088">
        <ele>6.9</ele>
        <time>2020-06-16T16:25:31Z</time>
      </trkpt>
      <trkpt lat="49.37023" lon="-0.88089">
        <ele>6.9</ele>
        <time>2020-06-16T16:25:32Z</time>
      </trkpt>
      <trkpt lat="49.37023" lon="-0.88088">
        <ele>6.9</ele>
        <time>2020-06-16T16:25:33Z</time>
      </trkpt>
      <trkpt lat="49.37023" lon="-0.88088">
        <ele>6.9</ele>
        <time>2020-06-16T16:25:34Z</time>
      </trkpt>
      <trkpt lat="49.37023" lon="-0.88088">
        <ele>6.9</ele>
        <time>2020-06-16T16:25:35Z</time>
      </trkpt>
      <trkpt lat="49.37023" lon="-0.88087">
        <ele>6.9</ele>
        <time>2020-06-16T16:25:36Z</time>
      </trkpt>
      <trkpt lat="49.37023" lon="-0.88087">
        <ele>6.9</ele>
        <time>2020-06-16T16:25:37Z</time>
      </trkpt>
      <trkpt lat="49.37023" lon="-0.88087">
        <ele>6.9</ele>
        <time>2020-06-16T16:25:38Z</time>
      </trkpt>
      <trkpt lat="49.37024" lon="-0.88086">
        <ele>6.9</ele>
        <time>2020-06-16T16:25:39Z</time>
      </trkpt>
      <trkpt lat="49.37024" lon="-0.88086">
        <ele>6.9</ele>
        <time>2020-06-16T16:25:40Z</time>
      </trkpt>
      <trkpt lat="49.37024" lon="-0.88086">
        <ele>6.9</ele>
        <time>2020-06-16T16:25:41Z</time>
      </trkpt>
      <trkpt lat="49.37024" lon="-0.88085">
        <ele>6.9</ele>
        <time>2020-06-16T16:25:42Z</time>
      </trkpt>
      <trkpt lat="49.37024" lon="-0.88085">
        <ele>6.9</ele>
        <time>2020-06-16T16:25:43Z</time>
      </trkpt>
      <trkpt lat="49.37024" lon="-0.88085">
        <ele>6.9</ele>
        <time>2020-06-16T16:25:44Z</time>
      </trkpt>
      <trkpt lat="49.37024" lon="-0.88084">
        <ele>6.9</ele>
        <time>2020-06-16T16:25:45Z</time>
      </trkpt>
      <trkpt lat="49.37024" lon="-0.88084">
        <ele>6.9</ele>
        <time>2020-06-16T16:25:46Z</time>
      </trkpt>
      <trkpt lat="49.37024" lon="-0.88084">
        <ele>6.9</ele>
        <time>2020-06-16T16:25:47Z</time>
      </trkpt>
      <trkpt lat="49.37024" lon="-0.88083">
        <ele>6.9</ele>
        <time>2020-06-16T16:25:48Z</time>
      </trkpt>
      <trkpt lat="49.37024" lon="-0.88083">
        <ele>6.9</ele>
        <time>2020-06-16T16:25:49Z</time>
      </trkpt>
      <trkpt lat="49.37024" lon="-0.88082">
        <ele>6.9</ele>
        <time>2020-06-16T16:25:50Z</time>
      </trkpt>
      <trkpt lat="49.37024" lon="-0.88082">
        <ele>6.9</ele>
        <time>2020-06-16T16:25:51Z</time>
      </trkpt>
      <trkpt lat="49.37024" lon="-0.88082">
        <ele>6.9</ele>
        <time>2020-06-16T16:25:52Z</time>
      </trkpt>
      <trkpt lat="49.37024" lon="-0.88081">
        <ele>6.9</ele>
        <time>2020-06-16T16:25:53Z</time>
      </trkpt>
      <trkpt lat="49.37024" lon="-0.88081">
        <ele>6.9</ele>
        <time>2020-06-16T16:25:54Z</time>
      </trkpt>
      <trkpt lat="49.37024" lon="-0.88081">
        <ele>6.9</ele>
        <time>2020-06-16T16:25:55Z</time>
      </trkpt>
      <trkpt lat="49.37024" lon="-0.8808">
        <ele>6.9</ele>
        <time>2020-06-16T16:25:56Z</time>
      </trkpt>
      <trkpt lat="49.37024" lon="-0.8808">
        <ele>6.9</ele>
        <time>2020-06-16T16:25:57Z</time>
      </trkpt>
      <trkpt lat="49.37025" lon="-0.8808">
        <ele>6.9</ele>
        <time>2020-06-16T16:25:58Z</time>
      </trkpt>
      <trkpt lat="49.37025" lon="-0.88079">
        <ele>6.9</ele>
        <time>2020-06-16T16:25:59Z</time>
      </trkpt>
      <trkpt lat="49.37025" lon="-0.88079">
        <ele>6.9</ele>
        <time>2020-06-16T16:26:04Z</time>
      </trkpt>
      <trkpt lat="49.37025" lon="-0.88079">
        <ele>6.9</ele>
        <time>2020-06-16T16:26:05Z</time>
      </trkpt>
      <trkpt lat="49.37025" lon="-0.88078">
        <ele>6.9</ele>
        <time>2020-06-16T16:26:06Z</time>
      </trkpt>
      <trkpt lat="49.37025" lon="-0.88077">
        <ele>6.9</ele>
        <time>2020-06-16T16:26:07Z</time>
      </trkpt>
      <trkpt lat="49.37025" lon="-0.88078">
        <ele>6.9</ele>
        <time>2020-06-16T16:26:08Z</time>
      </trkpt>
      <trkpt lat="49.37025" lon="-0.88079">
        <ele>6.9</ele>
        <time>2020-06-16T16:26:09Z</time>
      </trkpt>
      <trkpt lat="49.37024" lon="-0.88079">
        <ele>6.9</ele>
        <time>2020-06-16T16:26:10Z</time>
      </trkpt>
      <trkpt lat="49.37023" lon="-0.88079">
        <ele>6.9</ele>
        <time>2020-06-16T16:26:11Z</time>
      </trkpt>
      <trkpt lat="49.37022" lon="-0.8808">
        <ele>6.9</ele>
        <time>2020-06-16T16:26:12Z</time>
      </trkpt>
      <trkpt lat="49.3702" lon="-0.88081">
        <ele>6.9</ele>
        <time>2020-06-16T16:26:13Z</time>
      </trkpt>
      <trkpt lat="49.37019" lon="-0.88081">
        <ele>6.9</ele>
        <time>2020-06-16T16:26:14Z</time>
      </trkpt>
      <trkpt lat="49.37018" lon="-0.88081">
        <ele>6.9</ele>
        <time>2020-06-16T16:26:15Z</time>
      </trkpt>
      <trkpt lat="49.37017" lon="-0.88081">
        <ele>6.9</ele>
        <time>2020-06-16T16:26:16Z</time>
      </trkpt>
      <trkpt lat="49.37017" lon="-0.88082">
        <ele>6.9</ele>
        <time>2020-06-16T16:26:17Z</time>
      </trkpt>
      <trkpt lat="49.37017" lon="-0.88082">
        <ele>6.9</ele>
        <time>2020-06-16T16:26:18Z</time>
      </trkpt>
      <trkpt lat="49.37016" lon="-0.88082">
        <ele>6.9</ele>
        <time>2020-06-16T16:26:19Z</time>
      </trkpt>
      <trkpt lat="49.37016" lon="-0.88082">
        <ele>6.9</ele>
        <time>2020-06-16T16:26:20Z</time>
      </trkpt>
      <trkpt lat="49.37016" lon="-0.88082">
        <ele>6.9</ele>
        <time>2020-06-16T16:26:21Z</time>
      </trkpt>
      <trkpt lat="49.37016" lon="-0.88082">
        <ele>6.9</ele>
        <time>2020-06-16T16:26:22Z</time>
      </trkpt>
      <trkpt lat="49.37015" lon="-0.88082">
        <ele>6.9</ele>
        <time>2020-06-16T16:26:23Z</time>
      </trkpt>
      <trkpt lat="49.37015" lon="-0.88082">
        <ele>6.9</ele>
        <time>2020-06-16T16:26:24Z</time>
      </trkpt>
      <trkpt lat="49.37015" lon="-0.88083">
        <ele>6.9</ele>
        <time>2020-06-16T16:26:25Z</time>
      </trkpt>
      <trkpt lat="49.37014" lon="-0.88083">
        <ele>6.9</ele>
        <time>2020-06-16T16:26:26Z</time>
      </trkpt>
      <trkpt lat="49.37014" lon="-0.88083">
        <ele>6.9</ele>
        <time>2020-06-16T16:26:27Z</time>
      </trkpt>
      <trkpt lat="49.37013" lon="-0.88083">
        <ele>6.9</ele>
        <time>2020-06-16T16:26:28Z</time>
      </trkpt>
      <trkpt lat="49.37013" lon="-0.88083">
        <ele>6.9</ele>
        <time>2020-06-16T16:26:29Z</time>
      </trkpt>
      <trkpt lat="49.37013" lon="-0.88084">
        <ele>6.9</ele>
        <time>2020-06-16T16:26:30Z</time>
      </trkpt>
      <trkpt lat="49.37013" lon="-0.88083">
        <ele>6.9</ele>
        <time>2020-06-16T16:26:31Z</time>
      </trkpt>
      <trkpt lat="49.37013" lon="-0.88082">
        <ele>6.9</ele>
        <time>2020-06-16T16:26:32Z</time>
      </trkpt>
      <trkpt lat="49.37013" lon="-0.88081">
        <ele>6.9</ele>
        <time>2020-06-16T16:26:33Z</time>
      </trkpt>
      <trkpt lat="49.37013" lon="-0.8808">
        <ele>6.9</ele>
        <time>2020-06-16T16:26:34Z</time>
      </trkpt>
      <trkpt lat="49.37013" lon="-0.8808">
        <ele>6.9</ele>
        <time>2020-06-16T16:26:35Z</time>
      </trkpt>
      <trkpt lat="49.37013" lon="-0.8808">
        <ele>6.9</ele>
        <time>2020-06-16T16:26:36Z</time>
      </trkpt>
      <trkpt lat="49.37013" lon="-0.8808">
        <ele>6.9</ele>
        <time>2020-06-16T16:26:37Z</time>
      </trkpt>
      <trkpt lat="49.37011" lon="-0.88081">
        <ele>6.9</ele>
        <time>2020-06-16T16:26:41Z</time>
      </trkpt>
      <trkpt lat="49.37011" lon="-0.88081">
        <ele>6.9</ele>
        <time>2020-06-16T16:26:42Z</time>
      </trkpt>
      <trkpt lat="49.3701" lon="-0.88081">
        <ele>6.9</ele>
        <time>2020-06-16T16:26:43Z</time>
      </trkpt>
      <trkpt lat="49.37009" lon="-0.88082">
        <ele>6.8</ele>
        <time>2020-06-16T16:26:44Z</time>
      </trkpt>
      <trkpt lat="49.37009" lon="-0.88082">
        <ele>6.8</ele>
        <time>2020-06-16T16:26:45Z</time>
      </trkpt>
      <trkpt lat="49.37008" lon="-0.88083">
        <ele>6.8</ele>
        <time>2020-06-16T16:26:46Z</time>
      </trkpt>
      <trkpt lat="49.37007" lon="-0.88083">
        <ele>6.8</ele>
        <time>2020-06-16T16:26:47Z</time>
      </trkpt>
      <trkpt lat="49.37007" lon="-0.88084">
        <ele>6.8</ele>
        <time>2020-06-16T16:26:48Z</time>
      </trkpt>
      <trkpt lat="49.37006" lon="-0.88084">
        <ele>6.8</ele>
        <time>2020-06-16T16:26:49Z</time>
      </trkpt>
      <trkpt lat="49.37007" lon="-0.88084">
        <ele>6.8</ele>
        <time>2020-06-16T16:26:50Z</time>
      </trkpt>
      <trkpt lat="49.37007" lon="-0.88083">
        <ele>6.8</ele>
        <time>2020-06-16T16:26:51Z</time>
      </trkpt>
      <trkpt lat="49.37008" lon="-0.88082">
        <ele>6.8</ele>
        <time>2020-06-16T16:26:52Z</time>
      </trkpt>
      <trkpt lat="49.37009" lon="-0.88081">
        <ele>6.8</ele>
        <time>2020-06-16T16:26:53Z</time>
      </trkpt>
      <trkpt lat="49.3701" lon="-0.8808">
        <ele>6.7</ele>
        <time>2020-06-16T16:26:54Z</time>
      </trkpt>
      <trkpt lat="49.37011" lon="-0.88079">
        <ele>6.7</ele>
        <time>2020-06-16T16:26:55Z</time>
      </trkpt>
      <trkpt lat="49.37011" lon="-0.88079">
        <ele>6.7</ele>
        <time>2020-06-16T16:26:56Z</time>
      </trkpt>
      <trkpt lat="49.37012" lon="-0.88078">
        <ele>6.7</ele>
        <time>2020-06-16T16:26:57Z</time>
      </trkpt>
      <trkpt lat="49.37013" lon="-0.88077">
        <ele>6.7</ele>
        <time>2020-06-16T16:26:58Z</time>
      </trkpt>
      <trkpt lat="49.37014" lon="-0.88076">
        <ele>6.7</ele>
        <time>2020-06-16T16:26:59Z</time>
      </trkpt>
      <trkpt lat="49.37015" lon="-0.88075">
        <ele>6.7</ele>
        <time>2020-06-16T16:27:00Z</time>
      </trkpt>
      <trkpt lat="49.37016" lon="-0.88074">
        <ele>6.6</ele>
        <time>2020-06-16T16:27:18Z</time>
      </trkpt>
      <trkpt lat="49.37016" lon="-0.88073">
        <ele>6.6</ele>
        <time>2020-06-16T16:27:19Z</time>
      </trkpt>
      <trkpt lat="49.37017" lon="-0.88072">
        <ele>6.6</ele>
        <time>2020-06-16T16:27:20Z</time>
      </trkpt>
      <trkpt lat="49.37018" lon="-0.8807">
        <ele>6.6</ele>
        <time>2020-06-16T16:27:21Z</time>
      </trkpt>
      <trkpt lat="49.37018" lon="-0.88067">
        <ele>6.6</ele>
        <time>2020-06-16T16:27:22Z</time>
      </trkpt>
      <trkpt lat="49.37018" lon="-0.88063">
        <ele>6.4</ele>
        <time>2020-06-16T16:27:23Z</time>
      </trkpt>
      <trkpt lat="49.37018" lon="-0.88062">
        <ele>6.4</ele>
        <time>2020-06-16T16:27:24Z</time>
      </trkpt>
      <trkpt lat="49.37019" lon="-0.88058">
        <ele>6.3</ele>
        <time>2020-06-16T16:27:25Z</time>
      </trkpt>
      <trkpt lat="49.37019" lon="-0.88056">
        <ele>6.2</ele>
        <time>2020-06-16T16:27:26Z</time>
      </trkpt>
      <trkpt lat="49.37019" lon="-0.88052">
        <ele>6.2</ele>
        <time>2020-06-16T16:27:27Z</time>
      </trkpt>
      <trkpt lat="49.37018" lon="-0.8805">
        <ele>6.1</ele>
        <time>2020-06-16T16:27:28Z</time>
      </trkpt>
      <trkpt lat="49.37018" lon="-0.88048">
        <ele>6.1</ele>
        <time>2020-06-16T16:27:29Z</time>
      </trkpt>
      <trkpt lat="49.37018" lon="-0.88045">
        <ele>6</ele>
        <time>2020-06-16T16:27:30Z</time>
      </trkpt>
      <trkpt lat="49.37017" lon="-0.88043">
        <ele>6</ele>
        <time>2020-06-16T16:27:31Z</time>
      </trkpt>
      <trkpt lat="49.37016" lon="-0.8804">
        <ele>5.9</ele>
        <time>2020-06-16T16:27:32Z</time>
      </trkpt>
      <trkpt lat="49.37014" lon="-0.88036">
        <ele>5.9</ele>
        <time>2020-06-16T16:27:33Z</time>
      </trkpt>
      <trkpt lat="49.37013" lon="-0.88035">
        <ele>5.8</ele>
        <time>2020-06-16T16:27:34Z</time>
      </trkpt>
      <trkpt lat="49.3701" lon="-0.88033">
        <ele>5.7</ele>
        <time>2020-06-16T16:27:35Z</time>
      </trkpt>
      <trkpt lat="49.37008" lon="-0.88032">
        <ele>5.7</ele>
        <time>2020-06-16T16:27:36Z</time>
      </trkpt>
      <trkpt lat="49.37005" lon="-0.8803">
        <ele>5.8</ele>
        <time>2020-06-16T16:27:37Z</time>
      </trkpt>
      <trkpt lat="49.37003" lon="-0.88027">
        <ele>5.8</ele>
        <time>2020-06-16T16:27:38Z</time>
      </trkpt>
      <trkpt lat="49.37001" lon="-0.88024">
        <ele>6.1</ele>
        <time>2020-06-16T16:27:39Z</time>
      </trkpt>
      <trkpt lat="49.37001" lon="-0.88017">
        <ele>6.2</ele>
        <time>2020-06-16T16:27:40Z</time>
      </trkpt>
      <trkpt lat="49.37001" lon="-0.88015">
        <ele>6.1</ele>
        <time>2020-06-16T16:27:41Z</time>
      </trkpt>
      <trkpt lat="49.37001" lon="-0.88009">
        <ele>6.1</ele>
        <time>2020-06-16T16:27:42Z</time>
      </trkpt>
      <trkpt lat="49.37002" lon="-0.88007">
        <ele>6</ele>
        <time>2020-06-16T16:27:43Z</time>
      </trkpt>
      <trkpt lat="49.37004" lon="-0.88">
        <ele>5.9</ele>
        <time>2020-06-16T16:27:44Z</time>
      </trkpt>
      <trkpt lat="49.37006" lon="-0.87994">
        <ele>5.9</ele>
        <time>2020-06-16T16:27:45Z</time>
      </trkpt>
      <trkpt lat="49.37009" lon="-0.87989">
        <ele>5.8</ele>
        <time>2020-06-16T16:27:46Z</time>
      </trkpt>
      <trkpt lat="49.37013" lon="-0.87984">
        <ele>5.7</ele>
        <time>2020-06-16T16:27:47Z</time>
      </trkpt>
      <trkpt lat="49.37016" lon="-0.87979">
        <ele>5.6</ele>
        <time>2020-06-16T16:27:48Z</time>
      </trkpt>
      <trkpt lat="49.37019" lon="-0.87975">
        <ele>5.6</ele>
        <time>2020-06-16T16:27:49Z</time>
      </trkpt>
      <trkpt lat="49.37022" lon="-0.87971">
        <ele>5.5</ele>
        <time>2020-06-16T16:27:50Z</time>
      </trkpt>
      <trkpt lat="49.37025" lon="-0.87966">
        <ele>5.4</ele>
        <time>2020-06-16T16:27:51Z</time>
      </trkpt>
      <trkpt lat="49.37027" lon="-0.87962">
        <ele>5.4</ele>
        <time>2020-06-16T16:27:52Z</time>
      </trkpt>
      <trkpt lat="49.3703" lon="-0.87955">
        <ele>5.3</ele>
        <time>2020-06-16T16:27:53Z</time>
      </trkpt>
      <trkpt lat="49.37032" lon="-0.87948">
        <ele>5.2</ele>
        <time>2020-06-16T16:27:54Z</time>
      </trkpt>
      <trkpt lat="49.37034" lon="-0.87939">
        <ele>5.2</ele>
        <time>2020-06-16T16:27:55Z</time>
      </trkpt>
      <trkpt lat="49.37037" lon="-0.87932">
        <ele>5.1</ele>
        <time>2020-06-16T16:27:56Z</time>
      </trkpt>
      <trkpt lat="49.37039" lon="-0.87925">
        <ele>5.1</ele>
        <time>2020-06-16T16:27:57Z</time>
      </trkpt>
      <trkpt lat="49.37041" lon="-0.87918">
        <ele>5.1</ele>
        <time>2020-06-16T16:27:58Z</time>
      </trkpt>
      <trkpt lat="49.37042" lon="-0.8791">
        <ele>5</ele>
        <time>2020-06-16T16:27:59Z</time>
      </trkpt>
      <trkpt lat="49.37043" lon="-0.87902">
        <ele>5</ele>
        <time>2020-06-16T16:28:00Z</time>
      </trkpt>
      <trkpt lat="49.37044" lon="-0.87895">
        <ele>5</ele>
        <time>2020-06-16T16:28:01Z</time>
      </trkpt>
      <trkpt lat="49.37044" lon="-0.87889">
        <ele>5</ele>
        <time>2020-06-16T16:28:02Z</time>
      </trkpt>
      <trkpt lat="49.37044" lon="-0.87883">
        <ele>5</ele>
        <time>2020-06-16T16:28:03Z</time>
      </trkpt>
      <trkpt lat="49.37044" lon="-0.87877">
        <ele>5</ele>
        <time>2020-06-16T16:28:04Z</time>
      </trkpt>
      <trkpt lat="49.37043" lon="-0.87872">
        <ele>5</ele>
        <time>2020-06-16T16:28:05Z</time>
      </trkpt>
      <trkpt lat="49.37042" lon="-0.87867">
        <ele>5</ele>
        <time>2020-06-16T16:28:06Z</time>
      </trkpt>
      <trkpt lat="49.3704" lon="-0.87862">
        <ele>5</ele>
        <time>2020-06-16T16:28:07Z</time>
      </trkpt>
      <trkpt lat="49.37039" lon="-0.87857">
        <ele>5</ele>
        <time>2020-06-16T16:28:08Z</time>
      </trkpt>
      <trkpt lat="49.37037" lon="-0.87851">
        <ele>5</ele>
        <time>2020-06-16T16:28:09Z</time>
      </trkpt>
      <trkpt lat="49.37036" lon="-0.87845">
        <ele>5</ele>
        <time>2020-06-16T16:28:10Z</time>
      </trkpt>
      <trkpt lat="49.37033" lon="-0.87839">
        <ele>5</ele>
        <time>2020-06-16T16:28:11Z</time>
      </trkpt>
      <trkpt lat="49.37031" lon="-0.87832">
        <ele>5</ele>
        <time>2020-06-16T16:28:12Z</time>
      </trkpt>
      <trkpt lat="49.37028" lon="-0.87824">
        <ele>5</ele>
        <time>2020-06-16T16:28:13Z</time>
      </trkpt>
      <trkpt lat="49.37026" lon="-0.87818">
        <ele>5</ele>
        <time>2020-06-16T16:28:14Z</time>
      </trkpt>
      <trkpt lat="49.37024" lon="-0.87812">
        <ele>5</ele>
        <time>2020-06-16T16:28:15Z</time>
      </trkpt>
      <trkpt lat="49.37022" lon="-0.87805">
        <ele>5</ele>
        <time>2020-06-16T16:28:16Z</time>
      </trkpt>
      <trkpt lat="49.3702" lon="-0.878">
        <ele>5</ele>
        <time>2020-06-16T16:28:17Z</time>
      </trkpt>
      <trkpt lat="49.37018" lon="-0.87794">
        <ele>5</ele>
        <time>2020-06-16T16:28:18Z</time>
      </trkpt>
      <trkpt lat="49.37016" lon="-0.87788">
        <ele>5</ele>
        <time>2020-06-16T16:28:19Z</time>
      </trkpt>
      <trkpt lat="49.37015" lon="-0.87782">
        <ele>5</ele>
        <time>2020-06-16T16:28:20Z</time>
      </trkpt>
      <trkpt lat="49.37013" lon="-0.87776">
        <ele>5</ele>
        <time>2020-06-16T16:28:21Z</time>
      </trkpt>
      <trkpt lat="49.37011" lon="-0.87769">
        <ele>5</ele>
        <time>2020-06-16T16:28:22Z</time>
      </trkpt>
      <trkpt lat="49.37009" lon="-0.87763">
        <ele>5</ele>
        <time>2020-06-16T16:28:23Z</time>
      </trkpt>
      <trkpt lat="49.37006" lon="-0.87755">
        <ele>5</ele>
        <time>2020-06-16T16:28:24Z</time>
      </trkpt>
      <trkpt lat="49.37004" lon="-0.87748">
        <ele>5.1</ele>
        <time>2020-06-16T16:28:25Z</time>
      </trkpt>
      <trkpt lat="49.37001" lon="-0.8774">
        <ele>5.1</ele>
        <time>2020-06-16T16:28:26Z</time>
      </trkpt>
      <trkpt lat="49.36998" lon="-0.87732">
        <ele>5.1</ele>
        <time>2020-06-16T16:28:27Z</time>
      </trkpt>
      <trkpt lat="49.36996" lon="-0.87724">
        <ele>5.1</ele>
        <time>2020-06-16T16:28:28Z</time>
      </trkpt>
      <trkpt lat="49.36993" lon="-0.87717">
        <ele>5.1</ele>
        <time>2020-06-16T16:28:29Z</time>
      </trkpt>
      <trkpt lat="49.36991" lon="-0.8771">
        <ele>5.1</ele>
        <time>2020-06-16T16:28:30Z</time>
      </trkpt>
      <trkpt lat="49.36988" lon="-0.87703">
        <ele>5.1</ele>
        <time>2020-06-16T16:28:31Z</time>
      </trkpt>
      <trkpt lat="49.36984" lon="-0.87696">
        <ele>5.1</ele>
        <time>2020-06-16T16:28:32Z</time>
      </trkpt>
      <trkpt lat="49.36981" lon="-0.87689">
        <ele>5.1</ele>
        <time>2020-06-16T16:28:33Z</time>
      </trkpt>
      <trkpt lat="49.36978" lon="-0.87681">
        <ele>5.1</ele>
        <time>2020-06-16T16:28:34Z</time>
      </trkpt>
      <trkpt lat="49.36975" lon="-0.87673">
        <ele>5.1</ele>
        <time>2020-06-16T16:28:35Z</time>
      </trkpt>
      <trkpt lat="49.36972" lon="-0.87666">
        <ele>5.1</ele>
        <time>2020-06-16T16:28:36Z</time>
      </trkpt>
      <trkpt lat="49.36969" lon="-0.87659">
        <ele>5.1</ele>
        <time>2020-06-16T16:28:37Z</time>
      </trkpt>
      <trkpt lat="49.36966" lon="-0.87651">
        <ele>5.1</ele>
        <time>2020-06-16T16:28:38Z</time>
      </trkpt>
      <trkpt lat="49.36962" lon="-0.87644">
        <ele>5.1</ele>
        <time>2020-06-16T16:28:39Z</time>
      </trkpt>
      <trkpt lat="49.36959" lon="-0.87636">
        <ele>5.2</ele>
        <time>2020-06-16T16:28:40Z</time>
      </trkpt>
      <trkpt lat="49.36957" lon="-0.87628">
        <ele>5.2</ele>
        <time>2020-06-16T16:28:41Z</time>
      </trkpt>
      <trkpt lat="49.36954" lon="-0.8762">
        <ele>5.2</ele>
        <time>2020-06-16T16:28:42Z</time>
      </trkpt>
      <trkpt lat="49.36952" lon="-0.87612">
        <ele>5.2</ele>
        <time>2020-06-16T16:28:43Z</time>
      </trkpt>
      <trkpt lat="49.36949" lon="-0.87603">
        <ele>5.2</ele>
        <time>2020-06-16T16:28:44Z</time>
      </trkpt>
      <trkpt lat="49.36946" lon="-0.87595">
        <ele>5.2</ele>
        <time>2020-06-16T16:28:45Z</time>
      </trkpt>
      <trkpt lat="49.36943" lon="-0.87587">
        <ele>5.2</ele>
        <time>2020-06-16T16:28:46Z</time>
      </trkpt>
      <trkpt lat="49.36941" lon="-0.87578">
        <ele>5.2</ele>
        <time>2020-06-16T16:28:47Z</time>
      </trkpt>
      <trkpt lat="49.36939" lon="-0.87568">
        <ele>5.2</ele>
        <time>2020-06-16T16:28:48Z</time>
      </trkpt>
      <trkpt lat="49.36937" lon="-0.87559">
        <ele>5.1</ele>
        <time>2020-06-16T16:28:49Z</time>
      </trkpt>
      <trkpt lat="49.36934" lon="-0.8755">
        <ele>5.1</ele>
        <time>2020-06-16T16:28:50Z</time>
      </trkpt>
      <trkpt lat="49.36931" lon="-0.87542">
        <ele>5</ele>
        <time>2020-06-16T16:28:51Z</time>
      </trkpt>
      <trkpt lat="49.36928" lon="-0.87534">
        <ele>5</ele>
        <time>2020-06-16T16:28:52Z</time>
      </trkpt>
      <trkpt lat="49.36926" lon="-0.87527">
        <ele>5</ele>
        <time>2020-06-16T16:28:53Z</time>
      </trkpt>
      <trkpt lat="49.36925" lon="-0.8752">
        <ele>5</ele>
        <time>2020-06-16T16:28:54Z</time>
      </trkpt>
      <trkpt lat="49.36923" lon="-0.87513">
        <ele>5</ele>
        <time>2020-06-16T16:28:55Z</time>
      </trkpt>
      <trkpt lat="49.36922" lon="-0.87507">
        <ele>5</ele>
        <time>2020-06-16T16:28:56Z</time>
      </trkpt>
      <trkpt lat="49.3692" lon="-0.875">
        <ele>5</ele>
        <time>2020-06-16T16:28:57Z</time>
      </trkpt>
      <trkpt lat="49.36917" lon="-0.87494">
        <ele>5</ele>
        <time>2020-06-16T16:28:58Z</time>
      </trkpt>
      <trkpt lat="49.36916" lon="-0.87488">
        <ele>5</ele>
        <time>2020-06-16T16:28:59Z</time>
      </trkpt>
      <trkpt lat="49.36913" lon="-0.87481">
        <ele>5</ele>
        <time>2020-06-16T16:29:00Z</time>
      </trkpt>
      <trkpt lat="49.36911" lon="-0.87473">
        <ele>5</ele>
        <time>2020-06-16T16:29:01Z</time>
      </trkpt>
      <trkpt lat="49.36908" lon="-0.87466">
        <ele>5</ele>
        <time>2020-06-16T16:29:02Z</time>
      </trkpt>
      <trkpt lat="49.36906" lon="-0.87458">
        <ele>5</ele>
        <time>2020-06-16T16:29:03Z</time>
      </trkpt>
      <trkpt lat="49.36903" lon="-0.8745">
        <ele>5.1</ele>
        <time>2020-06-16T16:29:04Z</time>
      </trkpt>
      <trkpt lat="49.36901" lon="-0.87443">
        <ele>5.1</ele>
        <time>2020-06-16T16:29:05Z</time>
      </trkpt>
      <trkpt lat="49.36898" lon="-0.87436">
        <ele>5.1</ele>
        <time>2020-06-16T16:29:06Z</time>
      </trkpt>
      <trkpt lat="49.36895" lon="-0.87428">
        <ele>5.1</ele>
        <time>2020-06-16T16:29:07Z</time>
      </trkpt>
      <trkpt lat="49.36893" lon="-0.8742">
        <ele>5.1</ele>
        <time>2020-06-16T16:29:08Z</time>
      </trkpt>
      <trkpt lat="49.3689" lon="-0.87413">
        <ele>5.1</ele>
        <time>2020-06-16T16:29:09Z</time>
      </trkpt>
      <trkpt lat="49.36888" lon="-0.87406">
        <ele>5.1</ele>
        <time>2020-06-16T16:29:10Z</time>
      </trkpt>
      <trkpt lat="49.36887" lon="-0.87399">
        <ele>5.1</ele>
        <time>2020-06-16T16:29:11Z</time>
      </trkpt>
      <trkpt lat="49.36884" lon="-0.87392">
        <ele>5.1</ele>
        <time>2020-06-16T16:29:12Z</time>
      </trkpt>
      <trkpt lat="49.36882" lon="-0.87385">
        <ele>5.1</ele>
        <time>2020-06-16T16:29:13Z</time>
      </trkpt>
      <trkpt lat="49.3688" lon="-0.87379">
        <ele>5.2</ele>
        <time>2020-06-16T16:29:14Z</time>
      </trkpt>
      <trkpt lat="49.36878" lon="-0.87372">
        <ele>5.2</ele>
        <time>2020-06-16T16:29:15Z</time>
      </trkpt>
      <trkpt lat="49.36876" lon="-0.87366">
        <ele>5.2</ele>
        <time>2020-06-16T16:29:16Z</time>
      </trkpt>
      <trkpt lat="49.36874" lon="-0.87359">
        <ele>5.3</ele>
        <time>2020-06-16T16:29:17Z</time>
      </trkpt>
      <trkpt lat="49.36872" lon="-0.87353">
        <ele>5.3</ele>
        <time>2020-06-16T16:29:18Z</time>
      </trkpt>
      <trkpt lat="49.3687" lon="-0.87346">
        <ele>5.3</ele>
        <time>2020-06-16T16:29:19Z</time>
      </trkpt>
      <trkpt lat="49.36867" lon="-0.87339">
        <ele>5.3</ele>
        <time>2020-06-16T16:29:20Z</time>
      </trkpt>
      <trkpt lat="49.36865" lon="-0.87332">
        <ele>5.4</ele>
        <time>2020-06-16T16:29:21Z</time>
      </trkpt>
      <trkpt lat="49.36862" lon="-0.87325">
        <ele>5.4</ele>
        <time>2020-06-16T16:29:22Z</time>
      </trkpt>
      <trkpt lat="49.3686" lon="-0.87318">
        <ele>5.4</ele>
        <time>2020-06-16T16:29:23Z</time>
      </trkpt>
      <trkpt lat="49.36857" lon="-0.8731">
        <ele>5.3</ele>
        <time>2020-06-16T16:29:24Z</time>
      </trkpt>
      <trkpt lat="49.36855" lon="-0.87304">
        <ele>5.3</ele>
        <time>2020-06-16T16:29:25Z</time>
      </trkpt>
      <trkpt lat="49.36853" lon="-0.87297">
        <ele>5.3</ele>
        <time>2020-06-16T16:29:26Z</time>
      </trkpt>
      <trkpt lat="49.36851" lon="-0.87289">
        <ele>5.3</ele>
        <time>2020-06-16T16:29:27Z</time>
      </trkpt>
      <trkpt lat="49.36849" lon="-0.87281">
        <ele>5.3</ele>
        <time>2020-06-16T16:29:28Z</time>
      </trkpt>
      <trkpt lat="49.36846" lon="-0.87275">
        <ele>5.3</ele>
        <time>2020-06-16T16:29:29Z</time>
      </trkpt>
      <trkpt lat="49.36844" lon="-0.87266">
        <ele>5.3</ele>
        <time>2020-06-16T16:29:30Z</time>
      </trkpt>
      <trkpt lat="49.36842" lon="-0.87258">
        <ele>5.4</ele>
        <time>2020-06-16T16:29:31Z</time>
      </trkpt>
      <trkpt lat="49.3684" lon="-0.87252">
        <ele>5.4</ele>
        <time>2020-06-16T16:29:32Z</time>
      </trkpt>
      <trkpt lat="49.36839" lon="-0.87246">
        <ele>5.5</ele>
        <time>2020-06-16T16:29:33Z</time>
      </trkpt>
      <trkpt lat="49.36837" lon="-0.8724">
        <ele>5.5</ele>
        <time>2020-06-16T16:29:34Z</time>
      </trkpt>
      <trkpt lat="49.36834" lon="-0.87232">
        <ele>5.5</ele>
        <time>2020-06-16T16:29:35Z</time>
      </trkpt>
      <trkpt lat="49.36833" lon="-0.87224">
        <ele>5.5</ele>
        <time>2020-06-16T16:29:36Z</time>
      </trkpt>
      <trkpt lat="49.36831" lon="-0.87216">
        <ele>5.5</ele>
        <time>2020-06-16T16:29:37Z</time>
      </trkpt>
      <trkpt lat="49.36829" lon="-0.87208">
        <ele>5.5</ele>
        <time>2020-06-16T16:29:38Z</time>
      </trkpt>
      <trkpt lat="49.36827" lon="-0.87201">
        <ele>5.4</ele>
        <time>2020-06-16T16:29:39Z</time>
      </trkpt>
      <trkpt lat="49.36824" lon="-0.87194">
        <ele>5.3</ele>
        <time>2020-06-16T16:29:40Z</time>
      </trkpt>
      <trkpt lat="49.36822" lon="-0.87187">
        <ele>5.3</ele>
        <time>2020-06-16T16:29:41Z</time>
      </trkpt>
      <trkpt lat="49.36821" lon="-0.87181">
        <ele>5.3</ele>
        <time>2020-06-16T16:29:42Z</time>
      </trkpt>
      <trkpt lat="49.36819" lon="-0.87174">
        <ele>5.2</ele>
        <time>2020-06-16T16:29:43Z</time>
      </trkpt>
      <trkpt lat="49.36817" lon="-0.87167">
        <ele>5.2</ele>
        <time>2020-06-16T16:29:44Z</time>
      </trkpt>
      <trkpt lat="49.36815" lon="-0.8716">
        <ele>5.2</ele>
        <time>2020-06-16T16:29:45Z</time>
      </trkpt>
      <trkpt lat="49.36813" lon="-0.87152">
        <ele>5.2</ele>
        <time>2020-06-16T16:29:46Z</time>
      </trkpt>
      <trkpt lat="49.3681" lon="-0.87146">
        <ele>5.1</ele>
        <time>2020-06-16T16:29:47Z</time>
      </trkpt>
      <trkpt lat="49.36809" lon="-0.8714">
        <ele>5.1</ele>
        <time>2020-06-16T16:29:48Z</time>
      </trkpt>
      <trkpt lat="49.36806" lon="-0.87134">
        <ele>5.1</ele>
        <time>2020-06-16T16:29:49Z</time>
      </trkpt>
      <trkpt lat="49.36804" lon="-0.87127">
        <ele>5.1</ele>
        <time>2020-06-16T16:29:50Z</time>
      </trkpt>
      <trkpt lat="49.36802" lon="-0.87119">
        <ele>5</ele>
        <time>2020-06-16T16:29:51Z</time>
      </trkpt>
      <trkpt lat="49.36799" lon="-0.87113">
        <ele>5</ele>
        <time>2020-06-16T16:29:52Z</time>
      </trkpt>
      <trkpt lat="49.36797" lon="-0.87106">
        <ele>5</ele>
        <time>2020-06-16T16:29:53Z</time>
      </trkpt>
      <trkpt lat="49.36795" lon="-0.87099">
        <ele>4.9</ele>
        <time>2020-06-16T16:29:54Z</time>
      </trkpt>
      <trkpt lat="49.36793" lon="-0.87091">
        <ele>4.9</ele>
        <time>2020-06-16T16:29:55Z</time>
      </trkpt>
      <trkpt lat="49.36791" lon="-0.87085">
        <ele>4.9</ele>
        <time>2020-06-16T16:29:56Z</time>
      </trkpt>
      <trkpt lat="49.36789" lon="-0.87078">
        <ele>4.9</ele>
        <time>2020-06-16T16:29:57Z</time>
      </trkpt>
      <trkpt lat="49.36787" lon="-0.87072">
        <ele>4.9</ele>
        <time>2020-06-16T16:29:58Z</time>
      </trkpt>
      <trkpt lat="49.36785" lon="-0.87066">
        <ele>4.9</ele>
        <time>2020-06-16T16:29:59Z</time>
      </trkpt>
      <trkpt lat="49.36784" lon="-0.87059">
        <ele>4.9</ele>
        <time>2020-06-16T16:30:00Z</time>
      </trkpt>
      <trkpt lat="49.36781" lon="-0.87054">
        <ele>4.9</ele>
        <time>2020-06-16T16:30:01Z</time>
      </trkpt>
      <trkpt lat="49.36779" lon="-0.87048">
        <ele>5</ele>
        <time>2020-06-16T16:30:02Z</time>
      </trkpt>
      <trkpt lat="49.36778" lon="-0.87041">
        <ele>5</ele>
        <time>2020-06-16T16:30:03Z</time>
      </trkpt>
      <trkpt lat="49.36776" lon="-0.87035">
        <ele>5</ele>
        <time>2020-06-16T16:30:04Z</time>
      </trkpt>
      <trkpt lat="49.36773" lon="-0.87029">
        <ele>5</ele>
        <time>2020-06-16T16:30:05Z</time>
      </trkpt>
      <trkpt lat="49.3677" lon="-0.87023">
        <ele>5</ele>
        <time>2020-06-16T16:30:06Z</time>
      </trkpt>
      <trkpt lat="49.36768" lon="-0.87016">
        <ele>4.9</ele>
        <time>2020-06-16T16:30:07Z</time>
      </trkpt>
      <trkpt lat="49.36765" lon="-0.87011">
        <ele>4.9</ele>
        <time>2020-06-16T16:30:08Z</time>
      </trkpt>
      <trkpt lat="49.36762" lon="-0.87007">
        <ele>4.9</ele>
        <time>2020-06-16T16:30:09Z</time>
      </trkpt>
      <trkpt lat="49.36759" lon="-0.87003">
        <ele>4.8</ele>
        <time>2020-06-16T16:30:10Z</time>
      </trkpt>
      <trkpt lat="49.36754" lon="-0.87001">
        <ele>4.8</ele>
        <time>2020-06-16T16:30:11Z</time>
      </trkpt>
      <trkpt lat="49.36749" lon="-0.86999">
        <ele>4.8</ele>
        <time>2020-06-16T16:30:12Z</time>
      </trkpt>
      <trkpt lat="49.36744" lon="-0.86997">
        <ele>4.7</ele>
        <time>2020-06-16T16:30:13Z</time>
      </trkpt>
      <trkpt lat="49.36738" lon="-0.86993">
        <ele>4.6</ele>
        <time>2020-06-16T16:30:14Z</time>
      </trkpt>
      <trkpt lat="49.36733" lon="-0.86989">
        <ele>4.5</ele>
        <time>2020-06-16T16:30:15Z</time>
      </trkpt>
      <trkpt lat="49.36728" lon="-0.86984">
        <ele>4.4</ele>
        <time>2020-06-16T16:30:16Z</time>
      </trkpt>
      <trkpt lat="49.36724" lon="-0.86978">
        <ele>4.2</ele>
        <time>2020-06-16T16:30:17Z</time>
      </trkpt>
      <trkpt lat="49.36721" lon="-0.86971">
        <ele>4.1</ele>
        <time>2020-06-16T16:30:18Z</time>
      </trkpt>
      <trkpt lat="49.36718" lon="-0.86963">
        <ele>4</ele>
        <time>2020-06-16T16:30:19Z</time>
      </trkpt>
      <trkpt lat="49.36716" lon="-0.86955">
        <ele>3.9</ele>
        <time>2020-06-16T16:30:20Z</time>
      </trkpt>
      <trkpt lat="49.36713" lon="-0.86948">
        <ele>3.8</ele>
        <time>2020-06-16T16:30:21Z</time>
      </trkpt>
      <trkpt lat="49.3671" lon="-0.8694">
        <ele>3.8</ele>
        <time>2020-06-16T16:30:22Z</time>
      </trkpt>
      <trkpt lat="49.36707" lon="-0.86932">
        <ele>3.8</ele>
        <time>2020-06-16T16:30:23Z</time>
      </trkpt>
      <trkpt lat="49.36704" lon="-0.86925">
        <ele>3.8</ele>
        <time>2020-06-16T16:30:24Z</time>
      </trkpt>
      <trkpt lat="49.36701" lon="-0.86917">
        <ele>3.7</ele>
        <time>2020-06-16T16:30:25Z</time>
      </trkpt>
      <trkpt lat="49.36698" lon="-0.86908">
        <ele>3.7</ele>
        <time>2020-06-16T16:30:26Z</time>
      </trkpt>
      <trkpt lat="49.36695" lon="-0.869">
        <ele>3.7</ele>
        <time>2020-06-16T16:30:27Z</time>
      </trkpt>
      <trkpt lat="49.36693" lon="-0.8689">
        <ele>3.6</ele>
        <time>2020-06-16T16:30:28Z</time>
      </trkpt>
      <trkpt lat="49.3669" lon="-0.86881">
        <ele>3.5</ele>
        <time>2020-06-16T16:30:29Z</time>
      </trkpt>
      <trkpt lat="49.36687" lon="-0.86873">
        <ele>3.5</ele>
        <time>2020-06-16T16:30:30Z</time>
      </trkpt>
      <trkpt lat="49.36684" lon="-0.86865">
        <ele>3.4</ele>
        <time>2020-06-16T16:30:31Z</time>
      </trkpt>
      <trkpt lat="49.36681" lon="-0.86857">
        <ele>3.3</ele>
        <time>2020-06-16T16:30:32Z</time>
      </trkpt>
      <trkpt lat="49.36677" lon="-0.86848">
        <ele>3.3</ele>
        <time>2020-06-16T16:30:33Z</time>
      </trkpt>
      <trkpt lat="49.36674" lon="-0.86839">
        <ele>3.2</ele>
        <time>2020-06-16T16:30:34Z</time>
      </trkpt>
      <trkpt lat="49.3667" lon="-0.8683">
        <ele>3.2</ele>
        <time>2020-06-16T16:30:35Z</time>
      </trkpt>
      <trkpt lat="49.36667" lon="-0.86821">
        <ele>3.1</ele>
        <time>2020-06-16T16:30:36Z</time>
      </trkpt>
      <trkpt lat="49.36664" lon="-0.86813">
        <ele>3.1</ele>
        <time>2020-06-16T16:30:37Z</time>
      </trkpt>
      <trkpt lat="49.36662" lon="-0.86805">
        <ele>3.2</ele>
        <time>2020-06-16T16:30:38Z</time>
      </trkpt>
      <trkpt lat="49.36659" lon="-0.86797">
        <ele>3.2</ele>
        <time>2020-06-16T16:30:39Z</time>
      </trkpt>
      <trkpt lat="49.36655" lon="-0.86789">
        <ele>3.2</ele>
        <time>2020-06-16T16:30:40Z</time>
      </trkpt>
      <trkpt lat="49.36652" lon="-0.8678">
        <ele>3.2</ele>
        <time>2020-06-16T16:30:41Z</time>
      </trkpt>
      <trkpt lat="49.3665" lon="-0.86772">
        <ele>3.2</ele>
        <time>2020-06-16T16:30:42Z</time>
      </trkpt>
      <trkpt lat="49.36648" lon="-0.86763">
        <ele>3.2</ele>
        <time>2020-06-16T16:30:43Z</time>
      </trkpt>
      <trkpt lat="49.36645" lon="-0.86755">
        <ele>3.2</ele>
        <time>2020-06-16T16:30:44Z</time>
      </trkpt>
      <trkpt lat="49.36643" lon="-0.86747">
        <ele>3.2</ele>
        <time>2020-06-16T16:30:45Z</time>
      </trkpt>
      <trkpt lat="49.3664" lon="-0.86739">
        <ele>3.2</ele>
        <time>2020-06-16T16:30:46Z</time>
      </trkpt>
      <trkpt lat="49.36638" lon="-0.8673">
        <ele>3.3</ele>
        <time>2020-06-16T16:30:47Z</time>
      </trkpt>
      <trkpt lat="49.36636" lon="-0.86722">
        <ele>3.3</ele>
        <time>2020-06-16T16:30:48Z</time>
      </trkpt>
      <trkpt lat="49.36634" lon="-0.86713">
        <ele>3.3</ele>
        <time>2020-06-16T16:30:49Z</time>
      </trkpt>
      <trkpt lat="49.36632" lon="-0.86706">
        <ele>3.4</ele>
        <time>2020-06-16T16:30:50Z</time>
      </trkpt>
      <trkpt lat="49.3663" lon="-0.86699">
        <ele>3.4</ele>
        <time>2020-06-16T16:30:51Z</time>
      </trkpt>
      <trkpt lat="49.36628" lon="-0.86692">
        <ele>3.4</ele>
        <time>2020-06-16T16:30:52Z</time>
      </trkpt>
      <trkpt lat="49.36626" lon="-0.86685">
        <ele>3.4</ele>
        <time>2020-06-16T16:30:53Z</time>
      </trkpt>
      <trkpt lat="49.36624" lon="-0.86677">
        <ele>3.4</ele>
        <time>2020-06-16T16:30:54Z</time>
      </trkpt>
      <trkpt lat="49.36622" lon="-0.8667">
        <ele>3.4</ele>
        <time>2020-06-16T16:30:55Z</time>
      </trkpt>
      <trkpt lat="49.36621" lon="-0.86663">
        <ele>3.4</ele>
        <time>2020-06-16T16:30:56Z</time>
      </trkpt>
      <trkpt lat="49.36619" lon="-0.86655">
        <ele>3.4</ele>
        <time>2020-06-16T16:30:57Z</time>
      </trkpt>
      <trkpt lat="49.36617" lon="-0.86648">
        <ele>3.4</ele>
        <time>2020-06-16T16:30:58Z</time>
      </trkpt>
      <trkpt lat="49.36616" lon="-0.8664">
        <ele>3.4</ele>
        <time>2020-06-16T16:30:59Z</time>
      </trkpt>
      <trkpt lat="49.36613" lon="-0.86632">
        <ele>3.4</ele>
        <time>2020-06-16T16:31:00Z</time>
      </trkpt>
      <trkpt lat="49.36611" lon="-0.86625">
        <ele>3.4</ele>
        <time>2020-06-16T16:31:01Z</time>
      </trkpt>
      <trkpt lat="49.36608" lon="-0.86616">
        <ele>3.4</ele>
        <time>2020-06-16T16:31:02Z</time>
      </trkpt>
      <trkpt lat="49.36606" lon="-0.86607">
        <ele>3.4</ele>
        <time>2020-06-16T16:31:03Z</time>
      </trkpt>
      <trkpt lat="49.36605" lon="-0.86598">
        <ele>3.5</ele>
        <time>2020-06-16T16:31:04Z</time>
      </trkpt>
      <trkpt lat="49.36602" lon="-0.8659">
        <ele>3.5</ele>
        <time>2020-06-16T16:31:05Z</time>
      </trkpt>
      <trkpt lat="49.36601" lon="-0.86582">
        <ele>3.5</ele>
        <time>2020-06-16T16:31:06Z</time>
      </trkpt>
      <trkpt lat="49.36598" lon="-0.86575">
        <ele>3.5</ele>
        <time>2020-06-16T16:31:07Z</time>
      </trkpt>
      <trkpt lat="49.36596" lon="-0.86567">
        <ele>3.5</ele>
        <time>2020-06-16T16:31:08Z</time>
      </trkpt>
      <trkpt lat="49.36594" lon="-0.86559">
        <ele>3.5</ele>
        <time>2020-06-16T16:31:09Z</time>
      </trkpt>
      <trkpt lat="49.36592" lon="-0.8655">
        <ele>3.6</ele>
        <time>2020-06-16T16:31:10Z</time>
      </trkpt>
      <trkpt lat="49.36589" lon="-0.8654">
        <ele>3.6</ele>
        <time>2020-06-16T16:31:11Z</time>
      </trkpt>
      <trkpt lat="49.36587" lon="-0.86533">
        <ele>3.6</ele>
        <time>2020-06-16T16:31:12Z</time>
      </trkpt>
      <trkpt lat="49.36585" lon="-0.86524">
        <ele>3.6</ele>
        <time>2020-06-16T16:31:13Z</time>
      </trkpt>
      <trkpt lat="49.36583" lon="-0.86516">
        <ele>3.6</ele>
        <time>2020-06-16T16:31:14Z</time>
      </trkpt>
      <trkpt lat="49.36581" lon="-0.8651">
        <ele>3.6</ele>
        <time>2020-06-16T16:31:15Z</time>
      </trkpt>
      <trkpt lat="49.36581" lon="-0.86507">
        <ele>3.6</ele>
        <time>2020-06-16T16:31:16Z</time>
      </trkpt>
      <trkpt lat="49.3658" lon="-0.86506">
        <ele>3.6</ele>
        <time>2020-06-16T16:31:17Z</time>
      </trkpt>
      <trkpt lat="49.3658" lon="-0.86505">
        <ele>3.6</ele>
        <time>2020-06-16T16:31:18Z</time>
      </trkpt>
      <trkpt lat="49.36579" lon="-0.86503">
        <ele>3.6</ele>
        <time>2020-06-16T16:31:19Z</time>
      </trkpt>
      <trkpt lat="49.36578" lon="-0.86502">
        <ele>3.6</ele>
        <time>2020-06-16T16:31:20Z</time>
      </trkpt>
      <trkpt lat="49.36577" lon="-0.86501">
        <ele>3.6</ele>
        <time>2020-06-16T16:31:21Z</time>
      </trkpt>
      <trkpt lat="49.36577" lon="-0.86501">
        <ele>3.6</ele>
        <time>2020-06-16T16:31:22Z</time>
      </trkpt>
      <trkpt lat="49.36577" lon="-0.86501">
        <ele>3.6</ele>
        <time>2020-06-16T16:31:23Z</time>
      </trkpt>
      <trkpt lat="49.36576" lon="-0.86502">
        <ele>3.6</ele>
        <time>2020-06-16T16:31:24Z</time>
      </trkpt>
      <trkpt lat="49.36576" lon="-0.86502">
        <ele>3.6</ele>
        <time>2020-06-16T16:31:25Z</time>
      </trkpt>
      <trkpt lat="49.36576" lon="-0.86502">
        <ele>3.6</ele>
        <time>2020-06-16T16:31:26Z</time>
      </trkpt>
      <trkpt lat="49.36576" lon="-0.86502">
        <ele>3.6</ele>
        <time>2020-06-16T16:31:27Z</time>
      </trkpt>
      <trkpt lat="49.36576" lon="-0.86502">
        <ele>3.6</ele>
        <time>2020-06-16T16:31:28Z</time>
      </trkpt>
      <trkpt lat="49.36576" lon="-0.86502">
        <ele>3.6</ele>
        <time>2020-06-16T16:31:29Z</time>
      </trkpt>
      <trkpt lat="49.36577" lon="-0.86503">
        <ele>3.6</ele>
        <time>2020-06-16T16:31:30Z</time>
      </trkpt>
      <trkpt lat="49.36577" lon="-0.86504">
        <ele>3.6</ele>
        <time>2020-06-16T16:31:31Z</time>
      </trkpt>
      <trkpt lat="49.36577" lon="-0.86504">
        <ele>3.6</ele>
        <time>2020-06-16T16:31:32Z</time>
      </trkpt>
      <trkpt lat="49.36569" lon="-0.86487">
        <ele>3.7</ele>
        <time>2020-06-16T16:32:41Z</time>
      </trkpt>
      <trkpt lat="49.36568" lon="-0.86485">
        <ele>3.7</ele>
        <time>2020-06-16T16:32:42Z</time>
      </trkpt>
      <trkpt lat="49.36568" lon="-0.86483">
        <ele>3.7</ele>
        <time>2020-06-16T16:32:43Z</time>
      </trkpt>
      <trkpt lat="49.36567" lon="-0.86481">
        <ele>3.7</ele>
        <time>2020-06-16T16:32:44Z</time>
      </trkpt>
      <trkpt lat="49.36566" lon="-0.86477">
        <ele>3.8</ele>
        <time>2020-06-16T16:32:45Z</time>
      </trkpt>
      <trkpt lat="49.36566" lon="-0.86475">
        <ele>3.8</ele>
        <time>2020-06-16T16:32:46Z</time>
      </trkpt>
      <trkpt lat="49.36565" lon="-0.8647">
        <ele>3.8</ele>
        <time>2020-06-16T16:32:47Z</time>
      </trkpt>
      <trkpt lat="49.36564" lon="-0.86469">
        <ele>3.8</ele>
        <time>2020-06-16T16:32:48Z</time>
      </trkpt>
      <trkpt lat="49.36563" lon="-0.86466">
        <ele>3.8</ele>
        <time>2020-06-16T16:32:49Z</time>
      </trkpt>
      <trkpt lat="49.36561" lon="-0.86459">
        <ele>3.9</ele>
        <time>2020-06-16T16:32:50Z</time>
      </trkpt>
      <trkpt lat="49.3656" lon="-0.86452">
        <ele>3.9</ele>
        <time>2020-06-16T16:32:51Z</time>
      </trkpt>
      <trkpt lat="49.36559" lon="-0.86446">
        <ele>3.9</ele>
        <time>2020-06-16T16:32:52Z</time>
      </trkpt>
      <trkpt lat="49.36558" lon="-0.8644">
        <ele>4</ele>
        <time>2020-06-16T16:32:53Z</time>
      </trkpt>
      <trkpt lat="49.36556" lon="-0.86435">
        <ele>4</ele>
        <time>2020-06-16T16:32:54Z</time>
      </trkpt>
      <trkpt lat="49.36555" lon="-0.86429">
        <ele>4.1</ele>
        <time>2020-06-16T16:32:55Z</time>
      </trkpt>
      <trkpt lat="49.36554" lon="-0.86421">
        <ele>4.1</ele>
        <time>2020-06-16T16:32:56Z</time>
      </trkpt>
      <trkpt lat="49.36552" lon="-0.86415">
        <ele>4.1</ele>
        <time>2020-06-16T16:32:57Z</time>
      </trkpt>
      <trkpt lat="49.3655" lon="-0.86408">
        <ele>4.1</ele>
        <time>2020-06-16T16:32:58Z</time>
      </trkpt>
      <trkpt lat="49.36549" lon="-0.86401">
        <ele>4.1</ele>
        <time>2020-06-16T16:32:59Z</time>
      </trkpt>
      <trkpt lat="49.36548" lon="-0.86394">
        <ele>4.2</ele>
        <time>2020-06-16T16:33:00Z</time>
      </trkpt>
      <trkpt lat="49.36547" lon="-0.86387">
        <ele>4.2</ele>
        <time>2020-06-16T16:33:01Z</time>
      </trkpt>
      <trkpt lat="49.36545" lon="-0.8638">
        <ele>4.2</ele>
        <time>2020-06-16T16:33:02Z</time>
      </trkpt>
      <trkpt lat="49.36543" lon="-0.86372">
        <ele>4.2</ele>
        <time>2020-06-16T16:33:03Z</time>
      </trkpt>
      <trkpt lat="49.36541" lon="-0.86366">
        <ele>4.2</ele>
        <time>2020-06-16T16:33:04Z</time>
      </trkpt>
      <trkpt lat="49.3654" lon="-0.86361">
        <ele>4.2</ele>
        <time>2020-06-16T16:33:05Z</time>
      </trkpt>
      <trkpt lat="49.36537" lon="-0.86356">
        <ele>4.2</ele>
        <time>2020-06-16T16:33:06Z</time>
      </trkpt>
      <trkpt lat="49.36534" lon="-0.86352">
        <ele>4.3</ele>
        <time>2020-06-16T16:33:07Z</time>
      </trkpt>
      <trkpt lat="49.3653" lon="-0.86351">
        <ele>4.3</ele>
        <time>2020-06-16T16:33:08Z</time>
      </trkpt>
      <trkpt lat="49.36526" lon="-0.8635">
        <ele>4.3</ele>
        <time>2020-06-16T16:33:09Z</time>
      </trkpt>
      <trkpt lat="49.36521" lon="-0.8635">
        <ele>4.4</ele>
        <time>2020-06-16T16:33:10Z</time>
      </trkpt>
      <trkpt lat="49.36517" lon="-0.8635">
        <ele>4.4</ele>
        <time>2020-06-16T16:33:11Z</time>
      </trkpt>
      <trkpt lat="49.36513" lon="-0.8635">
        <ele>4.5</ele>
        <time>2020-06-16T16:33:12Z</time>
      </trkpt>
      <trkpt lat="49.36508" lon="-0.86349">
        <ele>4.6</ele>
        <time>2020-06-16T16:33:13Z</time>
      </trkpt>
      <trkpt lat="49.36503" lon="-0.86349">
        <ele>4.7</ele>
        <time>2020-06-16T16:33:14Z</time>
      </trkpt>
      <trkpt lat="49.36499" lon="-0.8635">
        <ele>4.9</ele>
        <time>2020-06-16T16:33:15Z</time>
      </trkpt>
      <trkpt lat="49.36495" lon="-0.8635">
        <ele>5</ele>
        <time>2020-06-16T16:33:16Z</time>
      </trkpt>
      <trkpt lat="49.36492" lon="-0.8635">
        <ele>5.1</ele>
        <time>2020-06-16T16:33:17Z</time>
      </trkpt>
      <trkpt lat="49.36489" lon="-0.86347">
        <ele>5.2</ele>
        <time>2020-06-16T16:33:18Z</time>
      </trkpt>
      <trkpt lat="49.36486" lon="-0.86344">
        <ele>5.3</ele>
        <time>2020-06-16T16:33:19Z</time>
      </trkpt>
      <trkpt lat="49.36483" lon="-0.8634">
        <ele>5.4</ele>
        <time>2020-06-16T16:33:20Z</time>
      </trkpt>
      <trkpt lat="49.36481" lon="-0.86337">
        <ele>5.8</ele>
        <time>2020-06-16T16:33:21Z</time>
      </trkpt>
      <trkpt lat="49.36479" lon="-0.86335">
        <ele>6</ele>
        <time>2020-06-16T16:33:22Z</time>
      </trkpt>
      <trkpt lat="49.36476" lon="-0.86334">
        <ele>6.2</ele>
        <time>2020-06-16T16:33:23Z</time>
      </trkpt>
      <trkpt lat="49.36473" lon="-0.86333">
        <ele>6.4</ele>
        <time>2020-06-16T16:33:24Z</time>
      </trkpt>
      <trkpt lat="49.36472" lon="-0.86332">
        <ele>6.5</ele>
        <time>2020-06-16T16:33:25Z</time>
      </trkpt>
      <trkpt lat="49.3647" lon="-0.86333">
        <ele>6.7</ele>
        <time>2020-06-16T16:33:26Z</time>
      </trkpt>
      <trkpt lat="49.36469" lon="-0.86333">
        <ele>6.7</ele>
        <time>2020-06-16T16:33:27Z</time>
      </trkpt>
      <trkpt lat="49.36468" lon="-0.86332">
        <ele>6.8</ele>
        <time>2020-06-16T16:33:28Z</time>
      </trkpt>
      <trkpt lat="49.36467" lon="-0.86331">
        <ele>6.9</ele>
        <time>2020-06-16T16:33:29Z</time>
      </trkpt>
      <trkpt lat="49.36467" lon="-0.86335">
        <ele>7.1</ele>
        <time>2020-06-16T16:33:30Z</time>
      </trkpt>
      <trkpt lat="49.36466" lon="-0.86336">
        <ele>7.3</ele>
        <time>2020-06-16T16:33:31Z</time>
      </trkpt>
      <trkpt lat="49.36463" lon="-0.86339">
        <ele>7.6</ele>
        <time>2020-06-16T16:33:32Z</time>
      </trkpt>
      <trkpt lat="49.36461" lon="-0.86339">
        <ele>7.7</ele>
        <time>2020-06-16T16:33:33Z</time>
      </trkpt>
      <trkpt lat="49.36458" lon="-0.86342">
        <ele>8.1</ele>
        <time>2020-06-16T16:33:34Z</time>
      </trkpt>
      <trkpt lat="49.36455" lon="-0.86343">
        <ele>8.7</ele>
        <time>2020-06-16T16:33:35Z</time>
      </trkpt>
      <trkpt lat="49.36452" lon="-0.86344">
        <ele>9.1</ele>
        <time>2020-06-16T16:33:36Z</time>
      </trkpt>
      <trkpt lat="49.36451" lon="-0.86345">
        <ele>9.2</ele>
        <time>2020-06-16T16:33:37Z</time>
      </trkpt>
      <trkpt lat="49.36448" lon="-0.86347">
        <ele>9.6</ele>
        <time>2020-06-16T16:33:38Z</time>
      </trkpt>
      <trkpt lat="49.36447" lon="-0.86348">
        <ele>9.7</ele>
        <time>2020-06-16T16:33:39Z</time>
      </trkpt>
      <trkpt lat="49.36446" lon="-0.86349">
        <ele>9.9</ele>
        <time>2020-06-16T16:33:40Z</time>
      </trkpt>
      <trkpt lat="49.36444" lon="-0.8635">
        <ele>10.1</ele>
        <time>2020-06-16T16:33:41Z</time>
      </trkpt>
      <trkpt lat="49.36442" lon="-0.86352">
        <ele>10.4</ele>
        <time>2020-06-16T16:33:42Z</time>
      </trkpt>
      <trkpt lat="49.36441" lon="-0.86353">
        <ele>10.5</ele>
        <time>2020-06-16T16:33:43Z</time>
      </trkpt>
      <trkpt lat="49.36441" lon="-0.86353">
        <ele>10.6</ele>
        <time>2020-06-16T16:33:44Z</time>
      </trkpt>
      <trkpt lat="49.36438" lon="-0.86355">
        <ele>10.9</ele>
        <time>2020-06-16T16:33:45Z</time>
      </trkpt>
      <trkpt lat="49.36437" lon="-0.86356">
        <ele>11.1</ele>
        <time>2020-06-16T16:33:46Z</time>
      </trkpt>
      <trkpt lat="49.36434" lon="-0.86358">
        <ele>11.2</ele>
        <time>2020-06-16T16:33:47Z</time>
      </trkpt>
      <trkpt lat="49.36434" lon="-0.86359">
        <ele>11.2</ele>
        <time>2020-06-16T16:33:48Z</time>
      </trkpt>
      <trkpt lat="49.36431" lon="-0.86361">
        <ele>11.3</ele>
        <time>2020-06-16T16:33:49Z</time>
      </trkpt>
      <trkpt lat="49.3643" lon="-0.86362">
        <ele>11.3</ele>
        <time>2020-06-16T16:33:50Z</time>
      </trkpt>
      <trkpt lat="49.36428" lon="-0.86365">
        <ele>11.8</ele>
        <time>2020-06-16T16:33:51Z</time>
      </trkpt>
      <trkpt lat="49.36427" lon="-0.86365">
        <ele>11.9</ele>
        <time>2020-06-16T16:33:52Z</time>
      </trkpt>
      <trkpt lat="49.36424" lon="-0.86368">
        <ele>12.1</ele>
        <time>2020-06-16T16:33:53Z</time>
      </trkpt>
      <trkpt lat="49.36421" lon="-0.86371">
        <ele>12.3</ele>
        <time>2020-06-16T16:33:54Z</time>
      </trkpt>
      <trkpt lat="49.36418" lon="-0.86374">
        <ele>12.6</ele>
        <time>2020-06-16T16:33:55Z</time>
      </trkpt>
      <trkpt lat="49.36417" lon="-0.86375">
        <ele>12.8</ele>
        <time>2020-06-16T16:33:56Z</time>
      </trkpt>
      <trkpt lat="49.36414" lon="-0.86377">
        <ele>13.2</ele>
        <time>2020-06-16T16:33:57Z</time>
      </trkpt>
      <trkpt lat="49.36411" lon="-0.8638">
        <ele>13.7</ele>
        <time>2020-06-16T16:33:58Z</time>
      </trkpt>
      <trkpt lat="49.36408" lon="-0.86383">
        <ele>14.1</ele>
        <time>2020-06-16T16:33:59Z</time>
      </trkpt>
      <trkpt lat="49.36405" lon="-0.86386">
        <ele>14.5</ele>
        <time>2020-06-16T16:34:00Z</time>
      </trkpt>
      <trkpt lat="49.36402" lon="-0.86389">
        <ele>14.9</ele>
        <time>2020-06-16T16:34:01Z</time>
      </trkpt>
      <trkpt lat="49.36401" lon="-0.8639">
        <ele>15.1</ele>
        <time>2020-06-16T16:34:02Z</time>
      </trkpt>
      <trkpt lat="49.36399" lon="-0.86393">
        <ele>15.5</ele>
        <time>2020-06-16T16:34:03Z</time>
      </trkpt>
      <trkpt lat="49.36398" lon="-0.86394">
        <ele>15.6</ele>
        <time>2020-06-16T16:34:04Z</time>
      </trkpt>
      <trkpt lat="49.36395" lon="-0.86398">
        <ele>16</ele>
        <time>2020-06-16T16:34:05Z</time>
      </trkpt>
      <trkpt lat="49.36394" lon="-0.86399">
        <ele>16.2</ele>
        <time>2020-06-16T16:34:06Z</time>
      </trkpt>
      <trkpt lat="49.36391" lon="-0.86402">
        <ele>16.5</ele>
        <time>2020-06-16T16:34:07Z</time>
      </trkpt>
      <trkpt lat="49.36388" lon="-0.86405">
        <ele>16.9</ele>
        <time>2020-06-16T16:34:08Z</time>
      </trkpt>
      <trkpt lat="49.36387" lon="-0.86406">
        <ele>17</ele>
        <time>2020-06-16T16:34:09Z</time>
      </trkpt>
      <trkpt lat="49.36385" lon="-0.86409">
        <ele>17.3</ele>
        <time>2020-06-16T16:34:10Z</time>
      </trkpt>
      <trkpt lat="49.36383" lon="-0.86411">
        <ele>17.6</ele>
        <time>2020-06-16T16:34:11Z</time>
      </trkpt>
      <trkpt lat="49.36379" lon="-0.86414">
        <ele>18</ele>
        <time>2020-06-16T16:34:12Z</time>
      </trkpt>
      <trkpt lat="49.36378" lon="-0.86415">
        <ele>18.1</ele>
        <time>2020-06-16T16:34:13Z</time>
      </trkpt>
      <trkpt lat="49.36375" lon="-0.86418">
        <ele>18.5</ele>
        <time>2020-06-16T16:34:14Z</time>
      </trkpt>
      <trkpt lat="49.36374" lon="-0.86419">
        <ele>18.7</ele>
        <time>2020-06-16T16:34:15Z</time>
      </trkpt>
      <trkpt lat="49.36372" lon="-0.86421">
        <ele>19</ele>
        <time>2020-06-16T16:34:16Z</time>
      </trkpt>
      <trkpt lat="49.36371" lon="-0.86422">
        <ele>19.1</ele>
        <time>2020-06-16T16:34:17Z</time>
      </trkpt>
      <trkpt lat="49.36368" lon="-0.86425">
        <ele>19.4</ele>
        <time>2020-06-16T16:34:18Z</time>
      </trkpt>
      <trkpt lat="49.36367" lon="-0.86426">
        <ele>19.5</ele>
        <time>2020-06-16T16:34:19Z</time>
      </trkpt>
      <trkpt lat="49.36366" lon="-0.86427">
        <ele>19.7</ele>
        <time>2020-06-16T16:34:20Z</time>
      </trkpt>
      <trkpt lat="49.36364" lon="-0.86429">
        <ele>19.9</ele>
        <time>2020-06-16T16:34:21Z</time>
      </trkpt>
      <trkpt lat="49.36363" lon="-0.8643">
        <ele>20.1</ele>
        <time>2020-06-16T16:34:22Z</time>
      </trkpt>
      <trkpt lat="49.36362" lon="-0.86432">
        <ele>20.2</ele>
        <time>2020-06-16T16:34:23Z</time>
      </trkpt>
      <trkpt lat="49.36359" lon="-0.86434">
        <ele>20.5</ele>
        <time>2020-06-16T16:34:24Z</time>
      </trkpt>
      <trkpt lat="49.36358" lon="-0.86435">
        <ele>20.6</ele>
        <time>2020-06-16T16:34:25Z</time>
      </trkpt>
      <trkpt lat="49.36356" lon="-0.86437">
        <ele>20.9</ele>
        <time>2020-06-16T16:34:26Z</time>
      </trkpt>
      <trkpt lat="49.36355" lon="-0.86437">
        <ele>21</ele>
        <time>2020-06-16T16:34:27Z</time>
      </trkpt>
      <trkpt lat="49.36354" lon="-0.86438">
        <ele>21.1</ele>
        <time>2020-06-16T16:34:28Z</time>
      </trkpt>
      <trkpt lat="49.36353" lon="-0.86439">
        <ele>21.3</ele>
        <time>2020-06-16T16:34:29Z</time>
      </trkpt>
      <trkpt lat="49.36349" lon="-0.86441">
        <ele>21.6</ele>
        <time>2020-06-16T16:34:30Z</time>
      </trkpt>
      <trkpt lat="49.36348" lon="-0.86442">
        <ele>21.7</ele>
        <time>2020-06-16T16:34:31Z</time>
      </trkpt>
      <trkpt lat="49.36345" lon="-0.86444">
        <ele>22</ele>
        <time>2020-06-16T16:34:32Z</time>
      </trkpt>
      <trkpt lat="49.36344" lon="-0.86445">
        <ele>22.1</ele>
        <time>2020-06-16T16:34:33Z</time>
      </trkpt>
      <trkpt lat="49.36342" lon="-0.86449">
        <ele>22.4</ele>
        <time>2020-06-16T16:34:34Z</time>
      </trkpt>
      <trkpt lat="49.36341" lon="-0.8645">
        <ele>22.5</ele>
        <time>2020-06-16T16:34:35Z</time>
      </trkpt>
      <trkpt lat="49.36338" lon="-0.86453">
        <ele>22.8</ele>
        <time>2020-06-16T16:34:36Z</time>
      </trkpt>
      <trkpt lat="49.36338" lon="-0.86455">
        <ele>22.9</ele>
        <time>2020-06-16T16:34:37Z</time>
      </trkpt>
      <trkpt lat="49.36335" lon="-0.86458">
        <ele>23.2</ele>
        <time>2020-06-16T16:34:38Z</time>
      </trkpt>
      <trkpt lat="49.36333" lon="-0.86459">
        <ele>23.3</ele>
        <time>2020-06-16T16:34:39Z</time>
      </trkpt>
      <trkpt lat="49.36331" lon="-0.86462">
        <ele>23.6</ele>
        <time>2020-06-16T16:34:40Z</time>
      </trkpt>
      <trkpt lat="49.3633" lon="-0.86463">
        <ele>23.7</ele>
        <time>2020-06-16T16:34:41Z</time>
      </trkpt>
      <trkpt lat="49.36326" lon="-0.86466">
        <ele>24</ele>
        <time>2020-06-16T16:34:42Z</time>
      </trkpt>
      <trkpt lat="49.36325" lon="-0.86467">
        <ele>24.1</ele>
        <time>2020-06-16T16:34:43Z</time>
      </trkpt>
      <trkpt lat="49.36323" lon="-0.86469">
        <ele>24.4</ele>
        <time>2020-06-16T16:34:44Z</time>
      </trkpt>
      <trkpt lat="49.36319" lon="-0.86471">
        <ele>24.6</ele>
        <time>2020-06-16T16:34:45Z</time>
      </trkpt>
      <trkpt lat="49.36318" lon="-0.86472">
        <ele>24.7</ele>
        <time>2020-06-16T16:34:46Z</time>
      </trkpt>
      <trkpt lat="49.36316" lon="-0.86475">
        <ele>24.9</ele>
        <time>2020-06-16T16:34:47Z</time>
      </trkpt>
      <trkpt lat="49.36313" lon="-0.86477">
        <ele>25.2</ele>
        <time>2020-06-16T16:34:48Z</time>
      </trkpt>
      <trkpt lat="49.36309" lon="-0.8648">
        <ele>25.4</ele>
        <time>2020-06-16T16:34:49Z</time>
      </trkpt>
      <trkpt lat="49.36308" lon="-0.86481">
        <ele>25.5</ele>
        <time>2020-06-16T16:34:50Z</time>
      </trkpt>
      <trkpt lat="49.36305" lon="-0.86483">
        <ele>25.8</ele>
        <time>2020-06-16T16:34:51Z</time>
      </trkpt>
      <trkpt lat="49.36304" lon="-0.86484">
        <ele>25.9</ele>
        <time>2020-06-16T16:34:52Z</time>
      </trkpt>
      <trkpt lat="49.36301" lon="-0.86487">
        <ele>26.1</ele>
        <time>2020-06-16T16:34:53Z</time>
      </trkpt>
      <trkpt lat="49.363" lon="-0.86487">
        <ele>26.2</ele>
        <time>2020-06-16T16:34:54Z</time>
      </trkpt>
      <trkpt lat="49.36297" lon="-0.8649">
        <ele>26.5</ele>
        <time>2020-06-16T16:34:55Z</time>
      </trkpt>
      <trkpt lat="49.36296" lon="-0.86491">
        <ele>26.6</ele>
        <time>2020-06-16T16:34:56Z</time>
      </trkpt>
      <trkpt lat="49.36293" lon="-0.86495">
        <ele>26.9</ele>
        <time>2020-06-16T16:34:57Z</time>
      </trkpt>
      <trkpt lat="49.36291" lon="-0.86496">
        <ele>27</ele>
        <time>2020-06-16T16:34:58Z</time>
      </trkpt>
      <trkpt lat="49.36288" lon="-0.865">
        <ele>27.3</ele>
        <time>2020-06-16T16:34:59Z</time>
      </trkpt>
      <trkpt lat="49.36287" lon="-0.86501">
        <ele>27.4</ele>
        <time>2020-06-16T16:35:00Z</time>
      </trkpt>
      <trkpt lat="49.36284" lon="-0.86503">
        <ele>27.7</ele>
        <time>2020-06-16T16:35:01Z</time>
      </trkpt>
      <trkpt lat="49.36283" lon="-0.86504">
        <ele>27.8</ele>
        <time>2020-06-16T16:35:02Z</time>
      </trkpt>
      <trkpt lat="49.3628" lon="-0.86506">
        <ele>28</ele>
        <time>2020-06-16T16:35:03Z</time>
      </trkpt>
      <trkpt lat="49.36277" lon="-0.86508">
        <ele>28.2</ele>
        <time>2020-06-16T16:35:04Z</time>
      </trkpt>
      <trkpt lat="49.36274" lon="-0.86511">
        <ele>28.5</ele>
        <time>2020-06-16T16:35:05Z</time>
      </trkpt>
      <trkpt lat="49.36271" lon="-0.86513">
        <ele>28.8</ele>
        <time>2020-06-16T16:35:06Z</time>
      </trkpt>
      <trkpt lat="49.36268" lon="-0.86515">
        <ele>29</ele>
        <time>2020-06-16T16:35:07Z</time>
      </trkpt>
      <trkpt lat="49.36265" lon="-0.86518">
        <ele>29.2</ele>
        <time>2020-06-16T16:35:08Z</time>
      </trkpt>
      <trkpt lat="49.36264" lon="-0.86518">
        <ele>29.3</ele>
        <time>2020-06-16T16:35:09Z</time>
      </trkpt>
      <trkpt lat="49.36261" lon="-0.86522">
        <ele>29.6</ele>
        <time>2020-06-16T16:35:10Z</time>
      </trkpt>
      <trkpt lat="49.3626" lon="-0.86522">
        <ele>29.7</ele>
        <time>2020-06-16T16:35:11Z</time>
      </trkpt>
      <trkpt lat="49.36257" lon="-0.86525">
        <ele>29.9</ele>
        <time>2020-06-16T16:35:12Z</time>
      </trkpt>
      <trkpt lat="49.36256" lon="-0.86526">
        <ele>30</ele>
        <time>2020-06-16T16:35:13Z</time>
      </trkpt>
      <trkpt lat="49.36253" lon="-0.86529">
        <ele>30.3</ele>
        <time>2020-06-16T16:35:14Z</time>
      </trkpt>
      <trkpt lat="49.36252" lon="-0.8653">
        <ele>30.3</ele>
        <time>2020-06-16T16:35:15Z</time>
      </trkpt>
      <trkpt lat="49.3625" lon="-0.86532">
        <ele>30.5</ele>
        <time>2020-06-16T16:35:16Z</time>
      </trkpt>
      <trkpt lat="49.36247" lon="-0.86533">
        <ele>30.8</ele>
        <time>2020-06-16T16:35:17Z</time>
      </trkpt>
      <trkpt lat="49.36244" lon="-0.86536">
        <ele>31</ele>
        <time>2020-06-16T16:35:18Z</time>
      </trkpt>
      <trkpt lat="49.36243" lon="-0.86537">
        <ele>31.1</ele>
        <time>2020-06-16T16:35:19Z</time>
      </trkpt>
      <trkpt lat="49.3624" lon="-0.86541">
        <ele>31.4</ele>
        <time>2020-06-16T16:35:20Z</time>
      </trkpt>
      <trkpt lat="49.36239" lon="-0.86542">
        <ele>31.5</ele>
        <time>2020-06-16T16:35:21Z</time>
      </trkpt>
      <trkpt lat="49.36235" lon="-0.86545">
        <ele>31.8</ele>
        <time>2020-06-16T16:35:22Z</time>
      </trkpt>
      <trkpt lat="49.36234" lon="-0.86546">
        <ele>31.9</ele>
        <time>2020-06-16T16:35:23Z</time>
      </trkpt>
      <trkpt lat="49.36231" lon="-0.86549">
        <ele>32.2</ele>
        <time>2020-06-16T16:35:24Z</time>
      </trkpt>
      <trkpt lat="49.3623" lon="-0.8655">
        <ele>32.3</ele>
        <time>2020-06-16T16:35:25Z</time>
      </trkpt>
      <trkpt lat="49.36227" lon="-0.86553">
        <ele>32.5</ele>
        <time>2020-06-16T16:35:26Z</time>
      </trkpt>
      <trkpt lat="49.36226" lon="-0.86554">
        <ele>32.6</ele>
        <time>2020-06-16T16:35:27Z</time>
      </trkpt>
      <trkpt lat="49.36225" lon="-0.86555">
        <ele>32.8</ele>
        <time>2020-06-16T16:35:28Z</time>
      </trkpt>
      <trkpt lat="49.36223" lon="-0.86556">
        <ele>32.9</ele>
        <time>2020-06-16T16:35:29Z</time>
      </trkpt>
      <trkpt lat="49.3622" lon="-0.86557">
        <ele>33.1</ele>
        <time>2020-06-16T16:35:30Z</time>
      </trkpt>
      <trkpt lat="49.36219" lon="-0.86558">
        <ele>33.2</ele>
        <time>2020-06-16T16:35:31Z</time>
      </trkpt>
      <trkpt lat="49.36217" lon="-0.86561">
        <ele>33.4</ele>
        <time>2020-06-16T16:35:32Z</time>
      </trkpt>
      <trkpt lat="49.36214" lon="-0.86563">
        <ele>33.7</ele>
        <time>2020-06-16T16:35:33Z</time>
      </trkpt>
      <trkpt lat="49.36211" lon="-0.86565">
        <ele>33.9</ele>
        <time>2020-06-16T16:35:34Z</time>
      </trkpt>
      <trkpt lat="49.36211" lon="-0.86566">
        <ele>34</ele>
        <time>2020-06-16T16:35:35Z</time>
      </trkpt>
      <trkpt lat="49.36208" lon="-0.86569">
        <ele>34.3</ele>
        <time>2020-06-16T16:35:36Z</time>
      </trkpt>
      <trkpt lat="49.36208" lon="-0.8657">
        <ele>34.4</ele>
        <time>2020-06-16T16:35:37Z</time>
      </trkpt>
      <trkpt lat="49.36205" lon="-0.86574">
        <ele>34.7</ele>
        <time>2020-06-16T16:35:38Z</time>
      </trkpt>
      <trkpt lat="49.36204" lon="-0.86575">
        <ele>34.8</ele>
        <time>2020-06-16T16:35:39Z</time>
      </trkpt>
      <trkpt lat="49.36201" lon="-0.86579">
        <ele>35</ele>
        <time>2020-06-16T16:35:40Z</time>
      </trkpt>
      <trkpt lat="49.362" lon="-0.8658">
        <ele>35.1</ele>
        <time>2020-06-16T16:35:41Z</time>
      </trkpt>
      <trkpt lat="49.36198" lon="-0.86583">
        <ele>35.4</ele>
        <time>2020-06-16T16:35:42Z</time>
      </trkpt>
      <trkpt lat="49.36195" lon="-0.86585">
        <ele>35.7</ele>
        <time>2020-06-16T16:35:43Z</time>
      </trkpt>
      <trkpt lat="49.36194" lon="-0.86586">
        <ele>35.8</ele>
        <time>2020-06-16T16:35:44Z</time>
      </trkpt>
      <trkpt lat="49.36191" lon="-0.86588">
        <ele>36</ele>
        <time>2020-06-16T16:35:45Z</time>
      </trkpt>
      <trkpt lat="49.36189" lon="-0.8659">
        <ele>36.3</ele>
        <time>2020-06-16T16:35:46Z</time>
      </trkpt>
      <trkpt lat="49.36186" lon="-0.86593">
        <ele>36.6</ele>
        <time>2020-06-16T16:35:47Z</time>
      </trkpt>
      <trkpt lat="49.36185" lon="-0.86593">
        <ele>36.7</ele>
        <time>2020-06-16T16:35:48Z</time>
      </trkpt>
      <trkpt lat="49.36182" lon="-0.86596">
        <ele>36.9</ele>
        <time>2020-06-16T16:35:49Z</time>
      </trkpt>
      <trkpt lat="49.36181" lon="-0.86597">
        <ele>37</ele>
        <time>2020-06-16T16:35:50Z</time>
      </trkpt>
      <trkpt lat="49.36179" lon="-0.866">
        <ele>37.3</ele>
        <time>2020-06-16T16:35:51Z</time>
      </trkpt>
      <trkpt lat="49.36177" lon="-0.86603">
        <ele>37.5</ele>
        <time>2020-06-16T16:35:52Z</time>
      </trkpt>
      <trkpt lat="49.36175" lon="-0.86607">
        <ele>37.8</ele>
        <time>2020-06-16T16:35:53Z</time>
      </trkpt>
      <trkpt lat="49.36174" lon="-0.86608">
        <ele>37.9</ele>
        <time>2020-06-16T16:35:54Z</time>
      </trkpt>
      <trkpt lat="49.36172" lon="-0.86611">
        <ele>38.2</ele>
        <time>2020-06-16T16:35:55Z</time>
      </trkpt>
      <trkpt lat="49.36171" lon="-0.86612">
        <ele>38.3</ele>
        <time>2020-06-16T16:35:56Z</time>
      </trkpt>
      <trkpt lat="49.36167" lon="-0.86612">
        <ele>38.6</ele>
        <time>2020-06-16T16:35:57Z</time>
      </trkpt>
      <trkpt lat="49.36166" lon="-0.86612">
        <ele>38.7</ele>
        <time>2020-06-16T16:35:58Z</time>
      </trkpt>
      <trkpt lat="49.36162" lon="-0.86615">
        <ele>39</ele>
        <time>2020-06-16T16:35:59Z</time>
      </trkpt>
      <trkpt lat="49.36161" lon="-0.86615">
        <ele>39.1</ele>
        <time>2020-06-16T16:36:00Z</time>
      </trkpt>
      <trkpt lat="49.36159" lon="-0.86617">
        <ele>39.4</ele>
        <time>2020-06-16T16:36:01Z</time>
      </trkpt>
      <trkpt lat="49.36156" lon="-0.86619">
        <ele>39.7</ele>
        <time>2020-06-16T16:36:02Z</time>
      </trkpt>
      <trkpt lat="49.36153" lon="-0.86621">
        <ele>40</ele>
        <time>2020-06-16T16:36:03Z</time>
      </trkpt>
      <trkpt lat="49.36149" lon="-0.86622">
        <ele>40.4</ele>
        <time>2020-06-16T16:36:04Z</time>
      </trkpt>
      <trkpt lat="49.36146" lon="-0.86621">
        <ele>40.7</ele>
        <time>2020-06-16T16:36:05Z</time>
      </trkpt>
      <trkpt lat="49.36143" lon="-0.86622">
        <ele>40.9</ele>
        <time>2020-06-16T16:36:06Z</time>
      </trkpt>
      <trkpt lat="49.36139" lon="-0.86622">
        <ele>41.3</ele>
        <time>2020-06-16T16:36:07Z</time>
      </trkpt>
      <trkpt lat="49.36135" lon="-0.86623">
        <ele>41.7</ele>
        <time>2020-06-16T16:36:08Z</time>
      </trkpt>
      <trkpt lat="49.36131" lon="-0.86623">
        <ele>42.1</ele>
        <time>2020-06-16T16:36:09Z</time>
      </trkpt>
      <trkpt lat="49.36127" lon="-0.86626">
        <ele>42.5</ele>
        <time>2020-06-16T16:36:10Z</time>
      </trkpt>
      <trkpt lat="49.36123" lon="-0.86628">
        <ele>42.9</ele>
        <time>2020-06-16T16:36:11Z</time>
      </trkpt>
      <trkpt lat="49.3612" lon="-0.86631">
        <ele>43.3</ele>
        <time>2020-06-16T16:36:12Z</time>
      </trkpt>
      <trkpt lat="49.36117" lon="-0.86633">
        <ele>43.6</ele>
        <time>2020-06-16T16:36:13Z</time>
      </trkpt>
      <trkpt lat="49.36114" lon="-0.86637">
        <ele>44</ele>
        <time>2020-06-16T16:36:14Z</time>
      </trkpt>
      <trkpt lat="49.36112" lon="-0.8664">
        <ele>44.3</ele>
        <time>2020-06-16T16:36:15Z</time>
      </trkpt>
      <trkpt lat="49.3611" lon="-0.86645">
        <ele>45.1</ele>
        <time>2020-06-16T16:36:16Z</time>
      </trkpt>
      <trkpt lat="49.36109" lon="-0.8665">
        <ele>45.2</ele>
        <time>2020-06-16T16:36:17Z</time>
      </trkpt>
      <trkpt lat="49.36109" lon="-0.86652">
        <ele>45.2</ele>
        <time>2020-06-16T16:36:18Z</time>
      </trkpt>
      <trkpt lat="49.3611" lon="-0.86657">
        <ele>45.4</ele>
        <time>2020-06-16T16:36:19Z</time>
      </trkpt>
      <trkpt lat="49.36111" lon="-0.86662">
        <ele>45.6</ele>
        <time>2020-06-16T16:36:20Z</time>
      </trkpt>
      <trkpt lat="49.36112" lon="-0.86667">
        <ele>45.8</ele>
        <time>2020-06-16T16:36:21Z</time>
      </trkpt>
      <trkpt lat="49.36114" lon="-0.86673">
        <ele>46</ele>
        <time>2020-06-16T16:36:22Z</time>
      </trkpt>
      <trkpt lat="49.36115" lon="-0.8668">
        <ele>46.3</ele>
        <time>2020-06-16T16:36:23Z</time>
      </trkpt>
      <trkpt lat="49.36116" lon="-0.86685">
        <ele>46.5</ele>
        <time>2020-06-16T16:36:24Z</time>
      </trkpt>
      <trkpt lat="49.36117" lon="-0.8669">
        <ele>46.7</ele>
        <time>2020-06-16T16:36:25Z</time>
      </trkpt>
      <trkpt lat="49.36118" lon="-0.86695">
        <ele>46.9</ele>
        <time>2020-06-16T16:36:26Z</time>
      </trkpt>
      <trkpt lat="49.36119" lon="-0.86701">
        <ele>47.1</ele>
        <time>2020-06-16T16:36:27Z</time>
      </trkpt>
      <trkpt lat="49.3612" lon="-0.86706">
        <ele>47.3</ele>
        <time>2020-06-16T16:36:28Z</time>
      </trkpt>
      <trkpt lat="49.36121" lon="-0.8671">
        <ele>47.5</ele>
        <time>2020-06-16T16:36:29Z</time>
      </trkpt>
      <trkpt lat="49.36123" lon="-0.86716">
        <ele>47.7</ele>
        <time>2020-06-16T16:36:30Z</time>
      </trkpt>
      <trkpt lat="49.36123" lon="-0.86718">
        <ele>47.8</ele>
        <time>2020-06-16T16:36:31Z</time>
      </trkpt>
      <trkpt lat="49.36124" lon="-0.86722">
        <ele>48</ele>
        <time>2020-06-16T16:36:32Z</time>
      </trkpt>
      <trkpt lat="49.36125" lon="-0.86727">
        <ele>48.2</ele>
        <time>2020-06-16T16:36:33Z</time>
      </trkpt>
      <trkpt lat="49.36126" lon="-0.86731">
        <ele>48.3</ele>
        <time>2020-06-16T16:36:34Z</time>
      </trkpt>
      <trkpt lat="49.36127" lon="-0.86736">
        <ele>48.5</ele>
        <time>2020-06-16T16:36:35Z</time>
      </trkpt>
      <trkpt lat="49.36128" lon="-0.8674">
        <ele>48.6</ele>
        <time>2020-06-16T16:36:36Z</time>
      </trkpt>
      <trkpt lat="49.36129" lon="-0.86745">
        <ele>48.7</ele>
        <time>2020-06-16T16:36:37Z</time>
      </trkpt>
      <trkpt lat="49.3613" lon="-0.86749">
        <ele>48.8</ele>
        <time>2020-06-16T16:36:38Z</time>
      </trkpt>
      <trkpt lat="49.3613" lon="-0.86754">
        <ele>48.9</ele>
        <time>2020-06-16T16:36:39Z</time>
      </trkpt>
      <trkpt lat="49.36131" lon="-0.86758">
        <ele>48.9</ele>
        <time>2020-06-16T16:36:40Z</time>
      </trkpt>
      <trkpt lat="49.36132" lon="-0.86763">
        <ele>49</ele>
        <time>2020-06-16T16:36:41Z</time>
      </trkpt>
      <trkpt lat="49.36132" lon="-0.86767">
        <ele>49</ele>
        <time>2020-06-16T16:36:42Z</time>
      </trkpt>
      <trkpt lat="49.36133" lon="-0.86773">
        <ele>49.1</ele>
        <time>2020-06-16T16:36:43Z</time>
      </trkpt>
      <trkpt lat="49.36132" lon="-0.86778">
        <ele>49.1</ele>
        <time>2020-06-16T16:36:44Z</time>
      </trkpt>
      <trkpt lat="49.36132" lon="-0.86783">
        <ele>49.1</ele>
        <time>2020-06-16T16:36:45Z</time>
      </trkpt>
      <trkpt lat="49.36131" lon="-0.86789">
        <ele>49.1</ele>
        <time>2020-06-16T16:36:46Z</time>
      </trkpt>
      <trkpt lat="49.36131" lon="-0.86795">
        <ele>49</ele>
        <time>2020-06-16T16:36:47Z</time>
      </trkpt>
      <trkpt lat="49.36131" lon="-0.86801">
        <ele>49</ele>
        <time>2020-06-16T16:36:48Z</time>
      </trkpt>
      <trkpt lat="49.3613" lon="-0.86806">
        <ele>49</ele>
        <time>2020-06-16T16:36:49Z</time>
      </trkpt>
      <trkpt lat="49.36129" lon="-0.86812">
        <ele>48.9</ele>
        <time>2020-06-16T16:36:50Z</time>
      </trkpt>
      <trkpt lat="49.36128" lon="-0.86817">
        <ele>48.9</ele>
        <time>2020-06-16T16:36:51Z</time>
      </trkpt>
      <trkpt lat="49.36127" lon="-0.86823">
        <ele>48.9</ele>
        <time>2020-06-16T16:36:52Z</time>
      </trkpt>
      <trkpt lat="49.36127" lon="-0.86828">
        <ele>48.8</ele>
        <time>2020-06-16T16:36:53Z</time>
      </trkpt>
      <trkpt lat="49.36126" lon="-0.86834">
        <ele>48.8</ele>
        <time>2020-06-16T16:36:54Z</time>
      </trkpt>
      <trkpt lat="49.36125" lon="-0.86839">
        <ele>48.8</ele>
        <time>2020-06-16T16:36:55Z</time>
      </trkpt>
      <trkpt lat="49.36124" lon="-0.86845">
        <ele>48.7</ele>
        <time>2020-06-16T16:36:56Z</time>
      </trkpt>
      <trkpt lat="49.36123" lon="-0.86851">
        <ele>48.7</ele>
        <time>2020-06-16T16:36:57Z</time>
      </trkpt>
      <trkpt lat="49.36122" lon="-0.86856">
        <ele>48.6</ele>
        <time>2020-06-16T16:36:58Z</time>
      </trkpt>
      <trkpt lat="49.36121" lon="-0.86861">
        <ele>48.6</ele>
        <time>2020-06-16T16:36:59Z</time>
      </trkpt>
      <trkpt lat="49.3612" lon="-0.86866">
        <ele>48.5</ele>
        <time>2020-06-16T16:37:00Z</time>
      </trkpt>
      <trkpt lat="49.36118" lon="-0.86872">
        <ele>48.5</ele>
        <time>2020-06-16T16:37:01Z</time>
      </trkpt>
      <trkpt lat="49.36116" lon="-0.86878">
        <ele>48.5</ele>
        <time>2020-06-16T16:37:02Z</time>
      </trkpt>
      <trkpt lat="49.36115" lon="-0.86883">
        <ele>48.4</ele>
        <time>2020-06-16T16:37:03Z</time>
      </trkpt>
      <trkpt lat="49.36113" lon="-0.86888">
        <ele>48.4</ele>
        <time>2020-06-16T16:37:04Z</time>
      </trkpt>
      <trkpt lat="49.3611" lon="-0.86893">
        <ele>48.3</ele>
        <time>2020-06-16T16:37:05Z</time>
      </trkpt>
      <trkpt lat="49.36107" lon="-0.86899">
        <ele>48.3</ele>
        <time>2020-06-16T16:37:06Z</time>
      </trkpt>
      <trkpt lat="49.36104" lon="-0.86904">
        <ele>48.2</ele>
        <time>2020-06-16T16:37:07Z</time>
      </trkpt>
      <trkpt lat="49.36101" lon="-0.86909">
        <ele>48.1</ele>
        <time>2020-06-16T16:37:08Z</time>
      </trkpt>
      <trkpt lat="49.36098" lon="-0.86915">
        <ele>48.1</ele>
        <time>2020-06-16T16:37:09Z</time>
      </trkpt>
      <trkpt lat="49.36095" lon="-0.86922">
        <ele>48</ele>
        <time>2020-06-16T16:37:10Z</time>
      </trkpt>
      <trkpt lat="49.36092" lon="-0.86928">
        <ele>47.9</ele>
        <time>2020-06-16T16:37:11Z</time>
      </trkpt>
      <trkpt lat="49.36089" lon="-0.86934">
        <ele>47.7</ele>
        <time>2020-06-16T16:37:12Z</time>
      </trkpt>
      <trkpt lat="49.36086" lon="-0.8694">
        <ele>47.6</ele>
        <time>2020-06-16T16:37:13Z</time>
      </trkpt>
      <trkpt lat="49.36083" lon="-0.86945">
        <ele>47.5</ele>
        <time>2020-06-16T16:37:14Z</time>
      </trkpt>
      <trkpt lat="49.3608" lon="-0.8695">
        <ele>47.5</ele>
        <time>2020-06-16T16:37:15Z</time>
      </trkpt>
      <trkpt lat="49.36076" lon="-0.86957">
        <ele>47.3</ele>
        <time>2020-06-16T16:37:16Z</time>
      </trkpt>
      <trkpt lat="49.36073" lon="-0.86963">
        <ele>47.2</ele>
        <time>2020-06-16T16:37:17Z</time>
      </trkpt>
      <trkpt lat="49.3607" lon="-0.8697">
        <ele>47.1</ele>
        <time>2020-06-16T16:37:18Z</time>
      </trkpt>
      <trkpt lat="49.36067" lon="-0.86978">
        <ele>47</ele>
        <time>2020-06-16T16:37:19Z</time>
      </trkpt>
      <trkpt lat="49.36064" lon="-0.86985">
        <ele>46.9</ele>
        <time>2020-06-16T16:37:20Z</time>
      </trkpt>
      <trkpt lat="49.36061" lon="-0.86991">
        <ele>46.7</ele>
        <time>2020-06-16T16:37:21Z</time>
      </trkpt>
      <trkpt lat="49.36058" lon="-0.86998">
        <ele>46.6</ele>
        <time>2020-06-16T16:37:22Z</time>
      </trkpt>
      <trkpt lat="49.36054" lon="-0.87006">
        <ele>46.5</ele>
        <time>2020-06-16T16:37:23Z</time>
      </trkpt>
      <trkpt lat="49.36052" lon="-0.87015">
        <ele>46.4</ele>
        <time>2020-06-16T16:37:24Z</time>
      </trkpt>
      <trkpt lat="49.3605" lon="-0.87024">
        <ele>46.2</ele>
        <time>2020-06-16T16:37:25Z</time>
      </trkpt>
      <trkpt lat="49.36048" lon="-0.87033">
        <ele>46.2</ele>
        <time>2020-06-16T16:37:26Z</time>
      </trkpt>
      <trkpt lat="49.36047" lon="-0.87042">
        <ele>46.1</ele>
        <time>2020-06-16T16:37:27Z</time>
      </trkpt>
      <trkpt lat="49.36045" lon="-0.87051">
        <ele>46.1</ele>
        <time>2020-06-16T16:37:28Z</time>
      </trkpt>
      <trkpt lat="49.36043" lon="-0.87058">
        <ele>46</ele>
        <time>2020-06-16T16:37:29Z</time>
      </trkpt>
      <trkpt lat="49.3604" lon="-0.87065">
        <ele>45.9</ele>
        <time>2020-06-16T16:37:30Z</time>
      </trkpt>
      <trkpt lat="49.36037" lon="-0.87071">
        <ele>45.9</ele>
        <time>2020-06-16T16:37:31Z</time>
      </trkpt>
      <trkpt lat="49.36033" lon="-0.87076">
        <ele>45.8</ele>
        <time>2020-06-16T16:37:32Z</time>
      </trkpt>
      <trkpt lat="49.36028" lon="-0.8708">
        <ele>45.8</ele>
        <time>2020-06-16T16:37:33Z</time>
      </trkpt>
      <trkpt lat="49.36023" lon="-0.87083">
        <ele>45.7</ele>
        <time>2020-06-16T16:37:34Z</time>
      </trkpt>
      <trkpt lat="49.36018" lon="-0.87085">
        <ele>45.8</ele>
        <time>2020-06-16T16:37:35Z</time>
      </trkpt>
      <trkpt lat="49.36013" lon="-0.87087">
        <ele>45.8</ele>
        <time>2020-06-16T16:37:36Z</time>
      </trkpt>
      <trkpt lat="49.36008" lon="-0.87089">
        <ele>45.8</ele>
        <time>2020-06-16T16:37:37Z</time>
      </trkpt>
      <trkpt lat="49.36003" lon="-0.87091">
        <ele>45.8</ele>
        <time>2020-06-16T16:37:38Z</time>
      </trkpt>
      <trkpt lat="49.35998" lon="-0.87096">
        <ele>45.9</ele>
        <time>2020-06-16T16:37:39Z</time>
      </trkpt>
      <trkpt lat="49.35994" lon="-0.87101">
        <ele>45.9</ele>
        <time>2020-06-16T16:37:40Z</time>
      </trkpt>
      <trkpt lat="49.3599" lon="-0.87106">
        <ele>46</ele>
        <time>2020-06-16T16:37:41Z</time>
      </trkpt>
      <trkpt lat="49.35987" lon="-0.87112">
        <ele>46</ele>
        <time>2020-06-16T16:37:42Z</time>
      </trkpt>
      <trkpt lat="49.35983" lon="-0.8712">
        <ele>46.1</ele>
        <time>2020-06-16T16:37:43Z</time>
      </trkpt>
      <trkpt lat="49.3598" lon="-0.87127">
        <ele>46.1</ele>
        <time>2020-06-16T16:37:44Z</time>
      </trkpt>
      <trkpt lat="49.35977" lon="-0.87135">
        <ele>46.1</ele>
        <time>2020-06-16T16:37:45Z</time>
      </trkpt>
      <trkpt lat="49.35974" lon="-0.87142">
        <ele>46.2</ele>
        <time>2020-06-16T16:37:46Z</time>
      </trkpt>
      <trkpt lat="49.35971" lon="-0.87149">
        <ele>46.2</ele>
        <time>2020-06-16T16:37:47Z</time>
      </trkpt>
      <trkpt lat="49.35968" lon="-0.87157">
        <ele>46.2</ele>
        <time>2020-06-16T16:37:48Z</time>
      </trkpt>
      <trkpt lat="49.35965" lon="-0.87164">
        <ele>46.2</ele>
        <time>2020-06-16T16:37:49Z</time>
      </trkpt>
      <trkpt lat="49.35962" lon="-0.87171">
        <ele>46.3</ele>
        <time>2020-06-16T16:37:50Z</time>
      </trkpt>
      <trkpt lat="49.35959" lon="-0.87178">
        <ele>46.3</ele>
        <time>2020-06-16T16:37:51Z</time>
      </trkpt>
      <trkpt lat="49.35957" lon="-0.87183">
        <ele>46.3</ele>
        <time>2020-06-16T16:37:52Z</time>
      </trkpt>
      <trkpt lat="49.35954" lon="-0.87191">
        <ele>46.3</ele>
        <time>2020-06-16T16:37:53Z</time>
      </trkpt>
      <trkpt lat="49.35951" lon="-0.87197">
        <ele>46.4</ele>
        <time>2020-06-16T16:37:54Z</time>
      </trkpt>
      <trkpt lat="49.35948" lon="-0.87204">
        <ele>46.4</ele>
        <time>2020-06-16T16:37:55Z</time>
      </trkpt>
      <trkpt lat="49.35946" lon="-0.87211">
        <ele>46.4</ele>
        <time>2020-06-16T16:37:56Z</time>
      </trkpt>
      <trkpt lat="49.35943" lon="-0.87218">
        <ele>46.5</ele>
        <time>2020-06-16T16:37:57Z</time>
      </trkpt>
      <trkpt lat="49.35941" lon="-0.87225">
        <ele>46.6</ele>
        <time>2020-06-16T16:37:58Z</time>
      </trkpt>
      <trkpt lat="49.35939" lon="-0.87231">
        <ele>46.6</ele>
        <time>2020-06-16T16:37:59Z</time>
      </trkpt>
      <trkpt lat="49.35936" lon="-0.87237">
        <ele>46.7</ele>
        <time>2020-06-16T16:38:00Z</time>
      </trkpt>
      <trkpt lat="49.35933" lon="-0.87244">
        <ele>46.7</ele>
        <time>2020-06-16T16:38:01Z</time>
      </trkpt>
      <trkpt lat="49.3593" lon="-0.87253">
        <ele>46.8</ele>
        <time>2020-06-16T16:38:02Z</time>
      </trkpt>
      <trkpt lat="49.35927" lon="-0.87262">
        <ele>46.8</ele>
        <time>2020-06-16T16:38:03Z</time>
      </trkpt>
      <trkpt lat="49.35925" lon="-0.87269">
        <ele>46.9</ele>
        <time>2020-06-16T16:38:04Z</time>
      </trkpt>
      <trkpt lat="49.35923" lon="-0.87275">
        <ele>46.9</ele>
        <time>2020-06-16T16:38:05Z</time>
      </trkpt>
      <trkpt lat="49.35921" lon="-0.87281">
        <ele>47</ele>
        <time>2020-06-16T16:38:06Z</time>
      </trkpt>
      <trkpt lat="49.35919" lon="-0.87287">
        <ele>47</ele>
        <time>2020-06-16T16:38:07Z</time>
      </trkpt>
      <trkpt lat="49.35918" lon="-0.87292">
        <ele>47.1</ele>
        <time>2020-06-16T16:38:08Z</time>
      </trkpt>
      <trkpt lat="49.35916" lon="-0.87298">
        <ele>47.2</ele>
        <time>2020-06-16T16:38:09Z</time>
      </trkpt>
      <trkpt lat="49.35913" lon="-0.87303">
        <ele>47.2</ele>
        <time>2020-06-16T16:38:10Z</time>
      </trkpt>
      <trkpt lat="49.35911" lon="-0.87308">
        <ele>47.3</ele>
        <time>2020-06-16T16:38:11Z</time>
      </trkpt>
      <trkpt lat="49.35909" lon="-0.87314">
        <ele>47.4</ele>
        <time>2020-06-16T16:38:12Z</time>
      </trkpt>
      <trkpt lat="49.35908" lon="-0.8732">
        <ele>47.6</ele>
        <time>2020-06-16T16:38:13Z</time>
      </trkpt>
      <trkpt lat="49.35906" lon="-0.87326">
        <ele>47.6</ele>
        <time>2020-06-16T16:38:14Z</time>
      </trkpt>
      <trkpt lat="49.35905" lon="-0.87333">
        <ele>47.6</ele>
        <time>2020-06-16T16:38:15Z</time>
      </trkpt>
      <trkpt lat="49.35904" lon="-0.87338">
        <ele>47.6</ele>
        <time>2020-06-16T16:38:16Z</time>
      </trkpt>
      <trkpt lat="49.35903" lon="-0.87344">
        <ele>47.6</ele>
        <time>2020-06-16T16:38:17Z</time>
      </trkpt>
      <trkpt lat="49.35902" lon="-0.8735">
        <ele>47.6</ele>
        <time>2020-06-16T16:38:18Z</time>
      </trkpt>
      <trkpt lat="49.35902" lon="-0.87357">
        <ele>47.6</ele>
        <time>2020-06-16T16:38:19Z</time>
      </trkpt>
      <trkpt lat="49.35901" lon="-0.87363">
        <ele>47.5</ele>
        <time>2020-06-16T16:38:20Z</time>
      </trkpt>
      <trkpt lat="49.35901" lon="-0.87369">
        <ele>47.5</ele>
        <time>2020-06-16T16:38:21Z</time>
      </trkpt>
      <trkpt lat="49.359" lon="-0.87375">
        <ele>47.5</ele>
        <time>2020-06-16T16:38:22Z</time>
      </trkpt>
      <trkpt lat="49.35899" lon="-0.87381">
        <ele>47.5</ele>
        <time>2020-06-16T16:38:23Z</time>
      </trkpt>
      <trkpt lat="49.35898" lon="-0.87387">
        <ele>47.4</ele>
        <time>2020-06-16T16:38:24Z</time>
      </trkpt>
      <trkpt lat="49.35897" lon="-0.87396">
        <ele>47.4</ele>
        <time>2020-06-16T16:38:25Z</time>
      </trkpt>
      <trkpt lat="49.35897" lon="-0.87405">
        <ele>47.3</ele>
        <time>2020-06-16T16:38:26Z</time>
      </trkpt>
      <trkpt lat="49.35897" lon="-0.87412">
        <ele>47.2</ele>
        <time>2020-06-16T16:38:27Z</time>
      </trkpt>
      <trkpt lat="49.35898" lon="-0.87418">
        <ele>47.2</ele>
        <time>2020-06-16T16:38:28Z</time>
      </trkpt>
      <trkpt lat="49.35898" lon="-0.87424">
        <ele>47.2</ele>
        <time>2020-06-16T16:38:29Z</time>
      </trkpt>
      <trkpt lat="49.35898" lon="-0.87431">
        <ele>47.1</ele>
        <time>2020-06-16T16:38:30Z</time>
      </trkpt>
      <trkpt lat="49.35898" lon="-0.87439">
        <ele>47.1</ele>
        <time>2020-06-16T16:38:31Z</time>
      </trkpt>
      <trkpt lat="49.35898" lon="-0.87446">
        <ele>47</ele>
        <time>2020-06-16T16:38:32Z</time>
      </trkpt>
      <trkpt lat="49.35898" lon="-0.87453">
        <ele>47</ele>
        <time>2020-06-16T16:38:33Z</time>
      </trkpt>
      <trkpt lat="49.35899" lon="-0.8746">
        <ele>47</ele>
        <time>2020-06-16T16:38:34Z</time>
      </trkpt>
      <trkpt lat="49.359" lon="-0.87468">
        <ele>46.9</ele>
        <time>2020-06-16T16:38:35Z</time>
      </trkpt>
      <trkpt lat="49.359" lon="-0.87475">
        <ele>46.9</ele>
        <time>2020-06-16T16:38:36Z</time>
      </trkpt>
      <trkpt lat="49.35901" lon="-0.87483">
        <ele>46.8</ele>
        <time>2020-06-16T16:38:37Z</time>
      </trkpt>
      <trkpt lat="49.35902" lon="-0.8749">
        <ele>46.8</ele>
        <time>2020-06-16T16:38:38Z</time>
      </trkpt>
      <trkpt lat="49.35903" lon="-0.87497">
        <ele>46.7</ele>
        <time>2020-06-16T16:38:39Z</time>
      </trkpt>
      <trkpt lat="49.35902" lon="-0.87503">
        <ele>46.7</ele>
        <time>2020-06-16T16:38:40Z</time>
      </trkpt>
      <trkpt lat="49.35901" lon="-0.87508">
        <ele>46.7</ele>
        <time>2020-06-16T16:38:41Z</time>
      </trkpt>
      <trkpt lat="49.359" lon="-0.87514">
        <ele>46.6</ele>
        <time>2020-06-16T16:38:42Z</time>
      </trkpt>
      <trkpt lat="49.35899" lon="-0.8752">
        <ele>46.6</ele>
        <time>2020-06-16T16:38:43Z</time>
      </trkpt>
      <trkpt lat="49.35899" lon="-0.87529">
        <ele>46.5</ele>
        <time>2020-06-16T16:38:44Z</time>
      </trkpt>
      <trkpt lat="49.35898" lon="-0.87537">
        <ele>46.5</ele>
        <time>2020-06-16T16:38:45Z</time>
      </trkpt>
      <trkpt lat="49.35896" lon="-0.87546">
        <ele>46.4</ele>
        <time>2020-06-16T16:38:46Z</time>
      </trkpt>
      <trkpt lat="49.35893" lon="-0.87555">
        <ele>46.4</ele>
        <time>2020-06-16T16:38:47Z</time>
      </trkpt>
      <trkpt lat="49.35891" lon="-0.87563">
        <ele>46.3</ele>
        <time>2020-06-16T16:38:48Z</time>
      </trkpt>
      <trkpt lat="49.35889" lon="-0.87572">
        <ele>46.3</ele>
        <time>2020-06-16T16:38:49Z</time>
      </trkpt>
      <trkpt lat="49.35887" lon="-0.8758">
        <ele>46.3</ele>
        <time>2020-06-16T16:38:50Z</time>
      </trkpt>
      <trkpt lat="49.35886" lon="-0.87587">
        <ele>46.3</ele>
        <time>2020-06-16T16:38:51Z</time>
      </trkpt>
      <trkpt lat="49.35886" lon="-0.87593">
        <ele>46.3</ele>
        <time>2020-06-16T16:38:52Z</time>
      </trkpt>
      <trkpt lat="49.35885" lon="-0.87602">
        <ele>46.3</ele>
        <time>2020-06-16T16:38:53Z</time>
      </trkpt>
      <trkpt lat="49.35884" lon="-0.87609">
        <ele>46.3</ele>
        <time>2020-06-16T16:38:54Z</time>
      </trkpt>
      <trkpt lat="49.35883" lon="-0.87616">
        <ele>46.4</ele>
        <time>2020-06-16T16:38:55Z</time>
      </trkpt>
      <trkpt lat="49.35881" lon="-0.87623">
        <ele>46.4</ele>
        <time>2020-06-16T16:38:56Z</time>
      </trkpt>
      <trkpt lat="49.35878" lon="-0.87627">
        <ele>46.5</ele>
        <time>2020-06-16T16:38:57Z</time>
      </trkpt>
      <trkpt lat="49.35874" lon="-0.87628">
        <ele>46.9</ele>
        <time>2020-06-16T16:38:58Z</time>
      </trkpt>
      <trkpt lat="49.3587" lon="-0.87628">
        <ele>46.9</ele>
        <time>2020-06-16T16:38:59Z</time>
      </trkpt>
      <trkpt lat="49.35867" lon="-0.87627">
        <ele>47</ele>
        <time>2020-06-16T16:39:00Z</time>
      </trkpt>
      <trkpt lat="49.35864" lon="-0.87625">
        <ele>47</ele>
        <time>2020-06-16T16:39:01Z</time>
      </trkpt>
      <trkpt lat="49.35861" lon="-0.87623">
        <ele>47</ele>
        <time>2020-06-16T16:39:02Z</time>
      </trkpt>
      <trkpt lat="49.35857" lon="-0.87623">
        <ele>47.1</ele>
        <time>2020-06-16T16:39:03Z</time>
      </trkpt>
      <trkpt lat="49.35853" lon="-0.87621">
        <ele>47.1</ele>
        <time>2020-06-16T16:39:04Z</time>
      </trkpt>
      <trkpt lat="49.3585" lon="-0.8762">
        <ele>47.1</ele>
        <time>2020-06-16T16:39:05Z</time>
      </trkpt>
      <trkpt lat="49.35847" lon="-0.87618">
        <ele>47.2</ele>
        <time>2020-06-16T16:39:06Z</time>
      </trkpt>
      <trkpt lat="49.35843" lon="-0.87619">
        <ele>47.3</ele>
        <time>2020-06-16T16:39:07Z</time>
      </trkpt>
      <trkpt lat="49.3584" lon="-0.87618">
        <ele>47.4</ele>
        <time>2020-06-16T16:39:08Z</time>
      </trkpt>
      <trkpt lat="49.35837" lon="-0.87616">
        <ele>47.5</ele>
        <time>2020-06-16T16:39:09Z</time>
      </trkpt>
      <trkpt lat="49.35833" lon="-0.87614">
        <ele>47.6</ele>
        <time>2020-06-16T16:39:10Z</time>
      </trkpt>
      <trkpt lat="49.35829" lon="-0.87613">
        <ele>47.8</ele>
        <time>2020-06-16T16:39:11Z</time>
      </trkpt>
      <trkpt lat="49.35826" lon="-0.87611">
        <ele>47.9</ele>
        <time>2020-06-16T16:39:12Z</time>
      </trkpt>
      <trkpt lat="49.35822" lon="-0.8761">
        <ele>48</ele>
        <time>2020-06-16T16:39:13Z</time>
      </trkpt>
      <trkpt lat="49.35818" lon="-0.87608">
        <ele>48.2</ele>
        <time>2020-06-16T16:39:14Z</time>
      </trkpt>
      <trkpt lat="49.35814" lon="-0.87607">
        <ele>48.3</ele>
        <time>2020-06-16T16:39:15Z</time>
      </trkpt>
      <trkpt lat="49.35811" lon="-0.87606">
        <ele>48.4</ele>
        <time>2020-06-16T16:39:16Z</time>
      </trkpt>
      <trkpt lat="49.35806" lon="-0.87604">
        <ele>48.5</ele>
        <time>2020-06-16T16:39:17Z</time>
      </trkpt>
      <trkpt lat="49.35802" lon="-0.87601">
        <ele>48.7</ele>
        <time>2020-06-16T16:39:18Z</time>
      </trkpt>
      <trkpt lat="49.35798" lon="-0.87598">
        <ele>48.9</ele>
        <time>2020-06-16T16:39:19Z</time>
      </trkpt>
      <trkpt lat="49.35793" lon="-0.87596">
        <ele>49</ele>
        <time>2020-06-16T16:39:20Z</time>
      </trkpt>
      <trkpt lat="49.35788" lon="-0.87594">
        <ele>49.2</ele>
        <time>2020-06-16T16:39:21Z</time>
      </trkpt>
      <trkpt lat="49.35783" lon="-0.87591">
        <ele>49.3</ele>
        <time>2020-06-16T16:39:22Z</time>
      </trkpt>
      <trkpt lat="49.35778" lon="-0.8759">
        <ele>49.5</ele>
        <time>2020-06-16T16:39:23Z</time>
      </trkpt>
      <trkpt lat="49.35774" lon="-0.87588">
        <ele>49.6</ele>
        <time>2020-06-16T16:39:24Z</time>
      </trkpt>
      <trkpt lat="49.3577" lon="-0.87585">
        <ele>49.8</ele>
        <time>2020-06-16T16:39:25Z</time>
      </trkpt>
      <trkpt lat="49.35766" lon="-0.87579">
        <ele>49.9</ele>
        <time>2020-06-16T16:39:26Z</time>
      </trkpt>
      <trkpt lat="49.35763" lon="-0.87577">
        <ele>50.1</ele>
        <time>2020-06-16T16:39:27Z</time>
      </trkpt>
      <trkpt lat="49.3576" lon="-0.87574">
        <ele>50.2</ele>
        <time>2020-06-16T16:39:28Z</time>
      </trkpt>
      <trkpt lat="49.35757" lon="-0.87573">
        <ele>50.3</ele>
        <time>2020-06-16T16:39:29Z</time>
      </trkpt>
      <trkpt lat="49.35754" lon="-0.8757">
        <ele>50.4</ele>
        <time>2020-06-16T16:39:30Z</time>
      </trkpt>
      <trkpt lat="49.35751" lon="-0.87567">
        <ele>50.5</ele>
        <time>2020-06-16T16:39:31Z</time>
      </trkpt>
      <trkpt lat="49.35747" lon="-0.87563">
        <ele>50.7</ele>
        <time>2020-06-16T16:39:32Z</time>
      </trkpt>
      <trkpt lat="49.35744" lon="-0.87561">
        <ele>50.8</ele>
        <time>2020-06-16T16:39:33Z</time>
      </trkpt>
      <trkpt lat="49.35741" lon="-0.87559">
        <ele>50.9</ele>
        <time>2020-06-16T16:39:34Z</time>
      </trkpt>
      <trkpt lat="49.35737" lon="-0.87556">
        <ele>51</ele>
        <time>2020-06-16T16:39:35Z</time>
      </trkpt>
      <trkpt lat="49.35734" lon="-0.87551">
        <ele>51.2</ele>
        <time>2020-06-16T16:39:36Z</time>
      </trkpt>
      <trkpt lat="49.3573" lon="-0.87546">
        <ele>51.4</ele>
        <time>2020-06-16T16:39:37Z</time>
      </trkpt>
      <trkpt lat="49.35726" lon="-0.87542">
        <ele>51.5</ele>
        <time>2020-06-16T16:39:38Z</time>
      </trkpt>
      <trkpt lat="49.35724" lon="-0.87539">
        <ele>51.6</ele>
        <time>2020-06-16T16:39:39Z</time>
      </trkpt>
      <trkpt lat="49.35721" lon="-0.87536">
        <ele>51.8</ele>
        <time>2020-06-16T16:39:40Z</time>
      </trkpt>
      <trkpt lat="49.35719" lon="-0.87533">
        <ele>51.9</ele>
        <time>2020-06-16T16:39:41Z</time>
      </trkpt>
      <trkpt lat="49.35716" lon="-0.87528">
        <ele>52</ele>
        <time>2020-06-16T16:39:42Z</time>
      </trkpt>
      <trkpt lat="49.35712" lon="-0.87524">
        <ele>52.2</ele>
        <time>2020-06-16T16:39:43Z</time>
      </trkpt>
      <trkpt lat="49.35709" lon="-0.87519">
        <ele>52.3</ele>
        <time>2020-06-16T16:39:44Z</time>
      </trkpt>
      <trkpt lat="49.35706" lon="-0.87514">
        <ele>52.5</ele>
        <time>2020-06-16T16:39:45Z</time>
      </trkpt>
      <trkpt lat="49.35702" lon="-0.87509">
        <ele>52.7</ele>
        <time>2020-06-16T16:39:46Z</time>
      </trkpt>
      <trkpt lat="49.35698" lon="-0.87505">
        <ele>52.8</ele>
        <time>2020-06-16T16:39:47Z</time>
      </trkpt>
      <trkpt lat="49.35695" lon="-0.87501">
        <ele>53</ele>
        <time>2020-06-16T16:39:48Z</time>
      </trkpt>
      <trkpt lat="49.35692" lon="-0.87496">
        <ele>53.2</ele>
        <time>2020-06-16T16:39:49Z</time>
      </trkpt>
      <trkpt lat="49.35688" lon="-0.87492">
        <ele>53.3</ele>
        <time>2020-06-16T16:39:50Z</time>
      </trkpt>
      <trkpt lat="49.35684" lon="-0.87488">
        <ele>53.5</ele>
        <time>2020-06-16T16:39:51Z</time>
      </trkpt>
      <trkpt lat="49.3568" lon="-0.87483">
        <ele>53.6</ele>
        <time>2020-06-16T16:39:52Z</time>
      </trkpt>
      <trkpt lat="49.35677" lon="-0.87479">
        <ele>53.8</ele>
        <time>2020-06-16T16:39:53Z</time>
      </trkpt>
      <trkpt lat="49.35673" lon="-0.87475">
        <ele>53.9</ele>
        <time>2020-06-16T16:39:54Z</time>
      </trkpt>
      <trkpt lat="49.3567" lon="-0.87469">
        <ele>54</ele>
        <time>2020-06-16T16:39:55Z</time>
      </trkpt>
      <trkpt lat="49.35666" lon="-0.87465">
        <ele>54.2</ele>
        <time>2020-06-16T16:39:56Z</time>
      </trkpt>
      <trkpt lat="49.35663" lon="-0.87461">
        <ele>54.3</ele>
        <time>2020-06-16T16:39:57Z</time>
      </trkpt>
      <trkpt lat="49.3566" lon="-0.87456">
        <ele>54.4</ele>
        <time>2020-06-16T16:39:58Z</time>
      </trkpt>
      <trkpt lat="49.35657" lon="-0.8745">
        <ele>54.6</ele>
        <time>2020-06-16T16:39:59Z</time>
      </trkpt>
      <trkpt lat="49.35654" lon="-0.87445">
        <ele>54.7</ele>
        <time>2020-06-16T16:40:00Z</time>
      </trkpt>
      <trkpt lat="49.35652" lon="-0.8744">
        <ele>54.8</ele>
        <time>2020-06-16T16:40:01Z</time>
      </trkpt>
      <trkpt lat="49.35648" lon="-0.87434">
        <ele>55</ele>
        <time>2020-06-16T16:40:02Z</time>
      </trkpt>
      <trkpt lat="49.35645" lon="-0.87429">
        <ele>55.1</ele>
        <time>2020-06-16T16:40:03Z</time>
      </trkpt>
      <trkpt lat="49.35642" lon="-0.87423">
        <ele>55.2</ele>
        <time>2020-06-16T16:40:04Z</time>
      </trkpt>
      <trkpt lat="49.35639" lon="-0.87417">
        <ele>55.3</ele>
        <time>2020-06-16T16:40:05Z</time>
      </trkpt>
      <trkpt lat="49.35637" lon="-0.87412">
        <ele>55.4</ele>
        <time>2020-06-16T16:40:06Z</time>
      </trkpt>
      <trkpt lat="49.35635" lon="-0.87405">
        <ele>55.5</ele>
        <time>2020-06-16T16:40:07Z</time>
      </trkpt>
      <trkpt lat="49.35632" lon="-0.874">
        <ele>55.6</ele>
        <time>2020-06-16T16:40:08Z</time>
      </trkpt>
      <trkpt lat="49.35629" lon="-0.87392">
        <ele>55.7</ele>
        <time>2020-06-16T16:40:09Z</time>
      </trkpt>
      <trkpt lat="49.35627" lon="-0.87386">
        <ele>55.8</ele>
        <time>2020-06-16T16:40:10Z</time>
      </trkpt>
      <trkpt lat="49.35624" lon="-0.8738">
        <ele>55.9</ele>
        <time>2020-06-16T16:40:11Z</time>
      </trkpt>
      <trkpt lat="49.35621" lon="-0.87374">
        <ele>55.9</ele>
        <time>2020-06-16T16:40:12Z</time>
      </trkpt>
      <trkpt lat="49.35618" lon="-0.87368">
        <ele>55.9</ele>
        <time>2020-06-16T16:40:13Z</time>
      </trkpt>
      <trkpt lat="49.35616" lon="-0.87362">
        <ele>56</ele>
        <time>2020-06-16T16:40:14Z</time>
      </trkpt>
      <trkpt lat="49.35612" lon="-0.87356">
        <ele>56</ele>
        <time>2020-06-16T16:40:15Z</time>
      </trkpt>
      <trkpt lat="49.35609" lon="-0.8735">
        <ele>56.1</ele>
        <time>2020-06-16T16:40:16Z</time>
      </trkpt>
      <trkpt lat="49.35605" lon="-0.87343">
        <ele>56.1</ele>
        <time>2020-06-16T16:40:17Z</time>
      </trkpt>
      <trkpt lat="49.35601" lon="-0.87337">
        <ele>56.1</ele>
        <time>2020-06-16T16:40:18Z</time>
      </trkpt>
      <trkpt lat="49.35596" lon="-0.87331">
        <ele>56.1</ele>
        <time>2020-06-16T16:40:19Z</time>
      </trkpt>
      <trkpt lat="49.35592" lon="-0.87326">
        <ele>56.2</ele>
        <time>2020-06-16T16:40:20Z</time>
      </trkpt>
      <trkpt lat="49.35588" lon="-0.87319">
        <ele>56.3</ele>
        <time>2020-06-16T16:40:21Z</time>
      </trkpt>
      <trkpt lat="49.35585" lon="-0.87314">
        <ele>56.4</ele>
        <time>2020-06-16T16:40:22Z</time>
      </trkpt>
      <trkpt lat="49.35581" lon="-0.8731">
        <ele>56.4</ele>
        <time>2020-06-16T16:40:23Z</time>
      </trkpt>
      <trkpt lat="49.35578" lon="-0.87304">
        <ele>56.5</ele>
        <time>2020-06-16T16:40:24Z</time>
      </trkpt>
      <trkpt lat="49.35574" lon="-0.87298">
        <ele>56.5</ele>
        <time>2020-06-16T16:40:25Z</time>
      </trkpt>
      <trkpt lat="49.35571" lon="-0.87293">
        <ele>56.6</ele>
        <time>2020-06-16T16:40:26Z</time>
      </trkpt>
      <trkpt lat="49.35568" lon="-0.87288">
        <ele>56.6</ele>
        <time>2020-06-16T16:40:27Z</time>
      </trkpt>
      <trkpt lat="49.35564" lon="-0.87283">
        <ele>56.7</ele>
        <time>2020-06-16T16:40:28Z</time>
      </trkpt>
      <trkpt lat="49.35561" lon="-0.87277">
        <ele>56.7</ele>
        <time>2020-06-16T16:40:29Z</time>
      </trkpt>
      <trkpt lat="49.35557" lon="-0.87271">
        <ele>56.7</ele>
        <time>2020-06-16T16:40:30Z</time>
      </trkpt>
      <trkpt lat="49.35552" lon="-0.87263">
        <ele>56.7</ele>
        <time>2020-06-16T16:40:31Z</time>
      </trkpt>
      <trkpt lat="49.35547" lon="-0.87255">
        <ele>56.6</ele>
        <time>2020-06-16T16:40:32Z</time>
      </trkpt>
      <trkpt lat="49.35542" lon="-0.87249">
        <ele>56.6</ele>
        <time>2020-06-16T16:40:33Z</time>
      </trkpt>
      <trkpt lat="49.35538" lon="-0.87242">
        <ele>56.5</ele>
        <time>2020-06-16T16:40:34Z</time>
      </trkpt>
      <trkpt lat="49.35533" lon="-0.87236">
        <ele>56.5</ele>
        <time>2020-06-16T16:40:35Z</time>
      </trkpt>
      <trkpt lat="49.35527" lon="-0.8723">
        <ele>56.4</ele>
        <time>2020-06-16T16:40:36Z</time>
      </trkpt>
      <trkpt lat="49.35522" lon="-0.87224">
        <ele>56.4</ele>
        <time>2020-06-16T16:40:37Z</time>
      </trkpt>
      <trkpt lat="49.35517" lon="-0.87217">
        <ele>56.4</ele>
        <time>2020-06-16T16:40:38Z</time>
      </trkpt>
      <trkpt lat="49.35512" lon="-0.8721">
        <ele>56.3</ele>
        <time>2020-06-16T16:40:39Z</time>
      </trkpt>
      <trkpt lat="49.35508" lon="-0.87204">
        <ele>56.3</ele>
        <time>2020-06-16T16:40:40Z</time>
      </trkpt>
      <trkpt lat="49.35503" lon="-0.87197">
        <ele>56.3</ele>
        <time>2020-06-16T16:40:41Z</time>
      </trkpt>
      <trkpt lat="49.35498" lon="-0.8719">
        <ele>56.2</ele>
        <time>2020-06-16T16:40:42Z</time>
      </trkpt>
      <trkpt lat="49.35492" lon="-0.87183">
        <ele>56.2</ele>
        <time>2020-06-16T16:40:43Z</time>
      </trkpt>
      <trkpt lat="49.35487" lon="-0.87176">
        <ele>56.2</ele>
        <time>2020-06-16T16:40:44Z</time>
      </trkpt>
      <trkpt lat="49.35482" lon="-0.87171">
        <ele>56.2</ele>
        <time>2020-06-16T16:40:45Z</time>
      </trkpt>
      <trkpt lat="49.35478" lon="-0.87165">
        <ele>56.2</ele>
        <time>2020-06-16T16:40:46Z</time>
      </trkpt>
      <trkpt lat="49.35472" lon="-0.8716">
        <ele>56.2</ele>
        <time>2020-06-16T16:40:47Z</time>
      </trkpt>
      <trkpt lat="49.35467" lon="-0.87155">
        <ele>56.3</ele>
        <time>2020-06-16T16:40:48Z</time>
      </trkpt>
      <trkpt lat="49.35462" lon="-0.87151">
        <ele>56.3</ele>
        <time>2020-06-16T16:40:49Z</time>
      </trkpt>
      <trkpt lat="49.35457" lon="-0.87146">
        <ele>56.3</ele>
        <time>2020-06-16T16:40:50Z</time>
      </trkpt>
      <trkpt lat="49.35451" lon="-0.87143">
        <ele>56.4</ele>
        <time>2020-06-16T16:40:51Z</time>
      </trkpt>
      <trkpt lat="49.35445" lon="-0.87139">
        <ele>56.4</ele>
        <time>2020-06-16T16:40:52Z</time>
      </trkpt>
      <trkpt lat="49.35439" lon="-0.87136">
        <ele>56.5</ele>
        <time>2020-06-16T16:40:53Z</time>
      </trkpt>
      <trkpt lat="49.35435" lon="-0.87133">
        <ele>56.6</ele>
        <time>2020-06-16T16:40:54Z</time>
      </trkpt>
      <trkpt lat="49.3543" lon="-0.87131">
        <ele>56.7</ele>
        <time>2020-06-16T16:40:55Z</time>
      </trkpt>
      <trkpt lat="49.35424" lon="-0.87129">
        <ele>56.8</ele>
        <time>2020-06-16T16:40:56Z</time>
      </trkpt>
      <trkpt lat="49.3542" lon="-0.87128">
        <ele>56.9</ele>
        <time>2020-06-16T16:40:57Z</time>
      </trkpt>
      <trkpt lat="49.35417" lon="-0.87126">
        <ele>57</ele>
        <time>2020-06-16T16:40:58Z</time>
      </trkpt>
      <trkpt lat="49.35412" lon="-0.87125">
        <ele>57.1</ele>
        <time>2020-06-16T16:40:59Z</time>
      </trkpt>
      <trkpt lat="49.35407" lon="-0.87123">
        <ele>57.2</ele>
        <time>2020-06-16T16:41:00Z</time>
      </trkpt>
      <trkpt lat="49.35403" lon="-0.87121">
        <ele>57.3</ele>
        <time>2020-06-16T16:41:01Z</time>
      </trkpt>
      <trkpt lat="49.35399" lon="-0.87119">
        <ele>57.4</ele>
        <time>2020-06-16T16:41:02Z</time>
      </trkpt>
      <trkpt lat="49.35394" lon="-0.87117">
        <ele>57.6</ele>
        <time>2020-06-16T16:41:03Z</time>
      </trkpt>
      <trkpt lat="49.35389" lon="-0.87114">
        <ele>57.7</ele>
        <time>2020-06-16T16:41:04Z</time>
      </trkpt>
      <trkpt lat="49.35384" lon="-0.8711">
        <ele>57.8</ele>
        <time>2020-06-16T16:41:05Z</time>
      </trkpt>
      <trkpt lat="49.3538" lon="-0.87107">
        <ele>57.9</ele>
        <time>2020-06-16T16:41:06Z</time>
      </trkpt>
      <trkpt lat="49.35376" lon="-0.87104">
        <ele>58</ele>
        <time>2020-06-16T16:41:07Z</time>
      </trkpt>
      <trkpt lat="49.35372" lon="-0.87099">
        <ele>58.1</ele>
        <time>2020-06-16T16:41:08Z</time>
      </trkpt>
      <trkpt lat="49.35368" lon="-0.87094">
        <ele>58.2</ele>
        <time>2020-06-16T16:41:09Z</time>
      </trkpt>
      <trkpt lat="49.35363" lon="-0.87089">
        <ele>58.3</ele>
        <time>2020-06-16T16:41:10Z</time>
      </trkpt>
      <trkpt lat="49.35359" lon="-0.87083">
        <ele>58.4</ele>
        <time>2020-06-16T16:41:11Z</time>
      </trkpt>
      <trkpt lat="49.35356" lon="-0.87079">
        <ele>58.4</ele>
        <time>2020-06-16T16:41:12Z</time>
      </trkpt>
      <trkpt lat="49.35352" lon="-0.87073">
        <ele>58.5</ele>
        <time>2020-06-16T16:41:13Z</time>
      </trkpt>
      <trkpt lat="49.35349" lon="-0.87068">
        <ele>58.6</ele>
        <time>2020-06-16T16:41:14Z</time>
      </trkpt>
      <trkpt lat="49.35346" lon="-0.87064">
        <ele>58.6</ele>
        <time>2020-06-16T16:41:15Z</time>
      </trkpt>
      <trkpt lat="49.35343" lon="-0.87058">
        <ele>58.7</ele>
        <time>2020-06-16T16:41:16Z</time>
      </trkpt>
      <trkpt lat="49.35341" lon="-0.8705">
        <ele>58.8</ele>
        <time>2020-06-16T16:41:17Z</time>
      </trkpt>
      <trkpt lat="49.35338" lon="-0.87041">
        <ele>58.9</ele>
        <time>2020-06-16T16:41:18Z</time>
      </trkpt>
      <trkpt lat="49.35335" lon="-0.87036">
        <ele>58.9</ele>
        <time>2020-06-16T16:41:19Z</time>
      </trkpt>
      <trkpt lat="49.35332" lon="-0.87028">
        <ele>59</ele>
        <time>2020-06-16T16:41:20Z</time>
      </trkpt>
      <trkpt lat="49.3533" lon="-0.87021">
        <ele>59</ele>
        <time>2020-06-16T16:41:21Z</time>
      </trkpt>
      <trkpt lat="49.35327" lon="-0.87015">
        <ele>59</ele>
        <time>2020-06-16T16:41:22Z</time>
      </trkpt>
      <trkpt lat="49.35325" lon="-0.87008">
        <ele>59</ele>
        <time>2020-06-16T16:41:23Z</time>
      </trkpt>
      <trkpt lat="49.35322" lon="-0.87001">
        <ele>59</ele>
        <time>2020-06-16T16:41:24Z</time>
      </trkpt>
      <trkpt lat="49.3532" lon="-0.86994">
        <ele>59</ele>
        <time>2020-06-16T16:41:25Z</time>
      </trkpt>
      <trkpt lat="49.35318" lon="-0.86986">
        <ele>59</ele>
        <time>2020-06-16T16:41:26Z</time>
      </trkpt>
      <trkpt lat="49.35316" lon="-0.86979">
        <ele>59.1</ele>
        <time>2020-06-16T16:41:27Z</time>
      </trkpt>
      <trkpt lat="49.35313" lon="-0.86971">
        <ele>59.1</ele>
        <time>2020-06-16T16:41:28Z</time>
      </trkpt>
      <trkpt lat="49.3531" lon="-0.86962">
        <ele>59.2</ele>
        <time>2020-06-16T16:41:29Z</time>
      </trkpt>
      <trkpt lat="49.35308" lon="-0.86954">
        <ele>59.2</ele>
        <time>2020-06-16T16:41:30Z</time>
      </trkpt>
      <trkpt lat="49.35305" lon="-0.86945">
        <ele>59.3</ele>
        <time>2020-06-16T16:41:31Z</time>
      </trkpt>
      <trkpt lat="49.35303" lon="-0.86936">
        <ele>59.3</ele>
        <time>2020-06-16T16:41:32Z</time>
      </trkpt>
      <trkpt lat="49.353" lon="-0.86928">
        <ele>59.3</ele>
        <time>2020-06-16T16:41:33Z</time>
      </trkpt>
      <trkpt lat="49.35297" lon="-0.86919">
        <ele>59.3</ele>
        <time>2020-06-16T16:41:34Z</time>
      </trkpt>
      <trkpt lat="49.35294" lon="-0.86911">
        <ele>59.4</ele>
        <time>2020-06-16T16:41:35Z</time>
      </trkpt>
      <trkpt lat="49.35292" lon="-0.86901">
        <ele>59.4</ele>
        <time>2020-06-16T16:41:36Z</time>
      </trkpt>
      <trkpt lat="49.3529" lon="-0.86893">
        <ele>59.4</ele>
        <time>2020-06-16T16:41:37Z</time>
      </trkpt>
      <trkpt lat="49.35287" lon="-0.86885">
        <ele>59.4</ele>
        <time>2020-06-16T16:41:38Z</time>
      </trkpt>
      <trkpt lat="49.35285" lon="-0.86878">
        <ele>59.4</ele>
        <time>2020-06-16T16:41:39Z</time>
      </trkpt>
      <trkpt lat="49.35282" lon="-0.8687">
        <ele>59.4</ele>
        <time>2020-06-16T16:41:40Z</time>
      </trkpt>
      <trkpt lat="49.35279" lon="-0.86862">
        <ele>59.5</ele>
        <time>2020-06-16T16:41:41Z</time>
      </trkpt>
      <trkpt lat="49.35276" lon="-0.86854">
        <ele>59.5</ele>
        <time>2020-06-16T16:41:42Z</time>
      </trkpt>
      <trkpt lat="49.35274" lon="-0.86845">
        <ele>59.5</ele>
        <time>2020-06-16T16:41:43Z</time>
      </trkpt>
      <trkpt lat="49.35272" lon="-0.86837">
        <ele>59.5</ele>
        <time>2020-06-16T16:41:44Z</time>
      </trkpt>
      <trkpt lat="49.3527" lon="-0.8683">
        <ele>59.6</ele>
        <time>2020-06-16T16:41:45Z</time>
      </trkpt>
      <trkpt lat="49.35268" lon="-0.86823">
        <ele>59.6</ele>
        <time>2020-06-16T16:41:46Z</time>
      </trkpt>
      <trkpt lat="49.35265" lon="-0.86815">
        <ele>59.6</ele>
        <time>2020-06-16T16:41:47Z</time>
      </trkpt>
      <trkpt lat="49.35263" lon="-0.86808">
        <ele>59.6</ele>
        <time>2020-06-16T16:41:48Z</time>
      </trkpt>
      <trkpt lat="49.3526" lon="-0.86801">
        <ele>59.6</ele>
        <time>2020-06-16T16:41:49Z</time>
      </trkpt>
      <trkpt lat="49.35258" lon="-0.86793">
        <ele>59.6</ele>
        <time>2020-06-16T16:41:50Z</time>
      </trkpt>
      <trkpt lat="49.35255" lon="-0.86786">
        <ele>59.6</ele>
        <time>2020-06-16T16:41:51Z</time>
      </trkpt>
      <trkpt lat="49.35253" lon="-0.86777">
        <ele>59.6</ele>
        <time>2020-06-16T16:41:52Z</time>
      </trkpt>
      <trkpt lat="49.35251" lon="-0.86769">
        <ele>59.6</ele>
        <time>2020-06-16T16:41:53Z</time>
      </trkpt>
      <trkpt lat="49.35248" lon="-0.86761">
        <ele>59.6</ele>
        <time>2020-06-16T16:41:54Z</time>
      </trkpt>
      <trkpt lat="49.35245" lon="-0.86754">
        <ele>59.7</ele>
        <time>2020-06-16T16:41:55Z</time>
      </trkpt>
      <trkpt lat="49.35243" lon="-0.86747">
        <ele>59.7</ele>
        <time>2020-06-16T16:41:56Z</time>
      </trkpt>
      <trkpt lat="49.3524" lon="-0.86738">
        <ele>59.6</ele>
        <time>2020-06-16T16:41:57Z</time>
      </trkpt>
      <trkpt lat="49.35237" lon="-0.86731">
        <ele>59.6</ele>
        <time>2020-06-16T16:41:58Z</time>
      </trkpt>
      <trkpt lat="49.35234" lon="-0.86724">
        <ele>59.6</ele>
        <time>2020-06-16T16:41:59Z</time>
      </trkpt>
      <trkpt lat="49.35231" lon="-0.86717">
        <ele>59.6</ele>
        <time>2020-06-16T16:42:00Z</time>
      </trkpt>
      <trkpt lat="49.35228" lon="-0.86709">
        <ele>59.6</ele>
        <time>2020-06-16T16:42:01Z</time>
      </trkpt>
      <trkpt lat="49.35224" lon="-0.86702">
        <ele>59.6</ele>
        <time>2020-06-16T16:42:02Z</time>
      </trkpt>
      <trkpt lat="49.35221" lon="-0.86694">
        <ele>59.6</ele>
        <time>2020-06-16T16:42:03Z</time>
      </trkpt>
      <trkpt lat="49.35218" lon="-0.86687">
        <ele>59.6</ele>
        <time>2020-06-16T16:42:04Z</time>
      </trkpt>
      <trkpt lat="49.35214" lon="-0.86679">
        <ele>59.7</ele>
        <time>2020-06-16T16:42:05Z</time>
      </trkpt>
      <trkpt lat="49.35211" lon="-0.86671">
        <ele>59.7</ele>
        <time>2020-06-16T16:42:06Z</time>
      </trkpt>
      <trkpt lat="49.35208" lon="-0.86665">
        <ele>59.7</ele>
        <time>2020-06-16T16:42:07Z</time>
      </trkpt>
      <trkpt lat="49.35205" lon="-0.86658">
        <ele>59.7</ele>
        <time>2020-06-16T16:42:08Z</time>
      </trkpt>
      <trkpt lat="49.35203" lon="-0.8665">
        <ele>59.7</ele>
        <time>2020-06-16T16:42:09Z</time>
      </trkpt>
      <trkpt lat="49.35199" lon="-0.86644">
        <ele>59.6</ele>
        <time>2020-06-16T16:42:10Z</time>
      </trkpt>
      <trkpt lat="49.35196" lon="-0.86637">
        <ele>59.5</ele>
        <time>2020-06-16T16:42:11Z</time>
      </trkpt>
      <trkpt lat="49.35194" lon="-0.86632">
        <ele>59.6</ele>
        <time>2020-06-16T16:42:12Z</time>
      </trkpt>
      <trkpt lat="49.35191" lon="-0.86626">
        <ele>59.7</ele>
        <time>2020-06-16T16:42:13Z</time>
      </trkpt>
      <trkpt lat="49.35188" lon="-0.86619">
        <ele>59.7</ele>
        <time>2020-06-16T16:42:14Z</time>
      </trkpt>
      <trkpt lat="49.35186" lon="-0.86613">
        <ele>59.8</ele>
        <time>2020-06-16T16:42:15Z</time>
      </trkpt>
      <trkpt lat="49.35183" lon="-0.86607">
        <ele>59.9</ele>
        <time>2020-06-16T16:42:16Z</time>
      </trkpt>
      <trkpt lat="49.35179" lon="-0.866">
        <ele>59.9</ele>
        <time>2020-06-16T16:42:17Z</time>
      </trkpt>
      <trkpt lat="49.35176" lon="-0.86593">
        <ele>60</ele>
        <time>2020-06-16T16:42:18Z</time>
      </trkpt>
      <trkpt lat="49.35173" lon="-0.86586">
        <ele>60.1</ele>
        <time>2020-06-16T16:42:19Z</time>
      </trkpt>
      <trkpt lat="49.3517" lon="-0.8658">
        <ele>60.2</ele>
        <time>2020-06-16T16:42:20Z</time>
      </trkpt>
      <trkpt lat="49.35167" lon="-0.86575">
        <ele>60.3</ele>
        <time>2020-06-16T16:42:21Z</time>
      </trkpt>
      <trkpt lat="49.35164" lon="-0.86569">
        <ele>60.4</ele>
        <time>2020-06-16T16:42:22Z</time>
      </trkpt>
      <trkpt lat="49.35161" lon="-0.86562">
        <ele>60.5</ele>
        <time>2020-06-16T16:42:23Z</time>
      </trkpt>
      <trkpt lat="49.35158" lon="-0.86556">
        <ele>60.6</ele>
        <time>2020-06-16T16:42:24Z</time>
      </trkpt>
      <trkpt lat="49.35156" lon="-0.8655">
        <ele>60.8</ele>
        <time>2020-06-16T16:42:25Z</time>
      </trkpt>
      <trkpt lat="49.35153" lon="-0.86543">
        <ele>60.9</ele>
        <time>2020-06-16T16:42:26Z</time>
      </trkpt>
      <trkpt lat="49.35151" lon="-0.86537">
        <ele>61</ele>
        <time>2020-06-16T16:42:27Z</time>
      </trkpt>
      <trkpt lat="49.35148" lon="-0.86532">
        <ele>61.1</ele>
        <time>2020-06-16T16:42:28Z</time>
      </trkpt>
      <trkpt lat="49.35146" lon="-0.86526">
        <ele>61.2</ele>
        <time>2020-06-16T16:42:29Z</time>
      </trkpt>
      <trkpt lat="49.35143" lon="-0.86519">
        <ele>61.4</ele>
        <time>2020-06-16T16:42:30Z</time>
      </trkpt>
      <trkpt lat="49.35141" lon="-0.86513">
        <ele>61.5</ele>
        <time>2020-06-16T16:42:31Z</time>
      </trkpt>
      <trkpt lat="49.35138" lon="-0.86506">
        <ele>61.6</ele>
        <time>2020-06-16T16:42:32Z</time>
      </trkpt>
      <trkpt lat="49.35135" lon="-0.86499">
        <ele>61.8</ele>
        <time>2020-06-16T16:42:33Z</time>
      </trkpt>
      <trkpt lat="49.35132" lon="-0.86493">
        <ele>61.9</ele>
        <time>2020-06-16T16:42:34Z</time>
      </trkpt>
      <trkpt lat="49.35129" lon="-0.86487">
        <ele>62</ele>
        <time>2020-06-16T16:42:35Z</time>
      </trkpt>
      <trkpt lat="49.35127" lon="-0.86481">
        <ele>62.1</ele>
        <time>2020-06-16T16:42:36Z</time>
      </trkpt>
      <trkpt lat="49.35124" lon="-0.86475">
        <ele>62.2</ele>
        <time>2020-06-16T16:42:37Z</time>
      </trkpt>
      <trkpt lat="49.35122" lon="-0.86469">
        <ele>62.3</ele>
        <time>2020-06-16T16:42:38Z</time>
      </trkpt>
      <trkpt lat="49.35119" lon="-0.86463">
        <ele>62.4</ele>
        <time>2020-06-16T16:42:39Z</time>
      </trkpt>
      <trkpt lat="49.35115" lon="-0.86457">
        <ele>62.5</ele>
        <time>2020-06-16T16:42:40Z</time>
      </trkpt>
      <trkpt lat="49.35112" lon="-0.86452">
        <ele>62.6</ele>
        <time>2020-06-16T16:42:41Z</time>
      </trkpt>
      <trkpt lat="49.35109" lon="-0.86445">
        <ele>62.7</ele>
        <time>2020-06-16T16:42:42Z</time>
      </trkpt>
      <trkpt lat="49.35107" lon="-0.86439">
        <ele>62.8</ele>
        <time>2020-06-16T16:42:43Z</time>
      </trkpt>
      <trkpt lat="49.35105" lon="-0.86433">
        <ele>63</ele>
        <time>2020-06-16T16:42:44Z</time>
      </trkpt>
      <trkpt lat="49.35102" lon="-0.86427">
        <ele>63.1</ele>
        <time>2020-06-16T16:42:45Z</time>
      </trkpt>
      <trkpt lat="49.35099" lon="-0.8642">
        <ele>63.2</ele>
        <time>2020-06-16T16:42:46Z</time>
      </trkpt>
      <trkpt lat="49.35096" lon="-0.86413">
        <ele>63.3</ele>
        <time>2020-06-16T16:42:47Z</time>
      </trkpt>
      <trkpt lat="49.35093" lon="-0.86407">
        <ele>63.4</ele>
        <time>2020-06-16T16:42:48Z</time>
      </trkpt>
      <trkpt lat="49.3509" lon="-0.86401">
        <ele>63.5</ele>
        <time>2020-06-16T16:42:49Z</time>
      </trkpt>
      <trkpt lat="49.35087" lon="-0.86393">
        <ele>63.6</ele>
        <time>2020-06-16T16:42:50Z</time>
      </trkpt>
      <trkpt lat="49.35084" lon="-0.86387">
        <ele>63.7</ele>
        <time>2020-06-16T16:42:51Z</time>
      </trkpt>
      <trkpt lat="49.35081" lon="-0.86379">
        <ele>63.8</ele>
        <time>2020-06-16T16:42:52Z</time>
      </trkpt>
      <trkpt lat="49.35078" lon="-0.86372">
        <ele>63.9</ele>
        <time>2020-06-16T16:42:53Z</time>
      </trkpt>
      <trkpt lat="49.35075" lon="-0.86366">
        <ele>64</ele>
        <time>2020-06-16T16:42:54Z</time>
      </trkpt>
      <trkpt lat="49.35073" lon="-0.8636">
        <ele>64.1</ele>
        <time>2020-06-16T16:42:55Z</time>
      </trkpt>
      <trkpt lat="49.3507" lon="-0.86354">
        <ele>64.1</ele>
        <time>2020-06-16T16:42:56Z</time>
      </trkpt>
      <trkpt lat="49.35068" lon="-0.86349">
        <ele>64.2</ele>
        <time>2020-06-16T16:42:57Z</time>
      </trkpt>
      <trkpt lat="49.35065" lon="-0.86344">
        <ele>64.3</ele>
        <time>2020-06-16T16:42:58Z</time>
      </trkpt>
      <trkpt lat="49.35063" lon="-0.86338">
        <ele>64.3</ele>
        <time>2020-06-16T16:42:59Z</time>
      </trkpt>
      <trkpt lat="49.35059" lon="-0.86331">
        <ele>64.4</ele>
        <time>2020-06-16T16:43:00Z</time>
      </trkpt>
      <trkpt lat="49.35055" lon="-0.86324">
        <ele>64.5</ele>
        <time>2020-06-16T16:43:01Z</time>
      </trkpt>
      <trkpt lat="49.35052" lon="-0.86318">
        <ele>64.6</ele>
        <time>2020-06-16T16:43:02Z</time>
      </trkpt>
      <trkpt lat="49.35048" lon="-0.86311">
        <ele>64.7</ele>
        <time>2020-06-16T16:43:03Z</time>
      </trkpt>
      <trkpt lat="49.35045" lon="-0.86303">
        <ele>64.8</ele>
        <time>2020-06-16T16:43:04Z</time>
      </trkpt>
      <trkpt lat="49.35041" lon="-0.86296">
        <ele>64.8</ele>
        <time>2020-06-16T16:43:05Z</time>
      </trkpt>
      <trkpt lat="49.35037" lon="-0.86288">
        <ele>64.9</ele>
        <time>2020-06-16T16:43:06Z</time>
      </trkpt>
      <trkpt lat="49.35034" lon="-0.86282">
        <ele>65</ele>
        <time>2020-06-16T16:43:07Z</time>
      </trkpt>
      <trkpt lat="49.35031" lon="-0.86275">
        <ele>65.1</ele>
        <time>2020-06-16T16:43:08Z</time>
      </trkpt>
      <trkpt lat="49.35028" lon="-0.86268">
        <ele>65.3</ele>
        <time>2020-06-16T16:43:09Z</time>
      </trkpt>
      <trkpt lat="49.35024" lon="-0.86263">
        <ele>65.4</ele>
        <time>2020-06-16T16:43:10Z</time>
      </trkpt>
      <trkpt lat="49.35022" lon="-0.86257">
        <ele>65.5</ele>
        <time>2020-06-16T16:43:11Z</time>
      </trkpt>
      <trkpt lat="49.35019" lon="-0.86251">
        <ele>65.5</ele>
        <time>2020-06-16T16:43:12Z</time>
      </trkpt>
      <trkpt lat="49.35017" lon="-0.86245">
        <ele>65.5</ele>
        <time>2020-06-16T16:43:13Z</time>
      </trkpt>
      <trkpt lat="49.35014" lon="-0.86239">
        <ele>65.6</ele>
        <time>2020-06-16T16:43:14Z</time>
      </trkpt>
      <trkpt lat="49.35011" lon="-0.86233">
        <ele>65.6</ele>
        <time>2020-06-16T16:43:15Z</time>
      </trkpt>
      <trkpt lat="49.35009" lon="-0.86225">
        <ele>65.7</ele>
        <time>2020-06-16T16:43:16Z</time>
      </trkpt>
      <trkpt lat="49.35006" lon="-0.86218">
        <ele>65.7</ele>
        <time>2020-06-16T16:43:17Z</time>
      </trkpt>
      <trkpt lat="49.35004" lon="-0.86211">
        <ele>65.8</ele>
        <time>2020-06-16T16:43:18Z</time>
      </trkpt>
      <trkpt lat="49.35001" lon="-0.86204">
        <ele>65.8</ele>
        <time>2020-06-16T16:43:19Z</time>
      </trkpt>
      <trkpt lat="49.34998" lon="-0.86197">
        <ele>65.9</ele>
        <time>2020-06-16T16:43:20Z</time>
      </trkpt>
      <trkpt lat="49.34994" lon="-0.86189">
        <ele>65.9</ele>
        <time>2020-06-16T16:43:21Z</time>
      </trkpt>
      <trkpt lat="49.34991" lon="-0.86183">
        <ele>66</ele>
        <time>2020-06-16T16:43:22Z</time>
      </trkpt>
      <trkpt lat="49.34988" lon="-0.86175">
        <ele>66.1</ele>
        <time>2020-06-16T16:43:23Z</time>
      </trkpt>
      <trkpt lat="49.34985" lon="-0.86168">
        <ele>66.2</ele>
        <time>2020-06-16T16:43:24Z</time>
      </trkpt>
      <trkpt lat="49.34982" lon="-0.86161">
        <ele>66.2</ele>
        <time>2020-06-16T16:43:25Z</time>
      </trkpt>
      <trkpt lat="49.3498" lon="-0.86153">
        <ele>66.3</ele>
        <time>2020-06-16T16:43:26Z</time>
      </trkpt>
      <trkpt lat="49.34977" lon="-0.86147">
        <ele>66.4</ele>
        <time>2020-06-16T16:43:27Z</time>
      </trkpt>
      <trkpt lat="49.34974" lon="-0.86141">
        <ele>66.4</ele>
        <time>2020-06-16T16:43:28Z</time>
      </trkpt>
      <trkpt lat="49.34971" lon="-0.86135">
        <ele>66.5</ele>
        <time>2020-06-16T16:43:29Z</time>
      </trkpt>
      <trkpt lat="49.34969" lon="-0.86129">
        <ele>66.5</ele>
        <time>2020-06-16T16:43:30Z</time>
      </trkpt>
      <trkpt lat="49.34966" lon="-0.86122">
        <ele>66.6</ele>
        <time>2020-06-16T16:43:31Z</time>
      </trkpt>
      <trkpt lat="49.34964" lon="-0.86116">
        <ele>66.7</ele>
        <time>2020-06-16T16:43:32Z</time>
      </trkpt>
      <trkpt lat="49.3496" lon="-0.86109">
        <ele>66.8</ele>
        <time>2020-06-16T16:43:33Z</time>
      </trkpt>
      <trkpt lat="49.34957" lon="-0.86104">
        <ele>66.9</ele>
        <time>2020-06-16T16:43:34Z</time>
      </trkpt>
      <trkpt lat="49.34954" lon="-0.86098">
        <ele>67</ele>
        <time>2020-06-16T16:43:35Z</time>
      </trkpt>
      <trkpt lat="49.34952" lon="-0.86091">
        <ele>67</ele>
        <time>2020-06-16T16:43:36Z</time>
      </trkpt>
      <trkpt lat="49.34949" lon="-0.86085">
        <ele>67.1</ele>
        <time>2020-06-16T16:43:37Z</time>
      </trkpt>
      <trkpt lat="49.34946" lon="-0.86079">
        <ele>67.1</ele>
        <time>2020-06-16T16:43:38Z</time>
      </trkpt>
      <trkpt lat="49.34943" lon="-0.86074">
        <ele>67.1</ele>
        <time>2020-06-16T16:43:39Z</time>
      </trkpt>
      <trkpt lat="49.3494" lon="-0.86067">
        <ele>67.1</ele>
        <time>2020-06-16T16:43:40Z</time>
      </trkpt>
      <trkpt lat="49.34937" lon="-0.86061">
        <ele>67.1</ele>
        <time>2020-06-16T16:43:41Z</time>
      </trkpt>
      <trkpt lat="49.34934" lon="-0.86054">
        <ele>67.2</ele>
        <time>2020-06-16T16:43:42Z</time>
      </trkpt>
      <trkpt lat="49.34932" lon="-0.86048">
        <ele>67.2</ele>
        <time>2020-06-16T16:43:43Z</time>
      </trkpt>
      <trkpt lat="49.34929" lon="-0.86042">
        <ele>67.3</ele>
        <time>2020-06-16T16:43:44Z</time>
      </trkpt>
      <trkpt lat="49.34927" lon="-0.86037">
        <ele>67.3</ele>
        <time>2020-06-16T16:43:45Z</time>
      </trkpt>
      <trkpt lat="49.34924" lon="-0.8603">
        <ele>67.4</ele>
        <time>2020-06-16T16:43:46Z</time>
      </trkpt>
      <trkpt lat="49.34922" lon="-0.86023">
        <ele>67.4</ele>
        <time>2020-06-16T16:43:47Z</time>
      </trkpt>
      <trkpt lat="49.34919" lon="-0.86016">
        <ele>67.5</ele>
        <time>2020-06-16T16:43:48Z</time>
      </trkpt>
      <trkpt lat="49.34916" lon="-0.8601">
        <ele>67.5</ele>
        <time>2020-06-16T16:43:49Z</time>
      </trkpt>
      <trkpt lat="49.34913" lon="-0.86003">
        <ele>67.6</ele>
        <time>2020-06-16T16:43:50Z</time>
      </trkpt>
      <trkpt lat="49.34911" lon="-0.85997">
        <ele>67.6</ele>
        <time>2020-06-16T16:43:51Z</time>
      </trkpt>
      <trkpt lat="49.34908" lon="-0.85991">
        <ele>67.7</ele>
        <time>2020-06-16T16:43:52Z</time>
      </trkpt>
      <trkpt lat="49.34905" lon="-0.85985">
        <ele>67.7</ele>
        <time>2020-06-16T16:43:53Z</time>
      </trkpt>
      <trkpt lat="49.34901" lon="-0.85979">
        <ele>67.8</ele>
        <time>2020-06-16T16:43:54Z</time>
      </trkpt>
      <trkpt lat="49.34898" lon="-0.85973">
        <ele>67.8</ele>
        <time>2020-06-16T16:43:55Z</time>
      </trkpt>
      <trkpt lat="49.34895" lon="-0.85967">
        <ele>67.9</ele>
        <time>2020-06-16T16:43:56Z</time>
      </trkpt>
      <trkpt lat="49.34892" lon="-0.8596">
        <ele>67.9</ele>
        <time>2020-06-16T16:43:57Z</time>
      </trkpt>
      <trkpt lat="49.3489" lon="-0.85955">
        <ele>68</ele>
        <time>2020-06-16T16:43:58Z</time>
      </trkpt>
      <trkpt lat="49.34888" lon="-0.85951">
        <ele>68</ele>
        <time>2020-06-16T16:43:59Z</time>
      </trkpt>
      <trkpt lat="49.34885" lon="-0.85946">
        <ele>68.1</ele>
        <time>2020-06-16T16:44:00Z</time>
      </trkpt>
      <trkpt lat="49.34883" lon="-0.85941">
        <ele>68.1</ele>
        <time>2020-06-16T16:44:01Z</time>
      </trkpt>
      <trkpt lat="49.3488" lon="-0.85935">
        <ele>68.2</ele>
        <time>2020-06-16T16:44:02Z</time>
      </trkpt>
      <trkpt lat="49.34878" lon="-0.8593">
        <ele>68.3</ele>
        <time>2020-06-16T16:44:03Z</time>
      </trkpt>
      <trkpt lat="49.34874" lon="-0.85925">
        <ele>68.3</ele>
        <time>2020-06-16T16:44:04Z</time>
      </trkpt>
      <trkpt lat="49.34871" lon="-0.8592">
        <ele>68.3</ele>
        <time>2020-06-16T16:44:05Z</time>
      </trkpt>
      <trkpt lat="49.34868" lon="-0.85914">
        <ele>68.3</ele>
        <time>2020-06-16T16:44:06Z</time>
      </trkpt>
      <trkpt lat="49.34865" lon="-0.85909">
        <ele>68.3</ele>
        <time>2020-06-16T16:44:07Z</time>
      </trkpt>
      <trkpt lat="49.34862" lon="-0.85904">
        <ele>68.3</ele>
        <time>2020-06-16T16:44:08Z</time>
      </trkpt>
      <trkpt lat="49.34859" lon="-0.85899">
        <ele>68.3</ele>
        <time>2020-06-16T16:44:09Z</time>
      </trkpt>
      <trkpt lat="49.34857" lon="-0.85894">
        <ele>68.3</ele>
        <time>2020-06-16T16:44:10Z</time>
      </trkpt>
      <trkpt lat="49.34855" lon="-0.85889">
        <ele>68.3</ele>
        <time>2020-06-16T16:44:11Z</time>
      </trkpt>
      <trkpt lat="49.34853" lon="-0.85884">
        <ele>68.2</ele>
        <time>2020-06-16T16:44:12Z</time>
      </trkpt>
      <trkpt lat="49.3485" lon="-0.85877">
        <ele>68.2</ele>
        <time>2020-06-16T16:44:13Z</time>
      </trkpt>
      <trkpt lat="49.34847" lon="-0.8587">
        <ele>68.2</ele>
        <time>2020-06-16T16:44:14Z</time>
      </trkpt>
      <trkpt lat="49.34845" lon="-0.85863">
        <ele>68.2</ele>
        <time>2020-06-16T16:44:15Z</time>
      </trkpt>
      <trkpt lat="49.34842" lon="-0.85854">
        <ele>68.2</ele>
        <time>2020-06-16T16:44:16Z</time>
      </trkpt>
      <trkpt lat="49.3484" lon="-0.85848">
        <ele>68.2</ele>
        <time>2020-06-16T16:44:17Z</time>
      </trkpt>
      <trkpt lat="49.34839" lon="-0.85842">
        <ele>68.2</ele>
        <time>2020-06-16T16:44:18Z</time>
      </trkpt>
      <trkpt lat="49.34838" lon="-0.85834">
        <ele>68.1</ele>
        <time>2020-06-16T16:44:19Z</time>
      </trkpt>
      <trkpt lat="49.34837" lon="-0.85825">
        <ele>68.1</ele>
        <time>2020-06-16T16:44:20Z</time>
      </trkpt>
      <trkpt lat="49.34837" lon="-0.85816">
        <ele>68</ele>
        <time>2020-06-16T16:44:21Z</time>
      </trkpt>
      <trkpt lat="49.34836" lon="-0.85808">
        <ele>67.9</ele>
        <time>2020-06-16T16:44:22Z</time>
      </trkpt>
      <trkpt lat="49.34835" lon="-0.85799">
        <ele>67.9</ele>
        <time>2020-06-16T16:44:23Z</time>
      </trkpt>
      <trkpt lat="49.34835" lon="-0.85792">
        <ele>67.9</ele>
        <time>2020-06-16T16:44:24Z</time>
      </trkpt>
      <trkpt lat="49.34835" lon="-0.85785">
        <ele>67.8</ele>
        <time>2020-06-16T16:44:25Z</time>
      </trkpt>
      <trkpt lat="49.34835" lon="-0.85778">
        <ele>67.8</ele>
        <time>2020-06-16T16:44:26Z</time>
      </trkpt>
      <trkpt lat="49.34835" lon="-0.8577">
        <ele>67.8</ele>
        <time>2020-06-16T16:44:27Z</time>
      </trkpt>
      <trkpt lat="49.34835" lon="-0.85762">
        <ele>67.8</ele>
        <time>2020-06-16T16:44:28Z</time>
      </trkpt>
      <trkpt lat="49.34836" lon="-0.85756">
        <ele>67.7</ele>
        <time>2020-06-16T16:44:29Z</time>
      </trkpt>
      <trkpt lat="49.34836" lon="-0.85749">
        <ele>67.6</ele>
        <time>2020-06-16T16:44:30Z</time>
      </trkpt>
      <trkpt lat="49.34837" lon="-0.85742">
        <ele>67.6</ele>
        <time>2020-06-16T16:44:31Z</time>
      </trkpt>
      <trkpt lat="49.34838" lon="-0.85736">
        <ele>67.5</ele>
        <time>2020-06-16T16:44:32Z</time>
      </trkpt>
      <trkpt lat="49.34838" lon="-0.85729">
        <ele>67.5</ele>
        <time>2020-06-16T16:44:33Z</time>
      </trkpt>
      <trkpt lat="49.34839" lon="-0.85724">
        <ele>67.4</ele>
        <time>2020-06-16T16:44:34Z</time>
      </trkpt>
      <trkpt lat="49.3484" lon="-0.85718">
        <ele>67.4</ele>
        <time>2020-06-16T16:44:35Z</time>
      </trkpt>
      <trkpt lat="49.3484" lon="-0.85712">
        <ele>67.3</ele>
        <time>2020-06-16T16:44:36Z</time>
      </trkpt>
      <trkpt lat="49.34842" lon="-0.85705">
        <ele>67.2</ele>
        <time>2020-06-16T16:44:37Z</time>
      </trkpt>
      <trkpt lat="49.34842" lon="-0.85698">
        <ele>67.2</ele>
        <time>2020-06-16T16:44:38Z</time>
      </trkpt>
      <trkpt lat="49.34843" lon="-0.85692">
        <ele>67.2</ele>
        <time>2020-06-16T16:44:39Z</time>
      </trkpt>
      <trkpt lat="49.34843" lon="-0.85686">
        <ele>67.1</ele>
        <time>2020-06-16T16:44:40Z</time>
      </trkpt>
      <trkpt lat="49.34843" lon="-0.8568">
        <ele>67.1</ele>
        <time>2020-06-16T16:44:41Z</time>
      </trkpt>
      <trkpt lat="49.34843" lon="-0.85674">
        <ele>67</ele>
        <time>2020-06-16T16:44:42Z</time>
      </trkpt>
      <trkpt lat="49.34843" lon="-0.85666">
        <ele>67</ele>
        <time>2020-06-16T16:44:43Z</time>
      </trkpt>
      <trkpt lat="49.34842" lon="-0.85659">
        <ele>67</ele>
        <time>2020-06-16T16:44:44Z</time>
      </trkpt>
      <trkpt lat="49.34842" lon="-0.85654">
        <ele>66.9</ele>
        <time>2020-06-16T16:44:45Z</time>
      </trkpt>
      <trkpt lat="49.34841" lon="-0.85646">
        <ele>66.8</ele>
        <time>2020-06-16T16:44:46Z</time>
      </trkpt>
      <trkpt lat="49.3484" lon="-0.85639">
        <ele>66.7</ele>
        <time>2020-06-16T16:44:47Z</time>
      </trkpt>
      <trkpt lat="49.34839" lon="-0.85631">
        <ele>66.6</ele>
        <time>2020-06-16T16:44:48Z</time>
      </trkpt>
      <trkpt lat="49.34838" lon="-0.85624">
        <ele>66.4</ele>
        <time>2020-06-16T16:44:49Z</time>
      </trkpt>
      <trkpt lat="49.34837" lon="-0.85617">
        <ele>66.3</ele>
        <time>2020-06-16T16:44:50Z</time>
      </trkpt>
      <trkpt lat="49.34836" lon="-0.85612">
        <ele>66.3</ele>
        <time>2020-06-16T16:44:51Z</time>
      </trkpt>
      <trkpt lat="49.34834" lon="-0.85606">
        <ele>66.1</ele>
        <time>2020-06-16T16:44:52Z</time>
      </trkpt>
      <trkpt lat="49.34834" lon="-0.85599">
        <ele>66</ele>
        <time>2020-06-16T16:44:53Z</time>
      </trkpt>
      <trkpt lat="49.34832" lon="-0.85594">
        <ele>66</ele>
        <time>2020-06-16T16:44:54Z</time>
      </trkpt>
      <trkpt lat="49.3483" lon="-0.8559">
        <ele>65.9</ele>
        <time>2020-06-16T16:44:55Z</time>
      </trkpt>
      <trkpt lat="49.34827" lon="-0.85584">
        <ele>65.8</ele>
        <time>2020-06-16T16:44:56Z</time>
      </trkpt>
      <trkpt lat="49.34824" lon="-0.85576">
        <ele>65.6</ele>
        <time>2020-06-16T16:44:57Z</time>
      </trkpt>
      <trkpt lat="49.34821" lon="-0.85571">
        <ele>65.5</ele>
        <time>2020-06-16T16:44:58Z</time>
      </trkpt>
      <trkpt lat="49.34816" lon="-0.85567">
        <ele>65.3</ele>
        <time>2020-06-16T16:44:59Z</time>
      </trkpt>
      <trkpt lat="49.34813" lon="-0.85564">
        <ele>65.2</ele>
        <time>2020-06-16T16:45:00Z</time>
      </trkpt>
      <trkpt lat="49.34809" lon="-0.85561">
        <ele>65.2</ele>
        <time>2020-06-16T16:45:01Z</time>
      </trkpt>
      <trkpt lat="49.34806" lon="-0.85558">
        <ele>65</ele>
        <time>2020-06-16T16:45:02Z</time>
      </trkpt>
      <trkpt lat="49.34802" lon="-0.85553">
        <ele>65</ele>
        <time>2020-06-16T16:45:03Z</time>
      </trkpt>
      <trkpt lat="49.34801" lon="-0.85547">
        <ele>64.9</ele>
        <time>2020-06-16T16:45:04Z</time>
      </trkpt>
      <trkpt lat="49.348" lon="-0.85538">
        <ele>64.8</ele>
        <time>2020-06-16T16:45:05Z</time>
      </trkpt>
      <trkpt lat="49.34801" lon="-0.8553">
        <ele>64.7</ele>
        <time>2020-06-16T16:45:06Z</time>
      </trkpt>
      <trkpt lat="49.34803" lon="-0.85522">
        <ele>64.2</ele>
        <time>2020-06-16T16:45:07Z</time>
      </trkpt>
      <trkpt lat="49.34806" lon="-0.85515">
        <ele>63.8</ele>
        <time>2020-06-16T16:45:08Z</time>
      </trkpt>
      <trkpt lat="49.34811" lon="-0.8551">
        <ele>63.3</ele>
        <time>2020-06-16T16:45:09Z</time>
      </trkpt>
      <trkpt lat="49.34816" lon="-0.85507">
        <ele>63.6</ele>
        <time>2020-06-16T16:45:10Z</time>
      </trkpt>
      <trkpt lat="49.3482" lon="-0.85504">
        <ele>63.6</ele>
        <time>2020-06-16T16:45:11Z</time>
      </trkpt>
      <trkpt lat="49.34824" lon="-0.85502">
        <ele>63.6</ele>
        <time>2020-06-16T16:45:12Z</time>
      </trkpt>
      <trkpt lat="49.34826" lon="-0.855">
        <ele>63.9</ele>
        <time>2020-06-16T16:45:13Z</time>
      </trkpt>
      <trkpt lat="49.34829" lon="-0.85495">
        <ele>64.1</ele>
        <time>2020-06-16T16:45:14Z</time>
      </trkpt>
      <trkpt lat="49.34832" lon="-0.85489">
        <ele>64.2</ele>
        <time>2020-06-16T16:45:15Z</time>
      </trkpt>
      <trkpt lat="49.34834" lon="-0.85487">
        <ele>64.3</ele>
        <time>2020-06-16T16:45:16Z</time>
      </trkpt>
      <trkpt lat="49.34837" lon="-0.85485">
        <ele>64.3</ele>
        <time>2020-06-16T16:45:17Z</time>
      </trkpt>
      <trkpt lat="49.34837" lon="-0.85484">
        <ele>64.4</ele>
        <time>2020-06-16T16:45:18Z</time>
      </trkpt>
      <trkpt lat="49.3484" lon="-0.85483">
        <ele>64.5</ele>
        <time>2020-06-16T16:45:19Z</time>
      </trkpt>
      <trkpt lat="49.34841" lon="-0.85483">
        <ele>64.5</ele>
        <time>2020-06-16T16:45:20Z</time>
      </trkpt>
      <trkpt lat="49.34843" lon="-0.85484">
        <ele>64.6</ele>
        <time>2020-06-16T16:45:21Z</time>
      </trkpt>
      <trkpt lat="49.34844" lon="-0.85484">
        <ele>64.6</ele>
        <time>2020-06-16T16:45:22Z</time>
      </trkpt>
      <trkpt lat="49.34847" lon="-0.85483">
        <ele>64.6</ele>
        <time>2020-06-16T16:45:23Z</time>
      </trkpt>
      <trkpt lat="49.34848" lon="-0.85483">
        <ele>64.6</ele>
        <time>2020-06-16T16:45:24Z</time>
      </trkpt>
      <trkpt lat="49.34851" lon="-0.85482">
        <ele>64.6</ele>
        <time>2020-06-16T16:45:25Z</time>
      </trkpt>
      <trkpt lat="49.34852" lon="-0.85482">
        <ele>64.6</ele>
        <time>2020-06-16T16:45:26Z</time>
      </trkpt>
      <trkpt lat="49.34854" lon="-0.85481">
        <ele>64.6</ele>
        <time>2020-06-16T16:45:27Z</time>
      </trkpt>
      <trkpt lat="49.34855" lon="-0.85481">
        <ele>64.6</ele>
        <time>2020-06-16T16:45:28Z</time>
      </trkpt>
      <trkpt lat="49.34856" lon="-0.85481">
        <ele>64.6</ele>
        <time>2020-06-16T16:45:29Z</time>
      </trkpt>
      <trkpt lat="49.34857" lon="-0.8548">
        <ele>64.7</ele>
        <time>2020-06-16T16:45:30Z</time>
      </trkpt>
      <trkpt lat="49.34858" lon="-0.85479">
        <ele>64.7</ele>
        <time>2020-06-16T16:45:31Z</time>
      </trkpt>
      <trkpt lat="49.34861" lon="-0.85479">
        <ele>64.7</ele>
        <time>2020-06-16T16:45:32Z</time>
      </trkpt>
      <trkpt lat="49.34862" lon="-0.85478">
        <ele>64.7</ele>
        <time>2020-06-16T16:45:33Z</time>
      </trkpt>
      <trkpt lat="49.34865" lon="-0.85478">
        <ele>64.8</ele>
        <time>2020-06-16T16:45:34Z</time>
      </trkpt>
      <trkpt lat="49.34867" lon="-0.85478">
        <ele>64.8</ele>
        <time>2020-06-16T16:45:35Z</time>
      </trkpt>
      <trkpt lat="49.34869" lon="-0.85478">
        <ele>64.8</ele>
        <time>2020-06-16T16:45:36Z</time>
      </trkpt>
      <trkpt lat="49.34873" lon="-0.85477">
        <ele>64.9</ele>
        <time>2020-06-16T16:45:37Z</time>
      </trkpt>
      <trkpt lat="49.34876" lon="-0.85475">
        <ele>64.9</ele>
        <time>2020-06-16T16:45:38Z</time>
      </trkpt>
      <trkpt lat="49.34879" lon="-0.85474">
        <ele>65</ele>
        <time>2020-06-16T16:45:39Z</time>
      </trkpt>
      <trkpt lat="49.34883" lon="-0.85474">
        <ele>65</ele>
        <time>2020-06-16T16:45:40Z</time>
      </trkpt>
      <trkpt lat="49.34884" lon="-0.85474">
        <ele>65.1</ele>
        <time>2020-06-16T16:45:41Z</time>
      </trkpt>
      <trkpt lat="49.34888" lon="-0.85472">
        <ele>65.1</ele>
        <time>2020-06-16T16:45:42Z</time>
      </trkpt>
      <trkpt lat="49.34891" lon="-0.85472">
        <ele>65.2</ele>
        <time>2020-06-16T16:45:43Z</time>
      </trkpt>
      <trkpt lat="49.34893" lon="-0.85472">
        <ele>65.2</ele>
        <time>2020-06-16T16:45:44Z</time>
      </trkpt>
      <trkpt lat="49.34897" lon="-0.85471">
        <ele>65.2</ele>
        <time>2020-06-16T16:45:45Z</time>
      </trkpt>
      <trkpt lat="49.34898" lon="-0.85471">
        <ele>65.3</ele>
        <time>2020-06-16T16:45:46Z</time>
      </trkpt>
      <trkpt lat="49.34902" lon="-0.8547">
        <ele>65.3</ele>
        <time>2020-06-16T16:45:47Z</time>
      </trkpt>
      <trkpt lat="49.34903" lon="-0.8547">
        <ele>65.3</ele>
        <time>2020-06-16T16:45:48Z</time>
      </trkpt>
      <trkpt lat="49.34906" lon="-0.85469">
        <ele>65.3</ele>
        <time>2020-06-16T16:45:49Z</time>
      </trkpt>
      <trkpt lat="49.34909" lon="-0.85467">
        <ele>65.3</ele>
        <time>2020-06-16T16:45:50Z</time>
      </trkpt>
      <trkpt lat="49.34912" lon="-0.85466">
        <ele>65.3</ele>
        <time>2020-06-16T16:45:51Z</time>
      </trkpt>
      <trkpt lat="49.34916" lon="-0.85465">
        <ele>65.3</ele>
        <time>2020-06-16T16:45:52Z</time>
      </trkpt>
      <trkpt lat="49.3492" lon="-0.85464">
        <ele>65.3</ele>
        <time>2020-06-16T16:45:53Z</time>
      </trkpt>
      <trkpt lat="49.34924" lon="-0.85463">
        <ele>65.3</ele>
        <time>2020-06-16T16:45:54Z</time>
      </trkpt>
      <trkpt lat="49.34927" lon="-0.85462">
        <ele>65.3</ele>
        <time>2020-06-16T16:45:55Z</time>
      </trkpt>
      <trkpt lat="49.34932" lon="-0.85461">
        <ele>65.3</ele>
        <time>2020-06-16T16:45:56Z</time>
      </trkpt>
      <trkpt lat="49.34934" lon="-0.85461">
        <ele>65.3</ele>
        <time>2020-06-16T16:45:57Z</time>
      </trkpt>
      <trkpt lat="49.34938" lon="-0.8546">
        <ele>65.3</ele>
        <time>2020-06-16T16:45:58Z</time>
      </trkpt>
      <trkpt lat="49.34943" lon="-0.85458">
        <ele>65.2</ele>
        <time>2020-06-16T16:45:59Z</time>
      </trkpt>
      <trkpt lat="49.34946" lon="-0.85456">
        <ele>65.2</ele>
        <time>2020-06-16T16:46:00Z</time>
      </trkpt>
      <trkpt lat="49.3495" lon="-0.85454">
        <ele>65.1</ele>
        <time>2020-06-16T16:46:01Z</time>
      </trkpt>
      <trkpt lat="49.34954" lon="-0.85452">
        <ele>65.1</ele>
        <time>2020-06-16T16:46:02Z</time>
      </trkpt>
      <trkpt lat="49.34959" lon="-0.8545">
        <ele>65</ele>
        <time>2020-06-16T16:46:03Z</time>
      </trkpt>
      <trkpt lat="49.34963" lon="-0.85449">
        <ele>65</ele>
        <time>2020-06-16T16:46:04Z</time>
      </trkpt>
      <trkpt lat="49.34967" lon="-0.85448">
        <ele>64.9</ele>
        <time>2020-06-16T16:46:05Z</time>
      </trkpt>
      <trkpt lat="49.34972" lon="-0.85445">
        <ele>64.8</ele>
        <time>2020-06-16T16:46:06Z</time>
      </trkpt>
      <trkpt lat="49.34977" lon="-0.85442">
        <ele>64.6</ele>
        <time>2020-06-16T16:46:07Z</time>
      </trkpt>
      <trkpt lat="49.34982" lon="-0.8544">
        <ele>64.5</ele>
        <time>2020-06-16T16:46:08Z</time>
      </trkpt>
      <trkpt lat="49.34986" lon="-0.85439">
        <ele>64.4</ele>
        <time>2020-06-16T16:46:09Z</time>
      </trkpt>
      <trkpt lat="49.34991" lon="-0.85437">
        <ele>64.3</ele>
        <time>2020-06-16T16:46:10Z</time>
      </trkpt>
      <trkpt lat="49.34995" lon="-0.85435">
        <ele>64.2</ele>
        <time>2020-06-16T16:46:11Z</time>
      </trkpt>
      <trkpt lat="49.35" lon="-0.85434">
        <ele>64.1</ele>
        <time>2020-06-16T16:46:12Z</time>
      </trkpt>
      <trkpt lat="49.35004" lon="-0.85431">
        <ele>64</ele>
        <time>2020-06-16T16:46:13Z</time>
      </trkpt>
      <trkpt lat="49.35008" lon="-0.85429">
        <ele>63.9</ele>
        <time>2020-06-16T16:46:14Z</time>
      </trkpt>
      <trkpt lat="49.35013" lon="-0.85427">
        <ele>63.8</ele>
        <time>2020-06-16T16:46:15Z</time>
      </trkpt>
      <trkpt lat="49.35018" lon="-0.85425">
        <ele>63.7</ele>
        <time>2020-06-16T16:46:16Z</time>
      </trkpt>
      <trkpt lat="49.35022" lon="-0.85422">
        <ele>63.6</ele>
        <time>2020-06-16T16:46:17Z</time>
      </trkpt>
      <trkpt lat="49.35026" lon="-0.8542">
        <ele>63.6</ele>
        <time>2020-06-16T16:46:18Z</time>
      </trkpt>
      <trkpt lat="49.35029" lon="-0.85418">
        <ele>63.5</ele>
        <time>2020-06-16T16:46:19Z</time>
      </trkpt>
      <trkpt lat="49.35033" lon="-0.85416">
        <ele>63.4</ele>
        <time>2020-06-16T16:46:20Z</time>
      </trkpt>
      <trkpt lat="49.35037" lon="-0.85415">
        <ele>63.4</ele>
        <time>2020-06-16T16:46:21Z</time>
      </trkpt>
      <trkpt lat="49.3504" lon="-0.85413">
        <ele>63.3</ele>
        <time>2020-06-16T16:46:22Z</time>
      </trkpt>
      <trkpt lat="49.35044" lon="-0.8541">
        <ele>63.2</ele>
        <time>2020-06-16T16:46:23Z</time>
      </trkpt>
      <trkpt lat="49.35048" lon="-0.85407">
        <ele>63.2</ele>
        <time>2020-06-16T16:46:24Z</time>
      </trkpt>
      <trkpt lat="49.35053" lon="-0.85404">
        <ele>63.1</ele>
        <time>2020-06-16T16:46:25Z</time>
      </trkpt>
      <trkpt lat="49.35057" lon="-0.85402">
        <ele>63</ele>
        <time>2020-06-16T16:46:26Z</time>
      </trkpt>
      <trkpt lat="49.35063" lon="-0.85398">
        <ele>63</ele>
        <time>2020-06-16T16:46:27Z</time>
      </trkpt>
      <trkpt lat="49.35069" lon="-0.85394">
        <ele>62.9</ele>
        <time>2020-06-16T16:46:28Z</time>
      </trkpt>
      <trkpt lat="49.35074" lon="-0.85391">
        <ele>62.9</ele>
        <time>2020-06-16T16:46:29Z</time>
      </trkpt>
      <trkpt lat="49.35078" lon="-0.8539">
        <ele>62.8</ele>
        <time>2020-06-16T16:46:30Z</time>
      </trkpt>
      <trkpt lat="49.35081" lon="-0.85388">
        <ele>62.8</ele>
        <time>2020-06-16T16:46:31Z</time>
      </trkpt>
      <trkpt lat="49.35086" lon="-0.85386">
        <ele>62.8</ele>
        <time>2020-06-16T16:46:32Z</time>
      </trkpt>
      <trkpt lat="49.3509" lon="-0.85382">
        <ele>62.7</ele>
        <time>2020-06-16T16:46:33Z</time>
      </trkpt>
      <trkpt lat="49.35094" lon="-0.85379">
        <ele>62.6</ele>
        <time>2020-06-16T16:46:34Z</time>
      </trkpt>
      <trkpt lat="49.35099" lon="-0.85375">
        <ele>62.6</ele>
        <time>2020-06-16T16:46:35Z</time>
      </trkpt>
      <trkpt lat="49.35103" lon="-0.85372">
        <ele>62.5</ele>
        <time>2020-06-16T16:46:36Z</time>
      </trkpt>
      <trkpt lat="49.35108" lon="-0.85369">
        <ele>62.4</ele>
        <time>2020-06-16T16:46:37Z</time>
      </trkpt>
      <trkpt lat="49.35112" lon="-0.85368">
        <ele>62.4</ele>
        <time>2020-06-16T16:46:38Z</time>
      </trkpt>
      <trkpt lat="49.35117" lon="-0.85365">
        <ele>62.3</ele>
        <time>2020-06-16T16:46:39Z</time>
      </trkpt>
      <trkpt lat="49.35121" lon="-0.85364">
        <ele>62.3</ele>
        <time>2020-06-16T16:46:40Z</time>
      </trkpt>
      <trkpt lat="49.35125" lon="-0.85362">
        <ele>62.2</ele>
        <time>2020-06-16T16:46:41Z</time>
      </trkpt>
      <trkpt lat="49.35129" lon="-0.8536">
        <ele>62.1</ele>
        <time>2020-06-16T16:46:42Z</time>
      </trkpt>
      <trkpt lat="49.35134" lon="-0.85357">
        <ele>62.1</ele>
        <time>2020-06-16T16:46:43Z</time>
      </trkpt>
      <trkpt lat="49.3514" lon="-0.85354">
        <ele>62</ele>
        <time>2020-06-16T16:46:44Z</time>
      </trkpt>
      <trkpt lat="49.35145" lon="-0.8535">
        <ele>61.9</ele>
        <time>2020-06-16T16:46:45Z</time>
      </trkpt>
      <trkpt lat="49.3515" lon="-0.85347">
        <ele>61.8</ele>
        <time>2020-06-16T16:46:46Z</time>
      </trkpt>
      <trkpt lat="49.35155" lon="-0.85346">
        <ele>61.7</ele>
        <time>2020-06-16T16:46:47Z</time>
      </trkpt>
      <trkpt lat="49.35159" lon="-0.85344">
        <ele>61.6</ele>
        <time>2020-06-16T16:46:48Z</time>
      </trkpt>
      <trkpt lat="49.35162" lon="-0.85342">
        <ele>61.5</ele>
        <time>2020-06-16T16:46:49Z</time>
      </trkpt>
      <trkpt lat="49.35167" lon="-0.8534">
        <ele>61.5</ele>
        <time>2020-06-16T16:46:50Z</time>
      </trkpt>
      <trkpt lat="49.35171" lon="-0.85338">
        <ele>61.4</ele>
        <time>2020-06-16T16:46:51Z</time>
      </trkpt>
      <trkpt lat="49.35176" lon="-0.85335">
        <ele>61.3</ele>
        <time>2020-06-16T16:46:52Z</time>
      </trkpt>
      <trkpt lat="49.3518" lon="-0.85333">
        <ele>61.2</ele>
        <time>2020-06-16T16:46:53Z</time>
      </trkpt>
      <trkpt lat="49.35184" lon="-0.85331">
        <ele>61.2</ele>
        <time>2020-06-16T16:46:54Z</time>
      </trkpt>
      <trkpt lat="49.35188" lon="-0.85329">
        <ele>61.1</ele>
        <time>2020-06-16T16:46:55Z</time>
      </trkpt>
      <trkpt lat="49.35192" lon="-0.85327">
        <ele>61</ele>
        <time>2020-06-16T16:46:56Z</time>
      </trkpt>
      <trkpt lat="49.35195" lon="-0.85325">
        <ele>60.9</ele>
        <time>2020-06-16T16:46:57Z</time>
      </trkpt>
      <trkpt lat="49.352" lon="-0.85321">
        <ele>60.9</ele>
        <time>2020-06-16T16:46:58Z</time>
      </trkpt>
      <trkpt lat="49.35205" lon="-0.8532">
        <ele>60.7</ele>
        <time>2020-06-16T16:46:59Z</time>
      </trkpt>
      <trkpt lat="49.35209" lon="-0.85318">
        <ele>60.6</ele>
        <time>2020-06-16T16:47:00Z</time>
      </trkpt>
      <trkpt lat="49.35214" lon="-0.85314">
        <ele>60.5</ele>
        <time>2020-06-16T16:47:01Z</time>
      </trkpt>
      <trkpt lat="49.35218" lon="-0.85312">
        <ele>60.4</ele>
        <time>2020-06-16T16:47:02Z</time>
      </trkpt>
      <trkpt lat="49.35223" lon="-0.8531">
        <ele>60.3</ele>
        <time>2020-06-16T16:47:03Z</time>
      </trkpt>
      <trkpt lat="49.35227" lon="-0.85307">
        <ele>60.2</ele>
        <time>2020-06-16T16:47:04Z</time>
      </trkpt>
      <trkpt lat="49.35231" lon="-0.85304">
        <ele>60.1</ele>
        <time>2020-06-16T16:47:05Z</time>
      </trkpt>
      <trkpt lat="49.35236" lon="-0.85303">
        <ele>60</ele>
        <time>2020-06-16T16:47:06Z</time>
      </trkpt>
      <trkpt lat="49.3524" lon="-0.853">
        <ele>59.9</ele>
        <time>2020-06-16T16:47:07Z</time>
      </trkpt>
      <trkpt lat="49.35244" lon="-0.85299">
        <ele>59.8</ele>
        <time>2020-06-16T16:47:08Z</time>
      </trkpt>
      <trkpt lat="49.35249" lon="-0.85298">
        <ele>59.7</ele>
        <time>2020-06-16T16:47:09Z</time>
      </trkpt>
      <trkpt lat="49.35254" lon="-0.85296">
        <ele>59.6</ele>
        <time>2020-06-16T16:47:10Z</time>
      </trkpt>
      <trkpt lat="49.35258" lon="-0.85294">
        <ele>59.6</ele>
        <time>2020-06-16T16:47:11Z</time>
      </trkpt>
      <trkpt lat="49.35263" lon="-0.85292">
        <ele>59.5</ele>
        <time>2020-06-16T16:47:12Z</time>
      </trkpt>
      <trkpt lat="49.35267" lon="-0.8529">
        <ele>59.4</ele>
        <time>2020-06-16T16:47:13Z</time>
      </trkpt>
      <trkpt lat="49.35272" lon="-0.85288">
        <ele>59.3</ele>
        <time>2020-06-16T16:47:14Z</time>
      </trkpt>
      <trkpt lat="49.35277" lon="-0.85286">
        <ele>59.2</ele>
        <time>2020-06-16T16:47:15Z</time>
      </trkpt>
      <trkpt lat="49.35282" lon="-0.85285">
        <ele>59.1</ele>
        <time>2020-06-16T16:47:16Z</time>
      </trkpt>
      <trkpt lat="49.35287" lon="-0.85283">
        <ele>59.1</ele>
        <time>2020-06-16T16:47:17Z</time>
      </trkpt>
      <trkpt lat="49.35291" lon="-0.85282">
        <ele>59</ele>
        <time>2020-06-16T16:47:18Z</time>
      </trkpt>
      <trkpt lat="49.35295" lon="-0.85282">
        <ele>58.9</ele>
        <time>2020-06-16T16:47:19Z</time>
      </trkpt>
      <trkpt lat="49.35299" lon="-0.85281">
        <ele>58.8</ele>
        <time>2020-06-16T16:47:20Z</time>
      </trkpt>
      <trkpt lat="49.35304" lon="-0.8528">
        <ele>58.8</ele>
        <time>2020-06-16T16:47:21Z</time>
      </trkpt>
      <trkpt lat="49.35308" lon="-0.8528">
        <ele>58.7</ele>
        <time>2020-06-16T16:47:22Z</time>
      </trkpt>
      <trkpt lat="49.35312" lon="-0.8528">
        <ele>58.7</ele>
        <time>2020-06-16T16:47:23Z</time>
      </trkpt>
      <trkpt lat="49.35316" lon="-0.8528">
        <ele>58.6</ele>
        <time>2020-06-16T16:47:24Z</time>
      </trkpt>
      <trkpt lat="49.3532" lon="-0.8528">
        <ele>58.6</ele>
        <time>2020-06-16T16:47:25Z</time>
      </trkpt>
      <trkpt lat="49.35324" lon="-0.8528">
        <ele>58.5</ele>
        <time>2020-06-16T16:47:26Z</time>
      </trkpt>
      <trkpt lat="49.35328" lon="-0.8528">
        <ele>58.5</ele>
        <time>2020-06-16T16:47:27Z</time>
      </trkpt>
      <trkpt lat="49.35332" lon="-0.85279">
        <ele>58.5</ele>
        <time>2020-06-16T16:47:28Z</time>
      </trkpt>
      <trkpt lat="49.35336" lon="-0.85279">
        <ele>58.4</ele>
        <time>2020-06-16T16:47:29Z</time>
      </trkpt>
      <trkpt lat="49.35339" lon="-0.85279">
        <ele>58.4</ele>
        <time>2020-06-16T16:47:30Z</time>
      </trkpt>
      <trkpt lat="49.35343" lon="-0.85279">
        <ele>58.3</ele>
        <time>2020-06-16T16:47:31Z</time>
      </trkpt>
      <trkpt lat="49.35346" lon="-0.85279">
        <ele>58.3</ele>
        <time>2020-06-16T16:47:32Z</time>
      </trkpt>
      <trkpt lat="49.3535" lon="-0.85278">
        <ele>58.3</ele>
        <time>2020-06-16T16:47:33Z</time>
      </trkpt>
      <trkpt lat="49.35354" lon="-0.85279">
        <ele>58.2</ele>
        <time>2020-06-16T16:47:34Z</time>
      </trkpt>
      <trkpt lat="49.35358" lon="-0.8528">
        <ele>58.2</ele>
        <time>2020-06-16T16:47:35Z</time>
      </trkpt>
      <trkpt lat="49.35362" lon="-0.85281">
        <ele>58.1</ele>
        <time>2020-06-16T16:47:36Z</time>
      </trkpt>
      <trkpt lat="49.35365" lon="-0.85281">
        <ele>58.1</ele>
        <time>2020-06-16T16:47:37Z</time>
      </trkpt>
      <trkpt lat="49.35368" lon="-0.85282">
        <ele>58</ele>
        <time>2020-06-16T16:47:38Z</time>
      </trkpt>
      <trkpt lat="49.35371" lon="-0.85282">
        <ele>58</ele>
        <time>2020-06-16T16:47:39Z</time>
      </trkpt>
      <trkpt lat="49.35374" lon="-0.8528">
        <ele>57.9</ele>
        <time>2020-06-16T16:47:40Z</time>
      </trkpt>
      <trkpt lat="49.35378" lon="-0.85279">
        <ele>57.9</ele>
        <time>2020-06-16T16:47:41Z</time>
      </trkpt>
      <trkpt lat="49.3538" lon="-0.85279">
        <ele>57.9</ele>
        <time>2020-06-16T16:47:42Z</time>
      </trkpt>
      <trkpt lat="49.35384" lon="-0.85278">
        <ele>57.8</ele>
        <time>2020-06-16T16:47:43Z</time>
      </trkpt>
      <trkpt lat="49.35385" lon="-0.85278">
        <ele>57.8</ele>
        <time>2020-06-16T16:47:44Z</time>
      </trkpt>
      <trkpt lat="49.35388" lon="-0.85278">
        <ele>57.8</ele>
        <time>2020-06-16T16:47:45Z</time>
      </trkpt>
      <trkpt lat="49.35391" lon="-0.85278">
        <ele>57.8</ele>
        <time>2020-06-16T16:47:46Z</time>
      </trkpt>
      <trkpt lat="49.35394" lon="-0.85278">
        <ele>57.8</ele>
        <time>2020-06-16T16:47:47Z</time>
      </trkpt>
      <trkpt lat="49.35398" lon="-0.85278">
        <ele>57.7</ele>
        <time>2020-06-16T16:47:48Z</time>
      </trkpt>
      <trkpt lat="49.35399" lon="-0.85278">
        <ele>57.7</ele>
        <time>2020-06-16T16:47:49Z</time>
      </trkpt>
      <trkpt lat="49.35402" lon="-0.85279">
        <ele>57.7</ele>
        <time>2020-06-16T16:47:50Z</time>
      </trkpt>
      <trkpt lat="49.35403" lon="-0.8528">
        <ele>57.7</ele>
        <time>2020-06-16T16:47:51Z</time>
      </trkpt>
      <trkpt lat="49.35406" lon="-0.85279">
        <ele>57.7</ele>
        <time>2020-06-16T16:47:52Z</time>
      </trkpt>
      <trkpt lat="49.35409" lon="-0.85279">
        <ele>57.7</ele>
        <time>2020-06-16T16:47:53Z</time>
      </trkpt>
      <trkpt lat="49.35412" lon="-0.85279">
        <ele>57.7</ele>
        <time>2020-06-16T16:47:54Z</time>
      </trkpt>
      <trkpt lat="49.35415" lon="-0.85277">
        <ele>57.7</ele>
        <time>2020-06-16T16:47:55Z</time>
      </trkpt>
      <trkpt lat="49.35418" lon="-0.85275">
        <ele>57.7</ele>
        <time>2020-06-16T16:47:56Z</time>
      </trkpt>
      <trkpt lat="49.35421" lon="-0.85275">
        <ele>57.7</ele>
        <time>2020-06-16T16:47:57Z</time>
      </trkpt>
      <trkpt lat="49.35424" lon="-0.85275">
        <ele>57.7</ele>
        <time>2020-06-16T16:47:58Z</time>
      </trkpt>
      <trkpt lat="49.35427" lon="-0.85275">
        <ele>57.7</ele>
        <time>2020-06-16T16:47:59Z</time>
      </trkpt>
      <trkpt lat="49.3543" lon="-0.85273">
        <ele>57.6</ele>
        <time>2020-06-16T16:48:00Z</time>
      </trkpt>
      <trkpt lat="49.35433" lon="-0.85272">
        <ele>57.6</ele>
        <time>2020-06-16T16:48:01Z</time>
      </trkpt>
      <trkpt lat="49.35437" lon="-0.85271">
        <ele>57.6</ele>
        <time>2020-06-16T16:48:02Z</time>
      </trkpt>
      <trkpt lat="49.35439" lon="-0.85269">
        <ele>57.6</ele>
        <time>2020-06-16T16:48:03Z</time>
      </trkpt>
      <trkpt lat="49.35442" lon="-0.85268">
        <ele>57.6</ele>
        <time>2020-06-16T16:48:04Z</time>
      </trkpt>
      <trkpt lat="49.35445" lon="-0.85266">
        <ele>57.6</ele>
        <time>2020-06-16T16:48:05Z</time>
      </trkpt>
      <trkpt lat="49.35448" lon="-0.85264">
        <ele>57.6</ele>
        <time>2020-06-16T16:48:06Z</time>
      </trkpt>
      <trkpt lat="49.35448" lon="-0.85263">
        <ele>57.5</ele>
        <time>2020-06-16T16:48:07Z</time>
      </trkpt>
      <trkpt lat="49.35451" lon="-0.8526">
        <ele>57.3</ele>
        <time>2020-06-16T16:48:08Z</time>
      </trkpt>
      <trkpt lat="49.35452" lon="-0.85258">
        <ele>57.2</ele>
        <time>2020-06-16T16:48:09Z</time>
      </trkpt>
      <trkpt lat="49.35454" lon="-0.85254">
        <ele>57</ele>
        <time>2020-06-16T16:48:10Z</time>
      </trkpt>
      <trkpt lat="49.35454" lon="-0.85252">
        <ele>56.9</ele>
        <time>2020-06-16T16:48:11Z</time>
      </trkpt>
      <trkpt lat="49.35455" lon="-0.8525">
        <ele>56.7</ele>
        <time>2020-06-16T16:48:12Z</time>
      </trkpt>
      <trkpt lat="49.35456" lon="-0.85248">
        <ele>56.6</ele>
        <time>2020-06-16T16:48:13Z</time>
      </trkpt>
      <trkpt lat="49.35458" lon="-0.85246">
        <ele>56.4</ele>
        <time>2020-06-16T16:48:14Z</time>
      </trkpt>
      <trkpt lat="49.35459" lon="-0.85245">
        <ele>56.3</ele>
        <time>2020-06-16T16:48:15Z</time>
      </trkpt>
      <trkpt lat="49.35461" lon="-0.85244">
        <ele>56.2</ele>
        <time>2020-06-16T16:48:16Z</time>
      </trkpt>
      <trkpt lat="49.35462" lon="-0.85243">
        <ele>56.2</ele>
        <time>2020-06-16T16:48:17Z</time>
      </trkpt>
      <trkpt lat="49.35463" lon="-0.85242">
        <ele>55.9</ele>
        <time>2020-06-16T16:48:18Z</time>
      </trkpt>
      <trkpt lat="49.35465" lon="-0.85238">
        <ele>55.6</ele>
        <time>2020-06-16T16:48:19Z</time>
      </trkpt>
      <trkpt lat="49.35467" lon="-0.85234">
        <ele>55.4</ele>
        <time>2020-06-16T16:48:20Z</time>
      </trkpt>
      <trkpt lat="49.35468" lon="-0.8523">
        <ele>55.3</ele>
        <time>2020-06-16T16:48:21Z</time>
      </trkpt>
      <trkpt lat="49.3547" lon="-0.85224">
        <ele>54.9</ele>
        <time>2020-06-16T16:48:22Z</time>
      </trkpt>
      <trkpt lat="49.35472" lon="-0.85218">
        <ele>54.7</ele>
        <time>2020-06-16T16:48:23Z</time>
      </trkpt>
      <trkpt lat="49.35474" lon="-0.85212">
        <ele>54.3</ele>
        <time>2020-06-16T16:48:24Z</time>
      </trkpt>
      <trkpt lat="49.35477" lon="-0.85203">
        <ele>54</ele>
        <time>2020-06-16T16:48:25Z</time>
      </trkpt>
      <trkpt lat="49.35481" lon="-0.85195">
        <ele>53.7</ele>
        <time>2020-06-16T16:48:26Z</time>
      </trkpt>
      <trkpt lat="49.35487" lon="-0.85184">
        <ele>53.4</ele>
        <time>2020-06-16T16:48:27Z</time>
      </trkpt>
      <trkpt lat="49.35491" lon="-0.85173">
        <ele>53.1</ele>
        <time>2020-06-16T16:48:28Z</time>
      </trkpt>
      <trkpt lat="49.35495" lon="-0.85165">
        <ele>52.8</ele>
        <time>2020-06-16T16:48:29Z</time>
      </trkpt>
      <trkpt lat="49.35503" lon="-0.85156">
        <ele>52.8</ele>
        <time>2020-06-16T16:48:30Z</time>
      </trkpt>
      <trkpt lat="49.35511" lon="-0.85146">
        <ele>52.8</ele>
        <time>2020-06-16T16:48:31Z</time>
      </trkpt>
      <trkpt lat="49.35517" lon="-0.85143">
        <ele>53</ele>
        <time>2020-06-16T16:48:32Z</time>
      </trkpt>
      <trkpt lat="49.35527" lon="-0.8514">
        <ele>53.4</ele>
        <time>2020-06-16T16:48:33Z</time>
      </trkpt>
      <trkpt lat="49.35536" lon="-0.85135">
        <ele>53.3</ele>
        <time>2020-06-16T16:48:34Z</time>
      </trkpt>
      <trkpt lat="49.35543" lon="-0.85131">
        <ele>53.2</ele>
        <time>2020-06-16T16:48:35Z</time>
      </trkpt>
      <trkpt lat="49.3555" lon="-0.85127">
        <ele>53.2</ele>
        <time>2020-06-16T16:48:36Z</time>
      </trkpt>
      <trkpt lat="49.35557" lon="-0.85126">
        <ele>53.2</ele>
        <time>2020-06-16T16:48:37Z</time>
      </trkpt>
      <trkpt lat="49.35564" lon="-0.85124">
        <ele>53.2</ele>
        <time>2020-06-16T16:48:38Z</time>
      </trkpt>
      <trkpt lat="49.3557" lon="-0.85122">
        <ele>53.3</ele>
        <time>2020-06-16T16:48:39Z</time>
      </trkpt>
      <trkpt lat="49.35576" lon="-0.85121">
        <ele>53.3</ele>
        <time>2020-06-16T16:48:40Z</time>
      </trkpt>
      <trkpt lat="49.35581" lon="-0.8512">
        <ele>53.3</ele>
        <time>2020-06-16T16:48:41Z</time>
      </trkpt>
      <trkpt lat="49.35586" lon="-0.8512">
        <ele>53.3</ele>
        <time>2020-06-16T16:48:42Z</time>
      </trkpt>
      <trkpt lat="49.35592" lon="-0.8512">
        <ele>53.3</ele>
        <time>2020-06-16T16:48:43Z</time>
      </trkpt>
      <trkpt lat="49.35597" lon="-0.85119">
        <ele>53.4</ele>
        <time>2020-06-16T16:48:44Z</time>
      </trkpt>
      <trkpt lat="49.35602" lon="-0.85118">
        <ele>53.4</ele>
        <time>2020-06-16T16:48:45Z</time>
      </trkpt>
      <trkpt lat="49.35607" lon="-0.85116">
        <ele>53.4</ele>
        <time>2020-06-16T16:48:46Z</time>
      </trkpt>
      <trkpt lat="49.35613" lon="-0.85114">
        <ele>53.4</ele>
        <time>2020-06-16T16:48:47Z</time>
      </trkpt>
      <trkpt lat="49.35618" lon="-0.85112">
        <ele>53.5</ele>
        <time>2020-06-16T16:48:48Z</time>
      </trkpt>
      <trkpt lat="49.35623" lon="-0.8511">
        <ele>53.5</ele>
        <time>2020-06-16T16:48:49Z</time>
      </trkpt>
      <trkpt lat="49.35629" lon="-0.8511">
        <ele>53.5</ele>
        <time>2020-06-16T16:48:50Z</time>
      </trkpt>
      <trkpt lat="49.35634" lon="-0.85108">
        <ele>53.5</ele>
        <time>2020-06-16T16:48:51Z</time>
      </trkpt>
      <trkpt lat="49.35639" lon="-0.85106">
        <ele>53.5</ele>
        <time>2020-06-16T16:48:52Z</time>
      </trkpt>
      <trkpt lat="49.35644" lon="-0.85105">
        <ele>53.5</ele>
        <time>2020-06-16T16:48:53Z</time>
      </trkpt>
      <trkpt lat="49.3565" lon="-0.85104">
        <ele>53.4</ele>
        <time>2020-06-16T16:48:54Z</time>
      </trkpt>
      <trkpt lat="49.35655" lon="-0.85103">
        <ele>53.4</ele>
        <time>2020-06-16T16:48:55Z</time>
      </trkpt>
      <trkpt lat="49.3566" lon="-0.85102">
        <ele>53.4</ele>
        <time>2020-06-16T16:48:56Z</time>
      </trkpt>
      <trkpt lat="49.35665" lon="-0.85102">
        <ele>53.4</ele>
        <time>2020-06-16T16:48:57Z</time>
      </trkpt>
      <trkpt lat="49.3567" lon="-0.85101">
        <ele>53.3</ele>
        <time>2020-06-16T16:48:58Z</time>
      </trkpt>
      <trkpt lat="49.35675" lon="-0.851">
        <ele>53.3</ele>
        <time>2020-06-16T16:48:59Z</time>
      </trkpt>
      <trkpt lat="49.3568" lon="-0.85099">
        <ele>53.3</ele>
        <time>2020-06-16T16:49:00Z</time>
      </trkpt>
      <trkpt lat="49.35685" lon="-0.85099">
        <ele>53.3</ele>
        <time>2020-06-16T16:49:01Z</time>
      </trkpt>
      <trkpt lat="49.35689" lon="-0.85097">
        <ele>53.2</ele>
        <time>2020-06-16T16:49:02Z</time>
      </trkpt>
      <trkpt lat="49.35694" lon="-0.85097">
        <ele>53.2</ele>
        <time>2020-06-16T16:49:03Z</time>
      </trkpt>
      <trkpt lat="49.35698" lon="-0.85096">
        <ele>53.2</ele>
        <time>2020-06-16T16:49:04Z</time>
      </trkpt>
      <trkpt lat="49.35703" lon="-0.85096">
        <ele>53.1</ele>
        <time>2020-06-16T16:49:05Z</time>
      </trkpt>
      <trkpt lat="49.35708" lon="-0.85095">
        <ele>53.1</ele>
        <time>2020-06-16T16:49:06Z</time>
      </trkpt>
      <trkpt lat="49.35712" lon="-0.85095">
        <ele>53</ele>
        <time>2020-06-16T16:49:07Z</time>
      </trkpt>
      <trkpt lat="49.35717" lon="-0.85094">
        <ele>53</ele>
        <time>2020-06-16T16:49:08Z</time>
      </trkpt>
      <trkpt lat="49.35721" lon="-0.85093">
        <ele>52.9</ele>
        <time>2020-06-16T16:49:09Z</time>
      </trkpt>
      <trkpt lat="49.35725" lon="-0.85093">
        <ele>52.8</ele>
        <time>2020-06-16T16:49:10Z</time>
      </trkpt>
      <trkpt lat="49.3573" lon="-0.85091">
        <ele>52.7</ele>
        <time>2020-06-16T16:49:11Z</time>
      </trkpt>
      <trkpt lat="49.35734" lon="-0.8509">
        <ele>52.7</ele>
        <time>2020-06-16T16:49:12Z</time>
      </trkpt>
      <trkpt lat="49.35738" lon="-0.85088">
        <ele>52.6</ele>
        <time>2020-06-16T16:49:13Z</time>
      </trkpt>
      <trkpt lat="49.35742" lon="-0.85086">
        <ele>52.5</ele>
        <time>2020-06-16T16:49:14Z</time>
      </trkpt>
      <trkpt lat="49.35747" lon="-0.85085">
        <ele>52.5</ele>
        <time>2020-06-16T16:49:15Z</time>
      </trkpt>
      <trkpt lat="49.35751" lon="-0.85083">
        <ele>52.4</ele>
        <time>2020-06-16T16:49:16Z</time>
      </trkpt>
      <trkpt lat="49.35755" lon="-0.85082">
        <ele>52.4</ele>
        <time>2020-06-16T16:49:17Z</time>
      </trkpt>
      <trkpt lat="49.35758" lon="-0.8508">
        <ele>52.4</ele>
        <time>2020-06-16T16:49:18Z</time>
      </trkpt>
      <trkpt lat="49.3576" lon="-0.85078">
        <ele>52.4</ele>
        <time>2020-06-16T16:49:19Z</time>
      </trkpt>
      <trkpt lat="49.35763" lon="-0.85075">
        <ele>52.4</ele>
        <time>2020-06-16T16:49:20Z</time>
      </trkpt>
      <trkpt lat="49.35766" lon="-0.85074">
        <ele>52.4</ele>
        <time>2020-06-16T16:49:21Z</time>
      </trkpt>
      <trkpt lat="49.3577" lon="-0.85072">
        <ele>52.5</ele>
        <time>2020-06-16T16:49:22Z</time>
      </trkpt>
      <trkpt lat="49.35773" lon="-0.85071">
        <ele>52.5</ele>
        <time>2020-06-16T16:49:23Z</time>
      </trkpt>
      <trkpt lat="49.35776" lon="-0.8507">
        <ele>52.5</ele>
        <time>2020-06-16T16:49:24Z</time>
      </trkpt>
      <trkpt lat="49.3578" lon="-0.85067">
        <ele>52.5</ele>
        <time>2020-06-16T16:49:25Z</time>
      </trkpt>
      <trkpt lat="49.35783" lon="-0.85066">
        <ele>52.5</ele>
        <time>2020-06-16T16:49:26Z</time>
      </trkpt>
      <trkpt lat="49.35788" lon="-0.85063">
        <ele>52.3</ele>
        <time>2020-06-16T16:49:27Z</time>
      </trkpt>
      <trkpt lat="49.35793" lon="-0.85061">
        <ele>52.1</ele>
        <time>2020-06-16T16:49:28Z</time>
      </trkpt>
      <trkpt lat="49.35798" lon="-0.85058">
        <ele>52</ele>
        <time>2020-06-16T16:49:29Z</time>
      </trkpt>
      <trkpt lat="49.35801" lon="-0.85057">
        <ele>51.9</ele>
        <time>2020-06-16T16:49:30Z</time>
      </trkpt>
      <trkpt lat="49.35804" lon="-0.85055">
        <ele>51.8</ele>
        <time>2020-06-16T16:49:31Z</time>
      </trkpt>
      <trkpt lat="49.35805" lon="-0.85055">
        <ele>51.8</ele>
        <time>2020-06-16T16:49:32Z</time>
      </trkpt>
      <trkpt lat="49.35809" lon="-0.85054">
        <ele>51.7</ele>
        <time>2020-06-16T16:49:33Z</time>
      </trkpt>
      <trkpt lat="49.3581" lon="-0.85054">
        <ele>51.7</ele>
        <time>2020-06-16T16:49:34Z</time>
      </trkpt>
      <trkpt lat="49.35813" lon="-0.85054">
        <ele>51.6</ele>
        <time>2020-06-16T16:49:35Z</time>
      </trkpt>
      <trkpt lat="49.35816" lon="-0.85053">
        <ele>51.6</ele>
        <time>2020-06-16T16:49:36Z</time>
      </trkpt>
      <trkpt lat="49.35818" lon="-0.8505">
        <ele>51.5</ele>
        <time>2020-06-16T16:49:37Z</time>
      </trkpt>
      <trkpt lat="49.35822" lon="-0.85048">
        <ele>51.4</ele>
        <time>2020-06-16T16:49:38Z</time>
      </trkpt>
      <trkpt lat="49.35823" lon="-0.85047">
        <ele>51.4</ele>
        <time>2020-06-16T16:49:39Z</time>
      </trkpt>
      <trkpt lat="49.35825" lon="-0.85047">
        <ele>51.3</ele>
        <time>2020-06-16T16:49:40Z</time>
      </trkpt>
      <trkpt lat="49.35829" lon="-0.85045">
        <ele>51.1</ele>
        <time>2020-06-16T16:49:41Z</time>
      </trkpt>
      <trkpt lat="49.3583" lon="-0.85044">
        <ele>51.1</ele>
        <time>2020-06-16T16:49:42Z</time>
      </trkpt>
      <trkpt lat="49.35834" lon="-0.85043">
        <ele>51</ele>
        <time>2020-06-16T16:49:43Z</time>
      </trkpt>
      <trkpt lat="49.35834" lon="-0.85042">
        <ele>50.9</ele>
        <time>2020-06-16T16:49:44Z</time>
      </trkpt>
      <trkpt lat="49.35836" lon="-0.8504">
        <ele>50.9</ele>
        <time>2020-06-16T16:49:45Z</time>
      </trkpt>
      <trkpt lat="49.35837" lon="-0.8504">
        <ele>50.9</ele>
        <time>2020-06-16T16:49:46Z</time>
      </trkpt>
      <trkpt lat="49.35837" lon="-0.8504">
        <ele>50.9</ele>
        <time>2020-06-16T16:49:47Z</time>
      </trkpt>
      <trkpt lat="49.35838" lon="-0.8504">
        <ele>50.9</ele>
        <time>2020-06-16T16:49:48Z</time>
      </trkpt>
      <trkpt lat="49.35839" lon="-0.8504">
        <ele>51</ele>
        <time>2020-06-16T16:49:49Z</time>
      </trkpt>
      <trkpt lat="49.3584" lon="-0.85041">
        <ele>51</ele>
        <time>2020-06-16T16:49:50Z</time>
      </trkpt>
      <trkpt lat="49.3584" lon="-0.85041">
        <ele>51</ele>
        <time>2020-06-16T16:49:51Z</time>
      </trkpt>
      <trkpt lat="49.35842" lon="-0.85042">
        <ele>51.1</ele>
        <time>2020-06-16T16:49:52Z</time>
      </trkpt>
      <trkpt lat="49.35843" lon="-0.85042">
        <ele>51.1</ele>
        <time>2020-06-16T16:49:53Z</time>
      </trkpt>
      <trkpt lat="49.35844" lon="-0.85042">
        <ele>51.1</ele>
        <time>2020-06-16T16:49:54Z</time>
      </trkpt>
      <trkpt lat="49.35843" lon="-0.85043">
        <ele>51.2</ele>
        <time>2020-06-16T16:49:55Z</time>
      </trkpt>
      <trkpt lat="49.35841" lon="-0.85043">
        <ele>51.2</ele>
        <time>2020-06-16T16:49:56Z</time>
      </trkpt>
      <trkpt lat="49.3584" lon="-0.85043">
        <ele>51.2</ele>
        <time>2020-06-16T16:49:57Z</time>
      </trkpt>
      <trkpt lat="49.35838" lon="-0.85043">
        <ele>51.3</ele>
        <time>2020-06-16T16:49:58Z</time>
      </trkpt>
      <trkpt lat="49.35837" lon="-0.85044">
        <ele>51.3</ele>
        <time>2020-06-16T16:52:30Z</time>
      </trkpt>
      <trkpt lat="49.35836" lon="-0.85044">
        <ele>51.3</ele>
        <time>2020-06-16T16:52:31Z</time>
      </trkpt>
      <trkpt lat="49.35832" lon="-0.85043">
        <ele>51.4</ele>
        <time>2020-06-16T16:52:32Z</time>
      </trkpt>
      <trkpt lat="49.35831" lon="-0.85043">
        <ele>51.4</ele>
        <time>2020-06-16T16:52:33Z</time>
      </trkpt>
      <trkpt lat="49.35827" lon="-0.85043">
        <ele>51.5</ele>
        <time>2020-06-16T16:52:34Z</time>
      </trkpt>
      <trkpt lat="49.35824" lon="-0.85043">
        <ele>51.6</ele>
        <time>2020-06-16T16:52:35Z</time>
      </trkpt>
      <trkpt lat="49.35822" lon="-0.85045">
        <ele>51.6</ele>
        <time>2020-06-16T16:52:36Z</time>
      </trkpt>
      <trkpt lat="49.35818" lon="-0.85046">
        <ele>51.7</ele>
        <time>2020-06-16T16:52:37Z</time>
      </trkpt>
      <trkpt lat="49.35817" lon="-0.85046">
        <ele>51.7</ele>
        <time>2020-06-16T16:52:38Z</time>
      </trkpt>
      <trkpt lat="49.35814" lon="-0.85047">
        <ele>51.7</ele>
        <time>2020-06-16T16:52:39Z</time>
      </trkpt>
      <trkpt lat="49.35813" lon="-0.85048">
        <ele>51.7</ele>
        <time>2020-06-16T16:52:40Z</time>
      </trkpt>
      <trkpt lat="49.3581" lon="-0.8505">
        <ele>51.8</ele>
        <time>2020-06-16T16:52:41Z</time>
      </trkpt>
      <trkpt lat="49.35805" lon="-0.85051">
        <ele>51.9</ele>
        <time>2020-06-16T16:52:42Z</time>
      </trkpt>
      <trkpt lat="49.358" lon="-0.85053">
        <ele>52</ele>
        <time>2020-06-16T16:52:43Z</time>
      </trkpt>
      <trkpt lat="49.35795" lon="-0.85054">
        <ele>52.1</ele>
        <time>2020-06-16T16:52:44Z</time>
      </trkpt>
      <trkpt lat="49.35791" lon="-0.85054">
        <ele>52.1</ele>
        <time>2020-06-16T16:52:45Z</time>
      </trkpt>
      <trkpt lat="49.35786" lon="-0.85055">
        <ele>52.5</ele>
        <time>2020-06-16T16:52:46Z</time>
      </trkpt>
      <trkpt lat="49.35782" lon="-0.85058">
        <ele>52.5</ele>
        <time>2020-06-16T16:52:47Z</time>
      </trkpt>
      <trkpt lat="49.35778" lon="-0.85061">
        <ele>52.5</ele>
        <time>2020-06-16T16:52:48Z</time>
      </trkpt>
      <trkpt lat="49.35774" lon="-0.85063">
        <ele>52.5</ele>
        <time>2020-06-16T16:52:49Z</time>
      </trkpt>
      <trkpt lat="49.3577" lon="-0.85065">
        <ele>52.4</ele>
        <time>2020-06-16T16:52:50Z</time>
      </trkpt>
      <trkpt lat="49.35766" lon="-0.85068">
        <ele>52.4</ele>
        <time>2020-06-16T16:52:51Z</time>
      </trkpt>
      <trkpt lat="49.35761" lon="-0.8507">
        <ele>52.4</ele>
        <time>2020-06-16T16:52:52Z</time>
      </trkpt>
      <trkpt lat="49.35756" lon="-0.8507">
        <ele>52.4</ele>
        <time>2020-06-16T16:52:53Z</time>
      </trkpt>
      <trkpt lat="49.35751" lon="-0.85071">
        <ele>52.4</ele>
        <time>2020-06-16T16:52:54Z</time>
      </trkpt>
      <trkpt lat="49.35747" lon="-0.85073">
        <ele>52.4</ele>
        <time>2020-06-16T16:52:55Z</time>
      </trkpt>
      <trkpt lat="49.35742" lon="-0.85075">
        <ele>52.5</ele>
        <time>2020-06-16T16:52:56Z</time>
      </trkpt>
      <trkpt lat="49.35738" lon="-0.85078">
        <ele>52.5</ele>
        <time>2020-06-16T16:52:57Z</time>
      </trkpt>
      <trkpt lat="49.35733" lon="-0.8508">
        <ele>52.6</ele>
        <time>2020-06-16T16:52:58Z</time>
      </trkpt>
      <trkpt lat="49.35728" lon="-0.85082">
        <ele>52.7</ele>
        <time>2020-06-16T16:52:59Z</time>
      </trkpt>
      <trkpt lat="49.35724" lon="-0.85083">
        <ele>52.8</ele>
        <time>2020-06-16T16:53:00Z</time>
      </trkpt>
      <trkpt lat="49.35719" lon="-0.85085">
        <ele>52.9</ele>
        <time>2020-06-16T16:53:01Z</time>
      </trkpt>
      <trkpt lat="49.35715" lon="-0.85087">
        <ele>53</ele>
        <time>2020-06-16T16:53:02Z</time>
      </trkpt>
      <trkpt lat="49.35711" lon="-0.85089">
        <ele>53</ele>
        <time>2020-06-16T16:53:03Z</time>
      </trkpt>
      <trkpt lat="49.35706" lon="-0.85091">
        <ele>53.1</ele>
        <time>2020-06-16T16:53:04Z</time>
      </trkpt>
      <trkpt lat="49.35702" lon="-0.85092">
        <ele>53.1</ele>
        <time>2020-06-16T16:53:05Z</time>
      </trkpt>
      <trkpt lat="49.35698" lon="-0.85094">
        <ele>53.2</ele>
        <time>2020-06-16T16:53:06Z</time>
      </trkpt>
      <trkpt lat="49.35693" lon="-0.85096">
        <ele>53.2</ele>
        <time>2020-06-16T16:53:07Z</time>
      </trkpt>
      <trkpt lat="49.3569" lon="-0.85098">
        <ele>53.2</ele>
        <time>2020-06-16T16:53:08Z</time>
      </trkpt>
      <trkpt lat="49.35685" lon="-0.85099">
        <ele>53.3</ele>
        <time>2020-06-16T16:53:09Z</time>
      </trkpt>
      <trkpt lat="49.35681" lon="-0.85101">
        <ele>53.3</ele>
        <time>2020-06-16T16:53:10Z</time>
      </trkpt>
      <trkpt lat="49.35676" lon="-0.85102">
        <ele>53.3</ele>
        <time>2020-06-16T16:53:11Z</time>
      </trkpt>
      <trkpt lat="49.35672" lon="-0.85104">
        <ele>53.3</ele>
        <time>2020-06-16T16:53:12Z</time>
      </trkpt>
      <trkpt lat="49.35667" lon="-0.85106">
        <ele>53.3</ele>
        <time>2020-06-16T16:53:13Z</time>
      </trkpt>
      <trkpt lat="49.35663" lon="-0.85107">
        <ele>53.4</ele>
        <time>2020-06-16T16:53:14Z</time>
      </trkpt>
      <trkpt lat="49.35659" lon="-0.85108">
        <ele>53.4</ele>
        <time>2020-06-16T16:53:15Z</time>
      </trkpt>
      <trkpt lat="49.35654" lon="-0.85109">
        <ele>53.4</ele>
        <time>2020-06-16T16:53:16Z</time>
      </trkpt>
      <trkpt lat="49.35648" lon="-0.8511">
        <ele>53.5</ele>
        <time>2020-06-16T16:53:17Z</time>
      </trkpt>
      <trkpt lat="49.35642" lon="-0.85111">
        <ele>53.5</ele>
        <time>2020-06-16T16:53:18Z</time>
      </trkpt>
      <trkpt lat="49.35637" lon="-0.85112">
        <ele>53.5</ele>
        <time>2020-06-16T16:53:19Z</time>
      </trkpt>
      <trkpt lat="49.35633" lon="-0.85113">
        <ele>53.5</ele>
        <time>2020-06-16T16:53:20Z</time>
      </trkpt>
      <trkpt lat="49.35628" lon="-0.85114">
        <ele>53.5</ele>
        <time>2020-06-16T16:53:21Z</time>
      </trkpt>
      <trkpt lat="49.35623" lon="-0.85116">
        <ele>53.5</ele>
        <time>2020-06-16T16:53:22Z</time>
      </trkpt>
      <trkpt lat="49.35619" lon="-0.85117">
        <ele>53.5</ele>
        <time>2020-06-16T16:53:23Z</time>
      </trkpt>
      <trkpt lat="49.35614" lon="-0.85118">
        <ele>53.4</ele>
        <time>2020-06-16T16:53:24Z</time>
      </trkpt>
      <trkpt lat="49.35609" lon="-0.85119">
        <ele>53.4</ele>
        <time>2020-06-16T16:53:25Z</time>
      </trkpt>
      <trkpt lat="49.35604" lon="-0.8512">
        <ele>53.4</ele>
        <time>2020-06-16T16:53:26Z</time>
      </trkpt>
      <trkpt lat="49.35599" lon="-0.85122">
        <ele>53.4</ele>
        <time>2020-06-16T16:53:27Z</time>
      </trkpt>
      <trkpt lat="49.35595" lon="-0.85123">
        <ele>53.3</ele>
        <time>2020-06-16T16:53:28Z</time>
      </trkpt>
      <trkpt lat="49.3559" lon="-0.85125">
        <ele>53.3</ele>
        <time>2020-06-16T16:53:29Z</time>
      </trkpt>
      <trkpt lat="49.35585" lon="-0.85126">
        <ele>53.3</ele>
        <time>2020-06-16T16:53:30Z</time>
      </trkpt>
      <trkpt lat="49.3558" lon="-0.85127">
        <ele>53.3</ele>
        <time>2020-06-16T16:53:31Z</time>
      </trkpt>
      <trkpt lat="49.35575" lon="-0.85129">
        <ele>53.3</ele>
        <time>2020-06-16T16:53:32Z</time>
      </trkpt>
      <trkpt lat="49.3557" lon="-0.85131">
        <ele>53.2</ele>
        <time>2020-06-16T16:53:33Z</time>
      </trkpt>
      <trkpt lat="49.35565" lon="-0.85132">
        <ele>53.2</ele>
        <time>2020-06-16T16:53:34Z</time>
      </trkpt>
      <trkpt lat="49.3556" lon="-0.85133">
        <ele>53.2</ele>
        <time>2020-06-16T16:53:35Z</time>
      </trkpt>
      <trkpt lat="49.35555" lon="-0.85135">
        <ele>53.2</ele>
        <time>2020-06-16T16:53:36Z</time>
      </trkpt>
      <trkpt lat="49.35549" lon="-0.85137">
        <ele>53.2</ele>
        <time>2020-06-16T16:53:37Z</time>
      </trkpt>
      <trkpt lat="49.35544" lon="-0.85139">
        <ele>53.3</ele>
        <time>2020-06-16T16:53:38Z</time>
      </trkpt>
      <trkpt lat="49.35539" lon="-0.85143">
        <ele>53.3</ele>
        <time>2020-06-16T16:53:39Z</time>
      </trkpt>
      <trkpt lat="49.35536" lon="-0.85147">
        <ele>53.4</ele>
        <time>2020-06-16T16:53:40Z</time>
      </trkpt>
      <trkpt lat="49.35533" lon="-0.85151">
        <ele>53.5</ele>
        <time>2020-06-16T16:53:41Z</time>
      </trkpt>
      <trkpt lat="49.3553" lon="-0.85156">
        <ele>53.5</ele>
        <time>2020-06-16T16:53:42Z</time>
      </trkpt>
      <trkpt lat="49.35529" lon="-0.85161">
        <ele>53.6</ele>
        <time>2020-06-16T16:53:43Z</time>
      </trkpt>
      <trkpt lat="49.35527" lon="-0.85166">
        <ele>53.7</ele>
        <time>2020-06-16T16:53:44Z</time>
      </trkpt>
      <trkpt lat="49.35527" lon="-0.85171">
        <ele>53.8</ele>
        <time>2020-06-16T16:53:45Z</time>
      </trkpt>
      <trkpt lat="49.35527" lon="-0.85173">
        <ele>53.9</ele>
        <time>2020-06-16T16:53:46Z</time>
      </trkpt>
      <trkpt lat="49.35527" lon="-0.85178">
        <ele>54</ele>
        <time>2020-06-16T16:53:47Z</time>
      </trkpt>
      <trkpt lat="49.35528" lon="-0.85183">
        <ele>54.1</ele>
        <time>2020-06-16T16:53:48Z</time>
      </trkpt>
      <trkpt lat="49.35529" lon="-0.85189">
        <ele>54.3</ele>
        <time>2020-06-16T16:53:49Z</time>
      </trkpt>
      <trkpt lat="49.3553" lon="-0.85195">
        <ele>54.4</ele>
        <time>2020-06-16T16:53:50Z</time>
      </trkpt>
      <trkpt lat="49.3553" lon="-0.85201">
        <ele>54.6</ele>
        <time>2020-06-16T16:53:51Z</time>
      </trkpt>
      <trkpt lat="49.35531" lon="-0.85206">
        <ele>54.7</ele>
        <time>2020-06-16T16:53:52Z</time>
      </trkpt>
      <trkpt lat="49.35532" lon="-0.85212">
        <ele>54.9</ele>
        <time>2020-06-16T16:53:53Z</time>
      </trkpt>
      <trkpt lat="49.35532" lon="-0.85216">
        <ele>55</ele>
        <time>2020-06-16T16:53:54Z</time>
      </trkpt>
      <trkpt lat="49.35531" lon="-0.85222">
        <ele>55.2</ele>
        <time>2020-06-16T16:53:55Z</time>
      </trkpt>
      <trkpt lat="49.35531" lon="-0.85227">
        <ele>55.4</ele>
        <time>2020-06-16T16:53:56Z</time>
      </trkpt>
      <trkpt lat="49.35531" lon="-0.85233">
        <ele>55.5</ele>
        <time>2020-06-16T16:53:57Z</time>
      </trkpt>
      <trkpt lat="49.35531" lon="-0.85238">
        <ele>55.6</ele>
        <time>2020-06-16T16:53:58Z</time>
      </trkpt>
      <trkpt lat="49.3553" lon="-0.85246">
        <ele>55.8</ele>
        <time>2020-06-16T16:53:59Z</time>
      </trkpt>
      <trkpt lat="49.35528" lon="-0.85253">
        <ele>56</ele>
        <time>2020-06-16T16:54:00Z</time>
      </trkpt>
      <trkpt lat="49.35525" lon="-0.8526">
        <ele>56.1</ele>
        <time>2020-06-16T16:54:01Z</time>
      </trkpt>
      <trkpt lat="49.35523" lon="-0.85264">
        <ele>56.3</ele>
        <time>2020-06-16T16:54:02Z</time>
      </trkpt>
      <trkpt lat="49.35519" lon="-0.85268">
        <ele>56.4</ele>
        <time>2020-06-16T16:54:03Z</time>
      </trkpt>
      <trkpt lat="49.35516" lon="-0.85271">
        <ele>56.5</ele>
        <time>2020-06-16T16:54:04Z</time>
      </trkpt>
      <trkpt lat="49.35512" lon="-0.85274">
        <ele>56.6</ele>
        <time>2020-06-16T16:54:05Z</time>
      </trkpt>
      <trkpt lat="49.35508" lon="-0.85276">
        <ele>56.7</ele>
        <time>2020-06-16T16:54:06Z</time>
      </trkpt>
      <trkpt lat="49.35504" lon="-0.85277">
        <ele>56.8</ele>
        <time>2020-06-16T16:54:07Z</time>
      </trkpt>
      <trkpt lat="49.35501" lon="-0.85279">
        <ele>56.8</ele>
        <time>2020-06-16T16:54:08Z</time>
      </trkpt>
      <trkpt lat="49.35497" lon="-0.85279">
        <ele>56.8</ele>
        <time>2020-06-16T16:54:09Z</time>
      </trkpt>
      <trkpt lat="49.35493" lon="-0.85281">
        <ele>57.1</ele>
        <time>2020-06-16T16:54:10Z</time>
      </trkpt>
      <trkpt lat="49.35489" lon="-0.85282">
        <ele>57.1</ele>
        <time>2020-06-16T16:54:11Z</time>
      </trkpt>
      <trkpt lat="49.35484" lon="-0.85282">
        <ele>57.2</ele>
        <time>2020-06-16T16:54:12Z</time>
      </trkpt>
      <trkpt lat="49.35479" lon="-0.85282">
        <ele>57.2</ele>
        <time>2020-06-16T16:54:13Z</time>
      </trkpt>
      <trkpt lat="49.35474" lon="-0.85283">
        <ele>57.3</ele>
        <time>2020-06-16T16:54:14Z</time>
      </trkpt>
      <trkpt lat="49.3547" lon="-0.85283">
        <ele>57.4</ele>
        <time>2020-06-16T16:54:15Z</time>
      </trkpt>
      <trkpt lat="49.35465" lon="-0.85284">
        <ele>57.4</ele>
        <time>2020-06-16T16:54:16Z</time>
      </trkpt>
      <trkpt lat="49.35461" lon="-0.85285">
        <ele>57.5</ele>
        <time>2020-06-16T16:54:17Z</time>
      </trkpt>
      <trkpt lat="49.35456" lon="-0.85285">
        <ele>57.5</ele>
        <time>2020-06-16T16:54:18Z</time>
      </trkpt>
      <trkpt lat="49.35451" lon="-0.85286">
        <ele>57.5</ele>
        <time>2020-06-16T16:54:19Z</time>
      </trkpt>
      <trkpt lat="49.35446" lon="-0.85286">
        <ele>57.6</ele>
        <time>2020-06-16T16:54:20Z</time>
      </trkpt>
      <trkpt lat="49.35441" lon="-0.85286">
        <ele>57.6</ele>
        <time>2020-06-16T16:54:21Z</time>
      </trkpt>
      <trkpt lat="49.35437" lon="-0.85286">
        <ele>57.6</ele>
        <time>2020-06-16T16:54:22Z</time>
      </trkpt>
      <trkpt lat="49.35431" lon="-0.85284">
        <ele>57.6</ele>
        <time>2020-06-16T16:54:23Z</time>
      </trkpt>
      <trkpt lat="49.35426" lon="-0.85284">
        <ele>57.6</ele>
        <time>2020-06-16T16:54:24Z</time>
      </trkpt>
      <trkpt lat="49.3542" lon="-0.85284">
        <ele>57.7</ele>
        <time>2020-06-16T16:54:25Z</time>
      </trkpt>
      <trkpt lat="49.35415" lon="-0.85284">
        <ele>57.7</ele>
        <time>2020-06-16T16:54:26Z</time>
      </trkpt>
      <trkpt lat="49.3541" lon="-0.85283">
        <ele>57.7</ele>
        <time>2020-06-16T16:54:27Z</time>
      </trkpt>
      <trkpt lat="49.35404" lon="-0.85282">
        <ele>57.7</ele>
        <time>2020-06-16T16:54:28Z</time>
      </trkpt>
      <trkpt lat="49.35399" lon="-0.85281">
        <ele>57.7</ele>
        <time>2020-06-16T16:54:29Z</time>
      </trkpt>
      <trkpt lat="49.35394" lon="-0.8528">
        <ele>57.7</ele>
        <time>2020-06-16T16:54:30Z</time>
      </trkpt>
      <trkpt lat="49.35389" lon="-0.85279">
        <ele>57.8</ele>
        <time>2020-06-16T16:54:31Z</time>
      </trkpt>
      <trkpt lat="49.35385" lon="-0.85277">
        <ele>57.8</ele>
        <time>2020-06-16T16:54:32Z</time>
      </trkpt>
      <trkpt lat="49.35379" lon="-0.85277">
        <ele>57.8</ele>
        <time>2020-06-16T16:54:33Z</time>
      </trkpt>
      <trkpt lat="49.35374" lon="-0.85275">
        <ele>57.9</ele>
        <time>2020-06-16T16:54:34Z</time>
      </trkpt>
      <trkpt lat="49.35369" lon="-0.85274">
        <ele>58</ele>
        <time>2020-06-16T16:54:35Z</time>
      </trkpt>
      <trkpt lat="49.35363" lon="-0.85273">
        <ele>58</ele>
        <time>2020-06-16T16:54:36Z</time>
      </trkpt>
      <trkpt lat="49.35358" lon="-0.85272">
        <ele>58.1</ele>
        <time>2020-06-16T16:54:37Z</time>
      </trkpt>
      <trkpt lat="49.35354" lon="-0.85272">
        <ele>58.2</ele>
        <time>2020-06-16T16:54:38Z</time>
      </trkpt>
      <trkpt lat="49.35349" lon="-0.8527">
        <ele>58.2</ele>
        <time>2020-06-16T16:54:39Z</time>
      </trkpt>
      <trkpt lat="49.35344" lon="-0.85271">
        <ele>58.3</ele>
        <time>2020-06-16T16:54:40Z</time>
      </trkpt>
      <trkpt lat="49.35338" lon="-0.85271">
        <ele>58.3</ele>
        <time>2020-06-16T16:54:41Z</time>
      </trkpt>
      <trkpt lat="49.35332" lon="-0.85269">
        <ele>58.4</ele>
        <time>2020-06-16T16:54:42Z</time>
      </trkpt>
      <trkpt lat="49.35326" lon="-0.85268">
        <ele>58.5</ele>
        <time>2020-06-16T16:54:43Z</time>
      </trkpt>
      <trkpt lat="49.3532" lon="-0.85269">
        <ele>58.5</ele>
        <time>2020-06-16T16:54:44Z</time>
      </trkpt>
      <trkpt lat="49.35314" lon="-0.8527">
        <ele>58.6</ele>
        <time>2020-06-16T16:54:45Z</time>
      </trkpt>
      <trkpt lat="49.35308" lon="-0.85271">
        <ele>58.7</ele>
        <time>2020-06-16T16:54:46Z</time>
      </trkpt>
      <trkpt lat="49.35304" lon="-0.85271">
        <ele>58.7</ele>
        <time>2020-06-16T16:54:47Z</time>
      </trkpt>
      <trkpt lat="49.35299" lon="-0.85273">
        <ele>58.8</ele>
        <time>2020-06-16T16:54:48Z</time>
      </trkpt>
      <trkpt lat="49.35294" lon="-0.85274">
        <ele>58.9</ele>
        <time>2020-06-16T16:54:49Z</time>
      </trkpt>
      <trkpt lat="49.3529" lon="-0.85274">
        <ele>58.9</ele>
        <time>2020-06-16T16:54:50Z</time>
      </trkpt>
      <trkpt lat="49.35286" lon="-0.85275">
        <ele>59</ele>
        <time>2020-06-16T16:54:51Z</time>
      </trkpt>
      <trkpt lat="49.35282" lon="-0.85276">
        <ele>59.1</ele>
        <time>2020-06-16T16:54:52Z</time>
      </trkpt>
      <trkpt lat="49.35278" lon="-0.85278">
        <ele>59.1</ele>
        <time>2020-06-16T16:54:53Z</time>
      </trkpt>
      <trkpt lat="49.35274" lon="-0.85284">
        <ele>59.2</ele>
        <time>2020-06-16T16:54:54Z</time>
      </trkpt>
      <trkpt lat="49.35268" lon="-0.85288">
        <ele>59.3</ele>
        <time>2020-06-16T16:54:55Z</time>
      </trkpt>
      <trkpt lat="49.35264" lon="-0.85291">
        <ele>59.4</ele>
        <time>2020-06-16T16:54:56Z</time>
      </trkpt>
      <trkpt lat="49.35259" lon="-0.85294">
        <ele>59.5</ele>
        <time>2020-06-16T16:54:57Z</time>
      </trkpt>
      <trkpt lat="49.35255" lon="-0.85297">
        <ele>59.6</ele>
        <time>2020-06-16T16:54:58Z</time>
      </trkpt>
      <trkpt lat="49.3525" lon="-0.85299">
        <ele>59.7</ele>
        <time>2020-06-16T16:54:59Z</time>
      </trkpt>
      <trkpt lat="49.35246" lon="-0.853">
        <ele>59.8</ele>
        <time>2020-06-16T16:55:00Z</time>
      </trkpt>
      <trkpt lat="49.35241" lon="-0.85303">
        <ele>59.9</ele>
        <time>2020-06-16T16:55:01Z</time>
      </trkpt>
      <trkpt lat="49.35236" lon="-0.85306">
        <ele>60</ele>
        <time>2020-06-16T16:55:02Z</time>
      </trkpt>
      <trkpt lat="49.3523" lon="-0.85309">
        <ele>60.1</ele>
        <time>2020-06-16T16:55:03Z</time>
      </trkpt>
      <trkpt lat="49.35224" lon="-0.85312">
        <ele>60.2</ele>
        <time>2020-06-16T16:55:04Z</time>
      </trkpt>
      <trkpt lat="49.35217" lon="-0.85315">
        <ele>60.4</ele>
        <time>2020-06-16T16:55:05Z</time>
      </trkpt>
      <trkpt lat="49.35212" lon="-0.8532">
        <ele>60.5</ele>
        <time>2020-06-16T16:55:06Z</time>
      </trkpt>
      <trkpt lat="49.35207" lon="-0.85323">
        <ele>60.7</ele>
        <time>2020-06-16T16:55:07Z</time>
      </trkpt>
      <trkpt lat="49.35202" lon="-0.85324">
        <ele>60.8</ele>
        <time>2020-06-16T16:55:08Z</time>
      </trkpt>
      <trkpt lat="49.35197" lon="-0.85326">
        <ele>60.9</ele>
        <time>2020-06-16T16:55:09Z</time>
      </trkpt>
      <trkpt lat="49.35191" lon="-0.85328">
        <ele>61</ele>
        <time>2020-06-16T16:55:10Z</time>
      </trkpt>
      <trkpt lat="49.35187" lon="-0.85329">
        <ele>61.1</ele>
        <time>2020-06-16T16:55:11Z</time>
      </trkpt>
      <trkpt lat="49.35183" lon="-0.8533">
        <ele>61.2</ele>
        <time>2020-06-16T16:55:12Z</time>
      </trkpt>
      <trkpt lat="49.35178" lon="-0.85333">
        <ele>61.3</ele>
        <time>2020-06-16T16:55:13Z</time>
      </trkpt>
      <trkpt lat="49.35172" lon="-0.85338">
        <ele>61.4</ele>
        <time>2020-06-16T16:55:14Z</time>
      </trkpt>
      <trkpt lat="49.35167" lon="-0.85339">
        <ele>61.4</ele>
        <time>2020-06-16T16:55:15Z</time>
      </trkpt>
      <trkpt lat="49.35163" lon="-0.85343">
        <ele>61.5</ele>
        <time>2020-06-16T16:55:16Z</time>
      </trkpt>
      <trkpt lat="49.35158" lon="-0.85346">
        <ele>61.6</ele>
        <time>2020-06-16T16:55:17Z</time>
      </trkpt>
      <trkpt lat="49.35153" lon="-0.85349">
        <ele>61.7</ele>
        <time>2020-06-16T16:55:18Z</time>
      </trkpt>
      <trkpt lat="49.35148" lon="-0.85354">
        <ele>61.8</ele>
        <time>2020-06-16T16:55:19Z</time>
      </trkpt>
      <trkpt lat="49.35143" lon="-0.85358">
        <ele>61.9</ele>
        <time>2020-06-16T16:55:20Z</time>
      </trkpt>
      <trkpt lat="49.35138" lon="-0.85362">
        <ele>62</ele>
        <time>2020-06-16T16:55:21Z</time>
      </trkpt>
      <trkpt lat="49.35134" lon="-0.85364">
        <ele>62.1</ele>
        <time>2020-06-16T16:55:22Z</time>
      </trkpt>
      <trkpt lat="49.35129" lon="-0.85367">
        <ele>62.2</ele>
        <time>2020-06-16T16:55:23Z</time>
      </trkpt>
      <trkpt lat="49.35125" lon="-0.85369">
        <ele>62.2</ele>
        <time>2020-06-16T16:55:24Z</time>
      </trkpt>
      <trkpt lat="49.3512" lon="-0.85371">
        <ele>62.3</ele>
        <time>2020-06-16T16:55:25Z</time>
      </trkpt>
      <trkpt lat="49.35115" lon="-0.85373">
        <ele>62.4</ele>
        <time>2020-06-16T16:55:26Z</time>
      </trkpt>
      <trkpt lat="49.35111" lon="-0.85375">
        <ele>62.4</ele>
        <time>2020-06-16T16:55:27Z</time>
      </trkpt>
      <trkpt lat="49.35106" lon="-0.85378">
        <ele>62.5</ele>
        <time>2020-06-16T16:55:28Z</time>
      </trkpt>
      <trkpt lat="49.35101" lon="-0.85382">
        <ele>62.6</ele>
        <time>2020-06-16T16:55:29Z</time>
      </trkpt>
      <trkpt lat="49.35095" lon="-0.85384">
        <ele>62.7</ele>
        <time>2020-06-16T16:55:30Z</time>
      </trkpt>
      <trkpt lat="49.3509" lon="-0.85387">
        <ele>62.7</ele>
        <time>2020-06-16T16:55:31Z</time>
      </trkpt>
      <trkpt lat="49.35084" lon="-0.85389">
        <ele>62.8</ele>
        <time>2020-06-16T16:55:32Z</time>
      </trkpt>
      <trkpt lat="49.35079" lon="-0.85391">
        <ele>62.8</ele>
        <time>2020-06-16T16:55:33Z</time>
      </trkpt>
      <trkpt lat="49.35075" lon="-0.85393">
        <ele>62.9</ele>
        <time>2020-06-16T16:55:34Z</time>
      </trkpt>
      <trkpt lat="49.35068" lon="-0.85396">
        <ele>62.9</ele>
        <time>2020-06-16T16:55:35Z</time>
      </trkpt>
      <trkpt lat="49.35063" lon="-0.85398">
        <ele>63</ele>
        <time>2020-06-16T16:55:36Z</time>
      </trkpt>
      <trkpt lat="49.35059" lon="-0.854">
        <ele>63</ele>
        <time>2020-06-16T16:55:37Z</time>
      </trkpt>
      <trkpt lat="49.35054" lon="-0.85401">
        <ele>63.1</ele>
        <time>2020-06-16T16:55:38Z</time>
      </trkpt>
      <trkpt lat="49.35049" lon="-0.85404">
        <ele>63.2</ele>
        <time>2020-06-16T16:55:39Z</time>
      </trkpt>
      <trkpt lat="49.35043" lon="-0.85406">
        <ele>63.2</ele>
        <time>2020-06-16T16:55:40Z</time>
      </trkpt>
      <trkpt lat="49.35038" lon="-0.85409">
        <ele>63.3</ele>
        <time>2020-06-16T16:55:41Z</time>
      </trkpt>
      <trkpt lat="49.35032" lon="-0.85412">
        <ele>63.4</ele>
        <time>2020-06-16T16:55:42Z</time>
      </trkpt>
      <trkpt lat="49.35026" lon="-0.85415">
        <ele>63.5</ele>
        <time>2020-06-16T16:55:43Z</time>
      </trkpt>
      <trkpt lat="49.35021" lon="-0.85419">
        <ele>63.6</ele>
        <time>2020-06-16T16:55:44Z</time>
      </trkpt>
      <trkpt lat="49.35016" lon="-0.85423">
        <ele>63.7</ele>
        <time>2020-06-16T16:55:45Z</time>
      </trkpt>
      <trkpt lat="49.3501" lon="-0.85426">
        <ele>63.8</ele>
        <time>2020-06-16T16:55:46Z</time>
      </trkpt>
      <trkpt lat="49.35005" lon="-0.85429">
        <ele>63.9</ele>
        <time>2020-06-16T16:55:47Z</time>
      </trkpt>
      <trkpt lat="49.35" lon="-0.85431">
        <ele>64</ele>
        <time>2020-06-16T16:55:48Z</time>
      </trkpt>
      <trkpt lat="49.34995" lon="-0.85433">
        <ele>64.2</ele>
        <time>2020-06-16T16:55:49Z</time>
      </trkpt>
      <trkpt lat="49.34991" lon="-0.85434">
        <ele>64.3</ele>
        <time>2020-06-16T16:55:50Z</time>
      </trkpt>
      <trkpt lat="49.34986" lon="-0.85436">
        <ele>64.4</ele>
        <time>2020-06-16T16:55:51Z</time>
      </trkpt>
      <trkpt lat="49.34981" lon="-0.85438">
        <ele>64.5</ele>
        <time>2020-06-16T16:55:52Z</time>
      </trkpt>
      <trkpt lat="49.34976" lon="-0.8544">
        <ele>64.6</ele>
        <time>2020-06-16T16:55:53Z</time>
      </trkpt>
      <trkpt lat="49.34972" lon="-0.85442">
        <ele>64.8</ele>
        <time>2020-06-16T16:55:54Z</time>
      </trkpt>
      <trkpt lat="49.34966" lon="-0.85446">
        <ele>64.9</ele>
        <time>2020-06-16T16:55:55Z</time>
      </trkpt>
      <trkpt lat="49.34962" lon="-0.85447">
        <ele>65</ele>
        <time>2020-06-16T16:55:56Z</time>
      </trkpt>
      <trkpt lat="49.34956" lon="-0.85449">
        <ele>65.1</ele>
        <time>2020-06-16T16:55:57Z</time>
      </trkpt>
      <trkpt lat="49.34952" lon="-0.85451">
        <ele>65.1</ele>
        <time>2020-06-16T16:55:58Z</time>
      </trkpt>
      <trkpt lat="49.34948" lon="-0.85454">
        <ele>65.2</ele>
        <time>2020-06-16T16:55:59Z</time>
      </trkpt>
      <trkpt lat="49.34942" lon="-0.85458">
        <ele>65.2</ele>
        <time>2020-06-16T16:56:00Z</time>
      </trkpt>
      <trkpt lat="49.34936" lon="-0.85462">
        <ele>65.3</ele>
        <time>2020-06-16T16:56:01Z</time>
      </trkpt>
      <trkpt lat="49.34929" lon="-0.85465">
        <ele>65.3</ele>
        <time>2020-06-16T16:56:02Z</time>
      </trkpt>
      <trkpt lat="49.34922" lon="-0.85469">
        <ele>65.3</ele>
        <time>2020-06-16T16:56:03Z</time>
      </trkpt>
      <trkpt lat="49.34914" lon="-0.85471">
        <ele>65.3</ele>
        <time>2020-06-16T16:56:04Z</time>
      </trkpt>
      <trkpt lat="49.34908" lon="-0.85473">
        <ele>65.3</ele>
        <time>2020-06-16T16:56:05Z</time>
      </trkpt>
      <trkpt lat="49.34903" lon="-0.85474">
        <ele>65.3</ele>
        <time>2020-06-16T16:56:06Z</time>
      </trkpt>
      <trkpt lat="49.34898" lon="-0.85475">
        <ele>65.2</ele>
        <time>2020-06-16T16:56:07Z</time>
      </trkpt>
      <trkpt lat="49.34892" lon="-0.85477">
        <ele>65.2</ele>
        <time>2020-06-16T16:56:08Z</time>
      </trkpt>
      <trkpt lat="49.34886" lon="-0.85478">
        <ele>65.1</ele>
        <time>2020-06-16T16:56:09Z</time>
      </trkpt>
      <trkpt lat="49.34881" lon="-0.85479">
        <ele>65</ele>
        <time>2020-06-16T16:56:10Z</time>
      </trkpt>
      <trkpt lat="49.34876" lon="-0.85481">
        <ele>64.9</ele>
        <time>2020-06-16T16:56:11Z</time>
      </trkpt>
      <trkpt lat="49.3487" lon="-0.85483">
        <ele>64.8</ele>
        <time>2020-06-16T16:56:12Z</time>
      </trkpt>
      <trkpt lat="49.34865" lon="-0.85482">
        <ele>64.8</ele>
        <time>2020-06-16T16:56:13Z</time>
      </trkpt>
      <trkpt lat="49.3486" lon="-0.85484">
        <ele>64.7</ele>
        <time>2020-06-16T16:56:14Z</time>
      </trkpt>
      <trkpt lat="49.34855" lon="-0.85485">
        <ele>64.6</ele>
        <time>2020-06-16T16:56:15Z</time>
      </trkpt>
      <trkpt lat="49.34849" lon="-0.85486">
        <ele>64.6</ele>
        <time>2020-06-16T16:56:16Z</time>
      </trkpt>
      <trkpt lat="49.34845" lon="-0.85489">
        <ele>64.5</ele>
        <time>2020-06-16T16:56:17Z</time>
      </trkpt>
      <trkpt lat="49.34841" lon="-0.85493">
        <ele>64.5</ele>
        <time>2020-06-16T16:56:18Z</time>
      </trkpt>
      <trkpt lat="49.34839" lon="-0.85496">
        <ele>64.4</ele>
        <time>2020-06-16T16:56:19Z</time>
      </trkpt>
      <trkpt lat="49.34836" lon="-0.85502">
        <ele>64.4</ele>
        <time>2020-06-16T16:56:20Z</time>
      </trkpt>
      <trkpt lat="49.34834" lon="-0.85507">
        <ele>64.3</ele>
        <time>2020-06-16T16:56:21Z</time>
      </trkpt>
      <trkpt lat="49.34834" lon="-0.85513">
        <ele>64.3</ele>
        <time>2020-06-16T16:56:22Z</time>
      </trkpt>
      <trkpt lat="49.34833" lon="-0.85519">
        <ele>64.3</ele>
        <time>2020-06-16T16:56:23Z</time>
      </trkpt>
      <trkpt lat="49.34832" lon="-0.85526">
        <ele>64.4</ele>
        <time>2020-06-16T16:56:24Z</time>
      </trkpt>
      <trkpt lat="49.34831" lon="-0.85531">
        <ele>64.6</ele>
        <time>2020-06-16T16:56:25Z</time>
      </trkpt>
      <trkpt lat="49.34829" lon="-0.85535">
        <ele>64.7</ele>
        <time>2020-06-16T16:56:26Z</time>
      </trkpt>
      <trkpt lat="49.34827" lon="-0.85539">
        <ele>64.8</ele>
        <time>2020-06-16T16:56:27Z</time>
      </trkpt>
      <trkpt lat="49.34824" lon="-0.85542">
        <ele>64.8</ele>
        <time>2020-06-16T16:56:28Z</time>
      </trkpt>
      <trkpt lat="49.3482" lon="-0.85545">
        <ele>64.9</ele>
        <time>2020-06-16T16:56:29Z</time>
      </trkpt>
      <trkpt lat="49.34815" lon="-0.85546">
        <ele>65</ele>
        <time>2020-06-16T16:56:30Z</time>
      </trkpt>
      <trkpt lat="49.34811" lon="-0.85546">
        <ele>65.1</ele>
        <time>2020-06-16T16:56:31Z</time>
      </trkpt>
      <trkpt lat="49.34807" lon="-0.85544">
        <ele>65</ele>
        <time>2020-06-16T16:56:32Z</time>
      </trkpt>
      <trkpt lat="49.34806" lon="-0.8554">
        <ele>65</ele>
        <time>2020-06-16T16:56:33Z</time>
      </trkpt>
      <trkpt lat="49.34803" lon="-0.85536">
        <ele>64.9</ele>
        <time>2020-06-16T16:56:34Z</time>
      </trkpt>
      <trkpt lat="49.34801" lon="-0.85531">
        <ele>64.8</ele>
        <time>2020-06-16T16:56:35Z</time>
      </trkpt>
      <trkpt lat="49.34799" lon="-0.85526">
        <ele>64.3</ele>
        <time>2020-06-16T16:56:36Z</time>
      </trkpt>
      <trkpt lat="49.34797" lon="-0.8552">
        <ele>64.1</ele>
        <time>2020-06-16T16:56:37Z</time>
      </trkpt>
      <trkpt lat="49.34795" lon="-0.85514">
        <ele>63.8</ele>
        <time>2020-06-16T16:56:38Z</time>
      </trkpt>
      <trkpt lat="49.34794" lon="-0.85508">
        <ele>63.6</ele>
        <time>2020-06-16T16:56:39Z</time>
      </trkpt>
      <trkpt lat="49.34792" lon="-0.85502">
        <ele>63.4</ele>
        <time>2020-06-16T16:56:40Z</time>
      </trkpt>
      <trkpt lat="49.34789" lon="-0.85498">
        <ele>63.1</ele>
        <time>2020-06-16T16:56:41Z</time>
      </trkpt>
      <trkpt lat="49.34784" lon="-0.85495">
        <ele>62.8</ele>
        <time>2020-06-16T16:56:42Z</time>
      </trkpt>
      <trkpt lat="49.34779" lon="-0.85493">
        <ele>62.6</ele>
        <time>2020-06-16T16:56:43Z</time>
      </trkpt>
      <trkpt lat="49.34775" lon="-0.8549">
        <ele>62.3</ele>
        <time>2020-06-16T16:56:44Z</time>
      </trkpt>
      <trkpt lat="49.3477" lon="-0.85487">
        <ele>62.1</ele>
        <time>2020-06-16T16:56:45Z</time>
      </trkpt>
      <trkpt lat="49.34764" lon="-0.85484">
        <ele>61.7</ele>
        <time>2020-06-16T16:56:46Z</time>
      </trkpt>
      <trkpt lat="49.34759" lon="-0.85482">
        <ele>61.5</ele>
        <time>2020-06-16T16:56:47Z</time>
      </trkpt>
      <trkpt lat="49.34754" lon="-0.85482">
        <ele>61.4</ele>
        <time>2020-06-16T16:56:48Z</time>
      </trkpt>
      <trkpt lat="49.34749" lon="-0.85478">
        <ele>61.2</ele>
        <time>2020-06-16T16:56:49Z</time>
      </trkpt>
      <trkpt lat="49.34743" lon="-0.85475">
        <ele>61</ele>
        <time>2020-06-16T16:56:50Z</time>
      </trkpt>
      <trkpt lat="49.34738" lon="-0.85472">
        <ele>60.9</ele>
        <time>2020-06-16T16:56:51Z</time>
      </trkpt>
      <trkpt lat="49.34733" lon="-0.85469">
        <ele>60.7</ele>
        <time>2020-06-16T16:56:52Z</time>
      </trkpt>
      <trkpt lat="49.34728" lon="-0.85466">
        <ele>60.6</ele>
        <time>2020-06-16T16:56:53Z</time>
      </trkpt>
      <trkpt lat="49.34722" lon="-0.85463">
        <ele>60.5</ele>
        <time>2020-06-16T16:56:54Z</time>
      </trkpt>
      <trkpt lat="49.34717" lon="-0.8546">
        <ele>60.4</ele>
        <time>2020-06-16T16:56:55Z</time>
      </trkpt>
      <trkpt lat="49.34711" lon="-0.85459">
        <ele>60.3</ele>
        <time>2020-06-16T16:56:56Z</time>
      </trkpt>
      <trkpt lat="49.34706" lon="-0.85457">
        <ele>60.3</ele>
        <time>2020-06-16T16:56:57Z</time>
      </trkpt>
      <trkpt lat="49.34702" lon="-0.85454">
        <ele>60.3</ele>
        <time>2020-06-16T16:56:58Z</time>
      </trkpt>
      <trkpt lat="49.34698" lon="-0.85448">
        <ele>60.2</ele>
        <time>2020-06-16T16:56:59Z</time>
      </trkpt>
      <trkpt lat="49.34695" lon="-0.85443">
        <ele>60.3</ele>
        <time>2020-06-16T16:57:00Z</time>
      </trkpt>
      <trkpt lat="49.34693" lon="-0.85437">
        <ele>60.3</ele>
        <time>2020-06-16T16:57:01Z</time>
      </trkpt>
      <trkpt lat="49.3469" lon="-0.8543">
        <ele>60.4</ele>
        <time>2020-06-16T16:57:02Z</time>
      </trkpt>
      <trkpt lat="49.34689" lon="-0.85423">
        <ele>60.4</ele>
        <time>2020-06-16T16:57:03Z</time>
      </trkpt>
      <trkpt lat="49.34687" lon="-0.85415">
        <ele>60.5</ele>
        <time>2020-06-16T16:57:04Z</time>
      </trkpt>
      <trkpt lat="49.34684" lon="-0.85406">
        <ele>60.7</ele>
        <time>2020-06-16T16:57:05Z</time>
      </trkpt>
      <trkpt lat="49.34681" lon="-0.85397">
        <ele>60.8</ele>
        <time>2020-06-16T16:57:06Z</time>
      </trkpt>
      <trkpt lat="49.34678" lon="-0.85388">
        <ele>61</ele>
        <time>2020-06-16T16:57:07Z</time>
      </trkpt>
      <trkpt lat="49.34676" lon="-0.8538">
        <ele>61.1</ele>
        <time>2020-06-16T16:57:08Z</time>
      </trkpt>
      <trkpt lat="49.34675" lon="-0.85372">
        <ele>61.2</ele>
        <time>2020-06-16T16:57:09Z</time>
      </trkpt>
      <trkpt lat="49.34673" lon="-0.85364">
        <ele>61.4</ele>
        <time>2020-06-16T16:57:10Z</time>
      </trkpt>
      <trkpt lat="49.34672" lon="-0.85356">
        <ele>61.5</ele>
        <time>2020-06-16T16:57:11Z</time>
      </trkpt>
      <trkpt lat="49.34671" lon="-0.85349">
        <ele>61.7</ele>
        <time>2020-06-16T16:57:12Z</time>
      </trkpt>
      <trkpt lat="49.3467" lon="-0.85341">
        <ele>61.8</ele>
        <time>2020-06-16T16:57:13Z</time>
      </trkpt>
      <trkpt lat="49.3467" lon="-0.85333">
        <ele>62</ele>
        <time>2020-06-16T16:57:14Z</time>
      </trkpt>
      <trkpt lat="49.34671" lon="-0.85325">
        <ele>62.2</ele>
        <time>2020-06-16T16:57:15Z</time>
      </trkpt>
      <trkpt lat="49.34672" lon="-0.85316">
        <ele>62.4</ele>
        <time>2020-06-16T16:57:16Z</time>
      </trkpt>
      <trkpt lat="49.34673" lon="-0.85308">
        <ele>62.6</ele>
        <time>2020-06-16T16:57:17Z</time>
      </trkpt>
      <trkpt lat="49.34674" lon="-0.85301">
        <ele>62.7</ele>
        <time>2020-06-16T16:57:18Z</time>
      </trkpt>
      <trkpt lat="49.34675" lon="-0.85295">
        <ele>62.8</ele>
        <time>2020-06-16T16:57:19Z</time>
      </trkpt>
      <trkpt lat="49.34676" lon="-0.85289">
        <ele>63</ele>
        <time>2020-06-16T16:57:20Z</time>
      </trkpt>
      <trkpt lat="49.34677" lon="-0.85282">
        <ele>63.1</ele>
        <time>2020-06-16T16:57:21Z</time>
      </trkpt>
      <trkpt lat="49.34679" lon="-0.85275">
        <ele>63.2</ele>
        <time>2020-06-16T16:57:22Z</time>
      </trkpt>
      <trkpt lat="49.34681" lon="-0.85268">
        <ele>63.3</ele>
        <time>2020-06-16T16:57:23Z</time>
      </trkpt>
      <trkpt lat="49.34683" lon="-0.8526">
        <ele>63.4</ele>
        <time>2020-06-16T16:57:24Z</time>
      </trkpt>
      <trkpt lat="49.34686" lon="-0.85253">
        <ele>63.5</ele>
        <time>2020-06-16T16:57:25Z</time>
      </trkpt>
      <trkpt lat="49.34688" lon="-0.85247">
        <ele>63.6</ele>
        <time>2020-06-16T16:57:26Z</time>
      </trkpt>
      <trkpt lat="49.34689" lon="-0.85239">
        <ele>63.6</ele>
        <time>2020-06-16T16:57:27Z</time>
      </trkpt>
      <trkpt lat="49.34692" lon="-0.85232">
        <ele>63.7</ele>
        <time>2020-06-16T16:57:28Z</time>
      </trkpt>
      <trkpt lat="49.34694" lon="-0.85225">
        <ele>63.7</ele>
        <time>2020-06-16T16:57:29Z</time>
      </trkpt>
      <trkpt lat="49.34696" lon="-0.85217">
        <ele>63.8</ele>
        <time>2020-06-16T16:57:30Z</time>
      </trkpt>
      <trkpt lat="49.34699" lon="-0.8521">
        <ele>63.8</ele>
        <time>2020-06-16T16:57:31Z</time>
      </trkpt>
      <trkpt lat="49.34701" lon="-0.85204">
        <ele>63.7</ele>
        <time>2020-06-16T16:57:32Z</time>
      </trkpt>
      <trkpt lat="49.34703" lon="-0.85196">
        <ele>63.7</ele>
        <time>2020-06-16T16:57:33Z</time>
      </trkpt>
      <trkpt lat="49.34705" lon="-0.85188">
        <ele>63.7</ele>
        <time>2020-06-16T16:57:34Z</time>
      </trkpt>
      <trkpt lat="49.34707" lon="-0.8518">
        <ele>63.6</ele>
        <time>2020-06-16T16:57:35Z</time>
      </trkpt>
      <trkpt lat="49.34709" lon="-0.85172">
        <ele>63.6</ele>
        <time>2020-06-16T16:57:36Z</time>
      </trkpt>
      <trkpt lat="49.34711" lon="-0.85164">
        <ele>63.6</ele>
        <time>2020-06-16T16:57:37Z</time>
      </trkpt>
      <trkpt lat="49.34713" lon="-0.85156">
        <ele>63.6</ele>
        <time>2020-06-16T16:57:38Z</time>
      </trkpt>
      <trkpt lat="49.34715" lon="-0.85148">
        <ele>63.6</ele>
        <time>2020-06-16T16:57:39Z</time>
      </trkpt>
      <trkpt lat="49.34718" lon="-0.85141">
        <ele>63.5</ele>
        <time>2020-06-16T16:57:40Z</time>
      </trkpt>
      <trkpt lat="49.3472" lon="-0.85134">
        <ele>63.5</ele>
        <time>2020-06-16T16:57:41Z</time>
      </trkpt>
      <trkpt lat="49.34722" lon="-0.85127">
        <ele>63.5</ele>
        <time>2020-06-16T16:57:42Z</time>
      </trkpt>
      <trkpt lat="49.34725" lon="-0.85119">
        <ele>63.5</ele>
        <time>2020-06-16T16:57:43Z</time>
      </trkpt>
      <trkpt lat="49.34728" lon="-0.85112">
        <ele>63.4</ele>
        <time>2020-06-16T16:57:44Z</time>
      </trkpt>
      <trkpt lat="49.3473" lon="-0.85105">
        <ele>63.4</ele>
        <time>2020-06-16T16:57:45Z</time>
      </trkpt>
      <trkpt lat="49.34732" lon="-0.85098">
        <ele>63.4</ele>
        <time>2020-06-16T16:57:46Z</time>
      </trkpt>
      <trkpt lat="49.34736" lon="-0.85093">
        <ele>63.3</ele>
        <time>2020-06-16T16:57:47Z</time>
      </trkpt>
      <trkpt lat="49.34738" lon="-0.85087">
        <ele>63.3</ele>
        <time>2020-06-16T16:57:48Z</time>
      </trkpt>
      <trkpt lat="49.34741" lon="-0.8508">
        <ele>63.3</ele>
        <time>2020-06-16T16:57:49Z</time>
      </trkpt>
      <trkpt lat="49.34744" lon="-0.85072">
        <ele>63.2</ele>
        <time>2020-06-16T16:57:50Z</time>
      </trkpt>
      <trkpt lat="49.34746" lon="-0.85065">
        <ele>63.2</ele>
        <time>2020-06-16T16:57:51Z</time>
      </trkpt>
      <trkpt lat="49.34749" lon="-0.85058">
        <ele>63.1</ele>
        <time>2020-06-16T16:57:52Z</time>
      </trkpt>
      <trkpt lat="49.34752" lon="-0.85052">
        <ele>63.1</ele>
        <time>2020-06-16T16:57:53Z</time>
      </trkpt>
      <trkpt lat="49.34754" lon="-0.85046">
        <ele>63</ele>
        <time>2020-06-16T16:57:54Z</time>
      </trkpt>
      <trkpt lat="49.34758" lon="-0.85039">
        <ele>63</ele>
        <time>2020-06-16T16:57:55Z</time>
      </trkpt>
      <trkpt lat="49.34761" lon="-0.85033">
        <ele>62.9</ele>
        <time>2020-06-16T16:57:56Z</time>
      </trkpt>
      <trkpt lat="49.34764" lon="-0.85027">
        <ele>62.9</ele>
        <time>2020-06-16T16:57:57Z</time>
      </trkpt>
      <trkpt lat="49.34768" lon="-0.8502">
        <ele>62.8</ele>
        <time>2020-06-16T16:57:58Z</time>
      </trkpt>
      <trkpt lat="49.34771" lon="-0.85014">
        <ele>62.8</ele>
        <time>2020-06-16T16:57:59Z</time>
      </trkpt>
      <trkpt lat="49.34773" lon="-0.85007">
        <ele>62.8</ele>
        <time>2020-06-16T16:58:00Z</time>
      </trkpt>
      <trkpt lat="49.34776" lon="-0.85">
        <ele>62.7</ele>
        <time>2020-06-16T16:58:01Z</time>
      </trkpt>
      <trkpt lat="49.34779" lon="-0.84992">
        <ele>62.7</ele>
        <time>2020-06-16T16:58:02Z</time>
      </trkpt>
      <trkpt lat="49.34782" lon="-0.84985">
        <ele>62.7</ele>
        <time>2020-06-16T16:58:03Z</time>
      </trkpt>
      <trkpt lat="49.34785" lon="-0.8498">
        <ele>62.6</ele>
        <time>2020-06-16T16:58:04Z</time>
      </trkpt>
      <trkpt lat="49.34788" lon="-0.84974">
        <ele>62.6</ele>
        <time>2020-06-16T16:58:05Z</time>
      </trkpt>
      <trkpt lat="49.34791" lon="-0.84968">
        <ele>62.6</ele>
        <time>2020-06-16T16:58:06Z</time>
      </trkpt>
      <trkpt lat="49.34793" lon="-0.84963">
        <ele>62.5</ele>
        <time>2020-06-16T16:58:07Z</time>
      </trkpt>
      <trkpt lat="49.34797" lon="-0.84958">
        <ele>62.5</ele>
        <time>2020-06-16T16:58:08Z</time>
      </trkpt>
      <trkpt lat="49.34799" lon="-0.84954">
        <ele>62.5</ele>
        <time>2020-06-16T16:58:09Z</time>
      </trkpt>
      <trkpt lat="49.34802" lon="-0.84951">
        <ele>62.4</ele>
        <time>2020-06-16T16:58:10Z</time>
      </trkpt>
      <trkpt lat="49.34804" lon="-0.84948">
        <ele>62.4</ele>
        <time>2020-06-16T16:58:11Z</time>
      </trkpt>
      <trkpt lat="49.34807" lon="-0.84945">
        <ele>62.4</ele>
        <time>2020-06-16T16:58:12Z</time>
      </trkpt>
      <trkpt lat="49.34812" lon="-0.8494">
        <ele>62.3</ele>
        <time>2020-06-16T16:58:13Z</time>
      </trkpt>
      <trkpt lat="49.34816" lon="-0.84934">
        <ele>62.2</ele>
        <time>2020-06-16T16:58:14Z</time>
      </trkpt>
      <trkpt lat="49.34821" lon="-0.84929">
        <ele>62.2</ele>
        <time>2020-06-16T16:58:15Z</time>
      </trkpt>
      <trkpt lat="49.34826" lon="-0.84924">
        <ele>62.1</ele>
        <time>2020-06-16T16:58:16Z</time>
      </trkpt>
      <trkpt lat="49.3483" lon="-0.8492">
        <ele>62</ele>
        <time>2020-06-16T16:58:17Z</time>
      </trkpt>
      <trkpt lat="49.34834" lon="-0.84915">
        <ele>62</ele>
        <time>2020-06-16T16:58:18Z</time>
      </trkpt>
      <trkpt lat="49.3484" lon="-0.84909">
        <ele>61.9</ele>
        <time>2020-06-16T16:58:19Z</time>
      </trkpt>
      <trkpt lat="49.34843" lon="-0.84903">
        <ele>61.8</ele>
        <time>2020-06-16T16:58:20Z</time>
      </trkpt>
      <trkpt lat="49.34847" lon="-0.84897">
        <ele>61.8</ele>
        <time>2020-06-16T16:58:21Z</time>
      </trkpt>
      <trkpt lat="49.3485" lon="-0.84891">
        <ele>61.7</ele>
        <time>2020-06-16T16:58:22Z</time>
      </trkpt>
      <trkpt lat="49.34853" lon="-0.84884">
        <ele>61.7</ele>
        <time>2020-06-16T16:58:23Z</time>
      </trkpt>
      <trkpt lat="49.34854" lon="-0.84877">
        <ele>61.6</ele>
        <time>2020-06-16T16:58:24Z</time>
      </trkpt>
      <trkpt lat="49.34855" lon="-0.8487">
        <ele>61.6</ele>
        <time>2020-06-16T16:58:25Z</time>
      </trkpt>
      <trkpt lat="49.34856" lon="-0.84863">
        <ele>61.5</ele>
        <time>2020-06-16T16:58:26Z</time>
      </trkpt>
      <trkpt lat="49.34856" lon="-0.84857">
        <ele>61.4</ele>
        <time>2020-06-16T16:58:27Z</time>
      </trkpt>
      <trkpt lat="49.34855" lon="-0.8485">
        <ele>61.4</ele>
        <time>2020-06-16T16:58:28Z</time>
      </trkpt>
      <trkpt lat="49.34855" lon="-0.84843">
        <ele>61.3</ele>
        <time>2020-06-16T16:58:29Z</time>
      </trkpt>
      <trkpt lat="49.34855" lon="-0.84837">
        <ele>61.2</ele>
        <time>2020-06-16T16:58:30Z</time>
      </trkpt>
      <trkpt lat="49.34854" lon="-0.8483">
        <ele>61.2</ele>
        <time>2020-06-16T16:58:31Z</time>
      </trkpt>
      <trkpt lat="49.34854" lon="-0.84823">
        <ele>61.1</ele>
        <time>2020-06-16T16:58:32Z</time>
      </trkpt>
      <trkpt lat="49.34853" lon="-0.84815">
        <ele>61.1</ele>
        <time>2020-06-16T16:58:33Z</time>
      </trkpt>
      <trkpt lat="49.34852" lon="-0.84808">
        <ele>61</ele>
        <time>2020-06-16T16:58:34Z</time>
      </trkpt>
      <trkpt lat="49.34852" lon="-0.848">
        <ele>60.9</ele>
        <time>2020-06-16T16:58:35Z</time>
      </trkpt>
      <trkpt lat="49.34851" lon="-0.84792">
        <ele>60.8</ele>
        <time>2020-06-16T16:58:36Z</time>
      </trkpt>
      <trkpt lat="49.3485" lon="-0.84784">
        <ele>60.7</ele>
        <time>2020-06-16T16:58:37Z</time>
      </trkpt>
      <trkpt lat="49.34849" lon="-0.84776">
        <ele>60.6</ele>
        <time>2020-06-16T16:58:38Z</time>
      </trkpt>
      <trkpt lat="49.34849" lon="-0.84768">
        <ele>60.5</ele>
        <time>2020-06-16T16:58:39Z</time>
      </trkpt>
      <trkpt lat="49.34848" lon="-0.8476">
        <ele>60.4</ele>
        <time>2020-06-16T16:58:40Z</time>
      </trkpt>
      <trkpt lat="49.34847" lon="-0.84752">
        <ele>60.3</ele>
        <time>2020-06-16T16:58:41Z</time>
      </trkpt>
      <trkpt lat="49.34848" lon="-0.84744">
        <ele>60.2</ele>
        <time>2020-06-16T16:58:42Z</time>
      </trkpt>
      <trkpt lat="49.34848" lon="-0.84735">
        <ele>60.2</ele>
        <time>2020-06-16T16:58:43Z</time>
      </trkpt>
      <trkpt lat="49.34848" lon="-0.84727">
        <ele>60.1</ele>
        <time>2020-06-16T16:58:44Z</time>
      </trkpt>
      <trkpt lat="49.34848" lon="-0.84717">
        <ele>59.9</ele>
        <time>2020-06-16T16:58:45Z</time>
      </trkpt>
      <trkpt lat="49.34849" lon="-0.84706">
        <ele>59.7</ele>
        <time>2020-06-16T16:58:46Z</time>
      </trkpt>
      <trkpt lat="49.3485" lon="-0.84696">
        <ele>59.6</ele>
        <time>2020-06-16T16:58:47Z</time>
      </trkpt>
      <trkpt lat="49.3485" lon="-0.84686">
        <ele>59.5</ele>
        <time>2020-06-16T16:58:48Z</time>
      </trkpt>
      <trkpt lat="49.34851" lon="-0.84677">
        <ele>59.4</ele>
        <time>2020-06-16T16:58:49Z</time>
      </trkpt>
      <trkpt lat="49.34851" lon="-0.84668">
        <ele>59.3</ele>
        <time>2020-06-16T16:58:50Z</time>
      </trkpt>
      <trkpt lat="49.34853" lon="-0.8466">
        <ele>59.2</ele>
        <time>2020-06-16T16:58:51Z</time>
      </trkpt>
      <trkpt lat="49.34853" lon="-0.84653">
        <ele>59.2</ele>
        <time>2020-06-16T16:58:52Z</time>
      </trkpt>
      <trkpt lat="49.34853" lon="-0.84645">
        <ele>59.2</ele>
        <time>2020-06-16T16:58:53Z</time>
      </trkpt>
      <trkpt lat="49.34853" lon="-0.84638">
        <ele>59.2</ele>
        <time>2020-06-16T16:58:54Z</time>
      </trkpt>
      <trkpt lat="49.34853" lon="-0.84631">
        <ele>59.1</ele>
        <time>2020-06-16T16:58:55Z</time>
      </trkpt>
      <trkpt lat="49.34853" lon="-0.84624">
        <ele>59.1</ele>
        <time>2020-06-16T16:58:56Z</time>
      </trkpt>
      <trkpt lat="49.34854" lon="-0.84616">
        <ele>59</ele>
        <time>2020-06-16T16:58:57Z</time>
      </trkpt>
      <trkpt lat="49.34854" lon="-0.84609">
        <ele>59</ele>
        <time>2020-06-16T16:58:58Z</time>
      </trkpt>
      <trkpt lat="49.34855" lon="-0.84601">
        <ele>58.9</ele>
        <time>2020-06-16T16:58:59Z</time>
      </trkpt>
      <trkpt lat="49.34856" lon="-0.84594">
        <ele>58.9</ele>
        <time>2020-06-16T16:59:00Z</time>
      </trkpt>
      <trkpt lat="49.34856" lon="-0.84587">
        <ele>58.8</ele>
        <time>2020-06-16T16:59:01Z</time>
      </trkpt>
      <trkpt lat="49.34857" lon="-0.84579">
        <ele>58.8</ele>
        <time>2020-06-16T16:59:02Z</time>
      </trkpt>
      <trkpt lat="49.34858" lon="-0.84572">
        <ele>58.7</ele>
        <time>2020-06-16T16:59:03Z</time>
      </trkpt>
      <trkpt lat="49.34859" lon="-0.84566">
        <ele>58.7</ele>
        <time>2020-06-16T16:59:04Z</time>
      </trkpt>
      <trkpt lat="49.34859" lon="-0.84558">
        <ele>58.6</ele>
        <time>2020-06-16T16:59:05Z</time>
      </trkpt>
      <trkpt lat="49.3486" lon="-0.8455">
        <ele>58.6</ele>
        <time>2020-06-16T16:59:06Z</time>
      </trkpt>
      <trkpt lat="49.34859" lon="-0.84542">
        <ele>58.6</ele>
        <time>2020-06-16T16:59:07Z</time>
      </trkpt>
      <trkpt lat="49.3486" lon="-0.84534">
        <ele>58.6</ele>
        <time>2020-06-16T16:59:08Z</time>
      </trkpt>
      <trkpt lat="49.34859" lon="-0.84527">
        <ele>58.6</ele>
        <time>2020-06-16T16:59:09Z</time>
      </trkpt>
      <trkpt lat="49.34859" lon="-0.8452">
        <ele>58.6</ele>
        <time>2020-06-16T16:59:10Z</time>
      </trkpt>
      <trkpt lat="49.34859" lon="-0.84512">
        <ele>58.6</ele>
        <time>2020-06-16T16:59:11Z</time>
      </trkpt>
      <trkpt lat="49.3486" lon="-0.84504">
        <ele>58.6</ele>
        <time>2020-06-16T16:59:12Z</time>
      </trkpt>
      <trkpt lat="49.3486" lon="-0.84496">
        <ele>58.6</ele>
        <time>2020-06-16T16:59:13Z</time>
      </trkpt>
      <trkpt lat="49.34862" lon="-0.84489">
        <ele>58.6</ele>
        <time>2020-06-16T16:59:14Z</time>
      </trkpt>
      <trkpt lat="49.34863" lon="-0.8448">
        <ele>58.7</ele>
        <time>2020-06-16T16:59:15Z</time>
      </trkpt>
      <trkpt lat="49.34865" lon="-0.84472">
        <ele>58.7</ele>
        <time>2020-06-16T16:59:16Z</time>
      </trkpt>
      <trkpt lat="49.34865" lon="-0.84463">
        <ele>58.8</ele>
        <time>2020-06-16T16:59:17Z</time>
      </trkpt>
      <trkpt lat="49.34867" lon="-0.84456">
        <ele>58.9</ele>
        <time>2020-06-16T16:59:18Z</time>
      </trkpt>
      <trkpt lat="49.34868" lon="-0.84447">
        <ele>59</ele>
        <time>2020-06-16T16:59:19Z</time>
      </trkpt>
      <trkpt lat="49.34868" lon="-0.84439">
        <ele>59.1</ele>
        <time>2020-06-16T16:59:20Z</time>
      </trkpt>
      <trkpt lat="49.34869" lon="-0.84431">
        <ele>59.3</ele>
        <time>2020-06-16T16:59:21Z</time>
      </trkpt>
      <trkpt lat="49.34869" lon="-0.84424">
        <ele>59.4</ele>
        <time>2020-06-16T16:59:22Z</time>
      </trkpt>
      <trkpt lat="49.34869" lon="-0.84416">
        <ele>59.6</ele>
        <time>2020-06-16T16:59:23Z</time>
      </trkpt>
      <trkpt lat="49.34869" lon="-0.84409">
        <ele>59.7</ele>
        <time>2020-06-16T16:59:24Z</time>
      </trkpt>
      <trkpt lat="49.34869" lon="-0.84402">
        <ele>59.8</ele>
        <time>2020-06-16T16:59:25Z</time>
      </trkpt>
      <trkpt lat="49.34869" lon="-0.84395">
        <ele>60</ele>
        <time>2020-06-16T16:59:26Z</time>
      </trkpt>
      <trkpt lat="49.34869" lon="-0.84388">
        <ele>60.1</ele>
        <time>2020-06-16T16:59:27Z</time>
      </trkpt>
      <trkpt lat="49.3487" lon="-0.8438">
        <ele>60.3</ele>
        <time>2020-06-16T16:59:28Z</time>
      </trkpt>
      <trkpt lat="49.34871" lon="-0.84374">
        <ele>60.4</ele>
        <time>2020-06-16T16:59:29Z</time>
      </trkpt>
      <trkpt lat="49.34871" lon="-0.84367">
        <ele>60.5</ele>
        <time>2020-06-16T16:59:30Z</time>
      </trkpt>
      <trkpt lat="49.3487" lon="-0.84362">
        <ele>60.6</ele>
        <time>2020-06-16T16:59:31Z</time>
      </trkpt>
      <trkpt lat="49.34869" lon="-0.84357">
        <ele>60.7</ele>
        <time>2020-06-16T16:59:32Z</time>
      </trkpt>
      <trkpt lat="49.34867" lon="-0.84351">
        <ele>60.8</ele>
        <time>2020-06-16T16:59:33Z</time>
      </trkpt>
      <trkpt lat="49.34864" lon="-0.84343">
        <ele>61</ele>
        <time>2020-06-16T16:59:34Z</time>
      </trkpt>
      <trkpt lat="49.34864" lon="-0.84336">
        <ele>61.1</ele>
        <time>2020-06-16T16:59:35Z</time>
      </trkpt>
      <trkpt lat="49.34865" lon="-0.84329">
        <ele>61.2</ele>
        <time>2020-06-16T16:59:36Z</time>
      </trkpt>
      <trkpt lat="49.34866" lon="-0.84322">
        <ele>61.3</ele>
        <time>2020-06-16T16:59:37Z</time>
      </trkpt>
      <trkpt lat="49.34867" lon="-0.84316">
        <ele>61.4</ele>
        <time>2020-06-16T16:59:38Z</time>
      </trkpt>
      <trkpt lat="49.34867" lon="-0.84311">
        <ele>61.4</ele>
        <time>2020-06-16T16:59:39Z</time>
      </trkpt>
      <trkpt lat="49.34867" lon="-0.84303">
        <ele>61.5</ele>
        <time>2020-06-16T16:59:40Z</time>
      </trkpt>
      <trkpt lat="49.34868" lon="-0.84297">
        <ele>61.6</ele>
        <time>2020-06-16T16:59:41Z</time>
      </trkpt>
      <trkpt lat="49.34869" lon="-0.84292">
        <ele>61.6</ele>
        <time>2020-06-16T16:59:42Z</time>
      </trkpt>
      <trkpt lat="49.3487" lon="-0.84287">
        <ele>61.7</ele>
        <time>2020-06-16T16:59:43Z</time>
      </trkpt>
      <trkpt lat="49.3487" lon="-0.84281">
        <ele>61.7</ele>
        <time>2020-06-16T16:59:44Z</time>
      </trkpt>
      <trkpt lat="49.3487" lon="-0.84274">
        <ele>61.8</ele>
        <time>2020-06-16T16:59:45Z</time>
      </trkpt>
      <trkpt lat="49.3487" lon="-0.84267">
        <ele>61.9</ele>
        <time>2020-06-16T16:59:46Z</time>
      </trkpt>
      <trkpt lat="49.34871" lon="-0.8426">
        <ele>62</ele>
        <time>2020-06-16T16:59:47Z</time>
      </trkpt>
      <trkpt lat="49.34871" lon="-0.84253">
        <ele>62.1</ele>
        <time>2020-06-16T16:59:48Z</time>
      </trkpt>
      <trkpt lat="49.34871" lon="-0.84248">
        <ele>62.1</ele>
        <time>2020-06-16T16:59:49Z</time>
      </trkpt>
      <trkpt lat="49.34871" lon="-0.8424">
        <ele>62.2</ele>
        <time>2020-06-16T16:59:50Z</time>
      </trkpt>
      <trkpt lat="49.34871" lon="-0.84232">
        <ele>62.3</ele>
        <time>2020-06-16T16:59:51Z</time>
      </trkpt>
      <trkpt lat="49.34872" lon="-0.84225">
        <ele>62.4</ele>
        <time>2020-06-16T16:59:52Z</time>
      </trkpt>
      <trkpt lat="49.34872" lon="-0.84217">
        <ele>62.5</ele>
        <time>2020-06-16T16:59:53Z</time>
      </trkpt>
      <trkpt lat="49.34873" lon="-0.84209">
        <ele>62.6</ele>
        <time>2020-06-16T16:59:54Z</time>
      </trkpt>
      <trkpt lat="49.34872" lon="-0.842">
        <ele>62.6</ele>
        <time>2020-06-16T16:59:55Z</time>
      </trkpt>
      <trkpt lat="49.34872" lon="-0.84191">
        <ele>62.7</ele>
        <time>2020-06-16T16:59:56Z</time>
      </trkpt>
      <trkpt lat="49.34872" lon="-0.84183">
        <ele>62.8</ele>
        <time>2020-06-16T16:59:57Z</time>
      </trkpt>
      <trkpt lat="49.34873" lon="-0.84175">
        <ele>62.8</ele>
        <time>2020-06-16T16:59:58Z</time>
      </trkpt>
      <trkpt lat="49.34873" lon="-0.84166">
        <ele>62.9</ele>
        <time>2020-06-16T16:59:59Z</time>
      </trkpt>
      <trkpt lat="49.34875" lon="-0.84159">
        <ele>62.9</ele>
        <time>2020-06-16T17:00:00Z</time>
      </trkpt>
      <trkpt lat="49.34877" lon="-0.84151">
        <ele>63</ele>
        <time>2020-06-16T17:00:01Z</time>
      </trkpt>
      <trkpt lat="49.34878" lon="-0.84144">
        <ele>63</ele>
        <time>2020-06-16T17:00:02Z</time>
      </trkpt>
      <trkpt lat="49.34879" lon="-0.84136">
        <ele>63</ele>
        <time>2020-06-16T17:00:03Z</time>
      </trkpt>
      <trkpt lat="49.34881" lon="-0.84129">
        <ele>63.1</ele>
        <time>2020-06-16T17:00:04Z</time>
      </trkpt>
      <trkpt lat="49.34883" lon="-0.84122">
        <ele>63.1</ele>
        <time>2020-06-16T17:00:05Z</time>
      </trkpt>
      <trkpt lat="49.34885" lon="-0.84116">
        <ele>63.2</ele>
        <time>2020-06-16T17:00:06Z</time>
      </trkpt>
      <trkpt lat="49.34886" lon="-0.84108">
        <ele>63.2</ele>
        <time>2020-06-16T17:00:07Z</time>
      </trkpt>
      <trkpt lat="49.34888" lon="-0.841">
        <ele>63.3</ele>
        <time>2020-06-16T17:00:08Z</time>
      </trkpt>
      <trkpt lat="49.3489" lon="-0.84093">
        <ele>63.4</ele>
        <time>2020-06-16T17:00:09Z</time>
      </trkpt>
      <trkpt lat="49.34892" lon="-0.84085">
        <ele>63.4</ele>
        <time>2020-06-16T17:00:10Z</time>
      </trkpt>
      <trkpt lat="49.34894" lon="-0.84078">
        <ele>63.4</ele>
        <time>2020-06-16T17:00:11Z</time>
      </trkpt>
      <trkpt lat="49.34896" lon="-0.8407">
        <ele>63.3</ele>
        <time>2020-06-16T17:00:12Z</time>
      </trkpt>
      <trkpt lat="49.34898" lon="-0.84062">
        <ele>63.3</ele>
        <time>2020-06-16T17:00:13Z</time>
      </trkpt>
      <trkpt lat="49.349" lon="-0.84055">
        <ele>63.3</ele>
        <time>2020-06-16T17:00:14Z</time>
      </trkpt>
      <trkpt lat="49.34902" lon="-0.84049">
        <ele>63.2</ele>
        <time>2020-06-16T17:00:15Z</time>
      </trkpt>
      <trkpt lat="49.34903" lon="-0.84043">
        <ele>63.2</ele>
        <time>2020-06-16T17:00:16Z</time>
      </trkpt>
      <trkpt lat="49.34905" lon="-0.84037">
        <ele>63.2</ele>
        <time>2020-06-16T17:00:17Z</time>
      </trkpt>
      <trkpt lat="49.34907" lon="-0.84031">
        <ele>63.2</ele>
        <time>2020-06-16T17:00:18Z</time>
      </trkpt>
      <trkpt lat="49.34908" lon="-0.84023">
        <ele>63.2</ele>
        <time>2020-06-16T17:00:19Z</time>
      </trkpt>
      <trkpt lat="49.3491" lon="-0.84016">
        <ele>63.2</ele>
        <time>2020-06-16T17:00:20Z</time>
      </trkpt>
      <trkpt lat="49.34912" lon="-0.84007">
        <ele>63.2</ele>
        <time>2020-06-16T17:00:21Z</time>
      </trkpt>
      <trkpt lat="49.34914" lon="-0.84">
        <ele>63.2</ele>
        <time>2020-06-16T17:00:22Z</time>
      </trkpt>
      <trkpt lat="49.34917" lon="-0.83994">
        <ele>63.2</ele>
        <time>2020-06-16T17:00:23Z</time>
      </trkpt>
      <trkpt lat="49.34921" lon="-0.83987">
        <ele>63.2</ele>
        <time>2020-06-16T17:00:24Z</time>
      </trkpt>
      <trkpt lat="49.34924" lon="-0.8398">
        <ele>63.2</ele>
        <time>2020-06-16T17:00:25Z</time>
      </trkpt>
      <trkpt lat="49.34927" lon="-0.83974">
        <ele>63.1</ele>
        <time>2020-06-16T17:00:26Z</time>
      </trkpt>
      <trkpt lat="49.34929" lon="-0.83968">
        <ele>63.1</ele>
        <time>2020-06-16T17:00:27Z</time>
      </trkpt>
      <trkpt lat="49.34932" lon="-0.83961">
        <ele>63.1</ele>
        <time>2020-06-16T17:00:28Z</time>
      </trkpt>
      <trkpt lat="49.34935" lon="-0.83955">
        <ele>63</ele>
        <time>2020-06-16T17:00:29Z</time>
      </trkpt>
      <trkpt lat="49.34937" lon="-0.83948">
        <ele>63</ele>
        <time>2020-06-16T17:00:30Z</time>
      </trkpt>
      <trkpt lat="49.3494" lon="-0.83943">
        <ele>63</ele>
        <time>2020-06-16T17:00:31Z</time>
      </trkpt>
      <trkpt lat="49.34943" lon="-0.83937">
        <ele>63</ele>
        <time>2020-06-16T17:00:32Z</time>
      </trkpt>
      <trkpt lat="49.34946" lon="-0.83931">
        <ele>63</ele>
        <time>2020-06-16T17:00:33Z</time>
      </trkpt>
      <trkpt lat="49.34949" lon="-0.83924">
        <ele>63</ele>
        <time>2020-06-16T17:00:34Z</time>
      </trkpt>
      <trkpt lat="49.34952" lon="-0.83917">
        <ele>63.1</ele>
        <time>2020-06-16T17:00:35Z</time>
      </trkpt>
      <trkpt lat="49.34955" lon="-0.8391">
        <ele>63.1</ele>
        <time>2020-06-16T17:00:36Z</time>
      </trkpt>
      <trkpt lat="49.34957" lon="-0.83902">
        <ele>63.2</ele>
        <time>2020-06-16T17:00:37Z</time>
      </trkpt>
      <trkpt lat="49.3496" lon="-0.83894">
        <ele>63.3</ele>
        <time>2020-06-16T17:00:38Z</time>
      </trkpt>
      <trkpt lat="49.34962" lon="-0.83887">
        <ele>63.3</ele>
        <time>2020-06-16T17:00:39Z</time>
      </trkpt>
      <trkpt lat="49.34965" lon="-0.83881">
        <ele>63.4</ele>
        <time>2020-06-16T17:00:40Z</time>
      </trkpt>
      <trkpt lat="49.34968" lon="-0.83875">
        <ele>63.5</ele>
        <time>2020-06-16T17:00:41Z</time>
      </trkpt>
      <trkpt lat="49.34971" lon="-0.83868">
        <ele>63.6</ele>
        <time>2020-06-16T17:00:42Z</time>
      </trkpt>
      <trkpt lat="49.34973" lon="-0.83862">
        <ele>63.6</ele>
        <time>2020-06-16T17:00:43Z</time>
      </trkpt>
      <trkpt lat="49.34975" lon="-0.83855">
        <ele>63.7</ele>
        <time>2020-06-16T17:00:44Z</time>
      </trkpt>
      <trkpt lat="49.34977" lon="-0.83849">
        <ele>63.8</ele>
        <time>2020-06-16T17:00:45Z</time>
      </trkpt>
      <trkpt lat="49.34979" lon="-0.83843">
        <ele>63.9</ele>
        <time>2020-06-16T17:00:46Z</time>
      </trkpt>
      <trkpt lat="49.34981" lon="-0.83837">
        <ele>63.9</ele>
        <time>2020-06-16T17:00:47Z</time>
      </trkpt>
      <trkpt lat="49.34983" lon="-0.83832">
        <ele>64</ele>
        <time>2020-06-16T17:00:48Z</time>
      </trkpt>
      <trkpt lat="49.34984" lon="-0.83826">
        <ele>64.1</ele>
        <time>2020-06-16T17:00:49Z</time>
      </trkpt>
      <trkpt lat="49.34985" lon="-0.83821">
        <ele>64.2</ele>
        <time>2020-06-16T17:00:50Z</time>
      </trkpt>
      <trkpt lat="49.34987" lon="-0.83815">
        <ele>64.2</ele>
        <time>2020-06-16T17:00:51Z</time>
      </trkpt>
      <trkpt lat="49.34988" lon="-0.83808">
        <ele>64.4</ele>
        <time>2020-06-16T17:00:52Z</time>
      </trkpt>
      <trkpt lat="49.34989" lon="-0.83802">
        <ele>64.5</ele>
        <time>2020-06-16T17:00:53Z</time>
      </trkpt>
      <trkpt lat="49.3499" lon="-0.83795">
        <ele>64.5</ele>
        <time>2020-06-16T17:00:54Z</time>
      </trkpt>
      <trkpt lat="49.34991" lon="-0.83786">
        <ele>64.7</ele>
        <time>2020-06-16T17:00:55Z</time>
      </trkpt>
      <trkpt lat="49.34992" lon="-0.83777">
        <ele>64.7</ele>
        <time>2020-06-16T17:00:56Z</time>
      </trkpt>
      <trkpt lat="49.34993" lon="-0.83768">
        <ele>64.8</ele>
        <time>2020-06-16T17:00:57Z</time>
      </trkpt>
      <trkpt lat="49.34994" lon="-0.83759">
        <ele>64.9</ele>
        <time>2020-06-16T17:00:58Z</time>
      </trkpt>
      <trkpt lat="49.34995" lon="-0.83751">
        <ele>65</ele>
        <time>2020-06-16T17:00:59Z</time>
      </trkpt>
      <trkpt lat="49.34997" lon="-0.83742">
        <ele>65</ele>
        <time>2020-06-16T17:01:00Z</time>
      </trkpt>
      <trkpt lat="49.34998" lon="-0.83734">
        <ele>65.1</ele>
        <time>2020-06-16T17:01:01Z</time>
      </trkpt>
      <trkpt lat="49.34999" lon="-0.83725">
        <ele>65.1</ele>
        <time>2020-06-16T17:01:02Z</time>
      </trkpt>
      <trkpt lat="49.34999" lon="-0.83716">
        <ele>65.2</ele>
        <time>2020-06-16T17:01:03Z</time>
      </trkpt>
      <trkpt lat="49.34999" lon="-0.83706">
        <ele>65.3</ele>
        <time>2020-06-16T17:01:04Z</time>
      </trkpt>
      <trkpt lat="49.35" lon="-0.83696">
        <ele>65.4</ele>
        <time>2020-06-16T17:01:05Z</time>
      </trkpt>
      <trkpt lat="49.35001" lon="-0.83688">
        <ele>65.5</ele>
        <time>2020-06-16T17:01:06Z</time>
      </trkpt>
      <trkpt lat="49.35001" lon="-0.83679">
        <ele>65.6</ele>
        <time>2020-06-16T17:01:07Z</time>
      </trkpt>
      <trkpt lat="49.35001" lon="-0.8367">
        <ele>65.7</ele>
        <time>2020-06-16T17:01:08Z</time>
      </trkpt>
      <trkpt lat="49.35001" lon="-0.83662">
        <ele>65.7</ele>
        <time>2020-06-16T17:01:09Z</time>
      </trkpt>
      <trkpt lat="49.35" lon="-0.83653">
        <ele>65.8</ele>
        <time>2020-06-16T17:01:10Z</time>
      </trkpt>
      <trkpt lat="49.35" lon="-0.83644">
        <ele>65.9</ele>
        <time>2020-06-16T17:01:11Z</time>
      </trkpt>
      <trkpt lat="49.34999" lon="-0.83635">
        <ele>65.9</ele>
        <time>2020-06-16T17:01:12Z</time>
      </trkpt>
      <trkpt lat="49.34999" lon="-0.83626">
        <ele>66</ele>
        <time>2020-06-16T17:01:13Z</time>
      </trkpt>
      <trkpt lat="49.34998" lon="-0.83617">
        <ele>66</ele>
        <time>2020-06-16T17:01:14Z</time>
      </trkpt>
      <trkpt lat="49.34997" lon="-0.83609">
        <ele>66</ele>
        <time>2020-06-16T17:01:15Z</time>
      </trkpt>
      <trkpt lat="49.34997" lon="-0.83601">
        <ele>66.1</ele>
        <time>2020-06-16T17:01:16Z</time>
      </trkpt>
      <trkpt lat="49.34996" lon="-0.83592">
        <ele>66.1</ele>
        <time>2020-06-16T17:01:17Z</time>
      </trkpt>
      <trkpt lat="49.34996" lon="-0.8358">
        <ele>66.1</ele>
        <time>2020-06-16T17:01:18Z</time>
      </trkpt>
      <trkpt lat="49.34996" lon="-0.83572">
        <ele>66.2</ele>
        <time>2020-06-16T17:01:19Z</time>
      </trkpt>
      <trkpt lat="49.34997" lon="-0.83563">
        <ele>66.2</ele>
        <time>2020-06-16T17:01:20Z</time>
      </trkpt>
      <trkpt lat="49.34998" lon="-0.83556">
        <ele>66.2</ele>
        <time>2020-06-16T17:01:21Z</time>
      </trkpt>
      <trkpt lat="49.34999" lon="-0.83549">
        <ele>66.2</ele>
        <time>2020-06-16T17:01:22Z</time>
      </trkpt>
      <trkpt lat="49.34999" lon="-0.83542">
        <ele>66.2</ele>
        <time>2020-06-16T17:01:23Z</time>
      </trkpt>
      <trkpt lat="49.34999" lon="-0.83534">
        <ele>66.2</ele>
        <time>2020-06-16T17:01:24Z</time>
      </trkpt>
      <trkpt lat="49.35" lon="-0.83525">
        <ele>66.2</ele>
        <time>2020-06-16T17:01:25Z</time>
      </trkpt>
      <trkpt lat="49.35001" lon="-0.83515">
        <ele>66.2</ele>
        <time>2020-06-16T17:01:26Z</time>
      </trkpt>
      <trkpt lat="49.35001" lon="-0.83506">
        <ele>66.2</ele>
        <time>2020-06-16T17:01:27Z</time>
      </trkpt>
      <trkpt lat="49.35001" lon="-0.83497">
        <ele>66.2</ele>
        <time>2020-06-16T17:01:28Z</time>
      </trkpt>
      <trkpt lat="49.35002" lon="-0.83488">
        <ele>66.2</ele>
        <time>2020-06-16T17:01:29Z</time>
      </trkpt>
      <trkpt lat="49.35002" lon="-0.83479">
        <ele>66.2</ele>
        <time>2020-06-16T17:01:30Z</time>
      </trkpt>
      <trkpt lat="49.35004" lon="-0.83469">
        <ele>66.2</ele>
        <time>2020-06-16T17:01:31Z</time>
      </trkpt>
      <trkpt lat="49.35004" lon="-0.8346">
        <ele>66.3</ele>
        <time>2020-06-16T17:01:32Z</time>
      </trkpt>
      <trkpt lat="49.35004" lon="-0.83452">
        <ele>66.3</ele>
        <time>2020-06-16T17:01:33Z</time>
      </trkpt>
      <trkpt lat="49.35005" lon="-0.83442">
        <ele>66.4</ele>
        <time>2020-06-16T17:01:34Z</time>
      </trkpt>
      <trkpt lat="49.35004" lon="-0.83435">
        <ele>66.4</ele>
        <time>2020-06-16T17:01:35Z</time>
      </trkpt>
      <trkpt lat="49.35004" lon="-0.83427">
        <ele>66.5</ele>
        <time>2020-06-16T17:01:36Z</time>
      </trkpt>
      <trkpt lat="49.35004" lon="-0.83419">
        <ele>66.6</ele>
        <time>2020-06-16T17:01:37Z</time>
      </trkpt>
      <trkpt lat="49.35005" lon="-0.83409">
        <ele>66.6</ele>
        <time>2020-06-16T17:01:38Z</time>
      </trkpt>
      <trkpt lat="49.35005" lon="-0.83402">
        <ele>66.6</ele>
        <time>2020-06-16T17:01:39Z</time>
      </trkpt>
      <trkpt lat="49.35005" lon="-0.83393">
        <ele>66.7</ele>
        <time>2020-06-16T17:01:40Z</time>
      </trkpt>
      <trkpt lat="49.35005" lon="-0.83386">
        <ele>66.7</ele>
        <time>2020-06-16T17:01:41Z</time>
      </trkpt>
      <trkpt lat="49.35006" lon="-0.83379">
        <ele>66.8</ele>
        <time>2020-06-16T17:01:42Z</time>
      </trkpt>
      <trkpt lat="49.35005" lon="-0.83372">
        <ele>66.8</ele>
        <time>2020-06-16T17:01:43Z</time>
      </trkpt>
      <trkpt lat="49.35005" lon="-0.83366">
        <ele>66.9</ele>
        <time>2020-06-16T17:01:44Z</time>
      </trkpt>
      <trkpt lat="49.35005" lon="-0.83359">
        <ele>67</ele>
        <time>2020-06-16T17:01:45Z</time>
      </trkpt>
      <trkpt lat="49.35005" lon="-0.83352">
        <ele>67</ele>
        <time>2020-06-16T17:01:46Z</time>
      </trkpt>
      <trkpt lat="49.35006" lon="-0.83346">
        <ele>67.1</ele>
        <time>2020-06-16T17:01:47Z</time>
      </trkpt>
      <trkpt lat="49.35006" lon="-0.83339">
        <ele>67.2</ele>
        <time>2020-06-16T17:01:48Z</time>
      </trkpt>
      <trkpt lat="49.35006" lon="-0.83333">
        <ele>67.2</ele>
        <time>2020-06-16T17:01:49Z</time>
      </trkpt>
      <trkpt lat="49.35007" lon="-0.83326">
        <ele>67.3</ele>
        <time>2020-06-16T17:01:50Z</time>
      </trkpt>
      <trkpt lat="49.35007" lon="-0.83321">
        <ele>67.3</ele>
        <time>2020-06-16T17:01:51Z</time>
      </trkpt>
      <trkpt lat="49.35007" lon="-0.83313">
        <ele>67.3</ele>
        <time>2020-06-16T17:01:52Z</time>
      </trkpt>
      <trkpt lat="49.35007" lon="-0.83305">
        <ele>67.3</ele>
        <time>2020-06-16T17:01:53Z</time>
      </trkpt>
      <trkpt lat="49.35007" lon="-0.83296">
        <ele>67.4</ele>
        <time>2020-06-16T17:01:54Z</time>
      </trkpt>
      <trkpt lat="49.35007" lon="-0.83288">
        <ele>67.4</ele>
        <time>2020-06-16T17:01:55Z</time>
      </trkpt>
      <trkpt lat="49.35007" lon="-0.83279">
        <ele>67.4</ele>
        <time>2020-06-16T17:01:56Z</time>
      </trkpt>
      <trkpt lat="49.35008" lon="-0.83269">
        <ele>67.5</ele>
        <time>2020-06-16T17:01:57Z</time>
      </trkpt>
      <trkpt lat="49.35008" lon="-0.83262">
        <ele>67.5</ele>
        <time>2020-06-16T17:01:58Z</time>
      </trkpt>
      <trkpt lat="49.35008" lon="-0.83256">
        <ele>67.5</ele>
        <time>2020-06-16T17:01:59Z</time>
      </trkpt>
      <trkpt lat="49.35009" lon="-0.83249">
        <ele>67.5</ele>
        <time>2020-06-16T17:02:00Z</time>
      </trkpt>
      <trkpt lat="49.35009" lon="-0.83241">
        <ele>67.6</ele>
        <time>2020-06-16T17:02:01Z</time>
      </trkpt>
      <trkpt lat="49.3501" lon="-0.83234">
        <ele>67.6</ele>
        <time>2020-06-16T17:02:02Z</time>
      </trkpt>
      <trkpt lat="49.3501" lon="-0.83227">
        <ele>67.6</ele>
        <time>2020-06-16T17:02:03Z</time>
      </trkpt>
      <trkpt lat="49.35009" lon="-0.83219">
        <ele>67.6</ele>
        <time>2020-06-16T17:02:04Z</time>
      </trkpt>
      <trkpt lat="49.35009" lon="-0.83212">
        <ele>67.6</ele>
        <time>2020-06-16T17:02:05Z</time>
      </trkpt>
      <trkpt lat="49.3501" lon="-0.83202">
        <ele>67.6</ele>
        <time>2020-06-16T17:02:06Z</time>
      </trkpt>
      <trkpt lat="49.35009" lon="-0.83194">
        <ele>67.6</ele>
        <time>2020-06-16T17:02:07Z</time>
      </trkpt>
      <trkpt lat="49.35009" lon="-0.83186">
        <ele>67.6</ele>
        <time>2020-06-16T17:02:08Z</time>
      </trkpt>
      <trkpt lat="49.35009" lon="-0.83178">
        <ele>67.6</ele>
        <time>2020-06-16T17:02:09Z</time>
      </trkpt>
      <trkpt lat="49.35009" lon="-0.83169">
        <ele>67.7</ele>
        <time>2020-06-16T17:02:10Z</time>
      </trkpt>
      <trkpt lat="49.35009" lon="-0.83162">
        <ele>67.7</ele>
        <time>2020-06-16T17:02:11Z</time>
      </trkpt>
      <trkpt lat="49.3501" lon="-0.83152">
        <ele>67.7</ele>
        <time>2020-06-16T17:02:12Z</time>
      </trkpt>
      <trkpt lat="49.3501" lon="-0.83144">
        <ele>67.7</ele>
        <time>2020-06-16T17:02:13Z</time>
      </trkpt>
      <trkpt lat="49.3501" lon="-0.83136">
        <ele>67.7</ele>
        <time>2020-06-16T17:02:14Z</time>
      </trkpt>
      <trkpt lat="49.3501" lon="-0.83128">
        <ele>67.7</ele>
        <time>2020-06-16T17:02:15Z</time>
      </trkpt>
      <trkpt lat="49.3501" lon="-0.83119">
        <ele>67.7</ele>
        <time>2020-06-16T17:02:16Z</time>
      </trkpt>
      <trkpt lat="49.35011" lon="-0.83112">
        <ele>67.7</ele>
        <time>2020-06-16T17:02:17Z</time>
      </trkpt>
      <trkpt lat="49.35011" lon="-0.83104">
        <ele>67.7</ele>
        <time>2020-06-16T17:02:18Z</time>
      </trkpt>
      <trkpt lat="49.35013" lon="-0.83097">
        <ele>67.8</ele>
        <time>2020-06-16T17:02:19Z</time>
      </trkpt>
      <trkpt lat="49.35013" lon="-0.8309">
        <ele>67.8</ele>
        <time>2020-06-16T17:02:20Z</time>
      </trkpt>
      <trkpt lat="49.35014" lon="-0.83081">
        <ele>67.9</ele>
        <time>2020-06-16T17:02:21Z</time>
      </trkpt>
      <trkpt lat="49.35014" lon="-0.83072">
        <ele>67.9</ele>
        <time>2020-06-16T17:02:22Z</time>
      </trkpt>
      <trkpt lat="49.35015" lon="-0.83064">
        <ele>68</ele>
        <time>2020-06-16T17:02:23Z</time>
      </trkpt>
      <trkpt lat="49.35015" lon="-0.83057">
        <ele>68</ele>
        <time>2020-06-16T17:02:24Z</time>
      </trkpt>
      <trkpt lat="49.35015" lon="-0.83049">
        <ele>68</ele>
        <time>2020-06-16T17:02:25Z</time>
      </trkpt>
      <trkpt lat="49.35015" lon="-0.83041">
        <ele>68</ele>
        <time>2020-06-16T17:02:26Z</time>
      </trkpt>
      <trkpt lat="49.35016" lon="-0.83033">
        <ele>68</ele>
        <time>2020-06-16T17:02:27Z</time>
      </trkpt>
      <trkpt lat="49.35016" lon="-0.83024">
        <ele>68</ele>
        <time>2020-06-16T17:02:28Z</time>
      </trkpt>
      <trkpt lat="49.35016" lon="-0.83016">
        <ele>68</ele>
        <time>2020-06-16T17:02:29Z</time>
      </trkpt>
      <trkpt lat="49.35017" lon="-0.83007">
        <ele>68</ele>
        <time>2020-06-16T17:02:30Z</time>
      </trkpt>
      <trkpt lat="49.35017" lon="-0.82997">
        <ele>68</ele>
        <time>2020-06-16T17:02:31Z</time>
      </trkpt>
      <trkpt lat="49.35018" lon="-0.82988">
        <ele>68</ele>
        <time>2020-06-16T17:02:32Z</time>
      </trkpt>
      <trkpt lat="49.35019" lon="-0.82979">
        <ele>68</ele>
        <time>2020-06-16T17:02:33Z</time>
      </trkpt>
      <trkpt lat="49.35019" lon="-0.82971">
        <ele>68</ele>
        <time>2020-06-16T17:02:34Z</time>
      </trkpt>
      <trkpt lat="49.35019" lon="-0.82963">
        <ele>68.1</ele>
        <time>2020-06-16T17:02:35Z</time>
      </trkpt>
      <trkpt lat="49.35019" lon="-0.82956">
        <ele>68.1</ele>
        <time>2020-06-16T17:02:36Z</time>
      </trkpt>
      <trkpt lat="49.3502" lon="-0.82947">
        <ele>68.2</ele>
        <time>2020-06-16T17:02:37Z</time>
      </trkpt>
      <trkpt lat="49.3502" lon="-0.82938">
        <ele>68.3</ele>
        <time>2020-06-16T17:02:38Z</time>
      </trkpt>
      <trkpt lat="49.35022" lon="-0.82928">
        <ele>68.3</ele>
        <time>2020-06-16T17:02:39Z</time>
      </trkpt>
      <trkpt lat="49.35024" lon="-0.82918">
        <ele>68.2</ele>
        <time>2020-06-16T17:02:40Z</time>
      </trkpt>
      <trkpt lat="49.35025" lon="-0.82909">
        <ele>68.2</ele>
        <time>2020-06-16T17:02:41Z</time>
      </trkpt>
      <trkpt lat="49.35025" lon="-0.829">
        <ele>68.2</ele>
        <time>2020-06-16T17:02:42Z</time>
      </trkpt>
      <trkpt lat="49.35027" lon="-0.8289">
        <ele>68.1</ele>
        <time>2020-06-16T17:02:43Z</time>
      </trkpt>
      <trkpt lat="49.35028" lon="-0.82881">
        <ele>68.1</ele>
        <time>2020-06-16T17:02:44Z</time>
      </trkpt>
      <trkpt lat="49.35029" lon="-0.82871">
        <ele>68.1</ele>
        <time>2020-06-16T17:02:45Z</time>
      </trkpt>
      <trkpt lat="49.3503" lon="-0.82861">
        <ele>68</ele>
        <time>2020-06-16T17:02:46Z</time>
      </trkpt>
      <trkpt lat="49.35032" lon="-0.82852">
        <ele>68</ele>
        <time>2020-06-16T17:02:47Z</time>
      </trkpt>
      <trkpt lat="49.35033" lon="-0.82844">
        <ele>68</ele>
        <time>2020-06-16T17:02:48Z</time>
      </trkpt>
      <trkpt lat="49.35034" lon="-0.82836">
        <ele>67.9</ele>
        <time>2020-06-16T17:02:49Z</time>
      </trkpt>
      <trkpt lat="49.35036" lon="-0.82825">
        <ele>67.9</ele>
        <time>2020-06-16T17:02:50Z</time>
      </trkpt>
      <trkpt lat="49.35037" lon="-0.82816">
        <ele>67.9</ele>
        <time>2020-06-16T17:02:51Z</time>
      </trkpt>
      <trkpt lat="49.35039" lon="-0.82807">
        <ele>67.8</ele>
        <time>2020-06-16T17:02:52Z</time>
      </trkpt>
      <trkpt lat="49.3504" lon="-0.82798">
        <ele>67.8</ele>
        <time>2020-06-16T17:02:53Z</time>
      </trkpt>
      <trkpt lat="49.35041" lon="-0.82789">
        <ele>67.7</ele>
        <time>2020-06-16T17:02:54Z</time>
      </trkpt>
      <trkpt lat="49.35042" lon="-0.82781">
        <ele>67.7</ele>
        <time>2020-06-16T17:02:55Z</time>
      </trkpt>
      <trkpt lat="49.35043" lon="-0.82772">
        <ele>67.6</ele>
        <time>2020-06-16T17:02:56Z</time>
      </trkpt>
      <trkpt lat="49.35044" lon="-0.82761">
        <ele>67.5</ele>
        <time>2020-06-16T17:02:57Z</time>
      </trkpt>
      <trkpt lat="49.35044" lon="-0.82753">
        <ele>67.5</ele>
        <time>2020-06-16T17:02:58Z</time>
      </trkpt>
      <trkpt lat="49.35045" lon="-0.82745">
        <ele>67.4</ele>
        <time>2020-06-16T17:02:59Z</time>
      </trkpt>
      <trkpt lat="49.35046" lon="-0.82736">
        <ele>67.3</ele>
        <time>2020-06-16T17:03:00Z</time>
      </trkpt>
      <trkpt lat="49.35045" lon="-0.82727">
        <ele>67.3</ele>
        <time>2020-06-16T17:03:01Z</time>
      </trkpt>
      <trkpt lat="49.35046" lon="-0.82718">
        <ele>67.1</ele>
        <time>2020-06-16T17:03:02Z</time>
      </trkpt>
      <trkpt lat="49.35046" lon="-0.82709">
        <ele>67</ele>
        <time>2020-06-16T17:03:03Z</time>
      </trkpt>
      <trkpt lat="49.35045" lon="-0.827">
        <ele>67</ele>
        <time>2020-06-16T17:03:04Z</time>
      </trkpt>
      <trkpt lat="49.35044" lon="-0.82692">
        <ele>66.9</ele>
        <time>2020-06-16T17:03:05Z</time>
      </trkpt>
      <trkpt lat="49.35044" lon="-0.82683">
        <ele>66.9</ele>
        <time>2020-06-16T17:03:06Z</time>
      </trkpt>
      <trkpt lat="49.35043" lon="-0.82675">
        <ele>66.8</ele>
        <time>2020-06-16T17:03:07Z</time>
      </trkpt>
      <trkpt lat="49.35043" lon="-0.82666">
        <ele>66.8</ele>
        <time>2020-06-16T17:03:08Z</time>
      </trkpt>
      <trkpt lat="49.35042" lon="-0.82658">
        <ele>66.8</ele>
        <time>2020-06-16T17:03:09Z</time>
      </trkpt>
      <trkpt lat="49.35041" lon="-0.8265">
        <ele>66.7</ele>
        <time>2020-06-16T17:03:10Z</time>
      </trkpt>
      <trkpt lat="49.35039" lon="-0.82643">
        <ele>66.7</ele>
        <time>2020-06-16T17:03:11Z</time>
      </trkpt>
      <trkpt lat="49.35038" lon="-0.82635">
        <ele>66.7</ele>
        <time>2020-06-16T17:03:12Z</time>
      </trkpt>
      <trkpt lat="49.35037" lon="-0.82626">
        <ele>66.6</ele>
        <time>2020-06-16T17:03:13Z</time>
      </trkpt>
      <trkpt lat="49.35036" lon="-0.82617">
        <ele>66.6</ele>
        <time>2020-06-16T17:03:14Z</time>
      </trkpt>
      <trkpt lat="49.35035" lon="-0.82609">
        <ele>66.5</ele>
        <time>2020-06-16T17:03:15Z</time>
      </trkpt>
      <trkpt lat="49.35034" lon="-0.82601">
        <ele>66.5</ele>
        <time>2020-06-16T17:03:16Z</time>
      </trkpt>
      <trkpt lat="49.35033" lon="-0.82595">
        <ele>66.5</ele>
        <time>2020-06-16T17:03:17Z</time>
      </trkpt>
      <trkpt lat="49.35033" lon="-0.82588">
        <ele>66.5</ele>
        <time>2020-06-16T17:03:18Z</time>
      </trkpt>
      <trkpt lat="49.35032" lon="-0.82581">
        <ele>66.5</ele>
        <time>2020-06-16T17:03:19Z</time>
      </trkpt>
      <trkpt lat="49.35031" lon="-0.82575">
        <ele>66.5</ele>
        <time>2020-06-16T17:03:20Z</time>
      </trkpt>
      <trkpt lat="49.3503" lon="-0.82569">
        <ele>66.5</ele>
        <time>2020-06-16T17:03:21Z</time>
      </trkpt>
      <trkpt lat="49.35029" lon="-0.82562">
        <ele>66.5</ele>
        <time>2020-06-16T17:03:22Z</time>
      </trkpt>
      <trkpt lat="49.35029" lon="-0.82554">
        <ele>66.5</ele>
        <time>2020-06-16T17:03:23Z</time>
      </trkpt>
      <trkpt lat="49.35028" lon="-0.82549">
        <ele>66.5</ele>
        <time>2020-06-16T17:03:24Z</time>
      </trkpt>
      <trkpt lat="49.35027" lon="-0.82545">
        <ele>66.5</ele>
        <time>2020-06-16T17:03:25Z</time>
      </trkpt>
      <trkpt lat="49.35027" lon="-0.82539">
        <ele>66.5</ele>
        <time>2020-06-16T17:03:26Z</time>
      </trkpt>
      <trkpt lat="49.35026" lon="-0.82535">
        <ele>66.5</ele>
        <time>2020-06-16T17:03:27Z</time>
      </trkpt>
      <trkpt lat="49.35026" lon="-0.82529">
        <ele>66.5</ele>
        <time>2020-06-16T17:03:28Z</time>
      </trkpt>
      <trkpt lat="49.35024" lon="-0.82525">
        <ele>66.5</ele>
        <time>2020-06-16T17:03:29Z</time>
      </trkpt>
      <trkpt lat="49.35023" lon="-0.82518">
        <ele>66.5</ele>
        <time>2020-06-16T17:03:30Z</time>
      </trkpt>
      <trkpt lat="49.35021" lon="-0.82513">
        <ele>66.5</ele>
        <time>2020-06-16T17:03:31Z</time>
      </trkpt>
      <trkpt lat="49.35021" lon="-0.82507">
        <ele>66.6</ele>
        <time>2020-06-16T17:03:32Z</time>
      </trkpt>
      <trkpt lat="49.35019" lon="-0.82502">
        <ele>66.6</ele>
        <time>2020-06-16T17:03:33Z</time>
      </trkpt>
      <trkpt lat="49.35018" lon="-0.82496">
        <ele>66.6</ele>
        <time>2020-06-16T17:03:34Z</time>
      </trkpt>
      <trkpt lat="49.35017" lon="-0.82489">
        <ele>66.6</ele>
        <time>2020-06-16T17:03:35Z</time>
      </trkpt>
      <trkpt lat="49.35015" lon="-0.82485">
        <ele>66.6</ele>
        <time>2020-06-16T17:03:36Z</time>
      </trkpt>
      <trkpt lat="49.35015" lon="-0.8248">
        <ele>66.6</ele>
        <time>2020-06-16T17:03:37Z</time>
      </trkpt>
      <trkpt lat="49.35014" lon="-0.82475">
        <ele>66.6</ele>
        <time>2020-06-16T17:03:38Z</time>
      </trkpt>
      <trkpt lat="49.35013" lon="-0.82469">
        <ele>66.7</ele>
        <time>2020-06-16T17:03:39Z</time>
      </trkpt>
      <trkpt lat="49.35012" lon="-0.82463">
        <ele>66.7</ele>
        <time>2020-06-16T17:03:40Z</time>
      </trkpt>
      <trkpt lat="49.3501" lon="-0.82456">
        <ele>66.7</ele>
        <time>2020-06-16T17:03:41Z</time>
      </trkpt>
      <trkpt lat="49.35009" lon="-0.8245">
        <ele>66.7</ele>
        <time>2020-06-16T17:03:42Z</time>
      </trkpt>
      <trkpt lat="49.35007" lon="-0.82444">
        <ele>66.7</ele>
        <time>2020-06-16T17:03:43Z</time>
      </trkpt>
      <trkpt lat="49.35006" lon="-0.82442">
        <ele>66.7</ele>
        <time>2020-06-16T17:03:44Z</time>
      </trkpt>
      <trkpt lat="49.35003" lon="-0.82436">
        <ele>66.8</ele>
        <time>2020-06-16T17:03:45Z</time>
      </trkpt>
      <trkpt lat="49.35002" lon="-0.8243">
        <ele>66.8</ele>
        <time>2020-06-16T17:03:46Z</time>
      </trkpt>
      <trkpt lat="49.35002" lon="-0.82425">
        <ele>66.8</ele>
        <time>2020-06-16T17:03:47Z</time>
      </trkpt>
      <trkpt lat="49.35" lon="-0.82419">
        <ele>66.8</ele>
        <time>2020-06-16T17:03:48Z</time>
      </trkpt>
      <trkpt lat="49.34999" lon="-0.82417">
        <ele>66.8</ele>
        <time>2020-06-16T17:03:49Z</time>
      </trkpt>
      <trkpt lat="49.34997" lon="-0.82413">
        <ele>66.8</ele>
        <time>2020-06-16T17:03:50Z</time>
      </trkpt>
      <trkpt lat="49.34997" lon="-0.82411">
        <ele>66.8</ele>
        <time>2020-06-16T17:03:51Z</time>
      </trkpt>
      <trkpt lat="49.34996" lon="-0.82407">
        <ele>66.8</ele>
        <time>2020-06-16T17:03:52Z</time>
      </trkpt>
      <trkpt lat="49.34996" lon="-0.82405">
        <ele>66.8</ele>
        <time>2020-06-16T17:03:53Z</time>
      </trkpt>
      <trkpt lat="49.34996" lon="-0.82401">
        <ele>66.8</ele>
        <time>2020-06-16T17:03:54Z</time>
      </trkpt>
      <trkpt lat="49.34996" lon="-0.82399">
        <ele>66.8</ele>
        <time>2020-06-16T17:03:55Z</time>
      </trkpt>
      <trkpt lat="49.34994" lon="-0.82394">
        <ele>66.8</ele>
        <time>2020-06-16T17:03:56Z</time>
      </trkpt>
      <trkpt lat="49.34993" lon="-0.82393">
        <ele>66.8</ele>
        <time>2020-06-16T17:03:57Z</time>
      </trkpt>
      <trkpt lat="49.34993" lon="-0.8239">
        <ele>66.8</ele>
        <time>2020-06-16T17:03:58Z</time>
      </trkpt>
      <trkpt lat="49.34992" lon="-0.82388">
        <ele>66.8</ele>
        <time>2020-06-16T17:03:59Z</time>
      </trkpt>
      <trkpt lat="49.34991" lon="-0.82385">
        <ele>66.8</ele>
        <time>2020-06-16T17:04:00Z</time>
      </trkpt>
      <trkpt lat="49.34991" lon="-0.82383">
        <ele>66.8</ele>
        <time>2020-06-16T17:04:01Z</time>
      </trkpt>
      <trkpt lat="49.34991" lon="-0.82381">
        <ele>66.8</ele>
        <time>2020-06-16T17:04:02Z</time>
      </trkpt>
      <trkpt lat="49.3499" lon="-0.82379">
        <ele>66.8</ele>
        <time>2020-06-16T17:04:03Z</time>
      </trkpt>
      <trkpt lat="49.34989" lon="-0.82377">
        <ele>66.8</ele>
        <time>2020-06-16T17:04:04Z</time>
      </trkpt>
      <trkpt lat="49.34988" lon="-0.82376">
        <ele>66.8</ele>
        <time>2020-06-16T17:04:05Z</time>
      </trkpt>
      <trkpt lat="49.34988" lon="-0.82375">
        <ele>66.8</ele>
        <time>2020-06-16T17:04:06Z</time>
      </trkpt>
      <trkpt lat="49.34988" lon="-0.82372">
        <ele>66.8</ele>
        <time>2020-06-16T17:04:07Z</time>
      </trkpt>
      <trkpt lat="49.34988" lon="-0.82367">
        <ele>66.8</ele>
        <time>2020-06-16T17:04:08Z</time>
      </trkpt>
      <trkpt lat="49.34988" lon="-0.82366">
        <ele>66.8</ele>
        <time>2020-06-16T17:04:09Z</time>
      </trkpt>
      <trkpt lat="49.34987" lon="-0.82361">
        <ele>66.9</ele>
        <time>2020-06-16T17:04:10Z</time>
      </trkpt>
      <trkpt lat="49.34987" lon="-0.8236">
        <ele>66.9</ele>
        <time>2020-06-16T17:04:11Z</time>
      </trkpt>
      <trkpt lat="49.34987" lon="-0.82358">
        <ele>66.9</ele>
        <time>2020-06-16T17:04:12Z</time>
      </trkpt>
      <trkpt lat="49.34987" lon="-0.82357">
        <ele>66.9</ele>
        <time>2020-06-16T17:04:13Z</time>
      </trkpt>
      <trkpt lat="49.34987" lon="-0.82356">
        <ele>66.9</ele>
        <time>2020-06-16T17:04:14Z</time>
      </trkpt>
      <trkpt lat="49.34986" lon="-0.82354">
        <ele>66.9</ele>
        <time>2020-06-16T17:04:15Z</time>
      </trkpt>
      <trkpt lat="49.34985" lon="-0.82349">
        <ele>66.8</ele>
        <time>2020-06-16T17:04:16Z</time>
      </trkpt>
      <trkpt lat="49.34984" lon="-0.82344">
        <ele>66.7</ele>
        <time>2020-06-16T17:04:17Z</time>
      </trkpt>
      <trkpt lat="49.34984" lon="-0.82343">
        <ele>66.7</ele>
        <time>2020-06-16T17:04:18Z</time>
      </trkpt>
      <trkpt lat="49.34983" lon="-0.82339">
        <ele>66.7</ele>
        <time>2020-06-16T17:04:19Z</time>
      </trkpt>
      <trkpt lat="49.34983" lon="-0.82338">
        <ele>66.7</ele>
        <time>2020-06-16T17:04:20Z</time>
      </trkpt>
      <trkpt lat="49.34983" lon="-0.82336">
        <ele>66.7</ele>
        <time>2020-06-16T17:04:21Z</time>
      </trkpt>
      <trkpt lat="49.34982" lon="-0.82332">
        <ele>66.6</ele>
        <time>2020-06-16T17:04:22Z</time>
      </trkpt>
      <trkpt lat="49.34982" lon="-0.8233">
        <ele>66.6</ele>
        <time>2020-06-16T17:04:23Z</time>
      </trkpt>
      <trkpt lat="49.34981" lon="-0.82326">
        <ele>66.6</ele>
        <time>2020-06-16T17:04:24Z</time>
      </trkpt>
      <trkpt lat="49.34981" lon="-0.82325">
        <ele>66.6</ele>
        <time>2020-06-16T17:04:25Z</time>
      </trkpt>
      <trkpt lat="49.3498" lon="-0.82321">
        <ele>66.6</ele>
        <time>2020-06-16T17:04:26Z</time>
      </trkpt>
      <trkpt lat="49.3498" lon="-0.82319">
        <ele>66.6</ele>
        <time>2020-06-16T17:04:27Z</time>
      </trkpt>
      <trkpt lat="49.34979" lon="-0.82314">
        <ele>66.5</ele>
        <time>2020-06-16T17:04:28Z</time>
      </trkpt>
      <trkpt lat="49.34978" lon="-0.82312">
        <ele>66.5</ele>
        <time>2020-06-16T17:04:29Z</time>
      </trkpt>
      <trkpt lat="49.34977" lon="-0.82308">
        <ele>66.5</ele>
        <time>2020-06-16T17:04:30Z</time>
      </trkpt>
      <trkpt lat="49.34976" lon="-0.82304">
        <ele>66.5</ele>
        <time>2020-06-16T17:04:31Z</time>
      </trkpt>
      <trkpt lat="49.34976" lon="-0.82303">
        <ele>66.5</ele>
        <time>2020-06-16T17:04:32Z</time>
      </trkpt>
      <trkpt lat="49.34976" lon="-0.82298">
        <ele>66.5</ele>
        <time>2020-06-16T17:04:33Z</time>
      </trkpt>
      <trkpt lat="49.34976" lon="-0.82296">
        <ele>66.5</ele>
        <time>2020-06-16T17:04:34Z</time>
      </trkpt>
      <trkpt lat="49.34976" lon="-0.82295">
        <ele>66.5</ele>
        <time>2020-06-16T17:04:35Z</time>
      </trkpt>
      <trkpt lat="49.34975" lon="-0.82291">
        <ele>66.4</ele>
        <time>2020-06-16T17:04:36Z</time>
      </trkpt>
      <trkpt lat="49.34973" lon="-0.82287">
        <ele>66.4</ele>
        <time>2020-06-16T17:04:37Z</time>
      </trkpt>
      <trkpt lat="49.34973" lon="-0.82285">
        <ele>66.4</ele>
        <time>2020-06-16T17:04:38Z</time>
      </trkpt>
      <trkpt lat="49.34971" lon="-0.8228">
        <ele>66.4</ele>
        <time>2020-06-16T17:04:39Z</time>
      </trkpt>
      <trkpt lat="49.34971" lon="-0.82275">
        <ele>66.4</ele>
        <time>2020-06-16T17:04:40Z</time>
      </trkpt>
      <trkpt lat="49.3497" lon="-0.82271">
        <ele>66.4</ele>
        <time>2020-06-16T17:04:41Z</time>
      </trkpt>
      <trkpt lat="49.34968" lon="-0.82265">
        <ele>66.4</ele>
        <time>2020-06-16T17:04:42Z</time>
      </trkpt>
      <trkpt lat="49.34969" lon="-0.82263">
        <ele>66.4</ele>
        <time>2020-06-16T17:04:43Z</time>
      </trkpt>
      <trkpt lat="49.34968" lon="-0.8226">
        <ele>66.4</ele>
        <time>2020-06-16T17:04:44Z</time>
      </trkpt>
      <trkpt lat="49.34967" lon="-0.82255">
        <ele>66.4</ele>
        <time>2020-06-16T17:04:45Z</time>
      </trkpt>
      <trkpt lat="49.34966" lon="-0.82254">
        <ele>66.4</ele>
        <time>2020-06-16T17:04:46Z</time>
      </trkpt>
      <trkpt lat="49.34965" lon="-0.82249">
        <ele>66.4</ele>
        <time>2020-06-16T17:04:47Z</time>
      </trkpt>
      <trkpt lat="49.34965" lon="-0.82248">
        <ele>66.4</ele>
        <time>2020-06-16T17:04:48Z</time>
      </trkpt>
      <trkpt lat="49.34965" lon="-0.82246">
        <ele>66.4</ele>
        <time>2020-06-16T17:04:49Z</time>
      </trkpt>
      <trkpt lat="49.34964" lon="-0.82243">
        <ele>66.4</ele>
        <time>2020-06-16T17:04:50Z</time>
      </trkpt>
      <trkpt lat="49.34964" lon="-0.8224">
        <ele>66.4</ele>
        <time>2020-06-16T17:04:51Z</time>
      </trkpt>
      <trkpt lat="49.34964" lon="-0.82238">
        <ele>66.4</ele>
        <time>2020-06-16T17:04:52Z</time>
      </trkpt>
      <trkpt lat="49.34963" lon="-0.82235">
        <ele>66.4</ele>
        <time>2020-06-16T17:04:53Z</time>
      </trkpt>
      <trkpt lat="49.34963" lon="-0.82235">
        <ele>66.4</ele>
        <time>2020-06-16T17:04:54Z</time>
      </trkpt>
      <trkpt lat="49.34962" lon="-0.82232">
        <ele>66.4</ele>
        <time>2020-06-16T17:04:55Z</time>
      </trkpt>
      <trkpt lat="49.34962" lon="-0.8223">
        <ele>66.4</ele>
        <time>2020-06-16T17:04:56Z</time>
      </trkpt>
      <trkpt lat="49.34961" lon="-0.82228">
        <ele>66.4</ele>
        <time>2020-06-16T17:04:57Z</time>
      </trkpt>
      <trkpt lat="49.34961" lon="-0.82227">
        <ele>66.4</ele>
        <time>2020-06-16T17:04:58Z</time>
      </trkpt>
      <trkpt lat="49.3496" lon="-0.82225">
        <ele>66.4</ele>
        <time>2020-06-16T17:04:59Z</time>
      </trkpt>
      <trkpt lat="49.34958" lon="-0.8222">
        <ele>66.4</ele>
        <time>2020-06-16T17:05:00Z</time>
      </trkpt>
      <trkpt lat="49.34958" lon="-0.82219">
        <ele>66.4</ele>
        <time>2020-06-16T17:05:01Z</time>
      </trkpt>
      <trkpt lat="49.34957" lon="-0.82214">
        <ele>66.4</ele>
        <time>2020-06-16T17:05:02Z</time>
      </trkpt>
      <trkpt lat="49.34957" lon="-0.82213">
        <ele>66.4</ele>
        <time>2020-06-16T17:05:03Z</time>
      </trkpt>
      <trkpt lat="49.34957" lon="-0.82211">
        <ele>66.4</ele>
        <time>2020-06-16T17:05:04Z</time>
      </trkpt>
      <trkpt lat="49.34956" lon="-0.82207">
        <ele>66.4</ele>
        <time>2020-06-16T17:05:05Z</time>
      </trkpt>
      <trkpt lat="49.34956" lon="-0.82205">
        <ele>66.4</ele>
        <time>2020-06-16T17:05:06Z</time>
      </trkpt>
      <trkpt lat="49.34956" lon="-0.822">
        <ele>66.4</ele>
        <time>2020-06-16T17:05:07Z</time>
      </trkpt>
      <trkpt lat="49.34955" lon="-0.82199">
        <ele>66.4</ele>
        <time>2020-06-16T17:05:08Z</time>
      </trkpt>
      <trkpt lat="49.34953" lon="-0.82195">
        <ele>66.4</ele>
        <time>2020-06-16T17:05:09Z</time>
      </trkpt>
      <trkpt lat="49.34953" lon="-0.82193">
        <ele>66.4</ele>
        <time>2020-06-16T17:05:10Z</time>
      </trkpt>
      <trkpt lat="49.34951" lon="-0.82189">
        <ele>66.4</ele>
        <time>2020-06-16T17:05:11Z</time>
      </trkpt>
      <trkpt lat="49.34951" lon="-0.82188">
        <ele>66.4</ele>
        <time>2020-06-16T17:05:12Z</time>
      </trkpt>
      <trkpt lat="49.3495" lon="-0.82184">
        <ele>66.4</ele>
        <time>2020-06-16T17:05:13Z</time>
      </trkpt>
      <trkpt lat="49.3495" lon="-0.82182">
        <ele>66.4</ele>
        <time>2020-06-16T17:05:14Z</time>
      </trkpt>
      <trkpt lat="49.34949" lon="-0.82179">
        <ele>66.4</ele>
        <time>2020-06-16T17:05:15Z</time>
      </trkpt>
      <trkpt lat="49.34949" lon="-0.82177">
        <ele>66.4</ele>
        <time>2020-06-16T17:05:16Z</time>
      </trkpt>
      <trkpt lat="49.3495" lon="-0.82174">
        <ele>66.4</ele>
        <time>2020-06-16T17:05:17Z</time>
      </trkpt>
      <trkpt lat="49.3495" lon="-0.82173">
        <ele>66.4</ele>
        <time>2020-06-16T17:05:18Z</time>
      </trkpt>
      <trkpt lat="49.3495" lon="-0.82171">
        <ele>66.4</ele>
        <time>2020-06-16T17:05:19Z</time>
      </trkpt>
      <trkpt lat="49.34951" lon="-0.8217">
        <ele>66.4</ele>
        <time>2020-06-16T17:05:20Z</time>
      </trkpt>
      <trkpt lat="49.3495" lon="-0.82169">
        <ele>66.4</ele>
        <time>2020-06-16T17:05:21Z</time>
      </trkpt>
      <trkpt lat="49.3495" lon="-0.82168">
        <ele>66.4</ele>
        <time>2020-06-16T17:05:22Z</time>
      </trkpt>
      <trkpt lat="49.34949" lon="-0.82166">
        <ele>66.3</ele>
        <time>2020-06-16T17:05:23Z</time>
      </trkpt>
      <trkpt lat="49.34948" lon="-0.82163">
        <ele>66.3</ele>
        <time>2020-06-16T17:05:24Z</time>
      </trkpt>
      <trkpt lat="49.34948" lon="-0.82161">
        <ele>66.3</ele>
        <time>2020-06-16T17:05:25Z</time>
      </trkpt>
      <trkpt lat="49.34947" lon="-0.8216">
        <ele>66.3</ele>
        <time>2020-06-16T17:05:26Z</time>
      </trkpt>
      <trkpt lat="49.34946" lon="-0.82157">
        <ele>66.3</ele>
        <time>2020-06-16T17:05:27Z</time>
      </trkpt>
      <trkpt lat="49.34946" lon="-0.82154">
        <ele>66.3</ele>
        <time>2020-06-16T17:05:28Z</time>
      </trkpt>
      <trkpt lat="49.34945" lon="-0.82153">
        <ele>66.3</ele>
        <time>2020-06-16T17:05:29Z</time>
      </trkpt>
      <trkpt lat="49.34944" lon="-0.82153">
        <ele>66.3</ele>
        <time>2020-06-16T17:05:30Z</time>
      </trkpt>
      <trkpt lat="49.34944" lon="-0.82151">
        <ele>66.3</ele>
        <time>2020-06-16T17:05:31Z</time>
      </trkpt>
      <trkpt lat="49.34945" lon="-0.82148">
        <ele>66.3</ele>
        <time>2020-06-16T17:05:32Z</time>
      </trkpt>
      <trkpt lat="49.34944" lon="-0.82144">
        <ele>66.3</ele>
        <time>2020-06-16T17:05:33Z</time>
      </trkpt>
      <trkpt lat="49.34944" lon="-0.82142">
        <ele>66.2</ele>
        <time>2020-06-16T17:05:34Z</time>
      </trkpt>
      <trkpt lat="49.34944" lon="-0.82141">
        <ele>66.2</ele>
        <time>2020-06-16T17:05:35Z</time>
      </trkpt>
      <trkpt lat="49.34944" lon="-0.8214">
        <ele>66.2</ele>
        <time>2020-06-16T17:05:36Z</time>
      </trkpt>
      <trkpt lat="49.34944" lon="-0.8214">
        <ele>66.2</ele>
        <time>2020-06-16T17:05:37Z</time>
      </trkpt>
      <trkpt lat="49.34943" lon="-0.82139">
        <ele>66.2</ele>
        <time>2020-06-16T17:05:38Z</time>
      </trkpt>
      <trkpt lat="49.34943" lon="-0.82138">
        <ele>66.2</ele>
        <time>2020-06-16T17:05:39Z</time>
      </trkpt>
      <trkpt lat="49.34943" lon="-0.82138">
        <ele>66.2</ele>
        <time>2020-06-16T17:05:40Z</time>
      </trkpt>
      <trkpt lat="49.34943" lon="-0.82137">
        <ele>66.2</ele>
        <time>2020-06-16T17:05:41Z</time>
      </trkpt>
      <trkpt lat="49.34942" lon="-0.82135">
        <ele>66.2</ele>
        <time>2020-06-16T17:05:42Z</time>
      </trkpt>
      <trkpt lat="49.34941" lon="-0.82134">
        <ele>66.2</ele>
        <time>2020-06-16T17:05:43Z</time>
      </trkpt>
      <trkpt lat="49.3494" lon="-0.82132">
        <ele>66.2</ele>
        <time>2020-06-16T17:05:44Z</time>
      </trkpt>
      <trkpt lat="49.3494" lon="-0.82131">
        <ele>66.2</ele>
        <time>2020-06-16T17:05:45Z</time>
      </trkpt>
      <trkpt lat="49.34939" lon="-0.8213">
        <ele>66.2</ele>
        <time>2020-06-16T17:05:46Z</time>
      </trkpt>
      <trkpt lat="49.34939" lon="-0.82129">
        <ele>66.2</ele>
        <time>2020-06-16T17:05:47Z</time>
      </trkpt>
      <trkpt lat="49.34939" lon="-0.82128">
        <ele>66.2</ele>
        <time>2020-06-16T17:05:48Z</time>
      </trkpt>
      <trkpt lat="49.34938" lon="-0.82126">
        <ele>66.2</ele>
        <time>2020-06-16T17:05:49Z</time>
      </trkpt>
      <trkpt lat="49.34939" lon="-0.82123">
        <ele>66.2</ele>
        <time>2020-06-16T17:05:50Z</time>
      </trkpt>
      <trkpt lat="49.34939" lon="-0.82121">
        <ele>66.2</ele>
        <time>2020-06-16T17:05:51Z</time>
      </trkpt>
      <trkpt lat="49.34938" lon="-0.82121">
        <ele>66.1</ele>
        <time>2020-06-16T17:05:52Z</time>
      </trkpt>
      <trkpt lat="49.34938" lon="-0.82119">
        <ele>66.1</ele>
        <time>2020-06-16T17:05:53Z</time>
      </trkpt>
      <trkpt lat="49.34935" lon="-0.82117">
        <ele>66.1</ele>
        <time>2020-06-16T17:05:54Z</time>
      </trkpt>
      <trkpt lat="49.34935" lon="-0.82115">
        <ele>66.1</ele>
        <time>2020-06-16T17:05:55Z</time>
      </trkpt>
      <trkpt lat="49.34935" lon="-0.82114">
        <ele>66.1</ele>
        <time>2020-06-16T17:05:56Z</time>
      </trkpt>
      <trkpt lat="49.34935" lon="-0.82112">
        <ele>66.1</ele>
        <time>2020-06-16T17:05:57Z</time>
      </trkpt>
      <trkpt lat="49.34935" lon="-0.82111">
        <ele>66.1</ele>
        <time>2020-06-16T17:05:58Z</time>
      </trkpt>
      <trkpt lat="49.34935" lon="-0.8211">
        <ele>66.1</ele>
        <time>2020-06-16T17:05:59Z</time>
      </trkpt>
      <trkpt lat="49.34935" lon="-0.82109">
        <ele>66.1</ele>
        <time>2020-06-16T17:06:00Z</time>
      </trkpt>
      <trkpt lat="49.34935" lon="-0.82107">
        <ele>66.1</ele>
        <time>2020-06-16T17:06:01Z</time>
      </trkpt>
      <trkpt lat="49.34935" lon="-0.82106">
        <ele>66.1</ele>
        <time>2020-06-16T17:06:02Z</time>
      </trkpt>
      <trkpt lat="49.34935" lon="-0.82104">
        <ele>66.1</ele>
        <time>2020-06-16T17:06:03Z</time>
      </trkpt>
      <trkpt lat="49.34934" lon="-0.82103">
        <ele>66.1</ele>
        <time>2020-06-16T17:06:04Z</time>
      </trkpt>
      <trkpt lat="49.34934" lon="-0.82104">
        <ele>66.1</ele>
        <time>2020-06-16T17:06:05Z</time>
      </trkpt>
      <trkpt lat="49.34934" lon="-0.82104">
        <ele>66.1</ele>
        <time>2020-06-16T17:06:06Z</time>
      </trkpt>
      <trkpt lat="49.34935" lon="-0.82103">
        <ele>66.1</ele>
        <time>2020-06-16T17:06:07Z</time>
      </trkpt>
      <trkpt lat="49.34935" lon="-0.82102">
        <ele>66.1</ele>
        <time>2020-06-16T17:06:08Z</time>
      </trkpt>
      <trkpt lat="49.34935" lon="-0.82102">
        <ele>66.1</ele>
        <time>2020-06-16T17:06:09Z</time>
      </trkpt>
      <trkpt lat="49.34935" lon="-0.82103">
        <ele>66.1</ele>
        <time>2020-06-16T17:06:10Z</time>
      </trkpt>
      <trkpt lat="49.34936" lon="-0.82104">
        <ele>66.1</ele>
        <time>2020-06-16T17:06:11Z</time>
      </trkpt>
      <trkpt lat="49.34936" lon="-0.82105">
        <ele>66.1</ele>
        <time>2020-06-16T17:06:12Z</time>
      </trkpt>
      <trkpt lat="49.34936" lon="-0.82105">
        <ele>66.1</ele>
        <time>2020-06-16T17:06:13Z</time>
      </trkpt>
      <trkpt lat="49.34936" lon="-0.82105">
        <ele>66.1</ele>
        <time>2020-06-16T17:06:14Z</time>
      </trkpt>
      <trkpt lat="49.34936" lon="-0.82104">
        <ele>66.1</ele>
        <time>2020-06-16T17:06:15Z</time>
      </trkpt>
      <trkpt lat="49.34935" lon="-0.82102">
        <ele>66.1</ele>
        <time>2020-06-16T17:06:16Z</time>
      </trkpt>
      <trkpt lat="49.34934" lon="-0.82101">
        <ele>66.1</ele>
        <time>2020-06-16T17:06:17Z</time>
      </trkpt>
      <trkpt lat="49.34934" lon="-0.82098">
        <ele>66.1</ele>
        <time>2020-06-16T17:06:18Z</time>
      </trkpt>
      <trkpt lat="49.34933" lon="-0.82092">
        <ele>66.1</ele>
        <time>2020-06-16T17:06:19Z</time>
      </trkpt>
      <trkpt lat="49.34933" lon="-0.8209">
        <ele>66.1</ele>
        <time>2020-06-16T17:06:20Z</time>
      </trkpt>
      <trkpt lat="49.34932" lon="-0.82084">
        <ele>66.1</ele>
        <time>2020-06-16T17:06:21Z</time>
      </trkpt>
      <trkpt lat="49.34932" lon="-0.82082">
        <ele>66.1</ele>
        <time>2020-06-16T17:06:22Z</time>
      </trkpt>
      <trkpt lat="49.34932" lon="-0.82078">
        <ele>66.1</ele>
        <time>2020-06-16T17:06:23Z</time>
      </trkpt>
      <trkpt lat="49.34931" lon="-0.82073">
        <ele>66.1</ele>
        <time>2020-06-16T17:06:24Z</time>
      </trkpt>
      <trkpt lat="49.34931" lon="-0.82068">
        <ele>66.2</ele>
        <time>2020-06-16T17:06:25Z</time>
      </trkpt>
      <trkpt lat="49.34929" lon="-0.82063">
        <ele>66.2</ele>
        <time>2020-06-16T17:06:26Z</time>
      </trkpt>
      <trkpt lat="49.34928" lon="-0.82057">
        <ele>66.2</ele>
        <time>2020-06-16T17:06:27Z</time>
      </trkpt>
      <trkpt lat="49.34927" lon="-0.8205">
        <ele>66.3</ele>
        <time>2020-06-16T17:06:28Z</time>
      </trkpt>
      <trkpt lat="49.34926" lon="-0.82043">
        <ele>66.4</ele>
        <time>2020-06-16T17:06:29Z</time>
      </trkpt>
      <trkpt lat="49.34924" lon="-0.82037">
        <ele>66.4</ele>
        <time>2020-06-16T17:06:30Z</time>
      </trkpt>
      <trkpt lat="49.34923" lon="-0.82032">
        <ele>66.4</ele>
        <time>2020-06-16T17:06:31Z</time>
      </trkpt>
      <trkpt lat="49.34922" lon="-0.82026">
        <ele>66.4</ele>
        <time>2020-06-16T17:06:32Z</time>
      </trkpt>
      <trkpt lat="49.34921" lon="-0.82018">
        <ele>66.4</ele>
        <time>2020-06-16T17:06:33Z</time>
      </trkpt>
      <trkpt lat="49.3492" lon="-0.82011">
        <ele>66.4</ele>
        <time>2020-06-16T17:06:34Z</time>
      </trkpt>
      <trkpt lat="49.34919" lon="-0.82004">
        <ele>66.4</ele>
        <time>2020-06-16T17:06:35Z</time>
      </trkpt>
      <trkpt lat="49.34918" lon="-0.81998">
        <ele>66.4</ele>
        <time>2020-06-16T17:06:36Z</time>
      </trkpt>
      <trkpt lat="49.34917" lon="-0.81989">
        <ele>66.3</ele>
        <time>2020-06-16T17:06:37Z</time>
      </trkpt>
      <trkpt lat="49.34916" lon="-0.81981">
        <ele>66.3</ele>
        <time>2020-06-16T17:06:38Z</time>
      </trkpt>
      <trkpt lat="49.34915" lon="-0.81975">
        <ele>66.3</ele>
        <time>2020-06-16T17:06:39Z</time>
      </trkpt>
      <trkpt lat="49.34914" lon="-0.81967">
        <ele>66.3</ele>
        <time>2020-06-16T17:06:40Z</time>
      </trkpt>
      <trkpt lat="49.34913" lon="-0.81959">
        <ele>66.3</ele>
        <time>2020-06-16T17:06:41Z</time>
      </trkpt>
      <trkpt lat="49.34912" lon="-0.81952">
        <ele>66.2</ele>
        <time>2020-06-16T17:06:42Z</time>
      </trkpt>
      <trkpt lat="49.34911" lon="-0.81944">
        <ele>66.2</ele>
        <time>2020-06-16T17:06:43Z</time>
      </trkpt>
      <trkpt lat="49.34909" lon="-0.81937">
        <ele>66.2</ele>
        <time>2020-06-16T17:06:44Z</time>
      </trkpt>
      <trkpt lat="49.34907" lon="-0.8193">
        <ele>66.2</ele>
        <time>2020-06-16T17:06:45Z</time>
      </trkpt>
      <trkpt lat="49.34906" lon="-0.81922">
        <ele>66.2</ele>
        <time>2020-06-16T17:06:46Z</time>
      </trkpt>
      <trkpt lat="49.34904" lon="-0.81914">
        <ele>66.2</ele>
        <time>2020-06-16T17:06:47Z</time>
      </trkpt>
      <trkpt lat="49.34902" lon="-0.81905">
        <ele>66.2</ele>
        <time>2020-06-16T17:06:48Z</time>
      </trkpt>
      <trkpt lat="49.34901" lon="-0.81897">
        <ele>66.2</ele>
        <time>2020-06-16T17:06:49Z</time>
      </trkpt>
      <trkpt lat="49.349" lon="-0.81889">
        <ele>66.2</ele>
        <time>2020-06-16T17:06:50Z</time>
      </trkpt>
      <trkpt lat="49.34899" lon="-0.81881">
        <ele>66.2</ele>
        <time>2020-06-16T17:06:51Z</time>
      </trkpt>
      <trkpt lat="49.34898" lon="-0.81873">
        <ele>66.2</ele>
        <time>2020-06-16T17:06:52Z</time>
      </trkpt>
      <trkpt lat="49.34896" lon="-0.81866">
        <ele>66.2</ele>
        <time>2020-06-16T17:06:53Z</time>
      </trkpt>
      <trkpt lat="49.34895" lon="-0.81859">
        <ele>66.3</ele>
        <time>2020-06-16T17:06:54Z</time>
      </trkpt>
      <trkpt lat="49.34894" lon="-0.8185">
        <ele>66.3</ele>
        <time>2020-06-16T17:06:55Z</time>
      </trkpt>
      <trkpt lat="49.34892" lon="-0.8184">
        <ele>66.3</ele>
        <time>2020-06-16T17:06:56Z</time>
      </trkpt>
      <trkpt lat="49.34891" lon="-0.81831">
        <ele>66.4</ele>
        <time>2020-06-16T17:06:57Z</time>
      </trkpt>
      <trkpt lat="49.34889" lon="-0.81823">
        <ele>66.4</ele>
        <time>2020-06-16T17:06:58Z</time>
      </trkpt>
      <trkpt lat="49.34888" lon="-0.81815">
        <ele>66.5</ele>
        <time>2020-06-16T17:06:59Z</time>
      </trkpt>
      <trkpt lat="49.34885" lon="-0.81808">
        <ele>66.5</ele>
        <time>2020-06-16T17:07:00Z</time>
      </trkpt>
      <trkpt lat="49.34883" lon="-0.81801">
        <ele>66.6</ele>
        <time>2020-06-16T17:07:01Z</time>
      </trkpt>
      <trkpt lat="49.34882" lon="-0.81792">
        <ele>66.6</ele>
        <time>2020-06-16T17:07:02Z</time>
      </trkpt>
      <trkpt lat="49.34881" lon="-0.81785">
        <ele>66.7</ele>
        <time>2020-06-16T17:07:03Z</time>
      </trkpt>
      <trkpt lat="49.34881" lon="-0.81777">
        <ele>66.8</ele>
        <time>2020-06-16T17:07:04Z</time>
      </trkpt>
      <trkpt lat="49.3488" lon="-0.81771">
        <ele>66.8</ele>
        <time>2020-06-16T17:07:05Z</time>
      </trkpt>
      <trkpt lat="49.34879" lon="-0.81765">
        <ele>66.8</ele>
        <time>2020-06-16T17:07:06Z</time>
      </trkpt>
      <trkpt lat="49.34879" lon="-0.81758">
        <ele>66.9</ele>
        <time>2020-06-16T17:07:07Z</time>
      </trkpt>
      <trkpt lat="49.34879" lon="-0.81751">
        <ele>66.9</ele>
        <time>2020-06-16T17:07:08Z</time>
      </trkpt>
      <trkpt lat="49.34878" lon="-0.81746">
        <ele>66.9</ele>
        <time>2020-06-16T17:07:09Z</time>
      </trkpt>
      <trkpt lat="49.34878" lon="-0.8174">
        <ele>66.9</ele>
        <time>2020-06-16T17:07:10Z</time>
      </trkpt>
      <trkpt lat="49.34878" lon="-0.81733">
        <ele>66.9</ele>
        <time>2020-06-16T17:07:11Z</time>
      </trkpt>
      <trkpt lat="49.34878" lon="-0.81727">
        <ele>66.9</ele>
        <time>2020-06-16T17:07:12Z</time>
      </trkpt>
      <trkpt lat="49.34878" lon="-0.8172">
        <ele>66.9</ele>
        <time>2020-06-16T17:07:13Z</time>
      </trkpt>
      <trkpt lat="49.34879" lon="-0.81713">
        <ele>66.9</ele>
        <time>2020-06-16T17:07:14Z</time>
      </trkpt>
      <trkpt lat="49.34879" lon="-0.81708">
        <ele>66.9</ele>
        <time>2020-06-16T17:07:15Z</time>
      </trkpt>
      <trkpt lat="49.34879" lon="-0.81701">
        <ele>66.9</ele>
        <time>2020-06-16T17:07:16Z</time>
      </trkpt>
      <trkpt lat="49.34879" lon="-0.81694">
        <ele>66.8</ele>
        <time>2020-06-16T17:07:17Z</time>
      </trkpt>
      <trkpt lat="49.3488" lon="-0.81685">
        <ele>66.8</ele>
        <time>2020-06-16T17:07:18Z</time>
      </trkpt>
      <trkpt lat="49.34881" lon="-0.81677">
        <ele>66.7</ele>
        <time>2020-06-16T17:07:19Z</time>
      </trkpt>
      <trkpt lat="49.34881" lon="-0.81669">
        <ele>66.7</ele>
        <time>2020-06-16T17:07:20Z</time>
      </trkpt>
      <trkpt lat="49.34882" lon="-0.8166">
        <ele>66.6</ele>
        <time>2020-06-16T17:07:21Z</time>
      </trkpt>
      <trkpt lat="49.34882" lon="-0.81654">
        <ele>66.6</ele>
        <time>2020-06-16T17:07:22Z</time>
      </trkpt>
      <trkpt lat="49.34883" lon="-0.81645">
        <ele>66.6</ele>
        <time>2020-06-16T17:07:23Z</time>
      </trkpt>
      <trkpt lat="49.34883" lon="-0.81638">
        <ele>66.6</ele>
        <time>2020-06-16T17:07:24Z</time>
      </trkpt>
      <trkpt lat="49.34882" lon="-0.81631">
        <ele>66.6</ele>
        <time>2020-06-16T17:07:25Z</time>
      </trkpt>
      <trkpt lat="49.34883" lon="-0.81622">
        <ele>66.5</ele>
        <time>2020-06-16T17:07:26Z</time>
      </trkpt>
      <trkpt lat="49.34884" lon="-0.81614">
        <ele>66.5</ele>
        <time>2020-06-16T17:07:27Z</time>
      </trkpt>
      <trkpt lat="49.34884" lon="-0.81606">
        <ele>66.5</ele>
        <time>2020-06-16T17:07:28Z</time>
      </trkpt>
      <trkpt lat="49.34884" lon="-0.81598">
        <ele>66.5</ele>
        <time>2020-06-16T17:07:29Z</time>
      </trkpt>
      <trkpt lat="49.34884" lon="-0.81591">
        <ele>66.4</ele>
        <time>2020-06-16T17:07:30Z</time>
      </trkpt>
      <trkpt lat="49.34884" lon="-0.81583">
        <ele>66.4</ele>
        <time>2020-06-16T17:07:31Z</time>
      </trkpt>
      <trkpt lat="49.34885" lon="-0.81575">
        <ele>66.4</ele>
        <time>2020-06-16T17:07:32Z</time>
      </trkpt>
      <trkpt lat="49.34886" lon="-0.81567">
        <ele>66.3</ele>
        <time>2020-06-16T17:07:33Z</time>
      </trkpt>
      <trkpt lat="49.34887" lon="-0.81559">
        <ele>66.3</ele>
        <time>2020-06-16T17:07:34Z</time>
      </trkpt>
      <trkpt lat="49.34888" lon="-0.81549">
        <ele>66.2</ele>
        <time>2020-06-16T17:07:35Z</time>
      </trkpt>
      <trkpt lat="49.3489" lon="-0.81542">
        <ele>66.1</ele>
        <time>2020-06-16T17:07:36Z</time>
      </trkpt>
      <trkpt lat="49.34891" lon="-0.81534">
        <ele>66.1</ele>
        <time>2020-06-16T17:07:37Z</time>
      </trkpt>
      <trkpt lat="49.34893" lon="-0.81524">
        <ele>65.9</ele>
        <time>2020-06-16T17:07:38Z</time>
      </trkpt>
      <trkpt lat="49.34893" lon="-0.81516">
        <ele>65.9</ele>
        <time>2020-06-16T17:07:39Z</time>
      </trkpt>
      <trkpt lat="49.34894" lon="-0.81508">
        <ele>65.9</ele>
        <time>2020-06-16T17:07:40Z</time>
      </trkpt>
      <trkpt lat="49.34894" lon="-0.815">
        <ele>65.9</ele>
        <time>2020-06-16T17:07:41Z</time>
      </trkpt>
      <trkpt lat="49.34894" lon="-0.81492">
        <ele>65.8</ele>
        <time>2020-06-16T17:07:42Z</time>
      </trkpt>
      <trkpt lat="49.34894" lon="-0.81484">
        <ele>65.8</ele>
        <time>2020-06-16T17:07:43Z</time>
      </trkpt>
      <trkpt lat="49.34894" lon="-0.81477">
        <ele>65.8</ele>
        <time>2020-06-16T17:07:44Z</time>
      </trkpt>
      <trkpt lat="49.34894" lon="-0.81468">
        <ele>65.8</ele>
        <time>2020-06-16T17:07:45Z</time>
      </trkpt>
      <trkpt lat="49.34893" lon="-0.81459">
        <ele>65.7</ele>
        <time>2020-06-16T17:07:46Z</time>
      </trkpt>
      <trkpt lat="49.34894" lon="-0.81449">
        <ele>65.7</ele>
        <time>2020-06-16T17:07:47Z</time>
      </trkpt>
      <trkpt lat="49.34893" lon="-0.81443">
        <ele>65.7</ele>
        <time>2020-06-16T17:07:48Z</time>
      </trkpt>
      <trkpt lat="49.34892" lon="-0.81435">
        <ele>65.6</ele>
        <time>2020-06-16T17:07:49Z</time>
      </trkpt>
      <trkpt lat="49.34892" lon="-0.81427">
        <ele>65.6</ele>
        <time>2020-06-16T17:07:50Z</time>
      </trkpt>
      <trkpt lat="49.34891" lon="-0.81419">
        <ele>65.6</ele>
        <time>2020-06-16T17:07:51Z</time>
      </trkpt>
      <trkpt lat="49.34889" lon="-0.81411">
        <ele>65.6</ele>
        <time>2020-06-16T17:07:52Z</time>
      </trkpt>
      <trkpt lat="49.34887" lon="-0.81404">
        <ele>65.6</ele>
        <time>2020-06-16T17:07:53Z</time>
      </trkpt>
      <trkpt lat="49.34884" lon="-0.81396">
        <ele>65.6</ele>
        <time>2020-06-16T17:07:54Z</time>
      </trkpt>
      <trkpt lat="49.34883" lon="-0.81389">
        <ele>65.6</ele>
        <time>2020-06-16T17:07:55Z</time>
      </trkpt>
      <trkpt lat="49.3488" lon="-0.81381">
        <ele>65.6</ele>
        <time>2020-06-16T17:07:56Z</time>
      </trkpt>
      <trkpt lat="49.34877" lon="-0.81373">
        <ele>65.6</ele>
        <time>2020-06-16T17:07:57Z</time>
      </trkpt>
      <trkpt lat="49.34876" lon="-0.81365">
        <ele>65.6</ele>
        <time>2020-06-16T17:07:58Z</time>
      </trkpt>
      <trkpt lat="49.34874" lon="-0.81357">
        <ele>65.6</ele>
        <time>2020-06-16T17:07:59Z</time>
      </trkpt>
      <trkpt lat="49.34873" lon="-0.81349">
        <ele>65.6</ele>
        <time>2020-06-16T17:08:00Z</time>
      </trkpt>
      <trkpt lat="49.34872" lon="-0.81341">
        <ele>65.5</ele>
        <time>2020-06-16T17:08:01Z</time>
      </trkpt>
      <trkpt lat="49.3487" lon="-0.81333">
        <ele>65.5</ele>
        <time>2020-06-16T17:08:02Z</time>
      </trkpt>
      <trkpt lat="49.34869" lon="-0.81324">
        <ele>65.4</ele>
        <time>2020-06-16T17:08:03Z</time>
      </trkpt>
      <trkpt lat="49.34869" lon="-0.81316">
        <ele>65.4</ele>
        <time>2020-06-16T17:08:04Z</time>
      </trkpt>
      <trkpt lat="49.34869" lon="-0.81308">
        <ele>65.3</ele>
        <time>2020-06-16T17:08:05Z</time>
      </trkpt>
      <trkpt lat="49.34868" lon="-0.813">
        <ele>65.2</ele>
        <time>2020-06-16T17:08:06Z</time>
      </trkpt>
      <trkpt lat="49.34868" lon="-0.81291">
        <ele>65.1</ele>
        <time>2020-06-16T17:08:07Z</time>
      </trkpt>
      <trkpt lat="49.34868" lon="-0.81283">
        <ele>65.1</ele>
        <time>2020-06-16T17:08:08Z</time>
      </trkpt>
      <trkpt lat="49.34867" lon="-0.81273">
        <ele>65</ele>
        <time>2020-06-16T17:08:09Z</time>
      </trkpt>
      <trkpt lat="49.34867" lon="-0.81264">
        <ele>65</ele>
        <time>2020-06-16T17:08:10Z</time>
      </trkpt>
      <trkpt lat="49.34867" lon="-0.81254">
        <ele>64.9</ele>
        <time>2020-06-16T17:08:11Z</time>
      </trkpt>
      <trkpt lat="49.34867" lon="-0.81247">
        <ele>64.9</ele>
        <time>2020-06-16T17:08:12Z</time>
      </trkpt>
      <trkpt lat="49.34867" lon="-0.8124">
        <ele>64.9</ele>
        <time>2020-06-16T17:08:13Z</time>
      </trkpt>
      <trkpt lat="49.34867" lon="-0.81232">
        <ele>64.9</ele>
        <time>2020-06-16T17:08:14Z</time>
      </trkpt>
      <trkpt lat="49.34867" lon="-0.81225">
        <ele>64.9</ele>
        <time>2020-06-16T17:08:15Z</time>
      </trkpt>
      <trkpt lat="49.34868" lon="-0.81216">
        <ele>64.9</ele>
        <time>2020-06-16T17:08:16Z</time>
      </trkpt>
      <trkpt lat="49.34868" lon="-0.81207">
        <ele>64.9</ele>
        <time>2020-06-16T17:08:17Z</time>
      </trkpt>
      <trkpt lat="49.34868" lon="-0.81197">
        <ele>64.9</ele>
        <time>2020-06-16T17:08:18Z</time>
      </trkpt>
      <trkpt lat="49.34869" lon="-0.81187">
        <ele>64.9</ele>
        <time>2020-06-16T17:08:19Z</time>
      </trkpt>
      <trkpt lat="49.34869" lon="-0.81179">
        <ele>64.8</ele>
        <time>2020-06-16T17:08:20Z</time>
      </trkpt>
      <trkpt lat="49.34868" lon="-0.81171">
        <ele>64.8</ele>
        <time>2020-06-16T17:08:21Z</time>
      </trkpt>
      <trkpt lat="49.34867" lon="-0.81165">
        <ele>64.8</ele>
        <time>2020-06-16T17:08:22Z</time>
      </trkpt>
      <trkpt lat="49.34867" lon="-0.81158">
        <ele>64.8</ele>
        <time>2020-06-16T17:08:23Z</time>
      </trkpt>
      <trkpt lat="49.34866" lon="-0.81152">
        <ele>64.8</ele>
        <time>2020-06-16T17:08:24Z</time>
      </trkpt>
      <trkpt lat="49.34866" lon="-0.81145">
        <ele>64.8</ele>
        <time>2020-06-16T17:08:25Z</time>
      </trkpt>
      <trkpt lat="49.34865" lon="-0.81139">
        <ele>64.7</ele>
        <time>2020-06-16T17:08:26Z</time>
      </trkpt>
      <trkpt lat="49.34864" lon="-0.81131">
        <ele>64.7</ele>
        <time>2020-06-16T17:08:27Z</time>
      </trkpt>
      <trkpt lat="49.34863" lon="-0.81123">
        <ele>64.7</ele>
        <time>2020-06-16T17:08:28Z</time>
      </trkpt>
      <trkpt lat="49.34862" lon="-0.81114">
        <ele>64.6</ele>
        <time>2020-06-16T17:08:29Z</time>
      </trkpt>
      <trkpt lat="49.34861" lon="-0.81106">
        <ele>64.6</ele>
        <time>2020-06-16T17:08:30Z</time>
      </trkpt>
      <trkpt lat="49.34859" lon="-0.811">
        <ele>64.5</ele>
        <time>2020-06-16T17:08:31Z</time>
      </trkpt>
      <trkpt lat="49.34857" lon="-0.81093">
        <ele>64.5</ele>
        <time>2020-06-16T17:08:32Z</time>
      </trkpt>
      <trkpt lat="49.34855" lon="-0.81085">
        <ele>64.5</ele>
        <time>2020-06-16T17:08:33Z</time>
      </trkpt>
      <trkpt lat="49.34852" lon="-0.81078">
        <ele>64.4</ele>
        <time>2020-06-16T17:08:34Z</time>
      </trkpt>
      <trkpt lat="49.3485" lon="-0.8107">
        <ele>64.4</ele>
        <time>2020-06-16T17:08:35Z</time>
      </trkpt>
      <trkpt lat="49.34847" lon="-0.81062">
        <ele>64.3</ele>
        <time>2020-06-16T17:08:36Z</time>
      </trkpt>
      <trkpt lat="49.34845" lon="-0.81054">
        <ele>64.2</ele>
        <time>2020-06-16T17:08:37Z</time>
      </trkpt>
      <trkpt lat="49.34842" lon="-0.81046">
        <ele>64.1</ele>
        <time>2020-06-16T17:08:38Z</time>
      </trkpt>
      <trkpt lat="49.34839" lon="-0.81038">
        <ele>64</ele>
        <time>2020-06-16T17:08:39Z</time>
      </trkpt>
      <trkpt lat="49.34836" lon="-0.8103">
        <ele>63.9</ele>
        <time>2020-06-16T17:08:40Z</time>
      </trkpt>
      <trkpt lat="49.34833" lon="-0.81023">
        <ele>63.8</ele>
        <time>2020-06-16T17:08:41Z</time>
      </trkpt>
      <trkpt lat="49.34831" lon="-0.81016">
        <ele>63.7</ele>
        <time>2020-06-16T17:08:42Z</time>
      </trkpt>
      <trkpt lat="49.34828" lon="-0.81009">
        <ele>63.7</ele>
        <time>2020-06-16T17:08:43Z</time>
      </trkpt>
      <trkpt lat="49.34824" lon="-0.81002">
        <ele>63.6</ele>
        <time>2020-06-16T17:08:44Z</time>
      </trkpt>
      <trkpt lat="49.34821" lon="-0.80995">
        <ele>63.4</ele>
        <time>2020-06-16T17:08:45Z</time>
      </trkpt>
      <trkpt lat="49.34818" lon="-0.80988">
        <ele>63.3</ele>
        <time>2020-06-16T17:08:46Z</time>
      </trkpt>
      <trkpt lat="49.34815" lon="-0.8098">
        <ele>63.2</ele>
        <time>2020-06-16T17:08:47Z</time>
      </trkpt>
      <trkpt lat="49.34813" lon="-0.80974">
        <ele>63</ele>
        <time>2020-06-16T17:08:48Z</time>
      </trkpt>
      <trkpt lat="49.34809" lon="-0.80968">
        <ele>62.9</ele>
        <time>2020-06-16T17:08:49Z</time>
      </trkpt>
      <trkpt lat="49.34806" lon="-0.80961">
        <ele>62.7</ele>
        <time>2020-06-16T17:08:50Z</time>
      </trkpt>
      <trkpt lat="49.34803" lon="-0.80953">
        <ele>62.5</ele>
        <time>2020-06-16T17:08:51Z</time>
      </trkpt>
      <trkpt lat="49.34799" lon="-0.80947">
        <ele>62.3</ele>
        <time>2020-06-16T17:08:52Z</time>
      </trkpt>
      <trkpt lat="49.34796" lon="-0.80939">
        <ele>62.1</ele>
        <time>2020-06-16T17:08:53Z</time>
      </trkpt>
      <trkpt lat="49.34793" lon="-0.80932">
        <ele>61.8</ele>
        <time>2020-06-16T17:08:54Z</time>
      </trkpt>
      <trkpt lat="49.34789" lon="-0.80925">
        <ele>61.3</ele>
        <time>2020-06-16T17:08:55Z</time>
      </trkpt>
      <trkpt lat="49.34786" lon="-0.80918">
        <ele>61</ele>
        <time>2020-06-16T17:08:56Z</time>
      </trkpt>
      <trkpt lat="49.34782" lon="-0.8091">
        <ele>60.7</ele>
        <time>2020-06-16T17:08:57Z</time>
      </trkpt>
      <trkpt lat="49.34779" lon="-0.80902">
        <ele>60.4</ele>
        <time>2020-06-16T17:08:58Z</time>
      </trkpt>
      <trkpt lat="49.34776" lon="-0.80895">
        <ele>60.1</ele>
        <time>2020-06-16T17:08:59Z</time>
      </trkpt>
      <trkpt lat="49.34773" lon="-0.80887">
        <ele>59.8</ele>
        <time>2020-06-16T17:09:00Z</time>
      </trkpt>
      <trkpt lat="49.3477" lon="-0.80879">
        <ele>59.4</ele>
        <time>2020-06-16T17:09:01Z</time>
      </trkpt>
      <trkpt lat="49.34767" lon="-0.8087">
        <ele>59</ele>
        <time>2020-06-16T17:09:02Z</time>
      </trkpt>
      <trkpt lat="49.34761" lon="-0.80864">
        <ele>58.6</ele>
        <time>2020-06-16T17:09:03Z</time>
      </trkpt>
      <trkpt lat="49.34756" lon="-0.80856">
        <ele>58.2</ele>
        <time>2020-06-16T17:09:04Z</time>
      </trkpt>
      <trkpt lat="49.34753" lon="-0.80849">
        <ele>57.8</ele>
        <time>2020-06-16T17:09:05Z</time>
      </trkpt>
      <trkpt lat="49.3475" lon="-0.80842">
        <ele>57.5</ele>
        <time>2020-06-16T17:09:06Z</time>
      </trkpt>
      <trkpt lat="49.34746" lon="-0.80835">
        <ele>57.1</ele>
        <time>2020-06-16T17:09:07Z</time>
      </trkpt>
      <trkpt lat="49.34743" lon="-0.80829">
        <ele>56.8</ele>
        <time>2020-06-16T17:09:08Z</time>
      </trkpt>
      <trkpt lat="49.34739" lon="-0.80821">
        <ele>56.4</ele>
        <time>2020-06-16T17:09:09Z</time>
      </trkpt>
      <trkpt lat="49.34735" lon="-0.80812">
        <ele>55.9</ele>
        <time>2020-06-16T17:09:10Z</time>
      </trkpt>
      <trkpt lat="49.34731" lon="-0.80804">
        <ele>55.5</ele>
        <time>2020-06-16T17:09:11Z</time>
      </trkpt>
      <trkpt lat="49.34727" lon="-0.80796">
        <ele>55</ele>
        <time>2020-06-16T17:09:12Z</time>
      </trkpt>
      <trkpt lat="49.34724" lon="-0.8079">
        <ele>54.6</ele>
        <time>2020-06-16T17:09:13Z</time>
      </trkpt>
      <trkpt lat="49.3472" lon="-0.80783">
        <ele>54.3</ele>
        <time>2020-06-16T17:09:14Z</time>
      </trkpt>
      <trkpt lat="49.34718" lon="-0.80778">
        <ele>54.1</ele>
        <time>2020-06-16T17:09:15Z</time>
      </trkpt>
      <trkpt lat="49.34715" lon="-0.80771">
        <ele>54</ele>
        <time>2020-06-16T17:09:16Z</time>
      </trkpt>
      <trkpt lat="49.34714" lon="-0.80764">
        <ele>53.8</ele>
        <time>2020-06-16T17:09:17Z</time>
      </trkpt>
      <trkpt lat="49.34713" lon="-0.8076">
        <ele>53.7</ele>
        <time>2020-06-16T17:09:18Z</time>
      </trkpt>
      <trkpt lat="49.34713" lon="-0.80758">
        <ele>53.7</ele>
        <time>2020-06-16T17:09:19Z</time>
      </trkpt>
      <trkpt lat="49.34712" lon="-0.80755">
        <ele>53.7</ele>
        <time>2020-06-16T17:09:20Z</time>
      </trkpt>
      <trkpt lat="49.34712" lon="-0.8075">
        <ele>53.8</ele>
        <time>2020-06-16T17:09:21Z</time>
      </trkpt>
      <trkpt lat="49.34712" lon="-0.80749">
        <ele>53.8</ele>
        <time>2020-06-16T17:09:22Z</time>
      </trkpt>
      <trkpt lat="49.34713" lon="-0.80749">
        <ele>53.8</ele>
        <time>2020-06-16T17:09:23Z</time>
      </trkpt>
      <trkpt lat="49.34713" lon="-0.80749">
        <ele>53.8</ele>
        <time>2020-06-16T17:09:24Z</time>
      </trkpt>
      <trkpt lat="49.34713" lon="-0.8075">
        <ele>53.8</ele>
        <time>2020-06-16T17:09:25Z</time>
      </trkpt>
      <trkpt lat="49.34714" lon="-0.8075">
        <ele>53.8</ele>
        <time>2020-06-16T17:09:26Z</time>
      </trkpt>
      <trkpt lat="49.34714" lon="-0.80749">
        <ele>53.8</ele>
        <time>2020-06-16T17:09:27Z</time>
      </trkpt>
      <trkpt lat="49.34714" lon="-0.80749">
        <ele>53.8</ele>
        <time>2020-06-16T17:09:28Z</time>
      </trkpt>
      <trkpt lat="49.34714" lon="-0.80749">
        <ele>53.8</ele>
        <time>2020-06-16T17:09:29Z</time>
      </trkpt>
      <trkpt lat="49.34713" lon="-0.80749">
        <ele>53.8</ele>
        <time>2020-06-16T17:09:30Z</time>
      </trkpt>
      <trkpt lat="49.34712" lon="-0.8075">
        <ele>53.8</ele>
        <time>2020-06-16T17:09:31Z</time>
      </trkpt>
      <trkpt lat="49.34712" lon="-0.80747">
        <ele>53.9</ele>
        <time>2020-06-16T17:09:32Z</time>
      </trkpt>
      <trkpt lat="49.34712" lon="-0.80745">
        <ele>53.9</ele>
        <time>2020-06-16T17:09:33Z</time>
      </trkpt>
      <trkpt lat="49.34713" lon="-0.80744">
        <ele>53.9</ele>
        <time>2020-06-16T17:09:34Z</time>
      </trkpt>
      <trkpt lat="49.34714" lon="-0.80742">
        <ele>53.9</ele>
        <time>2020-06-16T17:09:35Z</time>
      </trkpt>
      <trkpt lat="49.34715" lon="-0.80742">
        <ele>53.9</ele>
        <time>2020-06-16T17:09:36Z</time>
      </trkpt>
      <trkpt lat="49.34716" lon="-0.80741">
        <ele>53.9</ele>
        <time>2020-06-16T17:09:37Z</time>
      </trkpt>
      <trkpt lat="49.3472" lon="-0.8074">
        <ele>53.9</ele>
        <time>2020-06-16T17:09:38Z</time>
      </trkpt>
      <trkpt lat="49.34721" lon="-0.8074">
        <ele>53.9</ele>
        <time>2020-06-16T17:09:39Z</time>
      </trkpt>
      <trkpt lat="49.34723" lon="-0.80739">
        <ele>54</ele>
        <time>2020-06-16T17:09:40Z</time>
      </trkpt>
      <trkpt lat="49.34724" lon="-0.80738">
        <ele>54</ele>
        <time>2020-06-16T17:09:41Z</time>
      </trkpt>
      <trkpt lat="49.34726" lon="-0.80735">
        <ele>54</ele>
        <time>2020-06-16T17:09:42Z</time>
      </trkpt>
      <trkpt lat="49.34727" lon="-0.80734">
        <ele>54</ele>
        <time>2020-06-16T17:09:43Z</time>
      </trkpt>
      <trkpt lat="49.3473" lon="-0.80732">
        <ele>54</ele>
        <time>2020-06-16T17:09:44Z</time>
      </trkpt>
      <trkpt lat="49.34733" lon="-0.8073">
        <ele>53.9</ele>
        <time>2020-06-16T17:09:45Z</time>
      </trkpt>
      <trkpt lat="49.34735" lon="-0.80727">
        <ele>53.9</ele>
        <time>2020-06-16T17:09:46Z</time>
      </trkpt>
      <trkpt lat="49.34737" lon="-0.80726">
        <ele>53.9</ele>
        <time>2020-06-16T17:09:47Z</time>
      </trkpt>
      <trkpt lat="49.34739" lon="-0.80723">
        <ele>53.9</ele>
        <time>2020-06-16T17:09:48Z</time>
      </trkpt>
      <trkpt lat="49.34742" lon="-0.80722">
        <ele>53.8</ele>
        <time>2020-06-16T17:09:49Z</time>
      </trkpt>
      <trkpt lat="49.34746" lon="-0.80719">
        <ele>53.7</ele>
        <time>2020-06-16T17:09:50Z</time>
      </trkpt>
      <trkpt lat="49.34748" lon="-0.80716">
        <ele>53.6</ele>
        <time>2020-06-16T17:09:51Z</time>
      </trkpt>
      <trkpt lat="49.34751" lon="-0.80712">
        <ele>53.4</ele>
        <time>2020-06-16T17:09:52Z</time>
      </trkpt>
      <trkpt lat="49.34754" lon="-0.80709">
        <ele>53.2</ele>
        <time>2020-06-16T17:09:53Z</time>
      </trkpt>
      <trkpt lat="49.34756" lon="-0.80705">
        <ele>53.1</ele>
        <time>2020-06-16T17:09:54Z</time>
      </trkpt>
      <trkpt lat="49.34758" lon="-0.80702">
        <ele>52.9</ele>
        <time>2020-06-16T17:09:55Z</time>
      </trkpt>
      <trkpt lat="49.3476" lon="-0.80698">
        <ele>52.7</ele>
        <time>2020-06-16T17:09:56Z</time>
      </trkpt>
      <trkpt lat="49.34761" lon="-0.80694">
        <ele>52.5</ele>
        <time>2020-06-16T17:09:57Z</time>
      </trkpt>
      <trkpt lat="49.34763" lon="-0.80689">
        <ele>52.2</ele>
        <time>2020-06-16T17:09:58Z</time>
      </trkpt>
      <trkpt lat="49.34764" lon="-0.80688">
        <ele>52.1</ele>
        <time>2020-06-16T17:09:59Z</time>
      </trkpt>
      <trkpt lat="49.34765" lon="-0.80683">
        <ele>51.8</ele>
        <time>2020-06-16T17:10:00Z</time>
      </trkpt>
      <trkpt lat="49.34766" lon="-0.80682">
        <ele>51.7</ele>
        <time>2020-06-16T17:10:01Z</time>
      </trkpt>
      <trkpt lat="49.34767" lon="-0.80678">
        <ele>51.4</ele>
        <time>2020-06-16T17:10:02Z</time>
      </trkpt>
      <trkpt lat="49.34768" lon="-0.80675">
        <ele>51.3</ele>
        <time>2020-06-16T17:10:03Z</time>
      </trkpt>
      <trkpt lat="49.34769" lon="-0.80671">
        <ele>51</ele>
        <time>2020-06-16T17:10:04Z</time>
      </trkpt>
      <trkpt lat="49.34769" lon="-0.80667">
        <ele>50.7</ele>
        <time>2020-06-16T17:10:05Z</time>
      </trkpt>
      <trkpt lat="49.34768" lon="-0.80665">
        <ele>50.7</ele>
        <time>2020-06-16T17:10:06Z</time>
      </trkpt>
      <trkpt lat="49.34769" lon="-0.80661">
        <ele>50.4</ele>
        <time>2020-06-16T17:10:07Z</time>
      </trkpt>
      <trkpt lat="49.34769" lon="-0.80656">
        <ele>50.1</ele>
        <time>2020-06-16T17:10:08Z</time>
      </trkpt>
      <trkpt lat="49.3477" lon="-0.8065">
        <ele>49.8</ele>
        <time>2020-06-16T17:10:09Z</time>
      </trkpt>
      <trkpt lat="49.34772" lon="-0.80643">
        <ele>49.4</ele>
        <time>2020-06-16T17:10:10Z</time>
      </trkpt>
      <trkpt lat="49.34773" lon="-0.80635">
        <ele>48.9</ele>
        <time>2020-06-16T17:10:11Z</time>
      </trkpt>
      <trkpt lat="49.34775" lon="-0.80629">
        <ele>48.5</ele>
        <time>2020-06-16T17:10:12Z</time>
      </trkpt>
      <trkpt lat="49.34777" lon="-0.80623">
        <ele>48.2</ele>
        <time>2020-06-16T17:10:13Z</time>
      </trkpt>
      <trkpt lat="49.3478" lon="-0.80616">
        <ele>47.8</ele>
        <time>2020-06-16T17:10:14Z</time>
      </trkpt>
      <trkpt lat="49.34782" lon="-0.80609">
        <ele>47.4</ele>
        <time>2020-06-16T17:10:15Z</time>
      </trkpt>
      <trkpt lat="49.34785" lon="-0.80602">
        <ele>47.2</ele>
        <time>2020-06-16T17:10:16Z</time>
      </trkpt>
      <trkpt lat="49.34787" lon="-0.80596">
        <ele>47</ele>
        <time>2020-06-16T17:10:17Z</time>
      </trkpt>
      <trkpt lat="49.34789" lon="-0.8059">
        <ele>46.8</ele>
        <time>2020-06-16T17:10:18Z</time>
      </trkpt>
      <trkpt lat="49.3479" lon="-0.80585">
        <ele>46.7</ele>
        <time>2020-06-16T17:10:19Z</time>
      </trkpt>
      <trkpt lat="49.34792" lon="-0.8058">
        <ele>46.5</ele>
        <time>2020-06-16T17:10:20Z</time>
      </trkpt>
      <trkpt lat="49.34794" lon="-0.80576">
        <ele>46.5</ele>
        <time>2020-06-16T17:10:21Z</time>
      </trkpt>
      <trkpt lat="49.34795" lon="-0.80572">
        <ele>46.4</ele>
        <time>2020-06-16T17:10:22Z</time>
      </trkpt>
      <trkpt lat="49.34797" lon="-0.80568">
        <ele>46.3</ele>
        <time>2020-06-16T17:10:23Z</time>
      </trkpt>
      <trkpt lat="49.34797" lon="-0.80567">
        <ele>46.3</ele>
        <time>2020-06-16T17:10:24Z</time>
      </trkpt>
      <trkpt lat="49.34799" lon="-0.80563">
        <ele>46.2</ele>
        <time>2020-06-16T17:10:25Z</time>
      </trkpt>
      <trkpt lat="49.348" lon="-0.80562">
        <ele>46.2</ele>
        <time>2020-06-16T17:10:26Z</time>
      </trkpt>
      <trkpt lat="49.348" lon="-0.80557">
        <ele>46.2</ele>
        <time>2020-06-16T17:10:27Z</time>
      </trkpt>
      <trkpt lat="49.34802" lon="-0.80551">
        <ele>46.2</ele>
        <time>2020-06-16T17:10:28Z</time>
      </trkpt>
      <trkpt lat="49.34802" lon="-0.80549">
        <ele>46.2</ele>
        <time>2020-06-16T17:10:29Z</time>
      </trkpt>
      <trkpt lat="49.34803" lon="-0.80547">
        <ele>46.2</ele>
        <time>2020-06-16T17:10:30Z</time>
      </trkpt>
      <trkpt lat="49.34804" lon="-0.80545">
        <ele>46.2</ele>
        <time>2020-06-16T17:10:31Z</time>
      </trkpt>
      <trkpt lat="49.34807" lon="-0.80544">
        <ele>46.2</ele>
        <time>2020-06-16T17:10:32Z</time>
      </trkpt>
      <trkpt lat="49.34808" lon="-0.80544">
        <ele>46.2</ele>
        <time>2020-06-16T17:10:33Z</time>
      </trkpt>
      <trkpt lat="49.34811" lon="-0.80542">
        <ele>46.1</ele>
        <time>2020-06-16T17:10:34Z</time>
      </trkpt>
      <trkpt lat="49.34812" lon="-0.80541">
        <ele>46.1</ele>
        <time>2020-06-16T17:10:35Z</time>
      </trkpt>
      <trkpt lat="49.34815" lon="-0.80538">
        <ele>46.1</ele>
        <time>2020-06-16T17:10:36Z</time>
      </trkpt>
      <trkpt lat="49.34816" lon="-0.80537">
        <ele>46.1</ele>
        <time>2020-06-16T17:10:37Z</time>
      </trkpt>
      <trkpt lat="49.34818" lon="-0.80534">
        <ele>46.1</ele>
        <time>2020-06-16T17:10:38Z</time>
      </trkpt>
      <trkpt lat="49.34819" lon="-0.80533">
        <ele>46.1</ele>
        <time>2020-06-16T17:10:39Z</time>
      </trkpt>
      <trkpt lat="49.3482" lon="-0.80532">
        <ele>46.1</ele>
        <time>2020-06-16T17:10:40Z</time>
      </trkpt>
      <trkpt lat="49.34821" lon="-0.80531">
        <ele>46.1</ele>
        <time>2020-06-16T17:10:41Z</time>
      </trkpt>
      <trkpt lat="49.34822" lon="-0.80532">
        <ele>46.1</ele>
        <time>2020-06-16T17:10:42Z</time>
      </trkpt>
      <trkpt lat="49.34822" lon="-0.80532">
        <ele>46.1</ele>
        <time>2020-06-16T17:10:43Z</time>
      </trkpt>
      <trkpt lat="49.34822" lon="-0.80532">
        <ele>46.1</ele>
        <time>2020-06-16T17:10:44Z</time>
      </trkpt>
      <trkpt lat="49.34823" lon="-0.80532">
        <ele>46.1</ele>
        <time>2020-06-16T17:10:45Z</time>
      </trkpt>
      <trkpt lat="49.34823" lon="-0.80533">
        <ele>46.1</ele>
        <time>2020-06-16T17:10:46Z</time>
      </trkpt>
      <trkpt lat="49.34823" lon="-0.80533">
        <ele>46.1</ele>
        <time>2020-06-16T17:10:47Z</time>
      </trkpt>
      <trkpt lat="49.34824" lon="-0.80532">
        <ele>46.1</ele>
        <time>2020-06-16T17:10:48Z</time>
      </trkpt>
      <trkpt lat="49.34823" lon="-0.80533">
        <ele>46.1</ele>
        <time>2020-06-16T17:10:49Z</time>
      </trkpt>
      <trkpt lat="49.34823" lon="-0.80533">
        <ele>46.1</ele>
        <time>2020-06-16T17:10:50Z</time>
      </trkpt>
      <trkpt lat="49.34824" lon="-0.80533">
        <ele>46.1</ele>
        <time>2020-06-16T17:10:51Z</time>
      </trkpt>
      <trkpt lat="49.34823" lon="-0.80534">
        <ele>46.1</ele>
        <time>2020-06-16T17:10:52Z</time>
      </trkpt>
      <trkpt lat="49.34824" lon="-0.80535">
        <ele>46.1</ele>
        <time>2020-06-16T17:10:53Z</time>
      </trkpt>
      <trkpt lat="49.34824" lon="-0.80535">
        <ele>46.1</ele>
        <time>2020-06-16T17:10:54Z</time>
      </trkpt>
      <trkpt lat="49.34823" lon="-0.80536">
        <ele>46.1</ele>
        <time>2020-06-16T17:10:55Z</time>
      </trkpt>
      <trkpt lat="49.34823" lon="-0.80536">
        <ele>46.1</ele>
        <time>2020-06-16T17:10:56Z</time>
      </trkpt>
      <trkpt lat="49.34824" lon="-0.80536">
        <ele>46.1</ele>
        <time>2020-06-16T17:10:57Z</time>
      </trkpt>
      <trkpt lat="49.34824" lon="-0.80537">
        <ele>46.1</ele>
        <time>2020-06-16T17:10:58Z</time>
      </trkpt>
      <trkpt lat="49.34824" lon="-0.80537">
        <ele>46.1</ele>
        <time>2020-06-16T17:10:59Z</time>
      </trkpt>
      <trkpt lat="49.34824" lon="-0.80535">
        <ele>46.1</ele>
        <time>2020-06-16T17:11:00Z</time>
      </trkpt>
      <trkpt lat="49.34824" lon="-0.80535">
        <ele>46.1</ele>
        <time>2020-06-16T17:11:01Z</time>
      </trkpt>
      <trkpt lat="49.34825" lon="-0.80536">
        <ele>46.1</ele>
        <time>2020-06-16T17:11:02Z</time>
      </trkpt>
      <trkpt lat="49.34825" lon="-0.80536">
        <ele>46.1</ele>
        <time>2020-06-16T17:11:03Z</time>
      </trkpt>
      <trkpt lat="49.34825" lon="-0.80538">
        <ele>46.1</ele>
        <time>2020-06-16T17:11:04Z</time>
      </trkpt>
      <trkpt lat="49.34824" lon="-0.8054">
        <ele>46.1</ele>
        <time>2020-06-16T17:11:05Z</time>
      </trkpt>
      <trkpt lat="49.34821" lon="-0.80542">
        <ele>46.1</ele>
        <time>2020-06-16T17:11:06Z</time>
      </trkpt>
      <trkpt lat="49.3482" lon="-0.80542">
        <ele>46.1</ele>
        <time>2020-06-16T17:11:07Z</time>
      </trkpt>
      <trkpt lat="49.34819" lon="-0.80542">
        <ele>46.1</ele>
        <time>2020-06-16T17:11:08Z</time>
      </trkpt>
      <trkpt lat="49.34818" lon="-0.80542">
        <ele>46.1</ele>
        <time>2020-06-16T17:11:09Z</time>
      </trkpt>
      <trkpt lat="49.34816" lon="-0.80543">
        <ele>46.1</ele>
        <time>2020-06-16T17:11:10Z</time>
      </trkpt>
      <trkpt lat="49.34815" lon="-0.80544">
        <ele>46.1</ele>
        <time>2020-06-16T17:11:11Z</time>
      </trkpt>
      <trkpt lat="49.34814" lon="-0.80544">
        <ele>46.1</ele>
        <time>2020-06-16T17:11:12Z</time>
      </trkpt>
      <trkpt lat="49.34814" lon="-0.80545">
        <ele>46.1</ele>
        <time>2020-06-16T17:11:13Z</time>
      </trkpt>
      <trkpt lat="49.34814" lon="-0.80545">
        <ele>46.1</ele>
        <time>2020-06-16T17:11:14Z</time>
      </trkpt>
      <trkpt lat="49.34813" lon="-0.80546">
        <ele>46.1</ele>
        <time>2020-06-16T17:11:15Z</time>
      </trkpt>
      <trkpt lat="49.34813" lon="-0.80548">
        <ele>46.1</ele>
        <time>2020-06-16T17:11:16Z</time>
      </trkpt>
      <trkpt lat="49.34812" lon="-0.80548">
        <ele>46.1</ele>
        <time>2020-06-16T17:11:17Z</time>
      </trkpt>
      <trkpt lat="49.34812" lon="-0.80549">
        <ele>46.1</ele>
        <time>2020-06-16T17:11:18Z</time>
      </trkpt>
      <trkpt lat="49.34811" lon="-0.80552">
        <ele>46.1</ele>
        <time>2020-06-16T17:11:19Z</time>
      </trkpt>
      <trkpt lat="49.3481" lon="-0.80554">
        <ele>46.1</ele>
        <time>2020-06-16T17:11:20Z</time>
      </trkpt>
      <trkpt lat="49.34809" lon="-0.80555">
        <ele>46.1</ele>
        <time>2020-06-16T17:11:21Z</time>
      </trkpt>
      <trkpt lat="49.3481" lon="-0.80555">
        <ele>46.1</ele>
        <time>2020-06-16T17:11:22Z</time>
      </trkpt>
      <trkpt lat="49.34809" lon="-0.80555">
        <ele>46.1</ele>
        <time>2020-06-16T17:11:23Z</time>
      </trkpt>
      <trkpt lat="49.34809" lon="-0.80555">
        <ele>46.1</ele>
        <time>2020-06-16T17:11:24Z</time>
      </trkpt>
      <trkpt lat="49.34809" lon="-0.80554">
        <ele>46.1</ele>
        <time>2020-06-16T17:11:25Z</time>
      </trkpt>
      <trkpt lat="49.34809" lon="-0.80553">
        <ele>46.1</ele>
        <time>2020-06-16T17:11:26Z</time>
      </trkpt>
      <trkpt lat="49.34808" lon="-0.80553">
        <ele>46.1</ele>
        <time>2020-06-16T17:11:27Z</time>
      </trkpt>
      <trkpt lat="49.34807" lon="-0.80553">
        <ele>46.1</ele>
        <time>2020-06-16T17:11:28Z</time>
      </trkpt>
      <trkpt lat="49.34807" lon="-0.80552">
        <ele>46.1</ele>
        <time>2020-06-16T17:11:29Z</time>
      </trkpt>
      <trkpt lat="49.34806" lon="-0.80551">
        <ele>46.1</ele>
        <time>2020-06-16T17:11:30Z</time>
      </trkpt>
      <trkpt lat="49.34806" lon="-0.80551">
        <ele>46.1</ele>
        <time>2020-06-16T17:11:31Z</time>
      </trkpt>
      <trkpt lat="49.34806" lon="-0.80551">
        <ele>46.1</ele>
        <time>2020-06-16T17:11:32Z</time>
      </trkpt>
      <trkpt lat="49.34806" lon="-0.80551">
        <ele>46.1</ele>
        <time>2020-06-16T17:11:33Z</time>
      </trkpt>
      <trkpt lat="49.3481" lon="-0.80545">
        <ele>46.1</ele>
        <time>2020-06-16T17:11:49Z</time>
      </trkpt>
      <trkpt lat="49.3481" lon="-0.80543">
        <ele>46.1</ele>
        <time>2020-06-16T17:11:50Z</time>
      </trkpt>
      <trkpt lat="49.34811" lon="-0.80541">
        <ele>46.1</ele>
        <time>2020-06-16T17:11:51Z</time>
      </trkpt>
      <trkpt lat="49.34811" lon="-0.80541">
        <ele>46.1</ele>
        <time>2020-06-16T17:11:52Z</time>
      </trkpt>
      <trkpt lat="49.34811" lon="-0.8054">
        <ele>46.1</ele>
        <time>2020-06-16T17:11:53Z</time>
      </trkpt>
      <trkpt lat="49.3481" lon="-0.80539">
        <ele>46.1</ele>
        <time>2020-06-16T17:11:54Z</time>
      </trkpt>
      <trkpt lat="49.3481" lon="-0.80538">
        <ele>46.1</ele>
        <time>2020-06-16T17:11:55Z</time>
      </trkpt>
      <trkpt lat="49.3481" lon="-0.80537">
        <ele>46.1</ele>
        <time>2020-06-16T17:11:56Z</time>
      </trkpt>
      <trkpt lat="49.3481" lon="-0.80537">
        <ele>46.1</ele>
        <time>2020-06-16T17:11:57Z</time>
      </trkpt>
      <trkpt lat="49.3481" lon="-0.80537">
        <ele>46.1</ele>
        <time>2020-06-16T17:11:58Z</time>
      </trkpt>
      <trkpt lat="49.3481" lon="-0.80537">
        <ele>46.1</ele>
        <time>2020-06-16T17:11:59Z</time>
      </trkpt>
      <trkpt lat="49.3481" lon="-0.80537">
        <ele>46.1</ele>
        <time>2020-06-16T17:12:00Z</time>
      </trkpt>
      <trkpt lat="49.3481" lon="-0.80537">
        <ele>46.1</ele>
        <time>2020-06-16T17:12:01Z</time>
      </trkpt>
      <trkpt lat="49.3481" lon="-0.80537">
        <ele>46.1</ele>
        <time>2020-06-16T17:12:02Z</time>
      </trkpt>
      <trkpt lat="49.3481" lon="-0.80537">
        <ele>46.1</ele>
        <time>2020-06-16T17:12:03Z</time>
      </trkpt>
      <trkpt lat="49.3481" lon="-0.80537">
        <ele>46.1</ele>
        <time>2020-06-16T17:12:04Z</time>
      </trkpt>
      <trkpt lat="49.3481" lon="-0.80537">
        <ele>46.1</ele>
        <time>2020-06-16T17:12:05Z</time>
      </trkpt>
      <trkpt lat="49.34811" lon="-0.80537">
        <ele>46.1</ele>
        <time>2020-06-16T17:12:06Z</time>
      </trkpt>
      <trkpt lat="49.34811" lon="-0.80537">
        <ele>46.1</ele>
        <time>2020-06-16T17:12:07Z</time>
      </trkpt>
      <trkpt lat="49.34818" lon="-0.80536">
        <ele>46.1</ele>
        <time>2020-06-16T17:14:30Z</time>
      </trkpt>
      <trkpt lat="49.34818" lon="-0.80536">
        <ele>46.1</ele>
        <time>2020-06-16T17:14:31Z</time>
      </trkpt>
      <trkpt lat="49.34817" lon="-0.80537">
        <ele>46.1</ele>
        <time>2020-06-16T17:14:32Z</time>
      </trkpt>
      <trkpt lat="49.34816" lon="-0.80541">
        <ele>46.1</ele>
        <time>2020-06-16T17:14:33Z</time>
      </trkpt>
      <trkpt lat="49.34815" lon="-0.80542">
        <ele>46.1</ele>
        <time>2020-06-16T17:14:34Z</time>
      </trkpt>
      <trkpt lat="49.34813" lon="-0.80545">
        <ele>46.1</ele>
        <time>2020-06-16T17:14:35Z</time>
      </trkpt>
      <trkpt lat="49.34811" lon="-0.80547">
        <ele>46.1</ele>
        <time>2020-06-16T17:14:36Z</time>
      </trkpt>
      <trkpt lat="49.3481" lon="-0.80549">
        <ele>46.1</ele>
        <time>2020-06-16T17:14:37Z</time>
      </trkpt>
      <trkpt lat="49.34808" lon="-0.8055">
        <ele>46.1</ele>
        <time>2020-06-16T17:14:38Z</time>
      </trkpt>
      <trkpt lat="49.34807" lon="-0.80551">
        <ele>46.1</ele>
        <time>2020-06-16T17:14:39Z</time>
      </trkpt>
      <trkpt lat="49.34807" lon="-0.80551">
        <ele>46.1</ele>
        <time>2020-06-16T17:14:40Z</time>
      </trkpt>
      <trkpt lat="49.34806" lon="-0.80551">
        <ele>46.1</ele>
        <time>2020-06-16T17:14:41Z</time>
      </trkpt>
      <trkpt lat="49.34806" lon="-0.80551">
        <ele>46.1</ele>
        <time>2020-06-16T17:14:42Z</time>
      </trkpt>
      <trkpt lat="49.34806" lon="-0.80549">
        <ele>46.1</ele>
        <time>2020-06-16T17:14:43Z</time>
      </trkpt>
      <trkpt lat="49.34805" lon="-0.80547">
        <ele>46.1</ele>
        <time>2020-06-16T17:14:44Z</time>
      </trkpt>
      <trkpt lat="49.34805" lon="-0.80546">
        <ele>46.1</ele>
        <time>2020-06-16T17:14:45Z</time>
      </trkpt>
      <trkpt lat="49.34804" lon="-0.80544">
        <ele>46.1</ele>
        <time>2020-06-16T17:14:46Z</time>
      </trkpt>
      <trkpt lat="49.34803" lon="-0.80542">
        <ele>46.1</ele>
        <time>2020-06-16T17:14:47Z</time>
      </trkpt>
      <trkpt lat="49.34802" lon="-0.8054">
        <ele>46.1</ele>
        <time>2020-06-16T17:14:48Z</time>
      </trkpt>
      <trkpt lat="49.34802" lon="-0.80538">
        <ele>46.1</ele>
        <time>2020-06-16T17:14:49Z</time>
      </trkpt>
      <trkpt lat="49.34802" lon="-0.80537">
        <ele>46.1</ele>
        <time>2020-06-16T17:14:50Z</time>
      </trkpt>
      <trkpt lat="49.34801" lon="-0.80536">
        <ele>46.1</ele>
        <time>2020-06-16T17:14:51Z</time>
      </trkpt>
      <trkpt lat="49.34801" lon="-0.80535">
        <ele>46.1</ele>
        <time>2020-06-16T17:14:52Z</time>
      </trkpt>
      <trkpt lat="49.348" lon="-0.80532">
        <ele>46.1</ele>
        <time>2020-06-16T17:14:53Z</time>
      </trkpt>
      <trkpt lat="49.34799" lon="-0.80531">
        <ele>46.1</ele>
        <time>2020-06-16T17:14:54Z</time>
      </trkpt>
      <trkpt lat="49.34799" lon="-0.80529">
        <ele>46.1</ele>
        <time>2020-06-16T17:14:55Z</time>
      </trkpt>
      <trkpt lat="49.34797" lon="-0.80527">
        <ele>46.1</ele>
        <time>2020-06-16T17:14:56Z</time>
      </trkpt>
      <trkpt lat="49.34796" lon="-0.80526">
        <ele>46.1</ele>
        <time>2020-06-16T17:14:57Z</time>
      </trkpt>
      <trkpt lat="49.34796" lon="-0.80525">
        <ele>46.1</ele>
        <time>2020-06-16T17:14:58Z</time>
      </trkpt>
      <trkpt lat="49.34795" lon="-0.80523">
        <ele>46.1</ele>
        <time>2020-06-16T17:14:59Z</time>
      </trkpt>
      <trkpt lat="49.34794" lon="-0.80522">
        <ele>46.1</ele>
        <time>2020-06-16T17:15:00Z</time>
      </trkpt>
      <trkpt lat="49.34793" lon="-0.8052">
        <ele>46.1</ele>
        <time>2020-06-16T17:15:01Z</time>
      </trkpt>
      <trkpt lat="49.34793" lon="-0.80519">
        <ele>46.1</ele>
        <time>2020-06-16T17:15:02Z</time>
      </trkpt>
      <trkpt lat="49.34793" lon="-0.80518">
        <ele>46.1</ele>
        <time>2020-06-16T17:15:03Z</time>
      </trkpt>
      <trkpt lat="49.34793" lon="-0.80517">
        <ele>46.1</ele>
        <time>2020-06-16T17:15:04Z</time>
      </trkpt>
      <trkpt lat="49.34792" lon="-0.80517">
        <ele>46.1</ele>
        <time>2020-06-16T17:15:05Z</time>
      </trkpt>
      <trkpt lat="49.34792" lon="-0.80517">
        <ele>46.1</ele>
        <time>2020-06-16T17:15:06Z</time>
      </trkpt>
      <trkpt lat="49.34792" lon="-0.80516">
        <ele>46.1</ele>
        <time>2020-06-16T17:15:07Z</time>
      </trkpt>
      <trkpt lat="49.34791" lon="-0.80515">
        <ele>46.1</ele>
        <time>2020-06-16T17:15:08Z</time>
      </trkpt>
      <trkpt lat="49.34791" lon="-0.80515">
        <ele>46.1</ele>
        <time>2020-06-16T17:15:09Z</time>
      </trkpt>
      <trkpt lat="49.34791" lon="-0.80515">
        <ele>46.1</ele>
        <time>2020-06-16T17:15:10Z</time>
      </trkpt>
      <trkpt lat="49.34791" lon="-0.80514">
        <ele>46.1</ele>
        <time>2020-06-16T17:15:11Z</time>
      </trkpt>
      <trkpt lat="49.3479" lon="-0.80515">
        <ele>46.1</ele>
        <time>2020-06-16T17:15:12Z</time>
      </trkpt>
      <trkpt lat="49.3479" lon="-0.80515">
        <ele>46.1</ele>
        <time>2020-06-16T17:15:13Z</time>
      </trkpt>
      <trkpt lat="49.3479" lon="-0.80514">
        <ele>46.1</ele>
        <time>2020-06-16T17:15:14Z</time>
      </trkpt>
      <trkpt lat="49.3479" lon="-0.80513">
        <ele>46.1</ele>
        <time>2020-06-16T17:15:15Z</time>
      </trkpt>
      <trkpt lat="49.3479" lon="-0.80513">
        <ele>46.1</ele>
        <time>2020-06-16T17:15:16Z</time>
      </trkpt>
      <trkpt lat="49.3479" lon="-0.80513">
        <ele>46.1</ele>
        <time>2020-06-16T17:15:17Z</time>
      </trkpt>
      <trkpt lat="49.34791" lon="-0.80513">
        <ele>46.1</ele>
        <time>2020-06-16T17:15:18Z</time>
      </trkpt>
      <trkpt lat="49.34791" lon="-0.80513">
        <ele>46.1</ele>
        <time>2020-06-16T17:15:19Z</time>
      </trkpt>
      <trkpt lat="49.34791" lon="-0.80513">
        <ele>46.1</ele>
        <time>2020-06-16T17:15:20Z</time>
      </trkpt>
      <trkpt lat="49.34791" lon="-0.80513">
        <ele>46.1</ele>
        <time>2020-06-16T17:15:21Z</time>
      </trkpt>
      <trkpt lat="49.34791" lon="-0.80512">
        <ele>46.1</ele>
        <time>2020-06-16T17:15:22Z</time>
      </trkpt>
      <trkpt lat="49.34791" lon="-0.80512">
        <ele>46.1</ele>
        <time>2020-06-16T17:15:23Z</time>
      </trkpt>
      <trkpt lat="49.34791" lon="-0.80512">
        <ele>46.1</ele>
        <time>2020-06-16T17:15:24Z</time>
      </trkpt>
      <trkpt lat="49.34791" lon="-0.80514">
        <ele>46.1</ele>
        <time>2020-06-16T17:15:25Z</time>
      </trkpt>
      <trkpt lat="49.34791" lon="-0.80515">
        <ele>46.1</ele>
        <time>2020-06-16T17:15:26Z</time>
      </trkpt>
      <trkpt lat="49.34791" lon="-0.80516">
        <ele>46.1</ele>
        <time>2020-06-16T17:15:27Z</time>
      </trkpt>
      <trkpt lat="49.34791" lon="-0.80517">
        <ele>46.1</ele>
        <time>2020-06-16T17:15:28Z</time>
      </trkpt>
      <trkpt lat="49.34791" lon="-0.80518">
        <ele>46.1</ele>
        <time>2020-06-16T17:15:29Z</time>
      </trkpt>
      <trkpt lat="49.34791" lon="-0.80518">
        <ele>46.1</ele>
        <time>2020-06-16T17:15:30Z</time>
      </trkpt>
      <trkpt lat="49.34791" lon="-0.80518">
        <ele>46.1</ele>
        <time>2020-06-16T17:15:31Z</time>
      </trkpt>
      <trkpt lat="49.3479" lon="-0.80518">
        <ele>46.1</ele>
        <time>2020-06-16T17:15:32Z</time>
      </trkpt>
      <trkpt lat="49.3479" lon="-0.80518">
        <ele>46.1</ele>
        <time>2020-06-16T17:15:33Z</time>
      </trkpt>
      <trkpt lat="49.3479" lon="-0.80518">
        <ele>46.1</ele>
        <time>2020-06-16T17:15:34Z</time>
      </trkpt>
      <trkpt lat="49.34789" lon="-0.80518">
        <ele>46.1</ele>
        <time>2020-06-16T17:15:35Z</time>
      </trkpt>
      <trkpt lat="49.34789" lon="-0.80518">
        <ele>46.1</ele>
        <time>2020-06-16T17:15:36Z</time>
      </trkpt>
      <trkpt lat="49.34788" lon="-0.80518">
        <ele>46.1</ele>
        <time>2020-06-16T17:15:37Z</time>
      </trkpt>
      <trkpt lat="49.34788" lon="-0.80519">
        <ele>46.1</ele>
        <time>2020-06-16T17:15:38Z</time>
      </trkpt>
      <trkpt lat="49.34788" lon="-0.80519">
        <ele>46.1</ele>
        <time>2020-06-16T17:15:39Z</time>
      </trkpt>
      <trkpt lat="49.34788" lon="-0.80519">
        <ele>46.1</ele>
        <time>2020-06-16T17:15:40Z</time>
      </trkpt>
    </trkseg>
  </trk>
</gpx>